<?xml version='1.0' encoding='UTF-8'?><gpx version="1.1" creator="JPX - https://github.com/jenetics/jpx" xmlns="http://www.topografix.com/GPX/1/1"><trk><trkseg><trkpt lat="40.4251899" lon="15.006068"><ele>16.999999999999996</ele><time>2026-03-29T07:12:49.161Z</time></trkpt><trkpt lat="40.4251289" lon="15.0060449"><ele>17.0</ele><time>2026-03-29T07:16:13.159Z</time></trkpt><trkpt lat="40.4251006" lon="15.0059684"><ele>17.0</ele><time>2026-03-29T07:17:44.166Z</time></trkpt><trkpt lat="40.4250628" lon="15.0060372"><ele>17.0</ele><time>2026-03-29T07:18:38.163Z</time></trkpt><trkpt lat="40.4250036" lon="15.0060997"><ele>17.0</ele><time>2026-03-29T07:18:43.168Z</time></trkpt><trkpt lat="40.4249449" lon="15.0060514"><ele>16.999999999999996</ele><time>2026-03-29T07:18:46.127Z</time></trkpt><trkpt lat="40.425021" lon="15.0060559"><ele>17.0</ele><time>2026-03-29T07:19:09.094Z</time></trkpt><trkpt lat="40.4251048" lon="15.0060036"><ele>17.0</ele><time>2026-03-29T07:19:10.092Z</time></trkpt><trkpt lat="40.4252056" lon="15.0059556"><ele>17.0</ele><time>2026-03-29T07:19:11.13Z</time></trkpt><trkpt lat="40.4252977" lon="15.0059125"><ele>17.0</ele><time>2026-03-29T07:19:12.142Z</time></trkpt><trkpt lat="40.4253798" lon="15.0058647"><ele>17.0</ele><time>2026-03-29T07:19:13.122Z</time></trkpt><trkpt lat="40.4254613" lon="15.005808"><ele>17.0</ele><time>2026-03-29T07:19:14.106Z</time></trkpt><trkpt lat="40.425541" lon="15.005751"><ele>17.0</ele><time>2026-03-29T07:19:15.12Z</time></trkpt><trkpt lat="40.4256222" lon="15.0057049"><ele>17.0</ele><time>2026-03-29T07:19:16.116Z</time></trkpt><trkpt lat="40.4257137" lon="15.0056705"><ele>17.0</ele><time>2026-03-29T07:19:17.091Z</time></trkpt><trkpt lat="40.4258258" lon="15.0056188"><ele>17.0</ele><time>2026-03-29T07:19:18.133Z</time></trkpt><trkpt lat="40.4259406" lon="15.0055552"><ele>17.0</ele><time>2026-03-29T07:19:19.092Z</time></trkpt><trkpt lat="40.4260662" lon="15.0054859"><ele>17.0</ele><time>2026-03-29T07:19:20.094Z</time></trkpt><trkpt lat="40.4261851" lon="15.0054212"><ele>17.0</ele><time>2026-03-29T07:19:21.113Z</time></trkpt><trkpt lat="40.4262865" lon="15.0053644"><ele>17.0</ele><time>2026-03-29T07:19:22.117Z</time></trkpt><trkpt lat="40.426379" lon="15.0053111"><ele>17.0</ele><time>2026-03-29T07:19:23.125Z</time></trkpt><trkpt lat="40.4264623" lon="15.0052633"><ele>17.0</ele><time>2026-03-29T07:19:24.124Z</time></trkpt><trkpt lat="40.4265411" lon="15.005225"><ele>17.0</ele><time>2026-03-29T07:19:25.118Z</time></trkpt><trkpt lat="40.4266192" lon="15.005192"><ele>17.0</ele><time>2026-03-29T07:19:26.104Z</time></trkpt><trkpt lat="40.4266977" lon="15.0051656"><ele>17.0</ele><time>2026-03-29T07:19:27.111Z</time></trkpt><trkpt lat="40.4267749" lon="15.0051558"><ele>17.0</ele><time>2026-03-29T07:19:28.212Z</time></trkpt><trkpt lat="40.4268692" lon="15.0052122"><ele>17.0</ele><time>2026-03-29T07:19:30.121Z</time></trkpt><trkpt lat="40.4269019" lon="15.0053463"><ele>17.0</ele><time>2026-03-29T07:19:32.131Z</time></trkpt><trkpt lat="40.4269069" lon="15.005463"><ele>17.0</ele><time>2026-03-29T07:19:33.126Z</time></trkpt><trkpt lat="40.4269069" lon="15.0056218"><ele>17.0</ele><time>2026-03-29T07:19:34.12Z</time></trkpt><trkpt lat="40.4269068" lon="15.0058309"><ele>17.0</ele><time>2026-03-29T07:19:35.127Z</time></trkpt><trkpt lat="40.4269166" lon="15.0060858"><ele>16.333333333333336</ele><time>2026-03-29T07:19:36.129Z</time></trkpt><trkpt lat="40.4269276" lon="15.0063601"><ele>15.666666666666668</ele><time>2026-03-29T07:19:37.134Z</time></trkpt><trkpt lat="40.4269361" lon="15.0066314"><ele>15.0</ele><time>2026-03-29T07:19:38.094Z</time></trkpt><trkpt lat="40.4269452" lon="15.0069013"><ele>15.0</ele><time>2026-03-29T07:19:39.115Z</time></trkpt><trkpt lat="40.4269531" lon="15.0071259"><ele>15.0</ele><time>2026-03-29T07:19:40.125Z</time></trkpt><trkpt lat="40.4269606" lon="15.0073034"><ele>15.0</ele><time>2026-03-29T07:19:41.09Z</time></trkpt><trkpt lat="40.4269643" lon="15.0074681"><ele>15.0</ele><time>2026-03-29T07:19:42.132Z</time></trkpt><trkpt lat="40.4269657" lon="15.0076061"><ele>15.2</ele><time>2026-03-29T07:19:43.1Z</time></trkpt><trkpt lat="40.4269695" lon="15.0077624"><ele>15.4</ele><time>2026-03-29T07:19:44.327Z</time></trkpt><trkpt lat="40.4269709" lon="15.0079244"><ele>15.600000000000001</ele><time>2026-03-29T07:19:46.2Z</time></trkpt><trkpt lat="40.4269681" lon="15.0080366"><ele>15.8</ele><time>2026-03-29T07:19:48.157Z</time></trkpt><trkpt lat="40.4269709" lon="15.0081287"><ele>16.0</ele><time>2026-03-29T07:19:51.197Z</time></trkpt><trkpt lat="40.4269805" lon="15.0082135"><ele>16.0</ele><time>2026-03-29T07:20:05.199Z</time></trkpt><trkpt lat="40.427" lon="15.0083021"><ele>15.999999999999998</ele><time>2026-03-29T07:20:11.185Z</time></trkpt><trkpt lat="40.426997" lon="15.0083946"><ele>16.0</ele><time>2026-03-29T07:20:13.189Z</time></trkpt><trkpt lat="40.4269874" lon="15.0084899"><ele>16.0</ele><time>2026-03-29T07:20:15.175Z</time></trkpt><trkpt lat="40.4269855" lon="15.0085903"><ele>15.999999999999998</ele><time>2026-03-29T07:20:18.173Z</time></trkpt><trkpt lat="40.4269985" lon="15.0086753"><ele>16.0</ele><time>2026-03-29T07:21:38.212Z</time></trkpt><trkpt lat="40.4269833" lon="15.0087664"><ele>16.0</ele><time>2026-03-29T07:21:42.236Z</time></trkpt><trkpt lat="40.42699" lon="15.0088663"><ele>16.0</ele><time>2026-03-29T07:21:53.096Z</time></trkpt><trkpt lat="40.4269929" lon="15.0089606"><ele>16.0</ele><time>2026-03-29T07:21:54.117Z</time></trkpt><trkpt lat="40.4269998" lon="15.0091049"><ele>16.0</ele><time>2026-03-29T07:21:55.142Z</time></trkpt><trkpt lat="40.4270106" lon="15.0092809"><ele>16.0</ele><time>2026-03-29T07:21:56.112Z</time></trkpt><trkpt lat="40.4270196" lon="15.0094801"><ele>16.333333333333332</ele><time>2026-03-29T07:21:57.107Z</time></trkpt><trkpt lat="40.4270283" lon="15.0097172"><ele>16.666666666666668</ele><time>2026-03-29T07:21:58.113Z</time></trkpt><trkpt lat="40.427037" lon="15.0099422"><ele>17.0</ele><time>2026-03-29T07:21:59.119Z</time></trkpt><trkpt lat="40.4270435" lon="15.0101506"><ele>17.0</ele><time>2026-03-29T07:22:00.101Z</time></trkpt><trkpt lat="40.427053" lon="15.0103825"><ele>17.0</ele><time>2026-03-29T07:22:01.148Z</time></trkpt><trkpt lat="40.4270617" lon="15.0106035"><ele>17.0</ele><time>2026-03-29T07:22:02.108Z</time></trkpt><trkpt lat="40.427071" lon="15.0108417"><ele>16.666666666666668</ele><time>2026-03-29T07:22:03.12Z</time></trkpt><trkpt lat="40.4270799" lon="15.0110642"><ele>16.333333333333332</ele><time>2026-03-29T07:22:04.125Z</time></trkpt><trkpt lat="40.4270877" lon="15.0112689"><ele>16.0</ele><time>2026-03-29T07:22:05.128Z</time></trkpt><trkpt lat="40.4270958" lon="15.0114613"><ele>16.0</ele><time>2026-03-29T07:22:06.126Z</time></trkpt><trkpt lat="40.4270937" lon="15.0116416"><ele>16.0</ele><time>2026-03-29T07:22:07.136Z</time></trkpt><trkpt lat="40.4270737" lon="15.0118017"><ele>16.0</ele><time>2026-03-29T07:22:08.106Z</time></trkpt><trkpt lat="40.4270277" lon="15.0119547"><ele>16.0</ele><time>2026-03-29T07:22:09.104Z</time></trkpt><trkpt lat="40.4269594" lon="15.0120892"><ele>16.0</ele><time>2026-03-29T07:22:10.116Z</time></trkpt><trkpt lat="40.4268522" lon="15.0122213"><ele>16.0</ele><time>2026-03-29T07:22:11.137Z</time></trkpt><trkpt lat="40.4267147" lon="15.0123594"><ele>16.0</ele><time>2026-03-29T07:22:12.118Z</time></trkpt><trkpt lat="40.4265485" lon="15.0124963"><ele>16.0</ele><time>2026-03-29T07:22:13.129Z</time></trkpt><trkpt lat="40.4263842" lon="15.0126353"><ele>16.0</ele><time>2026-03-29T07:22:14.163Z</time></trkpt><trkpt lat="40.4262426" lon="15.0127602"><ele>16.0</ele><time>2026-03-29T07:22:15.142Z</time></trkpt><trkpt lat="40.4261137" lon="15.0128727"><ele>16.0</ele><time>2026-03-29T07:22:16.143Z</time></trkpt><trkpt lat="40.4259943" lon="15.0129749"><ele>16.0</ele><time>2026-03-29T07:22:17.133Z</time></trkpt><trkpt lat="40.4258836" lon="15.0130721"><ele>16.0</ele><time>2026-03-29T07:22:18.151Z</time></trkpt><trkpt lat="40.425782" lon="15.0131603"><ele>16.0</ele><time>2026-03-29T07:22:19.152Z</time></trkpt><trkpt lat="40.4256869" lon="15.0132374"><ele>16.0</ele><time>2026-03-29T07:22:20.134Z</time></trkpt><trkpt lat="40.4255872" lon="15.0133162"><ele>16.0</ele><time>2026-03-29T07:22:21.16Z</time></trkpt><trkpt lat="40.4254831" lon="15.0133785"><ele>16.0</ele><time>2026-03-29T07:22:22.182Z</time></trkpt><trkpt lat="40.4253817" lon="15.0134158"><ele>16.0</ele><time>2026-03-29T07:22:23.139Z</time></trkpt><trkpt lat="40.4252662" lon="15.0134417"><ele>15.75</ele><time>2026-03-29T07:22:24.156Z</time></trkpt><trkpt lat="40.4251416" lon="15.0134653"><ele>15.5</ele><time>2026-03-29T07:22:25.121Z</time></trkpt><trkpt lat="40.424994" lon="15.0134862"><ele>15.25</ele><time>2026-03-29T07:22:26.141Z</time></trkpt><trkpt lat="40.4248395" lon="15.0134987"><ele>15.0</ele><time>2026-03-29T07:22:27.166Z</time></trkpt><trkpt lat="40.4246957" lon="15.0135051"><ele>15.5</ele><time>2026-03-29T07:22:28.126Z</time></trkpt><trkpt lat="40.4245546" lon="15.0135117"><ele>16.0</ele><time>2026-03-29T07:22:29.135Z</time></trkpt><trkpt lat="40.4244233" lon="15.0135183"><ele>16.5</ele><time>2026-03-29T07:22:30.138Z</time></trkpt><trkpt lat="40.4242988" lon="15.0135252"><ele>17.0</ele><time>2026-03-29T07:22:31.148Z</time></trkpt><trkpt lat="40.4241851" lon="15.0135322"><ele>17.0</ele><time>2026-03-29T07:22:32.142Z</time></trkpt><trkpt lat="40.4240747" lon="15.0135378"><ele>17.0</ele><time>2026-03-29T07:22:33.145Z</time></trkpt><trkpt lat="40.4239603" lon="15.013546"><ele>17.0</ele><time>2026-03-29T07:22:34.163Z</time></trkpt><trkpt lat="40.4238587" lon="15.0135545"><ele>17.0</ele><time>2026-03-29T07:22:35.137Z</time></trkpt><trkpt lat="40.4237482" lon="15.0135669"><ele>17.0</ele><time>2026-03-29T07:22:36.281Z</time></trkpt><trkpt lat="40.423589" lon="15.0136396"><ele>17.0</ele><time>2026-03-29T07:22:38.122Z</time></trkpt><trkpt lat="40.423507" lon="15.0137264"><ele>17.0</ele><time>2026-03-29T07:22:39.132Z</time></trkpt><trkpt lat="40.4234163" lon="15.0138499"><ele>17.0</ele><time>2026-03-29T07:22:40.229Z</time></trkpt><trkpt lat="40.4232536" lon="15.0141043"><ele>17.0</ele><time>2026-03-29T07:22:42.141Z</time></trkpt><trkpt lat="40.4231725" lon="15.0142258"><ele>17.0</ele><time>2026-03-29T07:22:43.12Z</time></trkpt><trkpt lat="40.4230977" lon="15.0143423"><ele>17.0</ele><time>2026-03-29T07:22:44.115Z</time></trkpt><trkpt lat="40.4230223" lon="15.014443"><ele>17.0</ele><time>2026-03-29T07:22:45.138Z</time></trkpt><trkpt lat="40.422948" lon="15.0145158"><ele>17.0</ele><time>2026-03-29T07:22:46.111Z</time></trkpt><trkpt lat="40.4228576" lon="15.0145576"><ele>17.0</ele><time>2026-03-29T07:22:47.138Z</time></trkpt><trkpt lat="40.4227509" lon="15.0145705"><ele>17.0</ele><time>2026-03-29T07:22:48.125Z</time></trkpt><trkpt lat="40.4226275" lon="15.0145696"><ele>17.0</ele><time>2026-03-29T07:22:49.109Z</time></trkpt><trkpt lat="40.4224806" lon="15.0145706"><ele>17.0</ele><time>2026-03-29T07:22:50.108Z</time></trkpt><trkpt lat="40.4223281" lon="15.0145839"><ele>17.0</ele><time>2026-03-29T07:22:51.112Z</time></trkpt><trkpt lat="40.4221755" lon="15.0145949"><ele>17.0</ele><time>2026-03-29T07:22:52.116Z</time></trkpt><trkpt lat="40.4220344" lon="15.0145984"><ele>17.0</ele><time>2026-03-29T07:22:53.115Z</time></trkpt><trkpt lat="40.4219153" lon="15.0145794"><ele>17.0</ele><time>2026-03-29T07:22:54.138Z</time></trkpt><trkpt lat="40.4218027" lon="15.014551"><ele>17.0</ele><time>2026-03-29T07:22:55.125Z</time></trkpt><trkpt lat="40.4216594" lon="15.014511"><ele>17.0</ele><time>2026-03-29T07:22:56.346Z</time></trkpt><trkpt lat="40.4214061" lon="15.0145054"><ele>17.0</ele><time>2026-03-29T07:22:58.175Z</time></trkpt><trkpt lat="40.4212396" lon="15.0145403"><ele>17.0</ele><time>2026-03-29T07:22:59.185Z</time></trkpt><trkpt lat="40.4210592" lon="15.01458"><ele>17.0</ele><time>2026-03-29T07:23:00.16Z</time></trkpt><trkpt lat="40.420865" lon="15.0146075"><ele>17.0</ele><time>2026-03-29T07:23:01.184Z</time></trkpt><trkpt lat="40.420687" lon="15.0146185"><ele>17.0</ele><time>2026-03-29T07:23:02.187Z</time></trkpt><trkpt lat="40.4205218" lon="15.0146284"><ele>17.0</ele><time>2026-03-29T07:23:03.173Z</time></trkpt><trkpt lat="40.4203501" lon="15.0146369"><ele>17.0</ele><time>2026-03-29T07:23:04.268Z</time></trkpt><trkpt lat="40.4202147" lon="15.0146447"><ele>16.5</ele><time>2026-03-29T07:23:05.179Z</time></trkpt><trkpt lat="40.4200632" lon="15.0146509"><ele>16.0</ele><time>2026-03-29T07:23:06.252Z</time></trkpt><trkpt lat="40.4199323" lon="15.0146532"><ele>15.5</ele><time>2026-03-29T07:23:07.177Z</time></trkpt><trkpt lat="40.4197945" lon="15.0146579"><ele>15.0</ele><time>2026-03-29T07:23:08.197Z</time></trkpt><trkpt lat="40.4196569" lon="15.014667"><ele>15.0</ele><time>2026-03-29T07:23:09.21Z</time></trkpt><trkpt lat="40.4195305" lon="15.0146816"><ele>15.0</ele><time>2026-03-29T07:23:10.178Z</time></trkpt><trkpt lat="40.4194027" lon="15.0146886"><ele>15.0</ele><time>2026-03-29T07:23:11.225Z</time></trkpt><trkpt lat="40.4192922" lon="15.0146728"><ele>15.0</ele><time>2026-03-29T07:23:12.193Z</time></trkpt><trkpt lat="40.4191904" lon="15.0146226"><ele>15.0</ele><time>2026-03-29T07:23:13.19Z</time></trkpt><trkpt lat="40.4191004" lon="15.01454"><ele>15.0</ele><time>2026-03-29T07:23:14.178Z</time></trkpt><trkpt lat="40.4190309" lon="15.0144397"><ele>15.0</ele><time>2026-03-29T07:23:15.179Z</time></trkpt><trkpt lat="40.4189786" lon="15.0143204"><ele>15.0</ele><time>2026-03-29T07:23:16.221Z</time></trkpt><trkpt lat="40.4189484" lon="15.014191"><ele>15.0</ele><time>2026-03-29T07:23:17.181Z</time></trkpt><trkpt lat="40.4189302" lon="15.0140404"><ele>15.333333333333332</ele><time>2026-03-29T07:23:18.186Z</time></trkpt><trkpt lat="40.4189146" lon="15.0138675"><ele>15.666666666666666</ele><time>2026-03-29T07:23:19.192Z</time></trkpt><trkpt lat="40.4188946" lon="15.013674"><ele>16.0</ele><time>2026-03-29T07:23:20.187Z</time></trkpt><trkpt lat="40.418872" lon="15.0134488"><ele>16.333333333333332</ele><time>2026-03-29T07:23:21.184Z</time></trkpt><trkpt lat="40.4188508" lon="15.0131862"><ele>16.666666666666668</ele><time>2026-03-29T07:23:22.202Z</time></trkpt><trkpt lat="40.4188306" lon="15.0129173"><ele>17.0</ele><time>2026-03-29T07:23:23.199Z</time></trkpt><trkpt lat="40.4188149" lon="15.0126665"><ele>17.0</ele><time>2026-03-29T07:23:24.179Z</time></trkpt><trkpt lat="40.4188075" lon="15.0124286"><ele>17.0</ele><time>2026-03-29T07:23:25.181Z</time></trkpt><trkpt lat="40.4187981" lon="15.0122072"><ele>17.0</ele><time>2026-03-29T07:23:26.177Z</time></trkpt><trkpt lat="40.41879" lon="15.0119984"><ele>17.0</ele><time>2026-03-29T07:23:27.174Z</time></trkpt><trkpt lat="40.4187812" lon="15.011788"><ele>17.0</ele><time>2026-03-29T07:23:28.165Z</time></trkpt><trkpt lat="40.4187711" lon="15.0115647"><ele>17.0</ele><time>2026-03-29T07:23:29.201Z</time></trkpt><trkpt lat="40.4187606" lon="15.0113547"><ele>17.25</ele><time>2026-03-29T07:23:30.185Z</time></trkpt><trkpt lat="40.4187537" lon="15.0111551"><ele>17.5</ele><time>2026-03-29T07:23:31.195Z</time></trkpt><trkpt lat="40.4187486" lon="15.010969"><ele>17.75</ele><time>2026-03-29T07:23:32.2Z</time></trkpt><trkpt lat="40.4187431" lon="15.0107938"><ele>18.0</ele><time>2026-03-29T07:23:33.193Z</time></trkpt><trkpt lat="40.4187352" lon="15.010612"><ele>18.0</ele><time>2026-03-29T07:23:34.2Z</time></trkpt><trkpt lat="40.4187262" lon="15.0104255"><ele>18.0</ele><time>2026-03-29T07:23:35.175Z</time></trkpt><trkpt lat="40.4187174" lon="15.0102319"><ele>18.0</ele><time>2026-03-29T07:23:36.198Z</time></trkpt><trkpt lat="40.4187082" lon="15.0100571"><ele>18.0</ele><time>2026-03-29T07:23:37.203Z</time></trkpt><trkpt lat="40.4187004" lon="15.0098957"><ele>18.0</ele><time>2026-03-29T07:23:38.185Z</time></trkpt><trkpt lat="40.4186948" lon="15.0097403"><ele>18.0</ele><time>2026-03-29T07:23:39.195Z</time></trkpt><trkpt lat="40.4186905" lon="15.0095947"><ele>18.0</ele><time>2026-03-29T07:23:40.191Z</time></trkpt><trkpt lat="40.4186866" lon="15.0094472"><ele>18.0</ele><time>2026-03-29T07:23:41.202Z</time></trkpt><trkpt lat="40.4186823" lon="15.0093004"><ele>18.0</ele><time>2026-03-29T07:23:42.19Z</time></trkpt><trkpt lat="40.418676" lon="15.0091441"><ele>18.0</ele><time>2026-03-29T07:23:43.186Z</time></trkpt><trkpt lat="40.4186619" lon="15.0089592"><ele>18.0</ele><time>2026-03-29T07:23:44.292Z</time></trkpt><trkpt lat="40.4186517" lon="15.0086198"><ele>18.0</ele><time>2026-03-29T07:23:46.179Z</time></trkpt><trkpt lat="40.4186436" lon="15.0084428"><ele>18.0</ele><time>2026-03-29T07:23:47.183Z</time></trkpt><trkpt lat="40.4186391" lon="15.0082831"><ele>18.0</ele><time>2026-03-29T07:23:48.174Z</time></trkpt><trkpt lat="40.4186382" lon="15.0081272"><ele>18.0</ele><time>2026-03-29T07:23:49.216Z</time></trkpt><trkpt lat="40.4186333" lon="15.0079937"><ele>18.333333333333332</ele><time>2026-03-29T07:23:50.19Z</time></trkpt><trkpt lat="40.4186289" lon="15.0078669"><ele>18.666666666666668</ele><time>2026-03-29T07:23:51.19Z</time></trkpt><trkpt lat="40.4186236" lon="15.0077516"><ele>19.0</ele><time>2026-03-29T07:23:52.189Z</time></trkpt><trkpt lat="40.4186173" lon="15.0076459"><ele>19.333333333333336</ele><time>2026-03-29T07:23:53.2Z</time></trkpt><trkpt lat="40.4186134" lon="15.007554"><ele>19.666666666666668</ele><time>2026-03-29T07:23:54.182Z</time></trkpt><trkpt lat="40.4186056" lon="15.0074144"><ele>20.0</ele><time>2026-03-29T07:23:56.266Z</time></trkpt><trkpt lat="40.4185967" lon="15.0073236"><ele>20.166666666666668</ele><time>2026-03-29T07:23:58.223Z</time></trkpt><trkpt lat="40.4185821" lon="15.007221"><ele>20.333333333333336</ele><time>2026-03-29T07:24:01.23Z</time></trkpt><trkpt lat="40.4185701" lon="15.0071176"><ele>20.5</ele><time>2026-03-29T07:24:59.202Z</time></trkpt><trkpt lat="40.4185383" lon="15.0070065"><ele>20.666666666666668</ele><time>2026-03-29T07:25:01.219Z</time></trkpt><trkpt lat="40.4184529" lon="15.0069272"><ele>20.833333333333332</ele><time>2026-03-29T07:25:03.239Z</time></trkpt><trkpt lat="40.4183905" lon="15.0069126"><ele>21.0</ele><time>2026-03-29T07:25:04.233Z</time></trkpt><trkpt lat="40.4183087" lon="15.0069131"><ele>21.0</ele><time>2026-03-29T07:25:05.199Z</time></trkpt><trkpt lat="40.4182118" lon="15.00692"><ele>21.0</ele><time>2026-03-29T07:25:06.197Z</time></trkpt><trkpt lat="40.4180949" lon="15.0069304"><ele>21.0</ele><time>2026-03-29T07:25:07.215Z</time></trkpt><trkpt lat="40.4179546" lon="15.006944"><ele>21.0</ele><time>2026-03-29T07:25:08.313Z</time></trkpt><trkpt lat="40.4178346" lon="15.0069578"><ele>20.25</ele><time>2026-03-29T07:25:09.226Z</time></trkpt><trkpt lat="40.4177116" lon="15.0069846"><ele>19.5</ele><time>2026-03-29T07:25:10.211Z</time></trkpt><trkpt lat="40.4175901" lon="15.0070375"><ele>18.75</ele><time>2026-03-29T07:25:11.195Z</time></trkpt><trkpt lat="40.4174538" lon="15.0071182"><ele>18.0</ele><time>2026-03-29T07:25:12.214Z</time></trkpt><trkpt lat="40.4173205" lon="15.0072126"><ele>18.0</ele><time>2026-03-29T07:25:13.196Z</time></trkpt><trkpt lat="40.417169" lon="15.0073265"><ele>18.0</ele><time>2026-03-29T07:25:14.32Z</time></trkpt><trkpt lat="40.4169372" lon="15.0074894"><ele>18.0</ele><time>2026-03-29T07:25:16.205Z</time></trkpt><trkpt lat="40.4168133" lon="15.0075741"><ele>17.666666666666668</ele><time>2026-03-29T07:25:17.245Z</time></trkpt><trkpt lat="40.416684" lon="15.0076748"><ele>17.333333333333336</ele><time>2026-03-29T07:25:18.226Z</time></trkpt><trkpt lat="40.4165364" lon="15.0077887"><ele>17.0</ele><time>2026-03-29T07:25:19.23Z</time></trkpt><trkpt lat="40.4163871" lon="15.0078973"><ele>16.666666666666668</ele><time>2026-03-29T07:25:20.211Z</time></trkpt><trkpt lat="40.416223" lon="15.0079999"><ele>16.333333333333332</ele><time>2026-03-29T07:25:21.215Z</time></trkpt><trkpt lat="40.416076" lon="15.0081006"><ele>16.0</ele><time>2026-03-29T07:25:22.227Z</time></trkpt><trkpt lat="40.4159377" lon="15.0081957"><ele>16.0</ele><time>2026-03-29T07:25:23.21Z</time></trkpt><trkpt lat="40.4157933" lon="15.0082929"><ele>16.0</ele><time>2026-03-29T07:25:24.219Z</time></trkpt><trkpt lat="40.4156461" lon="15.0083927"><ele>16.0</ele><time>2026-03-29T07:25:25.22Z</time></trkpt><trkpt lat="40.415499" lon="15.0084948"><ele>16.0</ele><time>2026-03-29T07:25:26.193Z</time></trkpt><trkpt lat="40.4153491" lon="15.0085934"><ele>16.0</ele><time>2026-03-29T07:25:27.189Z</time></trkpt><trkpt lat="40.4152075" lon="15.0086877"><ele>16.0</ele><time>2026-03-29T07:25:28.197Z</time></trkpt><trkpt lat="40.4150682" lon="15.0087832"><ele>16.0</ele><time>2026-03-29T07:25:29.234Z</time></trkpt><trkpt lat="40.4149349" lon="15.0088741"><ele>16.0</ele><time>2026-03-29T07:25:30.203Z</time></trkpt><trkpt lat="40.4147847" lon="15.0089772"><ele>16.0</ele><time>2026-03-29T07:25:31.221Z</time></trkpt><trkpt lat="40.4146311" lon="15.0090814"><ele>16.0</ele><time>2026-03-29T07:25:32.198Z</time></trkpt><trkpt lat="40.4144649" lon="15.0091946"><ele>16.0</ele><time>2026-03-29T07:25:33.205Z</time></trkpt><trkpt lat="40.4142995" lon="15.0093065"><ele>16.0</ele><time>2026-03-29T07:25:34.201Z</time></trkpt><trkpt lat="40.4141456" lon="15.009416"><ele>16.0</ele><time>2026-03-29T07:25:35.202Z</time></trkpt><trkpt lat="40.4139932" lon="15.0095299"><ele>16.0</ele><time>2026-03-29T07:25:36.286Z</time></trkpt><trkpt lat="40.41386" lon="15.0096255"><ele>16.0</ele><time>2026-03-29T07:25:37.218Z</time></trkpt><trkpt lat="40.413715" lon="15.009721"><ele>15.5</ele><time>2026-03-29T07:25:38.209Z</time></trkpt><trkpt lat="40.4135527" lon="15.0098274"><ele>15.0</ele><time>2026-03-29T07:25:39.327Z</time></trkpt><trkpt lat="40.4133044" lon="15.0099972"><ele>15.0</ele><time>2026-03-29T07:25:41.246Z</time></trkpt><trkpt lat="40.4131837" lon="15.0100775"><ele>15.0</ele><time>2026-03-29T07:25:42.206Z</time></trkpt><trkpt lat="40.4130493" lon="15.0101679"><ele>15.0</ele><time>2026-03-29T07:25:43.219Z</time></trkpt><trkpt lat="40.4129104" lon="15.0102645"><ele>15.0</ele><time>2026-03-29T07:25:44.231Z</time></trkpt><trkpt lat="40.4127729" lon="15.010359"><ele>15.0</ele><time>2026-03-29T07:25:45.181Z</time></trkpt><trkpt lat="40.4126123" lon="15.0104648"><ele>15.0</ele><time>2026-03-29T07:25:46.245Z</time></trkpt><trkpt lat="40.412449" lon="15.0105778"><ele>15.0</ele><time>2026-03-29T07:25:47.279Z</time></trkpt><trkpt lat="40.4122872" lon="15.0106911"><ele>15.0</ele><time>2026-03-29T07:25:48.26Z</time></trkpt><trkpt lat="40.4121239" lon="15.0108014"><ele>15.0</ele><time>2026-03-29T07:25:49.225Z</time></trkpt><trkpt lat="40.4119479" lon="15.0109213"><ele>15.0</ele><time>2026-03-29T07:25:50.223Z</time></trkpt><trkpt lat="40.4117526" lon="15.0110538"><ele>15.0</ele><time>2026-03-29T07:25:51.27Z</time></trkpt><trkpt lat="40.4115778" lon="15.0111724"><ele>15.0</ele><time>2026-03-29T07:25:52.271Z</time></trkpt><trkpt lat="40.4114143" lon="15.0112848"><ele>15.0</ele><time>2026-03-29T07:25:53.268Z</time></trkpt><trkpt lat="40.4112597" lon="15.0113911"><ele>14.666666666666668</ele><time>2026-03-29T07:25:54.264Z</time></trkpt><trkpt lat="40.4111008" lon="15.0114946"><ele>14.333333333333334</ele><time>2026-03-29T07:25:55.284Z</time></trkpt><trkpt lat="40.4109497" lon="15.0115931"><ele>14.0</ele><time>2026-03-29T07:25:56.309Z</time></trkpt><trkpt lat="40.41082" lon="15.0116807"><ele>14.5</ele><time>2026-03-29T07:25:57.259Z</time></trkpt><trkpt lat="40.410692" lon="15.0117679"><ele>15.0</ele><time>2026-03-29T07:25:58.254Z</time></trkpt><trkpt lat="40.4105723" lon="15.0118492"><ele>15.5</ele><time>2026-03-29T07:25:59.251Z</time></trkpt><trkpt lat="40.4104597" lon="15.0119246"><ele>16.0</ele><time>2026-03-29T07:26:00.245Z</time></trkpt><trkpt lat="40.4103533" lon="15.0119978"><ele>16.25</ele><time>2026-03-29T07:26:01.239Z</time></trkpt><trkpt lat="40.4102407" lon="15.0120725"><ele>16.5</ele><time>2026-03-29T07:26:02.243Z</time></trkpt><trkpt lat="40.4101168" lon="15.0121603"><ele>16.75</ele><time>2026-03-29T07:26:03.246Z</time></trkpt><trkpt lat="40.4099931" lon="15.0122502"><ele>17.0</ele><time>2026-03-29T07:26:04.249Z</time></trkpt><trkpt lat="40.4098738" lon="15.0123343"><ele>17.0</ele><time>2026-03-29T07:26:05.288Z</time></trkpt><trkpt lat="40.4097734" lon="15.0123996"><ele>17.0</ele><time>2026-03-29T07:26:06.257Z</time></trkpt><trkpt lat="40.4096713" lon="15.0124637"><ele>17.0</ele><time>2026-03-29T07:26:07.261Z</time></trkpt><trkpt lat="40.4095607" lon="15.0125393"><ele>17.0</ele><time>2026-03-29T07:26:08.294Z</time></trkpt><trkpt lat="40.4094504" lon="15.0126181"><ele>16.75</ele><time>2026-03-29T07:26:09.248Z</time></trkpt><trkpt lat="40.4093229" lon="15.0127123"><ele>16.5</ele><time>2026-03-29T07:26:10.244Z</time></trkpt><trkpt lat="40.4091809" lon="15.0128148"><ele>16.25</ele><time>2026-03-29T07:26:11.354Z</time></trkpt><trkpt lat="40.4090688" lon="15.0128935"><ele>16.0</ele><time>2026-03-29T07:26:12.255Z</time></trkpt><trkpt lat="40.4089425" lon="15.0129874"><ele>16.0</ele><time>2026-03-29T07:26:13.236Z</time></trkpt><trkpt lat="40.4087949" lon="15.0130855"><ele>16.0</ele><time>2026-03-29T07:26:14.239Z</time></trkpt><trkpt lat="40.4086284" lon="15.0131927"><ele>16.0</ele><time>2026-03-29T07:26:15.247Z</time></trkpt><trkpt lat="40.4084444" lon="15.0133184"><ele>16.5</ele><time>2026-03-29T07:26:16.24Z</time></trkpt><trkpt lat="40.4082516" lon="15.0134465"><ele>17.0</ele><time>2026-03-29T07:26:17.235Z</time></trkpt><trkpt lat="40.4080448" lon="15.0135924"><ele>17.0</ele><time>2026-03-29T07:26:18.251Z</time></trkpt><trkpt lat="40.4078076" lon="15.0137543"><ele>17.0</ele><time>2026-03-29T07:26:19.476Z</time></trkpt><trkpt lat="40.4075044" lon="15.0139611"><ele>17.0</ele><time>2026-03-29T07:26:21.24Z</time></trkpt><trkpt lat="40.4073431" lon="15.0140815"><ele>17.0</ele><time>2026-03-29T07:26:22.239Z</time></trkpt><trkpt lat="40.4071903" lon="15.0141862"><ele>17.0</ele><time>2026-03-29T07:26:23.238Z</time></trkpt><trkpt lat="40.407042" lon="15.0142798"><ele>16.333333333333336</ele><time>2026-03-29T07:26:24.251Z</time></trkpt><trkpt lat="40.4068888" lon="15.0143547"><ele>15.666666666666668</ele><time>2026-03-29T07:26:25.266Z</time></trkpt><trkpt lat="40.4067483" lon="15.0144256"><ele>15.0</ele><time>2026-03-29T07:26:26.226Z</time></trkpt><trkpt lat="40.4066041" lon="15.0144901"><ele>15.0</ele><time>2026-03-29T07:26:27.154Z</time></trkpt><trkpt lat="40.4064452" lon="15.0145571"><ele>15.0</ele><time>2026-03-29T07:26:28.145Z</time></trkpt><trkpt lat="40.4062746" lon="15.0146244"><ele>15.0</ele><time>2026-03-29T07:26:29.165Z</time></trkpt><trkpt lat="40.406105" lon="15.0146943"><ele>15.0</ele><time>2026-03-29T07:26:30.254Z</time></trkpt><trkpt lat="40.4058698" lon="15.0148342"><ele>15.0</ele><time>2026-03-29T07:26:32.151Z</time></trkpt><trkpt lat="40.4057384" lon="15.0149351"><ele>15.0</ele><time>2026-03-29T07:26:33.167Z</time></trkpt><trkpt lat="40.40563" lon="15.0150416"><ele>16.0</ele><time>2026-03-29T07:26:34.139Z</time></trkpt><trkpt lat="40.4055097" lon="15.0151727"><ele>17.0</ele><time>2026-03-29T07:26:35.148Z</time></trkpt><trkpt lat="40.4053842" lon="15.015332"><ele>18.0</ele><time>2026-03-29T07:26:36.147Z</time></trkpt><trkpt lat="40.4052687" lon="15.0155006"><ele>18.0</ele><time>2026-03-29T07:26:37.143Z</time></trkpt><trkpt lat="40.4051491" lon="15.0156674"><ele>18.0</ele><time>2026-03-29T07:26:38.155Z</time></trkpt><trkpt lat="40.405014" lon="15.0158272"><ele>18.0</ele><time>2026-03-29T07:26:39.163Z</time></trkpt><trkpt lat="40.4048325" lon="15.0160061"><ele>17.5</ele><time>2026-03-29T07:26:40.378Z</time></trkpt><trkpt lat="40.4044767" lon="15.016223"><ele>17.0</ele><time>2026-03-29T07:26:42.209Z</time></trkpt><trkpt lat="40.404281" lon="15.0163173"><ele>17.0</ele><time>2026-03-29T07:26:43.159Z</time></trkpt><trkpt lat="40.4040548" lon="15.0164221"><ele>17.0</ele><time>2026-03-29T07:26:44.212Z</time></trkpt><trkpt lat="40.4038448" lon="15.0165278"><ele>16.0</ele><time>2026-03-29T07:26:45.132Z</time></trkpt><trkpt lat="40.4036338" lon="15.016642"><ele>15.0</ele><time>2026-03-29T07:26:46.165Z</time></trkpt><trkpt lat="40.403455" lon="15.0167312"><ele>14.0</ele><time>2026-03-29T07:26:47.146Z</time></trkpt><trkpt lat="40.4033259" lon="15.0167902"><ele>14.0</ele><time>2026-03-29T07:26:48.187Z</time></trkpt><trkpt lat="40.4032448" lon="15.0168135"><ele>14.0</ele><time>2026-03-29T07:26:49.149Z</time></trkpt><trkpt lat="40.4031724" lon="15.0168183"><ele>14.0</ele><time>2026-03-29T07:26:50.157Z</time></trkpt><trkpt lat="40.402343" lon="15.0174844"><ele>14.333333333333334</ele><time>2026-03-29T07:26:52.146Z</time></trkpt><trkpt lat="40.4021531" lon="15.0176137"><ele>14.666666666666668</ele><time>2026-03-29T07:26:53.158Z</time></trkpt><trkpt lat="40.4019762" lon="15.017738"><ele>15.0</ele><time>2026-03-29T07:26:54.14Z</time></trkpt><trkpt lat="40.4018068" lon="15.0178613"><ele>15.0</ele><time>2026-03-29T07:26:55.147Z</time></trkpt><trkpt lat="40.401645" lon="15.0179743"><ele>15.0</ele><time>2026-03-29T07:26:56.151Z</time></trkpt><trkpt lat="40.401489" lon="15.0180804"><ele>15.0</ele><time>2026-03-29T07:26:57.165Z</time></trkpt><trkpt lat="40.4013446" lon="15.0181781"><ele>14.5</ele><time>2026-03-29T07:26:58.151Z</time></trkpt><trkpt lat="40.4011858" lon="15.0182599"><ele>14.0</ele><time>2026-03-29T07:26:59.271Z</time></trkpt><trkpt lat="40.4008843" lon="15.0183156"><ele>14.0</ele><time>2026-03-29T07:27:01.157Z</time></trkpt><trkpt lat="40.4007488" lon="15.0183037"><ele>14.0</ele><time>2026-03-29T07:27:02.166Z</time></trkpt><trkpt lat="40.4005789" lon="15.0182788"><ele>14.0</ele><time>2026-03-29T07:27:03.166Z</time></trkpt><trkpt lat="40.4003758" lon="15.0182312"><ele>12.666666666666668</ele><time>2026-03-29T07:27:04.154Z</time></trkpt><trkpt lat="40.4001483" lon="15.0181836"><ele>11.333333333333334</ele><time>2026-03-29T07:27:05.188Z</time></trkpt><trkpt lat="40.3999573" lon="15.0181466"><ele>10.0</ele><time>2026-03-29T07:27:06.151Z</time></trkpt><trkpt lat="40.3997731" lon="15.0181006"><ele>9.666666666666668</ele><time>2026-03-29T07:27:07.155Z</time></trkpt><trkpt lat="40.3995998" lon="15.0180587"><ele>9.333333333333334</ele><time>2026-03-29T07:27:08.153Z</time></trkpt><trkpt lat="40.399432" lon="15.0180152"><ele>9.0</ele><time>2026-03-29T07:27:09.172Z</time></trkpt><trkpt lat="40.399272" lon="15.0179897"><ele>9.0</ele><time>2026-03-29T07:27:10.15Z</time></trkpt><trkpt lat="40.3991106" lon="15.0179977"><ele>9.0</ele><time>2026-03-29T07:27:11.158Z</time></trkpt><trkpt lat="40.3989561" lon="15.0180337"><ele>9.0</ele><time>2026-03-29T07:27:12.146Z</time></trkpt><trkpt lat="40.3988011" lon="15.0181002"><ele>8.333333333333334</ele><time>2026-03-29T07:27:13.16Z</time></trkpt><trkpt lat="40.3986552" lon="15.0181884"><ele>7.666666666666667</ele><time>2026-03-29T07:27:14.148Z</time></trkpt><trkpt lat="40.3985064" lon="15.0183147"><ele>7.0</ele><time>2026-03-29T07:27:15.226Z</time></trkpt><trkpt lat="40.3983862" lon="15.0184523"><ele>7.0</ele><time>2026-03-29T07:27:16.174Z</time></trkpt><trkpt lat="40.3982729" lon="15.0186257"><ele>7.0</ele><time>2026-03-29T07:27:17.165Z</time></trkpt><trkpt lat="40.3981692" lon="15.0188379"><ele>7.0</ele><time>2026-03-29T07:27:18.166Z</time></trkpt><trkpt lat="40.3980733" lon="15.0190799"><ele>7.333333333333334</ele><time>2026-03-29T07:27:19.166Z</time></trkpt><trkpt lat="40.3979765" lon="15.0193515"><ele>7.666666666666666</ele><time>2026-03-29T07:27:20.163Z</time></trkpt><trkpt lat="40.3978907" lon="15.0196189"><ele>8.0</ele><time>2026-03-29T07:27:21.158Z</time></trkpt><trkpt lat="40.3978037" lon="15.0198616"><ele>8.666666666666666</ele><time>2026-03-29T07:27:22.17Z</time></trkpt><trkpt lat="40.3977258" lon="15.0200771"><ele>9.333333333333334</ele><time>2026-03-29T07:27:23.139Z</time></trkpt><trkpt lat="40.3976411" lon="15.0202861"><ele>10.0</ele><time>2026-03-29T07:27:24.159Z</time></trkpt><trkpt lat="40.3975541" lon="15.0204722"><ele>10.0</ele><time>2026-03-29T07:27:25.164Z</time></trkpt><trkpt lat="40.3974646" lon="15.0206378"><ele>10.0</ele><time>2026-03-29T07:27:26.152Z</time></trkpt><trkpt lat="40.3973527" lon="15.0207915"><ele>10.0</ele><time>2026-03-29T07:27:27.145Z</time></trkpt><trkpt lat="40.3972144" lon="15.0209426"><ele>9.333333333333334</ele><time>2026-03-29T07:27:28.175Z</time></trkpt><trkpt lat="40.3970714" lon="15.0210796"><ele>8.666666666666666</ele><time>2026-03-29T07:27:29.149Z</time></trkpt><trkpt lat="40.3968759" lon="15.021236"><ele>8.0</ele><time>2026-03-29T07:27:30.257Z</time></trkpt><trkpt lat="40.3963579" lon="15.0215697"><ele>9.0</ele><time>2026-03-29T07:27:32.155Z</time></trkpt><trkpt lat="40.3961008" lon="15.0217467"><ele>10.0</ele><time>2026-03-29T07:27:33.151Z</time></trkpt><trkpt lat="40.3958729" lon="15.0218997"><ele>10.0</ele><time>2026-03-29T07:27:34.129Z</time></trkpt><trkpt lat="40.3956609" lon="15.0220381"><ele>10.0</ele><time>2026-03-29T07:27:35.14Z</time></trkpt><trkpt lat="40.3954539" lon="15.0221702"><ele>10.333333333333334</ele><time>2026-03-29T07:27:36.153Z</time></trkpt><trkpt lat="40.3952604" lon="15.0223018"><ele>10.666666666666666</ele><time>2026-03-29T07:27:37.153Z</time></trkpt><trkpt lat="40.3950724" lon="15.0224315"><ele>11.0</ele><time>2026-03-29T07:27:38.151Z</time></trkpt><trkpt lat="40.3948924" lon="15.0225537"><ele>11.0</ele><time>2026-03-29T07:27:39.145Z</time></trkpt><trkpt lat="40.3947046" lon="15.0226813"><ele>11.0</ele><time>2026-03-29T07:27:40.157Z</time></trkpt><trkpt lat="40.3945156" lon="15.0228138"><ele>11.0</ele><time>2026-03-29T07:27:41.165Z</time></trkpt><trkpt lat="40.3943323" lon="15.0229434"><ele>11.0</ele><time>2026-03-29T07:27:42.138Z</time></trkpt><trkpt lat="40.3941563" lon="15.0230699"><ele>11.0</ele><time>2026-03-29T07:27:43.141Z</time></trkpt><trkpt lat="40.3939811" lon="15.0231915"><ele>11.0</ele><time>2026-03-29T07:27:44.143Z</time></trkpt><trkpt lat="40.3938005" lon="15.0233128"><ele>11.0</ele><time>2026-03-29T07:27:45.156Z</time></trkpt><trkpt lat="40.393624" lon="15.0234326"><ele>11.0</ele><time>2026-03-29T07:27:46.142Z</time></trkpt><trkpt lat="40.3934363" lon="15.0235626"><ele>11.0</ele><time>2026-03-29T07:27:47.163Z</time></trkpt><trkpt lat="40.3932488" lon="15.0236954"><ele>11.0</ele><time>2026-03-29T07:27:48.177Z</time></trkpt><trkpt lat="40.3930609" lon="15.0238236"><ele>11.0</ele><time>2026-03-29T07:27:49.145Z</time></trkpt><trkpt lat="40.3928712" lon="15.0239521"><ele>11.0</ele><time>2026-03-29T07:27:50.149Z</time></trkpt><trkpt lat="40.3926842" lon="15.0240823"><ele>11.0</ele><time>2026-03-29T07:27:51.156Z</time></trkpt><trkpt lat="40.3925007" lon="15.0242104"><ele>11.0</ele><time>2026-03-29T07:27:52.153Z</time></trkpt><trkpt lat="40.3923209" lon="15.0243317"><ele>11.0</ele><time>2026-03-29T07:27:53.152Z</time></trkpt><trkpt lat="40.3921464" lon="15.0244523"><ele>11.0</ele><time>2026-03-29T07:27:54.131Z</time></trkpt><trkpt lat="40.3919691" lon="15.0245793"><ele>11.0</ele><time>2026-03-29T07:27:55.133Z</time></trkpt><trkpt lat="40.3917956" lon="15.0247183"><ele>11.0</ele><time>2026-03-29T07:27:56.17Z</time></trkpt><trkpt lat="40.3916367" lon="15.0248347"><ele>11.0</ele><time>2026-03-29T07:27:57.153Z</time></trkpt><trkpt lat="40.3914792" lon="15.0249424"><ele>11.0</ele><time>2026-03-29T07:27:58.151Z</time></trkpt><trkpt lat="40.3912975" lon="15.0250544"><ele>11.0</ele><time>2026-03-29T07:27:59.156Z</time></trkpt><trkpt lat="40.3910819" lon="15.0252048"><ele>11.5</ele><time>2026-03-29T07:28:00.327Z</time></trkpt><trkpt lat="40.3907807" lon="15.0254058"><ele>12.0</ele><time>2026-03-29T07:28:02.143Z</time></trkpt><trkpt lat="40.3906195" lon="15.025514"><ele>12.0</ele><time>2026-03-29T07:28:03.152Z</time></trkpt><trkpt lat="40.3904563" lon="15.025625"><ele>12.0</ele><time>2026-03-29T07:28:04.14Z</time></trkpt><trkpt lat="40.3902826" lon="15.0257401"><ele>12.0</ele><time>2026-03-29T07:28:05.163Z</time></trkpt><trkpt lat="40.3901098" lon="15.0258572"><ele>12.0</ele><time>2026-03-29T07:28:06.172Z</time></trkpt><trkpt lat="40.3899391" lon="15.0259707"><ele>12.0</ele><time>2026-03-29T07:28:07.141Z</time></trkpt><trkpt lat="40.3897483" lon="15.0260968"><ele>12.0</ele><time>2026-03-29T07:28:08.203Z</time></trkpt><trkpt lat="40.3895778" lon="15.0262103"><ele>12.666666666666668</ele><time>2026-03-29T07:28:09.136Z</time></trkpt><trkpt lat="40.3893909" lon="15.0263363"><ele>13.333333333333334</ele><time>2026-03-29T07:28:10.147Z</time></trkpt><trkpt lat="40.3892135" lon="15.0264597"><ele>14.0</ele><time>2026-03-29T07:28:11.148Z</time></trkpt><trkpt lat="40.3890445" lon="15.0265813"><ele>14.0</ele><time>2026-03-29T07:28:12.169Z</time></trkpt><trkpt lat="40.388884" lon="15.0266895"><ele>14.0</ele><time>2026-03-29T07:28:13.157Z</time></trkpt><trkpt lat="40.3887132" lon="15.0267817"><ele>14.0</ele><time>2026-03-29T07:28:14.152Z</time></trkpt><trkpt lat="40.3885316" lon="15.0268518"><ele>14.0</ele><time>2026-03-29T07:28:15.155Z</time></trkpt><trkpt lat="40.3883225" lon="15.0269032"><ele>14.0</ele><time>2026-03-29T07:28:16.267Z</time></trkpt><trkpt lat="40.3879503" lon="15.0269584"><ele>14.0</ele><time>2026-03-29T07:28:18.158Z</time></trkpt><trkpt lat="40.387725" lon="15.0269883"><ele>14.0</ele><time>2026-03-29T07:28:19.269Z</time></trkpt><trkpt lat="40.3873587" lon="15.0270334"><ele>13.666666666666668</ele><time>2026-03-29T07:28:21.151Z</time></trkpt><trkpt lat="40.3871662" lon="15.0270591"><ele>13.333333333333332</ele><time>2026-03-29T07:28:22.161Z</time></trkpt><trkpt lat="40.3869805" lon="15.0270817"><ele>13.0</ele><time>2026-03-29T07:28:23.166Z</time></trkpt><trkpt lat="40.3867796" lon="15.0271049"><ele>13.0</ele><time>2026-03-29T07:28:24.25Z</time></trkpt><trkpt lat="40.3866049" lon="15.0271241"><ele>13.0</ele><time>2026-03-29T07:28:25.181Z</time></trkpt><trkpt lat="40.3864203" lon="15.0271463"><ele>13.0</ele><time>2026-03-29T07:28:26.186Z</time></trkpt><trkpt lat="40.3862419" lon="15.0271627"><ele>13.0</ele><time>2026-03-29T07:28:27.148Z</time></trkpt><trkpt lat="40.386049" lon="15.0271721"><ele>13.0</ele><time>2026-03-29T07:28:28.155Z</time></trkpt><trkpt lat="40.3858506" lon="15.0271863"><ele>13.0</ele><time>2026-03-29T07:28:29.243Z</time></trkpt><trkpt lat="40.3857076" lon="15.0272077"><ele>13.0</ele><time>2026-03-29T07:28:30.162Z</time></trkpt><trkpt lat="40.385563" lon="15.0272263"><ele>13.0</ele><time>2026-03-29T07:28:31.174Z</time></trkpt><trkpt lat="40.3854274" lon="15.0272389"><ele>13.0</ele><time>2026-03-29T07:28:33.156Z</time></trkpt><trkpt lat="40.3853323" lon="15.0272358"><ele>13.0</ele><time>2026-03-29T07:28:34.16Z</time></trkpt><trkpt lat="40.3852436" lon="15.0272159"><ele>13.333333333333332</ele><time>2026-03-29T07:28:35.144Z</time></trkpt><trkpt lat="40.3851611" lon="15.0271634"><ele>13.666666666666666</ele><time>2026-03-29T07:28:36.154Z</time></trkpt><trkpt lat="40.3850927" lon="15.027092"><ele>14.0</ele><time>2026-03-29T07:28:37.159Z</time></trkpt><trkpt lat="40.3850363" lon="15.0270248"><ele>14.333333333333332</ele><time>2026-03-29T07:28:38.15Z</time></trkpt><trkpt lat="40.3849758" lon="15.0269816"><ele>14.666666666666666</ele><time>2026-03-29T07:28:39.183Z</time></trkpt><trkpt lat="40.3849118" lon="15.0269787"><ele>15.0</ele><time>2026-03-29T07:28:40.148Z</time></trkpt><trkpt lat="40.3848465" lon="15.027004"><ele>15.0</ele><time>2026-03-29T07:28:41.156Z</time></trkpt><trkpt lat="40.3847946" lon="15.0270597"><ele>15.0</ele><time>2026-03-29T07:28:42.164Z</time></trkpt><trkpt lat="40.3847418" lon="15.0271544"><ele>15.0</ele><time>2026-03-29T07:28:43.267Z</time></trkpt><trkpt lat="40.3846681" lon="15.0272441"><ele>15.0</ele><time>2026-03-29T07:28:44.17Z</time></trkpt><trkpt lat="40.3845826" lon="15.027326"><ele>15.0</ele><time>2026-03-29T07:28:45.198Z</time></trkpt><trkpt lat="40.3845075" lon="15.027384"><ele>15.4</ele><time>2026-03-29T07:28:46.139Z</time></trkpt><trkpt lat="40.384426" lon="15.0274204"><ele>15.8</ele><time>2026-03-29T07:28:47.137Z</time></trkpt><trkpt lat="40.3843276" lon="15.0274318"><ele>16.2</ele><time>2026-03-29T07:28:48.158Z</time></trkpt><trkpt lat="40.3842226" lon="15.0274337"><ele>16.6</ele><time>2026-03-29T07:28:49.149Z</time></trkpt><trkpt lat="40.3841243" lon="15.0274275"><ele>17.0</ele><time>2026-03-29T07:28:50.147Z</time></trkpt><trkpt lat="40.3840356" lon="15.0274336"><ele>17.0</ele><time>2026-03-29T07:28:51.165Z</time></trkpt><trkpt lat="40.3839655" lon="15.0274669"><ele>17.0</ele><time>2026-03-29T07:28:52.144Z</time></trkpt><trkpt lat="40.3839113" lon="15.0275209"><ele>17.0</ele><time>2026-03-29T07:28:53.139Z</time></trkpt><trkpt lat="40.3838727" lon="15.0276013"><ele>17.0</ele><time>2026-03-29T07:28:54.162Z</time></trkpt><trkpt lat="40.3838434" lon="15.027721"><ele>17.0</ele><time>2026-03-29T07:28:55.157Z</time></trkpt><trkpt lat="40.3838226" lon="15.0278861"><ele>17.0</ele><time>2026-03-29T07:28:56.155Z</time></trkpt><trkpt lat="40.3838123" lon="15.0280764"><ele>17.5</ele><time>2026-03-29T07:28:57.161Z</time></trkpt><trkpt lat="40.383796" lon="15.0283041"><ele>18.0</ele><time>2026-03-29T07:28:58.244Z</time></trkpt><trkpt lat="40.3837349" lon="15.028724"><ele>18.333333333333332</ele><time>2026-03-29T07:29:00.17Z</time></trkpt><trkpt lat="40.3836951" lon="15.0289241"><ele>18.666666666666664</ele><time>2026-03-29T07:29:01.147Z</time></trkpt><trkpt lat="40.3836563" lon="15.0291291"><ele>19.0</ele><time>2026-03-29T07:29:02.177Z</time></trkpt><trkpt lat="40.3836196" lon="15.0293137"><ele>19.0</ele><time>2026-03-29T07:29:03.163Z</time></trkpt><trkpt lat="40.3835786" lon="15.0295038"><ele>19.0</ele><time>2026-03-29T07:29:04.141Z</time></trkpt><trkpt lat="40.3835364" lon="15.0296943"><ele>19.0</ele><time>2026-03-29T07:29:05.188Z</time></trkpt><trkpt lat="40.3834857" lon="15.0298655"><ele>19.0</ele><time>2026-03-29T07:29:06.147Z</time></trkpt><trkpt lat="40.3834146" lon="15.0300546"><ele>19.333333333333332</ele><time>2026-03-29T07:29:07.143Z</time></trkpt><trkpt lat="40.3833236" lon="15.0302772"><ele>19.666666666666668</ele><time>2026-03-29T07:29:08.145Z</time></trkpt><trkpt lat="40.3832278" lon="15.0304922"><ele>20.0</ele><time>2026-03-29T07:29:09.159Z</time></trkpt><trkpt lat="40.3831238" lon="15.0307076"><ele>20.333333333333336</ele><time>2026-03-29T07:29:10.178Z</time></trkpt><trkpt lat="40.3830213" lon="15.0309122"><ele>20.666666666666668</ele><time>2026-03-29T07:29:11.184Z</time></trkpt><trkpt lat="40.3829211" lon="15.0310947"><ele>21.0</ele><time>2026-03-29T07:29:12.145Z</time></trkpt><trkpt lat="40.3828058" lon="15.0312764"><ele>21.0</ele><time>2026-03-29T07:29:13.156Z</time></trkpt><trkpt lat="40.3826667" lon="15.031467"><ele>21.0</ele><time>2026-03-29T07:29:14.286Z</time></trkpt><trkpt lat="40.3824504" lon="15.0317651"><ele>20.666666666666668</ele><time>2026-03-29T07:29:16.13Z</time></trkpt><trkpt lat="40.3823415" lon="15.0319271"><ele>20.333333333333336</ele><time>2026-03-29T07:29:17.164Z</time></trkpt><trkpt lat="40.3822486" lon="15.0320922"><ele>20.0</ele><time>2026-03-29T07:29:18.141Z</time></trkpt><trkpt lat="40.3821634" lon="15.0322783"><ele>20.0</ele><time>2026-03-29T07:29:19.157Z</time></trkpt><trkpt lat="40.3820939" lon="15.032501"><ele>20.0</ele><time>2026-03-29T07:29:20.24Z</time></trkpt><trkpt lat="40.3820457" lon="15.0327096"><ele>20.0</ele><time>2026-03-29T07:29:21.161Z</time></trkpt><trkpt lat="40.3819954" lon="15.0329752"><ele>20.0</ele><time>2026-03-29T07:29:22.172Z</time></trkpt><trkpt lat="40.3819494" lon="15.0332605"><ele>20.0</ele><time>2026-03-29T07:29:23.142Z</time></trkpt><trkpt lat="40.3819114" lon="15.0335669"><ele>20.333333333333336</ele><time>2026-03-29T07:29:24.182Z</time></trkpt><trkpt lat="40.381883" lon="15.0338397"><ele>20.666666666666668</ele><time>2026-03-29T07:29:25.17Z</time></trkpt><trkpt lat="40.3818456" lon="15.0340996"><ele>21.0</ele><time>2026-03-29T07:29:26.152Z</time></trkpt><trkpt lat="40.3818009" lon="15.034354"><ele>21.0</ele><time>2026-03-29T07:29:27.154Z</time></trkpt><trkpt lat="40.3817539" lon="15.0346191"><ele>21.0</ele><time>2026-03-29T07:29:28.19Z</time></trkpt><trkpt lat="40.3817074" lon="15.0348742"><ele>21.0</ele><time>2026-03-29T07:29:29.179Z</time></trkpt><trkpt lat="40.3816566" lon="15.0351269"><ele>21.0</ele><time>2026-03-29T07:29:30.15Z</time></trkpt><trkpt lat="40.3815979" lon="15.0353965"><ele>21.0</ele><time>2026-03-29T07:29:31.155Z</time></trkpt><trkpt lat="40.3815344" lon="15.0356684"><ele>21.0</ele><time>2026-03-29T07:29:32.16Z</time></trkpt><trkpt lat="40.381467" lon="15.0359661"><ele>20.0</ele><time>2026-03-29T07:29:33.273Z</time></trkpt><trkpt lat="40.3813729" lon="15.0364137"><ele>19.0</ele><time>2026-03-29T07:29:35.185Z</time></trkpt><trkpt lat="40.381316" lon="15.0366409"><ele>22.333333333333332</ele><time>2026-03-29T07:29:36.151Z</time></trkpt><trkpt lat="40.3812602" lon="15.0368522"><ele>25.666666666666664</ele><time>2026-03-29T07:29:37.129Z</time></trkpt><trkpt lat="40.3811974" lon="15.037062"><ele>29.0</ele><time>2026-03-29T07:29:38.147Z</time></trkpt><trkpt lat="40.3811206" lon="15.0372662"><ele>29.0</ele><time>2026-03-29T07:29:39.149Z</time></trkpt><trkpt lat="40.3810279" lon="15.0374635"><ele>29.0</ele><time>2026-03-29T07:29:40.144Z</time></trkpt><trkpt lat="40.3809211" lon="15.037658"><ele>29.0</ele><time>2026-03-29T07:29:41.178Z</time></trkpt><trkpt lat="40.3808098" lon="15.0378213"><ele>29.0</ele><time>2026-03-29T07:29:42.175Z</time></trkpt><trkpt lat="40.3806867" lon="15.0379609"><ele>29.0</ele><time>2026-03-29T07:29:43.137Z</time></trkpt><trkpt lat="40.3805565" lon="15.0380878"><ele>29.0</ele><time>2026-03-29T07:29:44.15Z</time></trkpt><trkpt lat="40.3804376" lon="15.0382162"><ele>28.0</ele><time>2026-03-29T07:29:45.156Z</time></trkpt><trkpt lat="40.3803407" lon="15.0383672"><ele>27.0</ele><time>2026-03-29T07:29:46.154Z</time></trkpt><trkpt lat="40.3802649" lon="15.0385486"><ele>26.0</ele><time>2026-03-29T07:29:47.155Z</time></trkpt><trkpt lat="40.3802088" lon="15.0387613"><ele>26.0</ele><time>2026-03-29T07:29:48.162Z</time></trkpt><trkpt lat="40.3801762" lon="15.0390007"><ele>26.0</ele><time>2026-03-29T07:29:49.172Z</time></trkpt><trkpt lat="40.3801351" lon="15.0392607"><ele>26.0</ele><time>2026-03-29T07:29:50.272Z</time></trkpt><trkpt lat="40.380049" lon="15.0396568"><ele>25.333333333333332</ele><time>2026-03-29T07:29:52.148Z</time></trkpt><trkpt lat="40.3800053" lon="15.0398687"><ele>24.666666666666664</ele><time>2026-03-29T07:29:53.168Z</time></trkpt><trkpt lat="40.3799635" lon="15.0400713"><ele>24.0</ele><time>2026-03-29T07:29:54.163Z</time></trkpt><trkpt lat="40.3799071" lon="15.0402902"><ele>24.0</ele><time>2026-03-29T07:29:55.182Z</time></trkpt><trkpt lat="40.3798535" lon="15.0404918"><ele>24.0</ele><time>2026-03-29T07:29:56.161Z</time></trkpt><trkpt lat="40.379799" lon="15.0406916"><ele>24.0</ele><time>2026-03-29T07:29:57.161Z</time></trkpt><trkpt lat="40.3797397" lon="15.040875"><ele>25.0</ele><time>2026-03-29T07:29:58.154Z</time></trkpt><trkpt lat="40.3796791" lon="15.0410438"><ele>26.0</ele><time>2026-03-29T07:29:59.16Z</time></trkpt><trkpt lat="40.3796133" lon="15.0411892"><ele>27.0</ele><time>2026-03-29T07:30:00.199Z</time></trkpt><trkpt lat="40.3795435" lon="15.0413003"><ele>28.0</ele><time>2026-03-29T07:30:01.172Z</time></trkpt><trkpt lat="40.3794639" lon="15.0413959"><ele>28.0</ele><time>2026-03-29T07:30:02.18Z</time></trkpt><trkpt lat="40.3793708" lon="15.0414714"><ele>28.0</ele><time>2026-03-29T07:30:03.174Z</time></trkpt><trkpt lat="40.3792585" lon="15.0415213"><ele>28.0</ele><time>2026-03-29T07:30:04.176Z</time></trkpt><trkpt lat="40.3791119" lon="15.0415504"><ele>28.0</ele><time>2026-03-29T07:30:05.19Z</time></trkpt><trkpt lat="40.3789459" lon="15.0415725"><ele>28.5</ele><time>2026-03-29T07:30:06.164Z</time></trkpt><trkpt lat="40.3787205" lon="15.041602"><ele>29.0</ele><time>2026-03-29T07:30:07.298Z</time></trkpt><trkpt lat="40.3783018" lon="15.0416714"><ele>30.0</ele><time>2026-03-29T07:30:09.157Z</time></trkpt><trkpt lat="40.3780668" lon="15.0417152"><ele>31.0</ele><time>2026-03-29T07:30:10.163Z</time></trkpt><trkpt lat="40.3778341" lon="15.0417516"><ele>32.0</ele><time>2026-03-29T07:30:11.177Z</time></trkpt><trkpt lat="40.3776033" lon="15.0417922"><ele>33.0</ele><time>2026-03-29T07:30:12.162Z</time></trkpt><trkpt lat="40.3773619" lon="15.0418355"><ele>33.0</ele><time>2026-03-29T07:30:13.17Z</time></trkpt><trkpt lat="40.3771459" lon="15.0418792"><ele>33.0</ele><time>2026-03-29T07:30:14.178Z</time></trkpt><trkpt lat="40.376989" lon="15.0419127"><ele>33.0</ele><time>2026-03-29T07:30:15.165Z</time></trkpt><trkpt lat="40.3769008" lon="15.0419245"><ele>33.0</ele><time>2026-03-29T07:30:16.154Z</time></trkpt><trkpt lat="40.3767388" lon="15.041952"><ele>33.0</ele><time>2026-03-29T07:30:17.166Z</time></trkpt><trkpt lat="40.3765751" lon="15.0419804"><ele>33.0</ele><time>2026-03-29T07:30:18.165Z</time></trkpt><trkpt lat="40.3764082" lon="15.0420116"><ele>34.0</ele><time>2026-03-29T07:30:19.197Z</time></trkpt><trkpt lat="40.3762506" lon="15.0420446"><ele>35.0</ele><time>2026-03-29T07:30:20.156Z</time></trkpt><trkpt lat="40.3760808" lon="15.0420849"><ele>36.0</ele><time>2026-03-29T07:30:21.188Z</time></trkpt><trkpt lat="40.3759332" lon="15.0421348"><ele>36.0</ele><time>2026-03-29T07:30:22.147Z</time></trkpt><trkpt lat="40.3757971" lon="15.0421923"><ele>36.0</ele><time>2026-03-29T07:30:23.151Z</time></trkpt><trkpt lat="40.3756431" lon="15.0422476"><ele>36.0</ele><time>2026-03-29T07:30:24.158Z</time></trkpt><trkpt lat="40.3755054" lon="15.0423019"><ele>36.0</ele><time>2026-03-29T07:30:25.179Z</time></trkpt><trkpt lat="40.3753681" lon="15.04236"><ele>37.0</ele><time>2026-03-29T07:30:26.158Z</time></trkpt><trkpt lat="40.3752082" lon="15.042424"><ele>38.0</ele><time>2026-03-29T07:30:27.189Z</time></trkpt><trkpt lat="40.3750334" lon="15.0424927"><ele>39.0</ele><time>2026-03-29T07:30:28.284Z</time></trkpt><trkpt lat="40.3747297" lon="15.0426115"><ele>40.0</ele><time>2026-03-29T07:30:30.177Z</time></trkpt><trkpt lat="40.3745728" lon="15.0426768"><ele>41.0</ele><time>2026-03-29T07:30:31.188Z</time></trkpt><trkpt lat="40.3744305" lon="15.042745"><ele>42.0</ele><time>2026-03-29T07:30:32.169Z</time></trkpt><trkpt lat="40.3742985" lon="15.0428095"><ele>42.0</ele><time>2026-03-29T07:30:33.158Z</time></trkpt><trkpt lat="40.374177" lon="15.0428732"><ele>42.0</ele><time>2026-03-29T07:30:34.151Z</time></trkpt><trkpt lat="40.3740639" lon="15.0429377"><ele>42.0</ele><time>2026-03-29T07:30:35.175Z</time></trkpt><trkpt lat="40.3739669" lon="15.0429956"><ele>42.0</ele><time>2026-03-29T07:30:36.163Z</time></trkpt><trkpt lat="40.3738766" lon="15.0430508"><ele>42.8</ele><time>2026-03-29T07:30:37.212Z</time></trkpt><trkpt lat="40.3737931" lon="15.0430994"><ele>43.6</ele><time>2026-03-29T07:30:38.211Z</time></trkpt><trkpt lat="40.3737106" lon="15.0431526"><ele>44.4</ele><time>2026-03-29T07:30:39.23Z</time></trkpt><trkpt lat="40.3736186" lon="15.0432141"><ele>45.199999999999996</ele><time>2026-03-29T07:30:40.223Z</time></trkpt><trkpt lat="40.3735208" lon="15.0432811"><ele>46.0</ele><time>2026-03-29T07:30:41.242Z</time></trkpt><trkpt lat="40.3734256" lon="15.043346"><ele>46.0</ele><time>2026-03-29T07:30:42.173Z</time></trkpt><trkpt lat="40.3733149" lon="15.0434171"><ele>46.0</ele><time>2026-03-29T07:30:43.163Z</time></trkpt><trkpt lat="40.3731997" lon="15.0434901"><ele>46.0</ele><time>2026-03-29T07:30:44.159Z</time></trkpt><trkpt lat="40.3731217" lon="15.0435436"><ele>46.0</ele><time>2026-03-29T07:30:45.194Z</time></trkpt><trkpt lat="40.3730578" lon="15.0435844"><ele>46.0</ele><time>2026-03-29T07:30:46.155Z</time></trkpt><trkpt lat="40.3729851" lon="15.0436323"><ele>45.8</ele><time>2026-03-29T07:30:47.16Z</time></trkpt><trkpt lat="40.3729018" lon="15.0436813"><ele>45.599999999999994</ele><time>2026-03-29T07:30:48.171Z</time></trkpt><trkpt lat="40.3728116" lon="15.0437375"><ele>45.4</ele><time>2026-03-29T07:30:49.167Z</time></trkpt><trkpt lat="40.3727137" lon="15.0438044"><ele>45.2</ele><time>2026-03-29T07:30:50.159Z</time></trkpt><trkpt lat="40.3725984" lon="15.0438755"><ele>45.0</ele><time>2026-03-29T07:30:51.192Z</time></trkpt><trkpt lat="40.3724776" lon="15.0439431"><ele>45.0</ele><time>2026-03-29T07:30:52.173Z</time></trkpt><trkpt lat="40.3723553" lon="15.044008"><ele>45.0</ele><time>2026-03-29T07:30:53.164Z</time></trkpt><trkpt lat="40.3722399" lon="15.0440668"><ele>45.0</ele><time>2026-03-29T07:30:54.172Z</time></trkpt><trkpt lat="40.3721382" lon="15.0441237"><ele>45.0</ele><time>2026-03-29T07:30:55.151Z</time></trkpt><trkpt lat="40.3720418" lon="15.0441822"><ele>45.0</ele><time>2026-03-29T07:30:56.151Z</time></trkpt><trkpt lat="40.3719428" lon="15.0442434"><ele>45.0</ele><time>2026-03-29T07:30:57.169Z</time></trkpt><trkpt lat="40.3718456" lon="15.044308"><ele>45.0</ele><time>2026-03-29T07:30:58.176Z</time></trkpt><trkpt lat="40.3717578" lon="15.0443618"><ele>45.0</ele><time>2026-03-29T07:30:59.175Z</time></trkpt><trkpt lat="40.3716675" lon="15.0444071"><ele>45.0</ele><time>2026-03-29T07:31:00.239Z</time></trkpt><trkpt lat="40.3715712" lon="15.0444302"><ele>45.0</ele><time>2026-03-29T07:31:01.162Z</time></trkpt><trkpt lat="40.3714381" lon="15.0444342"><ele>45.0</ele><time>2026-03-29T07:31:02.171Z</time></trkpt><trkpt lat="40.3713154" lon="15.04444"><ele>45.0</ele><time>2026-03-29T07:31:03.195Z</time></trkpt><trkpt lat="40.3712059" lon="15.0444639"><ele>45.0</ele><time>2026-03-29T07:31:04.171Z</time></trkpt><trkpt lat="40.3710947" lon="15.0444965"><ele>45.6</ele><time>2026-03-29T07:31:05.158Z</time></trkpt><trkpt lat="40.3710149" lon="15.0445274"><ele>46.2</ele><time>2026-03-29T07:31:06.146Z</time></trkpt><trkpt lat="40.3709199" lon="15.0445551"><ele>46.8</ele><time>2026-03-29T07:31:07.164Z</time></trkpt><trkpt lat="40.3708423" lon="15.0445895"><ele>47.4</ele><time>2026-03-29T07:31:08.207Z</time></trkpt><trkpt lat="40.3707471" lon="15.044609"><ele>48.0</ele><time>2026-03-29T07:31:09.156Z</time></trkpt><trkpt lat="40.370636" lon="15.0446298"><ele>48.5</ele><time>2026-03-29T07:31:10.173Z</time></trkpt><trkpt lat="40.3705188" lon="15.0446514"><ele>49.0</ele><time>2026-03-29T07:31:11.191Z</time></trkpt><trkpt lat="40.3703896" lon="15.0446691"><ele>49.5</ele><time>2026-03-29T07:31:12.185Z</time></trkpt><trkpt lat="40.3702628" lon="15.0446903"><ele>50.0</ele><time>2026-03-29T07:31:13.155Z</time></trkpt><trkpt lat="40.3701397" lon="15.0447147"><ele>50.0</ele><time>2026-03-29T07:31:14.178Z</time></trkpt><trkpt lat="40.3699969" lon="15.0447531"><ele>50.0</ele><time>2026-03-29T07:31:15.175Z</time></trkpt><trkpt lat="40.369859" lon="15.0447954"><ele>50.0</ele><time>2026-03-29T07:31:16.196Z</time></trkpt><trkpt lat="40.3697262" lon="15.0448315"><ele>50.0</ele><time>2026-03-29T07:31:17.174Z</time></trkpt><trkpt lat="40.3695897" lon="15.0448633"><ele>50.4</ele><time>2026-03-29T07:31:18.181Z</time></trkpt><trkpt lat="40.3694726" lon="15.0448981"><ele>50.8</ele><time>2026-03-29T07:31:19.187Z</time></trkpt><trkpt lat="40.3693655" lon="15.0449422"><ele>51.2</ele><time>2026-03-29T07:31:20.161Z</time></trkpt><trkpt lat="40.369255" lon="15.0449862"><ele>51.6</ele><time>2026-03-29T07:31:21.243Z</time></trkpt><trkpt lat="40.3691613" lon="15.0450089"><ele>52.0</ele><time>2026-03-29T07:31:22.154Z</time></trkpt><trkpt lat="40.3690535" lon="15.0450235"><ele>52.0</ele><time>2026-03-29T07:31:23.185Z</time></trkpt><trkpt lat="40.3689446" lon="15.04502"><ele>52.0</ele><time>2026-03-29T07:31:24.192Z</time></trkpt><trkpt lat="40.3688355" lon="15.0450253"><ele>52.0</ele><time>2026-03-29T07:31:25.192Z</time></trkpt><trkpt lat="40.3687259" lon="15.0450444"><ele>52.0</ele><time>2026-03-29T07:31:26.154Z</time></trkpt><trkpt lat="40.3686067" lon="15.0450744"><ele>53.0</ele><time>2026-03-29T07:31:27.165Z</time></trkpt><trkpt lat="40.3684807" lon="15.0451105"><ele>54.0</ele><time>2026-03-29T07:31:28.184Z</time></trkpt><trkpt lat="40.3683565" lon="15.045148"><ele>55.0</ele><time>2026-03-29T07:31:29.179Z</time></trkpt><trkpt lat="40.3682348" lon="15.0451873"><ele>56.0</ele><time>2026-03-29T07:31:30.148Z</time></trkpt><trkpt lat="40.3680992" lon="15.0452175"><ele>56.8</ele><time>2026-03-29T07:31:31.225Z</time></trkpt><trkpt lat="40.3679913" lon="15.0452343"><ele>57.599999999999994</ele><time>2026-03-29T07:31:32.153Z</time></trkpt><trkpt lat="40.3678859" lon="15.0452493"><ele>58.4</ele><time>2026-03-29T07:31:33.13Z</time></trkpt><trkpt lat="40.3677803" lon="15.0452677"><ele>59.2</ele><time>2026-03-29T07:31:34.166Z</time></trkpt><trkpt lat="40.3676677" lon="15.0453026"><ele>60.0</ele><time>2026-03-29T07:31:35.164Z</time></trkpt><trkpt lat="40.3675343" lon="15.045349"><ele>60.0</ele><time>2026-03-29T07:31:36.145Z</time></trkpt><trkpt lat="40.3673977" lon="15.0454107"><ele>60.0</ele><time>2026-03-29T07:31:37.134Z</time></trkpt><trkpt lat="40.3672723" lon="15.0454688"><ele>60.0</ele><time>2026-03-29T07:31:38.152Z</time></trkpt><trkpt lat="40.3671665" lon="15.0455256"><ele>60.0</ele><time>2026-03-29T07:31:39.228Z</time></trkpt><trkpt lat="40.3670708" lon="15.0456222"><ele>60.666666666666664</ele><time>2026-03-29T07:31:41.182Z</time></trkpt><trkpt lat="40.3670205" lon="15.0456911"><ele>61.33333333333333</ele><time>2026-03-29T07:31:42.117Z</time></trkpt><trkpt lat="40.3670505" lon="15.0457933"><ele>62.0</ele><time>2026-03-29T07:31:43.139Z</time></trkpt><trkpt lat="40.3669976" lon="15.0458826"><ele>62.666666666666664</ele><time>2026-03-29T07:31:44.131Z</time></trkpt><trkpt lat="40.3669534" lon="15.0459772"><ele>63.33333333333333</ele><time>2026-03-29T07:31:45.154Z</time></trkpt><trkpt lat="40.3669116" lon="15.046042"><ele>64.0</ele><time>2026-03-29T07:31:46.146Z</time></trkpt><trkpt lat="40.3668317" lon="15.0461083"><ele>64.2</ele><time>2026-03-29T07:31:50.162Z</time></trkpt><trkpt lat="40.3667727" lon="15.0461547"><ele>64.4</ele><time>2026-03-29T07:31:51.182Z</time></trkpt><trkpt lat="40.3666451" lon="15.046234"><ele>64.6</ele><time>2026-03-29T07:31:52.184Z</time></trkpt><trkpt lat="40.3665515" lon="15.0462586"><ele>64.8</ele><time>2026-03-29T07:31:53.181Z</time></trkpt><trkpt lat="40.3664753" lon="15.0462641"><ele>65.0</ele><time>2026-03-29T07:31:54.172Z</time></trkpt><trkpt lat="40.366403" lon="15.0462583"><ele>67.0</ele><time>2026-03-29T07:31:55.136Z</time></trkpt><trkpt lat="40.366312" lon="15.0462824"><ele>69.0</ele><time>2026-03-29T07:31:56.153Z</time></trkpt><trkpt lat="40.3662156" lon="15.0462933"><ele>71.0</ele><time>2026-03-29T07:31:57.149Z</time></trkpt><trkpt lat="40.366111" lon="15.0462998"><ele>73.0</ele><time>2026-03-29T07:31:58.338Z</time></trkpt><trkpt lat="40.3659323" lon="15.0463225"><ele>73.0</ele><time>2026-03-29T07:32:00.131Z</time></trkpt><trkpt lat="40.3658282" lon="15.0463181"><ele>73.0</ele><time>2026-03-29T07:32:01.168Z</time></trkpt><trkpt lat="40.3657413" lon="15.0462849"><ele>73.0</ele><time>2026-03-29T07:32:02.14Z</time></trkpt><trkpt lat="40.3656633" lon="15.0462513"><ele>73.0</ele><time>2026-03-29T07:32:03.16Z</time></trkpt><trkpt lat="40.3655987" lon="15.0462201"><ele>73.0</ele><time>2026-03-29T07:32:04.141Z</time></trkpt><trkpt lat="40.3655276" lon="15.0461919"><ele>73.0</ele><time>2026-03-29T07:32:05.158Z</time></trkpt><trkpt lat="40.3654301" lon="15.0461499"><ele>75.2</ele><time>2026-03-29T07:32:07.142Z</time></trkpt><trkpt lat="40.3653478" lon="15.0460804"><ele>77.4</ele><time>2026-03-29T07:32:09.135Z</time></trkpt><trkpt lat="40.3652525" lon="15.046022"><ele>79.60000000000001</ele><time>2026-03-29T07:32:11.174Z</time></trkpt><trkpt lat="40.3651913" lon="15.0460018"><ele>81.8</ele><time>2026-03-29T07:32:12.141Z</time></trkpt><trkpt lat="40.3650905" lon="15.0459895"><ele>84.0</ele><time>2026-03-29T07:32:13.148Z</time></trkpt><trkpt lat="40.3649909" lon="15.0459714"><ele>84.0</ele><time>2026-03-29T07:32:14.183Z</time></trkpt><trkpt lat="40.3648831" lon="15.0459456"><ele>84.0</ele><time>2026-03-29T07:32:15.125Z</time></trkpt><trkpt lat="40.3647559" lon="15.0459195"><ele>84.0</ele><time>2026-03-29T07:32:16.165Z</time></trkpt><trkpt lat="40.3646263" lon="15.0458944"><ele>84.0</ele><time>2026-03-29T07:32:17.195Z</time></trkpt><trkpt lat="40.3645448" lon="15.0458796"><ele>86.0</ele><time>2026-03-29T07:32:18.233Z</time></trkpt><trkpt lat="40.3644613" lon="15.0458558"><ele>88.0</ele><time>2026-03-29T07:32:19.158Z</time></trkpt><trkpt lat="40.364372" lon="15.0458185"><ele>90.0</ele><time>2026-03-29T07:32:20.111Z</time></trkpt><trkpt lat="40.364269" lon="15.0457699"><ele>92.0</ele><time>2026-03-29T07:32:21.124Z</time></trkpt><trkpt lat="40.3641743" lon="15.0457278"><ele>94.0</ele><time>2026-03-29T07:32:22.119Z</time></trkpt><trkpt lat="40.3640703" lon="15.0456774"><ele>94.0</ele><time>2026-03-29T07:32:23.139Z</time></trkpt><trkpt lat="40.3639696" lon="15.0456395"><ele>94.0</ele><time>2026-03-29T07:32:24.138Z</time></trkpt><trkpt lat="40.3638682" lon="15.0456027"><ele>94.0</ele><time>2026-03-29T07:32:25.125Z</time></trkpt><trkpt lat="40.3637638" lon="15.0455626"><ele>94.0</ele><time>2026-03-29T07:32:26.132Z</time></trkpt><trkpt lat="40.363673" lon="15.0455161"><ele>94.0</ele><time>2026-03-29T07:32:27.124Z</time></trkpt><trkpt lat="40.3635758" lon="15.0454611"><ele>97.6</ele><time>2026-03-29T07:32:28.125Z</time></trkpt><trkpt lat="40.3634846" lon="15.0453983"><ele>101.2</ele><time>2026-03-29T07:32:29.115Z</time></trkpt><trkpt lat="40.3633942" lon="15.0453307"><ele>104.79999999999998</ele><time>2026-03-29T07:32:30.129Z</time></trkpt><trkpt lat="40.3633053" lon="15.0452631"><ele>108.39999999999999</ele><time>2026-03-29T07:32:31.109Z</time></trkpt><trkpt lat="40.3632193" lon="15.0451968"><ele>112.0</ele><time>2026-03-29T07:32:32.136Z</time></trkpt><trkpt lat="40.3631361" lon="15.0451167"><ele>112.0</ele><time>2026-03-29T07:32:33.126Z</time></trkpt><trkpt lat="40.3630515" lon="15.0450249"><ele>112.0</ele><time>2026-03-29T07:32:34.14Z</time></trkpt><trkpt lat="40.3629656" lon="15.0449396"><ele>112.0</ele><time>2026-03-29T07:32:35.139Z</time></trkpt><trkpt lat="40.3628571" lon="15.044845"><ele>112.0</ele><time>2026-03-29T07:32:36.142Z</time></trkpt><trkpt lat="40.3627586" lon="15.0447512"><ele>114.6</ele><time>2026-03-29T07:32:37.157Z</time></trkpt><trkpt lat="40.3626669" lon="15.0446778"><ele>117.19999999999999</ele><time>2026-03-29T07:32:38.132Z</time></trkpt><trkpt lat="40.3625354" lon="15.0446027"><ele>119.8</ele><time>2026-03-29T07:32:40.154Z</time></trkpt><trkpt lat="40.3624549" lon="15.044556"><ele>122.4</ele><time>2026-03-29T07:32:41.148Z</time></trkpt><trkpt lat="40.3623829" lon="15.0445321"><ele>125.0</ele><time>2026-03-29T07:32:42.14Z</time></trkpt><trkpt lat="40.3623089" lon="15.0445398"><ele>125.0</ele><time>2026-03-29T07:32:43.14Z</time></trkpt><trkpt lat="40.3622113" lon="15.0445757"><ele>125.0</ele><time>2026-03-29T07:32:44.257Z</time></trkpt><trkpt lat="40.3621256" lon="15.0446095"><ele>125.0</ele><time>2026-03-29T07:32:45.16Z</time></trkpt><trkpt lat="40.3620272" lon="15.044647"><ele>125.0</ele><time>2026-03-29T07:32:46.136Z</time></trkpt><trkpt lat="40.3619225" lon="15.0446971"><ele>125.0</ele><time>2026-03-29T07:32:47.124Z</time></trkpt><trkpt lat="40.361853" lon="15.0447758"><ele>127.83333333333333</ele><time>2026-03-29T07:32:48.148Z</time></trkpt><trkpt lat="40.3617768" lon="15.0448638"><ele>130.66666666666666</ele><time>2026-03-29T07:32:49.153Z</time></trkpt><trkpt lat="40.3616972" lon="15.044958"><ele>133.5</ele><time>2026-03-29T07:32:50.115Z</time></trkpt><trkpt lat="40.3616423" lon="15.0450163"><ele>136.33333333333334</ele><time>2026-03-29T07:32:51.156Z</time></trkpt><trkpt lat="40.3615722" lon="15.0450693"><ele>139.16666666666669</ele><time>2026-03-29T07:32:52.163Z</time></trkpt><trkpt lat="40.3614978" lon="15.0451009"><ele>142.0</ele><time>2026-03-29T07:32:53.161Z</time></trkpt><trkpt lat="40.3616075" lon="15.0450412"><ele>142.0</ele><time>2026-03-29T07:32:54.125Z</time></trkpt><trkpt lat="40.3614903" lon="15.0449948"><ele>142.0</ele><time>2026-03-29T07:32:56.145Z</time></trkpt><trkpt lat="40.3613901" lon="15.0449331"><ele>142.0</ele><time>2026-03-29T07:32:57.182Z</time></trkpt><trkpt lat="40.3612985" lon="15.0448641"><ele>142.0</ele><time>2026-03-29T07:32:58.256Z</time></trkpt><trkpt lat="40.3611505" lon="15.0447799"><ele>145.6</ele><time>2026-03-29T07:33:00.164Z</time></trkpt><trkpt lat="40.361071" lon="15.0447469"><ele>149.2</ele><time>2026-03-29T07:33:01.139Z</time></trkpt><trkpt lat="40.3609742" lon="15.0446998"><ele>152.8</ele><time>2026-03-29T07:33:02.222Z</time></trkpt><trkpt lat="40.3608896" lon="15.0446444"><ele>156.4</ele><time>2026-03-29T07:33:03.145Z</time></trkpt><trkpt lat="40.3608065" lon="15.0445726"><ele>160.0</ele><time>2026-03-29T07:33:04.179Z</time></trkpt><trkpt lat="40.3607289" lon="15.0444911"><ele>160.0</ele><time>2026-03-29T07:33:05.142Z</time></trkpt><trkpt lat="40.3606555" lon="15.0444085"><ele>160.0</ele><time>2026-03-29T07:33:06.131Z</time></trkpt><trkpt lat="40.3605968" lon="15.0443565"><ele>160.0</ele><time>2026-03-29T07:33:07.134Z</time></trkpt><trkpt lat="40.3605081" lon="15.0443512"><ele>160.0</ele><time>2026-03-29T07:33:12.146Z</time></trkpt><trkpt lat="40.3604342" lon="15.0443798"><ele>160.0</ele><time>2026-03-29T07:33:18.128Z</time></trkpt><trkpt lat="40.36037" lon="15.0444759"><ele>160.0</ele><time>2026-03-29T07:33:20.166Z</time></trkpt><trkpt lat="40.3602957" lon="15.0445422"><ele>162.16666666666669</ele><time>2026-03-29T07:33:21.229Z</time></trkpt><trkpt lat="40.3602484" lon="15.0446041"><ele>164.33333333333334</ele><time>2026-03-29T07:33:22.139Z</time></trkpt><trkpt lat="40.3601668" lon="15.0446428"><ele>166.5</ele><time>2026-03-29T07:33:23.143Z</time></trkpt><trkpt lat="40.36008" lon="15.0446612"><ele>168.66666666666666</ele><time>2026-03-29T07:33:24.116Z</time></trkpt><trkpt lat="40.3599815" lon="15.0446586"><ele>170.83333333333331</ele><time>2026-03-29T07:33:25.142Z</time></trkpt><trkpt lat="40.3599069" lon="15.044645"><ele>173.0</ele><time>2026-03-29T07:33:26.105Z</time></trkpt><trkpt lat="40.3598403" lon="15.0446471"><ele>173.0</ele><time>2026-03-29T07:33:27.129Z</time></trkpt><trkpt lat="40.3597668" lon="15.0446531"><ele>173.0</ele><time>2026-03-29T07:33:28.176Z</time></trkpt><trkpt lat="40.359687" lon="15.044648"><ele>173.0</ele><time>2026-03-29T07:33:29.157Z</time></trkpt><trkpt lat="40.3596036" lon="15.0446496"><ele>173.0</ele><time>2026-03-29T07:33:30.133Z</time></trkpt><trkpt lat="40.3595083" lon="15.0446572"><ele>173.0</ele><time>2026-03-29T07:33:31.21Z</time></trkpt><trkpt lat="40.3594282" lon="15.044673"><ele>173.0</ele><time>2026-03-29T07:33:32.14Z</time></trkpt><trkpt lat="40.3593464" lon="15.0446994"><ele>175.0</ele><time>2026-03-29T07:33:33.149Z</time></trkpt><trkpt lat="40.3592732" lon="15.0447268"><ele>177.0</ele><time>2026-03-29T07:33:34.154Z</time></trkpt><trkpt lat="40.3591985" lon="15.0447631"><ele>179.0</ele><time>2026-03-29T07:33:35.161Z</time></trkpt><trkpt lat="40.3591134" lon="15.0448082"><ele>181.0</ele><time>2026-03-29T07:33:36.237Z</time></trkpt><trkpt lat="40.3589762" lon="15.0449165"><ele>183.0</ele><time>2026-03-29T07:33:38.127Z</time></trkpt><trkpt lat="40.3588335" lon="15.0449073"><ele>185.25</ele><time>2026-03-29T07:33:39.12Z</time></trkpt><trkpt lat="40.3586968" lon="15.0449178"><ele>187.5</ele><time>2026-03-29T07:33:40.146Z</time></trkpt><trkpt lat="40.3585665" lon="15.0449364"><ele>189.75</ele><time>2026-03-29T07:33:41.138Z</time></trkpt><trkpt lat="40.3584391" lon="15.044969"><ele>192.0</ele><time>2026-03-29T07:33:42.137Z</time></trkpt><trkpt lat="40.358321" lon="15.0450159"><ele>192.0</ele><time>2026-03-29T07:33:43.161Z</time></trkpt><trkpt lat="40.358211" lon="15.0450591"><ele>192.0</ele><time>2026-03-29T07:33:44.128Z</time></trkpt><trkpt lat="40.3581768" lon="15.0451911"><ele>192.0</ele><time>2026-03-29T07:33:45.12Z</time></trkpt><trkpt lat="40.3581474" lon="15.0453234"><ele>192.0</ele><time>2026-03-29T07:33:46.133Z</time></trkpt><trkpt lat="40.3581199" lon="15.0454648"><ele>192.0</ele><time>2026-03-29T07:33:47.127Z</time></trkpt><trkpt lat="40.3580873" lon="15.0456063"><ele>192.0</ele><time>2026-03-29T07:33:48.129Z</time></trkpt><trkpt lat="40.3580519" lon="15.0457615"><ele>192.0</ele><time>2026-03-29T07:33:49.229Z</time></trkpt><trkpt lat="40.3580248" lon="15.0458936"><ele>192.0</ele><time>2026-03-29T07:33:50.14Z</time></trkpt><trkpt lat="40.3579917" lon="15.0460357"><ele>192.0</ele><time>2026-03-29T07:33:51.128Z</time></trkpt><trkpt lat="40.3579511" lon="15.0461883"><ele>195.0</ele><time>2026-03-29T07:33:52.189Z</time></trkpt><trkpt lat="40.3579143" lon="15.0463275"><ele>198.0</ele><time>2026-03-29T07:33:53.145Z</time></trkpt><trkpt lat="40.357904" lon="15.0464984"><ele>201.0</ele><time>2026-03-29T07:33:54.134Z</time></trkpt><trkpt lat="40.3578945" lon="15.0466641"><ele>204.0</ele><time>2026-03-29T07:33:55.145Z</time></trkpt><trkpt lat="40.3578769" lon="15.0468576"><ele>204.0</ele><time>2026-03-29T07:33:56.165Z</time></trkpt><trkpt lat="40.3578766" lon="15.0470687"><ele>204.0</ele><time>2026-03-29T07:33:57.127Z</time></trkpt><trkpt lat="40.357876" lon="15.0472769"><ele>204.0</ele><time>2026-03-29T07:33:58.137Z</time></trkpt><trkpt lat="40.3578722" lon="15.047492"><ele>205.25</ele><time>2026-03-29T07:33:59.181Z</time></trkpt><trkpt lat="40.3578687" lon="15.0476812"><ele>206.5</ele><time>2026-03-29T07:34:00.132Z</time></trkpt><trkpt lat="40.3578603" lon="15.0478777"><ele>207.75</ele><time>2026-03-29T07:34:01.129Z</time></trkpt><trkpt lat="40.3578461" lon="15.0480679"><ele>209.0</ele><time>2026-03-29T07:34:02.169Z</time></trkpt><trkpt lat="40.3578276" lon="15.0482263"><ele>210.6</ele><time>2026-03-29T07:34:03.149Z</time></trkpt><trkpt lat="40.3578027" lon="15.0483689"><ele>212.2</ele><time>2026-03-29T07:34:04.157Z</time></trkpt><trkpt lat="40.3577824" lon="15.0484868"><ele>213.79999999999998</ele><time>2026-03-29T07:34:05.132Z</time></trkpt><trkpt lat="40.3577654" lon="15.048587"><ele>215.39999999999998</ele><time>2026-03-29T07:34:06.141Z</time></trkpt><trkpt lat="40.3577293" lon="15.0487193"><ele>217.0</ele><time>2026-03-29T07:34:08.124Z</time></trkpt><trkpt lat="40.3577051" lon="15.048806"><ele>216.99999999999997</ele><time>2026-03-29T07:34:41.105Z</time></trkpt><trkpt lat="40.357706" lon="15.0489217"><ele>217.0</ele><time>2026-03-29T07:34:43.173Z</time></trkpt><trkpt lat="40.3577041" lon="15.0490092"><ele>217.0</ele><time>2026-03-29T07:34:44.161Z</time></trkpt><trkpt lat="40.357698" lon="15.0491114"><ele>217.0</ele><time>2026-03-29T07:34:45.169Z</time></trkpt><trkpt lat="40.3576906" lon="15.0492214"><ele>216.99999999999997</ele><time>2026-03-29T07:34:46.119Z</time></trkpt><trkpt lat="40.3576835" lon="15.0493391"><ele>217.0</ele><time>2026-03-29T07:34:47.126Z</time></trkpt><trkpt lat="40.3576821" lon="15.0494564"><ele>216.83333333333331</ele><time>2026-03-29T07:34:48.114Z</time></trkpt><trkpt lat="40.3577023" lon="15.0495488"><ele>216.66666666666666</ele><time>2026-03-29T07:34:49.107Z</time></trkpt><trkpt lat="40.357747" lon="15.0496289"><ele>216.5</ele><time>2026-03-29T07:34:50.111Z</time></trkpt><trkpt lat="40.3578187" lon="15.0496975"><ele>216.33333333333331</ele><time>2026-03-29T07:34:51.167Z</time></trkpt><trkpt lat="40.3578737" lon="15.0497506"><ele>216.16666666666666</ele><time>2026-03-29T07:34:52.107Z</time></trkpt><trkpt lat="40.3579244" lon="15.0498666"><ele>216.0</ele><time>2026-03-29T07:34:54.119Z</time></trkpt><trkpt lat="40.3578904" lon="15.0499402"><ele>216.0</ele><time>2026-03-29T07:34:56.119Z</time></trkpt><trkpt lat="40.357819" lon="15.049951"><ele>216.0</ele><time>2026-03-29T07:34:58.126Z</time></trkpt><trkpt lat="40.357731" lon="15.0499135"><ele>216.0</ele><time>2026-03-29T07:35:00.108Z</time></trkpt><trkpt lat="40.3576598" lon="15.0498952"><ele>216.0</ele><time>2026-03-29T07:35:03.1Z</time></trkpt><trkpt lat="40.3576476" lon="15.0499996"><ele>216.0</ele><time>2026-03-29T07:35:06.125Z</time></trkpt><trkpt lat="40.3576641" lon="15.050123"><ele>216.0</ele><time>2026-03-29T07:35:08.121Z</time></trkpt><trkpt lat="40.3576524" lon="15.0502113"><ele>217.16666666666666</ele><time>2026-03-29T07:35:11.09Z</time></trkpt><trkpt lat="40.3575842" lon="15.0502294"><ele>218.33333333333331</ele><time>2026-03-29T07:35:13.109Z</time></trkpt><trkpt lat="40.3574672" lon="15.0502408"><ele>219.5</ele><time>2026-03-29T07:35:15.131Z</time></trkpt><trkpt lat="40.3574011" lon="15.050236"><ele>220.66666666666666</ele><time>2026-03-29T07:35:16.113Z</time></trkpt><trkpt lat="40.3573122" lon="15.0502436"><ele>221.83333333333331</ele><time>2026-03-29T07:35:17.106Z</time></trkpt><trkpt lat="40.357225" lon="15.0502637"><ele>223.0</ele><time>2026-03-29T07:35:18.114Z</time></trkpt><trkpt lat="40.3571428" lon="15.0503059"><ele>227.4</ele><time>2026-03-29T07:35:19.118Z</time></trkpt><trkpt lat="40.3570537" lon="15.0503541"><ele>231.8</ele><time>2026-03-29T07:35:20.111Z</time></trkpt><trkpt lat="40.3569734" lon="15.0503943"><ele>236.2</ele><time>2026-03-29T07:35:21.112Z</time></trkpt><trkpt lat="40.3568646" lon="15.0504482"><ele>240.6</ele><time>2026-03-29T07:35:23.096Z</time></trkpt><trkpt lat="40.3567771" lon="15.0504986"><ele>245.0</ele><time>2026-03-29T07:35:25.115Z</time></trkpt><trkpt lat="40.3567103" lon="15.050568"><ele>245.00000000000003</ele><time>2026-03-29T07:35:28.097Z</time></trkpt><trkpt lat="40.3566893" lon="15.0504462"><ele>245.0</ele><time>2026-03-29T07:35:40.115Z</time></trkpt><trkpt lat="40.3566919" lon="15.0503063"><ele>245.0</ele><time>2026-03-29T07:35:42.143Z</time></trkpt><trkpt lat="40.3566712" lon="15.0501714"><ele>245.0</ele><time>2026-03-29T07:35:44.108Z</time></trkpt><trkpt lat="40.3566427" lon="15.0500912"><ele>245.00000000000003</ele><time>2026-03-29T07:35:45.094Z</time></trkpt><trkpt lat="40.3566084" lon="15.0500124"><ele>245.0</ele><time>2026-03-29T07:35:46.113Z</time></trkpt><trkpt lat="40.3565571" lon="15.0499332"><ele>243.8</ele><time>2026-03-29T07:35:50.118Z</time></trkpt><trkpt lat="40.3565244" lon="15.0498351"><ele>242.6</ele><time>2026-03-29T07:35:52.138Z</time></trkpt><trkpt lat="40.3564759" lon="15.0497218"><ele>241.39999999999998</ele><time>2026-03-29T07:35:54.136Z</time></trkpt><trkpt lat="40.3564076" lon="15.04966"><ele>240.2</ele><time>2026-03-29T07:35:57.115Z</time></trkpt><trkpt lat="40.3563582" lon="15.0497595"><ele>239.0</ele><time>2026-03-29T07:36:01.092Z</time></trkpt><trkpt lat="40.3563292" lon="15.0498951"><ele>243.50000000000003</ele><time>2026-03-29T07:36:03.09Z</time></trkpt><trkpt lat="40.3563093" lon="15.0499765"><ele>248.0</ele><time>2026-03-29T07:36:04.096Z</time></trkpt><trkpt lat="40.3562708" lon="15.0501346"><ele>252.5</ele><time>2026-03-29T07:36:06.117Z</time></trkpt><trkpt lat="40.3562572" lon="15.0502194"><ele>257.0</ele><time>2026-03-29T07:36:07.103Z</time></trkpt><trkpt lat="40.3562344" lon="15.0503067"><ele>261.5</ele><time>2026-03-29T07:36:08.134Z</time></trkpt><trkpt lat="40.3562019" lon="15.0504223"><ele>266.0</ele><time>2026-03-29T07:36:10.109Z</time></trkpt><trkpt lat="40.3561532" lon="15.0504751"><ele>266.0</ele><time>2026-03-29T07:36:13.119Z</time></trkpt><trkpt lat="40.3560941" lon="15.0504448"><ele>266.0</ele><time>2026-03-29T07:36:16.124Z</time></trkpt><trkpt lat="40.3559732" lon="15.0503741"><ele>266.0</ele><time>2026-03-29T07:36:18.136Z</time></trkpt><trkpt lat="40.3558981" lon="15.0503508"><ele>266.0</ele><time>2026-03-29T07:36:19.124Z</time></trkpt><trkpt lat="40.3558111" lon="15.0503502"><ele>266.0</ele><time>2026-03-29T07:36:20.142Z</time></trkpt><trkpt lat="40.3557112" lon="15.050363"><ele>266.0</ele><time>2026-03-29T07:36:21.147Z</time></trkpt><trkpt lat="40.3556042" lon="15.0503783"><ele>266.0</ele><time>2026-03-29T07:36:22.151Z</time></trkpt><trkpt lat="40.3554914" lon="15.0503941"><ele>266.0</ele><time>2026-03-29T07:36:23.134Z</time></trkpt><trkpt lat="40.3553857" lon="15.0504088"><ele>266.0</ele><time>2026-03-29T07:36:24.134Z</time></trkpt><trkpt lat="40.3552684" lon="15.0504188"><ele>266.0</ele><time>2026-03-29T07:36:25.115Z</time></trkpt><trkpt lat="40.355135" lon="15.0504229"><ele>273.25</ele><time>2026-03-29T07:36:26.131Z</time></trkpt><trkpt lat="40.3550049" lon="15.0504325"><ele>280.5</ele><time>2026-03-29T07:36:27.125Z</time></trkpt><trkpt lat="40.3548736" lon="15.050468"><ele>287.75</ele><time>2026-03-29T07:36:28.164Z</time></trkpt><trkpt lat="40.354763" lon="15.0505182"><ele>295.0</ele><time>2026-03-29T07:36:29.119Z</time></trkpt><trkpt lat="40.3546624" lon="15.0505598"><ele>300.5</ele><time>2026-03-29T07:36:30.136Z</time></trkpt><trkpt lat="40.3545614" lon="15.0505656"><ele>306.0</ele><time>2026-03-29T07:36:31.128Z</time></trkpt><trkpt lat="40.3544453" lon="15.0505406"><ele>311.5</ele><time>2026-03-29T07:36:32.133Z</time></trkpt><trkpt lat="40.3543103" lon="15.0504762"><ele>317.0</ele><time>2026-03-29T07:36:33.25Z</time></trkpt><trkpt lat="40.3540756" lon="15.0503581"><ele>317.0</ele><time>2026-03-29T07:36:35.129Z</time></trkpt><trkpt lat="40.3539513" lon="15.0503074"><ele>317.0</ele><time>2026-03-29T07:36:36.239Z</time></trkpt><trkpt lat="40.3537526" lon="15.0502952"><ele>317.0</ele><time>2026-03-29T07:36:38.142Z</time></trkpt><trkpt lat="40.3536376" lon="15.0503276"><ele>317.0</ele><time>2026-03-29T07:36:39.122Z</time></trkpt><trkpt lat="40.3535059" lon="15.0503653"><ele>323.6666666666667</ele><time>2026-03-29T07:36:40.117Z</time></trkpt><trkpt lat="40.3533477" lon="15.0504048"><ele>330.3333333333333</ele><time>2026-03-29T07:36:41.139Z</time></trkpt><trkpt lat="40.3531853" lon="15.0504471"><ele>337.0</ele><time>2026-03-29T07:36:42.123Z</time></trkpt><trkpt lat="40.35303" lon="15.0504897"><ele>342.0</ele><time>2026-03-29T07:36:43.123Z</time></trkpt><trkpt lat="40.3528637" lon="15.0505298"><ele>347.0</ele><time>2026-03-29T07:36:44.119Z</time></trkpt><trkpt lat="40.3526796" lon="15.050553"><ele>352.0</ele><time>2026-03-29T07:36:45.144Z</time></trkpt><trkpt lat="40.3524986" lon="15.050573"><ele>352.0</ele><time>2026-03-29T07:36:46.149Z</time></trkpt><trkpt lat="40.352339" lon="15.0505923"><ele>352.0</ele><time>2026-03-29T07:36:47.12Z</time></trkpt><trkpt lat="40.3521928" lon="15.0506126"><ele>352.0</ele><time>2026-03-29T07:36:48.119Z</time></trkpt><trkpt lat="40.3520537" lon="15.0506325"><ele>352.0</ele><time>2026-03-29T07:36:49.133Z</time></trkpt><trkpt lat="40.3519374" lon="15.0506544"><ele>352.16666666666663</ele><time>2026-03-29T07:36:50.125Z</time></trkpt><trkpt lat="40.3518422" lon="15.0506826"><ele>352.3333333333333</ele><time>2026-03-29T07:36:51.137Z</time></trkpt><trkpt lat="40.3517675" lon="15.0507274"><ele>352.5</ele><time>2026-03-29T07:36:52.171Z</time></trkpt><trkpt lat="40.3516861" lon="15.0507957"><ele>352.6666666666667</ele><time>2026-03-29T07:36:54.284Z</time></trkpt><trkpt lat="40.3516653" lon="15.0507021"><ele>352.83333333333337</ele><time>2026-03-29T07:37:02.144Z</time></trkpt><trkpt lat="40.3517315" lon="15.0506108"><ele>353.0</ele><time>2026-03-29T07:37:04.137Z</time></trkpt><trkpt lat="40.3517866" lon="15.0505397"><ele>354.79999999999995</ele><time>2026-03-29T07:37:05.141Z</time></trkpt><trkpt lat="40.3518604" lon="15.050443"><ele>356.6</ele><time>2026-03-29T07:37:06.166Z</time></trkpt><trkpt lat="40.3519408" lon="15.0503408"><ele>358.4</ele><time>2026-03-29T07:37:07.135Z</time></trkpt><trkpt lat="40.3520161" lon="15.0502457"><ele>360.20000000000005</ele><time>2026-03-29T07:37:08.117Z</time></trkpt><trkpt lat="40.3520702" lon="15.0501767"><ele>362.0</ele><time>2026-03-29T07:37:09.121Z</time></trkpt><trkpt lat="40.3520797" lon="15.0500085"><ele>362.0</ele><time>2026-03-29T07:37:12.152Z</time></trkpt><trkpt lat="40.3519903" lon="15.0499875"><ele>362.0</ele><time>2026-03-29T07:37:14.14Z</time></trkpt><trkpt lat="40.3519226" lon="15.0500116"><ele>362.0</ele><time>2026-03-29T07:37:15.132Z</time></trkpt><trkpt lat="40.351839" lon="15.0500564"><ele>362.0</ele><time>2026-03-29T07:37:16.156Z</time></trkpt><trkpt lat="40.3517484" lon="15.0501092"><ele>362.0</ele><time>2026-03-29T07:37:17.136Z</time></trkpt><trkpt lat="40.351667" lon="15.0501495"><ele>362.0</ele><time>2026-03-29T07:37:18.151Z</time></trkpt><trkpt lat="40.3515887" lon="15.0501462"><ele>362.0</ele><time>2026-03-29T07:37:19.306Z</time></trkpt><trkpt lat="40.3515157" lon="15.0500453"><ele>362.0</ele><time>2026-03-29T07:37:21.107Z</time></trkpt><trkpt lat="40.3515161" lon="15.0499625"><ele>362.0</ele><time>2026-03-29T07:37:22.148Z</time></trkpt><trkpt lat="40.3515409" lon="15.0498863"><ele>362.0</ele><time>2026-03-29T07:37:23.152Z</time></trkpt><trkpt lat="40.351589" lon="15.0498169"><ele>362.0</ele><time>2026-03-29T07:37:24.16Z</time></trkpt><trkpt lat="40.3516463" lon="15.0497444"><ele>362.0</ele><time>2026-03-29T07:37:25.136Z</time></trkpt><trkpt lat="40.3516966" lon="15.0496561"><ele>362.6</ele><time>2026-03-29T07:37:26.135Z</time></trkpt><trkpt lat="40.3517337" lon="15.049552"><ele>363.20000000000005</ele><time>2026-03-29T07:37:27.132Z</time></trkpt><trkpt lat="40.3517634" lon="15.0494395"><ele>363.8</ele><time>2026-03-29T07:37:28.139Z</time></trkpt><trkpt lat="40.351787" lon="15.0493384"><ele>364.4</ele><time>2026-03-29T07:37:29.132Z</time></trkpt><trkpt lat="40.3518078" lon="15.0492438"><ele>365.0</ele><time>2026-03-29T07:37:30.151Z</time></trkpt><trkpt lat="40.3518446" lon="15.0490937"><ele>365.0</ele><time>2026-03-29T07:37:32.119Z</time></trkpt><trkpt lat="40.351875" lon="15.0490041"><ele>365.0</ele><time>2026-03-29T07:37:33.13Z</time></trkpt><trkpt lat="40.3519137" lon="15.0488841"><ele>365.0</ele><time>2026-03-29T07:37:34.208Z</time></trkpt><trkpt lat="40.351945" lon="15.0487756"><ele>365.0</ele><time>2026-03-29T07:37:35.131Z</time></trkpt><trkpt lat="40.3519856" lon="15.0486356"><ele>365.0</ele><time>2026-03-29T07:37:36.121Z</time></trkpt><trkpt lat="40.3520298" lon="15.048485"><ele>365.0</ele><time>2026-03-29T07:37:37.138Z</time></trkpt><trkpt lat="40.3520771" lon="15.0483449"><ele>365.0</ele><time>2026-03-29T07:37:38.142Z</time></trkpt><trkpt lat="40.3521257" lon="15.0482211"><ele>365.0</ele><time>2026-03-29T07:37:39.119Z</time></trkpt><trkpt lat="40.3521753" lon="15.048088"><ele>365.0</ele><time>2026-03-29T07:37:40.154Z</time></trkpt><trkpt lat="40.3522139" lon="15.0479612"><ele>365.0</ele><time>2026-03-29T07:37:41.139Z</time></trkpt><trkpt lat="40.3522479" lon="15.0478237"><ele>367.25</ele><time>2026-03-29T07:37:42.146Z</time></trkpt><trkpt lat="40.3522757" lon="15.0476848"><ele>369.5</ele><time>2026-03-29T07:37:43.128Z</time></trkpt><trkpt lat="40.3522897" lon="15.0475366"><ele>371.75</ele><time>2026-03-29T07:37:44.14Z</time></trkpt><trkpt lat="40.3523011" lon="15.0473801"><ele>374.0</ele><time>2026-03-29T07:37:45.119Z</time></trkpt><trkpt lat="40.3523149" lon="15.0472143"><ele>374.0</ele><time>2026-03-29T07:37:46.11Z</time></trkpt><trkpt lat="40.3523357" lon="15.0470512"><ele>374.0</ele><time>2026-03-29T07:37:47.136Z</time></trkpt><trkpt lat="40.3523629" lon="15.0468876"><ele>374.0</ele><time>2026-03-29T07:37:48.159Z</time></trkpt><trkpt lat="40.3523876" lon="15.0467352"><ele>374.0</ele><time>2026-03-29T07:37:49.164Z</time></trkpt><trkpt lat="40.3524105" lon="15.0465969"><ele>374.0</ele><time>2026-03-29T07:37:50.132Z</time></trkpt><trkpt lat="40.3524403" lon="15.0464796"><ele>374.0</ele><time>2026-03-29T07:37:51.169Z</time></trkpt><trkpt lat="40.3524782" lon="15.0463358"><ele>374.0</ele><time>2026-03-29T07:37:52.24Z</time></trkpt><trkpt lat="40.3525159" lon="15.0461174"><ele>374.0</ele><time>2026-03-29T07:37:54.153Z</time></trkpt><trkpt lat="40.3525271" lon="15.0459979"><ele>374.0</ele><time>2026-03-29T07:37:55.149Z</time></trkpt><trkpt lat="40.3525302" lon="15.0458746"><ele>374.0</ele><time>2026-03-29T07:37:56.14Z</time></trkpt><trkpt lat="40.3525297" lon="15.0457436"><ele>374.0</ele><time>2026-03-29T07:37:57.148Z</time></trkpt><trkpt lat="40.3525289" lon="15.04561"><ele>374.0</ele><time>2026-03-29T07:37:58.144Z</time></trkpt><trkpt lat="40.3525257" lon="15.0454666"><ele>374.0</ele><time>2026-03-29T07:37:59.15Z</time></trkpt><trkpt lat="40.3525247" lon="15.0453087"><ele>373.6</ele><time>2026-03-29T07:38:00.248Z</time></trkpt><trkpt lat="40.3525282" lon="15.045059"><ele>373.2</ele><time>2026-03-29T07:38:02.132Z</time></trkpt><trkpt lat="40.3525209" lon="15.0449669"><ele>372.8</ele><time>2026-03-29T07:38:03.119Z</time></trkpt><trkpt lat="40.3525062" lon="15.0448523"><ele>372.40000000000003</ele><time>2026-03-29T07:38:04.129Z</time></trkpt><trkpt lat="40.3524777" lon="15.0447404"><ele>372.0</ele><time>2026-03-29T07:38:05.15Z</time></trkpt><trkpt lat="40.3524408" lon="15.0446288"><ele>371.6</ele><time>2026-03-29T07:38:06.136Z</time></trkpt><trkpt lat="40.3523932" lon="15.0445107"><ele>371.20000000000005</ele><time>2026-03-29T07:38:07.159Z</time></trkpt><trkpt lat="40.3523543" lon="15.0444051"><ele>370.8</ele><time>2026-03-29T07:38:08.102Z</time></trkpt><trkpt lat="40.3523173" lon="15.044296"><ele>370.4</ele><time>2026-03-29T07:38:09.102Z</time></trkpt><trkpt lat="40.3522847" lon="15.0441862"><ele>370.0</ele><time>2026-03-29T07:38:10.157Z</time></trkpt><trkpt lat="40.3522542" lon="15.0440907"><ele>369.5</ele><time>2026-03-29T07:38:11.116Z</time></trkpt><trkpt lat="40.352222" lon="15.0439984"><ele>369.0</ele><time>2026-03-29T07:38:12.12Z</time></trkpt><trkpt lat="40.3521881" lon="15.0439151"><ele>368.5</ele><time>2026-03-29T07:38:13.136Z</time></trkpt><trkpt lat="40.3521762" lon="15.0438172"><ele>368.0</ele><time>2026-03-29T07:38:16.145Z</time></trkpt><trkpt lat="40.3522118" lon="15.0436901"><ele>367.5</ele><time>2026-03-29T07:38:19.111Z</time></trkpt><trkpt lat="40.352228" lon="15.0435611"><ele>367.0</ele><time>2026-03-29T07:38:21.124Z</time></trkpt><trkpt lat="40.3522448" lon="15.0434106"><ele>367.0</ele><time>2026-03-29T07:38:23.124Z</time></trkpt><trkpt lat="40.352246" lon="15.0433266"><ele>367.0</ele><time>2026-03-29T07:38:24.117Z</time></trkpt><trkpt lat="40.3522449" lon="15.0432415"><ele>367.0</ele><time>2026-03-29T07:38:25.125Z</time></trkpt><trkpt lat="40.3522383" lon="15.0430849"><ele>367.0</ele><time>2026-03-29T07:38:27.141Z</time></trkpt><trkpt lat="40.3522699" lon="15.042869"><ele>367.0</ele><time>2026-03-29T07:38:30.173Z</time></trkpt><trkpt lat="40.3523" lon="15.0427951"><ele>365.0</ele><time>2026-03-29T07:38:31.105Z</time></trkpt><trkpt lat="40.3523386" lon="15.0427218"><ele>363.0</ele><time>2026-03-29T07:38:32.105Z</time></trkpt><trkpt lat="40.3524348" lon="15.0426203"><ele>361.0</ele><time>2026-03-29T07:38:34.134Z</time></trkpt><trkpt lat="40.3524934" lon="15.0425823"><ele>359.0</ele><time>2026-03-29T07:38:35.129Z</time></trkpt><trkpt lat="40.3525568" lon="15.0425502"><ele>357.0</ele><time>2026-03-29T07:38:36.129Z</time></trkpt><trkpt lat="40.3526726" lon="15.0424929"><ele>355.0</ele><time>2026-03-29T07:38:38.125Z</time></trkpt><trkpt lat="40.3527815" lon="15.0424234"><ele>352.0</ele><time>2026-03-29T07:38:40.117Z</time></trkpt><trkpt lat="40.3528388" lon="15.04238"><ele>349.0</ele><time>2026-03-29T07:38:41.124Z</time></trkpt><trkpt lat="40.3528993" lon="15.042345"><ele>346.0</ele><time>2026-03-29T07:38:42.123Z</time></trkpt><trkpt lat="40.3529595" lon="15.0423138"><ele>343.0</ele><time>2026-03-29T07:38:43.167Z</time></trkpt><trkpt lat="40.3530602" lon="15.0422494"><ele>340.0</ele><time>2026-03-29T07:38:45.121Z</time></trkpt><trkpt lat="40.353161" lon="15.0421514"><ele>337.0</ele><time>2026-03-29T07:38:47.118Z</time></trkpt><trkpt lat="40.3532262" lon="15.0420747"><ele>337.0</ele><time>2026-03-29T07:38:49.119Z</time></trkpt><trkpt lat="40.3532415" lon="15.0419853"><ele>337.0</ele><time>2026-03-29T07:38:53.108Z</time></trkpt><trkpt lat="40.3532843" lon="15.0419132"><ele>337.0</ele><time>2026-03-29T07:38:55.116Z</time></trkpt><trkpt lat="40.353339" lon="15.0418565"><ele>337.0</ele><time>2026-03-29T07:38:56.124Z</time></trkpt><trkpt lat="40.3534022" lon="15.0417936"><ele>337.0</ele><time>2026-03-29T07:38:57.179Z</time></trkpt><trkpt lat="40.3534727" lon="15.0417096"><ele>337.0</ele><time>2026-03-29T07:38:58.157Z</time></trkpt><trkpt lat="40.3535587" lon="15.041605"><ele>335.25</ele><time>2026-03-29T07:38:59.199Z</time></trkpt><trkpt lat="40.3536574" lon="15.0414932"><ele>333.5</ele><time>2026-03-29T07:39:00.187Z</time></trkpt><trkpt lat="40.3537557" lon="15.0413777"><ele>331.75</ele><time>2026-03-29T07:39:01.173Z</time></trkpt><trkpt lat="40.3538562" lon="15.0412617"><ele>330.0</ele><time>2026-03-29T07:39:02.173Z</time></trkpt><trkpt lat="40.3539703" lon="15.041118"><ele>330.0</ele><time>2026-03-29T07:39:03.2Z</time></trkpt><trkpt lat="40.3540662" lon="15.0409787"><ele>330.0</ele><time>2026-03-29T07:39:04.197Z</time></trkpt><trkpt lat="40.354158" lon="15.0408297"><ele>330.0</ele><time>2026-03-29T07:39:05.19Z</time></trkpt><trkpt lat="40.3542411" lon="15.0406679"><ele>330.0</ele><time>2026-03-29T07:39:06.194Z</time></trkpt><trkpt lat="40.3543155" lon="15.0405026"><ele>329.0</ele><time>2026-03-29T07:39:07.2Z</time></trkpt><trkpt lat="40.3543848" lon="15.0403276"><ele>328.0</ele><time>2026-03-29T07:39:08.219Z</time></trkpt><trkpt lat="40.3544478" lon="15.0401628"><ele>327.0</ele><time>2026-03-29T07:39:09.213Z</time></trkpt><trkpt lat="40.3544972" lon="15.0400047"><ele>326.0</ele><time>2026-03-29T07:39:10.213Z</time></trkpt><trkpt lat="40.3545492" lon="15.0398416"><ele>325.0</ele><time>2026-03-29T07:39:11.207Z</time></trkpt><trkpt lat="40.3545913" lon="15.0396801"><ele>324.0</ele><time>2026-03-29T07:39:12.178Z</time></trkpt><trkpt lat="40.3546287" lon="15.039512"><ele>323.0</ele><time>2026-03-29T07:39:13.215Z</time></trkpt><trkpt lat="40.3546552" lon="15.0393411"><ele>322.0</ele><time>2026-03-29T07:39:14.217Z</time></trkpt><trkpt lat="40.3546756" lon="15.0391602"><ele>321.5</ele><time>2026-03-29T07:39:15.2Z</time></trkpt><trkpt lat="40.354686" lon="15.038945"><ele>321.0</ele><time>2026-03-29T07:39:16.332Z</time></trkpt><trkpt lat="40.3547156" lon="15.0385628"><ele>324.25</ele><time>2026-03-29T07:39:18.222Z</time></trkpt><trkpt lat="40.3547359" lon="15.0383524"><ele>327.5</ele><time>2026-03-29T07:39:19.294Z</time></trkpt><trkpt lat="40.3547553" lon="15.0381818"><ele>330.75</ele><time>2026-03-29T07:39:20.205Z</time></trkpt><trkpt lat="40.354764" lon="15.0379959"><ele>334.0</ele><time>2026-03-29T07:39:21.194Z</time></trkpt><trkpt lat="40.3547388" lon="15.0377999"><ele>332.66666666666663</ele><time>2026-03-29T07:39:22.194Z</time></trkpt><trkpt lat="40.3546989" lon="15.0376098"><ele>331.3333333333333</ele><time>2026-03-29T07:39:23.2Z</time></trkpt><trkpt lat="40.3546461" lon="15.0374206"><ele>330.0</ele><time>2026-03-29T07:39:24.205Z</time></trkpt><trkpt lat="40.3545696" lon="15.0372208"><ele>330.0</ele><time>2026-03-29T07:39:25.307Z</time></trkpt><trkpt lat="40.3544473" lon="15.0368958"><ele>330.0</ele><time>2026-03-29T07:39:27.204Z</time></trkpt><trkpt lat="40.3543886" lon="15.0367526"><ele>330.0</ele><time>2026-03-29T07:39:28.215Z</time></trkpt><trkpt lat="40.3543152" lon="15.0366341"><ele>328.5</ele><time>2026-03-29T07:39:29.183Z</time></trkpt><trkpt lat="40.3542096" lon="15.0365312"><ele>327.0</ele><time>2026-03-29T07:39:30.206Z</time></trkpt><trkpt lat="40.3540792" lon="15.0364512"><ele>325.5</ele><time>2026-03-29T07:39:31.221Z</time></trkpt><trkpt lat="40.3539453" lon="15.0363768"><ele>324.0</ele><time>2026-03-29T07:39:32.203Z</time></trkpt><trkpt lat="40.3537905" lon="15.0362589"><ele>324.0</ele><time>2026-03-29T07:39:33.382Z</time></trkpt><trkpt lat="40.3535803" lon="15.0360342"><ele>324.0</ele><time>2026-03-29T07:39:35.185Z</time></trkpt><trkpt lat="40.3534691" lon="15.0359145"><ele>324.0</ele><time>2026-03-29T07:39:36.19Z</time></trkpt><trkpt lat="40.3533611" lon="15.0357944"><ele>323.75</ele><time>2026-03-29T07:39:37.187Z</time></trkpt><trkpt lat="40.3532513" lon="15.035679"><ele>323.5</ele><time>2026-03-29T07:39:38.158Z</time></trkpt><trkpt lat="40.353124" lon="15.0355549"><ele>323.25</ele><time>2026-03-29T07:39:39.234Z</time></trkpt><trkpt lat="40.3530041" lon="15.0354524"><ele>323.0</ele><time>2026-03-29T07:39:40.218Z</time></trkpt><trkpt lat="40.3528858" lon="15.0353584"><ele>323.0</ele><time>2026-03-29T07:39:41.2Z</time></trkpt><trkpt lat="40.3527658" lon="15.0352546"><ele>323.0</ele><time>2026-03-29T07:39:42.194Z</time></trkpt><trkpt lat="40.3526458" lon="15.0351479"><ele>323.0</ele><time>2026-03-29T07:39:43.222Z</time></trkpt><trkpt lat="40.3525309" lon="15.0350569"><ele>323.0</ele><time>2026-03-29T07:39:44.217Z</time></trkpt><trkpt lat="40.3524183" lon="15.0349805"><ele>325.75</ele><time>2026-03-29T07:39:45.205Z</time></trkpt><trkpt lat="40.3523117" lon="15.034901"><ele>328.5</ele><time>2026-03-29T07:39:46.196Z</time></trkpt><trkpt lat="40.3522214" lon="15.0348061"><ele>331.25</ele><time>2026-03-29T07:39:47.188Z</time></trkpt><trkpt lat="40.3521474" lon="15.0346856"><ele>334.0</ele><time>2026-03-29T07:39:48.199Z</time></trkpt><trkpt lat="40.3520873" lon="15.034558"><ele>324.66666666666663</ele><time>2026-03-29T07:39:49.176Z</time></trkpt><trkpt lat="40.3520134" lon="15.0343952"><ele>315.3333333333333</ele><time>2026-03-29T07:39:50.359Z</time></trkpt><trkpt lat="40.3519095" lon="15.0341396"><ele>306.0</ele><time>2026-03-29T07:39:52.222Z</time></trkpt><trkpt lat="40.3518895" lon="15.0340176"><ele>305.40000000000003</ele><time>2026-03-29T07:39:53.186Z</time></trkpt><trkpt lat="40.3518946" lon="15.0338925"><ele>304.8</ele><time>2026-03-29T07:39:54.202Z</time></trkpt><trkpt lat="40.3519304" lon="15.0337735"><ele>304.20000000000005</ele><time>2026-03-29T07:39:55.226Z</time></trkpt><trkpt lat="40.3519923" lon="15.0336596"><ele>303.6</ele><time>2026-03-29T07:39:56.195Z</time></trkpt><trkpt lat="40.3520812" lon="15.0335378"><ele>303.0</ele><time>2026-03-29T07:39:57.233Z</time></trkpt><trkpt lat="40.3521644" lon="15.0334115"><ele>305.0</ele><time>2026-03-29T07:39:58.219Z</time></trkpt><trkpt lat="40.3522354" lon="15.0332679"><ele>307.0</ele><time>2026-03-29T07:39:59.222Z</time></trkpt><trkpt lat="40.3522749" lon="15.0331162"><ele>309.0</ele><time>2026-03-29T07:40:00.19Z</time></trkpt><trkpt lat="40.3522974" lon="15.0329405"><ele>311.0</ele><time>2026-03-29T07:40:01.228Z</time></trkpt><trkpt lat="40.3522957" lon="15.0327695"><ele>311.0</ele><time>2026-03-29T07:40:02.241Z</time></trkpt><trkpt lat="40.3522763" lon="15.0326168"><ele>311.0</ele><time>2026-03-29T07:40:03.19Z</time></trkpt><trkpt lat="40.3522454" lon="15.0324661"><ele>311.0</ele><time>2026-03-29T07:40:04.171Z</time></trkpt><trkpt lat="40.3522174" lon="15.0323044"><ele>311.0</ele><time>2026-03-29T07:40:05.308Z</time></trkpt><trkpt lat="40.352214" lon="15.0321751"><ele>309.33333333333337</ele><time>2026-03-29T07:40:06.277Z</time></trkpt><trkpt lat="40.3522309" lon="15.0320663"><ele>307.6666666666667</ele><time>2026-03-29T07:40:07.18Z</time></trkpt><trkpt lat="40.3522605" lon="15.0319545"><ele>306.0</ele><time>2026-03-29T07:40:08.341Z</time></trkpt><trkpt lat="40.3523049" lon="15.0317906"><ele>304.3333333333333</ele><time>2026-03-29T07:40:10.217Z</time></trkpt><trkpt lat="40.3523046" lon="15.0317029"><ele>302.66666666666663</ele><time>2026-03-29T07:40:11.223Z</time></trkpt><trkpt lat="40.3522898" lon="15.03161"><ele>301.0</ele><time>2026-03-29T07:40:12.154Z</time></trkpt><trkpt lat="40.3522557" lon="15.0315024"><ele>297.66666666666663</ele><time>2026-03-29T07:40:13.14Z</time></trkpt><trkpt lat="40.3522074" lon="15.0313674"><ele>294.3333333333333</ele><time>2026-03-29T07:40:14.254Z</time></trkpt><trkpt lat="40.3521723" lon="15.0310868"><ele>291.0</ele><time>2026-03-29T07:40:16.143Z</time></trkpt><trkpt lat="40.3521779" lon="15.0309175"><ele>289.0</ele><time>2026-03-29T07:40:17.13Z</time></trkpt><trkpt lat="40.3521921" lon="15.0307275"><ele>287.0</ele><time>2026-03-29T07:40:18.157Z</time></trkpt><trkpt lat="40.3522129" lon="15.0305227"><ele>285.0</ele><time>2026-03-29T07:40:19.157Z</time></trkpt><trkpt lat="40.3522324" lon="15.0303116"><ele>285.0</ele><time>2026-03-29T07:40:20.14Z</time></trkpt><trkpt lat="40.3522491" lon="15.0300957"><ele>285.0</ele><time>2026-03-29T07:40:21.155Z</time></trkpt><trkpt lat="40.3522752" lon="15.0298962"><ele>285.0</ele><time>2026-03-29T07:40:22.177Z</time></trkpt><trkpt lat="40.3523088" lon="15.0297165"><ele>285.25</ele><time>2026-03-29T07:40:23.167Z</time></trkpt><trkpt lat="40.3523465" lon="15.0295421"><ele>285.5</ele><time>2026-03-29T07:40:24.195Z</time></trkpt><trkpt lat="40.3523829" lon="15.0293853"><ele>285.75</ele><time>2026-03-29T07:40:25.163Z</time></trkpt><trkpt lat="40.3524149" lon="15.0292466"><ele>286.0</ele><time>2026-03-29T07:40:26.191Z</time></trkpt><trkpt lat="40.3524442" lon="15.0291307"><ele>284.2</ele><time>2026-03-29T07:40:27.295Z</time></trkpt><trkpt lat="40.3524777" lon="15.0290032"><ele>282.40000000000003</ele><time>2026-03-29T07:40:29.193Z</time></trkpt><trkpt lat="40.3524831" lon="15.0288981"><ele>280.6</ele><time>2026-03-29T07:40:31.15Z</time></trkpt><trkpt lat="40.3524694" lon="15.0287812"><ele>278.8</ele><time>2026-03-29T07:40:33.138Z</time></trkpt><trkpt lat="40.3524253" lon="15.0286567"><ele>277.0</ele><time>2026-03-29T07:40:35.13Z</time></trkpt><trkpt lat="40.3523827" lon="15.0285628"><ele>277.0</ele><time>2026-03-29T07:40:37.143Z</time></trkpt><trkpt lat="40.3523884" lon="15.0286456"><ele>277.0</ele><time>2026-03-29T07:40:46.156Z</time></trkpt><trkpt lat="40.3524351" lon="15.028738"><ele>277.0</ele><time>2026-03-29T07:40:48.135Z</time></trkpt><trkpt lat="40.3524591" lon="15.0288732"><ele>277.0</ele><time>2026-03-29T07:40:50.115Z</time></trkpt><trkpt lat="40.3524343" lon="15.0290473"><ele>277.0</ele><time>2026-03-29T07:40:52.129Z</time></trkpt><trkpt lat="40.3524074" lon="15.0291752"><ele>279.25</ele><time>2026-03-29T07:40:53.147Z</time></trkpt><trkpt lat="40.3523755" lon="15.0293138"><ele>281.5</ele><time>2026-03-29T07:40:54.135Z</time></trkpt><trkpt lat="40.352341" lon="15.029463"><ele>283.75</ele><time>2026-03-29T07:40:55.147Z</time></trkpt><trkpt lat="40.3523063" lon="15.0296268"><ele>286.0</ele><time>2026-03-29T07:40:56.152Z</time></trkpt><trkpt lat="40.3522745" lon="15.0297901"><ele>286.0</ele><time>2026-03-29T07:40:57.142Z</time></trkpt><trkpt lat="40.35224" lon="15.029974"><ele>286.0</ele><time>2026-03-29T07:40:58.178Z</time></trkpt><trkpt lat="40.3522138" lon="15.0301511"><ele>286.0</ele><time>2026-03-29T07:40:59.156Z</time></trkpt><trkpt lat="40.3521956" lon="15.0303249"><ele>286.0</ele><time>2026-03-29T07:41:00.157Z</time></trkpt><trkpt lat="40.352178" lon="15.0305107"><ele>284.0</ele><time>2026-03-29T07:41:01.141Z</time></trkpt><trkpt lat="40.3521588" lon="15.0307202"><ele>282.0</ele><time>2026-03-29T07:41:02.168Z</time></trkpt><trkpt lat="40.3521435" lon="15.0309207"><ele>280.0</ele><time>2026-03-29T07:41:03.281Z</time></trkpt><trkpt lat="40.3521445" lon="15.0311905"><ele>280.0</ele><time>2026-03-29T07:41:05.188Z</time></trkpt><trkpt lat="40.3521648" lon="15.0313215"><ele>280.0</ele><time>2026-03-29T07:41:06.244Z</time></trkpt><trkpt lat="40.3521858" lon="15.031421"><ele>280.0</ele><time>2026-03-29T07:41:07.155Z</time></trkpt><trkpt lat="40.352208" lon="15.0315197"><ele>280.0</ele><time>2026-03-29T07:41:08.192Z</time></trkpt><trkpt lat="40.3522264" lon="15.0316091"><ele>280.0</ele><time>2026-03-29T07:41:09.15Z</time></trkpt><trkpt lat="40.3522636" lon="15.0317202"><ele>280.0</ele><time>2026-03-29T07:41:11.145Z</time></trkpt><trkpt lat="40.3523532" lon="15.0318016"><ele>284.2</ele><time>2026-03-29T07:41:13.147Z</time></trkpt><trkpt lat="40.3524261" lon="15.0318222"><ele>288.4</ele><time>2026-03-29T07:41:14.145Z</time></trkpt><trkpt lat="40.3525209" lon="15.0318501"><ele>292.6</ele><time>2026-03-29T07:41:15.182Z</time></trkpt><trkpt lat="40.3526161" lon="15.031899"><ele>296.8</ele><time>2026-03-29T07:41:16.161Z</time></trkpt><trkpt lat="40.3527209" lon="15.0319793"><ele>301.0</ele><time>2026-03-29T07:41:17.121Z</time></trkpt><trkpt lat="40.3528232" lon="15.0320861"><ele>301.0</ele><time>2026-03-29T07:41:18.142Z</time></trkpt><trkpt lat="40.352937" lon="15.0322121"><ele>301.0</ele><time>2026-03-29T07:41:19.228Z</time></trkpt><trkpt lat="40.3531397" lon="15.032428"><ele>301.0</ele><time>2026-03-29T07:41:21.158Z</time></trkpt><trkpt lat="40.3532301" lon="15.0325293"><ele>300.8</ele><time>2026-03-29T07:41:22.161Z</time></trkpt><trkpt lat="40.353305" lon="15.0326227"><ele>300.6</ele><time>2026-03-29T07:41:23.113Z</time></trkpt><trkpt lat="40.3533835" lon="15.0327275"><ele>300.4</ele><time>2026-03-29T07:41:24.144Z</time></trkpt><trkpt lat="40.353453" lon="15.0328131"><ele>300.2</ele><time>2026-03-29T07:41:25.132Z</time></trkpt><trkpt lat="40.3535252" lon="15.0328871"><ele>300.0</ele><time>2026-03-29T07:41:26.138Z</time></trkpt><trkpt lat="40.3536059" lon="15.0329485"><ele>300.0</ele><time>2026-03-29T07:41:27.16Z</time></trkpt><trkpt lat="40.3536866" lon="15.0330034"><ele>300.0</ele><time>2026-03-29T07:41:28.138Z</time></trkpt><trkpt lat="40.353777" lon="15.0330655"><ele>300.0</ele><time>2026-03-29T07:41:29.131Z</time></trkpt><trkpt lat="40.3538561" lon="15.0331251"><ele>300.0</ele><time>2026-03-29T07:41:30.116Z</time></trkpt><trkpt lat="40.3539328" lon="15.0331811"><ele>300.0</ele><time>2026-03-29T07:41:31.126Z</time></trkpt><trkpt lat="40.3540025" lon="15.0332287"><ele>300.1666666666667</ele><time>2026-03-29T07:41:32.108Z</time></trkpt><trkpt lat="40.3540673" lon="15.0332774"><ele>300.3333333333333</ele><time>2026-03-29T07:41:33.112Z</time></trkpt><trkpt lat="40.3541252" lon="15.0333178"><ele>300.5</ele><time>2026-03-29T07:41:34.12Z</time></trkpt><trkpt lat="40.3542211" lon="15.0333786"><ele>300.66666666666663</ele><time>2026-03-29T07:41:36.112Z</time></trkpt><trkpt lat="40.3542997" lon="15.0334262"><ele>300.8333333333333</ele><time>2026-03-29T07:41:38.117Z</time></trkpt><trkpt lat="40.3543608" lon="15.0334565"><ele>301.0</ele><time>2026-03-29T07:41:47.131Z</time></trkpt><trkpt lat="40.3543108" lon="15.0333713"><ele>300.8</ele><time>2026-03-29T07:41:53.143Z</time></trkpt><trkpt lat="40.354182" lon="15.0332873"><ele>300.6</ele><time>2026-03-29T07:41:55.118Z</time></trkpt><trkpt lat="40.3541008" lon="15.0332341"><ele>300.4</ele><time>2026-03-29T07:41:56.137Z</time></trkpt><trkpt lat="40.3540136" lon="15.0331783"><ele>300.2</ele><time>2026-03-29T07:41:57.154Z</time></trkpt><trkpt lat="40.3539132" lon="15.0331206"><ele>300.0</ele><time>2026-03-29T07:41:58.139Z</time></trkpt><trkpt lat="40.3537941" lon="15.0330524"><ele>300.0</ele><time>2026-03-29T07:41:59.163Z</time></trkpt><trkpt lat="40.3536684" lon="15.0329769"><ele>300.0</ele><time>2026-03-29T07:42:00.115Z</time></trkpt><trkpt lat="40.35354" lon="15.0328813"><ele>300.0</ele><time>2026-03-29T07:42:01.132Z</time></trkpt><trkpt lat="40.3534335" lon="15.0327707"><ele>300.0</ele><time>2026-03-29T07:42:02.171Z</time></trkpt><trkpt lat="40.3533458" lon="15.0326515"><ele>300.0</ele><time>2026-03-29T07:42:03.136Z</time></trkpt><trkpt lat="40.353257" lon="15.0325263"><ele>300.0</ele><time>2026-03-29T07:42:04.106Z</time></trkpt><trkpt lat="40.3531601" lon="15.0324021"><ele>300.0</ele><time>2026-03-29T07:42:05.135Z</time></trkpt><trkpt lat="40.3530638" lon="15.0322902"><ele>300.0</ele><time>2026-03-29T07:42:06.166Z</time></trkpt><trkpt lat="40.3529766" lon="15.0321926"><ele>300.2</ele><time>2026-03-29T07:42:07.126Z</time></trkpt><trkpt lat="40.3528958" lon="15.0320989"><ele>300.4</ele><time>2026-03-29T07:42:08.141Z</time></trkpt><trkpt lat="40.3528194" lon="15.0320142"><ele>300.6</ele><time>2026-03-29T07:42:09.159Z</time></trkpt><trkpt lat="40.3527417" lon="15.0319357"><ele>300.8</ele><time>2026-03-29T07:42:10.15Z</time></trkpt><trkpt lat="40.3526639" lon="15.0318629"><ele>301.0</ele><time>2026-03-29T07:42:11.168Z</time></trkpt><trkpt lat="40.3525908" lon="15.0318113"><ele>301.0</ele><time>2026-03-29T07:42:12.157Z</time></trkpt><trkpt lat="40.352519" lon="15.0317801"><ele>301.0</ele><time>2026-03-29T07:42:13.157Z</time></trkpt><trkpt lat="40.3524528" lon="15.0317649"><ele>301.0</ele><time>2026-03-29T07:42:14.127Z</time></trkpt><trkpt lat="40.3523691" lon="15.031728"><ele>301.0</ele><time>2026-03-29T07:42:16.15Z</time></trkpt><trkpt lat="40.3524226" lon="15.0316435"><ele>301.0</ele><time>2026-03-29T07:42:22.145Z</time></trkpt><trkpt lat="40.3525075" lon="15.0315627"><ele>301.0</ele><time>2026-03-29T07:42:24.225Z</time></trkpt><trkpt lat="40.3525569" lon="15.0315053"><ele>299.3333333333333</ele><time>2026-03-29T07:42:25.219Z</time></trkpt><trkpt lat="40.3526065" lon="15.0314409"><ele>297.66666666666663</ele><time>2026-03-29T07:42:26.22Z</time></trkpt><trkpt lat="40.3526561" lon="15.031371"><ele>296.0</ele><time>2026-03-29T07:42:27.201Z</time></trkpt><trkpt lat="40.3527144" lon="15.0313005"><ele>294.3333333333333</ele><time>2026-03-29T07:42:28.224Z</time></trkpt><trkpt lat="40.3527786" lon="15.0312403"><ele>292.6666666666667</ele><time>2026-03-29T07:42:29.194Z</time></trkpt><trkpt lat="40.3528548" lon="15.0311856"><ele>291.0</ele><time>2026-03-29T07:42:30.259Z</time></trkpt><trkpt lat="40.3529294" lon="15.0311422"><ele>291.0</ele><time>2026-03-29T07:42:31.207Z</time></trkpt><trkpt lat="40.3530155" lon="15.0310984"><ele>291.0</ele><time>2026-03-29T07:42:32.205Z</time></trkpt><trkpt lat="40.3531002" lon="15.0310448"><ele>291.0</ele><time>2026-03-29T07:42:33.194Z</time></trkpt><trkpt lat="40.3531852" lon="15.0309841"><ele>291.0</ele><time>2026-03-29T07:42:34.193Z</time></trkpt><trkpt lat="40.3532704" lon="15.0309163"><ele>291.0</ele><time>2026-03-29T07:42:35.229Z</time></trkpt><trkpt lat="40.3533454" lon="15.0308581"><ele>287.3333333333333</ele><time>2026-03-29T07:42:36.162Z</time></trkpt><trkpt lat="40.353423" lon="15.0308001"><ele>283.6666666666667</ele><time>2026-03-29T07:42:37.154Z</time></trkpt><trkpt lat="40.3534951" lon="15.0307378"><ele>280.0</ele><time>2026-03-29T07:42:38.138Z</time></trkpt><trkpt lat="40.3535606" lon="15.0306629"><ele>276.33333333333337</ele><time>2026-03-29T07:42:39.137Z</time></trkpt><trkpt lat="40.3536184" lon="15.0305749"><ele>272.6666666666667</ele><time>2026-03-29T07:42:40.146Z</time></trkpt><trkpt lat="40.3536764" lon="15.0304886"><ele>269.0</ele><time>2026-03-29T07:42:41.154Z</time></trkpt><trkpt lat="40.3537336" lon="15.0304095"><ele>269.0</ele><time>2026-03-29T07:42:42.133Z</time></trkpt><trkpt lat="40.3537951" lon="15.0303318"><ele>269.0</ele><time>2026-03-29T07:42:43.166Z</time></trkpt><trkpt lat="40.3538495" lon="15.0302542"><ele>269.0</ele><time>2026-03-29T07:42:44.14Z</time></trkpt><trkpt lat="40.353905" lon="15.0301786"><ele>269.0</ele><time>2026-03-29T07:42:45.135Z</time></trkpt><trkpt lat="40.3539585" lon="15.0301084"><ele>269.0</ele><time>2026-03-29T07:42:46.121Z</time></trkpt><trkpt lat="40.3540088" lon="15.0300483"><ele>269.0</ele><time>2026-03-29T07:42:47.134Z</time></trkpt><trkpt lat="40.3540741" lon="15.029936"><ele>264.83333333333337</ele><time>2026-03-29T07:42:49.154Z</time></trkpt><trkpt lat="40.354068" lon="15.0298064"><ele>260.6666666666667</ele><time>2026-03-29T07:42:51.153Z</time></trkpt><trkpt lat="40.354049" lon="15.0297233"><ele>256.5</ele><time>2026-03-29T07:42:52.131Z</time></trkpt><trkpt lat="40.3540275" lon="15.0296309"><ele>252.33333333333331</ele><time>2026-03-29T07:42:53.139Z</time></trkpt><trkpt lat="40.354006" lon="15.0295306"><ele>248.16666666666666</ele><time>2026-03-29T07:42:54.159Z</time></trkpt><trkpt lat="40.3539873" lon="15.0294303"><ele>244.0</ele><time>2026-03-29T07:42:55.175Z</time></trkpt><trkpt lat="40.3539699" lon="15.0293417"><ele>244.0</ele><time>2026-03-29T07:42:56.135Z</time></trkpt><trkpt lat="40.353947" lon="15.0292548"><ele>243.99999999999997</ele><time>2026-03-29T07:42:57.145Z</time></trkpt><trkpt lat="40.353932" lon="15.0291723"><ele>243.99999999999997</ele><time>2026-03-29T07:42:58.14Z</time></trkpt><trkpt lat="40.35394" lon="15.0290231"><ele>244.0</ele><time>2026-03-29T07:43:00.139Z</time></trkpt><trkpt lat="40.3540087" lon="15.0288856"><ele>244.0</ele><time>2026-03-29T07:43:02.251Z</time></trkpt><trkpt lat="40.354089" lon="15.0287772"><ele>241.99999999999997</ele><time>2026-03-29T07:43:04.154Z</time></trkpt><trkpt lat="40.3541306" lon="15.0287139"><ele>240.0</ele><time>2026-03-29T07:43:05.117Z</time></trkpt><trkpt lat="40.3541756" lon="15.0286353"><ele>238.0</ele><time>2026-03-29T07:43:06.118Z</time></trkpt><trkpt lat="40.354211" lon="15.0285519"><ele>236.0</ele><time>2026-03-29T07:43:07.13Z</time></trkpt><trkpt lat="40.3542333" lon="15.0283974"><ele>233.99999999999997</ele><time>2026-03-29T07:43:09.138Z</time></trkpt><trkpt lat="40.3541829" lon="15.0282695"><ele>232.0</ele><time>2026-03-29T07:43:11.153Z</time></trkpt><trkpt lat="40.3540924" lon="15.028177"><ele>229.0</ele><time>2026-03-29T07:43:13.149Z</time></trkpt><trkpt lat="40.3540042" lon="15.0280895"><ele>226.0</ele><time>2026-03-29T07:43:15.125Z</time></trkpt><trkpt lat="40.3539693" lon="15.0279563"><ele>223.0</ele><time>2026-03-29T07:43:17.134Z</time></trkpt><trkpt lat="40.3539945" lon="15.0277892"><ele>220.0</ele><time>2026-03-29T07:43:19.125Z</time></trkpt><trkpt lat="40.3540226" lon="15.0276887"><ele>217.0</ele><time>2026-03-29T07:43:20.124Z</time></trkpt><trkpt lat="40.3540475" lon="15.0275807"><ele>216.99999999999997</ele><time>2026-03-29T07:43:21.22Z</time></trkpt><trkpt lat="40.3540563" lon="15.0274923"><ele>217.0</ele><time>2026-03-29T07:43:22.134Z</time></trkpt><trkpt lat="40.3540496" lon="15.0273937"><ele>217.0</ele><time>2026-03-29T07:43:23.145Z</time></trkpt><trkpt lat="40.3540265" lon="15.0272894"><ele>217.0</ele><time>2026-03-29T07:43:24.126Z</time></trkpt><trkpt lat="40.3539952" lon="15.0271862"><ele>216.99999999999997</ele><time>2026-03-29T07:43:25.115Z</time></trkpt><trkpt lat="40.353971" lon="15.0270786"><ele>217.0</ele><time>2026-03-29T07:43:26.104Z</time></trkpt><trkpt lat="40.3539583" lon="15.0269802"><ele>214.39999999999998</ele><time>2026-03-29T07:43:27.129Z</time></trkpt><trkpt lat="40.3539499" lon="15.0268913"><ele>211.79999999999998</ele><time>2026-03-29T07:43:28.122Z</time></trkpt><trkpt lat="40.3539182" lon="15.026755"><ele>209.2</ele><time>2026-03-29T07:43:30.121Z</time></trkpt><trkpt lat="40.3538629" lon="15.0266437"><ele>206.6</ele><time>2026-03-29T07:43:32.131Z</time></trkpt><trkpt lat="40.3537798" lon="15.0265321"><ele>204.0</ele><time>2026-03-29T07:43:34.124Z</time></trkpt><trkpt lat="40.3536914" lon="15.0264416"><ele>203.66666666666666</ele><time>2026-03-29T07:43:36.164Z</time></trkpt><trkpt lat="40.3536077" lon="15.0263563"><ele>203.33333333333331</ele><time>2026-03-29T07:43:38.151Z</time></trkpt><trkpt lat="40.3535185" lon="15.0262538"><ele>203.0</ele><time>2026-03-29T07:43:40.124Z</time></trkpt><trkpt lat="40.3534598" lon="15.0261884"><ele>202.66666666666666</ele><time>2026-03-29T07:43:41.23Z</time></trkpt><trkpt lat="40.3534105" lon="15.0261336"><ele>202.33333333333331</ele><time>2026-03-29T07:43:42.131Z</time></trkpt><trkpt lat="40.3533534" lon="15.0260686"><ele>202.0</ele><time>2026-03-29T07:43:43.152Z</time></trkpt><trkpt lat="40.3532963" lon="15.0260054"><ele>201.99999999999997</ele><time>2026-03-29T07:43:44.131Z</time></trkpt><trkpt lat="40.3532359" lon="15.0259418"><ele>202.0</ele><time>2026-03-29T07:43:45.125Z</time></trkpt><trkpt lat="40.3531741" lon="15.0258784"><ele>202.0</ele><time>2026-03-29T07:43:46.116Z</time></trkpt><trkpt lat="40.3531101" lon="15.025812"><ele>202.0</ele><time>2026-03-29T07:43:47.129Z</time></trkpt><trkpt lat="40.3530458" lon="15.0257496"><ele>201.99999999999997</ele><time>2026-03-29T07:43:48.11Z</time></trkpt><trkpt lat="40.3529766" lon="15.0256896"><ele>202.0</ele><time>2026-03-29T07:43:49.134Z</time></trkpt><trkpt lat="40.3529147" lon="15.0256328"><ele>200.16666666666666</ele><time>2026-03-29T07:43:50.122Z</time></trkpt><trkpt lat="40.3528575" lon="15.0255726"><ele>198.33333333333331</ele><time>2026-03-29T07:43:51.123Z</time></trkpt><trkpt lat="40.352801" lon="15.0255119"><ele>196.5</ele><time>2026-03-29T07:43:52.138Z</time></trkpt><trkpt lat="40.3527494" lon="15.0254493"><ele>194.66666666666666</ele><time>2026-03-29T07:43:53.136Z</time></trkpt><trkpt lat="40.3526963" lon="15.025392"><ele>192.83333333333331</ele><time>2026-03-29T07:43:54.133Z</time></trkpt><trkpt lat="40.3526464" lon="15.0253397"><ele>191.0</ele><time>2026-03-29T07:43:55.12Z</time></trkpt><trkpt lat="40.3525666" lon="15.0252379"><ele>191.0</ele><time>2026-03-29T07:43:57.137Z</time></trkpt><trkpt lat="40.3525057" lon="15.0251317"><ele>191.0</ele><time>2026-03-29T07:43:59.124Z</time></trkpt><trkpt lat="40.352476" lon="15.0249978"><ele>191.0</ele><time>2026-03-29T07:44:01.139Z</time></trkpt><trkpt lat="40.3524853" lon="15.0248559"><ele>191.0</ele><time>2026-03-29T07:44:03.125Z</time></trkpt><trkpt lat="40.3524989" lon="15.0247012"><ele>191.0</ele><time>2026-03-29T07:44:05.131Z</time></trkpt><trkpt lat="40.3524948" lon="15.0246186"><ele>188.16666666666666</ele><time>2026-03-29T07:44:06.129Z</time></trkpt><trkpt lat="40.3524926" lon="15.0245352"><ele>185.33333333333331</ele><time>2026-03-29T07:44:07.113Z</time></trkpt><trkpt lat="40.3524881" lon="15.0244523"><ele>182.5</ele><time>2026-03-29T07:44:08.129Z</time></trkpt><trkpt lat="40.3524821" lon="15.0243686"><ele>179.66666666666666</ele><time>2026-03-29T07:44:09.152Z</time></trkpt><trkpt lat="40.3524707" lon="15.0242118"><ele>176.83333333333334</ele><time>2026-03-29T07:44:11.136Z</time></trkpt><trkpt lat="40.3524614" lon="15.0240627"><ele>174.0</ele><time>2026-03-29T07:44:13.113Z</time></trkpt><trkpt lat="40.3524604" lon="15.0239148"><ele>171.0</ele><time>2026-03-29T07:44:15.151Z</time></trkpt><trkpt lat="40.3524775" lon="15.0237759"><ele>168.0</ele><time>2026-03-29T07:44:17.132Z</time></trkpt><trkpt lat="40.3524852" lon="15.0236827"><ele>165.0</ele><time>2026-03-29T07:44:18.121Z</time></trkpt><trkpt lat="40.3524878" lon="15.0235414"><ele>162.0</ele><time>2026-03-29T07:44:20.137Z</time></trkpt><trkpt lat="40.3524175" lon="15.0233745"><ele>159.0</ele><time>2026-03-29T07:44:23.124Z</time></trkpt><trkpt lat="40.3523516" lon="15.0232668"><ele>158.33333333333334</ele><time>2026-03-29T07:44:25.132Z</time></trkpt><trkpt lat="40.3522927" lon="15.0231776"><ele>157.66666666666666</ele><time>2026-03-29T07:44:27.109Z</time></trkpt><trkpt lat="40.3522178" lon="15.0230739"><ele>157.0</ele><time>2026-03-29T07:44:29.122Z</time></trkpt><trkpt lat="40.3521576" lon="15.0229845"><ele>156.33333333333331</ele><time>2026-03-29T07:44:31.136Z</time></trkpt><trkpt lat="40.3521401" lon="15.0228985"><ele>155.66666666666666</ele><time>2026-03-29T07:44:33.123Z</time></trkpt><trkpt lat="40.3522151" lon="15.0228526"><ele>155.0</ele><time>2026-03-29T07:44:36.125Z</time></trkpt><trkpt lat="40.352142" lon="15.0227017"><ele>155.0</ele><time>2026-03-29T07:44:50.124Z</time></trkpt><trkpt lat="40.3521397" lon="15.0226183"><ele>155.0</ele><time>2026-03-29T07:44:57.127Z</time></trkpt><trkpt lat="40.3521795" lon="15.0225404"><ele>155.0</ele><time>2026-03-29T07:45:04.125Z</time></trkpt><trkpt lat="40.3522199" lon="15.0224736"><ele>155.0</ele><time>2026-03-29T07:45:08.139Z</time></trkpt><trkpt lat="40.3522614" lon="15.0224065"><ele>155.0</ele><time>2026-03-29T07:45:11.13Z</time></trkpt><trkpt lat="40.3522966" lon="15.0223276"><ele>155.0</ele><time>2026-03-29T07:45:13.141Z</time></trkpt><trkpt lat="40.3523465" lon="15.0222357"><ele>155.0</ele><time>2026-03-29T07:45:15.141Z</time></trkpt><trkpt lat="40.3523927" lon="15.0221462"><ele>149.4</ele><time>2026-03-29T07:45:17.134Z</time></trkpt><trkpt lat="40.3524432" lon="15.0220481"><ele>143.8</ele><time>2026-03-29T07:45:19.145Z</time></trkpt><trkpt lat="40.3525045" lon="15.0219221"><ele>138.2</ele><time>2026-03-29T07:45:21.144Z</time></trkpt><trkpt lat="40.3525675" lon="15.0217937"><ele>132.6</ele><time>2026-03-29T07:45:23.127Z</time></trkpt><trkpt lat="40.3526475" lon="15.0216823"><ele>127.0</ele><time>2026-03-29T07:45:25.13Z</time></trkpt><trkpt lat="40.3527418" lon="15.0215772"><ele>125.50000000000001</ele><time>2026-03-29T07:45:27.139Z</time></trkpt><trkpt lat="40.3528355" lon="15.0214637"><ele>124.0</ele><time>2026-03-29T07:45:29.133Z</time></trkpt><trkpt lat="40.3528865" lon="15.0214113"><ele>122.5</ele><time>2026-03-29T07:45:30.133Z</time></trkpt><trkpt lat="40.3529413" lon="15.0213594"><ele>121.0</ele><time>2026-03-29T07:45:31.138Z</time></trkpt><trkpt lat="40.3529969" lon="15.0213133"><ele>119.50000000000001</ele><time>2026-03-29T07:45:32.144Z</time></trkpt><trkpt lat="40.3530539" lon="15.02127"><ele>118.0</ele><time>2026-03-29T07:45:33.13Z</time></trkpt><trkpt lat="40.353113" lon="15.0212311"><ele>115.83333333333334</ele><time>2026-03-29T07:45:34.128Z</time></trkpt><trkpt lat="40.3531722" lon="15.0211948"><ele>113.66666666666667</ele><time>2026-03-29T07:45:35.134Z</time></trkpt><trkpt lat="40.3532375" lon="15.021158"><ele>111.5</ele><time>2026-03-29T07:45:36.131Z</time></trkpt><trkpt lat="40.3533384" lon="15.0211029"><ele>109.33333333333334</ele><time>2026-03-29T07:45:38.145Z</time></trkpt><trkpt lat="40.353395" lon="15.021043"><ele>107.16666666666667</ele><time>2026-03-29T07:45:40.135Z</time></trkpt><trkpt lat="40.3534032" lon="15.0209203"><ele>105.0</ele><time>2026-03-29T07:45:43.145Z</time></trkpt><trkpt lat="40.3533411" lon="15.0207938"><ele>102.0</ele><time>2026-03-29T07:45:45.158Z</time></trkpt><trkpt lat="40.3532576" lon="15.0206433"><ele>99.0</ele><time>2026-03-29T07:45:47.133Z</time></trkpt><trkpt lat="40.3532063" lon="15.0205501"><ele>96.0</ele><time>2026-03-29T07:45:48.133Z</time></trkpt><trkpt lat="40.3531632" lon="15.0204711"><ele>93.0</ele><time>2026-03-29T07:45:49.147Z</time></trkpt><trkpt lat="40.3531048" lon="15.020362"><ele>90.0</ele><time>2026-03-29T07:45:51.132Z</time></trkpt><trkpt lat="40.3530791" lon="15.0202837"><ele>90.0</ele><time>2026-03-29T07:45:53.14Z</time></trkpt><trkpt lat="40.3531071" lon="15.0202081"><ele>90.0</ele><time>2026-03-29T07:45:55.15Z</time></trkpt><trkpt lat="40.3531738" lon="15.0201259"><ele>90.0</ele><time>2026-03-29T07:45:57.125Z</time></trkpt><trkpt lat="40.3532599" lon="15.0200237"><ele>90.0</ele><time>2026-03-29T07:45:59.138Z</time></trkpt><trkpt lat="40.3533512" lon="15.0199187"><ele>90.0</ele><time>2026-03-29T07:46:01.136Z</time></trkpt><trkpt lat="40.3534368" lon="15.0198126"><ele>86.0</ele><time>2026-03-29T07:46:03.119Z</time></trkpt><trkpt lat="40.3535226" lon="15.0197088"><ele>82.0</ele><time>2026-03-29T07:46:05.124Z</time></trkpt><trkpt lat="40.3536033" lon="15.0196085"><ele>78.0</ele><time>2026-03-29T07:46:07.132Z</time></trkpt><trkpt lat="40.353684" lon="15.0194976"><ele>74.0</ele><time>2026-03-29T07:46:09.133Z</time></trkpt><trkpt lat="40.353757" lon="15.019388"><ele>74.0</ele><time>2026-03-29T07:46:11.136Z</time></trkpt><trkpt lat="40.3538307" lon="15.0192894"><ele>74.0</ele><time>2026-03-29T07:46:13.13Z</time></trkpt><trkpt lat="40.3539104" lon="15.0191948"><ele>74.0</ele><time>2026-03-29T07:46:15.123Z</time></trkpt><trkpt lat="40.3539933" lon="15.0191116"><ele>74.0</ele><time>2026-03-29T07:46:17.143Z</time></trkpt><trkpt lat="40.3540792" lon="15.0190596"><ele>74.0</ele><time>2026-03-29T07:46:19.153Z</time></trkpt><trkpt lat="40.3541474" lon="15.0190782"><ele>71.8</ele><time>2026-03-29T07:46:21.122Z</time></trkpt><trkpt lat="40.3542478" lon="15.019215"><ele>69.60000000000001</ele><time>2026-03-29T07:46:24.138Z</time></trkpt><trkpt lat="40.3542952" lon="15.019283"><ele>67.4</ele><time>2026-03-29T07:46:25.128Z</time></trkpt><trkpt lat="40.354355" lon="15.0193514"><ele>65.2</ele><time>2026-03-29T07:46:26.138Z</time></trkpt><trkpt lat="40.3544308" lon="15.0194195"><ele>63.0</ele><time>2026-03-29T07:46:27.138Z</time></trkpt><trkpt lat="40.354518" lon="15.0194866"><ele>63.0</ele><time>2026-03-29T07:46:28.147Z</time></trkpt><trkpt lat="40.3545953" lon="15.0195506"><ele>63.0</ele><time>2026-03-29T07:46:29.125Z</time></trkpt><trkpt lat="40.3546677" lon="15.0196116"><ele>63.0</ele><time>2026-03-29T07:46:30.134Z</time></trkpt><trkpt lat="40.3547309" lon="15.0196637"><ele>63.0</ele><time>2026-03-29T07:46:31.145Z</time></trkpt><trkpt lat="40.3548257" lon="15.0197302"><ele>63.0</ele><time>2026-03-29T07:46:33.131Z</time></trkpt><trkpt lat="40.354902" lon="15.0197204"><ele>63.0</ele><time>2026-03-29T07:46:35.153Z</time></trkpt><trkpt lat="40.3550044" lon="15.0196247"><ele>62.0</ele><time>2026-03-29T07:46:37.144Z</time></trkpt><trkpt lat="40.3550731" lon="15.0195595"><ele>61.0</ele><time>2026-03-29T07:46:38.156Z</time></trkpt><trkpt lat="40.3551581" lon="15.0194825"><ele>60.0</ele><time>2026-03-29T07:46:39.309Z</time></trkpt><trkpt lat="40.3552841" lon="15.0193478"><ele>59.0</ele><time>2026-03-29T07:46:41.176Z</time></trkpt><trkpt lat="40.3553566" lon="15.0192547"><ele>59.0</ele><time>2026-03-29T07:46:43.147Z</time></trkpt><trkpt lat="40.3553466" lon="15.0191525"><ele>59.00000000000001</ele><time>2026-03-29T07:46:47.12Z</time></trkpt><trkpt lat="40.3552828" lon="15.0190149"><ele>59.00000000000001</ele><time>2026-03-29T07:46:49.128Z</time></trkpt><trkpt lat="40.3552415" lon="15.0189279"><ele>59.0</ele><time>2026-03-29T07:46:50.138Z</time></trkpt><trkpt lat="40.3551829" lon="15.0188128"><ele>59.0</ele><time>2026-03-29T07:46:51.132Z</time></trkpt><trkpt lat="40.3551099" lon="15.0186737"><ele>59.0</ele><time>2026-03-29T07:46:52.13Z</time></trkpt><trkpt lat="40.3550362" lon="15.0185258"><ele>59.0</ele><time>2026-03-29T07:46:53.136Z</time></trkpt><trkpt lat="40.3549533" lon="15.018365"><ele>59.0</ele><time>2026-03-29T07:46:54.14Z</time></trkpt><trkpt lat="40.3548683" lon="15.0181961"><ele>59.0</ele><time>2026-03-29T07:46:55.135Z</time></trkpt><trkpt lat="40.3547774" lon="15.0180132"><ele>58.0</ele><time>2026-03-29T07:46:56.167Z</time></trkpt><trkpt lat="40.3546934" lon="15.017843"><ele>57.0</ele><time>2026-03-29T07:46:57.143Z</time></trkpt><trkpt lat="40.3546121" lon="15.0176784"><ele>56.0</ele><time>2026-03-29T07:46:58.139Z</time></trkpt><trkpt lat="40.3545288" lon="15.017519"><ele>56.66666666666667</ele><time>2026-03-29T07:46:59.131Z</time></trkpt><trkpt lat="40.3544282" lon="15.0173507"><ele>57.33333333333333</ele><time>2026-03-29T07:47:00.177Z</time></trkpt><trkpt lat="40.354305" lon="15.0171752"><ele>58.0</ele><time>2026-03-29T07:47:01.266Z</time></trkpt><trkpt lat="40.3541843" lon="15.0170251"><ele>58.0</ele><time>2026-03-29T07:47:02.174Z</time></trkpt><trkpt lat="40.3540534" lon="15.0168764"><ele>58.0</ele><time>2026-03-29T07:47:03.133Z</time></trkpt><trkpt lat="40.3539104" lon="15.0167253"><ele>58.0</ele><time>2026-03-29T07:47:04.112Z</time></trkpt><trkpt lat="40.3537526" lon="15.0165624"><ele>57.666666666666664</ele><time>2026-03-29T07:47:05.168Z</time></trkpt><trkpt lat="40.353599" lon="15.0163965"><ele>57.33333333333333</ele><time>2026-03-29T07:47:06.212Z</time></trkpt><trkpt lat="40.3534714" lon="15.0162556"><ele>57.0</ele><time>2026-03-29T07:47:07.133Z</time></trkpt><trkpt lat="40.3533337" lon="15.0161053"><ele>57.0</ele><time>2026-03-29T07:47:08.156Z</time></trkpt><trkpt lat="40.3531997" lon="15.0159612"><ele>57.0</ele><time>2026-03-29T07:47:09.162Z</time></trkpt><trkpt lat="40.3530701" lon="15.015825"><ele>57.0</ele><time>2026-03-29T07:47:10.131Z</time></trkpt><trkpt lat="40.3529375" lon="15.0156797"><ele>54.33333333333333</ele><time>2026-03-29T07:47:11.158Z</time></trkpt><trkpt lat="40.3528102" lon="15.0155232"><ele>51.666666666666664</ele><time>2026-03-29T07:47:12.201Z</time></trkpt><trkpt lat="40.352692" lon="15.0153612"><ele>49.0</ele><time>2026-03-29T07:47:13.201Z</time></trkpt><trkpt lat="40.3525726" lon="15.0151844"><ele>49.0</ele><time>2026-03-29T07:47:14.233Z</time></trkpt><trkpt lat="40.3524638" lon="15.0150128"><ele>49.0</ele><time>2026-03-29T07:47:15.189Z</time></trkpt><trkpt lat="40.3523471" lon="15.0148239"><ele>49.0</ele><time>2026-03-29T07:47:16.206Z</time></trkpt><trkpt lat="40.352235" lon="15.0146326"><ele>47.666666666666664</ele><time>2026-03-29T07:47:17.216Z</time></trkpt><trkpt lat="40.3521264" lon="15.0144474"><ele>46.33333333333333</ele><time>2026-03-29T07:47:18.207Z</time></trkpt><trkpt lat="40.3520169" lon="15.0142541"><ele>45.0</ele><time>2026-03-29T07:47:19.214Z</time></trkpt><trkpt lat="40.3519069" lon="15.0140551"><ele>45.0</ele><time>2026-03-29T07:47:20.239Z</time></trkpt><trkpt lat="40.3517994" lon="15.01387"><ele>45.0</ele><time>2026-03-29T07:47:21.198Z</time></trkpt><trkpt lat="40.3516752" lon="15.0136732"><ele>45.0</ele><time>2026-03-29T07:47:22.218Z</time></trkpt><trkpt lat="40.3515427" lon="15.0134733"><ele>46.33333333333333</ele><time>2026-03-29T07:47:23.239Z</time></trkpt><trkpt lat="40.3514022" lon="15.0132759"><ele>47.666666666666664</ele><time>2026-03-29T07:47:24.241Z</time></trkpt><trkpt lat="40.3512588" lon="15.0130862"><ele>49.0</ele><time>2026-03-29T07:47:25.201Z</time></trkpt><trkpt lat="40.3511059" lon="15.0128854"><ele>46.666666666666664</ele><time>2026-03-29T07:47:26.209Z</time></trkpt><trkpt lat="40.3509569" lon="15.0126842"><ele>44.33333333333333</ele><time>2026-03-29T07:47:27.195Z</time></trkpt><trkpt lat="40.3508004" lon="15.0124713"><ele>42.0</ele><time>2026-03-29T07:47:28.233Z</time></trkpt><trkpt lat="40.3506378" lon="15.0122505"><ele>42.0</ele><time>2026-03-29T07:47:29.312Z</time></trkpt><trkpt lat="40.3503526" lon="15.0118673"><ele>42.0</ele><time>2026-03-29T07:47:31.195Z</time></trkpt><trkpt lat="40.3501998" lon="15.0116567"><ele>42.0</ele><time>2026-03-29T07:47:32.224Z</time></trkpt><trkpt lat="40.3500567" lon="15.0114534"><ele>42.0</ele><time>2026-03-29T07:47:33.211Z</time></trkpt><trkpt lat="40.3499085" lon="15.0112424"><ele>42.0</ele><time>2026-03-29T07:47:34.239Z</time></trkpt><trkpt lat="40.3497547" lon="15.0110267"><ele>40.0</ele><time>2026-03-29T07:47:35.302Z</time></trkpt><trkpt lat="40.3494928" lon="15.0106638"><ele>38.0</ele><time>2026-03-29T07:47:37.213Z</time></trkpt><trkpt lat="40.3493632" lon="15.0104824"><ele>38.0</ele><time>2026-03-29T07:47:38.193Z</time></trkpt><trkpt lat="40.349233" lon="15.0102981"><ele>38.0</ele><time>2026-03-29T07:47:39.198Z</time></trkpt><trkpt lat="40.3491127" lon="15.010126"><ele>38.0</ele><time>2026-03-29T07:47:40.185Z</time></trkpt><trkpt lat="40.3489896" lon="15.0099496"><ele>36.0</ele><time>2026-03-29T07:47:41.227Z</time></trkpt><trkpt lat="40.348873" lon="15.0097833"><ele>34.0</ele><time>2026-03-29T07:47:42.212Z</time></trkpt><trkpt lat="40.3487494" lon="15.0096134"><ele>32.0</ele><time>2026-03-29T07:47:43.26Z</time></trkpt><trkpt lat="40.3486361" lon="15.0094563"><ele>32.0</ele><time>2026-03-29T07:47:44.224Z</time></trkpt><trkpt lat="40.3485198" lon="15.0092898"><ele>32.0</ele><time>2026-03-29T07:47:45.224Z</time></trkpt><trkpt lat="40.348405" lon="15.0091279"><ele>32.0</ele><time>2026-03-29T07:47:46.225Z</time></trkpt><trkpt lat="40.3482936" lon="15.0089788"><ele>33.33333333333333</ele><time>2026-03-29T07:47:47.222Z</time></trkpt><trkpt lat="40.3481747" lon="15.0088345"><ele>34.666666666666664</ele><time>2026-03-29T07:47:48.235Z</time></trkpt><trkpt lat="40.348051" lon="15.0087005"><ele>36.0</ele><time>2026-03-29T07:47:49.259Z</time></trkpt><trkpt lat="40.3479339" lon="15.0085868"><ele>35.0</ele><time>2026-03-29T07:47:50.211Z</time></trkpt><trkpt lat="40.3477959" lon="15.008457"><ele>34.0</ele><time>2026-03-29T07:47:51.315Z</time></trkpt><trkpt lat="40.3476881" lon="15.0083491"><ele>33.0</ele><time>2026-03-29T07:47:52.216Z</time></trkpt><trkpt lat="40.3475743" lon="15.0082302"><ele>33.0</ele><time>2026-03-29T07:47:53.226Z</time></trkpt><trkpt lat="40.3474678" lon="15.0081131"><ele>33.0</ele><time>2026-03-29T07:47:54.223Z</time></trkpt><trkpt lat="40.3473646" lon="15.0079959"><ele>33.0</ele><time>2026-03-29T07:47:55.246Z</time></trkpt><trkpt lat="40.3472674" lon="15.0078888"><ele>33.0</ele><time>2026-03-29T07:47:56.227Z</time></trkpt><trkpt lat="40.3471736" lon="15.0077847"><ele>31.25</ele><time>2026-03-29T07:47:57.207Z</time></trkpt><trkpt lat="40.3470838" lon="15.0076732"><ele>29.5</ele><time>2026-03-29T07:47:58.217Z</time></trkpt><trkpt lat="40.3469918" lon="15.0075566"><ele>27.75</ele><time>2026-03-29T07:47:59.225Z</time></trkpt><trkpt lat="40.3469013" lon="15.0074403"><ele>26.0</ele><time>2026-03-29T07:48:00.189Z</time></trkpt><trkpt lat="40.3468093" lon="15.0073151"><ele>26.0</ele><time>2026-03-29T07:48:01.185Z</time></trkpt><trkpt lat="40.3467193" lon="15.0071833"><ele>26.0</ele><time>2026-03-29T07:48:02.203Z</time></trkpt><trkpt lat="40.3466347" lon="15.0070573"><ele>26.0</ele><time>2026-03-29T07:48:03.211Z</time></trkpt><trkpt lat="40.3465484" lon="15.0069318"><ele>26.0</ele><time>2026-03-29T07:48:04.208Z</time></trkpt><trkpt lat="40.3464465" lon="15.0067997"><ele>24.333333333333332</ele><time>2026-03-29T07:48:05.195Z</time></trkpt><trkpt lat="40.3463342" lon="15.006647"><ele>22.666666666666664</ele><time>2026-03-29T07:48:06.191Z</time></trkpt><trkpt lat="40.3462169" lon="15.0064695"><ele>21.0</ele><time>2026-03-29T07:48:07.197Z</time></trkpt><trkpt lat="40.3460964" lon="15.0062721"><ele>21.0</ele><time>2026-03-29T07:48:08.186Z</time></trkpt><trkpt lat="40.3459748" lon="15.0060767"><ele>21.0</ele><time>2026-03-29T07:48:09.188Z</time></trkpt><trkpt lat="40.3458586" lon="15.0058949"><ele>21.0</ele><time>2026-03-29T07:48:10.183Z</time></trkpt><trkpt lat="40.3457486" lon="15.0057163"><ele>21.666666666666668</ele><time>2026-03-29T07:48:11.189Z</time></trkpt><trkpt lat="40.3456473" lon="15.005543"><ele>22.333333333333336</ele><time>2026-03-29T07:48:12.196Z</time></trkpt><trkpt lat="40.3455462" lon="15.0053711"><ele>23.0</ele><time>2026-03-29T07:48:13.248Z</time></trkpt><trkpt lat="40.3454537" lon="15.005203"><ele>21.333333333333336</ele><time>2026-03-29T07:48:14.261Z</time></trkpt><trkpt lat="40.3453721" lon="15.00504"><ele>19.666666666666668</ele><time>2026-03-29T07:48:15.255Z</time></trkpt><trkpt lat="40.3452879" lon="15.0048578"><ele>18.0</ele><time>2026-03-29T07:48:16.35Z</time></trkpt><trkpt lat="40.3451318" lon="15.0045045"><ele>18.0</ele><time>2026-03-29T07:48:18.335Z</time></trkpt><trkpt lat="40.3450613" lon="15.00434"><ele>18.0</ele><time>2026-03-29T07:48:19.239Z</time></trkpt><trkpt lat="40.3449964" lon="15.0041792"><ele>18.0</ele><time>2026-03-29T07:48:20.145Z</time></trkpt><trkpt lat="40.3449226" lon="15.0039911"><ele>18.0</ele><time>2026-03-29T07:48:21.168Z</time></trkpt><trkpt lat="40.3448436" lon="15.0037803"><ele>16.0</ele><time>2026-03-29T07:48:22.267Z</time></trkpt><trkpt lat="40.3447094" lon="15.0034033"><ele>14.0</ele><time>2026-03-29T07:48:24.182Z</time></trkpt><trkpt lat="40.3446422" lon="15.003217"><ele>13.5</ele><time>2026-03-29T07:48:25.178Z</time></trkpt><trkpt lat="40.3445809" lon="15.0030534"><ele>13.0</ele><time>2026-03-29T07:48:26.102Z</time></trkpt><trkpt lat="40.3445222" lon="15.002887"><ele>12.5</ele><time>2026-03-29T07:48:27.106Z</time></trkpt><trkpt lat="40.3444656" lon="15.0027331"><ele>12.0</ele><time>2026-03-29T07:48:28.099Z</time></trkpt><trkpt lat="40.3444254" lon="15.0025814"><ele>11.8</ele><time>2026-03-29T07:48:29.125Z</time></trkpt><trkpt lat="40.3444039" lon="15.002434"><ele>11.6</ele><time>2026-03-29T07:48:30.125Z</time></trkpt><trkpt lat="40.3443957" lon="15.0022909"><ele>11.4</ele><time>2026-03-29T07:48:31.125Z</time></trkpt><trkpt lat="40.3444035" lon="15.0021622"><ele>11.200000000000001</ele><time>2026-03-29T07:48:32.138Z</time></trkpt><trkpt lat="40.3444254" lon="15.0020487"><ele>11.0</ele><time>2026-03-29T07:48:33.146Z</time></trkpt><trkpt lat="40.3444649" lon="15.0019442"><ele>11.0</ele><time>2026-03-29T07:48:34.164Z</time></trkpt><trkpt lat="40.3445111" lon="15.0018503"><ele>11.0</ele><time>2026-03-29T07:48:35.122Z</time></trkpt><trkpt lat="40.3445553" lon="15.0017533"><ele>11.0</ele><time>2026-03-29T07:48:36.156Z</time></trkpt><trkpt lat="40.3445778" lon="15.0016518"><ele>11.0</ele><time>2026-03-29T07:48:37.258Z</time></trkpt><trkpt lat="40.3445443" lon="15.0014877"><ele>11.0</ele><time>2026-03-29T07:48:39.151Z</time></trkpt><trkpt lat="40.3445112" lon="15.0013816"><ele>10.5</ele><time>2026-03-29T07:48:40.152Z</time></trkpt><trkpt lat="40.3444848" lon="15.0012434"><ele>10.0</ele><time>2026-03-29T07:48:41.133Z</time></trkpt><trkpt lat="40.3444649" lon="15.0010844"><ele>9.5</ele><time>2026-03-29T07:48:42.146Z</time></trkpt><trkpt lat="40.3444315" lon="15.0009082"><ele>9.0</ele><time>2026-03-29T07:48:43.155Z</time></trkpt><trkpt lat="40.3443829" lon="15.0007035"><ele>8.666666666666666</ele><time>2026-03-29T07:48:44.163Z</time></trkpt><trkpt lat="40.3443284" lon="15.0004825"><ele>8.333333333333332</ele><time>2026-03-29T07:48:45.147Z</time></trkpt><trkpt lat="40.3442753" lon="15.0002612"><ele>8.0</ele><time>2026-03-29T07:48:46.127Z</time></trkpt><trkpt lat="40.3442151" lon="15.0000332"><ele>8.0</ele><time>2026-03-29T07:48:47.145Z</time></trkpt><trkpt lat="40.3441585" lon="14.9998182"><ele>8.0</ele><time>2026-03-29T07:48:48.162Z</time></trkpt><trkpt lat="40.3441083" lon="14.9996179"><ele>8.0</ele><time>2026-03-29T07:48:49.158Z</time></trkpt><trkpt lat="40.3440604" lon="14.9994307"><ele>8.0</ele><time>2026-03-29T07:48:50.139Z</time></trkpt><trkpt lat="40.3440156" lon="14.9992528"><ele>8.0</ele><time>2026-03-29T07:48:51.145Z</time></trkpt><trkpt lat="40.343974" lon="14.9990918"><ele>8.0</ele><time>2026-03-29T07:48:52.19Z</time></trkpt><trkpt lat="40.3439333" lon="14.998951"><ele>8.0</ele><time>2026-03-29T07:48:53.23Z</time></trkpt><trkpt lat="40.3438985" lon="14.9988406"><ele>8.0</ele><time>2026-03-29T07:48:54.159Z</time></trkpt><trkpt lat="40.3438725" lon="14.9987292"><ele>8.0</ele><time>2026-03-29T07:48:55.166Z</time></trkpt><trkpt lat="40.3438709" lon="14.9986312"><ele>8.0</ele><time>2026-03-29T07:48:56.15Z</time></trkpt><trkpt lat="40.3438982" lon="14.9985457"><ele>8.0</ele><time>2026-03-29T07:48:57.231Z</time></trkpt><trkpt lat="40.3439899" lon="14.9984849"><ele>8.0</ele><time>2026-03-29T07:48:59.156Z</time></trkpt><trkpt lat="40.34412" lon="14.9984981"><ele>8.0</ele><time>2026-03-29T07:49:01.15Z</time></trkpt><trkpt lat="40.3442058" lon="14.9985397"><ele>8.0</ele><time>2026-03-29T07:49:02.137Z</time></trkpt><trkpt lat="40.3443151" lon="14.9985937"><ele>8.0</ele><time>2026-03-29T07:49:03.134Z</time></trkpt><trkpt lat="40.3444389" lon="14.9986449"><ele>8.0</ele><time>2026-03-29T07:49:04.158Z</time></trkpt><trkpt lat="40.3445763" lon="14.9987012"><ele>8.333333333333332</ele><time>2026-03-29T07:49:05.16Z</time></trkpt><trkpt lat="40.3447218" lon="14.9987626"><ele>8.666666666666666</ele><time>2026-03-29T07:49:06.144Z</time></trkpt><trkpt lat="40.3448738" lon="14.998823"><ele>9.0</ele><time>2026-03-29T07:49:07.145Z</time></trkpt><trkpt lat="40.3450337" lon="14.9988763"><ele>9.0</ele><time>2026-03-29T07:49:08.153Z</time></trkpt><trkpt lat="40.3451962" lon="14.9989179"><ele>9.0</ele><time>2026-03-29T07:49:09.155Z</time></trkpt><trkpt lat="40.3453639" lon="14.9989463"><ele>9.0</ele><time>2026-03-29T07:49:10.202Z</time></trkpt><trkpt lat="40.3455355" lon="14.9989689"><ele>8.666666666666666</ele><time>2026-03-29T07:49:11.355Z</time></trkpt><trkpt lat="40.3457929" lon="14.999001"><ele>8.333333333333332</ele><time>2026-03-29T07:49:13.231Z</time></trkpt><trkpt lat="40.3459193" lon="14.9990176"><ele>8.0</ele><time>2026-03-29T07:49:14.23Z</time></trkpt><trkpt lat="40.3460313" lon="14.9990289"><ele>8.0</ele><time>2026-03-29T07:49:15.21Z</time></trkpt><trkpt lat="40.3461368" lon="14.9990158"><ele>8.0</ele><time>2026-03-29T07:49:16.233Z</time></trkpt><trkpt lat="40.3462286" lon="14.9989766"><ele>8.0</ele><time>2026-03-29T07:49:17.252Z</time></trkpt><trkpt lat="40.3463057" lon="14.998921"><ele>8.0</ele><time>2026-03-29T07:49:18.226Z</time></trkpt><trkpt lat="40.3463794" lon="14.9988395"><ele>8.0</ele><time>2026-03-29T07:49:19.236Z</time></trkpt><trkpt lat="40.3464504" lon="14.9987253"><ele>8.25</ele><time>2026-03-29T07:49:20.239Z</time></trkpt><trkpt lat="40.3465161" lon="14.99859"><ele>8.5</ele><time>2026-03-29T07:49:21.202Z</time></trkpt><trkpt lat="40.3465821" lon="14.9984414"><ele>8.75</ele><time>2026-03-29T07:49:22.232Z</time></trkpt><trkpt lat="40.3466471" lon="14.998312"><ele>9.0</ele><time>2026-03-29T07:49:23.24Z</time></trkpt><trkpt lat="40.3467205" lon="14.9982053"><ele>9.0</ele><time>2026-03-29T07:49:24.241Z</time></trkpt><trkpt lat="40.3467895" lon="14.9981129"><ele>9.0</ele><time>2026-03-29T07:49:25.315Z</time></trkpt><trkpt lat="40.3468314" lon="14.9980468"><ele>9.0</ele><time>2026-03-29T07:49:26.239Z</time></trkpt><trkpt lat="40.3468687" lon="14.9979516"><ele>9.0</ele><time>2026-03-29T07:49:28.225Z</time></trkpt><trkpt lat="40.346861" lon="14.9978419"><ele>9.0</ele><time>2026-03-29T07:49:37.198Z</time></trkpt><trkpt lat="40.3467656" lon="14.9977597"><ele>9.0</ele><time>2026-03-29T07:49:39.204Z</time></trkpt><trkpt lat="40.3466769" lon="14.9977159"><ele>9.0</ele><time>2026-03-29T07:49:40.24Z</time></trkpt><trkpt lat="40.3465856" lon="14.9976742"><ele>9.0</ele><time>2026-03-29T07:49:41.219Z</time></trkpt><trkpt lat="40.3464754" lon="14.9976192"><ele>9.0</ele><time>2026-03-29T07:49:42.213Z</time></trkpt><trkpt lat="40.3463395" lon="14.9975528"><ele>9.0</ele><time>2026-03-29T07:49:43.318Z</time></trkpt><trkpt lat="40.346227" lon="14.9974995"><ele>9.5</ele><time>2026-03-29T07:49:44.223Z</time></trkpt><trkpt lat="40.3461142" lon="14.9974454"><ele>10.0</ele><time>2026-03-29T07:49:45.217Z</time></trkpt><trkpt lat="40.346004" lon="14.997393"><ele>10.5</ele><time>2026-03-29T07:49:46.262Z</time></trkpt><trkpt lat="40.3458281" lon="14.9973092"><ele>11.0</ele><time>2026-03-29T07:49:48.16Z</time></trkpt><trkpt lat="40.3457471" lon="14.9972683"><ele>11.0</ele><time>2026-03-29T07:49:49.149Z</time></trkpt><trkpt lat="40.3456666" lon="14.997226"><ele>11.0</ele><time>2026-03-29T07:49:50.126Z</time></trkpt><trkpt lat="40.3455823" lon="14.9971827"><ele>11.0</ele><time>2026-03-29T07:49:51.15Z</time></trkpt><trkpt lat="40.3455015" lon="14.9971424"><ele>11.0</ele><time>2026-03-29T07:49:52.156Z</time></trkpt><trkpt lat="40.3454177" lon="14.9971003"><ele>11.0</ele><time>2026-03-29T07:49:53.136Z</time></trkpt><trkpt lat="40.3453311" lon="14.9970616"><ele>11.0</ele><time>2026-03-29T07:49:54.168Z</time></trkpt><trkpt lat="40.3452432" lon="14.9970222"><ele>11.0</ele><time>2026-03-29T07:49:55.151Z</time></trkpt><trkpt lat="40.3451493" lon="14.9969762"><ele>11.0</ele><time>2026-03-29T07:49:56.152Z</time></trkpt><trkpt lat="40.3450525" lon="14.9969368"><ele>11.0</ele><time>2026-03-29T07:49:57.15Z</time></trkpt><trkpt lat="40.344958" lon="14.9969097"><ele>11.0</ele><time>2026-03-29T07:49:58.144Z</time></trkpt><trkpt lat="40.3448718" lon="14.9968916"><ele>11.0</ele><time>2026-03-29T07:49:59.135Z</time></trkpt><trkpt lat="40.3447952" lon="14.9968807"><ele>11.0</ele><time>2026-03-29T07:50:00.154Z</time></trkpt><trkpt lat="40.3447226" lon="14.996871"><ele>11.0</ele><time>2026-03-29T07:50:01.15Z</time></trkpt><trkpt lat="40.3446252" lon="14.996859"><ele>11.0</ele><time>2026-03-29T07:50:02.18Z</time></trkpt><trkpt lat="40.3445074" lon="14.996838"><ele>11.0</ele><time>2026-03-29T07:50:03.171Z</time></trkpt><trkpt lat="40.3443822" lon="14.9968092"><ele>11.0</ele><time>2026-03-29T07:50:04.143Z</time></trkpt><trkpt lat="40.3442669" lon="14.9967847"><ele>11.0</ele><time>2026-03-29T07:50:05.153Z</time></trkpt><trkpt lat="40.3441611" lon="14.9967571"><ele>11.0</ele><time>2026-03-29T07:50:06.149Z</time></trkpt><trkpt lat="40.3440531" lon="14.9967061"><ele>11.0</ele><time>2026-03-29T07:50:07.184Z</time></trkpt><trkpt lat="40.3439648" lon="14.9966337"><ele>11.0</ele><time>2026-03-29T07:50:08.146Z</time></trkpt><trkpt lat="40.3438705" lon="14.9965178"><ele>11.0</ele><time>2026-03-29T07:50:09.26Z</time></trkpt><trkpt lat="40.3437557" lon="14.9962974"><ele>11.0</ele><time>2026-03-29T07:50:11.161Z</time></trkpt><trkpt lat="40.3437265" lon="14.9961988"><ele>11.0</ele><time>2026-03-29T07:50:12.158Z</time></trkpt><trkpt lat="40.3437125" lon="14.9961169"><ele>11.0</ele><time>2026-03-29T07:50:13.157Z</time></trkpt><trkpt lat="40.3436532" lon="14.9960146"><ele>11.0</ele><time>2026-03-29T07:50:15.178Z</time></trkpt><trkpt lat="40.3435443" lon="14.9960147"><ele>11.0</ele><time>2026-03-29T07:50:17.162Z</time></trkpt><trkpt lat="40.3434785" lon="14.9960592"><ele>11.0</ele><time>2026-03-29T07:50:18.167Z</time></trkpt><trkpt lat="40.3434072" lon="14.9961196"><ele>11.0</ele><time>2026-03-29T07:50:19.155Z</time></trkpt><trkpt lat="40.3433276" lon="14.9961911"><ele>11.0</ele><time>2026-03-29T07:50:20.17Z</time></trkpt><trkpt lat="40.3432287" lon="14.9962821"><ele>11.0</ele><time>2026-03-29T07:50:21.204Z</time></trkpt><trkpt lat="40.3431068" lon="14.9963902"><ele>11.333333333333332</ele><time>2026-03-29T07:50:22.162Z</time></trkpt><trkpt lat="40.3429783" lon="14.9965073"><ele>11.666666666666666</ele><time>2026-03-29T07:50:23.153Z</time></trkpt><trkpt lat="40.3428339" lon="14.9966291"><ele>12.0</ele><time>2026-03-29T07:50:24.142Z</time></trkpt><trkpt lat="40.3426715" lon="14.996763"><ele>12.0</ele><time>2026-03-29T07:50:25.14Z</time></trkpt><trkpt lat="40.342472" lon="14.9969184"><ele>12.0</ele><time>2026-03-29T07:50:26.257Z</time></trkpt><trkpt lat="40.3422999" lon="14.9970493"><ele>12.0</ele><time>2026-03-29T07:50:27.175Z</time></trkpt><trkpt lat="40.3421267" lon="14.9971751"><ele>12.0</ele><time>2026-03-29T07:50:28.161Z</time></trkpt><trkpt lat="40.3419684" lon="14.9972937"><ele>12.0</ele><time>2026-03-29T07:50:29.151Z</time></trkpt><trkpt lat="40.3418219" lon="14.9974061"><ele>12.0</ele><time>2026-03-29T07:50:30.146Z</time></trkpt><trkpt lat="40.3416896" lon="14.9975189"><ele>12.0</ele><time>2026-03-29T07:50:31.171Z</time></trkpt><trkpt lat="40.3415699" lon="14.9976198"><ele>12.0</ele><time>2026-03-29T07:50:32.166Z</time></trkpt><trkpt lat="40.3414424" lon="14.997714"><ele>12.0</ele><time>2026-03-29T07:50:33.171Z</time></trkpt><trkpt lat="40.3413314" lon="14.9978026"><ele>12.0</ele><time>2026-03-29T07:50:34.179Z</time></trkpt><trkpt lat="40.3412384" lon="14.9978794"><ele>13.0</ele><time>2026-03-29T07:50:35.14Z</time></trkpt><trkpt lat="40.3411462" lon="14.9979571"><ele>14.0</ele><time>2026-03-29T07:50:36.208Z</time></trkpt><trkpt lat="40.3410753" lon="14.9980141"><ele>15.0</ele><time>2026-03-29T07:50:37.193Z</time></trkpt><trkpt lat="40.3410144" lon="14.9980586"><ele>16.0</ele><time>2026-03-29T07:50:38.202Z</time></trkpt><trkpt lat="40.3409177" lon="14.9981223"><ele>17.0</ele><time>2026-03-29T07:50:40.22Z</time></trkpt><trkpt lat="40.3408418" lon="14.9981579"><ele>17.0</ele><time>2026-03-29T07:50:42.216Z</time></trkpt><trkpt lat="40.340732" lon="14.9981661"><ele>17.0</ele><time>2026-03-29T07:50:44.229Z</time></trkpt><trkpt lat="40.3406191" lon="14.998167"><ele>17.0</ele><time>2026-03-29T07:50:46.212Z</time></trkpt><trkpt lat="40.3405341" lon="14.99808"><ele>17.0</ele><time>2026-03-29T07:50:48.196Z</time></trkpt><trkpt lat="40.340483" lon="14.9979229"><ele>17.2</ele><time>2026-03-29T07:50:50.227Z</time></trkpt><trkpt lat="40.3404614" lon="14.997829"><ele>17.4</ele><time>2026-03-29T07:50:51.328Z</time></trkpt><trkpt lat="40.340423" lon="14.9976875"><ele>17.6</ele><time>2026-03-29T07:50:53.213Z</time></trkpt><trkpt lat="40.340402" lon="14.9976073"><ele>17.8</ele><time>2026-03-29T07:50:54.189Z</time></trkpt><trkpt lat="40.340361" lon="14.997477"><ele>18.0</ele><time>2026-03-29T07:50:56.187Z</time></trkpt><trkpt lat="40.3403044" lon="14.9973447"><ele>18.5</ele><time>2026-03-29T07:50:58.225Z</time></trkpt><trkpt lat="40.3402576" lon="14.9972404"><ele>19.0</ele><time>2026-03-29T07:50:59.221Z</time></trkpt><trkpt lat="40.3402105" lon="14.9971269"><ele>19.5</ele><time>2026-03-29T07:51:00.222Z</time></trkpt><trkpt lat="40.3401503" lon="14.9969844"><ele>20.0</ele><time>2026-03-29T07:51:01.211Z</time></trkpt><trkpt lat="40.3400771" lon="14.996809"><ele>19.75</ele><time>2026-03-29T07:51:02.333Z</time></trkpt><trkpt lat="40.3399805" lon="14.9965579"><ele>19.5</ele><time>2026-03-29T07:51:04.225Z</time></trkpt><trkpt lat="40.3399411" lon="14.9964525"><ele>19.25</ele><time>2026-03-29T07:51:05.21Z</time></trkpt><trkpt lat="40.3399057" lon="14.9963583"><ele>19.0</ele><time>2026-03-29T07:51:06.213Z</time></trkpt><trkpt lat="40.3398643" lon="14.9962827"><ele>19.0</ele><time>2026-03-29T07:51:07.223Z</time></trkpt><trkpt lat="40.3397589" lon="14.9962006"><ele>19.0</ele><time>2026-03-29T07:51:09.231Z</time></trkpt><trkpt lat="40.339691" lon="14.9961768"><ele>19.0</ele><time>2026-03-29T07:51:10.295Z</time></trkpt><trkpt lat="40.3396279" lon="14.9961409"><ele>19.0</ele><time>2026-03-29T07:51:11.272Z</time></trkpt><trkpt lat="40.3394784" lon="14.9960054"><ele>19.0</ele><time>2026-03-29T07:51:13.204Z</time></trkpt><trkpt lat="40.3393968" lon="14.9959429"><ele>19.0</ele><time>2026-03-29T07:51:14.158Z</time></trkpt><trkpt lat="40.3393279" lon="14.9958747"><ele>19.0</ele><time>2026-03-29T07:51:15.151Z</time></trkpt><trkpt lat="40.3392661" lon="14.9958137"><ele>19.0</ele><time>2026-03-29T07:51:16.167Z</time></trkpt><trkpt lat="40.3392145" lon="14.9957628"><ele>19.0</ele><time>2026-03-29T07:51:17.157Z</time></trkpt><trkpt lat="40.339158" lon="14.9957162"><ele>19.0</ele><time>2026-03-29T07:51:18.152Z</time></trkpt><trkpt lat="40.339087" lon="14.9956371"><ele>19.0</ele><time>2026-03-29T07:51:19.174Z</time></trkpt><trkpt lat="40.3390044" lon="14.9955341"><ele>18.75</ele><time>2026-03-29T07:51:20.149Z</time></trkpt><trkpt lat="40.3389153" lon="14.995428"><ele>18.5</ele><time>2026-03-29T07:51:21.13Z</time></trkpt><trkpt lat="40.3388082" lon="14.9953063"><ele>18.25</ele><time>2026-03-29T07:51:22.169Z</time></trkpt><trkpt lat="40.3387019" lon="14.9951896"><ele>18.0</ele><time>2026-03-29T07:51:23.147Z</time></trkpt><trkpt lat="40.3386337" lon="14.9951116"><ele>18.8</ele><time>2026-03-29T07:51:24.199Z</time></trkpt><trkpt lat="40.3385701" lon="14.9950487"><ele>19.6</ele><time>2026-03-29T07:51:25.155Z</time></trkpt><trkpt lat="40.3384984" lon="14.9949591"><ele>20.400000000000002</ele><time>2026-03-29T07:51:26.141Z</time></trkpt><trkpt lat="40.3384348" lon="14.994864"><ele>21.200000000000003</ele><time>2026-03-29T07:51:27.15Z</time></trkpt><trkpt lat="40.3383843" lon="14.994772"><ele>22.0</ele><time>2026-03-29T07:51:28.136Z</time></trkpt><trkpt lat="40.3383356" lon="14.9946621"><ele>22.0</ele><time>2026-03-29T07:51:29.142Z</time></trkpt><trkpt lat="40.3382808" lon="14.994516"><ele>22.0</ele><time>2026-03-29T07:51:30.286Z</time></trkpt><trkpt lat="40.3382077" lon="14.9942768"><ele>22.0</ele><time>2026-03-29T07:51:32.136Z</time></trkpt><trkpt lat="40.3381727" lon="14.994134"><ele>22.0</ele><time>2026-03-29T07:51:33.259Z</time></trkpt><trkpt lat="40.3381161" lon="14.9938891"><ele>21.666666666666664</ele><time>2026-03-29T07:51:35.169Z</time></trkpt><trkpt lat="40.3380822" lon="14.9937606"><ele>21.333333333333332</ele><time>2026-03-29T07:51:36.159Z</time></trkpt><trkpt lat="40.3380524" lon="14.9936399"><ele>21.0</ele><time>2026-03-29T07:51:37.163Z</time></trkpt><trkpt lat="40.3380297" lon="14.9935378"><ele>20.666666666666668</ele><time>2026-03-29T07:51:38.158Z</time></trkpt><trkpt lat="40.338002" lon="14.993415"><ele>20.333333333333336</ele><time>2026-03-29T07:51:40.16Z</time></trkpt><trkpt lat="40.3379807" lon="14.9933276"><ele>20.0</ele><time>2026-03-29T07:51:43.145Z</time></trkpt><trkpt lat="40.337927" lon="14.9932511"><ele>20.0</ele><time>2026-03-29T07:51:46.267Z</time></trkpt><trkpt lat="40.3378221" lon="14.9932069"><ele>20.0</ele><time>2026-03-29T07:51:48.187Z</time></trkpt><trkpt lat="40.3377557" lon="14.9931849"><ele>20.0</ele><time>2026-03-29T07:51:49.155Z</time></trkpt><trkpt lat="40.33767" lon="14.9931546"><ele>20.0</ele><time>2026-03-29T07:51:50.174Z</time></trkpt><trkpt lat="40.3375694" lon="14.9931089"><ele>20.0</ele><time>2026-03-29T07:51:51.164Z</time></trkpt><trkpt lat="40.3374616" lon="14.9930509"><ele>20.0</ele><time>2026-03-29T07:51:52.165Z</time></trkpt><trkpt lat="40.337366" lon="14.992986"><ele>20.0</ele><time>2026-03-29T07:51:53.164Z</time></trkpt><trkpt lat="40.3372833" lon="14.9929073"><ele>20.0</ele><time>2026-03-29T07:51:54.268Z</time></trkpt><trkpt lat="40.337233" lon="14.9928277"><ele>20.0</ele><time>2026-03-29T07:51:55.17Z</time></trkpt><trkpt lat="40.3371891" lon="14.9927171"><ele>20.0</ele><time>2026-03-29T07:51:56.149Z</time></trkpt><trkpt lat="40.3371528" lon="14.9925738"><ele>20.5</ele><time>2026-03-29T07:51:57.157Z</time></trkpt><trkpt lat="40.3371201" lon="14.9924252"><ele>21.0</ele><time>2026-03-29T07:51:58.145Z</time></trkpt><trkpt lat="40.3370787" lon="14.9922593"><ele>21.5</ele><time>2026-03-29T07:51:59.162Z</time></trkpt><trkpt lat="40.3370414" lon="14.9921073"><ele>22.0</ele><time>2026-03-29T07:52:00.141Z</time></trkpt><trkpt lat="40.3369957" lon="14.9919572"><ele>22.0</ele><time>2026-03-29T07:52:01.163Z</time></trkpt><trkpt lat="40.3369353" lon="14.9918192"><ele>22.0</ele><time>2026-03-29T07:52:02.137Z</time></trkpt><trkpt lat="40.3368432" lon="14.9916829"><ele>22.0</ele><time>2026-03-29T07:52:03.156Z</time></trkpt><trkpt lat="40.3367329" lon="14.99155"><ele>22.0</ele><time>2026-03-29T07:52:04.161Z</time></trkpt><trkpt lat="40.3366127" lon="14.991414"><ele>21.0</ele><time>2026-03-29T07:52:05.165Z</time></trkpt><trkpt lat="40.3364818" lon="14.9912751"><ele>20.0</ele><time>2026-03-29T07:52:06.185Z</time></trkpt><trkpt lat="40.3363534" lon="14.9911391"><ele>19.0</ele><time>2026-03-29T07:52:07.157Z</time></trkpt><trkpt lat="40.3362152" lon="14.9909942"><ele>18.666666666666664</ele><time>2026-03-29T07:52:08.189Z</time></trkpt><trkpt lat="40.3360833" lon="14.9908689"><ele>18.333333333333332</ele><time>2026-03-29T07:52:09.14Z</time></trkpt><trkpt lat="40.3359505" lon="14.9907526"><ele>18.0</ele><time>2026-03-29T07:52:10.136Z</time></trkpt><trkpt lat="40.3358196" lon="14.9906485"><ele>18.0</ele><time>2026-03-29T07:52:11.165Z</time></trkpt><trkpt lat="40.3356895" lon="14.9905539"><ele>18.0</ele><time>2026-03-29T07:52:12.248Z</time></trkpt><trkpt lat="40.3355829" lon="14.9904801"><ele>18.0</ele><time>2026-03-29T07:52:13.171Z</time></trkpt><trkpt lat="40.3354648" lon="14.990403"><ele>18.0</ele><time>2026-03-29T07:52:14.172Z</time></trkpt><trkpt lat="40.3353432" lon="14.9903328"><ele>19.5</ele><time>2026-03-29T07:52:15.17Z</time></trkpt><trkpt lat="40.3352165" lon="14.990267"><ele>21.0</ele><time>2026-03-29T07:52:16.144Z</time></trkpt><trkpt lat="40.3350725" lon="14.9902128"><ele>22.5</ele><time>2026-03-29T07:52:17.172Z</time></trkpt><trkpt lat="40.3349286" lon="14.9901692"><ele>24.0</ele><time>2026-03-29T07:52:18.134Z</time></trkpt><trkpt lat="40.3347659" lon="14.990133"><ele>25.333333333333336</ele><time>2026-03-29T07:52:19.165Z</time></trkpt><trkpt lat="40.334603" lon="14.9901183"><ele>26.666666666666668</ele><time>2026-03-29T07:52:20.159Z</time></trkpt><trkpt lat="40.3344372" lon="14.9901178"><ele>28.0</ele><time>2026-03-29T07:52:21.156Z</time></trkpt><trkpt lat="40.3342561" lon="14.9901192"><ele>28.0</ele><time>2026-03-29T07:52:22.243Z</time></trkpt><trkpt lat="40.3341019" lon="14.9901093"><ele>28.0</ele><time>2026-03-29T07:52:23.171Z</time></trkpt><trkpt lat="40.3339398" lon="14.9900901"><ele>28.0</ele><time>2026-03-29T07:52:24.164Z</time></trkpt><trkpt lat="40.3337867" lon="14.9900626"><ele>28.0</ele><time>2026-03-29T07:52:25.157Z</time></trkpt><trkpt lat="40.3336283" lon="14.9900271"><ele>28.0</ele><time>2026-03-29T07:52:26.191Z</time></trkpt><trkpt lat="40.3334808" lon="14.9899924"><ele>28.0</ele><time>2026-03-29T07:52:27.171Z</time></trkpt><trkpt lat="40.3333337" lon="14.9899719"><ele>28.0</ele><time>2026-03-29T07:52:28.16Z</time></trkpt><trkpt lat="40.3331847" lon="14.989972"><ele>28.0</ele><time>2026-03-29T07:52:29.161Z</time></trkpt><trkpt lat="40.3330354" lon="14.9899819"><ele>28.0</ele><time>2026-03-29T07:52:30.171Z</time></trkpt><trkpt lat="40.332889" lon="14.9899859"><ele>28.0</ele><time>2026-03-29T07:52:31.174Z</time></trkpt><trkpt lat="40.3327331" lon="14.9899804"><ele>29.5</ele><time>2026-03-29T07:52:32.249Z</time></trkpt><trkpt lat="40.3326006" lon="14.9899716"><ele>31.0</ele><time>2026-03-29T07:52:33.162Z</time></trkpt><trkpt lat="40.3324517" lon="14.9899629"><ele>32.5</ele><time>2026-03-29T07:52:34.211Z</time></trkpt><trkpt lat="40.3323171" lon="14.9899554"><ele>34.0</ele><time>2026-03-29T07:52:35.166Z</time></trkpt><trkpt lat="40.3321764" lon="14.9899448"><ele>34.75</ele><time>2026-03-29T07:52:36.158Z</time></trkpt><trkpt lat="40.3320433" lon="14.9899309"><ele>35.5</ele><time>2026-03-29T07:52:37.143Z</time></trkpt><trkpt lat="40.3319172" lon="14.9899132"><ele>36.25</ele><time>2026-03-29T07:52:38.17Z</time></trkpt><trkpt lat="40.331796" lon="14.9898947"><ele>37.0</ele><time>2026-03-29T07:52:39.249Z</time></trkpt><trkpt lat="40.3316017" lon="14.9898599"><ele>37.0</ele><time>2026-03-29T07:52:41.154Z</time></trkpt><trkpt lat="40.3315119" lon="14.989842"><ele>37.0</ele><time>2026-03-29T07:52:42.132Z</time></trkpt><trkpt lat="40.3314321" lon="14.9898252"><ele>37.0</ele><time>2026-03-29T07:52:43.147Z</time></trkpt><trkpt lat="40.3313544" lon="14.9898068"><ele>37.0</ele><time>2026-03-29T07:52:44.167Z</time></trkpt><trkpt lat="40.3312737" lon="14.9897816"><ele>37.0</ele><time>2026-03-29T07:52:45.13Z</time></trkpt><trkpt lat="40.3311802" lon="14.9897494"><ele>37.0</ele><time>2026-03-29T07:52:46.135Z</time></trkpt><trkpt lat="40.3310776" lon="14.989711"><ele>37.6</ele><time>2026-03-29T07:52:47.142Z</time></trkpt><trkpt lat="40.3309724" lon="14.9896601"><ele>38.2</ele><time>2026-03-29T07:52:48.153Z</time></trkpt><trkpt lat="40.3308744" lon="14.9896031"><ele>38.8</ele><time>2026-03-29T07:52:49.146Z</time></trkpt><trkpt lat="40.3307766" lon="14.9895326"><ele>39.4</ele><time>2026-03-29T07:52:50.168Z</time></trkpt><trkpt lat="40.3306956" lon="14.9894451"><ele>40.0</ele><time>2026-03-29T07:52:51.172Z</time></trkpt><trkpt lat="40.3306249" lon="14.9893534"><ele>41.4</ele><time>2026-03-29T07:52:52.167Z</time></trkpt><trkpt lat="40.3305448" lon="14.9892736"><ele>42.8</ele><time>2026-03-29T07:52:53.25Z</time></trkpt><trkpt lat="40.330461" lon="14.9892305"><ele>44.2</ele><time>2026-03-29T07:52:54.155Z</time></trkpt><trkpt lat="40.3303611" lon="14.9892062"><ele>45.6</ele><time>2026-03-29T07:52:55.14Z</time></trkpt><trkpt lat="40.3302466" lon="14.9892015"><ele>47.0</ele><time>2026-03-29T07:52:56.135Z</time></trkpt><trkpt lat="40.330118" lon="14.989205"><ele>47.0</ele><time>2026-03-29T07:52:57.165Z</time></trkpt><trkpt lat="40.329987" lon="14.9892053"><ele>47.0</ele><time>2026-03-29T07:52:58.153Z</time></trkpt><trkpt lat="40.3298487" lon="14.9892051"><ele>47.0</ele><time>2026-03-29T07:52:59.148Z</time></trkpt><trkpt lat="40.3297068" lon="14.9892014"><ele>47.0</ele><time>2026-03-29T07:53:00.153Z</time></trkpt><trkpt lat="40.3295618" lon="14.9891907"><ele>47.0</ele><time>2026-03-29T07:53:01.163Z</time></trkpt><trkpt lat="40.3294257" lon="14.9891751"><ele>47.0</ele><time>2026-03-29T07:53:02.121Z</time></trkpt><trkpt lat="40.3292951" lon="14.9891585"><ele>47.0</ele><time>2026-03-29T07:53:03.134Z</time></trkpt><trkpt lat="40.3291678" lon="14.9891476"><ele>47.0</ele><time>2026-03-29T07:53:04.147Z</time></trkpt><trkpt lat="40.3290382" lon="14.9891327"><ele>47.0</ele><time>2026-03-29T07:53:05.17Z</time></trkpt><trkpt lat="40.3289155" lon="14.9891228"><ele>47.0</ele><time>2026-03-29T07:53:06.152Z</time></trkpt><trkpt lat="40.3287942" lon="14.9891284"><ele>47.0</ele><time>2026-03-29T07:53:07.177Z</time></trkpt><trkpt lat="40.3286852" lon="14.9891414"><ele>47.0</ele><time>2026-03-29T07:53:08.151Z</time></trkpt><trkpt lat="40.3285756" lon="14.9891493"><ele>47.400000000000006</ele><time>2026-03-29T07:53:09.154Z</time></trkpt><trkpt lat="40.3284775" lon="14.9891399"><ele>47.800000000000004</ele><time>2026-03-29T07:53:10.145Z</time></trkpt><trkpt lat="40.3283868" lon="14.989112"><ele>48.2</ele><time>2026-03-29T07:53:11.154Z</time></trkpt><trkpt lat="40.3283036" lon="14.9890681"><ele>48.6</ele><time>2026-03-29T07:53:12.148Z</time></trkpt><trkpt lat="40.3282227" lon="14.9889991"><ele>49.0</ele><time>2026-03-29T07:53:13.263Z</time></trkpt><trkpt lat="40.3281003" lon="14.9888204"><ele>50.5</ele><time>2026-03-29T07:53:15.137Z</time></trkpt><trkpt lat="40.3280301" lon="14.9886836"><ele>52.0</ele><time>2026-03-29T07:53:16.167Z</time></trkpt><trkpt lat="40.3279642" lon="14.9885442"><ele>53.5</ele><time>2026-03-29T07:53:17.162Z</time></trkpt><trkpt lat="40.3278967" lon="14.9884185"><ele>55.0</ele><time>2026-03-29T07:53:18.143Z</time></trkpt><trkpt lat="40.3278242" lon="14.9883031"><ele>54.99999999999999</ele><time>2026-03-29T07:53:19.162Z</time></trkpt><trkpt lat="40.3277528" lon="14.9882084"><ele>55.0</ele><time>2026-03-29T07:53:20.142Z</time></trkpt><trkpt lat="40.3276835" lon="14.9881308"><ele>55.0</ele><time>2026-03-29T07:53:21.149Z</time></trkpt><trkpt lat="40.3276095" lon="14.9880765"><ele>55.0</ele><time>2026-03-29T07:53:22.182Z</time></trkpt><trkpt lat="40.3275272" lon="14.9880495"><ele>54.99999999999999</ele><time>2026-03-29T07:53:23.168Z</time></trkpt><trkpt lat="40.327447" lon="14.9880452"><ele>55.0</ele><time>2026-03-29T07:53:24.157Z</time></trkpt><trkpt lat="40.3273828" lon="14.9880657"><ele>55.0</ele><time>2026-03-29T07:53:25.162Z</time></trkpt><trkpt lat="40.3273043" lon="14.9881826"><ele>55.0</ele><time>2026-03-29T07:53:27.178Z</time></trkpt><trkpt lat="40.3273111" lon="14.9883596"><ele>55.0</ele><time>2026-03-29T07:53:29.267Z</time></trkpt><trkpt lat="40.3273209" lon="14.9884654"><ele>55.0</ele><time>2026-03-29T07:53:30.181Z</time></trkpt><trkpt lat="40.3273327" lon="14.9885871"><ele>55.0</ele><time>2026-03-29T07:53:31.149Z</time></trkpt><trkpt lat="40.3273328" lon="14.9887236"><ele>56.0</ele><time>2026-03-29T07:53:32.149Z</time></trkpt><trkpt lat="40.3273189" lon="14.9888652"><ele>57.0</ele><time>2026-03-29T07:53:33.144Z</time></trkpt><trkpt lat="40.3272904" lon="14.9890099"><ele>58.0</ele><time>2026-03-29T07:53:34.163Z</time></trkpt><trkpt lat="40.3272482" lon="14.9891442"><ele>59.0</ele><time>2026-03-29T07:53:35.156Z</time></trkpt><trkpt lat="40.3271905" lon="14.9892786"><ele>62.5</ele><time>2026-03-29T07:53:36.215Z</time></trkpt><trkpt lat="40.3270786" lon="14.9895131"><ele>66.0</ele><time>2026-03-29T07:53:38.13Z</time></trkpt><trkpt lat="40.3270315" lon="14.9896043"><ele>69.5</ele><time>2026-03-29T07:53:39.151Z</time></trkpt><trkpt lat="40.3269545" lon="14.9897131"><ele>73.0</ele><time>2026-03-29T07:53:40.159Z</time></trkpt><trkpt lat="40.3268698" lon="14.9898035"><ele>73.0</ele><time>2026-03-29T07:53:41.173Z</time></trkpt><trkpt lat="40.3267865" lon="14.9898955"><ele>73.0</ele><time>2026-03-29T07:53:42.163Z</time></trkpt><trkpt lat="40.326728" lon="14.989971"><ele>73.0</ele><time>2026-03-29T07:53:43.164Z</time></trkpt><trkpt lat="40.3266878" lon="14.9900694"><ele>73.0</ele><time>2026-03-29T07:53:44.137Z</time></trkpt><trkpt lat="40.3266577" lon="14.9901732"><ele>73.0</ele><time>2026-03-29T07:53:45.272Z</time></trkpt><trkpt lat="40.3266418" lon="14.9904238"><ele>73.25</ele><time>2026-03-29T07:53:47.142Z</time></trkpt><trkpt lat="40.3266157" lon="14.9905831"><ele>73.5</ele><time>2026-03-29T07:53:48.14Z</time></trkpt><trkpt lat="40.3265391" lon="14.9907746"><ele>73.75</ele><time>2026-03-29T07:53:49.153Z</time></trkpt><trkpt lat="40.3264771" lon="14.9909161"><ele>74.0</ele><time>2026-03-29T07:53:50.159Z</time></trkpt><trkpt lat="40.326417" lon="14.9910951"><ele>76.16666666666667</ele><time>2026-03-29T07:53:51.171Z</time></trkpt><trkpt lat="40.3263571" lon="14.9911552"><ele>78.33333333333334</ele><time>2026-03-29T07:53:52.17Z</time></trkpt><trkpt lat="40.3262905" lon="14.9911695"><ele>80.5</ele><time>2026-03-29T07:53:53.157Z</time></trkpt><trkpt lat="40.3262178" lon="14.9911496"><ele>82.66666666666667</ele><time>2026-03-29T07:53:54.143Z</time></trkpt><trkpt lat="40.3261249" lon="14.9910913"><ele>84.83333333333333</ele><time>2026-03-29T07:53:55.155Z</time></trkpt><trkpt lat="40.3260349" lon="14.9910082"><ele>87.0</ele><time>2026-03-29T07:53:56.156Z</time></trkpt><trkpt lat="40.325941" lon="14.9909253"><ele>86.25</ele><time>2026-03-29T07:53:57.143Z</time></trkpt><trkpt lat="40.3258332" lon="14.9908073"><ele>85.5</ele><time>2026-03-29T07:53:58.209Z</time></trkpt><trkpt lat="40.3257705" lon="14.9906891"><ele>84.75</ele><time>2026-03-29T07:53:59.206Z</time></trkpt><trkpt lat="40.3256735" lon="14.990509"><ele>84.0</ele><time>2026-03-29T07:54:00.3Z</time></trkpt><trkpt lat="40.3255204" lon="14.9901506"><ele>87.75</ele><time>2026-03-29T07:54:02.191Z</time></trkpt><trkpt lat="40.3254606" lon="14.9899925"><ele>91.5</ele><time>2026-03-29T07:54:03.16Z</time></trkpt><trkpt lat="40.3254013" lon="14.9898541"><ele>95.25</ele><time>2026-03-29T07:54:04.143Z</time></trkpt><trkpt lat="40.3253369" lon="14.9897409"><ele>99.0</ele><time>2026-03-29T07:54:05.171Z</time></trkpt><trkpt lat="40.3252703" lon="14.9896558"><ele>99.0</ele><time>2026-03-29T07:54:06.163Z</time></trkpt><trkpt lat="40.3252049" lon="14.9896037"><ele>99.0</ele><time>2026-03-29T07:54:07.14Z</time></trkpt><trkpt lat="40.3251201" lon="14.9895898"><ele>99.0</ele><time>2026-03-29T07:54:08.17Z</time></trkpt><trkpt lat="40.325056" lon="14.9896157"><ele>99.0</ele><time>2026-03-29T07:54:09.161Z</time></trkpt><trkpt lat="40.324969" lon="14.9896746"><ele>99.0</ele><time>2026-03-29T07:54:10.147Z</time></trkpt><trkpt lat="40.3248839" lon="14.9897675"><ele>99.0</ele><time>2026-03-29T07:54:11.144Z</time></trkpt><trkpt lat="40.3247932" lon="14.9898854"><ele>101.0</ele><time>2026-03-29T07:54:12.149Z</time></trkpt><trkpt lat="40.3247129" lon="14.9900036"><ele>103.0</ele><time>2026-03-29T07:54:13.144Z</time></trkpt><trkpt lat="40.3246379" lon="14.9901054"><ele>105.0</ele><time>2026-03-29T07:54:14.147Z</time></trkpt><trkpt lat="40.324568" lon="14.9901831"><ele>107.0</ele><time>2026-03-29T07:54:15.145Z</time></trkpt><trkpt lat="40.3244811" lon="14.9902431"><ele>109.0</ele><time>2026-03-29T07:54:16.327Z</time></trkpt><trkpt lat="40.3243175" lon="14.9902319"><ele>110.80000000000001</ele><time>2026-03-29T07:54:18.242Z</time></trkpt><trkpt lat="40.324219" lon="14.9901887"><ele>112.60000000000001</ele><time>2026-03-29T07:54:19.214Z</time></trkpt><trkpt lat="40.3241124" lon="14.9901411"><ele>114.4</ele><time>2026-03-29T07:54:20.222Z</time></trkpt><trkpt lat="40.3240037" lon="14.9901088"><ele>116.2</ele><time>2026-03-29T07:54:21.217Z</time></trkpt><trkpt lat="40.3238824" lon="14.9901084"><ele>118.0</ele><time>2026-03-29T07:54:22.205Z</time></trkpt><trkpt lat="40.3237416" lon="14.990107"><ele>121.0</ele><time>2026-03-29T07:54:23.215Z</time></trkpt><trkpt lat="40.3235737" lon="14.9901019"><ele>124.0</ele><time>2026-03-29T07:54:24.235Z</time></trkpt><trkpt lat="40.3234435" lon="14.9901025"><ele>127.0</ele><time>2026-03-29T07:54:25.205Z</time></trkpt><trkpt lat="40.3233201" lon="14.9901145"><ele>130.0</ele><time>2026-03-29T07:54:26.225Z</time></trkpt><trkpt lat="40.3232107" lon="14.990116"><ele>130.0</ele><time>2026-03-29T07:54:27.224Z</time></trkpt><trkpt lat="40.3231096" lon="14.9900878"><ele>130.0</ele><time>2026-03-29T07:54:28.201Z</time></trkpt><trkpt lat="40.3230036" lon="14.9900173"><ele>130.0</ele><time>2026-03-29T07:54:29.23Z</time></trkpt><trkpt lat="40.3229162" lon="14.9899308"><ele>130.0</ele><time>2026-03-29T07:54:30.183Z</time></trkpt><trkpt lat="40.3228368" lon="14.9898304"><ele>130.0</ele><time>2026-03-29T07:54:31.19Z</time></trkpt><trkpt lat="40.3227405" lon="14.9897195"><ele>131.5</ele><time>2026-03-29T07:54:32.204Z</time></trkpt><trkpt lat="40.3226354" lon="14.9896181"><ele>133.0</ele><time>2026-03-29T07:54:33.192Z</time></trkpt><trkpt lat="40.3225198" lon="14.9895093"><ele>134.5</ele><time>2026-03-29T07:54:34.195Z</time></trkpt><trkpt lat="40.3223864" lon="14.9893958"><ele>136.0</ele><time>2026-03-29T07:54:35.252Z</time></trkpt><trkpt lat="40.3222533" lon="14.9892989"><ele>137.25</ele><time>2026-03-29T07:54:36.229Z</time></trkpt><trkpt lat="40.3221165" lon="14.9891971"><ele>138.5</ele><time>2026-03-29T07:54:37.235Z</time></trkpt><trkpt lat="40.3219951" lon="14.9891009"><ele>139.75</ele><time>2026-03-29T07:54:38.228Z</time></trkpt><trkpt lat="40.3218946" lon="14.9890084"><ele>141.0</ele><time>2026-03-29T07:54:39.23Z</time></trkpt><trkpt lat="40.3218186" lon="14.9889305"><ele>141.0</ele><time>2026-03-29T07:54:40.211Z</time></trkpt><trkpt lat="40.3217579" lon="14.9888639"><ele>141.0</ele><time>2026-03-29T07:54:41.218Z</time></trkpt><trkpt lat="40.3216847" lon="14.9887923"><ele>141.0</ele><time>2026-03-29T07:54:43.238Z</time></trkpt><trkpt lat="40.3216056" lon="14.9887939"><ele>141.0</ele><time>2026-03-29T07:54:46.235Z</time></trkpt><trkpt lat="40.3215019" lon="14.9889673"><ele>141.0</ele><time>2026-03-29T07:54:49.205Z</time></trkpt><trkpt lat="40.3214564" lon="14.989055"><ele>141.0</ele><time>2026-03-29T07:54:50.216Z</time></trkpt><trkpt lat="40.3214217" lon="14.9891584"><ele>141.0</ele><time>2026-03-29T07:54:51.33Z</time></trkpt><trkpt lat="40.3214028" lon="14.9893695"><ele>141.0</ele><time>2026-03-29T07:54:53.176Z</time></trkpt><trkpt lat="40.3214264" lon="14.989463"><ele>141.0</ele><time>2026-03-29T07:54:54.158Z</time></trkpt><trkpt lat="40.3214679" lon="14.9895497"><ele>141.0</ele><time>2026-03-29T07:54:55.139Z</time></trkpt><trkpt lat="40.3215105" lon="14.9896114"><ele>143.2</ele><time>2026-03-29T07:54:56.151Z</time></trkpt><trkpt lat="40.321581" lon="14.9896863"><ele>145.39999999999998</ele><time>2026-03-29T07:54:58.175Z</time></trkpt><trkpt lat="40.3216584" lon="14.989726"><ele>147.6</ele><time>2026-03-29T07:55:00.25Z</time></trkpt><trkpt lat="40.3217809" lon="14.9897831"><ele>149.79999999999998</ele><time>2026-03-29T07:55:02.137Z</time></trkpt><trkpt lat="40.3218656" lon="14.9898346"><ele>152.0</ele><time>2026-03-29T07:55:03.149Z</time></trkpt><trkpt lat="40.3219466" lon="14.9898854"><ele>152.0</ele><time>2026-03-29T07:55:04.143Z</time></trkpt><trkpt lat="40.3220444" lon="14.989961"><ele>152.0</ele><time>2026-03-29T07:55:05.136Z</time></trkpt><trkpt lat="40.3221257" lon="14.9900608"><ele>152.0</ele><time>2026-03-29T07:55:06.148Z</time></trkpt><trkpt lat="40.3221913" lon="14.9901723"><ele>152.0</ele><time>2026-03-29T07:55:07.114Z</time></trkpt><trkpt lat="40.3222469" lon="14.9903234"><ele>152.25</ele><time>2026-03-29T07:55:08.217Z</time></trkpt><trkpt lat="40.3222875" lon="14.9904818"><ele>152.5</ele><time>2026-03-29T07:55:09.173Z</time></trkpt><trkpt lat="40.3223241" lon="14.990688"><ele>152.75</ele><time>2026-03-29T07:55:10.213Z</time></trkpt><trkpt lat="40.3223549" lon="14.9908547"><ele>153.0</ele><time>2026-03-29T07:55:11.17Z</time></trkpt><trkpt lat="40.322396" lon="14.9910275"><ele>153.0</ele><time>2026-03-29T07:55:12.171Z</time></trkpt><trkpt lat="40.3224437" lon="14.9911925"><ele>153.0</ele><time>2026-03-29T07:55:13.179Z</time></trkpt><trkpt lat="40.322498" lon="14.9913524"><ele>153.0</ele><time>2026-03-29T07:55:14.157Z</time></trkpt><trkpt lat="40.3225448" lon="14.9915312"><ele>153.0</ele><time>2026-03-29T07:55:15.196Z</time></trkpt><trkpt lat="40.3225761" lon="14.9917028"><ele>155.25</ele><time>2026-03-29T07:55:16.172Z</time></trkpt><trkpt lat="40.3226022" lon="14.9918741"><ele>157.5</ele><time>2026-03-29T07:55:17.135Z</time></trkpt><trkpt lat="40.3226253" lon="14.9920579"><ele>159.75</ele><time>2026-03-29T07:55:18.146Z</time></trkpt><trkpt lat="40.3226466" lon="14.992245"><ele>162.0</ele><time>2026-03-29T07:55:19.153Z</time></trkpt><trkpt lat="40.3226721" lon="14.9924349"><ele>163.25</ele><time>2026-03-29T07:55:20.157Z</time></trkpt><trkpt lat="40.3226926" lon="14.9926287"><ele>164.5</ele><time>2026-03-29T07:55:21.165Z</time></trkpt><trkpt lat="40.3227143" lon="14.9928176"><ele>165.75</ele><time>2026-03-29T07:55:22.156Z</time></trkpt><trkpt lat="40.322747" lon="14.9930068"><ele>167.0</ele><time>2026-03-29T07:55:23.162Z</time></trkpt><trkpt lat="40.3227831" lon="14.9931945"><ele>169.0</ele><time>2026-03-29T07:55:24.179Z</time></trkpt><trkpt lat="40.3228179" lon="14.9933881"><ele>171.0</ele><time>2026-03-29T07:55:25.183Z</time></trkpt><trkpt lat="40.3228354" lon="14.9935666"><ele>173.0</ele><time>2026-03-29T07:55:26.155Z</time></trkpt><trkpt lat="40.322853" lon="14.993745"><ele>175.0</ele><time>2026-03-29T07:55:27.168Z</time></trkpt><trkpt lat="40.3228688" lon="14.9939237"><ele>175.0</ele><time>2026-03-29T07:55:28.173Z</time></trkpt><trkpt lat="40.3228796" lon="14.9940865"><ele>175.0</ele><time>2026-03-29T07:55:29.141Z</time></trkpt><trkpt lat="40.3228836" lon="14.9942441"><ele>175.0</ele><time>2026-03-29T07:55:30.166Z</time></trkpt><trkpt lat="40.3228792" lon="14.9943816"><ele>175.0</ele><time>2026-03-29T07:55:31.163Z</time></trkpt><trkpt lat="40.3228701" lon="14.9944994"><ele>175.0</ele><time>2026-03-29T07:55:32.136Z</time></trkpt><trkpt lat="40.3228534" lon="14.9945893"><ele>177.4</ele><time>2026-03-29T07:55:33.157Z</time></trkpt><trkpt lat="40.3228284" lon="14.9947083"><ele>179.8</ele><time>2026-03-29T07:55:35.271Z</time></trkpt><trkpt lat="40.3228395" lon="14.994827"><ele>182.2</ele><time>2026-03-29T07:55:37.161Z</time></trkpt><trkpt lat="40.322866" lon="14.9949091"><ele>184.6</ele><time>2026-03-29T07:55:38.133Z</time></trkpt><trkpt lat="40.3229116" lon="14.9950111"><ele>187.0</ele><time>2026-03-29T07:55:39.127Z</time></trkpt><trkpt lat="40.3229659" lon="14.9951354"><ele>188.25</ele><time>2026-03-29T07:55:40.138Z</time></trkpt><trkpt lat="40.3230183" lon="14.9952638"><ele>189.5</ele><time>2026-03-29T07:55:41.14Z</time></trkpt><trkpt lat="40.3230689" lon="14.9953856"><ele>190.75</ele><time>2026-03-29T07:55:42.138Z</time></trkpt><trkpt lat="40.3231245" lon="14.9954972"><ele>192.0</ele><time>2026-03-29T07:55:43.269Z</time></trkpt><trkpt lat="40.3232545" lon="14.99564"><ele>189.6</ele><time>2026-03-29T07:55:45.13Z</time></trkpt><trkpt lat="40.3233452" lon="14.9956987"><ele>187.2</ele><time>2026-03-29T07:55:46.148Z</time></trkpt><trkpt lat="40.3234347" lon="14.9957524"><ele>184.8</ele><time>2026-03-29T07:55:47.162Z</time></trkpt><trkpt lat="40.3234945" lon="14.9958169"><ele>182.4</ele><time>2026-03-29T07:55:48.144Z</time></trkpt><trkpt lat="40.3235471" lon="14.9958987"><ele>180.0</ele><time>2026-03-29T07:55:49.152Z</time></trkpt><trkpt lat="40.323589" lon="14.9960088"><ele>180.0</ele><time>2026-03-29T07:55:50.171Z</time></trkpt><trkpt lat="40.3236204" lon="14.9961389"><ele>180.0</ele><time>2026-03-29T07:55:51.152Z</time></trkpt><trkpt lat="40.3236465" lon="14.9962849"><ele>180.0</ele><time>2026-03-29T07:55:52.172Z</time></trkpt><trkpt lat="40.3236781" lon="14.9964379"><ele>180.0</ele><time>2026-03-29T07:55:53.223Z</time></trkpt><trkpt lat="40.3237148" lon="14.9965664"><ele>180.0</ele><time>2026-03-29T07:55:54.138Z</time></trkpt><trkpt lat="40.3237646" lon="14.9966998"><ele>179.2</ele><time>2026-03-29T07:55:55.162Z</time></trkpt><trkpt lat="40.3238233" lon="14.9968173"><ele>178.4</ele><time>2026-03-29T07:55:56.136Z</time></trkpt><trkpt lat="40.323895" lon="14.9969395"><ele>177.60000000000002</ele><time>2026-03-29T07:55:57.184Z</time></trkpt><trkpt lat="40.3239594" lon="14.9970544"><ele>176.8</ele><time>2026-03-29T07:55:58.155Z</time></trkpt><trkpt lat="40.3240265" lon="14.9971705"><ele>176.0</ele><time>2026-03-29T07:55:59.139Z</time></trkpt><trkpt lat="40.3241125" lon="14.9973066"><ele>177.60000000000002</ele><time>2026-03-29T07:56:00.275Z</time></trkpt><trkpt lat="40.3242357" lon="14.9975063"><ele>179.2</ele><time>2026-03-29T07:56:02.162Z</time></trkpt><trkpt lat="40.3242827" lon="14.9976014"><ele>180.8</ele><time>2026-03-29T07:56:03.146Z</time></trkpt><trkpt lat="40.3243096" lon="14.9977025"><ele>182.39999999999998</ele><time>2026-03-29T07:56:04.13Z</time></trkpt><trkpt lat="40.3243116" lon="14.9978108"><ele>184.0</ele><time>2026-03-29T07:56:05.144Z</time></trkpt><trkpt lat="40.3242865" lon="14.9979258"><ele>184.0</ele><time>2026-03-29T07:56:06.18Z</time></trkpt><trkpt lat="40.3242465" lon="14.9980401"><ele>184.0</ele><time>2026-03-29T07:56:07.149Z</time></trkpt><trkpt lat="40.3242067" lon="14.9981703"><ele>184.0</ele><time>2026-03-29T07:56:08.164Z</time></trkpt><trkpt lat="40.3241767" lon="14.998319"><ele>184.0</ele><time>2026-03-29T07:56:09.194Z</time></trkpt><trkpt lat="40.324157" lon="14.9984775"><ele>184.0</ele><time>2026-03-29T07:56:10.146Z</time></trkpt><trkpt lat="40.3241413" lon="14.9986651"><ele>185.6</ele><time>2026-03-29T07:56:11.18Z</time></trkpt><trkpt lat="40.3241278" lon="14.9988419"><ele>187.2</ele><time>2026-03-29T07:56:12.174Z</time></trkpt><trkpt lat="40.3241201" lon="14.9989911"><ele>188.79999999999998</ele><time>2026-03-29T07:56:13.154Z</time></trkpt><trkpt lat="40.3241149" lon="14.9991287"><ele>190.39999999999998</ele><time>2026-03-29T07:56:14.142Z</time></trkpt><trkpt lat="40.3241177" lon="14.9992522"><ele>192.0</ele><time>2026-03-29T07:56:15.151Z</time></trkpt><trkpt lat="40.3241341" lon="14.9993624"><ele>194.0</ele><time>2026-03-29T07:56:16.176Z</time></trkpt><trkpt lat="40.3241635" lon="14.9994645"><ele>196.0</ele><time>2026-03-29T07:56:17.156Z</time></trkpt><trkpt lat="40.3242044" lon="14.9995744"><ele>198.0</ele><time>2026-03-29T07:56:18.166Z</time></trkpt><trkpt lat="40.3242511" lon="14.9996868"><ele>200.0</ele><time>2026-03-29T07:56:19.162Z</time></trkpt><trkpt lat="40.3243051" lon="14.9998016"><ele>202.0</ele><time>2026-03-29T07:56:20.174Z</time></trkpt><trkpt lat="40.3243685" lon="14.9999074"><ele>202.0</ele><time>2026-03-29T07:56:21.158Z</time></trkpt><trkpt lat="40.324451" lon="15.0000133"><ele>202.0</ele><time>2026-03-29T07:56:22.137Z</time></trkpt><trkpt lat="40.3245484" lon="15.000126"><ele>202.0</ele><time>2026-03-29T07:56:23.165Z</time></trkpt><trkpt lat="40.324646" lon="15.0002247"><ele>202.0</ele><time>2026-03-29T07:56:24.183Z</time></trkpt><trkpt lat="40.3247558" lon="15.000308"><ele>201.5</ele><time>2026-03-29T07:56:25.291Z</time></trkpt><trkpt lat="40.3249529" lon="15.0004144"><ele>201.0</ele><time>2026-03-29T07:56:27.164Z</time></trkpt><trkpt lat="40.3250388" lon="15.0004568"><ele>200.5</ele><time>2026-03-29T07:56:28.145Z</time></trkpt><trkpt lat="40.3251026" lon="15.0004883"><ele>200.0</ele><time>2026-03-29T07:56:29.149Z</time></trkpt><trkpt lat="40.3251988" lon="15.0005242"><ele>200.00000000000003</ele><time>2026-03-29T07:56:31.166Z</time></trkpt><trkpt lat="40.3252601" lon="15.0005431"><ele>200.0</ele><time>2026-03-29T07:56:33.174Z</time></trkpt><trkpt lat="40.3251787" lon="15.0005059"><ele>200.0</ele><time>2026-03-29T07:56:46.147Z</time></trkpt><trkpt lat="40.3250563" lon="15.0004735"><ele>200.0</ele><time>2026-03-29T07:56:48.193Z</time></trkpt><trkpt lat="40.3249888" lon="15.0004392"><ele>200.00000000000003</ele><time>2026-03-29T07:56:49.157Z</time></trkpt><trkpt lat="40.3249171" lon="15.0003972"><ele>200.0</ele><time>2026-03-29T07:56:50.205Z</time></trkpt><trkpt lat="40.3248506" lon="15.0003603"><ele>200.00000000000003</ele><time>2026-03-29T07:56:51.166Z</time></trkpt><trkpt lat="40.3247752" lon="15.000321"><ele>200.0</ele><time>2026-03-29T07:56:52.192Z</time></trkpt><trkpt lat="40.324703" lon="15.0002734"><ele>200.0</ele><time>2026-03-29T07:56:53.172Z</time></trkpt><trkpt lat="40.3246339" lon="15.000212"><ele>200.0</ele><time>2026-03-29T07:56:54.181Z</time></trkpt><trkpt lat="40.3245706" lon="15.0001447"><ele>200.00000000000003</ele><time>2026-03-29T07:56:55.194Z</time></trkpt><trkpt lat="40.3245132" lon="15.0000777"><ele>200.0</ele><time>2026-03-29T07:56:56.175Z</time></trkpt><trkpt lat="40.3244556" lon="15.0000128"><ele>200.33333333333334</ele><time>2026-03-29T07:56:57.173Z</time></trkpt><trkpt lat="40.3243989" lon="14.9999508"><ele>200.66666666666669</ele><time>2026-03-29T07:56:58.156Z</time></trkpt><trkpt lat="40.3243489" lon="14.9998812"><ele>201.0</ele><time>2026-03-29T07:56:59.165Z</time></trkpt><trkpt lat="40.3243102" lon="14.9998033"><ele>201.33333333333331</ele><time>2026-03-29T07:57:00.184Z</time></trkpt><trkpt lat="40.3242788" lon="14.9997268"><ele>201.66666666666666</ele><time>2026-03-29T07:57:01.187Z</time></trkpt><trkpt lat="40.324248" lon="14.9996535"><ele>202.0</ele><time>2026-03-29T07:57:02.185Z</time></trkpt><trkpt lat="40.3241896" lon="14.9995188"><ele>201.99999999999997</ele><time>2026-03-29T07:57:04.16Z</time></trkpt><trkpt lat="40.3241544" lon="14.9994239"><ele>202.0</ele><time>2026-03-29T07:57:06.271Z</time></trkpt><trkpt lat="40.3240927" lon="14.9994019"><ele>202.0</ele><time>2026-03-29T07:57:10.171Z</time></trkpt><trkpt lat="40.3240249" lon="14.9994546"><ele>202.0</ele><time>2026-03-29T07:57:13.139Z</time></trkpt><trkpt lat="40.323963" lon="14.9995164"><ele>201.99999999999997</ele><time>2026-03-29T07:57:15.148Z</time></trkpt><trkpt lat="40.3239008" lon="14.9995889"><ele>202.0</ele><time>2026-03-29T07:57:17.162Z</time></trkpt><trkpt lat="40.3238339" lon="14.9996574"><ele>203.14285714285714</ele><time>2026-03-29T07:57:19.186Z</time></trkpt><trkpt lat="40.3237831" lon="14.9997339"><ele>204.28571428571428</ele><time>2026-03-29T07:57:21.176Z</time></trkpt><trkpt lat="40.3237428" lon="14.9998014"><ele>205.42857142857144</ele><time>2026-03-29T07:57:23.16Z</time></trkpt><trkpt lat="40.3237061" lon="14.9998759"><ele>206.57142857142856</ele><time>2026-03-29T07:57:25.183Z</time></trkpt><trkpt lat="40.3236765" lon="14.9999587"><ele>207.71428571428572</ele><time>2026-03-29T07:57:27.165Z</time></trkpt><trkpt lat="40.3236411" lon="15.0000491"><ele>208.85714285714286</ele><time>2026-03-29T07:57:29.16Z</time></trkpt><trkpt lat="40.3236136" lon="15.0001382"><ele>210.0</ele><time>2026-03-29T07:57:31.206Z</time></trkpt><trkpt lat="40.3235853" lon="15.000237"><ele>210.0</ele><time>2026-03-29T07:57:33.187Z</time></trkpt><trkpt lat="40.3235679" lon="15.000393"><ele>210.0</ele><time>2026-03-29T07:57:36.137Z</time></trkpt><trkpt lat="40.3235581" lon="15.0004888"><ele>210.0</ele><time>2026-03-29T07:57:38.186Z</time></trkpt><trkpt lat="40.3234908" lon="15.0004902"><ele>210.0</ele><time>2026-03-29T07:57:43.162Z</time></trkpt><trkpt lat="40.3234492" lon="15.0004058"><ele>210.0</ele><time>2026-03-29T07:57:46.147Z</time></trkpt><trkpt lat="40.3234019" lon="15.0003293"><ele>210.0</ele><time>2026-03-29T07:57:48.15Z</time></trkpt><trkpt lat="40.3233501" lon="15.0002514"><ele>210.0</ele><time>2026-03-29T07:57:50.148Z</time></trkpt><trkpt lat="40.3233073" lon="15.0001627"><ele>210.0</ele><time>2026-03-29T07:57:52.189Z</time></trkpt><trkpt lat="40.3232703" lon="15.0000522"><ele>210.0</ele><time>2026-03-29T07:57:54.176Z</time></trkpt><trkpt lat="40.3232341" lon="14.9999371"><ele>210.0</ele><time>2026-03-29T07:57:56.17Z</time></trkpt><trkpt lat="40.3231756" lon="14.999812"><ele>210.0</ele><time>2026-03-29T07:57:58.208Z</time></trkpt><trkpt lat="40.3230985" lon="14.9996931"><ele>211.0</ele><time>2026-03-29T07:58:00.164Z</time></trkpt><trkpt lat="40.3230528" lon="14.9996279"><ele>212.0</ele><time>2026-03-29T07:58:01.173Z</time></trkpt><trkpt lat="40.3230075" lon="14.9995624"><ele>213.0</ele><time>2026-03-29T07:58:02.158Z</time></trkpt><trkpt lat="40.3229663" lon="14.9994915"><ele>214.0</ele><time>2026-03-29T07:58:03.154Z</time></trkpt><trkpt lat="40.3229232" lon="14.9994271"><ele>215.0</ele><time>2026-03-29T07:58:04.14Z</time></trkpt><trkpt lat="40.3228799" lon="14.9993659"><ele>216.0</ele><time>2026-03-29T07:58:05.155Z</time></trkpt><trkpt lat="40.3228084" lon="14.9992537"><ele>217.0</ele><time>2026-03-29T07:58:07.153Z</time></trkpt><trkpt lat="40.3227435" lon="14.9991154"><ele>217.0</ele><time>2026-03-29T07:58:09.169Z</time></trkpt><trkpt lat="40.3227212" lon="14.9989967"><ele>217.0</ele><time>2026-03-29T07:58:11.154Z</time></trkpt><trkpt lat="40.3227175" lon="14.9988448"><ele>217.0</ele><time>2026-03-29T07:58:13.148Z</time></trkpt><trkpt lat="40.3227131" lon="14.9987516"><ele>217.0</ele><time>2026-03-29T07:58:14.156Z</time></trkpt><trkpt lat="40.3227054" lon="14.9986422"><ele>217.0</ele><time>2026-03-29T07:58:15.315Z</time></trkpt><trkpt lat="40.322691" lon="14.9984762"><ele>217.0</ele><time>2026-03-29T07:58:17.154Z</time></trkpt><trkpt lat="40.3226855" lon="14.9983147"><ele>217.0</ele><time>2026-03-29T07:58:19.143Z</time></trkpt><trkpt lat="40.3226802" lon="14.9981644"><ele>217.0</ele><time>2026-03-29T07:58:21.182Z</time></trkpt><trkpt lat="40.3226647" lon="14.9980005"><ele>217.0</ele><time>2026-03-29T07:58:23.174Z</time></trkpt><trkpt lat="40.3226519" lon="14.9979173"><ele>217.0</ele><time>2026-03-29T07:58:24.164Z</time></trkpt><trkpt lat="40.322629" lon="14.997758"><ele>217.0</ele><time>2026-03-29T07:58:26.162Z</time></trkpt><trkpt lat="40.3226012" lon="14.9976103"><ele>217.0</ele><time>2026-03-29T07:58:28.162Z</time></trkpt><trkpt lat="40.3225717" lon="14.9975005"><ele>217.0</ele><time>2026-03-29T07:58:30.173Z</time></trkpt><trkpt lat="40.3225419" lon="14.9974053"><ele>217.0</ele><time>2026-03-29T07:58:32.159Z</time></trkpt><trkpt lat="40.3224968" lon="14.9973072"><ele>217.0</ele><time>2026-03-29T07:58:34.145Z</time></trkpt><trkpt lat="40.3224377" lon="14.9972203"><ele>216.49999999999997</ele><time>2026-03-29T07:58:36.149Z</time></trkpt><trkpt lat="40.3223802" lon="14.9971544"><ele>216.0</ele><time>2026-03-29T07:58:38.144Z</time></trkpt><trkpt lat="40.3223243" lon="14.9971019"><ele>215.5</ele><time>2026-03-29T07:58:40.166Z</time></trkpt><trkpt lat="40.3222538" lon="14.9970404"><ele>215.0</ele><time>2026-03-29T07:58:42.174Z</time></trkpt><trkpt lat="40.322176" lon="14.9969528"><ele>214.49999999999997</ele><time>2026-03-29T07:58:44.183Z</time></trkpt><trkpt lat="40.3221281" lon="14.996885"><ele>214.0</ele><time>2026-03-29T07:58:46.146Z</time></trkpt><trkpt lat="40.3220752" lon="14.996815"><ele>213.99999999999997</ele><time>2026-03-29T07:58:49.268Z</time></trkpt><trkpt lat="40.3220094" lon="14.9967482"><ele>214.0</ele><time>2026-03-29T07:58:52.176Z</time></trkpt><trkpt lat="40.3219536" lon="14.9966839"><ele>214.0</ele><time>2026-03-29T07:58:55.168Z</time></trkpt><trkpt lat="40.3218895" lon="14.9966334"><ele>214.0</ele><time>2026-03-29T07:58:58.169Z</time></trkpt><trkpt lat="40.3218426" lon="14.9965691"><ele>213.99999999999997</ele><time>2026-03-29T07:59:00.184Z</time></trkpt><trkpt lat="40.3217848" lon="14.9964608"><ele>214.0</ele><time>2026-03-29T07:59:03.152Z</time></trkpt><trkpt lat="40.321725" lon="14.9963839"><ele>213.99999999999997</ele><time>2026-03-29T07:59:06.183Z</time></trkpt><trkpt lat="40.3216366" lon="14.9962951"><ele>214.0</ele><time>2026-03-29T07:59:10.156Z</time></trkpt><trkpt lat="40.3215847" lon="14.99621"><ele>214.0</ele><time>2026-03-29T07:59:13.168Z</time></trkpt><trkpt lat="40.3215427" lon="14.996126"><ele>214.0</ele><time>2026-03-29T07:59:17.274Z</time></trkpt><trkpt lat="40.3215034" lon="14.9960303"><ele>213.99999999999997</ele><time>2026-03-29T07:59:20.147Z</time></trkpt><trkpt lat="40.3214677" lon="14.9959412"><ele>214.0</ele><time>2026-03-29T07:59:22.19Z</time></trkpt><trkpt lat="40.3214302" lon="14.9958488"><ele>213.42857142857144</ele><time>2026-03-29T07:59:24.176Z</time></trkpt><trkpt lat="40.3213875" lon="14.995742"><ele>212.85714285714286</ele><time>2026-03-29T07:59:26.171Z</time></trkpt><trkpt lat="40.3213424" lon="14.9956686"><ele>212.28571428571428</ele><time>2026-03-29T07:59:28.155Z</time></trkpt><trkpt lat="40.3212964" lon="14.9956073"><ele>211.71428571428572</ele><time>2026-03-29T07:59:30.264Z</time></trkpt><trkpt lat="40.3212497" lon="14.9955318"><ele>211.14285714285714</ele><time>2026-03-29T07:59:33.166Z</time></trkpt><trkpt lat="40.3212121" lon="14.9954586"><ele>210.57142857142858</ele><time>2026-03-29T07:59:36.143Z</time></trkpt><trkpt lat="40.3211706" lon="14.9953802"><ele>210.0</ele><time>2026-03-29T07:59:40.136Z</time></trkpt><trkpt lat="40.3211321" lon="14.9952982"><ele>210.0</ele><time>2026-03-29T07:59:44.287Z</time></trkpt><trkpt lat="40.3210903" lon="14.9952113"><ele>210.0</ele><time>2026-03-29T07:59:50.145Z</time></trkpt><trkpt lat="40.3210483" lon="14.9951258"><ele>210.0</ele><time>2026-03-29T07:59:53.179Z</time></trkpt><trkpt lat="40.3210129" lon="14.9950545"><ele>210.0</ele><time>2026-03-29T07:59:55.192Z</time></trkpt><trkpt lat="40.3209835" lon="14.99498"><ele>210.0</ele><time>2026-03-29T07:59:57.153Z</time></trkpt><trkpt lat="40.3209483" lon="14.9948915"><ele>210.0</ele><time>2026-03-29T07:59:59.158Z</time></trkpt><trkpt lat="40.320909" lon="14.994794"><ele>210.0</ele><time>2026-03-29T08:00:01.162Z</time></trkpt><trkpt lat="40.320867" lon="14.994684"><ele>211.83333333333334</ele><time>2026-03-29T08:00:03.145Z</time></trkpt><trkpt lat="40.3208301" lon="14.9945594"><ele>213.66666666666669</ele><time>2026-03-29T08:00:05.157Z</time></trkpt><trkpt lat="40.3207985" lon="14.9944495"><ele>215.5</ele><time>2026-03-29T08:00:07.175Z</time></trkpt><trkpt lat="40.3207552" lon="14.9943397"><ele>217.33333333333334</ele><time>2026-03-29T08:00:09.178Z</time></trkpt><trkpt lat="40.320706" lon="14.9942817"><ele>219.16666666666669</ele><time>2026-03-29T08:00:13.188Z</time></trkpt><trkpt lat="40.3206688" lon="14.9941883"><ele>221.0</ele><time>2026-03-29T08:00:20.145Z</time></trkpt><trkpt lat="40.3206149" lon="14.9941123"><ele>218.33333333333334</ele><time>2026-03-29T08:00:25.168Z</time></trkpt><trkpt lat="40.3205583" lon="14.994028"><ele>215.66666666666669</ele><time>2026-03-29T08:00:28.166Z</time></trkpt><trkpt lat="40.3205153" lon="14.9939438"><ele>213.0</ele><time>2026-03-29T08:00:30.178Z</time></trkpt><trkpt lat="40.3204748" lon="14.9938619"><ele>210.33333333333331</ele><time>2026-03-29T08:00:32.181Z</time></trkpt><trkpt lat="40.3204262" lon="14.9937959"><ele>207.66666666666666</ele><time>2026-03-29T08:00:34.189Z</time></trkpt><trkpt lat="40.3203753" lon="14.9937152"><ele>205.0</ele><time>2026-03-29T08:00:37.194Z</time></trkpt><trkpt lat="40.3203421" lon="14.9936071"><ele>204.99999999999997</ele><time>2026-03-29T08:00:40.197Z</time></trkpt><trkpt lat="40.320281" lon="14.9935233"><ele>205.0</ele><time>2026-03-29T08:00:43.164Z</time></trkpt><trkpt lat="40.3202225" lon="14.9934503"><ele>205.0</ele><time>2026-03-29T08:00:46.17Z</time></trkpt><trkpt lat="40.3201756" lon="14.9933512"><ele>205.0</ele><time>2026-03-29T08:00:49.156Z</time></trkpt><trkpt lat="40.3201293" lon="14.9932536"><ele>204.99999999999997</ele><time>2026-03-29T08:00:52.142Z</time></trkpt><trkpt lat="40.3200728" lon="14.9931909"><ele>205.0</ele><time>2026-03-29T08:00:55.152Z</time></trkpt><trkpt lat="40.3200189" lon="14.993107"><ele>207.33333333333331</ele><time>2026-03-29T08:00:58.195Z</time></trkpt><trkpt lat="40.319976" lon="14.9930172"><ele>209.66666666666666</ele><time>2026-03-29T08:01:01.161Z</time></trkpt><trkpt lat="40.3199445" lon="14.9929342"><ele>212.0</ele><time>2026-03-29T08:01:03.182Z</time></trkpt><trkpt lat="40.319913" lon="14.9928402"><ele>214.33333333333331</ele><time>2026-03-29T08:01:05.198Z</time></trkpt><trkpt lat="40.3198789" lon="14.9927656"><ele>216.66666666666666</ele><time>2026-03-29T08:01:07.184Z</time></trkpt><trkpt lat="40.3198511" lon="14.9926897"><ele>219.0</ele><time>2026-03-29T08:01:10.184Z</time></trkpt><trkpt lat="40.3198122" lon="14.9925821"><ele>219.0</ele><time>2026-03-29T08:01:13.213Z</time></trkpt><trkpt lat="40.3197786" lon="14.9924903"><ele>219.0</ele><time>2026-03-29T08:01:15.251Z</time></trkpt><trkpt lat="40.3197611" lon="14.9923939"><ele>219.0</ele><time>2026-03-29T08:01:17.208Z</time></trkpt><trkpt lat="40.3197483" lon="14.9922978"><ele>219.0</ele><time>2026-03-29T08:01:20.223Z</time></trkpt><trkpt lat="40.3197188" lon="14.9922067"><ele>219.0</ele><time>2026-03-29T08:01:23.227Z</time></trkpt><trkpt lat="40.3196921" lon="14.9921008"><ele>219.0</ele><time>2026-03-29T08:01:26.441Z</time></trkpt><trkpt lat="40.3196633" lon="14.9920189"><ele>218.0</ele><time>2026-03-29T08:01:31.243Z</time></trkpt><trkpt lat="40.3196206" lon="14.991942"><ele>217.0</ele><time>2026-03-29T08:01:34.208Z</time></trkpt><trkpt lat="40.3195562" lon="14.9918303"><ele>216.0</ele><time>2026-03-29T08:01:37.182Z</time></trkpt><trkpt lat="40.3195225" lon="14.9917477"><ele>215.0</ele><time>2026-03-29T08:01:39.174Z</time></trkpt><trkpt lat="40.3195039" lon="14.9916677"><ele>214.0</ele><time>2026-03-29T08:01:41.14Z</time></trkpt><trkpt lat="40.3194787" lon="14.9915523"><ele>213.0</ele><time>2026-03-29T08:01:44.168Z</time></trkpt><trkpt lat="40.3194534" lon="14.9914702"><ele>212.99999999999997</ele><time>2026-03-29T08:01:46.156Z</time></trkpt><trkpt lat="40.3194172" lon="14.9913843"><ele>213.0</ele><time>2026-03-29T08:01:49.158Z</time></trkpt><trkpt lat="40.3193762" lon="14.9913198"><ele>213.0</ele><time>2026-03-29T08:02:00.172Z</time></trkpt><trkpt lat="40.3193322" lon="14.9912505"><ele>213.0</ele><time>2026-03-29T08:02:12.167Z</time></trkpt><trkpt lat="40.3192944" lon="14.991182"><ele>213.0</ele><time>2026-03-29T08:02:20.176Z</time></trkpt><trkpt lat="40.3192624" lon="14.9911089"><ele>212.99999999999997</ele><time>2026-03-29T08:02:28.164Z</time></trkpt><trkpt lat="40.3192371" lon="14.9910308"><ele>213.0</ele><time>2026-03-29T08:02:34.167Z</time></trkpt><trkpt lat="40.3192182" lon="14.9909397"><ele>212.99999999999997</ele><time>2026-03-29T08:02:40.159Z</time></trkpt><trkpt lat="40.3192244" lon="14.9908489"><ele>213.0</ele><time>2026-03-29T08:03:24.162Z</time></trkpt><trkpt lat="40.3191941" lon="14.9907758"><ele>213.0</ele><time>2026-03-29T08:03:32.159Z</time></trkpt><trkpt lat="40.3191549" lon="14.9907013"><ele>213.0</ele><time>2026-03-29T08:03:42.181Z</time></trkpt><trkpt lat="40.3191129" lon="14.9906382"><ele>213.0</ele><time>2026-03-29T08:03:59.161Z</time></trkpt><trkpt lat="40.3190818" lon="14.990551"><ele>212.99999999999997</ele><time>2026-03-29T08:04:06.16Z</time></trkpt><trkpt lat="40.319058" lon="14.9904633"><ele>213.0</ele><time>2026-03-29T08:04:11.168Z</time></trkpt><trkpt lat="40.319026" lon="14.9903638"><ele>211.8</ele><time>2026-03-29T08:04:14.188Z</time></trkpt><trkpt lat="40.3189924" lon="14.9902603"><ele>210.60000000000002</ele><time>2026-03-29T08:04:17.16Z</time></trkpt><trkpt lat="40.3189572" lon="14.9901661"><ele>209.39999999999998</ele><time>2026-03-29T08:04:20.143Z</time></trkpt><trkpt lat="40.3189229" lon="14.9900492"><ele>208.2</ele><time>2026-03-29T08:04:23.185Z</time></trkpt><trkpt lat="40.3188956" lon="14.9899338"><ele>207.0</ele><time>2026-03-29T08:04:26.192Z</time></trkpt><trkpt lat="40.3188758" lon="14.9898092"><ele>203.16666666666666</ele><time>2026-03-29T08:04:29.216Z</time></trkpt><trkpt lat="40.3188488" lon="14.989688"><ele>199.33333333333334</ele><time>2026-03-29T08:04:32.285Z</time></trkpt><trkpt lat="40.3188148" lon="14.9895782"><ele>195.5</ele><time>2026-03-29T08:04:35.159Z</time></trkpt><trkpt lat="40.3187856" lon="14.989504"><ele>191.66666666666669</ele><time>2026-03-29T08:04:37.163Z</time></trkpt><trkpt lat="40.3187508" lon="14.9894159"><ele>187.83333333333334</ele><time>2026-03-29T08:04:39.182Z</time></trkpt><trkpt lat="40.3187096" lon="14.9893326"><ele>184.0</ele><time>2026-03-29T08:04:41.165Z</time></trkpt><trkpt lat="40.3186599" lon="14.9892494"><ele>184.0</ele><time>2026-03-29T08:04:43.158Z</time></trkpt><trkpt lat="40.318624" lon="14.9891788"><ele>184.0</ele><time>2026-03-29T08:04:45.167Z</time></trkpt><trkpt lat="40.3185684" lon="14.9890781"><ele>184.0</ele><time>2026-03-29T08:04:48.168Z</time></trkpt><trkpt lat="40.318532" lon="14.9889909"><ele>184.0</ele><time>2026-03-29T08:04:51.27Z</time></trkpt><trkpt lat="40.318548" lon="14.9889071"><ele>184.0</ele><time>2026-03-29T08:18:40.228Z</time></trkpt><trkpt lat="40.3185342" lon="14.9888212"><ele>184.0</ele><time>2026-03-29T08:18:42.208Z</time></trkpt><trkpt lat="40.3184799" lon="14.9886793"><ele>185.66666666666669</ele><time>2026-03-29T08:18:44.213Z</time></trkpt><trkpt lat="40.3184501" lon="14.9886022"><ele>187.33333333333334</ele><time>2026-03-29T08:18:45.194Z</time></trkpt><trkpt lat="40.3184146" lon="14.9885108"><ele>189.0</ele><time>2026-03-29T08:18:46.18Z</time></trkpt><trkpt lat="40.3183723" lon="14.9884014"><ele>190.66666666666669</ele><time>2026-03-29T08:18:47.198Z</time></trkpt><trkpt lat="40.3183293" lon="14.988283"><ele>192.33333333333334</ele><time>2026-03-29T08:18:48.2Z</time></trkpt><trkpt lat="40.3182867" lon="14.9881548"><ele>194.0</ele><time>2026-03-29T08:18:49.206Z</time></trkpt><trkpt lat="40.3182414" lon="14.9880245"><ele>196.25</ele><time>2026-03-29T08:18:50.202Z</time></trkpt><trkpt lat="40.3181896" lon="14.9878815"><ele>198.5</ele><time>2026-03-29T08:18:51.208Z</time></trkpt><trkpt lat="40.3181379" lon="14.9877377"><ele>200.75</ele><time>2026-03-29T08:18:52.199Z</time></trkpt><trkpt lat="40.3180866" lon="14.9876048"><ele>203.0</ele><time>2026-03-29T08:18:53.2Z</time></trkpt><trkpt lat="40.3180373" lon="14.9874843"><ele>204.4</ele><time>2026-03-29T08:18:54.2Z</time></trkpt><trkpt lat="40.3179884" lon="14.9873728"><ele>205.8</ele><time>2026-03-29T08:18:55.182Z</time></trkpt><trkpt lat="40.3179302" lon="14.9872655"><ele>207.2</ele><time>2026-03-29T08:18:56.215Z</time></trkpt><trkpt lat="40.3178619" lon="14.98718"><ele>208.6</ele><time>2026-03-29T08:18:57.208Z</time></trkpt><trkpt lat="40.3177754" lon="14.9871085"><ele>210.0</ele><time>2026-03-29T08:18:58.219Z</time></trkpt><trkpt lat="40.3176862" lon="14.9870416"><ele>210.0</ele><time>2026-03-29T08:18:59.228Z</time></trkpt><trkpt lat="40.3176155" lon="14.9869557"><ele>210.0</ele><time>2026-03-29T08:19:00.207Z</time></trkpt><trkpt lat="40.317554" lon="14.9868465"><ele>210.0</ele><time>2026-03-29T08:19:01.187Z</time></trkpt><trkpt lat="40.3174977" lon="14.9867185"><ele>210.0</ele><time>2026-03-29T08:19:02.221Z</time></trkpt><trkpt lat="40.3174585" lon="14.9865803"><ele>210.0</ele><time>2026-03-29T08:19:03.246Z</time></trkpt><trkpt lat="40.3174427" lon="14.9864491"><ele>211.0</ele><time>2026-03-29T08:19:04.222Z</time></trkpt><trkpt lat="40.3174392" lon="14.9863287"><ele>212.0</ele><time>2026-03-29T08:19:05.234Z</time></trkpt><trkpt lat="40.3174262" lon="14.9862383"><ele>213.0</ele><time>2026-03-29T08:19:06.204Z</time></trkpt><trkpt lat="40.3173384" lon="14.9861056"><ele>214.0</ele><time>2026-03-29T08:19:08.194Z</time></trkpt><trkpt lat="40.3172671" lon="14.9860405"><ele>215.0</ele><time>2026-03-29T08:19:09.246Z</time></trkpt><trkpt lat="40.3171914" lon="14.9859883"><ele>216.66666666666669</ele><time>2026-03-29T08:19:10.229Z</time></trkpt><trkpt lat="40.3171058" lon="14.9859462"><ele>218.33333333333334</ele><time>2026-03-29T08:19:11.236Z</time></trkpt><trkpt lat="40.3170168" lon="14.9859126"><ele>220.0</ele><time>2026-03-29T08:19:12.234Z</time></trkpt><trkpt lat="40.3169344" lon="14.9858818"><ele>221.66666666666669</ele><time>2026-03-29T08:19:13.203Z</time></trkpt><trkpt lat="40.3168606" lon="14.9858646"><ele>223.33333333333334</ele><time>2026-03-29T08:19:14.219Z</time></trkpt><trkpt lat="40.3167844" lon="14.9858427"><ele>225.0</ele><time>2026-03-29T08:19:15.192Z</time></trkpt><trkpt lat="40.3167026" lon="14.985825"><ele>225.2</ele><time>2026-03-29T08:19:16.211Z</time></trkpt><trkpt lat="40.3166293" lon="14.9858133"><ele>225.4</ele><time>2026-03-29T08:19:17.22Z</time></trkpt><trkpt lat="40.316528" lon="14.9857738"><ele>225.60000000000002</ele><time>2026-03-29T08:19:19.209Z</time></trkpt><trkpt lat="40.3164662" lon="14.9856726"><ele>225.8</ele><time>2026-03-29T08:19:21.229Z</time></trkpt><trkpt lat="40.3164211" lon="14.9855349"><ele>226.0</ele><time>2026-03-29T08:19:23.187Z</time></trkpt><trkpt lat="40.316392" lon="14.9854246"><ele>227.99999999999997</ele><time>2026-03-29T08:19:25.193Z</time></trkpt><trkpt lat="40.3163419" lon="14.9853047"><ele>230.0</ele><time>2026-03-29T08:19:27.192Z</time></trkpt><trkpt lat="40.3163162" lon="14.9852227"><ele>232.0</ele><time>2026-03-29T08:19:28.229Z</time></trkpt><trkpt lat="40.3162887" lon="14.9851385"><ele>234.0</ele><time>2026-03-29T08:19:29.199Z</time></trkpt><trkpt lat="40.3162464" lon="14.9850484"><ele>235.99999999999997</ele><time>2026-03-29T08:19:30.181Z</time></trkpt><trkpt lat="40.3161958" lon="14.9849606"><ele>238.0</ele><time>2026-03-29T08:19:31.19Z</time></trkpt><trkpt lat="40.3161463" lon="14.9848815"><ele>238.0</ele><time>2026-03-29T08:19:32.201Z</time></trkpt><trkpt lat="40.3161056" lon="14.9848142"><ele>238.0</ele><time>2026-03-29T08:19:33.217Z</time></trkpt><trkpt lat="40.3160536" lon="14.9847062"><ele>238.0</ele><time>2026-03-29T08:19:35.177Z</time></trkpt><trkpt lat="40.3160544" lon="14.984564"><ele>238.0</ele><time>2026-03-29T08:19:37.252Z</time></trkpt><trkpt lat="40.3160621" lon="14.984404"><ele>238.0</ele><time>2026-03-29T08:19:39.195Z</time></trkpt><trkpt lat="40.3160688" lon="14.984321"><ele>238.0</ele><time>2026-03-29T08:19:40.202Z</time></trkpt><trkpt lat="40.3160693" lon="14.984175"><ele>238.0</ele><time>2026-03-29T08:19:42.207Z</time></trkpt><trkpt lat="40.3160609" lon="14.9840505"><ele>238.0</ele><time>2026-03-29T08:19:44.198Z</time></trkpt><trkpt lat="40.3160512" lon="14.9839227"><ele>238.0</ele><time>2026-03-29T08:19:46.214Z</time></trkpt><trkpt lat="40.3160566" lon="14.9838025"><ele>238.0</ele><time>2026-03-29T08:19:48.196Z</time></trkpt><trkpt lat="40.3160655" lon="14.9836932"><ele>237.99999999999997</ele><time>2026-03-29T08:19:50.195Z</time></trkpt><trkpt lat="40.3160795" lon="14.9835869"><ele>238.0</ele><time>2026-03-29T08:19:52.219Z</time></trkpt><trkpt lat="40.3161024" lon="14.9835044"><ele>238.0</ele><time>2026-03-29T08:19:54.168Z</time></trkpt><trkpt lat="40.3161372" lon="14.9834182"><ele>238.0</ele><time>2026-03-29T08:19:56.197Z</time></trkpt><trkpt lat="40.3161818" lon="14.9833146"><ele>237.99999999999997</ele><time>2026-03-29T08:20:00.203Z</time></trkpt><trkpt lat="40.316201" lon="14.9831868"><ele>238.0</ele><time>2026-03-29T08:20:02.186Z</time></trkpt><trkpt lat="40.3162282" lon="14.9830594"><ele>238.4</ele><time>2026-03-29T08:20:04.198Z</time></trkpt><trkpt lat="40.3162761" lon="14.9829462"><ele>238.8</ele><time>2026-03-29T08:20:05.203Z</time></trkpt><trkpt lat="40.316283" lon="14.982823"><ele>239.2</ele><time>2026-03-29T08:20:07.19Z</time></trkpt><trkpt lat="40.3162988" lon="14.9826916"><ele>239.6</ele><time>2026-03-29T08:20:09.196Z</time></trkpt><trkpt lat="40.3163323" lon="14.9825648"><ele>240.0</ele><time>2026-03-29T08:20:11.2Z</time></trkpt><trkpt lat="40.3163467" lon="14.9824236"><ele>240.0</ele><time>2026-03-29T08:20:13.199Z</time></trkpt><trkpt lat="40.3163609" lon="14.982289"><ele>240.0</ele><time>2026-03-29T08:20:15.203Z</time></trkpt><trkpt lat="40.3163824" lon="14.9821692"><ele>240.0</ele><time>2026-03-29T08:20:17.23Z</time></trkpt><trkpt lat="40.3164072" lon="14.982069"><ele>240.0</ele><time>2026-03-29T08:20:19.205Z</time></trkpt><trkpt lat="40.3164351" lon="14.9819634"><ele>240.0</ele><time>2026-03-29T08:20:21.196Z</time></trkpt><trkpt lat="40.3164465" lon="14.9818591"><ele>240.0</ele><time>2026-03-29T08:20:23.229Z</time></trkpt><trkpt lat="40.3164203" lon="14.9817043"><ele>239.0</ele><time>2026-03-29T08:20:26.229Z</time></trkpt><trkpt lat="40.3163856" lon="14.9816033"><ele>238.0</ele><time>2026-03-29T08:20:28.185Z</time></trkpt><trkpt lat="40.3163385" lon="14.981493"><ele>237.0</ele><time>2026-03-29T08:20:30.197Z</time></trkpt><trkpt lat="40.3162781" lon="14.9813619"><ele>236.0</ele><time>2026-03-29T08:20:32.295Z</time></trkpt><trkpt lat="40.3162281" lon="14.9812679"><ele>235.0</ele><time>2026-03-29T08:20:34.179Z</time></trkpt><trkpt lat="40.3161597" lon="14.9811529"><ele>235.0</ele><time>2026-03-29T08:20:36.172Z</time></trkpt><trkpt lat="40.316095" lon="14.9810471"><ele>235.0</ele><time>2026-03-29T08:20:38.182Z</time></trkpt><trkpt lat="40.3160384" lon="14.980929"><ele>235.0</ele><time>2026-03-29T08:20:40.191Z</time></trkpt><trkpt lat="40.3159852" lon="14.9808196"><ele>235.0</ele><time>2026-03-29T08:20:42.195Z</time></trkpt><trkpt lat="40.3159049" lon="14.98071"><ele>235.0</ele><time>2026-03-29T08:20:44.184Z</time></trkpt><trkpt lat="40.3158155" lon="14.9806152"><ele>233.4</ele><time>2026-03-29T08:20:46.194Z</time></trkpt><trkpt lat="40.3157354" lon="14.9805299"><ele>231.8</ele><time>2026-03-29T08:20:48.224Z</time></trkpt><trkpt lat="40.3156596" lon="14.9804265"><ele>230.2</ele><time>2026-03-29T08:20:50.214Z</time></trkpt><trkpt lat="40.3155873" lon="14.9803346"><ele>228.6</ele><time>2026-03-29T08:20:52.209Z</time></trkpt><trkpt lat="40.3155189" lon="14.9802608"><ele>227.0</ele><time>2026-03-29T08:20:54.191Z</time></trkpt><trkpt lat="40.3154731" lon="14.9801698"><ele>224.8</ele><time>2026-03-29T08:20:56.205Z</time></trkpt><trkpt lat="40.3154404" lon="14.9800628"><ele>222.6</ele><time>2026-03-29T08:20:58.216Z</time></trkpt><trkpt lat="40.3154181" lon="14.9799433"><ele>220.40000000000003</ele><time>2026-03-29T08:21:00.215Z</time></trkpt><trkpt lat="40.3153886" lon="14.9797992"><ele>218.20000000000002</ele><time>2026-03-29T08:21:02.203Z</time></trkpt><trkpt lat="40.3153566" lon="14.9796426"><ele>216.0</ele><time>2026-03-29T08:21:04.205Z</time></trkpt><trkpt lat="40.3153233" lon="14.9794849"><ele>215.60000000000002</ele><time>2026-03-29T08:21:06.219Z</time></trkpt><trkpt lat="40.3152897" lon="14.9793236"><ele>215.20000000000002</ele><time>2026-03-29T08:21:08.2Z</time></trkpt><trkpt lat="40.3152714" lon="14.9792389"><ele>214.79999999999998</ele><time>2026-03-29T08:21:09.165Z</time></trkpt><trkpt lat="40.31526" lon="14.9791572"><ele>214.39999999999998</ele><time>2026-03-29T08:21:10.186Z</time></trkpt><trkpt lat="40.3152396" lon="14.979008"><ele>214.0</ele><time>2026-03-29T08:21:12.199Z</time></trkpt><trkpt lat="40.3152174" lon="14.9788471"><ele>213.99999999999997</ele><time>2026-03-29T08:21:14.184Z</time></trkpt><trkpt lat="40.3152038" lon="14.9787597"><ele>214.0</ele><time>2026-03-29T08:21:15.185Z</time></trkpt><trkpt lat="40.3151898" lon="14.9786687"><ele>214.0</ele><time>2026-03-29T08:21:16.194Z</time></trkpt><trkpt lat="40.3151804" lon="14.9785853"><ele>214.0</ele><time>2026-03-29T08:21:17.206Z</time></trkpt><trkpt lat="40.315184" lon="14.9785026"><ele>213.99999999999997</ele><time>2026-03-29T08:21:18.31Z</time></trkpt><trkpt lat="40.3152063" lon="14.978356"><ele>214.0</ele><time>2026-03-29T08:21:20.211Z</time></trkpt><trkpt lat="40.3152332" lon="14.9781993"><ele>214.49999999999997</ele><time>2026-03-29T08:21:22.205Z</time></trkpt><trkpt lat="40.3152459" lon="14.9781181"><ele>215.0</ele><time>2026-03-29T08:21:23.225Z</time></trkpt><trkpt lat="40.315262" lon="14.978037"><ele>215.5</ele><time>2026-03-29T08:21:24.19Z</time></trkpt><trkpt lat="40.3152796" lon="14.9779555"><ele>216.0</ele><time>2026-03-29T08:21:25.199Z</time></trkpt><trkpt lat="40.3153019" lon="14.9778085"><ele>216.49999999999997</ele><time>2026-03-29T08:21:27.205Z</time></trkpt><trkpt lat="40.3153136" lon="14.9776473"><ele>217.0</ele><time>2026-03-29T08:21:29.223Z</time></trkpt><trkpt lat="40.315314" lon="14.9775007"><ele>215.6</ele><time>2026-03-29T08:21:31.181Z</time></trkpt><trkpt lat="40.3153052" lon="14.9773468"><ele>214.2</ele><time>2026-03-29T08:21:33.188Z</time></trkpt><trkpt lat="40.3152859" lon="14.97721"><ele>212.8</ele><time>2026-03-29T08:21:35.188Z</time></trkpt><trkpt lat="40.3152582" lon="14.9770845"><ele>211.4</ele><time>2026-03-29T08:21:37.296Z</time></trkpt><trkpt lat="40.3152137" lon="14.9769871"><ele>210.0</ele><time>2026-03-29T08:21:39.186Z</time></trkpt><trkpt lat="40.3151651" lon="14.9769155"><ele>210.0</ele><time>2026-03-29T08:21:41.228Z</time></trkpt><trkpt lat="40.3151098" lon="14.9768494"><ele>210.0</ele><time>2026-03-29T08:21:43.206Z</time></trkpt><trkpt lat="40.3150627" lon="14.9767892"><ele>210.0</ele><time>2026-03-29T08:21:45.179Z</time></trkpt><trkpt lat="40.3150125" lon="14.9767283"><ele>210.0</ele><time>2026-03-29T08:21:47.204Z</time></trkpt><trkpt lat="40.3149654" lon="14.9766503"><ele>210.0</ele><time>2026-03-29T08:21:49.198Z</time></trkpt><trkpt lat="40.3149279" lon="14.9765699"><ele>210.0</ele><time>2026-03-29T08:21:51.177Z</time></trkpt><trkpt lat="40.314906" lon="14.9764865"><ele>210.0</ele><time>2026-03-29T08:21:53.229Z</time></trkpt><trkpt lat="40.3149031" lon="14.9763897"><ele>211.4</ele><time>2026-03-29T08:21:55.195Z</time></trkpt><trkpt lat="40.3149211" lon="14.976283"><ele>212.8</ele><time>2026-03-29T08:21:57.21Z</time></trkpt><trkpt lat="40.3149617" lon="14.9761731"><ele>214.2</ele><time>2026-03-29T08:21:59.206Z</time></trkpt><trkpt lat="40.3150207" lon="14.9760856"><ele>215.6</ele><time>2026-03-29T08:22:01.198Z</time></trkpt><trkpt lat="40.3150862" lon="14.9759892"><ele>217.0</ele><time>2026-03-29T08:22:03.177Z</time></trkpt><trkpt lat="40.3151684" lon="14.9758968"><ele>215.8</ele><time>2026-03-29T08:22:05.184Z</time></trkpt><trkpt lat="40.3152559" lon="14.9758005"><ele>214.6</ele><time>2026-03-29T08:22:07.178Z</time></trkpt><trkpt lat="40.3153569" lon="14.9757127"><ele>213.4</ele><time>2026-03-29T08:22:09.171Z</time></trkpt><trkpt lat="40.3154569" lon="14.9756307"><ele>212.20000000000002</ele><time>2026-03-29T08:22:11.211Z</time></trkpt><trkpt lat="40.3155269" lon="14.9755859"><ele>211.0</ele><time>2026-03-29T08:22:13.173Z</time></trkpt><trkpt lat="40.3155992" lon="14.9755646"><ele>213.66666666666666</ele><time>2026-03-29T08:22:15.184Z</time></trkpt><trkpt lat="40.3156695" lon="14.9755604"><ele>216.33333333333331</ele><time>2026-03-29T08:22:17.222Z</time></trkpt><trkpt lat="40.3157334" lon="14.9755897"><ele>219.0</ele><time>2026-03-29T08:22:19.196Z</time></trkpt><trkpt lat="40.3158054" lon="14.9756351"><ele>221.66666666666669</ele><time>2026-03-29T08:22:21.205Z</time></trkpt><trkpt lat="40.3158852" lon="14.9756753"><ele>224.33333333333334</ele><time>2026-03-29T08:22:23.184Z</time></trkpt><trkpt lat="40.3159729" lon="14.9757119"><ele>227.0</ele><time>2026-03-29T08:22:25.186Z</time></trkpt><trkpt lat="40.3160704" lon="14.9757364"><ele>227.00000000000003</ele><time>2026-03-29T08:22:27.235Z</time></trkpt><trkpt lat="40.3161467" lon="14.9757361"><ele>227.0</ele><time>2026-03-29T08:22:29.228Z</time></trkpt><trkpt lat="40.3162152" lon="14.9757364"><ele>227.0</ele><time>2026-03-29T08:22:31.2Z</time></trkpt><trkpt lat="40.3162956" lon="14.9757277"><ele>227.0</ele><time>2026-03-29T08:22:33.186Z</time></trkpt><trkpt lat="40.3163881" lon="14.9756777"><ele>227.00000000000003</ele><time>2026-03-29T08:22:35.202Z</time></trkpt><trkpt lat="40.3164741" lon="14.9756266"><ele>227.0</ele><time>2026-03-29T08:22:37.172Z</time></trkpt><trkpt lat="40.3165524" lon="14.9755506"><ele>227.83333333333334</ele><time>2026-03-29T08:22:39.184Z</time></trkpt><trkpt lat="40.3166073" lon="14.9754711"><ele>228.66666666666669</ele><time>2026-03-29T08:22:41.202Z</time></trkpt><trkpt lat="40.31667" lon="14.9753932"><ele>229.5</ele><time>2026-03-29T08:22:43.184Z</time></trkpt><trkpt lat="40.3167409" lon="14.9753281"><ele>230.33333333333331</ele><time>2026-03-29T08:22:45.193Z</time></trkpt><trkpt lat="40.3168176" lon="14.9752801"><ele>231.16666666666666</ele><time>2026-03-29T08:22:47.206Z</time></trkpt><trkpt lat="40.3168956" lon="14.9752429"><ele>232.0</ele><time>2026-03-29T08:22:49.179Z</time></trkpt><trkpt lat="40.3169908" lon="14.9752137"><ele>232.0</ele><time>2026-03-29T08:22:51.185Z</time></trkpt><trkpt lat="40.3170873" lon="14.9752006"><ele>232.0</ele><time>2026-03-29T08:22:53.174Z</time></trkpt><trkpt lat="40.3171835" lon="14.9751766"><ele>232.0</ele><time>2026-03-29T08:22:55.214Z</time></trkpt><trkpt lat="40.3172709" lon="14.9751411"><ele>232.0</ele><time>2026-03-29T08:22:57.207Z</time></trkpt><trkpt lat="40.3173477" lon="14.9751023"><ele>232.0</ele><time>2026-03-29T08:22:59.21Z</time></trkpt><trkpt lat="40.3174325" lon="14.9750687"><ele>230.6</ele><time>2026-03-29T08:23:01.22Z</time></trkpt><trkpt lat="40.3175077" lon="14.9750489"><ele>229.2</ele><time>2026-03-29T08:23:03.233Z</time></trkpt><trkpt lat="40.3176132" lon="14.9749816"><ele>227.8</ele><time>2026-03-29T08:23:06.196Z</time></trkpt><trkpt lat="40.3176819" lon="14.9749089"><ele>226.4</ele><time>2026-03-29T08:23:08.192Z</time></trkpt><trkpt lat="40.3177461" lon="14.9748193"><ele>225.0</ele><time>2026-03-29T08:23:10.186Z</time></trkpt><trkpt lat="40.3177999" lon="14.9747412"><ele>225.0</ele><time>2026-03-29T08:23:12.22Z</time></trkpt><trkpt lat="40.3178511" lon="14.9746667"><ele>225.0</ele><time>2026-03-29T08:23:15.215Z</time></trkpt><trkpt lat="40.3178973" lon="14.9745733"><ele>225.0</ele><time>2026-03-29T08:23:18.189Z</time></trkpt><trkpt lat="40.317947" lon="14.9745011"><ele>225.0</ele><time>2026-03-29T08:23:20.194Z</time></trkpt><trkpt lat="40.3179937" lon="14.9744276"><ele>225.0</ele><time>2026-03-29T08:23:22.191Z</time></trkpt><trkpt lat="40.318048" lon="14.9743464"><ele>225.0</ele><time>2026-03-29T08:23:24.215Z</time></trkpt><trkpt lat="40.3181276" lon="14.9742376"><ele>225.8571428571429</ele><time>2026-03-29T08:23:27.207Z</time></trkpt><trkpt lat="40.3181849" lon="14.9741742"><ele>226.71428571428572</ele><time>2026-03-29T08:23:29.244Z</time></trkpt><trkpt lat="40.3182361" lon="14.9741213"><ele>227.57142857142858</ele><time>2026-03-29T08:23:31.23Z</time></trkpt><trkpt lat="40.3182826" lon="14.9740498"><ele>228.42857142857144</ele><time>2026-03-29T08:23:34.194Z</time></trkpt><trkpt lat="40.3183212" lon="14.9739755"><ele>229.28571428571428</ele><time>2026-03-29T08:23:36.297Z</time></trkpt><trkpt lat="40.3183617" lon="14.9738894"><ele>230.14285714285714</ele><time>2026-03-29T08:23:38.23Z</time></trkpt><trkpt lat="40.3184023" lon="14.9737864"><ele>231.0</ele><time>2026-03-29T08:23:40.191Z</time></trkpt><trkpt lat="40.3184419" lon="14.9736606"><ele>231.0</ele><time>2026-03-29T08:23:42.197Z</time></trkpt><trkpt lat="40.3184767" lon="14.9735332"><ele>231.00000000000003</ele><time>2026-03-29T08:23:44.227Z</time></trkpt><trkpt lat="40.3184989" lon="14.9734015"><ele>231.00000000000003</ele><time>2026-03-29T08:23:46.21Z</time></trkpt><trkpt lat="40.3185116" lon="14.9732237"><ele>231.0</ele><time>2026-03-29T08:23:49.224Z</time></trkpt><trkpt lat="40.3185155" lon="14.9731224"><ele>231.0</ele><time>2026-03-29T08:23:51.192Z</time></trkpt><trkpt lat="40.3185335" lon="14.9730309"><ele>229.33333333333334</ele><time>2026-03-29T08:23:53.197Z</time></trkpt><trkpt lat="40.3185617" lon="14.9729519"><ele>227.66666666666669</ele><time>2026-03-29T08:23:55.212Z</time></trkpt><trkpt lat="40.3186051" lon="14.972868"><ele>226.0</ele><time>2026-03-29T08:23:57.179Z</time></trkpt><trkpt lat="40.3186596" lon="14.972789"><ele>224.33333333333334</ele><time>2026-03-29T08:23:59.205Z</time></trkpt><trkpt lat="40.3187226" lon="14.9727167"><ele>222.66666666666669</ele><time>2026-03-29T08:24:01.185Z</time></trkpt><trkpt lat="40.3187998" lon="14.9726555"><ele>221.0</ele><time>2026-03-29T08:24:03.183Z</time></trkpt><trkpt lat="40.3188914" lon="14.9726011"><ele>223.4</ele><time>2026-03-29T08:24:05.195Z</time></trkpt><trkpt lat="40.3189815" lon="14.9725293"><ele>225.8</ele><time>2026-03-29T08:24:07.193Z</time></trkpt><trkpt lat="40.3190642" lon="14.9724422"><ele>228.20000000000002</ele><time>2026-03-29T08:24:09.183Z</time></trkpt><trkpt lat="40.3191219" lon="14.9723498"><ele>230.60000000000002</ele><time>2026-03-29T08:24:11.2Z</time></trkpt><trkpt lat="40.3191903" lon="14.9722722"><ele>233.0</ele><time>2026-03-29T08:24:13.201Z</time></trkpt><trkpt lat="40.3192753" lon="14.9721925"><ele>233.0</ele><time>2026-03-29T08:24:15.179Z</time></trkpt><trkpt lat="40.3193608" lon="14.972123"><ele>233.0</ele><time>2026-03-29T08:24:17.195Z</time></trkpt><trkpt lat="40.3194405" lon="14.9720485"><ele>233.0</ele><time>2026-03-29T08:24:19.196Z</time></trkpt><trkpt lat="40.3195186" lon="14.971983"><ele>233.0</ele><time>2026-03-29T08:24:21.173Z</time></trkpt><trkpt lat="40.3195992" lon="14.9718986"><ele>233.0</ele><time>2026-03-29T08:24:23.186Z</time></trkpt><trkpt lat="40.3196776" lon="14.9718189"><ele>233.25</ele><time>2026-03-29T08:24:25.196Z</time></trkpt><trkpt lat="40.3197946" lon="14.9716995"><ele>233.5</ele><time>2026-03-29T08:24:28.171Z</time></trkpt><trkpt lat="40.3198835" lon="14.9716081"><ele>233.75</ele><time>2026-03-29T08:24:30.164Z</time></trkpt><trkpt lat="40.3199763" lon="14.9715118"><ele>234.0</ele><time>2026-03-29T08:24:32.204Z</time></trkpt><trkpt lat="40.3200576" lon="14.9714262"><ele>234.0</ele><time>2026-03-29T08:24:34.181Z</time></trkpt><trkpt lat="40.3201384" lon="14.9713251"><ele>233.99999999999997</ele><time>2026-03-29T08:24:36.196Z</time></trkpt><trkpt lat="40.3202116" lon="14.9712176"><ele>233.99999999999997</ele><time>2026-03-29T08:24:38.193Z</time></trkpt><trkpt lat="40.3202815" lon="14.9711204"><ele>234.0</ele><time>2026-03-29T08:24:40.209Z</time></trkpt><trkpt lat="40.3203504" lon="14.9710475"><ele>234.0</ele><time>2026-03-29T08:24:42.18Z</time></trkpt><trkpt lat="40.3204349" lon="14.9709943"><ele>234.0</ele><time>2026-03-29T08:24:44.183Z</time></trkpt><trkpt lat="40.3205039" lon="14.970952"><ele>234.0</ele><time>2026-03-29T08:24:46.183Z</time></trkpt><trkpt lat="40.3205728" lon="14.9708884"><ele>234.0</ele><time>2026-03-29T08:24:49.19Z</time></trkpt><trkpt lat="40.32062" lon="14.9708226"><ele>234.0</ele><time>2026-03-29T08:24:51.213Z</time></trkpt><trkpt lat="40.320657" lon="14.9707527"><ele>234.0</ele><time>2026-03-29T08:24:53.251Z</time></trkpt><trkpt lat="40.3206793" lon="14.9706676"><ele>234.0</ele><time>2026-03-29T08:24:55.198Z</time></trkpt><trkpt lat="40.3206931" lon="14.9705511"><ele>234.0</ele><time>2026-03-29T08:24:57.23Z</time></trkpt><trkpt lat="40.3206995" lon="14.9704361"><ele>233.99999999999997</ele><time>2026-03-29T08:24:59.264Z</time></trkpt><trkpt lat="40.3207089" lon="14.9703249"><ele>233.99999999999997</ele><time>2026-03-29T08:25:01.203Z</time></trkpt><trkpt lat="40.3207147" lon="14.970208"><ele>234.0</ele><time>2026-03-29T08:25:03.24Z</time></trkpt><trkpt lat="40.3207201" lon="14.970087"><ele>234.0</ele><time>2026-03-29T08:25:05.31Z</time></trkpt><trkpt lat="40.3207282" lon="14.9699613"><ele>234.0</ele><time>2026-03-29T08:25:07.194Z</time></trkpt><trkpt lat="40.3207356" lon="14.9698428"><ele>234.0</ele><time>2026-03-29T08:25:09.206Z</time></trkpt><trkpt lat="40.3207419" lon="14.9697259"><ele>234.0</ele><time>2026-03-29T08:25:11.208Z</time></trkpt><trkpt lat="40.3207369" lon="14.9696182"><ele>234.0</ele><time>2026-03-29T08:25:13.207Z</time></trkpt><trkpt lat="40.3207219" lon="14.9695244"><ele>234.0</ele><time>2026-03-29T08:25:15.197Z</time></trkpt><trkpt lat="40.3206979" lon="14.9694306"><ele>234.0</ele><time>2026-03-29T08:25:17.223Z</time></trkpt><trkpt lat="40.3206662" lon="14.9693438"><ele>234.0</ele><time>2026-03-29T08:25:19.21Z</time></trkpt><trkpt lat="40.3206335" lon="14.9692452"><ele>233.99999999999997</ele><time>2026-03-29T08:25:21.215Z</time></trkpt><trkpt lat="40.320605" lon="14.9691391"><ele>233.99999999999997</ele><time>2026-03-29T08:25:23.235Z</time></trkpt><trkpt lat="40.3205723" lon="14.9690346"><ele>234.0</ele><time>2026-03-29T08:25:25.189Z</time></trkpt><trkpt lat="40.320538" lon="14.9689112"><ele>234.0</ele><time>2026-03-29T08:25:27.21Z</time></trkpt><trkpt lat="40.3204986" lon="14.9687857"><ele>233.79999999999998</ele><time>2026-03-29T08:25:29.206Z</time></trkpt><trkpt lat="40.3204489" lon="14.9686699"><ele>233.59999999999997</ele><time>2026-03-29T08:25:31.22Z</time></trkpt><trkpt lat="40.3203992" lon="14.9685873"><ele>233.4</ele><time>2026-03-29T08:25:33.18Z</time></trkpt><trkpt lat="40.3203421" lon="14.968509"><ele>233.2</ele><time>2026-03-29T08:25:35.187Z</time></trkpt><trkpt lat="40.3202691" lon="14.9684244"><ele>233.0</ele><time>2026-03-29T08:25:37.186Z</time></trkpt><trkpt lat="40.3201892" lon="14.9683362"><ele>233.00000000000003</ele><time>2026-03-29T08:25:39.202Z</time></trkpt><trkpt lat="40.3201326" lon="14.9682781"><ele>233.0</ele><time>2026-03-29T08:25:41.201Z</time></trkpt><trkpt lat="40.3200716" lon="14.9682112"><ele>233.0</ele><time>2026-03-29T08:25:43.185Z</time></trkpt><trkpt lat="40.3200045" lon="14.9681256"><ele>233.0</ele><time>2026-03-29T08:25:45.203Z</time></trkpt><trkpt lat="40.3199325" lon="14.9680196"><ele>233.00000000000003</ele><time>2026-03-29T08:25:47.193Z</time></trkpt><trkpt lat="40.3198888" lon="14.9679542"><ele>233.0</ele><time>2026-03-29T08:25:48.193Z</time></trkpt><trkpt lat="40.3198396" lon="14.9678896"><ele>233.0</ele><time>2026-03-29T08:25:49.23Z</time></trkpt><trkpt lat="40.3197462" lon="14.9677764"><ele>233.0</ele><time>2026-03-29T08:25:51.206Z</time></trkpt><trkpt lat="40.3196588" lon="14.967694"><ele>233.0</ele><time>2026-03-29T08:25:53.21Z</time></trkpt><trkpt lat="40.3195852" lon="14.9676246"><ele>233.0</ele><time>2026-03-29T08:25:55.192Z</time></trkpt><trkpt lat="40.3195281" lon="14.9675273"><ele>233.0</ele><time>2026-03-29T08:25:57.177Z</time></trkpt><trkpt lat="40.3194988" lon="14.9674037"><ele>230.8</ele><time>2026-03-29T08:25:59.214Z</time></trkpt><trkpt lat="40.3195055" lon="14.9672791"><ele>228.60000000000002</ele><time>2026-03-29T08:26:01.177Z</time></trkpt><trkpt lat="40.3195429" lon="14.9671451"><ele>226.39999999999998</ele><time>2026-03-29T08:26:03.187Z</time></trkpt><trkpt lat="40.3195832" lon="14.9670109"><ele>224.2</ele><time>2026-03-29T08:26:05.218Z</time></trkpt><trkpt lat="40.3195924" lon="14.9669026"><ele>222.0</ele><time>2026-03-29T08:26:07.24Z</time></trkpt><trkpt lat="40.3195958" lon="14.9667742"><ele>222.6</ele><time>2026-03-29T08:26:09.19Z</time></trkpt><trkpt lat="40.3196005" lon="14.9666324"><ele>223.2</ele><time>2026-03-29T08:26:11.201Z</time></trkpt><trkpt lat="40.3196005" lon="14.9664743"><ele>223.8</ele><time>2026-03-29T08:26:13.233Z</time></trkpt><trkpt lat="40.3196076" lon="14.9663347"><ele>224.4</ele><time>2026-03-29T08:26:15.209Z</time></trkpt><trkpt lat="40.3195919" lon="14.9662122"><ele>225.0</ele><time>2026-03-29T08:26:17.207Z</time></trkpt><trkpt lat="40.3195482" lon="14.9660834"><ele>225.0</ele><time>2026-03-29T08:26:19.345Z</time></trkpt><trkpt lat="40.3194883" lon="14.9659907"><ele>225.0</ele><time>2026-03-29T08:26:21.198Z</time></trkpt><trkpt lat="40.3194037" lon="14.9658758"><ele>225.0</ele><time>2026-03-29T08:26:23.191Z</time></trkpt><trkpt lat="40.3193604" lon="14.9658111"><ele>225.0</ele><time>2026-03-29T08:26:24.214Z</time></trkpt><trkpt lat="40.3193042" lon="14.9656916"><ele>225.0</ele><time>2026-03-29T08:26:26.191Z</time></trkpt><trkpt lat="40.3192624" lon="14.9655629"><ele>227.0</ele><time>2026-03-29T08:26:28.218Z</time></trkpt><trkpt lat="40.3192229" lon="14.9654246"><ele>229.0</ele><time>2026-03-29T08:26:30.187Z</time></trkpt><trkpt lat="40.3191792" lon="14.9652849"><ele>231.0</ele><time>2026-03-29T08:26:32.206Z</time></trkpt><trkpt lat="40.3191317" lon="14.9651501"><ele>233.0</ele><time>2026-03-29T08:26:34.213Z</time></trkpt><trkpt lat="40.319083" lon="14.9650392"><ele>235.0</ele><time>2026-03-29T08:26:36.204Z</time></trkpt><trkpt lat="40.3190251" lon="14.9649427"><ele>233.6</ele><time>2026-03-29T08:26:38.227Z</time></trkpt><trkpt lat="40.3189672" lon="14.9648438"><ele>232.2</ele><time>2026-03-29T08:26:40.207Z</time></trkpt><trkpt lat="40.318909" lon="14.9647459"><ele>230.8</ele><time>2026-03-29T08:26:42.193Z</time></trkpt><trkpt lat="40.3188616" lon="14.964635"><ele>229.4</ele><time>2026-03-29T08:26:44.194Z</time></trkpt><trkpt lat="40.3188316" lon="14.9645202"><ele>228.0</ele><time>2026-03-29T08:26:46.191Z</time></trkpt><trkpt lat="40.3188175" lon="14.9643894"><ele>228.0</ele><time>2026-03-29T08:26:48.202Z</time></trkpt><trkpt lat="40.318829" lon="14.9642747"><ele>228.0</ele><time>2026-03-29T08:26:50.199Z</time></trkpt><trkpt lat="40.3188653" lon="14.9641733"><ele>228.0</ele><time>2026-03-29T08:26:52.281Z</time></trkpt><trkpt lat="40.3189044" lon="14.9640686"><ele>228.0</ele><time>2026-03-29T08:26:54.195Z</time></trkpt><trkpt lat="40.3189504" lon="14.9639453"><ele>228.0</ele><time>2026-03-29T08:26:56.229Z</time></trkpt><trkpt lat="40.3190014" lon="14.9638408"><ele>232.8</ele><time>2026-03-29T08:26:58.207Z</time></trkpt><trkpt lat="40.3190644" lon="14.9637511"><ele>237.60000000000002</ele><time>2026-03-29T08:27:00.219Z</time></trkpt><trkpt lat="40.3191498" lon="14.9636762"><ele>242.39999999999998</ele><time>2026-03-29T08:27:02.214Z</time></trkpt><trkpt lat="40.3192527" lon="14.9636107"><ele>247.2</ele><time>2026-03-29T08:27:04.241Z</time></trkpt><trkpt lat="40.3193486" lon="14.9635333"><ele>252.0</ele><time>2026-03-29T08:27:06.19Z</time></trkpt><trkpt lat="40.3194532" lon="14.9634557"><ele>252.0</ele><time>2026-03-29T08:27:08.218Z</time></trkpt><trkpt lat="40.3195209" lon="14.9634078"><ele>252.0</ele><time>2026-03-29T08:27:10.204Z</time></trkpt><trkpt lat="40.3196091" lon="14.963358"><ele>252.0</ele><time>2026-03-29T08:27:12.199Z</time></trkpt><trkpt lat="40.3196877" lon="14.9632969"><ele>252.0</ele><time>2026-03-29T08:27:14.225Z</time></trkpt><trkpt lat="40.3197509" lon="14.9632319"><ele>252.0</ele><time>2026-03-29T08:27:16.27Z</time></trkpt><trkpt lat="40.31982" lon="14.9631846"><ele>252.0</ele><time>2026-03-29T08:27:18.214Z</time></trkpt><trkpt lat="40.3198797" lon="14.9631442"><ele>252.39999999999998</ele><time>2026-03-29T08:27:20.208Z</time></trkpt><trkpt lat="40.3199552" lon="14.9630922"><ele>252.79999999999998</ele><time>2026-03-29T08:27:23.193Z</time></trkpt><trkpt lat="40.3200472" lon="14.9629779"><ele>253.2</ele><time>2026-03-29T08:27:26.216Z</time></trkpt><trkpt lat="40.3200971" lon="14.9628928"><ele>253.6</ele><time>2026-03-29T08:27:28.168Z</time></trkpt><trkpt lat="40.3201423" lon="14.9628103"><ele>254.0</ele><time>2026-03-29T08:27:30.206Z</time></trkpt><trkpt lat="40.3201859" lon="14.9627212"><ele>254.0</ele><time>2026-03-29T08:27:32.205Z</time></trkpt><trkpt lat="40.3202326" lon="14.962629"><ele>253.99999999999997</ele><time>2026-03-29T08:27:34.189Z</time></trkpt><trkpt lat="40.3202912" lon="14.962537"><ele>253.99999999999997</ele><time>2026-03-29T08:27:36.19Z</time></trkpt><trkpt lat="40.3203602" lon="14.9624557"><ele>254.0</ele><time>2026-03-29T08:27:38.232Z</time></trkpt><trkpt lat="40.3204312" lon="14.9623482"><ele>254.0</ele><time>2026-03-29T08:27:40.191Z</time></trkpt><trkpt lat="40.3204947" lon="14.9622289"><ele>254.2</ele><time>2026-03-29T08:27:42.198Z</time></trkpt><trkpt lat="40.3205518" lon="14.9621179"><ele>254.39999999999998</ele><time>2026-03-29T08:27:44.187Z</time></trkpt><trkpt lat="40.320605" lon="14.9619979"><ele>254.6</ele><time>2026-03-29T08:27:46.194Z</time></trkpt><trkpt lat="40.3206498" lon="14.9618754"><ele>254.8</ele><time>2026-03-29T08:27:48.208Z</time></trkpt><trkpt lat="40.3206825" lon="14.9617509"><ele>255.0</ele><time>2026-03-29T08:27:50.172Z</time></trkpt><trkpt lat="40.3206894" lon="14.9616005"><ele>255.0</ele><time>2026-03-29T08:27:52.22Z</time></trkpt><trkpt lat="40.3206843" lon="14.9614689"><ele>255.0</ele><time>2026-03-29T08:27:54.215Z</time></trkpt><trkpt lat="40.3206693" lon="14.961323"><ele>255.0</ele><time>2026-03-29T08:27:56.212Z</time></trkpt><trkpt lat="40.32066" lon="14.9612403"><ele>255.0</ele><time>2026-03-29T08:27:57.318Z</time></trkpt><trkpt lat="40.3206584" lon="14.9611012"><ele>255.0</ele><time>2026-03-29T08:27:59.205Z</time></trkpt><trkpt lat="40.3206835" lon="14.961002"><ele>255.0</ele><time>2026-03-29T08:28:02.238Z</time></trkpt><trkpt lat="40.3206756" lon="14.9608661"><ele>255.0</ele><time>2026-03-29T08:28:33.196Z</time></trkpt><trkpt lat="40.3206772" lon="14.9607521"><ele>255.0</ele><time>2026-03-29T08:28:35.241Z</time></trkpt><trkpt lat="40.3206623" lon="14.9606428"><ele>255.0</ele><time>2026-03-29T08:28:37.196Z</time></trkpt><trkpt lat="40.3206284" lon="14.9604704"><ele>255.0</ele><time>2026-03-29T08:28:39.172Z</time></trkpt><trkpt lat="40.3205947" lon="14.9603702"><ele>255.4</ele><time>2026-03-29T08:28:40.203Z</time></trkpt><trkpt lat="40.3205699" lon="14.9602915"><ele>255.8</ele><time>2026-03-29T08:28:41.196Z</time></trkpt><trkpt lat="40.320558" lon="14.9601767"><ele>256.2</ele><time>2026-03-29T08:28:43.205Z</time></trkpt><trkpt lat="40.320517" lon="14.9600219"><ele>256.6</ele><time>2026-03-29T08:28:45.194Z</time></trkpt><trkpt lat="40.3204961" lon="14.9599336"><ele>257.0</ele><time>2026-03-29T08:28:46.214Z</time></trkpt><trkpt lat="40.3204593" lon="14.9597861"><ele>251.25</ele><time>2026-03-29T08:28:48.176Z</time></trkpt><trkpt lat="40.3204246" lon="14.9596494"><ele>245.5</ele><time>2026-03-29T08:28:50.202Z</time></trkpt><trkpt lat="40.3203978" lon="14.9595038"><ele>239.75</ele><time>2026-03-29T08:28:52.213Z</time></trkpt><trkpt lat="40.3203469" lon="14.959359"><ele>234.0</ele><time>2026-03-29T08:28:54.25Z</time></trkpt><trkpt lat="40.3202695" lon="14.9592594"><ele>237.75</ele><time>2026-03-29T08:28:56.202Z</time></trkpt><trkpt lat="40.3201631" lon="14.9591846"><ele>241.5</ele><time>2026-03-29T08:28:58.219Z</time></trkpt><trkpt lat="40.3200613" lon="14.9591372"><ele>245.25</ele><time>2026-03-29T08:29:00.201Z</time></trkpt><trkpt lat="40.3199589" lon="14.9590851"><ele>249.0</ele><time>2026-03-29T08:29:02.195Z</time></trkpt><trkpt lat="40.3198467" lon="14.9590456"><ele>247.2</ele><time>2026-03-29T08:29:04.186Z</time></trkpt><trkpt lat="40.3197314" lon="14.9590265"><ele>245.39999999999998</ele><time>2026-03-29T08:29:06.189Z</time></trkpt><trkpt lat="40.3196158" lon="14.959026"><ele>243.6</ele><time>2026-03-29T08:29:08.183Z</time></trkpt><trkpt lat="40.319502" lon="14.9590428"><ele>241.8</ele><time>2026-03-29T08:29:10.218Z</time></trkpt><trkpt lat="40.319404" lon="14.9590641"><ele>240.0</ele><time>2026-03-29T08:29:12.211Z</time></trkpt><trkpt lat="40.3193047" lon="14.9590712"><ele>240.0</ele><time>2026-03-29T08:29:14.211Z</time></trkpt><trkpt lat="40.3192094" lon="14.9590506"><ele>240.0</ele><time>2026-03-29T08:29:16.22Z</time></trkpt><trkpt lat="40.3191338" lon="14.9590016"><ele>240.0</ele><time>2026-03-29T08:29:18.197Z</time></trkpt><trkpt lat="40.3190521" lon="14.9589421"><ele>240.0</ele><time>2026-03-29T08:29:20.217Z</time></trkpt><trkpt lat="40.3189694" lon="14.9588677"><ele>240.0</ele><time>2026-03-29T08:29:22.21Z</time></trkpt><trkpt lat="40.3188834" lon="14.9587917"><ele>236.25</ele><time>2026-03-29T08:29:24.222Z</time></trkpt><trkpt lat="40.3187844" lon="14.9587304"><ele>232.5</ele><time>2026-03-29T08:29:26.198Z</time></trkpt><trkpt lat="40.3186782" lon="14.9586753"><ele>228.75</ele><time>2026-03-29T08:29:28.214Z</time></trkpt><trkpt lat="40.3185703" lon="14.9586308"><ele>225.0</ele><time>2026-03-29T08:29:30.214Z</time></trkpt><trkpt lat="40.3184577" lon="14.9585942"><ele>225.0</ele><time>2026-03-29T08:29:32.181Z</time></trkpt><trkpt lat="40.3183605" lon="14.9585496"><ele>225.0</ele><time>2026-03-29T08:29:34.215Z</time></trkpt><trkpt lat="40.3182919" lon="14.958487"><ele>225.0</ele><time>2026-03-29T08:29:36.184Z</time></trkpt><trkpt lat="40.3182436" lon="14.9584055"><ele>225.0</ele><time>2026-03-29T08:29:38.199Z</time></trkpt><trkpt lat="40.3182026" lon="14.9583252"><ele>225.0</ele><time>2026-03-29T08:29:40.195Z</time></trkpt><trkpt lat="40.3181525" lon="14.9582377"><ele>225.0</ele><time>2026-03-29T08:29:42.209Z</time></trkpt><trkpt lat="40.3180783" lon="14.9581405"><ele>223.75</ele><time>2026-03-29T08:29:44.315Z</time></trkpt><trkpt lat="40.3180003" lon="14.9580421"><ele>222.5</ele><time>2026-03-29T08:29:46.195Z</time></trkpt><trkpt lat="40.3179147" lon="14.9579287"><ele>221.25</ele><time>2026-03-29T08:29:48.207Z</time></trkpt><trkpt lat="40.3178283" lon="14.9578128"><ele>220.0</ele><time>2026-03-29T08:29:50.214Z</time></trkpt><trkpt lat="40.3177411" lon="14.9576891"><ele>219.99999999999997</ele><time>2026-03-29T08:29:52.223Z</time></trkpt><trkpt lat="40.3176983" lon="14.9576211"><ele>220.0</ele><time>2026-03-29T08:29:53.292Z</time></trkpt><trkpt lat="40.3176565" lon="14.9575098"><ele>220.0</ele><time>2026-03-29T08:29:55.204Z</time></trkpt><trkpt lat="40.3176658" lon="14.957412"><ele>220.0</ele><time>2026-03-29T08:29:57.206Z</time></trkpt><trkpt lat="40.3177064" lon="14.9573159"><ele>219.99999999999997</ele><time>2026-03-29T08:29:59.217Z</time></trkpt><trkpt lat="40.3177776" lon="14.9572138"><ele>220.0</ele><time>2026-03-29T08:30:01.315Z</time></trkpt><trkpt lat="40.3178473" lon="14.957113"><ele>223.2</ele><time>2026-03-29T08:30:03.225Z</time></trkpt><trkpt lat="40.3179236" lon="14.9570012"><ele>226.4</ele><time>2026-03-29T08:30:05.186Z</time></trkpt><trkpt lat="40.3179973" lon="14.9568883"><ele>229.60000000000002</ele><time>2026-03-29T08:30:07.211Z</time></trkpt><trkpt lat="40.3180823" lon="14.9567562"><ele>232.8</ele><time>2026-03-29T08:30:09.201Z</time></trkpt><trkpt lat="40.3181336" lon="14.9566751"><ele>236.0</ele><time>2026-03-29T08:30:10.227Z</time></trkpt><trkpt lat="40.3181841" lon="14.9565989"><ele>238.4</ele><time>2026-03-29T08:30:11.209Z</time></trkpt><trkpt lat="40.3182355" lon="14.956529"><ele>240.8</ele><time>2026-03-29T08:30:12.196Z</time></trkpt><trkpt lat="40.3182812" lon="14.9564637"><ele>243.20000000000002</ele><time>2026-03-29T08:30:13.213Z</time></trkpt><trkpt lat="40.3183483" lon="14.9563401"><ele>245.60000000000002</ele><time>2026-03-29T08:30:15.189Z</time></trkpt><trkpt lat="40.3183835" lon="14.9562118"><ele>248.0</ele><time>2026-03-29T08:30:17.194Z</time></trkpt><trkpt lat="40.3183921" lon="14.956061"><ele>248.0</ele><time>2026-03-29T08:30:19.199Z</time></trkpt><trkpt lat="40.3183924" lon="14.9558919"><ele>248.0</ele><time>2026-03-29T08:30:21.286Z</time></trkpt><trkpt lat="40.3183935" lon="14.9557409"><ele>248.0</ele><time>2026-03-29T08:30:23.189Z</time></trkpt><trkpt lat="40.3184002" lon="14.955579"><ele>248.0</ele><time>2026-03-29T08:30:25.204Z</time></trkpt><trkpt lat="40.3184111" lon="14.955421"><ele>246.16666666666669</ele><time>2026-03-29T08:30:27.2Z</time></trkpt><trkpt lat="40.3184313" lon="14.955283"><ele>244.33333333333334</ele><time>2026-03-29T08:30:29.214Z</time></trkpt><trkpt lat="40.3184667" lon="14.9551661"><ele>242.5</ele><time>2026-03-29T08:30:31.242Z</time></trkpt><trkpt lat="40.3185134" lon="14.9550855"><ele>240.66666666666669</ele><time>2026-03-29T08:30:33.213Z</time></trkpt><trkpt lat="40.3185677" lon="14.9550242"><ele>238.83333333333334</ele><time>2026-03-29T08:30:35.222Z</time></trkpt><trkpt lat="40.3186196" lon="14.9549766"><ele>237.0</ele><time>2026-03-29T08:30:37.219Z</time></trkpt><trkpt lat="40.3186803" lon="14.9549381"><ele>237.83333333333334</ele><time>2026-03-29T08:30:39.185Z</time></trkpt><trkpt lat="40.318744" lon="14.9549071"><ele>238.66666666666669</ele><time>2026-03-29T08:30:41.22Z</time></trkpt><trkpt lat="40.3188133" lon="14.9548674"><ele>239.5</ele><time>2026-03-29T08:30:43.198Z</time></trkpt><trkpt lat="40.3188869" lon="14.9548313"><ele>240.33333333333334</ele><time>2026-03-29T08:30:45.193Z</time></trkpt><trkpt lat="40.3189692" lon="14.9547811"><ele>241.16666666666669</ele><time>2026-03-29T08:30:47.176Z</time></trkpt><trkpt lat="40.3190511" lon="14.9547389"><ele>242.0</ele><time>2026-03-29T08:30:49.173Z</time></trkpt><trkpt lat="40.3191209" lon="14.9547007"><ele>242.00000000000003</ele><time>2026-03-29T08:30:51.191Z</time></trkpt><trkpt lat="40.3191895" lon="14.9546615"><ele>242.0</ele><time>2026-03-29T08:30:53.181Z</time></trkpt><trkpt lat="40.3192621" lon="14.9546234"><ele>242.0</ele><time>2026-03-29T08:30:55.199Z</time></trkpt><trkpt lat="40.3193347" lon="14.9545806"><ele>242.0</ele><time>2026-03-29T08:30:57.191Z</time></trkpt><trkpt lat="40.3193996" lon="14.9545474"><ele>242.00000000000003</ele><time>2026-03-29T08:30:59.172Z</time></trkpt><trkpt lat="40.3194826" lon="14.954501"><ele>242.0</ele><time>2026-03-29T08:31:01.183Z</time></trkpt><trkpt lat="40.3195756" lon="14.9544523"><ele>242.0</ele><time>2026-03-29T08:31:03.194Z</time></trkpt><trkpt lat="40.3196616" lon="14.9544027"><ele>242.0</ele><time>2026-03-29T08:31:05.178Z</time></trkpt><trkpt lat="40.3197467" lon="14.9543524"><ele>242.0</ele><time>2026-03-29T08:31:07.183Z</time></trkpt><trkpt lat="40.319951" lon="14.95426"><ele>242.0</ele><time>2026-03-29T08:31:08.189Z</time></trkpt><trkpt lat="40.3200582" lon="14.9542149"><ele>240.00000000000003</ele><time>2026-03-29T08:31:10.203Z</time></trkpt><trkpt lat="40.3201635" lon="14.9541908"><ele>238.0</ele><time>2026-03-29T08:31:12.128Z</time></trkpt><trkpt lat="40.3202331" lon="14.9541835"><ele>236.0</ele><time>2026-03-29T08:31:13.151Z</time></trkpt><trkpt lat="40.3202995" lon="14.9541799"><ele>234.0</ele><time>2026-03-29T08:31:14.147Z</time></trkpt><trkpt lat="40.3203639" lon="14.9541767"><ele>232.00000000000003</ele><time>2026-03-29T08:31:15.166Z</time></trkpt><trkpt lat="40.3204278" lon="14.9541702"><ele>230.0</ele><time>2026-03-29T08:31:16.18Z</time></trkpt><trkpt lat="40.320529" lon="14.9541715"><ele>229.8</ele><time>2026-03-29T08:31:18.146Z</time></trkpt><trkpt lat="40.3206329" lon="14.9541966"><ele>229.6</ele><time>2026-03-29T08:31:20.134Z</time></trkpt><trkpt lat="40.3207344" lon="14.9542442"><ele>229.39999999999998</ele><time>2026-03-29T08:31:22.128Z</time></trkpt><trkpt lat="40.3208321" lon="14.9543011"><ele>229.2</ele><time>2026-03-29T08:31:24.13Z</time></trkpt><trkpt lat="40.3209101" lon="14.9543221"><ele>229.0</ele><time>2026-03-29T08:31:26.155Z</time></trkpt><trkpt lat="40.3209711" lon="14.954291"><ele>229.0</ele><time>2026-03-29T08:31:28.152Z</time></trkpt><trkpt lat="40.3210537" lon="14.9542324"><ele>228.99999999999997</ele><time>2026-03-29T08:31:31.164Z</time></trkpt><trkpt lat="40.3211379" lon="14.9541846"><ele>228.99999999999997</ele><time>2026-03-29T08:31:33.175Z</time></trkpt><trkpt lat="40.3212323" lon="14.9541362"><ele>229.0</ele><time>2026-03-29T08:31:35.162Z</time></trkpt><trkpt lat="40.3213134" lon="14.9541055"><ele>229.0</ele><time>2026-03-29T08:31:37.134Z</time></trkpt><trkpt lat="40.321444" lon="14.9540722"><ele>229.57142857142856</ele><time>2026-03-29T08:31:40.18Z</time></trkpt><trkpt lat="40.3215112" lon="14.9540679"><ele>230.14285714285717</ele><time>2026-03-29T08:31:44.131Z</time></trkpt><trkpt lat="40.3215873" lon="14.9540638"><ele>230.71428571428572</ele><time>2026-03-29T08:32:01.136Z</time></trkpt><trkpt lat="40.3216729" lon="14.9540337"><ele>231.28571428571428</ele><time>2026-03-29T08:32:04.189Z</time></trkpt><trkpt lat="40.3217358" lon="14.9540202"><ele>231.85714285714283</ele><time>2026-03-29T08:32:06.138Z</time></trkpt><trkpt lat="40.3217993" lon="14.9540099"><ele>232.42857142857144</ele><time>2026-03-29T08:32:08.128Z</time></trkpt><trkpt lat="40.321881" lon="14.9539902"><ele>233.0</ele><time>2026-03-29T08:32:11.106Z</time></trkpt><trkpt lat="40.3219638" lon="14.9539802"><ele>233.00000000000003</ele><time>2026-03-29T08:32:14.107Z</time></trkpt><trkpt lat="40.3220437" lon="14.9539703"><ele>233.0</ele><time>2026-03-29T08:32:17.123Z</time></trkpt><trkpt lat="40.3221245" lon="14.9539473"><ele>233.0</ele><time>2026-03-29T08:32:20.154Z</time></trkpt><trkpt lat="40.3221719" lon="14.9538634"><ele>233.0</ele><time>2026-03-29T08:32:23.132Z</time></trkpt><trkpt lat="40.3222061" lon="14.9537639"><ele>233.00000000000003</ele><time>2026-03-29T08:32:25.137Z</time></trkpt><trkpt lat="40.3222443" lon="14.9536436"><ele>233.0</ele><time>2026-03-29T08:32:27.143Z</time></trkpt><trkpt lat="40.3222792" lon="14.9535453"><ele>232.4</ele><time>2026-03-29T08:32:29.115Z</time></trkpt><trkpt lat="40.3223301" lon="14.9534369"><ele>231.8</ele><time>2026-03-29T08:32:31.156Z</time></trkpt><trkpt lat="40.3224171" lon="14.9533118"><ele>231.2</ele><time>2026-03-29T08:32:33.156Z</time></trkpt><trkpt lat="40.3224674" lon="14.9532534"><ele>230.6</ele><time>2026-03-29T08:32:34.142Z</time></trkpt><trkpt lat="40.3225217" lon="14.9531925"><ele>230.0</ele><time>2026-03-29T08:32:35.168Z</time></trkpt><trkpt lat="40.322612" lon="14.9531061"><ele>230.0</ele><time>2026-03-29T08:32:37.169Z</time></trkpt><trkpt lat="40.3227325" lon="14.9530043"><ele>230.0</ele><time>2026-03-29T08:32:39.146Z</time></trkpt><trkpt lat="40.3227874" lon="14.9529551"><ele>230.0</ele><time>2026-03-29T08:32:40.151Z</time></trkpt><trkpt lat="40.3228674" lon="14.9528852"><ele>230.0</ele><time>2026-03-29T08:32:41.157Z</time></trkpt><trkpt lat="40.3229258" lon="14.9528296"><ele>230.0</ele><time>2026-03-29T08:32:42.154Z</time></trkpt><trkpt lat="40.3230067" lon="14.9527618"><ele>230.00000000000003</ele><time>2026-03-29T08:32:43.17Z</time></trkpt><trkpt lat="40.32308" lon="14.952695"><ele>230.0</ele><time>2026-03-29T08:32:44.148Z</time></trkpt><trkpt lat="40.3231526" lon="14.9526318"><ele>230.0</ele><time>2026-03-29T08:32:45.141Z</time></trkpt><trkpt lat="40.323222" lon="14.9525692"><ele>230.0</ele><time>2026-03-29T08:32:46.15Z</time></trkpt><trkpt lat="40.3232954" lon="14.9525009"><ele>230.00000000000003</ele><time>2026-03-29T08:32:47.158Z</time></trkpt><trkpt lat="40.3233572" lon="14.9524548"><ele>230.0</ele><time>2026-03-29T08:32:48.208Z</time></trkpt><trkpt lat="40.3234158" lon="14.9524124"><ele>230.0</ele><time>2026-03-29T08:32:49.171Z</time></trkpt><trkpt lat="40.3235207" lon="14.952349"><ele>230.0</ele><time>2026-03-29T08:32:51.129Z</time></trkpt><trkpt lat="40.3236172" lon="14.9523038"><ele>230.0</ele><time>2026-03-29T08:32:53.186Z</time></trkpt><trkpt lat="40.3236934" lon="14.9522866"><ele>230.0</ele><time>2026-03-29T08:32:55.11Z</time></trkpt><trkpt lat="40.3237772" lon="14.9522959"><ele>230.0</ele><time>2026-03-29T08:32:57.106Z</time></trkpt><trkpt lat="40.3238605" lon="14.9523237"><ele>230.00000000000003</ele><time>2026-03-29T08:32:59.108Z</time></trkpt><trkpt lat="40.3239352" lon="14.9523332"><ele>230.0</ele><time>2026-03-29T08:33:02.085Z</time></trkpt><trkpt lat="40.3238684" lon="14.9522942"><ele>230.0</ele><time>2026-03-29T09:00:01.208Z</time></trkpt><trkpt lat="40.3237998" lon="14.9523155"><ele>230.0</ele><time>2026-03-29T09:00:03.195Z</time></trkpt><trkpt lat="40.3237221" lon="14.9523017"><ele>230.00000000000003</ele><time>2026-03-29T09:00:05.178Z</time></trkpt><trkpt lat="40.3236374" lon="14.9523196"><ele>230.0</ele><time>2026-03-29T09:00:07.148Z</time></trkpt><trkpt lat="40.3235383" lon="14.9523592"><ele>230.0</ele><time>2026-03-29T09:00:09.129Z</time></trkpt><trkpt lat="40.323433" lon="14.9524056"><ele>230.0</ele><time>2026-03-29T09:00:11.141Z</time></trkpt><trkpt lat="40.32334" lon="14.9524774"><ele>230.0</ele><time>2026-03-29T09:00:13.167Z</time></trkpt><trkpt lat="40.3231945" lon="14.9526004"><ele>230.0</ele><time>2026-03-29T09:00:16.193Z</time></trkpt><trkpt lat="40.3231402" lon="14.9526478"><ele>230.00000000000003</ele><time>2026-03-29T09:00:17.174Z</time></trkpt><trkpt lat="40.3230426" lon="14.9527418"><ele>230.0</ele><time>2026-03-29T09:00:19.187Z</time></trkpt><trkpt lat="40.3229876" lon="14.9527901"><ele>230.0</ele><time>2026-03-29T09:00:20.211Z</time></trkpt><trkpt lat="40.3229314" lon="14.9528356"><ele>230.0</ele><time>2026-03-29T09:00:21.168Z</time></trkpt><trkpt lat="40.3228748" lon="14.9528846"><ele>230.00000000000003</ele><time>2026-03-29T09:00:22.188Z</time></trkpt><trkpt lat="40.3228151" lon="14.9529365"><ele>230.0</ele><time>2026-03-29T09:00:23.181Z</time></trkpt><trkpt lat="40.3227566" lon="14.9529864"><ele>230.0</ele><time>2026-03-29T09:00:24.166Z</time></trkpt><trkpt lat="40.322655" lon="14.9530755"><ele>230.0</ele><time>2026-03-29T09:00:26.194Z</time></trkpt><trkpt lat="40.3225455" lon="14.9531665"><ele>230.0</ele><time>2026-03-29T09:00:28.18Z</time></trkpt><trkpt lat="40.3224897" lon="14.9532193"><ele>230.0</ele><time>2026-03-29T09:00:29.177Z</time></trkpt><trkpt lat="40.322431" lon="14.9532839"><ele>230.0</ele><time>2026-03-29T09:00:30.205Z</time></trkpt><trkpt lat="40.3223788" lon="14.9533402"><ele>230.75</ele><time>2026-03-29T09:00:31.211Z</time></trkpt><trkpt lat="40.3223066" lon="14.9534792"><ele>231.5</ele><time>2026-03-29T09:00:33.213Z</time></trkpt><trkpt lat="40.3222541" lon="14.9536117"><ele>232.25</ele><time>2026-03-29T09:00:35.195Z</time></trkpt><trkpt lat="40.3222129" lon="14.9537515"><ele>233.0</ele><time>2026-03-29T09:00:37.21Z</time></trkpt><trkpt lat="40.3221748" lon="14.953873"><ele>233.00000000000003</ele><time>2026-03-29T09:00:39.168Z</time></trkpt><trkpt lat="40.3221194" lon="14.9539702"><ele>233.0</ele><time>2026-03-29T09:00:41.181Z</time></trkpt><trkpt lat="40.322045" lon="14.9540047"><ele>233.0</ele><time>2026-03-29T09:00:43.184Z</time></trkpt><trkpt lat="40.3219696" lon="14.9539995"><ele>233.0</ele><time>2026-03-29T09:00:45.16Z</time></trkpt><trkpt lat="40.3218822" lon="14.9540099"><ele>233.00000000000003</ele><time>2026-03-29T09:00:47.256Z</time></trkpt><trkpt lat="40.3217959" lon="14.9540282"><ele>233.0</ele><time>2026-03-29T09:00:49.192Z</time></trkpt><trkpt lat="40.3217083" lon="14.954043"><ele>233.00000000000003</ele><time>2026-03-29T09:00:51.18Z</time></trkpt><trkpt lat="40.321626" lon="14.9540608"><ele>233.0</ele><time>2026-03-29T09:00:53.174Z</time></trkpt><trkpt lat="40.3215526" lon="14.9540679"><ele>233.0</ele><time>2026-03-29T09:00:55.181Z</time></trkpt><trkpt lat="40.3214636" lon="14.9540784"><ele>233.0</ele><time>2026-03-29T09:00:57.194Z</time></trkpt><trkpt lat="40.3213709" lon="14.9540958"><ele>233.00000000000003</ele><time>2026-03-29T09:00:59.161Z</time></trkpt><trkpt lat="40.3212756" lon="14.9541233"><ele>233.0</ele><time>2026-03-29T09:01:01.188Z</time></trkpt><trkpt lat="40.3211936" lon="14.9541641"><ele>232.42857142857144</ele><time>2026-03-29T09:01:03.177Z</time></trkpt><trkpt lat="40.3211341" lon="14.9542042"><ele>231.85714285714283</ele><time>2026-03-29T09:01:05.182Z</time></trkpt><trkpt lat="40.3210756" lon="14.9542373"><ele>231.28571428571428</ele><time>2026-03-29T09:01:07.211Z</time></trkpt><trkpt lat="40.3210174" lon="14.9542723"><ele>230.71428571428572</ele><time>2026-03-29T09:01:09.199Z</time></trkpt><trkpt lat="40.320959" lon="14.9543113"><ele>230.14285714285717</ele><time>2026-03-29T09:01:11.18Z</time></trkpt><trkpt lat="40.3208454" lon="14.9543308"><ele>229.57142857142856</ele><time>2026-03-29T09:01:15.188Z</time></trkpt><trkpt lat="40.320782" lon="14.9542895"><ele>229.0</ele><time>2026-03-29T09:01:17.196Z</time></trkpt><trkpt lat="40.3206878" lon="14.9542426"><ele>244.0</ele><time>2026-03-29T09:01:20.244Z</time></trkpt><trkpt lat="40.3206075" lon="14.9542176"><ele>244.0</ele><time>2026-03-29T09:01:23.192Z</time></trkpt></trkseg><trkseg><trkpt lat="40.3202427" lon="14.9541992"><ele>233.8</ele><time>2026-03-29T09:12:03.228Z</time></trkpt><trkpt lat="40.3201409" lon="14.954214"><ele>237.6</ele><time>2026-03-29T09:12:05.172Z</time></trkpt><trkpt lat="40.3200787" lon="14.9542334"><ele>241.39999999999998</ele><time>2026-03-29T09:12:06.257Z</time></trkpt><trkpt lat="40.3199771" lon="14.9542743"><ele>245.2</ele><time>2026-03-29T09:12:08.199Z</time></trkpt><trkpt lat="40.3198714" lon="14.9543178"><ele>249.0</ele><time>2026-03-29T09:12:10.184Z</time></trkpt><trkpt lat="40.3197643" lon="14.9543693"><ele>247.25</ele><time>2026-03-29T09:12:12.18Z</time></trkpt><trkpt lat="40.3196582" lon="14.9544276"><ele>245.5</ele><time>2026-03-29T09:12:14.178Z</time></trkpt><trkpt lat="40.3195573" lon="14.9544831"><ele>243.75</ele><time>2026-03-29T09:12:16.176Z</time></trkpt><trkpt lat="40.3194435" lon="14.9545402"><ele>242.0</ele><time>2026-03-29T09:12:18.185Z</time></trkpt><trkpt lat="40.3193456" lon="14.9545972"><ele>242.0</ele><time>2026-03-29T09:12:20.204Z</time></trkpt><trkpt lat="40.3192538" lon="14.9546484"><ele>242.0</ele><time>2026-03-29T09:12:22.171Z</time></trkpt><trkpt lat="40.3191593" lon="14.9546978"><ele>242.0</ele><time>2026-03-29T09:12:24.176Z</time></trkpt><trkpt lat="40.3190719" lon="14.9547466"><ele>242.0</ele><time>2026-03-29T09:12:26.179Z</time></trkpt><trkpt lat="40.3189681" lon="14.9548037"><ele>242.0</ele><time>2026-03-29T09:12:28.145Z</time></trkpt><trkpt lat="40.3188571" lon="14.9548609"><ele>241.0</ele><time>2026-03-29T09:12:30.189Z</time></trkpt><trkpt lat="40.3187444" lon="14.9549191"><ele>240.0</ele><time>2026-03-29T09:12:32.17Z</time></trkpt><trkpt lat="40.318633" lon="14.9549822"><ele>239.0</ele><time>2026-03-29T09:12:34.153Z</time></trkpt><trkpt lat="40.3185747" lon="14.9550396"><ele>238.0</ele><time>2026-03-29T09:12:36.186Z</time></trkpt><trkpt lat="40.3185191" lon="14.9550999"><ele>237.0</ele><time>2026-03-29T09:12:38.214Z</time></trkpt><trkpt lat="40.3184652" lon="14.955189"><ele>237.0</ele><time>2026-03-29T09:12:40.197Z</time></trkpt><trkpt lat="40.3184345" lon="14.9552999"><ele>237.0</ele><time>2026-03-29T09:12:42.207Z</time></trkpt><trkpt lat="40.3184125" lon="14.9554367"><ele>237.0</ele><time>2026-03-29T09:12:44.2Z</time></trkpt><trkpt lat="40.3184064" lon="14.9555768"><ele>237.0</ele><time>2026-03-29T09:12:46.188Z</time></trkpt><trkpt lat="40.3183984" lon="14.955728"><ele>237.0</ele><time>2026-03-29T09:12:48.195Z</time></trkpt><trkpt lat="40.3184014" lon="14.9558618"><ele>239.2</ele><time>2026-03-29T09:12:50.186Z</time></trkpt><trkpt lat="40.3183994" lon="14.956004"><ele>241.39999999999998</ele><time>2026-03-29T09:12:52.207Z</time></trkpt><trkpt lat="40.3184006" lon="14.9561516"><ele>243.60000000000002</ele><time>2026-03-29T09:12:54.193Z</time></trkpt><trkpt lat="40.3183775" lon="14.9562836"><ele>245.8</ele><time>2026-03-29T09:12:56.194Z</time></trkpt><trkpt lat="40.3183261" lon="14.9564013"><ele>248.0</ele><time>2026-03-29T09:12:58.214Z</time></trkpt><trkpt lat="40.3182532" lon="14.956508"><ele>248.0</ele><time>2026-03-29T09:13:00.17Z</time></trkpt><trkpt lat="40.3181654" lon="14.9566312"><ele>248.0</ele><time>2026-03-29T09:13:02.2Z</time></trkpt><trkpt lat="40.3180921" lon="14.9567494"><ele>248.0</ele><time>2026-03-29T09:13:04.155Z</time></trkpt><trkpt lat="40.3180494" lon="14.9568206"><ele>248.0</ele><time>2026-03-29T09:13:05.172Z</time></trkpt><trkpt lat="40.318005" lon="14.9568853"><ele>248.0</ele><time>2026-03-29T09:13:06.175Z</time></trkpt><trkpt lat="40.3179585" lon="14.956957"><ele>246.00000000000003</ele><time>2026-03-29T09:13:07.178Z</time></trkpt><trkpt lat="40.3179127" lon="14.9570234"><ele>244.0</ele><time>2026-03-29T09:13:08.175Z</time></trkpt><trkpt lat="40.3178627" lon="14.957098"><ele>242.0</ele><time>2026-03-29T09:13:09.206Z</time></trkpt><trkpt lat="40.3178136" lon="14.9571688"><ele>240.0</ele><time>2026-03-29T09:13:10.171Z</time></trkpt><trkpt lat="40.3177704" lon="14.9572298"><ele>238.00000000000003</ele><time>2026-03-29T09:13:11.183Z</time></trkpt><trkpt lat="40.317701" lon="14.9573336"><ele>236.0</ele><time>2026-03-29T09:13:13.192Z</time></trkpt><trkpt lat="40.3176609" lon="14.9574304"><ele>236.0</ele><time>2026-03-29T09:13:15.199Z</time></trkpt><trkpt lat="40.3176698" lon="14.9575221"><ele>236.00000000000003</ele><time>2026-03-29T09:13:17.219Z</time></trkpt><trkpt lat="40.3177168" lon="14.9576235"><ele>236.00000000000003</ele><time>2026-03-29T09:13:19.218Z</time></trkpt><trkpt lat="40.3177915" lon="14.9577316"><ele>236.0</ele><time>2026-03-29T09:13:21.192Z</time></trkpt><trkpt lat="40.3178729" lon="14.9578475"><ele>236.0</ele><time>2026-03-29T09:13:23.218Z</time></trkpt><trkpt lat="40.3179581" lon="14.9579597"><ele>237.8</ele><time>2026-03-29T09:13:25.212Z</time></trkpt><trkpt lat="40.3180412" lon="14.9580682"><ele>239.60000000000002</ele><time>2026-03-29T09:13:27.193Z</time></trkpt><trkpt lat="40.3181256" lon="14.9581633"><ele>241.4</ele><time>2026-03-29T09:13:29.22Z</time></trkpt><trkpt lat="40.3181701" lon="14.9582219"><ele>243.2</ele><time>2026-03-29T09:13:30.313Z</time></trkpt><trkpt lat="40.3182364" lon="14.958333"><ele>245.0</ele><time>2026-03-29T09:13:32.205Z</time></trkpt><trkpt lat="40.3182939" lon="14.9584443"><ele>241.66666666666669</ele><time>2026-03-29T09:13:34.214Z</time></trkpt><trkpt lat="40.3183506" lon="14.9585115"><ele>238.33333333333334</ele><time>2026-03-29T09:13:36.192Z</time></trkpt><trkpt lat="40.3184262" lon="14.9585613"><ele>235.0</ele><time>2026-03-29T09:13:38.206Z</time></trkpt><trkpt lat="40.3185016" lon="14.9585855"><ele>231.66666666666669</ele><time>2026-03-29T09:13:40.208Z</time></trkpt><trkpt lat="40.3185706" lon="14.9586164"><ele>228.33333333333334</ele><time>2026-03-29T09:13:42.216Z</time></trkpt><trkpt lat="40.318671" lon="14.9586531"><ele>225.0</ele><time>2026-03-29T09:13:44.216Z</time></trkpt><trkpt lat="40.3187844" lon="14.9586995"><ele>225.0</ele><time>2026-03-29T09:13:46.192Z</time></trkpt><trkpt lat="40.3188483" lon="14.9587371"><ele>225.0</ele><time>2026-03-29T09:13:47.215Z</time></trkpt><trkpt lat="40.3189497" lon="14.9588108"><ele>225.0</ele><time>2026-03-29T09:13:49.22Z</time></trkpt><trkpt lat="40.3190514" lon="14.9588914"><ele>225.0</ele><time>2026-03-29T09:13:51.211Z</time></trkpt><trkpt lat="40.3191574" lon="14.9589714"><ele>225.0</ele><time>2026-03-29T09:13:53.206Z</time></trkpt><trkpt lat="40.3192319" lon="14.9590205"><ele>228.0</ele><time>2026-03-29T09:13:55.201Z</time></trkpt><trkpt lat="40.3192938" lon="14.9590626"><ele>231.0</ele><time>2026-03-29T09:14:23.202Z</time></trkpt><trkpt lat="40.3193965" lon="14.959056"><ele>234.0</ele><time>2026-03-29T09:14:26.196Z</time></trkpt><trkpt lat="40.3195026" lon="14.9590305"><ele>237.0</ele><time>2026-03-29T09:14:28.189Z</time></trkpt><trkpt lat="40.3196223" lon="14.9590104"><ele>240.0</ele><time>2026-03-29T09:14:30.213Z</time></trkpt><trkpt lat="40.3197456" lon="14.9590104"><ele>241.8</ele><time>2026-03-29T09:14:32.195Z</time></trkpt><trkpt lat="40.3198702" lon="14.9590377"><ele>243.6</ele><time>2026-03-29T09:14:34.183Z</time></trkpt><trkpt lat="40.3199352" lon="14.9590615"><ele>245.39999999999998</ele><time>2026-03-29T09:14:35.221Z</time></trkpt><trkpt lat="40.3199977" lon="14.9590829"><ele>247.2</ele><time>2026-03-29T09:14:36.183Z</time></trkpt><trkpt lat="40.3201182" lon="14.9591316"><ele>249.0</ele><time>2026-03-29T09:14:38.21Z</time></trkpt><trkpt lat="40.3202291" lon="14.9591964"><ele>245.25</ele><time>2026-03-29T09:14:40.215Z</time></trkpt><trkpt lat="40.320314" lon="14.9592883"><ele>241.5</ele><time>2026-03-29T09:14:42.177Z</time></trkpt><trkpt lat="40.320372" lon="14.9594091"><ele>237.75</ele><time>2026-03-29T09:14:44.226Z</time></trkpt><trkpt lat="40.320404" lon="14.9595585"><ele>234.0</ele><time>2026-03-29T09:14:46.21Z</time></trkpt><trkpt lat="40.3204339" lon="14.9597166"><ele>234.0</ele><time>2026-03-29T09:14:48.196Z</time></trkpt><trkpt lat="40.3204698" lon="14.95984"><ele>234.0</ele><time>2026-03-29T09:14:50.252Z</time></trkpt><trkpt lat="40.3205036" lon="14.9599699"><ele>234.0</ele><time>2026-03-29T09:14:52.214Z</time></trkpt><trkpt lat="40.3205427" lon="14.9601302"><ele>234.0</ele><time>2026-03-29T09:14:54.291Z</time></trkpt><trkpt lat="40.3205803" lon="14.960279"><ele>238.2</ele><time>2026-03-29T09:14:56.18Z</time></trkpt><trkpt lat="40.32061" lon="14.9604077"><ele>242.39999999999998</ele><time>2026-03-29T09:14:58.199Z</time></trkpt><trkpt lat="40.3206442" lon="14.9605461"><ele>246.6</ele><time>2026-03-29T09:15:00.194Z</time></trkpt><trkpt lat="40.3206739" lon="14.9606828"><ele>250.8</ele><time>2026-03-29T09:15:02.225Z</time></trkpt><trkpt lat="40.3206778" lon="14.9608004"><ele>255.0</ele><time>2026-03-29T09:15:04.274Z</time></trkpt><trkpt lat="40.3206716" lon="14.9608928"><ele>255.0</ele><time>2026-03-29T09:15:06.217Z</time></trkpt><trkpt lat="40.3206653" lon="14.9610143"><ele>255.0</ele><time>2026-03-29T09:15:08.201Z</time></trkpt><trkpt lat="40.3206643" lon="14.9611636"><ele>255.0</ele><time>2026-03-29T09:15:10.214Z</time></trkpt><trkpt lat="40.3206708" lon="14.9612988"><ele>255.0</ele><time>2026-03-29T09:15:12.206Z</time></trkpt><trkpt lat="40.3206856" lon="14.9614431"><ele>255.0</ele><time>2026-03-29T09:15:14.211Z</time></trkpt><trkpt lat="40.3206918" lon="14.9615918"><ele>255.8</ele><time>2026-03-29T09:15:16.171Z</time></trkpt><trkpt lat="40.3206823" lon="14.9617164"><ele>256.6</ele><time>2026-03-29T09:15:18.193Z</time></trkpt><trkpt lat="40.3206623" lon="14.9618341"><ele>257.4</ele><time>2026-03-29T09:15:20.219Z</time></trkpt><trkpt lat="40.3206225" lon="14.9619508"><ele>258.2</ele><time>2026-03-29T09:15:22.197Z</time></trkpt><trkpt lat="40.3205775" lon="14.9620652"><ele>259.0</ele><time>2026-03-29T09:15:24.225Z</time></trkpt><trkpt lat="40.3205151" lon="14.9621773"><ele>258.0</ele><time>2026-03-29T09:15:26.2Z</time></trkpt><trkpt lat="40.3204563" lon="14.9622938"><ele>257.0</ele><time>2026-03-29T09:15:28.194Z</time></trkpt><trkpt lat="40.3203884" lon="14.9624065"><ele>255.99999999999997</ele><time>2026-03-29T09:15:30.201Z</time></trkpt><trkpt lat="40.3203142" lon="14.9624969"><ele>255.0</ele><time>2026-03-29T09:15:32.208Z</time></trkpt><trkpt lat="40.3202498" lon="14.9625833"><ele>254.0</ele><time>2026-03-29T09:15:34.193Z</time></trkpt><trkpt lat="40.3201841" lon="14.9626954"><ele>254.0</ele><time>2026-03-29T09:15:36.189Z</time></trkpt><trkpt lat="40.3201192" lon="14.9628115"><ele>253.99999999999997</ele><time>2026-03-29T09:15:38.209Z</time></trkpt><trkpt lat="40.3200548" lon="14.962927"><ele>253.99999999999997</ele><time>2026-03-29T09:15:40.194Z</time></trkpt><trkpt lat="40.3199824" lon="14.9630349"><ele>254.0</ele><time>2026-03-29T09:15:42.184Z</time></trkpt><trkpt lat="40.319912" lon="14.9631078"><ele>254.0</ele><time>2026-03-29T09:15:44.192Z</time></trkpt><trkpt lat="40.3198383" lon="14.963159"><ele>254.0</ele><time>2026-03-29T09:15:46.192Z</time></trkpt><trkpt lat="40.3197386" lon="14.9632331"><ele>253.99999999999997</ele><time>2026-03-29T09:15:48.187Z</time></trkpt><trkpt lat="40.3196511" lon="14.9633136"><ele>253.99999999999997</ele><time>2026-03-29T09:15:50.223Z</time></trkpt><trkpt lat="40.319564" lon="14.9633585"><ele>254.0</ele><time>2026-03-29T09:15:52.196Z</time></trkpt><trkpt lat="40.3194712" lon="14.9634097"><ele>254.0</ele><time>2026-03-29T09:15:54.198Z</time></trkpt><trkpt lat="40.3193694" lon="14.9634892"><ele>253.5</ele><time>2026-03-29T09:15:56.134Z</time></trkpt><trkpt lat="40.3192749" lon="14.9635762"><ele>253.0</ele><time>2026-03-29T09:15:58.151Z</time></trkpt><trkpt lat="40.3191779" lon="14.9636497"><ele>252.5</ele><time>2026-03-29T09:16:00.18Z</time></trkpt><trkpt lat="40.319083" lon="14.963728"><ele>252.0</ele><time>2026-03-29T09:16:02.204Z</time></trkpt><trkpt lat="40.3190029" lon="14.9638269"><ele>252.0</ele><time>2026-03-29T09:16:04.188Z</time></trkpt><trkpt lat="40.3189468" lon="14.9639519"><ele>252.0</ele><time>2026-03-29T09:16:06.186Z</time></trkpt><trkpt lat="40.3188973" lon="14.9640841"><ele>252.0</ele><time>2026-03-29T09:16:08.212Z</time></trkpt><trkpt lat="40.3188531" lon="14.9642122"><ele>252.0</ele><time>2026-03-29T09:16:10.233Z</time></trkpt><trkpt lat="40.3188172" lon="14.9643445"><ele>252.0</ele><time>2026-03-29T09:16:12.219Z</time></trkpt><trkpt lat="40.3188165" lon="14.9644539"><ele>251.83333333333334</ele><time>2026-03-29T09:16:14.186Z</time></trkpt><trkpt lat="40.318829" lon="14.9645485"><ele>251.66666666666669</ele><time>2026-03-29T09:16:16.213Z</time></trkpt><trkpt lat="40.3188545" lon="14.9646286"><ele>251.5</ele><time>2026-03-29T09:16:18.206Z</time></trkpt><trkpt lat="40.318887" lon="14.9647063"><ele>251.33333333333334</ele><time>2026-03-29T09:16:20.194Z</time></trkpt><trkpt lat="40.3189414" lon="14.9648194"><ele>251.16666666666669</ele><time>2026-03-29T09:16:22.235Z</time></trkpt><trkpt lat="40.3190082" lon="14.964933"><ele>251.0</ele><time>2026-03-29T09:16:24.237Z</time></trkpt><trkpt lat="40.3190611" lon="14.965024"><ele>247.8</ele><time>2026-03-29T09:16:26.195Z</time></trkpt><trkpt lat="40.3191078" lon="14.9651129"><ele>244.60000000000002</ele><time>2026-03-29T09:16:28.214Z</time></trkpt><trkpt lat="40.319157" lon="14.9652245"><ele>241.4</ele><time>2026-03-29T09:16:30.2Z</time></trkpt><trkpt lat="40.3191971" lon="14.965334"><ele>238.2</ele><time>2026-03-29T09:16:32.192Z</time></trkpt><trkpt lat="40.3192282" lon="14.9654509"><ele>235.0</ele><time>2026-03-29T09:16:34.193Z</time></trkpt><trkpt lat="40.3192658" lon="14.9655868"><ele>235.0</ele><time>2026-03-29T09:16:36.187Z</time></trkpt><trkpt lat="40.3193049" lon="14.965709"><ele>235.0</ele><time>2026-03-29T09:16:38.2Z</time></trkpt><trkpt lat="40.3193607" lon="14.9658119"><ele>235.0</ele><time>2026-03-29T09:16:40.18Z</time></trkpt><trkpt lat="40.319432" lon="14.9659098"><ele>235.0</ele><time>2026-03-29T09:16:42.183Z</time></trkpt><trkpt lat="40.3195056" lon="14.9660124"><ele>235.0</ele><time>2026-03-29T09:16:44.201Z</time></trkpt><trkpt lat="40.3195577" lon="14.9661236"><ele>233.0</ele><time>2026-03-29T09:16:46.227Z</time></trkpt><trkpt lat="40.3195887" lon="14.9662574"><ele>231.0</ele><time>2026-03-29T09:16:48.222Z</time></trkpt><trkpt lat="40.3196018" lon="14.9663796"><ele>229.0</ele><time>2026-03-29T09:16:50.185Z</time></trkpt><trkpt lat="40.319605" lon="14.9665001"><ele>227.0</ele><time>2026-03-29T09:16:52.207Z</time></trkpt><trkpt lat="40.3196012" lon="14.9666057"><ele>225.0</ele><time>2026-03-29T09:16:54.196Z</time></trkpt><trkpt lat="40.3196006" lon="14.9667224"><ele>224.5</ele><time>2026-03-29T09:16:56.22Z</time></trkpt><trkpt lat="40.3195885" lon="14.9668235"><ele>224.0</ele><time>2026-03-29T09:16:58.226Z</time></trkpt><trkpt lat="40.3195826" lon="14.9669379"><ele>223.5</ele><time>2026-03-29T09:17:01.231Z</time></trkpt><trkpt lat="40.3195634" lon="14.9670197"><ele>223.0</ele><time>2026-03-29T09:17:03.198Z</time></trkpt><trkpt lat="40.319535" lon="14.9671151"><ele>222.5</ele><time>2026-03-29T09:17:05.199Z</time></trkpt><trkpt lat="40.3195072" lon="14.9672213"><ele>222.0</ele><time>2026-03-29T09:17:07.194Z</time></trkpt><trkpt lat="40.3194857" lon="14.9673189"><ele>222.0</ele><time>2026-03-29T09:17:09.211Z</time></trkpt><trkpt lat="40.3194954" lon="14.9674153"><ele>222.0</ele><time>2026-03-29T09:17:11.215Z</time></trkpt><trkpt lat="40.3195332" lon="14.9675303"><ele>222.0</ele><time>2026-03-29T09:17:13.217Z</time></trkpt><trkpt lat="40.3195893" lon="14.967613"><ele>222.0</ele><time>2026-03-29T09:17:15.217Z</time></trkpt><trkpt lat="40.3196419" lon="14.9676738"><ele>222.0</ele><time>2026-03-29T09:17:17.221Z</time></trkpt><trkpt lat="40.3197254" lon="14.9677427"><ele>222.0</ele><time>2026-03-29T09:17:19.228Z</time></trkpt><trkpt lat="40.3197988" lon="14.9678171"><ele>224.75</ele><time>2026-03-29T09:17:21.216Z</time></trkpt><trkpt lat="40.3198663" lon="14.96791"><ele>227.5</ele><time>2026-03-29T09:17:23.221Z</time></trkpt><trkpt lat="40.3199429" lon="14.9680235"><ele>230.25</ele><time>2026-03-29T09:17:25.237Z</time></trkpt><trkpt lat="40.3200265" lon="14.9681458"><ele>233.0</ele><time>2026-03-29T09:17:27.203Z</time></trkpt><trkpt lat="40.3201226" lon="14.9682557"><ele>233.0</ele><time>2026-03-29T09:17:29.222Z</time></trkpt><trkpt lat="40.3202157" lon="14.9683491"><ele>233.0</ele><time>2026-03-29T09:17:31.198Z</time></trkpt><trkpt lat="40.3202644" lon="14.9684019"><ele>233.0</ele><time>2026-03-29T09:17:32.202Z</time></trkpt><trkpt lat="40.3203561" lon="14.9685069"><ele>233.0</ele><time>2026-03-29T09:17:34.214Z</time></trkpt><trkpt lat="40.3204363" lon="14.9686282"><ele>233.0</ele><time>2026-03-29T09:17:36.194Z</time></trkpt><trkpt lat="40.3204973" lon="14.9687565"><ele>233.2</ele><time>2026-03-29T09:17:38.198Z</time></trkpt><trkpt lat="40.3205411" lon="14.9688844"><ele>233.4</ele><time>2026-03-29T09:17:40.194Z</time></trkpt><trkpt lat="40.32058" lon="14.9690165"><ele>233.59999999999997</ele><time>2026-03-29T09:17:42.211Z</time></trkpt><trkpt lat="40.3206207" lon="14.9691554"><ele>233.79999999999998</ele><time>2026-03-29T09:17:44.198Z</time></trkpt><trkpt lat="40.3206629" lon="14.969294"><ele>234.0</ele><time>2026-03-29T09:17:46.226Z</time></trkpt><trkpt lat="40.3207013" lon="14.969403"><ele>234.0</ele><time>2026-03-29T09:17:48.228Z</time></trkpt><trkpt lat="40.3207219" lon="14.9694981"><ele>234.0</ele><time>2026-03-29T09:17:50.203Z</time></trkpt><trkpt lat="40.320739" lon="14.9695986"><ele>234.0</ele><time>2026-03-29T09:17:52.197Z</time></trkpt><trkpt lat="40.3207414" lon="14.9697045"><ele>234.0</ele><time>2026-03-29T09:17:54.192Z</time></trkpt><trkpt lat="40.3207354" lon="14.969808"><ele>234.0</ele><time>2026-03-29T09:17:56.207Z</time></trkpt><trkpt lat="40.3207275" lon="14.9699355"><ele>234.0</ele><time>2026-03-29T09:17:58.226Z</time></trkpt><trkpt lat="40.3207179" lon="14.9700716"><ele>232.79999999999998</ele><time>2026-03-29T09:18:00.225Z</time></trkpt><trkpt lat="40.3207105" lon="14.970208"><ele>231.59999999999997</ele><time>2026-03-29T09:18:02.213Z</time></trkpt><trkpt lat="40.3207008" lon="14.9703637"><ele>230.4</ele><time>2026-03-29T09:18:04.214Z</time></trkpt><trkpt lat="40.3206929" lon="14.9705203"><ele>229.2</ele><time>2026-03-29T09:18:06.215Z</time></trkpt><trkpt lat="40.3206755" lon="14.9706525"><ele>228.0</ele><time>2026-03-29T09:18:08.192Z</time></trkpt><trkpt lat="40.3206389" lon="14.9707716"><ele>229.0</ele><time>2026-03-29T09:18:10.202Z</time></trkpt><trkpt lat="40.3205883" lon="14.9708608"><ele>230.0</ele><time>2026-03-29T09:18:12.207Z</time></trkpt><trkpt lat="40.3205198" lon="14.9709241"><ele>231.0</ele><time>2026-03-29T09:18:14.226Z</time></trkpt><trkpt lat="40.3204467" lon="14.9709743"><ele>232.0</ele><time>2026-03-29T09:18:16.216Z</time></trkpt><trkpt lat="40.3203645" lon="14.9710187"><ele>233.0</ele><time>2026-03-29T09:18:18.22Z</time></trkpt><trkpt lat="40.3202825" lon="14.9710807"><ele>234.0</ele><time>2026-03-29T09:18:20.426Z</time></trkpt><trkpt lat="40.3202052" lon="14.971174"><ele>234.0</ele><time>2026-03-29T09:18:22.244Z</time></trkpt><trkpt lat="40.3201303" lon="14.9712892"><ele>233.99999999999997</ele><time>2026-03-29T09:18:24.21Z</time></trkpt><trkpt lat="40.3200612" lon="14.9713857"><ele>233.99999999999997</ele><time>2026-03-29T09:18:26.226Z</time></trkpt><trkpt lat="40.3199753" lon="14.9714785"><ele>234.0</ele><time>2026-03-29T09:18:28.212Z</time></trkpt><trkpt lat="40.3198819" lon="14.9715748"><ele>234.0</ele><time>2026-03-29T09:18:30.205Z</time></trkpt><trkpt lat="40.3197846" lon="14.9716774"><ele>233.85714285714286</ele><time>2026-03-29T09:18:32.228Z</time></trkpt><trkpt lat="40.3197295" lon="14.9717333"><ele>233.71428571428572</ele><time>2026-03-29T09:18:33.204Z</time></trkpt><trkpt lat="40.3196756" lon="14.971787"><ele>233.57142857142858</ele><time>2026-03-29T09:18:34.204Z</time></trkpt><trkpt lat="40.3196202" lon="14.9718446"><ele>233.42857142857144</ele><time>2026-03-29T09:18:35.226Z</time></trkpt><trkpt lat="40.3195694" lon="14.9719006"><ele>233.28571428571428</ele><time>2026-03-29T09:18:36.189Z</time></trkpt><trkpt lat="40.3195129" lon="14.9719576"><ele>233.14285714285717</ele><time>2026-03-29T09:18:37.218Z</time></trkpt><trkpt lat="40.3194618" lon="14.9720118"><ele>233.0</ele><time>2026-03-29T09:18:38.207Z</time></trkpt><trkpt lat="40.3193783" lon="14.9720896"><ele>233.0</ele><time>2026-03-29T09:18:40.208Z</time></trkpt><trkpt lat="40.3192986" lon="14.9721482"><ele>233.0</ele><time>2026-03-29T09:18:42.198Z</time></trkpt><trkpt lat="40.319218" lon="14.9722052"><ele>233.0</ele><time>2026-03-29T09:18:44.188Z</time></trkpt><trkpt lat="40.3191352" lon="14.9722906"><ele>233.0</ele><time>2026-03-29T09:18:46.206Z</time></trkpt><trkpt lat="40.319082" lon="14.9723935"><ele>233.0</ele><time>2026-03-29T09:18:48.019Z</time></trkpt><trkpt lat="40.3190231" lon="14.9724794"><ele>234.60000000000002</ele><time>2026-03-29T09:18:50.019Z</time></trkpt><trkpt lat="40.3189329" lon="14.9725659"><ele>236.20000000000002</ele><time>2026-03-29T09:18:52.185Z</time></trkpt><trkpt lat="40.3188228" lon="14.9726237"><ele>237.8</ele><time>2026-03-29T09:18:54.158Z</time></trkpt><trkpt lat="40.3187308" lon="14.9726877"><ele>239.4</ele><time>2026-03-29T09:18:56.214Z</time></trkpt><trkpt lat="40.3186467" lon="14.9727807"><ele>241.0</ele><time>2026-03-29T09:18:58.211Z</time></trkpt><trkpt lat="40.3185767" lon="14.9728933"><ele>239.0</ele><time>2026-03-29T09:19:00.209Z</time></trkpt><trkpt lat="40.3185356" lon="14.9729976"><ele>237.00000000000003</ele><time>2026-03-29T09:19:02.223Z</time></trkpt><trkpt lat="40.3185102" lon="14.973108"><ele>235.00000000000003</ele><time>2026-03-29T09:19:04.225Z</time></trkpt><trkpt lat="40.3185061" lon="14.9732299"><ele>233.0</ele><time>2026-03-29T09:19:06.23Z</time></trkpt><trkpt lat="40.3185067" lon="14.9733608"><ele>231.0</ele><time>2026-03-29T09:19:08.215Z</time></trkpt><trkpt lat="40.3184833" lon="14.9734935"><ele>231.0</ele><time>2026-03-29T09:19:10.208Z</time></trkpt><trkpt lat="40.3184531" lon="14.9736086"><ele>231.00000000000003</ele><time>2026-03-29T09:19:12.209Z</time></trkpt><trkpt lat="40.3184167" lon="14.9737374"><ele>231.00000000000003</ele><time>2026-03-29T09:19:14.214Z</time></trkpt><trkpt lat="40.3183724" lon="14.9738644"><ele>231.0</ele><time>2026-03-29T09:19:16.219Z</time></trkpt><trkpt lat="40.3183165" lon="14.9739838"><ele>231.0</ele><time>2026-03-29T09:19:18.204Z</time></trkpt><trkpt lat="40.3182637" lon="14.9740811"><ele>231.0</ele><time>2026-03-29T09:19:20.224Z</time></trkpt><trkpt lat="40.3181859" lon="14.9741859"><ele>231.0</ele><time>2026-03-29T09:19:22.196Z</time></trkpt><trkpt lat="40.3181174" lon="14.9742676"><ele>231.0</ele><time>2026-03-29T09:19:24.211Z</time></trkpt><trkpt lat="40.3180629" lon="14.974322"><ele>231.0</ele><time>2026-03-29T09:19:26.204Z</time></trkpt><trkpt lat="40.3180164" lon="14.97439"><ele>231.0</ele><time>2026-03-29T09:19:28.195Z</time></trkpt><trkpt lat="40.3179715" lon="14.9744575"><ele>231.0</ele><time>2026-03-29T09:19:30.227Z</time></trkpt><trkpt lat="40.317926" lon="14.9745296"><ele>229.8</ele><time>2026-03-29T09:19:32.208Z</time></trkpt><trkpt lat="40.317868" lon="14.9746214"><ele>228.60000000000002</ele><time>2026-03-29T09:19:34.214Z</time></trkpt><trkpt lat="40.3178154" lon="14.9747177"><ele>227.4</ele><time>2026-03-29T09:19:36.201Z</time></trkpt><trkpt lat="40.3177585" lon="14.9748074"><ele>226.2</ele><time>2026-03-29T09:19:38.197Z</time></trkpt><trkpt lat="40.3176973" lon="14.9748926"><ele>225.0</ele><time>2026-03-29T09:19:40.203Z</time></trkpt><trkpt lat="40.3176181" lon="14.9749854"><ele>226.4</ele><time>2026-03-29T09:19:42.216Z</time></trkpt><trkpt lat="40.3175256" lon="14.9750385"><ele>227.8</ele><time>2026-03-29T09:19:44.226Z</time></trkpt><trkpt lat="40.3174251" lon="14.9750744"><ele>229.2</ele><time>2026-03-29T09:19:46.197Z</time></trkpt><trkpt lat="40.3173224" lon="14.9751153"><ele>230.6</ele><time>2026-03-29T09:19:48.224Z</time></trkpt><trkpt lat="40.3172291" lon="14.9751495"><ele>232.0</ele><time>2026-03-29T09:19:50.213Z</time></trkpt><trkpt lat="40.3171352" lon="14.9751819"><ele>232.0</ele><time>2026-03-29T09:19:52.319Z</time></trkpt><trkpt lat="40.3170406" lon="14.9752072"><ele>232.0</ele><time>2026-03-29T09:19:54.196Z</time></trkpt><trkpt lat="40.3169351" lon="14.9752332"><ele>232.0</ele><time>2026-03-29T09:19:56.204Z</time></trkpt><trkpt lat="40.3168281" lon="14.9752728"><ele>232.0</ele><time>2026-03-29T09:19:58.213Z</time></trkpt><trkpt lat="40.316743" lon="14.9753308"><ele>232.0</ele><time>2026-03-29T09:20:00.207Z</time></trkpt><trkpt lat="40.3166562" lon="14.9754201"><ele>232.0</ele><time>2026-03-29T09:20:02.213Z</time></trkpt><trkpt lat="40.316582" lon="14.9755118"><ele>232.0</ele><time>2026-03-29T09:20:04.192Z</time></trkpt><trkpt lat="40.3164936" lon="14.9756109"><ele>232.0</ele><time>2026-03-29T09:20:06.193Z</time></trkpt><trkpt lat="40.3164362" lon="14.9756538"><ele>232.0</ele><time>2026-03-29T09:20:07.215Z</time></trkpt><trkpt lat="40.3163305" lon="14.9757086"><ele>232.0</ele><time>2026-03-29T09:20:09.2Z</time></trkpt><trkpt lat="40.316226" lon="14.9757488"><ele>231.16666666666666</ele><time>2026-03-29T09:20:11.205Z</time></trkpt><trkpt lat="40.3161384" lon="14.9757569"><ele>230.33333333333331</ele><time>2026-03-29T09:20:13.322Z</time></trkpt><trkpt lat="40.3160667" lon="14.9757401"><ele>229.5</ele><time>2026-03-29T09:20:15.21Z</time></trkpt><trkpt lat="40.3159734" lon="14.975721"><ele>228.66666666666669</ele><time>2026-03-29T09:20:17.177Z</time></trkpt><trkpt lat="40.3158852" lon="14.9756757"><ele>227.83333333333334</ele><time>2026-03-29T09:20:19.198Z</time></trkpt><trkpt lat="40.3158047" lon="14.9756217"><ele>227.0</ele><time>2026-03-29T09:20:21.211Z</time></trkpt><trkpt lat="40.3157217" lon="14.9755797"><ele>227.0</ele><time>2026-03-29T09:20:23.228Z</time></trkpt><trkpt lat="40.3156338" lon="14.9755611"><ele>227.0</ele><time>2026-03-29T09:20:25.212Z</time></trkpt><trkpt lat="40.3155488" lon="14.9755814"><ele>227.0</ele><time>2026-03-29T09:20:27.209Z</time></trkpt><trkpt lat="40.3154611" lon="14.975634"><ele>227.0</ele><time>2026-03-29T09:20:29.2Z</time></trkpt><trkpt lat="40.3153556" lon="14.9757151"><ele>227.0</ele><time>2026-03-29T09:20:31.2Z</time></trkpt><trkpt lat="40.3152983" lon="14.975768"><ele>225.0</ele><time>2026-03-29T09:20:32.243Z</time></trkpt><trkpt lat="40.3152038" lon="14.9758745"><ele>223.0</ele><time>2026-03-29T09:20:34.211Z</time></trkpt><trkpt lat="40.3151505" lon="14.9759276"><ele>221.0</ele><time>2026-03-29T09:20:35.216Z</time></trkpt><trkpt lat="40.3150972" lon="14.9759861"><ele>219.0</ele><time>2026-03-29T09:20:36.209Z</time></trkpt><trkpt lat="40.31505" lon="14.9760476"><ele>217.0</ele><time>2026-03-29T09:20:37.207Z</time></trkpt><trkpt lat="40.3149674" lon="14.9761686"><ele>217.0</ele><time>2026-03-29T09:20:39.206Z</time></trkpt><trkpt lat="40.3149145" lon="14.9762842"><ele>217.0</ele><time>2026-03-29T09:20:41.22Z</time></trkpt><trkpt lat="40.3148971" lon="14.9764005"><ele>217.0</ele><time>2026-03-29T09:20:43.203Z</time></trkpt><trkpt lat="40.3149121" lon="14.9765202"><ele>217.0</ele><time>2026-03-29T09:20:45.213Z</time></trkpt><trkpt lat="40.3149816" lon="14.9766965"><ele>217.0</ele><time>2026-03-29T09:20:48.211Z</time></trkpt><trkpt lat="40.3150591" lon="14.9767998"><ele>215.25</ele><time>2026-03-29T09:20:50.277Z</time></trkpt><trkpt lat="40.3151381" lon="14.9768879"><ele>213.5</ele><time>2026-03-29T09:20:52.21Z</time></trkpt><trkpt lat="40.3152217" lon="14.9770069"><ele>211.75</ele><time>2026-03-29T09:20:54.28Z</time></trkpt><trkpt lat="40.3152769" lon="14.9771394"><ele>210.0</ele><time>2026-03-29T09:20:56.208Z</time></trkpt><trkpt lat="40.3152999" lon="14.9772911"><ele>210.0</ele><time>2026-03-29T09:20:58.208Z</time></trkpt><trkpt lat="40.3153102" lon="14.9774519"><ele>210.0</ele><time>2026-03-29T09:21:00.195Z</time></trkpt><trkpt lat="40.3153143" lon="14.9775384"><ele>210.0</ele><time>2026-03-29T09:21:01.193Z</time></trkpt><trkpt lat="40.3153139" lon="14.9776317"><ele>210.0</ele><time>2026-03-29T09:21:02.195Z</time></trkpt><trkpt lat="40.3153124" lon="14.9777246"><ele>210.0</ele><time>2026-03-29T09:21:03.242Z</time></trkpt><trkpt lat="40.3153039" lon="14.9778152"><ele>210.0</ele><time>2026-03-29T09:21:04.323Z</time></trkpt><trkpt lat="40.3152795" lon="14.9779616"><ele>210.66666666666666</ele><time>2026-03-29T09:21:06.22Z</time></trkpt><trkpt lat="40.3152622" lon="14.9780419"><ele>211.33333333333331</ele><time>2026-03-29T09:21:07.185Z</time></trkpt><trkpt lat="40.3152328" lon="14.9781966"><ele>212.0</ele><time>2026-03-29T09:21:09.2Z</time></trkpt><trkpt lat="40.3152219" lon="14.9782781"><ele>212.66666666666666</ele><time>2026-03-29T09:21:10.223Z</time></trkpt><trkpt lat="40.3152064" lon="14.97836"><ele>213.33333333333331</ele><time>2026-03-29T09:21:11.222Z</time></trkpt><trkpt lat="40.3151798" lon="14.9785179"><ele>214.0</ele><time>2026-03-29T09:21:13.235Z</time></trkpt><trkpt lat="40.3151765" lon="14.9786022"><ele>213.99999999999997</ele><time>2026-03-29T09:21:14.229Z</time></trkpt><trkpt lat="40.3151797" lon="14.9786935"><ele>214.0</ele><time>2026-03-29T09:21:15.238Z</time></trkpt><trkpt lat="40.3151961" lon="14.9788033"><ele>214.0</ele><time>2026-03-29T09:21:16.272Z</time></trkpt><trkpt lat="40.3152214" lon="14.9789201"><ele>214.0</ele><time>2026-03-29T09:21:17.242Z</time></trkpt><trkpt lat="40.3152418" lon="14.9790436"><ele>213.99999999999997</ele><time>2026-03-29T09:21:18.272Z</time></trkpt><trkpt lat="40.3152586" lon="14.9791478"><ele>214.0</ele><time>2026-03-29T09:21:19.199Z</time></trkpt><trkpt lat="40.3152779" lon="14.9792481"><ele>213.33333333333331</ele><time>2026-03-29T09:21:20.207Z</time></trkpt><trkpt lat="40.3153005" lon="14.9793529"><ele>212.66666666666666</ele><time>2026-03-29T09:21:21.234Z</time></trkpt><trkpt lat="40.3153255" lon="14.9794605"><ele>212.0</ele><time>2026-03-29T09:21:22.212Z</time></trkpt><trkpt lat="40.3153458" lon="14.9795635"><ele>211.33333333333331</ele><time>2026-03-29T09:21:23.224Z</time></trkpt><trkpt lat="40.3153633" lon="14.9796534"><ele>210.66666666666666</ele><time>2026-03-29T09:21:24.23Z</time></trkpt><trkpt lat="40.3153948" lon="14.9798099"><ele>210.0</ele><time>2026-03-29T09:21:26.206Z</time></trkpt><trkpt lat="40.3154111" lon="14.9798949"><ele>210.0</ele><time>2026-03-29T09:21:27.206Z</time></trkpt><trkpt lat="40.3154288" lon="14.9799878"><ele>210.0</ele><time>2026-03-29T09:21:28.234Z</time></trkpt><trkpt lat="40.3154484" lon="14.9800791"><ele>210.0</ele><time>2026-03-29T09:21:29.326Z</time></trkpt><trkpt lat="40.315492" lon="14.9802133"><ele>210.0</ele><time>2026-03-29T09:21:31.256Z</time></trkpt><trkpt lat="40.3155557" lon="14.9803177"><ele>210.0</ele><time>2026-03-29T09:21:33.228Z</time></trkpt><trkpt lat="40.3156062" lon="14.9803836"><ele>210.0</ele><time>2026-03-29T09:21:36.208Z</time></trkpt><trkpt lat="40.3156899" lon="14.9804725"><ele>212.83333333333334</ele><time>2026-03-29T09:21:48.218Z</time></trkpt><trkpt lat="40.3157667" lon="14.9805594"><ele>215.66666666666669</ele><time>2026-03-29T09:21:50.206Z</time></trkpt><trkpt lat="40.3158596" lon="14.9806576"><ele>218.5</ele><time>2026-03-29T09:21:52.209Z</time></trkpt><trkpt lat="40.315909" lon="14.9807126"><ele>221.33333333333334</ele><time>2026-03-29T09:21:53.199Z</time></trkpt><trkpt lat="40.3159565" lon="14.9807706"><ele>224.16666666666669</ele><time>2026-03-29T09:21:54.209Z</time></trkpt><trkpt lat="40.3159972" lon="14.9808342"><ele>227.0</ele><time>2026-03-29T09:21:55.207Z</time></trkpt><trkpt lat="40.3160669" lon="14.9809754"><ele>228.14285714285717</ele><time>2026-03-29T09:21:57.202Z</time></trkpt><trkpt lat="40.316101" lon="14.9810502"><ele>229.2857142857143</ele><time>2026-03-29T09:21:58.194Z</time></trkpt><trkpt lat="40.3161424" lon="14.9811272"><ele>230.42857142857144</ele><time>2026-03-29T09:21:59.213Z</time></trkpt><trkpt lat="40.3161817" lon="14.9811925"><ele>231.57142857142856</ele><time>2026-03-29T09:22:00.215Z</time></trkpt><trkpt lat="40.3162234" lon="14.9812623"><ele>232.7142857142857</ele><time>2026-03-29T09:22:01.196Z</time></trkpt><trkpt lat="40.3162626" lon="14.9813402"><ele>233.85714285714283</ele><time>2026-03-29T09:22:02.223Z</time></trkpt><trkpt lat="40.3162986" lon="14.9814232"><ele>235.0</ele><time>2026-03-29T09:22:03.227Z</time></trkpt><trkpt lat="40.3163352" lon="14.9815154"><ele>234.99999999999997</ele><time>2026-03-29T09:22:04.222Z</time></trkpt><trkpt lat="40.3163654" lon="14.981592"><ele>235.0</ele><time>2026-03-29T09:22:05.223Z</time></trkpt><trkpt lat="40.3164134" lon="14.9817453"><ele>235.0</ele><time>2026-03-29T09:22:07.195Z</time></trkpt><trkpt lat="40.316427" lon="14.9818347"><ele>235.0</ele><time>2026-03-29T09:22:08.225Z</time></trkpt><trkpt lat="40.3164264" lon="14.9819227"><ele>234.99999999999997</ele><time>2026-03-29T09:22:09.215Z</time></trkpt><trkpt lat="40.3164133" lon="14.9820103"><ele>235.0</ele><time>2026-03-29T09:22:10.257Z</time></trkpt><trkpt lat="40.3163865" lon="14.9821736"><ele>235.83333333333331</ele><time>2026-03-29T09:22:12.227Z</time></trkpt><trkpt lat="40.3163604" lon="14.9823269"><ele>236.66666666666666</ele><time>2026-03-29T09:22:14.205Z</time></trkpt><trkpt lat="40.3163497" lon="14.9824168"><ele>237.5</ele><time>2026-03-29T09:22:15.224Z</time></trkpt><trkpt lat="40.3163394" lon="14.9825015"><ele>238.33333333333331</ele><time>2026-03-29T09:22:16.208Z</time></trkpt><trkpt lat="40.3163243" lon="14.9825881"><ele>239.16666666666666</ele><time>2026-03-29T09:22:17.214Z</time></trkpt><trkpt lat="40.3163081" lon="14.9826744"><ele>240.0</ele><time>2026-03-29T09:22:18.221Z</time></trkpt><trkpt lat="40.3162941" lon="14.9827569"><ele>240.2</ele><time>2026-03-29T09:22:19.25Z</time></trkpt><trkpt lat="40.3162754" lon="14.9829026"><ele>240.4</ele><time>2026-03-29T09:22:21.213Z</time></trkpt><trkpt lat="40.3162643" lon="14.9830075"><ele>240.60000000000002</ele><time>2026-03-29T09:22:23.224Z</time></trkpt><trkpt lat="40.3162351" lon="14.98313"><ele>240.8</ele><time>2026-03-29T09:22:26.212Z</time></trkpt><trkpt lat="40.3162129" lon="14.9832254"><ele>241.0</ele><time>2026-03-29T09:22:28.207Z</time></trkpt><trkpt lat="40.3161705" lon="14.9833427"><ele>240.4</ele><time>2026-03-29T09:22:31.222Z</time></trkpt><trkpt lat="40.3161222" lon="14.9834443"><ele>239.8</ele><time>2026-03-29T09:22:33.306Z</time></trkpt><trkpt lat="40.3160846" lon="14.9835522"><ele>239.20000000000002</ele><time>2026-03-29T09:22:35.203Z</time></trkpt><trkpt lat="40.316062" lon="14.983661"><ele>238.60000000000002</ele><time>2026-03-29T09:22:37.218Z</time></trkpt><trkpt lat="40.3160521" lon="14.9837876"><ele>238.0</ele><time>2026-03-29T09:22:39.209Z</time></trkpt><trkpt lat="40.3160502" lon="14.9839143"><ele>238.0</ele><time>2026-03-29T09:22:41.322Z</time></trkpt><trkpt lat="40.3160535" lon="14.984071"><ele>238.0</ele><time>2026-03-29T09:22:43.323Z</time></trkpt><trkpt lat="40.3160606" lon="14.9842222"><ele>238.0</ele><time>2026-03-29T09:22:45.207Z</time></trkpt><trkpt lat="40.3160552" lon="14.984359"><ele>238.0</ele><time>2026-03-29T09:22:47.2Z</time></trkpt><trkpt lat="40.3160494" lon="14.9844424"><ele>238.0</ele><time>2026-03-29T09:22:48.213Z</time></trkpt><trkpt lat="40.3160401" lon="14.9845842"><ele>237.99999999999997</ele><time>2026-03-29T09:22:50.211Z</time></trkpt><trkpt lat="40.3160418" lon="14.984692"><ele>238.0</ele><time>2026-03-29T09:22:52.227Z</time></trkpt><trkpt lat="40.3160731" lon="14.984777"><ele>238.0</ele><time>2026-03-29T09:22:54.193Z</time></trkpt><trkpt lat="40.3161312" lon="14.9848823"><ele>238.0</ele><time>2026-03-29T09:22:57.19Z</time></trkpt><trkpt lat="40.3162063" lon="14.9849917"><ele>237.99999999999997</ele><time>2026-03-29T09:22:59.201Z</time></trkpt><trkpt lat="40.3162461" lon="14.9850624"><ele>238.0</ele><time>2026-03-29T09:23:00.21Z</time></trkpt><trkpt lat="40.3162884" lon="14.9851493"><ele>238.49999999999997</ele><time>2026-03-29T09:23:01.204Z</time></trkpt><trkpt lat="40.3163206" lon="14.9852519"><ele>239.0</ele><time>2026-03-29T09:23:02.203Z</time></trkpt><trkpt lat="40.3163357" lon="14.9853563"><ele>239.5</ele><time>2026-03-29T09:23:03.209Z</time></trkpt><trkpt lat="40.3163468" lon="14.9854511"><ele>240.0</ele><time>2026-03-29T09:23:04.203Z</time></trkpt><trkpt lat="40.3163603" lon="14.9855564"><ele>240.49999999999997</ele><time>2026-03-29T09:23:05.195Z</time></trkpt><trkpt lat="40.3163713" lon="14.985638"><ele>241.0</ele><time>2026-03-29T09:23:06.184Z</time></trkpt><trkpt lat="40.31639" lon="14.9857385"><ele>241.0</ele><time>2026-03-29T09:23:08.215Z</time></trkpt><trkpt lat="40.3163311" lon="14.9858127"><ele>241.00000000000003</ele><time>2026-03-29T09:23:11.193Z</time></trkpt><trkpt lat="40.3162425" lon="14.9857898"><ele>241.00000000000003</ele><time>2026-03-29T09:23:13.202Z</time></trkpt><trkpt lat="40.3161501" lon="14.9857445"><ele>241.0</ele><time>2026-03-29T09:23:15.203Z</time></trkpt><trkpt lat="40.3160371" lon="14.9856874"><ele>241.0</ele><time>2026-03-29T09:23:17.21Z</time></trkpt><trkpt lat="40.3159735" lon="14.9856532"><ele>241.0</ele><time>2026-03-29T09:23:18.205Z</time></trkpt><trkpt lat="40.3158761" lon="14.9856023"><ele>241.00000000000003</ele><time>2026-03-29T09:23:20.264Z</time></trkpt><trkpt lat="40.3157873" lon="14.9855595"><ele>241.00000000000003</ele><time>2026-03-29T09:23:22.201Z</time></trkpt><trkpt lat="40.3158595" lon="14.9855997"><ele>241.0</ele><time>2026-03-29T09:23:38.199Z</time></trkpt><trkpt lat="40.315953" lon="14.9856443"><ele>241.0</ele><time>2026-03-29T09:23:40.227Z</time></trkpt><trkpt lat="40.3160965" lon="14.9857254"><ele>240.99999999999997</ele><time>2026-03-29T09:23:43.208Z</time></trkpt><trkpt lat="40.3161963" lon="14.9857787"><ele>241.0</ele><time>2026-03-29T09:23:45.231Z</time></trkpt><trkpt lat="40.3162885" lon="14.9858099"><ele>241.0</ele><time>2026-03-29T09:23:47.247Z</time></trkpt><trkpt lat="40.3163662" lon="14.985804"><ele>241.0</ele><time>2026-03-29T09:23:49.206Z</time></trkpt><trkpt lat="40.3164325" lon="14.9858739"><ele>240.99999999999997</ele><time>2026-03-29T09:23:52.23Z</time></trkpt><trkpt lat="40.3164416" lon="14.9859803"><ele>241.0</ele><time>2026-03-29T09:23:54.291Z</time></trkpt><trkpt lat="40.3164124" lon="14.9861171"><ele>238.4</ele><time>2026-03-29T09:23:56.219Z</time></trkpt><trkpt lat="40.3163764" lon="14.9861938"><ele>235.8</ele><time>2026-03-29T09:23:57.223Z</time></trkpt><trkpt lat="40.3162554" lon="14.9863166"><ele>233.20000000000002</ele><time>2026-03-29T09:24:00.269Z</time></trkpt><trkpt lat="40.3161707" lon="14.9863682"><ele>230.60000000000002</ele><time>2026-03-29T09:24:02.196Z</time></trkpt><trkpt lat="40.3161087" lon="14.9863976"><ele>228.0</ele><time>2026-03-29T09:24:03.221Z</time></trkpt><trkpt lat="40.3160391" lon="14.9864265"><ele>228.0</ele><time>2026-03-29T09:24:04.233Z</time></trkpt><trkpt lat="40.3159657" lon="14.9864523"><ele>228.0</ele><time>2026-03-29T09:24:05.222Z</time></trkpt><trkpt lat="40.3158854" lon="14.9864788"><ele>228.0</ele><time>2026-03-29T09:24:06.24Z</time></trkpt><trkpt lat="40.3157921" lon="14.9865091"><ele>228.0</ele><time>2026-03-29T09:24:07.21Z</time></trkpt><trkpt lat="40.3156862" lon="14.9865525"><ele>228.0</ele><time>2026-03-29T09:24:08.22Z</time></trkpt><trkpt lat="40.3155805" lon="14.9865931"><ele>228.0</ele><time>2026-03-29T09:24:09.221Z</time></trkpt><trkpt lat="40.3154743" lon="14.9866423"><ele>228.0</ele><time>2026-03-29T09:24:10.224Z</time></trkpt><trkpt lat="40.315367" lon="14.9866929"><ele>228.0</ele><time>2026-03-29T09:24:11.253Z</time></trkpt><trkpt lat="40.3152512" lon="14.9867483"><ele>228.0</ele><time>2026-03-29T09:24:12.217Z</time></trkpt><trkpt lat="40.3151356" lon="14.9868031"><ele>228.0</ele><time>2026-03-29T09:24:13.244Z</time></trkpt><trkpt lat="40.3150367" lon="14.9868628"><ele>228.0</ele><time>2026-03-29T09:24:14.243Z</time></trkpt><trkpt lat="40.3149534" lon="14.9869308"><ele>228.0</ele><time>2026-03-29T09:24:15.221Z</time></trkpt><trkpt lat="40.3148799" lon="14.9870252"><ele>228.0</ele><time>2026-03-29T09:24:16.227Z</time></trkpt><trkpt lat="40.3148215" lon="14.9871354"><ele>228.0</ele><time>2026-03-29T09:24:17.205Z</time></trkpt><trkpt lat="40.3147723" lon="14.9872873"><ele>228.0</ele><time>2026-03-29T09:24:18.374Z</time></trkpt><trkpt lat="40.3147274" lon="14.9875671"><ele>228.0</ele><time>2026-03-29T09:24:20.2Z</time></trkpt><trkpt lat="40.3147109" lon="14.9877229"><ele>228.0</ele><time>2026-03-29T09:24:21.202Z</time></trkpt><trkpt lat="40.3147212" lon="14.9878629"><ele>228.0</ele><time>2026-03-29T09:24:22.199Z</time></trkpt><trkpt lat="40.3147443" lon="14.9880204"><ele>228.0</ele><time>2026-03-29T09:24:23.215Z</time></trkpt><trkpt lat="40.3147691" lon="14.9881718"><ele>228.0</ele><time>2026-03-29T09:24:24.193Z</time></trkpt><trkpt lat="40.3147919" lon="14.9883345"><ele>228.0</ele><time>2026-03-29T09:24:25.215Z</time></trkpt><trkpt lat="40.3148159" lon="14.9884759"><ele>228.0</ele><time>2026-03-29T09:24:26.219Z</time></trkpt><trkpt lat="40.3148312" lon="14.9886073"><ele>227.75</ele><time>2026-03-29T09:24:27.231Z</time></trkpt><trkpt lat="40.3148313" lon="14.9887191"><ele>227.5</ele><time>2026-03-29T09:24:28.221Z</time></trkpt><trkpt lat="40.314726" lon="14.9890069"><ele>227.25</ele><time>2026-03-29T09:24:31.255Z</time></trkpt><trkpt lat="40.314705" lon="14.9891143"><ele>227.0</ele><time>2026-03-29T09:24:32.216Z</time></trkpt><trkpt lat="40.3146909" lon="14.9892342"><ele>223.0</ele><time>2026-03-29T09:24:33.232Z</time></trkpt><trkpt lat="40.3146911" lon="14.9893818"><ele>219.0</ele><time>2026-03-29T09:24:34.237Z</time></trkpt><trkpt lat="40.3146903" lon="14.9895141"><ele>215.0</ele><time>2026-03-29T09:24:35.234Z</time></trkpt><trkpt lat="40.3146961" lon="14.9896625"><ele>211.0</ele><time>2026-03-29T09:24:36.208Z</time></trkpt><trkpt lat="40.3147058" lon="14.9898315"><ele>211.0</ele><time>2026-03-29T09:24:37.239Z</time></trkpt><trkpt lat="40.3147182" lon="14.9899966"><ele>211.0</ele><time>2026-03-29T09:24:38.213Z</time></trkpt><trkpt lat="40.3147265" lon="14.9901624"><ele>211.0</ele><time>2026-03-29T09:24:39.226Z</time></trkpt><trkpt lat="40.3147279" lon="14.990311"><ele>211.0</ele><time>2026-03-29T09:24:40.221Z</time></trkpt><trkpt lat="40.3147223" lon="14.9904707"><ele>211.0</ele><time>2026-03-29T09:24:41.254Z</time></trkpt><trkpt lat="40.3146945" lon="14.9906332"><ele>211.0</ele><time>2026-03-29T09:24:42.277Z</time></trkpt><trkpt lat="40.3146555" lon="14.9907958"><ele>211.0</ele><time>2026-03-29T09:24:43.283Z</time></trkpt><trkpt lat="40.314606" lon="14.990941"><ele>211.0</ele><time>2026-03-29T09:24:44.228Z</time></trkpt><trkpt lat="40.3145599" lon="14.9910951"><ele>211.0</ele><time>2026-03-29T09:24:45.234Z</time></trkpt><trkpt lat="40.3145125" lon="14.9912378"><ele>211.0</ele><time>2026-03-29T09:24:46.226Z</time></trkpt><trkpt lat="40.3144539" lon="14.9913728"><ele>211.0</ele><time>2026-03-29T09:24:47.203Z</time></trkpt><trkpt lat="40.3143876" lon="14.9915078"><ele>211.0</ele><time>2026-03-29T09:24:48.201Z</time></trkpt><trkpt lat="40.3143257" lon="14.9916378"><ele>211.0</ele><time>2026-03-29T09:24:49.208Z</time></trkpt><trkpt lat="40.3142685" lon="14.9917604"><ele>211.0</ele><time>2026-03-29T09:24:50.226Z</time></trkpt><trkpt lat="40.3142162" lon="14.9918765"><ele>211.0</ele><time>2026-03-29T09:24:51.208Z</time></trkpt><trkpt lat="40.3141677" lon="14.9919856"><ele>211.0</ele><time>2026-03-29T09:24:52.229Z</time></trkpt><trkpt lat="40.3141247" lon="14.992088"><ele>211.0</ele><time>2026-03-29T09:24:53.315Z</time></trkpt><trkpt lat="40.3140933" lon="14.9922733"><ele>210.99999999999997</ele><time>2026-03-29T09:24:55.237Z</time></trkpt><trkpt lat="40.3141074" lon="14.9923806"><ele>211.0</ele><time>2026-03-29T09:24:56.223Z</time></trkpt><trkpt lat="40.3141389" lon="14.9924994"><ele>211.0</ele><time>2026-03-29T09:24:57.233Z</time></trkpt><trkpt lat="40.3141656" lon="14.9926075"><ele>211.0</ele><time>2026-03-29T09:24:58.205Z</time></trkpt><trkpt lat="40.3141816" lon="14.9927203"><ele>210.99999999999997</ele><time>2026-03-29T09:24:59.23Z</time></trkpt><trkpt lat="40.3141875" lon="14.9928372"><ele>211.0</ele><time>2026-03-29T09:25:00.205Z</time></trkpt><trkpt lat="40.3141784" lon="14.9929675"><ele>210.5</ele><time>2026-03-29T09:25:01.193Z</time></trkpt><trkpt lat="40.3141578" lon="14.9931181"><ele>210.0</ele><time>2026-03-29T09:25:02.225Z</time></trkpt><trkpt lat="40.3141312" lon="14.9932592"><ele>209.5</ele><time>2026-03-29T09:25:03.206Z</time></trkpt><trkpt lat="40.314104" lon="14.9934074"><ele>209.0</ele><time>2026-03-29T09:25:04.22Z</time></trkpt><trkpt lat="40.3140696" lon="14.9935478"><ele>207.79999999999998</ele><time>2026-03-29T09:25:05.248Z</time></trkpt><trkpt lat="40.3140413" lon="14.9936668"><ele>206.6</ele><time>2026-03-29T09:25:06.21Z</time></trkpt><trkpt lat="40.3140147" lon="14.9937929"><ele>205.4</ele><time>2026-03-29T09:25:07.237Z</time></trkpt><trkpt lat="40.3139908" lon="14.9939073"><ele>204.2</ele><time>2026-03-29T09:25:08.219Z</time></trkpt><trkpt lat="40.3139845" lon="14.9940247"><ele>203.0</ele><time>2026-03-29T09:25:09.224Z</time></trkpt><trkpt lat="40.314006" lon="14.9941469"><ele>201.0</ele><time>2026-03-29T09:25:10.224Z</time></trkpt><trkpt lat="40.3140537" lon="14.9942825"><ele>199.0</ele><time>2026-03-29T09:25:11.234Z</time></trkpt><trkpt lat="40.3141173" lon="14.9943972"><ele>197.0</ele><time>2026-03-29T09:25:12.224Z</time></trkpt><trkpt lat="40.3141762" lon="14.994499"><ele>195.0</ele><time>2026-03-29T09:25:13.203Z</time></trkpt><trkpt lat="40.314229" lon="14.9945941"><ele>193.0</ele><time>2026-03-29T09:25:14.2Z</time></trkpt><trkpt lat="40.3142697" lon="14.9946826"><ele>193.0</ele><time>2026-03-29T09:25:15.221Z</time></trkpt><trkpt lat="40.3142819" lon="14.9947663"><ele>193.0</ele><time>2026-03-29T09:25:16.211Z</time></trkpt><trkpt lat="40.3142263" lon="14.9948819"><ele>193.0</ele><time>2026-03-29T09:25:18.228Z</time></trkpt><trkpt lat="40.3141208" lon="14.994849"><ele>193.0</ele><time>2026-03-29T09:25:20.231Z</time></trkpt><trkpt lat="40.3140534" lon="14.994703"><ele>193.0</ele><time>2026-03-29T09:25:22.198Z</time></trkpt><trkpt lat="40.3140068" lon="14.9945896"><ele>193.0</ele><time>2026-03-29T09:25:23.204Z</time></trkpt><trkpt lat="40.3139305" lon="14.9944571"><ele>193.0</ele><time>2026-03-29T09:25:24.245Z</time></trkpt><trkpt lat="40.3138679" lon="14.9943324"><ele>193.0</ele><time>2026-03-29T09:25:25.216Z</time></trkpt><trkpt lat="40.3138068" lon="14.9942055"><ele>193.0</ele><time>2026-03-29T09:25:26.225Z</time></trkpt><trkpt lat="40.3137607" lon="14.9940785"><ele>190.4</ele><time>2026-03-29T09:25:27.205Z</time></trkpt><trkpt lat="40.3137298" lon="14.9939421"><ele>187.8</ele><time>2026-03-29T09:25:28.191Z</time></trkpt><trkpt lat="40.3137202" lon="14.9937929"><ele>185.2</ele><time>2026-03-29T09:25:29.242Z</time></trkpt><trkpt lat="40.3137358" lon="14.9936537"><ele>182.6</ele><time>2026-03-29T09:25:30.221Z</time></trkpt><trkpt lat="40.3137693" lon="14.9935266"><ele>180.0</ele><time>2026-03-29T09:25:31.232Z</time></trkpt><trkpt lat="40.3138037" lon="14.993412"><ele>180.6</ele><time>2026-03-29T09:25:32.212Z</time></trkpt><trkpt lat="40.3138181" lon="14.9932953"><ele>181.2</ele><time>2026-03-29T09:25:33.205Z</time></trkpt><trkpt lat="40.3138125" lon="14.9931728"><ele>181.8</ele><time>2026-03-29T09:25:34.202Z</time></trkpt><trkpt lat="40.3138006" lon="14.9930485"><ele>182.4</ele><time>2026-03-29T09:25:35.21Z</time></trkpt><trkpt lat="40.3137773" lon="14.9929181"><ele>183.0</ele><time>2026-03-29T09:25:36.206Z</time></trkpt><trkpt lat="40.3137414" lon="14.9928157"><ele>183.0</ele><time>2026-03-29T09:25:37.258Z</time></trkpt><trkpt lat="40.3136885" lon="14.9927336"><ele>183.0</ele><time>2026-03-29T09:25:38.22Z</time></trkpt><trkpt lat="40.3136207" lon="14.9926579"><ele>183.0</ele><time>2026-03-29T09:25:39.211Z</time></trkpt><trkpt lat="40.3135521" lon="14.9925743"><ele>183.0</ele><time>2026-03-29T09:25:40.217Z</time></trkpt><trkpt lat="40.3134589" lon="14.9924584"><ele>183.0</ele><time>2026-03-29T09:25:41.256Z</time></trkpt><trkpt lat="40.3133465" lon="14.992322"><ele>184.0</ele><time>2026-03-29T09:25:42.326Z</time></trkpt><trkpt lat="40.3132504" lon="14.9921846"><ele>185.0</ele><time>2026-03-29T09:25:43.261Z</time></trkpt><trkpt lat="40.313156" lon="14.9920358"><ele>186.0</ele><time>2026-03-29T09:25:44.215Z</time></trkpt><trkpt lat="40.3130481" lon="14.9918743"><ele>186.33333333333334</ele><time>2026-03-29T09:25:45.232Z</time></trkpt><trkpt lat="40.3129621" lon="14.9917423"><ele>186.66666666666669</ele><time>2026-03-29T09:25:46.222Z</time></trkpt><trkpt lat="40.3129069" lon="14.9916236"><ele>187.0</ele><time>2026-03-29T09:25:47.212Z</time></trkpt><trkpt lat="40.3134013" lon="14.9915967"><ele>187.0</ele><time>2026-03-29T09:25:48.241Z</time></trkpt><trkpt lat="40.3134295" lon="14.9914757"><ele>187.0</ele><time>2026-03-29T09:25:49.23Z</time></trkpt><trkpt lat="40.3134685" lon="14.9913598"><ele>187.0</ele><time>2026-03-29T09:25:50.195Z</time></trkpt><trkpt lat="40.3135087" lon="14.9912515"><ele>187.0</ele><time>2026-03-29T09:25:51.187Z</time></trkpt><trkpt lat="40.3135469" lon="14.9911412"><ele>187.0</ele><time>2026-03-29T09:25:52.217Z</time></trkpt><trkpt lat="40.313571" lon="14.9910305"><ele>187.0</ele><time>2026-03-29T09:25:53.213Z</time></trkpt><trkpt lat="40.3135837" lon="14.9909116"><ele>187.0</ele><time>2026-03-29T09:25:54.223Z</time></trkpt><trkpt lat="40.3135839" lon="14.9908006"><ele>187.0</ele><time>2026-03-29T09:25:55.236Z</time></trkpt><trkpt lat="40.3135701" lon="14.9907027"><ele>187.0</ele><time>2026-03-29T09:25:56.216Z</time></trkpt><trkpt lat="40.3135347" lon="14.9906207"><ele>187.0</ele><time>2026-03-29T09:25:57.201Z</time></trkpt><trkpt lat="40.3134791" lon="14.9905581"><ele>187.0</ele><time>2026-03-29T09:25:58.201Z</time></trkpt><trkpt lat="40.3134015" lon="14.9905098"><ele>186.5</ele><time>2026-03-29T09:25:59.207Z</time></trkpt><trkpt lat="40.3133089" lon="14.9904576"><ele>186.0</ele><time>2026-03-29T09:26:00.198Z</time></trkpt><trkpt lat="40.3132077" lon="14.9903974"><ele>185.5</ele><time>2026-03-29T09:26:01.209Z</time></trkpt><trkpt lat="40.3130962" lon="14.9903315"><ele>185.0</ele><time>2026-03-29T09:26:02.188Z</time></trkpt><trkpt lat="40.3129634" lon="14.9902417"><ele>183.75</ele><time>2026-03-29T09:26:03.193Z</time></trkpt><trkpt lat="40.3128332" lon="14.990154"><ele>182.5</ele><time>2026-03-29T09:26:04.215Z</time></trkpt><trkpt lat="40.3127245" lon="14.9900783"><ele>181.25</ele><time>2026-03-29T09:26:05.218Z</time></trkpt><trkpt lat="40.3126396" lon="14.9900184"><ele>180.0</ele><time>2026-03-29T09:26:06.204Z</time></trkpt><trkpt lat="40.3125609" lon="14.9899808"><ele>180.0</ele><time>2026-03-29T09:26:07.235Z</time></trkpt><trkpt lat="40.3124843" lon="14.9899697"><ele>180.0</ele><time>2026-03-29T09:26:08.209Z</time></trkpt><trkpt lat="40.3123985" lon="14.9899791"><ele>180.0</ele><time>2026-03-29T09:26:09.213Z</time></trkpt><trkpt lat="40.3123069" lon="14.9899955"><ele>180.0</ele><time>2026-03-29T09:26:10.194Z</time></trkpt><trkpt lat="40.3122029" lon="14.99002"><ele>180.0</ele><time>2026-03-29T09:26:11.221Z</time></trkpt><trkpt lat="40.3120983" lon="14.9900544"><ele>175.5</ele><time>2026-03-29T09:26:12.211Z</time></trkpt><trkpt lat="40.3119909" lon="14.9900987"><ele>171.0</ele><time>2026-03-29T09:26:13.2Z</time></trkpt><trkpt lat="40.3118739" lon="14.9901532"><ele>166.5</ele><time>2026-03-29T09:26:14.233Z</time></trkpt><trkpt lat="40.3117588" lon="14.9902105"><ele>162.0</ele><time>2026-03-29T09:26:15.213Z</time></trkpt><trkpt lat="40.3116357" lon="14.9902705"><ele>162.0</ele><time>2026-03-29T09:26:16.228Z</time></trkpt><trkpt lat="40.3115168" lon="14.9903277"><ele>162.0</ele><time>2026-03-29T09:26:17.21Z</time></trkpt><trkpt lat="40.3113895" lon="14.9903884"><ele>162.0</ele><time>2026-03-29T09:26:18.21Z</time></trkpt><trkpt lat="40.311249" lon="14.9904547"><ele>162.0</ele><time>2026-03-29T09:26:19.228Z</time></trkpt><trkpt lat="40.3111197" lon="14.9905107"><ele>162.75</ele><time>2026-03-29T09:26:20.201Z</time></trkpt><trkpt lat="40.3109875" lon="14.9905669"><ele>163.5</ele><time>2026-03-29T09:26:21.226Z</time></trkpt><trkpt lat="40.3108659" lon="14.9906195"><ele>164.25</ele><time>2026-03-29T09:26:22.211Z</time></trkpt><trkpt lat="40.3107483" lon="14.9906755"><ele>165.0</ele><time>2026-03-29T09:26:23.226Z</time></trkpt><trkpt lat="40.3106397" lon="14.9907207"><ele>162.6</ele><time>2026-03-29T09:26:24.212Z</time></trkpt><trkpt lat="40.3105343" lon="14.9907471"><ele>160.2</ele><time>2026-03-29T09:26:25.19Z</time></trkpt><trkpt lat="40.3104333" lon="14.9907451"><ele>157.8</ele><time>2026-03-29T09:26:26.2Z</time></trkpt><trkpt lat="40.3103378" lon="14.9907201"><ele>155.4</ele><time>2026-03-29T09:26:27.214Z</time></trkpt><trkpt lat="40.3102354" lon="14.9906615"><ele>153.0</ele><time>2026-03-29T09:26:28.29Z</time></trkpt><trkpt lat="40.310142" lon="14.9905924"><ele>153.0</ele><time>2026-03-29T09:26:29.207Z</time></trkpt><trkpt lat="40.3100432" lon="14.9905141"><ele>153.0</ele><time>2026-03-29T09:26:30.226Z</time></trkpt><trkpt lat="40.3099548" lon="14.9904226"><ele>153.0</ele><time>2026-03-29T09:26:31.207Z</time></trkpt><trkpt lat="40.3098697" lon="14.9903022"><ele>153.0</ele><time>2026-03-29T09:26:32.239Z</time></trkpt><trkpt lat="40.3097983" lon="14.990175"><ele>150.4</ele><time>2026-03-29T09:26:33.235Z</time></trkpt><trkpt lat="40.3097407" lon="14.9900471"><ele>147.8</ele><time>2026-03-29T09:26:34.194Z</time></trkpt><trkpt lat="40.3096881" lon="14.9899056"><ele>145.2</ele><time>2026-03-29T09:26:35.235Z</time></trkpt><trkpt lat="40.3096542" lon="14.9897707"><ele>142.6</ele><time>2026-03-29T09:26:36.219Z</time></trkpt><trkpt lat="40.3096331" lon="14.9896326"><ele>140.0</ele><time>2026-03-29T09:26:37.221Z</time></trkpt><trkpt lat="40.3096277" lon="14.9894918"><ele>140.0</ele><time>2026-03-29T09:26:38.229Z</time></trkpt><trkpt lat="40.3096277" lon="14.9893636"><ele>140.0</ele><time>2026-03-29T09:26:39.214Z</time></trkpt><trkpt lat="40.3096159" lon="14.9892446"><ele>140.0</ele><time>2026-03-29T09:26:40.209Z</time></trkpt><trkpt lat="40.3095781" lon="14.9891294"><ele>140.0</ele><time>2026-03-29T09:26:41.202Z</time></trkpt><trkpt lat="40.3095235" lon="14.9890084"><ele>140.0</ele><time>2026-03-29T09:26:42.208Z</time></trkpt><trkpt lat="40.3094586" lon="14.9888846"><ele>142.25</ele><time>2026-03-29T09:26:43.22Z</time></trkpt><trkpt lat="40.3093793" lon="14.9887638"><ele>144.5</ele><time>2026-03-29T09:26:44.244Z</time></trkpt><trkpt lat="40.3092769" lon="14.988647"><ele>146.75</ele><time>2026-03-29T09:26:45.261Z</time></trkpt><trkpt lat="40.3091713" lon="14.9885371"><ele>149.0</ele><time>2026-03-29T09:26:46.213Z</time></trkpt><trkpt lat="40.3090646" lon="14.9884049"><ele>146.5</ele><time>2026-03-29T09:26:47.213Z</time></trkpt><trkpt lat="40.3089615" lon="14.9882655"><ele>144.0</ele><time>2026-03-29T09:26:48.228Z</time></trkpt><trkpt lat="40.3088777" lon="14.9881393"><ele>141.5</ele><time>2026-03-29T09:26:49.218Z</time></trkpt><trkpt lat="40.3087863" lon="14.9880305"><ele>139.0</ele><time>2026-03-29T09:26:50.237Z</time></trkpt><trkpt lat="40.3086886" lon="14.9879425"><ele>139.0</ele><time>2026-03-29T09:26:51.2Z</time></trkpt><trkpt lat="40.3085662" lon="14.9878695"><ele>139.0</ele><time>2026-03-29T09:26:52.194Z</time></trkpt><trkpt lat="40.308424" lon="14.9877777"><ele>139.0</ele><time>2026-03-29T09:26:53.231Z</time></trkpt><trkpt lat="40.3082727" lon="14.9876548"><ele>139.0</ele><time>2026-03-29T09:26:54.232Z</time></trkpt><trkpt lat="40.3081207" lon="14.9875336"><ele>139.0</ele><time>2026-03-29T09:26:55.235Z</time></trkpt><trkpt lat="40.3079769" lon="14.9874275"><ele>139.0</ele><time>2026-03-29T09:26:56.22Z</time></trkpt><trkpt lat="40.3078415" lon="14.9873262"><ele>139.25</ele><time>2026-03-29T09:26:57.239Z</time></trkpt><trkpt lat="40.3077229" lon="14.9872443"><ele>139.5</ele><time>2026-03-29T09:26:58.223Z</time></trkpt><trkpt lat="40.3076031" lon="14.9871834"><ele>139.75</ele><time>2026-03-29T09:26:59.215Z</time></trkpt><trkpt lat="40.3074823" lon="14.9871369"><ele>140.0</ele><time>2026-03-29T09:27:00.214Z</time></trkpt><trkpt lat="40.3073523" lon="14.9870923"><ele>138.75</ele><time>2026-03-29T09:27:01.237Z</time></trkpt><trkpt lat="40.307221" lon="14.9870522"><ele>137.5</ele><time>2026-03-29T09:27:02.214Z</time></trkpt><trkpt lat="40.3070669" lon="14.9870249"><ele>136.25</ele><time>2026-03-29T09:27:03.308Z</time></trkpt><trkpt lat="40.3069318" lon="14.9870179"><ele>135.0</ele><time>2026-03-29T09:27:04.218Z</time></trkpt><trkpt lat="40.3067902" lon="14.9870186"><ele>135.0</ele><time>2026-03-29T09:27:05.196Z</time></trkpt><trkpt lat="40.3066548" lon="14.9870223"><ele>135.0</ele><time>2026-03-29T09:27:06.208Z</time></trkpt><trkpt lat="40.3065338" lon="14.9870213"><ele>135.0</ele><time>2026-03-29T09:27:07.194Z</time></trkpt><trkpt lat="40.3064088" lon="14.9870035"><ele>135.0</ele><time>2026-03-29T09:27:08.254Z</time></trkpt><trkpt lat="40.3063025" lon="14.9869656"><ele>135.0</ele><time>2026-03-29T09:27:09.227Z</time></trkpt><trkpt lat="40.306203" lon="14.986934"><ele>135.0</ele><time>2026-03-29T09:27:10.193Z</time></trkpt><trkpt lat="40.3060939" lon="14.9869145"><ele>135.0</ele><time>2026-03-29T09:27:11.231Z</time></trkpt><trkpt lat="40.3059782" lon="14.9869128"><ele>135.0</ele><time>2026-03-29T09:27:12.205Z</time></trkpt><trkpt lat="40.3058458" lon="14.9869049"><ele>135.0</ele><time>2026-03-29T09:27:13.225Z</time></trkpt><trkpt lat="40.3057023" lon="14.9868872"><ele>135.0</ele><time>2026-03-29T09:27:14.222Z</time></trkpt><trkpt lat="40.3055535" lon="14.9868522"><ele>135.0</ele><time>2026-03-29T09:27:15.227Z</time></trkpt><trkpt lat="40.305413" lon="14.9868104"><ele>135.0</ele><time>2026-03-29T09:27:16.212Z</time></trkpt><trkpt lat="40.3052798" lon="14.9867724"><ele>132.5</ele><time>2026-03-29T09:27:17.195Z</time></trkpt><trkpt lat="40.3051475" lon="14.9867338"><ele>130.0</ele><time>2026-03-29T09:27:18.23Z</time></trkpt><trkpt lat="40.3050283" lon="14.986703"><ele>127.5</ele><time>2026-03-29T09:27:19.219Z</time></trkpt><trkpt lat="40.3049172" lon="14.9866852"><ele>125.0</ele><time>2026-03-29T09:27:20.218Z</time></trkpt><trkpt lat="40.3048102" lon="14.9866779"><ele>125.0</ele><time>2026-03-29T09:27:21.228Z</time></trkpt><trkpt lat="40.3047086" lon="14.9866785"><ele>125.0</ele><time>2026-03-29T09:27:22.21Z</time></trkpt><trkpt lat="40.3046112" lon="14.9866808"><ele>125.0</ele><time>2026-03-29T09:27:23.196Z</time></trkpt><trkpt lat="40.3045168" lon="14.9866744"><ele>125.0</ele><time>2026-03-29T09:27:24.222Z</time></trkpt><trkpt lat="40.3044315" lon="14.9866565"><ele>125.0</ele><time>2026-03-29T09:27:25.225Z</time></trkpt><trkpt lat="40.3043578" lon="14.9866274"><ele>124.99999999999999</ele><time>2026-03-29T09:27:26.207Z</time></trkpt><trkpt lat="40.3042914" lon="14.9865843"><ele>125.0</ele><time>2026-03-29T09:27:27.202Z</time></trkpt><trkpt lat="40.3042282" lon="14.9865301"><ele>125.0</ele><time>2026-03-29T09:27:28.2Z</time></trkpt><trkpt lat="40.3041582" lon="14.9864627"><ele>125.0</ele><time>2026-03-29T09:27:29.213Z</time></trkpt><trkpt lat="40.3040892" lon="14.9863878"><ele>124.99999999999999</ele><time>2026-03-29T09:27:30.211Z</time></trkpt><trkpt lat="40.304018" lon="14.9863118"><ele>125.0</ele><time>2026-03-29T09:27:31.23Z</time></trkpt><trkpt lat="40.3039495" lon="14.9862393"><ele>124.16666666666666</ele><time>2026-03-29T09:27:32.226Z</time></trkpt><trkpt lat="40.3038819" lon="14.9861697"><ele>123.33333333333333</ele><time>2026-03-29T09:27:33.21Z</time></trkpt><trkpt lat="40.3038135" lon="14.9860958"><ele>122.5</ele><time>2026-03-29T09:27:34.308Z</time></trkpt><trkpt lat="40.3037602" lon="14.9860258"><ele>121.66666666666666</ele><time>2026-03-29T09:27:35.213Z</time></trkpt><trkpt lat="40.3037019" lon="14.985941"><ele>120.83333333333333</ele><time>2026-03-29T09:27:36.2Z</time></trkpt><trkpt lat="40.3036468" lon="14.9858504"><ele>120.0</ele><time>2026-03-29T09:27:37.213Z</time></trkpt><trkpt lat="40.3035965" lon="14.9857566"><ele>120.0</ele><time>2026-03-29T09:27:38.235Z</time></trkpt><trkpt lat="40.3035531" lon="14.9856647"><ele>120.0</ele><time>2026-03-29T09:27:39.222Z</time></trkpt><trkpt lat="40.3035071" lon="14.9855696"><ele>120.0</ele><time>2026-03-29T09:27:40.32Z</time></trkpt><trkpt lat="40.3034175" lon="14.9854164"><ele>120.0</ele><time>2026-03-29T09:27:42.23Z</time></trkpt><trkpt lat="40.303361" lon="14.9853513"><ele>120.0</ele><time>2026-03-29T09:27:43.22Z</time></trkpt><trkpt lat="40.3032958" lon="14.9852852"><ele>120.0</ele><time>2026-03-29T09:27:44.212Z</time></trkpt><trkpt lat="40.3032217" lon="14.9852163"><ele>120.0</ele><time>2026-03-29T09:27:45.226Z</time></trkpt><trkpt lat="40.3031465" lon="14.9851519"><ele>120.0</ele><time>2026-03-29T09:27:46.234Z</time></trkpt><trkpt lat="40.3030785" lon="14.9850943"><ele>120.0</ele><time>2026-03-29T09:27:47.208Z</time></trkpt><trkpt lat="40.3030087" lon="14.9850362"><ele>120.0</ele><time>2026-03-29T09:27:48.23Z</time></trkpt><trkpt lat="40.3029419" lon="14.9849839"><ele>120.0</ele><time>2026-03-29T09:27:49.231Z</time></trkpt><trkpt lat="40.3028799" lon="14.9849312"><ele>119.33333333333333</ele><time>2026-03-29T09:27:50.205Z</time></trkpt><trkpt lat="40.3028215" lon="14.9848808"><ele>118.66666666666666</ele><time>2026-03-29T09:27:51.217Z</time></trkpt><trkpt lat="40.3027673" lon="14.9848366"><ele>118.0</ele><time>2026-03-29T09:27:52.214Z</time></trkpt><trkpt lat="40.3027094" lon="14.9847914"><ele>117.33333333333333</ele><time>2026-03-29T09:27:53.315Z</time></trkpt><trkpt lat="40.3026144" lon="14.9847111"><ele>116.66666666666666</ele><time>2026-03-29T09:27:55.283Z</time></trkpt><trkpt lat="40.3025411" lon="14.9846401"><ele>116.0</ele><time>2026-03-29T09:27:57.223Z</time></trkpt><trkpt lat="40.3024922" lon="14.9845854"><ele>115.99999999999999</ele><time>2026-03-29T09:27:59.228Z</time></trkpt><trkpt lat="40.3024516" lon="14.9845031"><ele>116.0</ele><time>2026-03-29T09:28:02.228Z</time></trkpt><trkpt lat="40.3024473" lon="14.9843863"><ele>116.0</ele><time>2026-03-29T09:28:11.236Z</time></trkpt><trkpt lat="40.3024841" lon="14.9843066"><ele>116.0</ele><time>2026-03-29T09:28:13.224Z</time></trkpt><trkpt lat="40.3024311" lon="14.9843822"><ele>115.99999999999999</ele><time>2026-03-29T09:30:37.232Z</time></trkpt><trkpt lat="40.3023991" lon="14.9844558"><ele>116.0</ele><time>2026-03-29T09:30:40.218Z</time></trkpt><trkpt lat="40.3023779" lon="14.9845526"><ele>116.0</ele><time>2026-03-29T09:30:50.224Z</time></trkpt><trkpt lat="40.3024087" lon="14.9846909"><ele>116.0</ele><time>2026-03-29T09:30:52.215Z</time></trkpt><trkpt lat="40.3024379" lon="14.9847662"><ele>116.0</ele><time>2026-03-29T09:30:53.222Z</time></trkpt><trkpt lat="40.302468" lon="14.9848511"><ele>116.0</ele><time>2026-03-29T09:30:54.221Z</time></trkpt><trkpt lat="40.3025087" lon="14.9849487"><ele>116.0</ele><time>2026-03-29T09:30:55.328Z</time></trkpt><trkpt lat="40.3025812" lon="14.9851168"><ele>114.83333333333333</ele><time>2026-03-29T09:30:57.22Z</time></trkpt><trkpt lat="40.3026273" lon="14.9852025"><ele>113.66666666666666</ele><time>2026-03-29T09:30:58.207Z</time></trkpt><trkpt lat="40.3026789" lon="14.9852856"><ele>112.5</ele><time>2026-03-29T09:30:59.23Z</time></trkpt><trkpt lat="40.302733" lon="14.9853694"><ele>111.33333333333334</ele><time>2026-03-29T09:31:00.238Z</time></trkpt><trkpt lat="40.3027851" lon="14.98545"><ele>110.16666666666667</ele><time>2026-03-29T09:31:01.203Z</time></trkpt><trkpt lat="40.3028422" lon="14.9855391"><ele>109.0</ele><time>2026-03-29T09:31:02.194Z</time></trkpt><trkpt lat="40.3029023" lon="14.9856296"><ele>109.0</ele><time>2026-03-29T09:31:03.208Z</time></trkpt><trkpt lat="40.3029643" lon="14.9857374"><ele>109.0</ele><time>2026-03-29T09:31:04.212Z</time></trkpt><trkpt lat="40.3030223" lon="14.9858617"><ele>109.0</ele><time>2026-03-29T09:31:05.233Z</time></trkpt><trkpt lat="40.3030766" lon="14.9859925"><ele>109.0</ele><time>2026-03-29T09:31:06.22Z</time></trkpt><trkpt lat="40.3031351" lon="14.9861512"><ele>110.66666666666667</ele><time>2026-03-29T09:31:07.326Z</time></trkpt><trkpt lat="40.3032379" lon="14.9864471"><ele>112.33333333333334</ele><time>2026-03-29T09:31:09.23Z</time></trkpt><trkpt lat="40.3033" lon="14.9866079"><ele>114.0</ele><time>2026-03-29T09:31:10.224Z</time></trkpt><trkpt lat="40.3033608" lon="14.9867742"><ele>111.5</ele><time>2026-03-29T09:31:11.208Z</time></trkpt><trkpt lat="40.3034203" lon="14.9869382"><ele>109.0</ele><time>2026-03-29T09:31:12.21Z</time></trkpt><trkpt lat="40.3034897" lon="14.9871163"><ele>106.5</ele><time>2026-03-29T09:31:13.335Z</time></trkpt><trkpt lat="40.3035575" lon="14.9872756"><ele>104.0</ele><time>2026-03-29T09:31:14.435Z</time></trkpt><trkpt lat="40.3036841" lon="14.9875326"><ele>104.75</ele><time>2026-03-29T09:31:16.244Z</time></trkpt><trkpt lat="40.3037642" lon="14.9876622"><ele>105.5</ele><time>2026-03-29T09:31:17.215Z</time></trkpt><trkpt lat="40.3038596" lon="14.9877926"><ele>106.25</ele><time>2026-03-29T09:31:18.221Z</time></trkpt><trkpt lat="40.3039608" lon="14.9879208"><ele>107.0</ele><time>2026-03-29T09:31:19.218Z</time></trkpt><trkpt lat="40.3040556" lon="14.9880595"><ele>107.0</ele><time>2026-03-29T09:31:20.218Z</time></trkpt><trkpt lat="40.304127" lon="14.9882089"><ele>107.0</ele><time>2026-03-29T09:31:21.218Z</time></trkpt><trkpt lat="40.3041789" lon="14.9883612"><ele>107.0</ele><time>2026-03-29T09:31:22.192Z</time></trkpt><trkpt lat="40.3042099" lon="14.9885312"><ele>107.0</ele><time>2026-03-29T09:31:23.226Z</time></trkpt><trkpt lat="40.3042151" lon="14.9887029"><ele>106.25</ele><time>2026-03-29T09:31:24.213Z</time></trkpt><trkpt lat="40.3041947" lon="14.9888858"><ele>105.5</ele><time>2026-03-29T09:31:25.239Z</time></trkpt><trkpt lat="40.3041638" lon="14.9890628"><ele>104.75</ele><time>2026-03-29T09:31:26.219Z</time></trkpt><trkpt lat="40.3041382" lon="14.9892326"><ele>104.0</ele><time>2026-03-29T09:31:27.202Z</time></trkpt><trkpt lat="40.3041275" lon="14.9894"><ele>101.75</ele><time>2026-03-29T09:31:28.21Z</time></trkpt><trkpt lat="40.3041391" lon="14.9895787"><ele>99.5</ele><time>2026-03-29T09:31:29.292Z</time></trkpt><trkpt lat="40.3041734" lon="14.9897249"><ele>97.25</ele><time>2026-03-29T09:31:30.206Z</time></trkpt><trkpt lat="40.3042387" lon="14.9898764"><ele>95.0</ele><time>2026-03-29T09:31:31.215Z</time></trkpt><trkpt lat="40.304325" lon="14.9900138"><ele>94.5</ele><time>2026-03-29T09:31:32.206Z</time></trkpt><trkpt lat="40.3044293" lon="14.9901413"><ele>94.0</ele><time>2026-03-29T09:31:33.212Z</time></trkpt><trkpt lat="40.3045448" lon="14.9902581"><ele>93.5</ele><time>2026-03-29T09:31:34.208Z</time></trkpt><trkpt lat="40.3046679" lon="14.9903662"><ele>93.0</ele><time>2026-03-29T09:31:35.217Z</time></trkpt><trkpt lat="40.3047996" lon="14.990455"><ele>93.0</ele><time>2026-03-29T09:31:36.242Z</time></trkpt><trkpt lat="40.3049384" lon="14.9905137"><ele>93.0</ele><time>2026-03-29T09:31:37.224Z</time></trkpt><trkpt lat="40.3050842" lon="14.9905494"><ele>93.0</ele><time>2026-03-29T09:31:38.213Z</time></trkpt><trkpt lat="40.3052361" lon="14.9905708"><ele>93.0</ele><time>2026-03-29T09:31:39.198Z</time></trkpt><trkpt lat="40.3054013" lon="14.990585"><ele>93.0</ele><time>2026-03-29T09:31:40.219Z</time></trkpt><trkpt lat="40.3055693" lon="14.9906001"><ele>93.0</ele><time>2026-03-29T09:31:41.213Z</time></trkpt><trkpt lat="40.3057488" lon="14.9906121"><ele>93.0</ele><time>2026-03-29T09:31:42.249Z</time></trkpt><trkpt lat="40.3059098" lon="14.9906184"><ele>93.0</ele><time>2026-03-29T09:31:43.225Z</time></trkpt><trkpt lat="40.3060697" lon="14.9906285"><ele>93.0</ele><time>2026-03-29T09:31:44.246Z</time></trkpt><trkpt lat="40.3062227" lon="14.9906534"><ele>93.0</ele><time>2026-03-29T09:31:45.275Z</time></trkpt><trkpt lat="40.3063538" lon="14.9907011"><ele>93.5</ele><time>2026-03-29T09:31:46.227Z</time></trkpt><trkpt lat="40.3064823" lon="14.9907745"><ele>94.0</ele><time>2026-03-29T09:31:47.241Z</time></trkpt><trkpt lat="40.3065993" lon="14.9908642"><ele>94.5</ele><time>2026-03-29T09:31:48.237Z</time></trkpt><trkpt lat="40.3067051" lon="14.9909687"><ele>95.0</ele><time>2026-03-29T09:31:49.205Z</time></trkpt><trkpt lat="40.3068041" lon="14.9911022"><ele>93.25</ele><time>2026-03-29T09:31:50.246Z</time></trkpt><trkpt lat="40.3068813" lon="14.9912395"><ele>91.5</ele><time>2026-03-29T09:31:51.222Z</time></trkpt><trkpt lat="40.3069452" lon="14.9913881"><ele>89.75</ele><time>2026-03-29T09:31:52.22Z</time></trkpt><trkpt lat="40.3069863" lon="14.9915458"><ele>88.0</ele><time>2026-03-29T09:31:53.239Z</time></trkpt><trkpt lat="40.307009" lon="14.991707"><ele>87.5</ele><time>2026-03-29T09:31:54.207Z</time></trkpt><trkpt lat="40.3070177" lon="14.9918893"><ele>87.0</ele><time>2026-03-29T09:31:55.238Z</time></trkpt><trkpt lat="40.3070035" lon="14.9920704"><ele>86.5</ele><time>2026-03-29T09:31:56.242Z</time></trkpt><trkpt lat="40.3069627" lon="14.9922485"><ele>86.0</ele><time>2026-03-29T09:31:57.22Z</time></trkpt><trkpt lat="40.3069017" lon="14.9924333"><ele>87.0</ele><time>2026-03-29T09:31:58.204Z</time></trkpt><trkpt lat="40.3068318" lon="14.9926378"><ele>88.0</ele><time>2026-03-29T09:31:59.236Z</time></trkpt><trkpt lat="40.3067546" lon="14.9928752"><ele>89.0</ele><time>2026-03-29T09:32:00.474Z</time></trkpt><trkpt lat="40.3066617" lon="14.9932256"><ele>88.33333333333334</ele><time>2026-03-29T09:32:02.28Z</time></trkpt><trkpt lat="40.3066341" lon="14.9934208"><ele>87.66666666666667</ele><time>2026-03-29T09:32:03.205Z</time></trkpt><trkpt lat="40.3066191" lon="14.9936419"><ele>87.0</ele><time>2026-03-29T09:32:04.207Z</time></trkpt><trkpt lat="40.306609" lon="14.9938542"><ele>87.0</ele><time>2026-03-29T09:32:05.196Z</time></trkpt><trkpt lat="40.306602" lon="14.994055"><ele>87.0</ele><time>2026-03-29T09:32:06.193Z</time></trkpt><trkpt lat="40.3066089" lon="14.9942543"><ele>87.0</ele><time>2026-03-29T09:32:07.253Z</time></trkpt><trkpt lat="40.3066383" lon="14.9944254"><ele>87.0</ele><time>2026-03-29T09:32:08.223Z</time></trkpt><trkpt lat="40.306685" lon="14.9946012"><ele>85.75</ele><time>2026-03-29T09:32:09.223Z</time></trkpt><trkpt lat="40.3067495" lon="14.9947763"><ele>84.5</ele><time>2026-03-29T09:32:10.24Z</time></trkpt><trkpt lat="40.3068221" lon="14.994926"><ele>83.25</ele><time>2026-03-29T09:32:11.22Z</time></trkpt><trkpt lat="40.3069171" lon="14.9950572"><ele>82.0</ele><time>2026-03-29T09:32:12.219Z</time></trkpt><trkpt lat="40.3070303" lon="14.9951738"><ele>79.66666666666666</ele><time>2026-03-29T09:32:13.222Z</time></trkpt><trkpt lat="40.3071565" lon="14.9952837"><ele>77.33333333333333</ele><time>2026-03-29T09:32:14.218Z</time></trkpt><trkpt lat="40.307339" lon="14.9954363"><ele>75.0</ele><time>2026-03-29T09:32:15.529Z</time></trkpt><trkpt lat="40.3075889" lon="14.9956513"><ele>75.0</ele><time>2026-03-29T09:32:17.304Z</time></trkpt><trkpt lat="40.3077281" lon="14.9957599"><ele>75.0</ele><time>2026-03-29T09:32:18.309Z</time></trkpt><trkpt lat="40.3078547" lon="14.9958737"><ele>75.0</ele><time>2026-03-29T09:32:19.304Z</time></trkpt><trkpt lat="40.3079679" lon="14.9959978"><ele>76.0</ele><time>2026-03-29T09:32:20.266Z</time></trkpt><trkpt lat="40.3080743" lon="14.9961466"><ele>77.0</ele><time>2026-03-29T09:32:21.302Z</time></trkpt><trkpt lat="40.3081513" lon="14.9963035"><ele>78.0</ele><time>2026-03-29T09:32:22.285Z</time></trkpt><trkpt lat="40.3082064" lon="14.9964751"><ele>79.0</ele><time>2026-03-29T09:32:23.284Z</time></trkpt><trkpt lat="40.308235" lon="14.9966538"><ele>79.33333333333333</ele><time>2026-03-29T09:32:24.282Z</time></trkpt><trkpt lat="40.308236" lon="14.9968439"><ele>79.66666666666667</ele><time>2026-03-29T09:32:25.274Z</time></trkpt><trkpt lat="40.3082187" lon="14.9970498"><ele>80.0</ele><time>2026-03-29T09:32:26.276Z</time></trkpt><trkpt lat="40.3081797" lon="14.9972929"><ele>80.0</ele><time>2026-03-29T09:32:27.366Z</time></trkpt><trkpt lat="40.3081393" lon="14.9974911"><ele>80.0</ele><time>2026-03-29T09:32:28.307Z</time></trkpt><trkpt lat="40.3081055" lon="14.9976704"><ele>80.0</ele><time>2026-03-29T09:32:29.297Z</time></trkpt><trkpt lat="40.3080788" lon="14.9978223"><ele>80.0</ele><time>2026-03-29T09:32:30.292Z</time></trkpt><trkpt lat="40.3080522" lon="14.997952"><ele>77.4</ele><time>2026-03-29T09:32:31.303Z</time></trkpt><trkpt lat="40.3080291" lon="14.9980481"><ele>74.8</ele><time>2026-03-29T09:32:32.263Z</time></trkpt><trkpt lat="40.3080047" lon="14.9981345"><ele>72.2</ele><time>2026-03-29T09:32:33.287Z</time></trkpt><trkpt lat="40.3079549" lon="14.9982579"><ele>69.6</ele><time>2026-03-29T09:32:35.272Z</time></trkpt><trkpt lat="40.3079423" lon="14.9983408"><ele>67.0</ele><time>2026-03-29T09:32:40.301Z</time></trkpt><trkpt lat="40.3080404" lon="14.9982105"><ele>66.6</ele><time>2026-03-29T09:32:46.322Z</time></trkpt><trkpt lat="40.3080708" lon="14.9980534"><ele>66.2</ele><time>2026-03-29T09:32:48.294Z</time></trkpt><trkpt lat="40.3080879" lon="14.997958"><ele>65.8</ele><time>2026-03-29T09:32:49.305Z</time></trkpt><trkpt lat="40.308106" lon="14.9978201"><ele>65.4</ele><time>2026-03-29T09:32:51.271Z</time></trkpt><trkpt lat="40.3080741" lon="14.9977216"><ele>65.0</ele><time>2026-03-29T09:32:53.33Z</time></trkpt><trkpt lat="40.3080002" lon="14.9977119"><ele>65.0</ele><time>2026-03-29T09:32:55.343Z</time></trkpt><trkpt lat="40.3079271" lon="14.9977781"><ele>65.0</ele><time>2026-03-29T09:32:57.293Z</time></trkpt><trkpt lat="40.3078373" lon="14.9978654"><ele>65.0</ele><time>2026-03-29T09:32:59.302Z</time></trkpt><trkpt lat="40.3077775" lon="14.9979161"><ele>65.0</ele><time>2026-03-29T09:33:00.323Z</time></trkpt><trkpt lat="40.3077176" lon="14.9979682"><ele>65.0</ele><time>2026-03-29T09:33:01.315Z</time></trkpt><trkpt lat="40.3076517" lon="14.9980213"><ele>65.0</ele><time>2026-03-29T09:33:02.341Z</time></trkpt><trkpt lat="40.3075845" lon="14.9980441"><ele>65.0</ele><time>2026-03-29T09:33:03.295Z</time></trkpt><trkpt lat="40.3075094" lon="14.9980348"><ele>65.0</ele><time>2026-03-29T09:33:04.303Z</time></trkpt><trkpt lat="40.3074367" lon="14.9979933"><ele>65.0</ele><time>2026-03-29T09:33:05.273Z</time></trkpt><trkpt lat="40.3073551" lon="14.9979202"><ele>65.0</ele><time>2026-03-29T09:33:06.306Z</time></trkpt><trkpt lat="40.3072704" lon="14.9978368"><ele>65.0</ele><time>2026-03-29T09:33:07.314Z</time></trkpt><trkpt lat="40.30719" lon="14.9977557"><ele>63.6</ele><time>2026-03-29T09:33:08.295Z</time></trkpt><trkpt lat="40.307106" lon="14.997688"><ele>62.2</ele><time>2026-03-29T09:33:09.319Z</time></trkpt><trkpt lat="40.3070229" lon="14.9976544"><ele>60.8</ele><time>2026-03-29T09:33:10.307Z</time></trkpt><trkpt lat="40.306922" lon="14.9976581"><ele>59.4</ele><time>2026-03-29T09:33:11.311Z</time></trkpt><trkpt lat="40.3068222" lon="14.9977006"><ele>58.0</ele><time>2026-03-29T09:33:12.296Z</time></trkpt><trkpt lat="40.3067205" lon="14.997772"><ele>58.0</ele><time>2026-03-29T09:33:13.296Z</time></trkpt><trkpt lat="40.3066043" lon="14.9978828"><ele>58.0</ele><time>2026-03-29T09:33:14.403Z</time></trkpt><trkpt lat="40.3064864" lon="14.9980078"><ele>58.0</ele><time>2026-03-29T09:33:15.347Z</time></trkpt><trkpt lat="40.3063451" lon="14.998144"><ele>57.33333333333333</ele><time>2026-03-29T09:33:16.381Z</time></trkpt><trkpt lat="40.3062082" lon="14.9982689"><ele>56.66666666666667</ele><time>2026-03-29T09:33:17.304Z</time></trkpt><trkpt lat="40.3060669" lon="14.9984016"><ele>56.0</ele><time>2026-03-29T09:33:18.316Z</time></trkpt><trkpt lat="40.3059347" lon="14.9985231"><ele>55.5</ele><time>2026-03-29T09:33:19.305Z</time></trkpt><trkpt lat="40.3058065" lon="14.9986454"><ele>55.0</ele><time>2026-03-29T09:33:20.319Z</time></trkpt><trkpt lat="40.305692" lon="14.9987728"><ele>54.5</ele><time>2026-03-29T09:33:21.336Z</time></trkpt><trkpt lat="40.3055969" lon="14.9988984"><ele>54.0</ele><time>2026-03-29T09:33:22.307Z</time></trkpt><trkpt lat="40.3055135" lon="14.9990335"><ele>54.0</ele><time>2026-03-29T09:33:23.372Z</time></trkpt><trkpt lat="40.3054598" lon="14.9991539"><ele>54.00000000000001</ele><time>2026-03-29T09:33:24.325Z</time></trkpt><trkpt lat="40.3054218" lon="14.9992736"><ele>54.00000000000001</ele><time>2026-03-29T09:33:25.29Z</time></trkpt><trkpt lat="40.3053952" lon="14.9993828"><ele>54.0</ele><time>2026-03-29T09:33:26.292Z</time></trkpt><trkpt lat="40.305382" lon="14.9994689"><ele>54.0</ele><time>2026-03-29T09:33:27.303Z</time></trkpt><trkpt lat="40.3053408" lon="14.9995903"><ele>54.2</ele><time>2026-03-29T09:33:29.317Z</time></trkpt><trkpt lat="40.3052784" lon="14.9996767"><ele>54.400000000000006</ele><time>2026-03-29T09:33:31.306Z</time></trkpt><trkpt lat="40.3051591" lon="14.9998411"><ele>54.6</ele><time>2026-03-29T09:33:34.212Z</time></trkpt><trkpt lat="40.3051144" lon="14.999911"><ele>54.8</ele><time>2026-03-29T09:33:35.225Z</time></trkpt><trkpt lat="40.3050667" lon="14.9999859"><ele>55.0</ele><time>2026-03-29T09:33:36.21Z</time></trkpt><trkpt lat="40.3050178" lon="15.0000636"><ele>54.99999999999999</ele><time>2026-03-29T09:33:37.22Z</time></trkpt><trkpt lat="40.304972" lon="15.0001512"><ele>55.0</ele><time>2026-03-29T09:33:38.239Z</time></trkpt><trkpt lat="40.3049314" lon="15.0002386"><ele>55.0</ele><time>2026-03-29T09:33:39.214Z</time></trkpt><trkpt lat="40.3048933" lon="15.0003202"><ele>55.0</ele><time>2026-03-29T09:33:40.245Z</time></trkpt><trkpt lat="40.3048567" lon="15.0003987"><ele>54.99999999999999</ele><time>2026-03-29T09:33:41.226Z</time></trkpt><trkpt lat="40.3048181" lon="15.0004877"><ele>55.0</ele><time>2026-03-29T09:33:42.219Z</time></trkpt><trkpt lat="40.3047748" lon="15.0005796"><ele>55.99999999999999</ele><time>2026-03-29T09:33:43.234Z</time></trkpt><trkpt lat="40.30472" lon="15.0006644"><ele>57.0</ele><time>2026-03-29T09:33:44.239Z</time></trkpt><trkpt lat="40.3046851" lon="15.0007425"><ele>58.0</ele><time>2026-03-29T09:33:45.224Z</time></trkpt><trkpt lat="40.3046494" lon="15.0008185"><ele>59.0</ele><time>2026-03-29T09:33:46.219Z</time></trkpt><trkpt lat="40.3046119" lon="15.000902"><ele>59.99999999999999</ele><time>2026-03-29T09:33:47.215Z</time></trkpt><trkpt lat="40.3045719" lon="15.000982"><ele>61.0</ele><time>2026-03-29T09:33:48.218Z</time></trkpt><trkpt lat="40.3045132" lon="15.0010761"><ele>60.99999999999999</ele><time>2026-03-29T09:33:49.227Z</time></trkpt><trkpt lat="40.30445" lon="15.0011734"><ele>61.0</ele><time>2026-03-29T09:33:50.233Z</time></trkpt><trkpt lat="40.3043851" lon="15.0012614"><ele>61.0</ele><time>2026-03-29T09:33:51.215Z</time></trkpt><trkpt lat="40.3043104" lon="15.0013478"><ele>61.0</ele><time>2026-03-29T09:33:52.22Z</time></trkpt><trkpt lat="40.3042346" lon="15.0013928"><ele>60.99999999999999</ele><time>2026-03-29T09:33:54.229Z</time></trkpt><trkpt lat="40.3041735" lon="15.0014237"><ele>61.0</ele><time>2026-03-29T09:33:55.2Z</time></trkpt><trkpt lat="40.3041023" lon="15.0014533"><ele>60.99999999999999</ele><time>2026-03-29T09:33:56.221Z</time></trkpt><trkpt lat="40.3040242" lon="15.0014815"><ele>61.0</ele><time>2026-03-29T09:33:57.23Z</time></trkpt><trkpt lat="40.3039362" lon="15.0015081"><ele>61.0</ele><time>2026-03-29T09:33:58.223Z</time></trkpt><trkpt lat="40.3038496" lon="15.0015343"><ele>61.0</ele><time>2026-03-29T09:33:59.236Z</time></trkpt><trkpt lat="40.3037661" lon="15.0015546"><ele>60.99999999999999</ele><time>2026-03-29T09:34:00.234Z</time></trkpt><trkpt lat="40.3036865" lon="15.00158"><ele>61.0</ele><time>2026-03-29T09:34:01.393Z</time></trkpt><trkpt lat="40.3035861" lon="15.0016475"><ele>60.83333333333333</ele><time>2026-03-29T09:34:03.221Z</time></trkpt><trkpt lat="40.303526" lon="15.0016897"><ele>60.666666666666664</ele><time>2026-03-29T09:34:04.208Z</time></trkpt><trkpt lat="40.3034614" lon="15.0017313"><ele>60.5</ele><time>2026-03-29T09:34:05.209Z</time></trkpt><trkpt lat="40.303392" lon="15.0017774"><ele>60.33333333333333</ele><time>2026-03-29T09:34:06.215Z</time></trkpt><trkpt lat="40.3033183" lon="15.0018225"><ele>60.166666666666664</ele><time>2026-03-29T09:34:07.216Z</time></trkpt><trkpt lat="40.303237" lon="15.0018705"><ele>60.0</ele><time>2026-03-29T09:34:08.233Z</time></trkpt><trkpt lat="40.3031569" lon="15.0019142"><ele>60.666666666666664</ele><time>2026-03-29T09:34:09.201Z</time></trkpt><trkpt lat="40.3030726" lon="15.001956"><ele>61.33333333333333</ele><time>2026-03-29T09:34:10.212Z</time></trkpt><trkpt lat="40.3029964" lon="15.0019917"><ele>62.0</ele><time>2026-03-29T09:34:11.212Z</time></trkpt><trkpt lat="40.3029167" lon="15.0020249"><ele>62.666666666666664</ele><time>2026-03-29T09:34:12.214Z</time></trkpt><trkpt lat="40.3028445" lon="15.0020595"><ele>63.33333333333333</ele><time>2026-03-29T09:34:13.21Z</time></trkpt><trkpt lat="40.3027701" lon="15.0020913"><ele>64.0</ele><time>2026-03-29T09:34:14.239Z</time></trkpt><trkpt lat="40.3027018" lon="15.0021235"><ele>64.0</ele><time>2026-03-29T09:34:15.211Z</time></trkpt><trkpt lat="40.3026387" lon="15.0021537"><ele>64.0</ele><time>2026-03-29T09:34:16.216Z</time></trkpt><trkpt lat="40.302529" lon="15.002179"><ele>64.0</ele><time>2026-03-29T09:34:18.207Z</time></trkpt><trkpt lat="40.3024012" lon="15.0022096"><ele>64.0</ele><time>2026-03-29T09:34:20.224Z</time></trkpt><trkpt lat="40.3023344" lon="15.0022233"><ele>64.0</ele><time>2026-03-29T09:34:21.247Z</time></trkpt><trkpt lat="40.302261" lon="15.0022427"><ele>65.0</ele><time>2026-03-29T09:34:22.201Z</time></trkpt><trkpt lat="40.3021718" lon="15.0022726"><ele>66.0</ele><time>2026-03-29T09:34:23.212Z</time></trkpt><trkpt lat="40.3020902" lon="15.0023061"><ele>67.0</ele><time>2026-03-29T09:34:24.207Z</time></trkpt><trkpt lat="40.3020095" lon="15.0023429"><ele>68.0</ele><time>2026-03-29T09:34:25.222Z</time></trkpt><trkpt lat="40.3019311" lon="15.0023747"><ele>69.0</ele><time>2026-03-29T09:34:26.195Z</time></trkpt><trkpt lat="40.3018448" lon="15.0024124"><ele>70.0</ele><time>2026-03-29T09:34:27.248Z</time></trkpt><trkpt lat="40.3017675" lon="15.002441"><ele>70.0</ele><time>2026-03-29T09:34:28.228Z</time></trkpt><trkpt lat="40.3016889" lon="15.0024688"><ele>70.0</ele><time>2026-03-29T09:34:29.283Z</time></trkpt><trkpt lat="40.3016188" lon="15.0024981"><ele>70.0</ele><time>2026-03-29T09:34:30.23Z</time></trkpt><trkpt lat="40.3015495" lon="15.0025146"><ele>70.0</ele><time>2026-03-29T09:34:31.213Z</time></trkpt><trkpt lat="40.3014761" lon="15.0025425"><ele>70.0</ele><time>2026-03-29T09:34:33.242Z</time></trkpt><trkpt lat="40.3013999" lon="15.0025853"><ele>70.0</ele><time>2026-03-29T09:34:36.206Z</time></trkpt><trkpt lat="40.3013365" lon="15.0026118"><ele>69.16666666666666</ele><time>2026-03-29T09:34:38.218Z</time></trkpt><trkpt lat="40.301249" lon="15.0026455"><ele>68.33333333333333</ele><time>2026-03-29T09:34:40.219Z</time></trkpt><trkpt lat="40.3011501" lon="15.0026673"><ele>67.5</ele><time>2026-03-29T09:34:43.22Z</time></trkpt><trkpt lat="40.3010781" lon="15.0026813"><ele>66.66666666666667</ele><time>2026-03-29T09:34:45.223Z</time></trkpt><trkpt lat="40.300998" lon="15.0026854"><ele>65.83333333333334</ele><time>2026-03-29T09:34:47.206Z</time></trkpt><trkpt lat="40.3009206" lon="15.0026835"><ele>65.0</ele><time>2026-03-29T09:34:49.21Z</time></trkpt><trkpt lat="40.3008308" lon="15.0026904"><ele>65.00000000000001</ele><time>2026-03-29T09:34:51.218Z</time></trkpt><trkpt lat="40.300742" lon="15.0026799"><ele>65.0</ele><time>2026-03-29T09:34:53.21Z</time></trkpt><trkpt lat="40.3006727" lon="15.0026649"><ele>65.0</ele><time>2026-03-29T09:34:55.215Z</time></trkpt><trkpt lat="40.3006046" lon="15.0026418"><ele>65.0</ele><time>2026-03-29T09:34:57.192Z</time></trkpt><trkpt lat="40.3005411" lon="15.0026213"><ele>65.0</ele><time>2026-03-29T09:34:59.187Z</time></trkpt><trkpt lat="40.3004789" lon="15.0026026"><ele>65.00000000000001</ele><time>2026-03-29T09:35:01.199Z</time></trkpt><trkpt lat="40.300395" lon="15.0025732"><ele>65.0</ele><time>2026-03-29T09:35:04.313Z</time></trkpt><trkpt lat="40.3003181" lon="15.0025715"><ele>65.5</ele><time>2026-03-29T09:35:08.209Z</time></trkpt><trkpt lat="40.3002503" lon="15.0025777"><ele>66.0</ele><time>2026-03-29T09:35:10.231Z</time></trkpt><trkpt lat="40.3001572" lon="15.0025845"><ele>66.5</ele><time>2026-03-29T09:35:13.206Z</time></trkpt><trkpt lat="40.3000864" lon="15.0025987"><ele>67.0</ele><time>2026-03-29T09:35:15.317Z</time></trkpt><trkpt lat="40.3000145" lon="15.0026349"><ele>67.5</ele><time>2026-03-29T09:35:17.209Z</time></trkpt><trkpt lat="40.2999304" lon="15.0026792"><ele>68.0</ele><time>2026-03-29T09:35:19.188Z</time></trkpt><trkpt lat="40.2998481" lon="15.0027241"><ele>68.0</ele><time>2026-03-29T09:35:21.223Z</time></trkpt><trkpt lat="40.2997651" lon="15.0027764"><ele>68.0</ele><time>2026-03-29T09:35:23.2Z</time></trkpt><trkpt lat="40.2996753" lon="15.0028281"><ele>68.0</ele><time>2026-03-29T09:35:25.193Z</time></trkpt><trkpt lat="40.2995692" lon="15.0028614"><ele>68.0</ele><time>2026-03-29T09:35:27.19Z</time></trkpt><trkpt lat="40.2994486" lon="15.0028849"><ele>68.0</ele><time>2026-03-29T09:35:29.206Z</time></trkpt><trkpt lat="40.2993521" lon="15.0029139"><ele>69.16666666666667</ele><time>2026-03-29T09:35:31.222Z</time></trkpt><trkpt lat="40.2992582" lon="15.002958"><ele>70.33333333333334</ele><time>2026-03-29T09:35:33.216Z</time></trkpt><trkpt lat="40.2991941" lon="15.0029872"><ele>71.5</ele><time>2026-03-29T09:35:35.214Z</time></trkpt><trkpt lat="40.2991307" lon="15.0030617"><ele>72.66666666666667</ele><time>2026-03-29T09:35:38.19Z</time></trkpt><trkpt lat="40.2990767" lon="15.0031315"><ele>73.83333333333333</ele><time>2026-03-29T09:35:41.197Z</time></trkpt><trkpt lat="40.2990355" lon="15.0032198"><ele>75.0</ele><time>2026-03-29T09:35:47.196Z</time></trkpt><trkpt lat="40.2989529" lon="15.0032795"><ele>73.4</ele><time>2026-03-29T09:35:50.221Z</time></trkpt><trkpt lat="40.2988665" lon="15.0033111"><ele>71.8</ele><time>2026-03-29T09:35:52.236Z</time></trkpt><trkpt lat="40.2987797" lon="15.0033446"><ele>70.2</ele><time>2026-03-29T09:35:54.205Z</time></trkpt><trkpt lat="40.2986817" lon="15.0033873"><ele>68.6</ele><time>2026-03-29T09:35:56.182Z</time></trkpt><trkpt lat="40.2985945" lon="15.0034193"><ele>67.0</ele><time>2026-03-29T09:35:58.222Z</time></trkpt><trkpt lat="40.2985041" lon="15.0034537"><ele>67.0</ele><time>2026-03-29T09:36:00.199Z</time></trkpt><trkpt lat="40.2984351" lon="15.0034616"><ele>67.0</ele><time>2026-03-29T09:36:02.212Z</time></trkpt><trkpt lat="40.2983536" lon="15.003495"><ele>67.0</ele><time>2026-03-29T09:36:11.214Z</time></trkpt><trkpt lat="40.2982902" lon="15.0035315"><ele>67.0</ele><time>2026-03-29T09:36:13.243Z</time></trkpt><trkpt lat="40.2982094" lon="15.0035717"><ele>67.0</ele><time>2026-03-29T09:36:16.214Z</time></trkpt><trkpt lat="40.2981629" lon="15.0036443"><ele>67.0</ele><time>2026-03-29T09:36:19.199Z</time></trkpt><trkpt lat="40.2981188" lon="15.0037556"><ele>68.0</ele><time>2026-03-29T09:36:22.182Z</time></trkpt><trkpt lat="40.2980778" lon="15.0038338"><ele>69.0</ele><time>2026-03-29T09:36:24.182Z</time></trkpt><trkpt lat="40.2980331" lon="15.0039169"><ele>70.0</ele><time>2026-03-29T09:36:26.189Z</time></trkpt><trkpt lat="40.2979762" lon="15.0039987"><ele>71.0</ele><time>2026-03-29T09:36:28.24Z</time></trkpt><trkpt lat="40.2979208" lon="15.0040452"><ele>72.0</ele><time>2026-03-29T09:36:30.197Z</time></trkpt><trkpt lat="40.2978292" lon="15.0040922"><ele>73.0</ele><time>2026-03-29T09:36:32.224Z</time></trkpt><trkpt lat="40.2977196" lon="15.0041169"><ele>73.0</ele><time>2026-03-29T09:36:34.244Z</time></trkpt><trkpt lat="40.2976199" lon="15.004111"><ele>73.0</ele><time>2026-03-29T09:36:36.192Z</time></trkpt><trkpt lat="40.297511" lon="15.0040968"><ele>73.0</ele><time>2026-03-29T09:36:38.22Z</time></trkpt><trkpt lat="40.2974322" lon="15.0041022"><ele>73.0</ele><time>2026-03-29T09:36:40.232Z</time></trkpt><trkpt lat="40.2973519" lon="15.0041106"><ele>73.0</ele><time>2026-03-29T09:36:43.221Z</time></trkpt><trkpt lat="40.2972898" lon="15.0041662"><ele>73.0</ele><time>2026-03-29T09:36:51.197Z</time></trkpt><trkpt lat="40.2972026" lon="15.0042384"><ele>72.5</ele><time>2026-03-29T09:36:53.255Z</time></trkpt><trkpt lat="40.2970988" lon="15.004328"><ele>72.0</ele><time>2026-03-29T09:36:55.197Z</time></trkpt><trkpt lat="40.297037" lon="15.004374"><ele>71.5</ele><time>2026-03-29T09:36:56.219Z</time></trkpt><trkpt lat="40.2969747" lon="15.0044179"><ele>71.0</ele><time>2026-03-29T09:36:57.224Z</time></trkpt><trkpt lat="40.2969119" lon="15.0044629"><ele>70.5</ele><time>2026-03-29T09:36:58.199Z</time></trkpt><trkpt lat="40.2968426" lon="15.004507"><ele>70.0</ele><time>2026-03-29T09:36:59.232Z</time></trkpt><trkpt lat="40.296777" lon="15.0045429"><ele>70.0</ele><time>2026-03-29T09:37:00.201Z</time></trkpt><trkpt lat="40.2967039" lon="15.0045778"><ele>70.0</ele><time>2026-03-29T09:37:01.245Z</time></trkpt><trkpt lat="40.2966424" lon="15.0045967"><ele>70.0</ele><time>2026-03-29T09:37:02.215Z</time></trkpt><trkpt lat="40.2965721" lon="15.004625"><ele>70.0</ele><time>2026-03-29T09:37:03.219Z</time></trkpt><trkpt lat="40.2965014" lon="15.0046468"><ele>70.0</ele><time>2026-03-29T09:37:04.187Z</time></trkpt><trkpt lat="40.2964316" lon="15.0046663"><ele>70.0</ele><time>2026-03-29T09:37:05.2Z</time></trkpt><trkpt lat="40.2963159" lon="15.0046971"><ele>71.0</ele><time>2026-03-29T09:37:07.199Z</time></trkpt><trkpt lat="40.2962154" lon="15.004769"><ele>72.0</ele><time>2026-03-29T09:37:09.214Z</time></trkpt><trkpt lat="40.2961105" lon="15.004879"><ele>73.0</ele><time>2026-03-29T09:37:11.25Z</time></trkpt><trkpt lat="40.2960117" lon="15.004975"><ele>74.0</ele><time>2026-03-29T09:37:13.262Z</time></trkpt><trkpt lat="40.2959347" lon="15.0050058"><ele>74.0</ele><time>2026-03-29T09:37:15.207Z</time></trkpt><trkpt lat="40.2958415" lon="15.0050012"><ele>74.0</ele><time>2026-03-29T09:37:17.22Z</time></trkpt><trkpt lat="40.2957131" lon="15.004993"><ele>74.0</ele><time>2026-03-29T09:37:19.228Z</time></trkpt><trkpt lat="40.295605" lon="15.0049748"><ele>74.0</ele><time>2026-03-29T09:37:21.205Z</time></trkpt><trkpt lat="40.2955211" lon="15.0049708"><ele>74.0</ele><time>2026-03-29T09:37:23.225Z</time></trkpt><trkpt lat="40.2954382" lon="15.0049635"><ele>74.33333333333334</ele><time>2026-03-29T09:37:27.205Z</time></trkpt><trkpt lat="40.295459" lon="15.0050571"><ele>74.66666666666667</ele><time>2026-03-29T09:37:34.19Z</time></trkpt><trkpt lat="40.2954784" lon="15.0051499"><ele>75.0</ele><time>2026-03-29T09:37:36.202Z</time></trkpt><trkpt lat="40.2954734" lon="15.0052611"><ele>75.33333333333333</ele><time>2026-03-29T09:37:38.213Z</time></trkpt><trkpt lat="40.2954289" lon="15.0053555"><ele>75.66666666666666</ele><time>2026-03-29T09:37:40.234Z</time></trkpt><trkpt lat="40.2953666" lon="15.0054169"><ele>76.0</ele><time>2026-03-29T09:37:42.251Z</time></trkpt><trkpt lat="40.2953037" lon="15.0055162"><ele>76.0</ele><time>2026-03-29T09:37:44.212Z</time></trkpt><trkpt lat="40.295267" lon="15.005636"><ele>76.0</ele><time>2026-03-29T09:37:46.209Z</time></trkpt><trkpt lat="40.2952438" lon="15.0057818"><ele>76.0</ele><time>2026-03-29T09:37:48.203Z</time></trkpt><trkpt lat="40.2952227" lon="15.0059313"><ele>76.0</ele><time>2026-03-29T09:37:50.217Z</time></trkpt><trkpt lat="40.2952113" lon="15.0060742"><ele>76.0</ele><time>2026-03-29T09:37:52.212Z</time></trkpt><trkpt lat="40.2952273" lon="15.0062214"><ele>77.5</ele><time>2026-03-29T09:37:54.205Z</time></trkpt><trkpt lat="40.2952798" lon="15.0063328"><ele>79.0</ele><time>2026-03-29T09:37:56.232Z</time></trkpt><trkpt lat="40.2953495" lon="15.0064121"><ele>80.5</ele><time>2026-03-29T09:37:58.199Z</time></trkpt><trkpt lat="40.2954328" lon="15.0064863"><ele>82.0</ele><time>2026-03-29T09:38:00.218Z</time></trkpt><trkpt lat="40.2955633" lon="15.0066272"><ele>83.0</ele><time>2026-03-29T09:38:03.234Z</time></trkpt><trkpt lat="40.295631" lon="15.0067293"><ele>84.0</ele><time>2026-03-29T09:38:05.229Z</time></trkpt><trkpt lat="40.2956815" lon="15.0068371"><ele>85.0</ele><time>2026-03-29T09:38:07.234Z</time></trkpt><trkpt lat="40.2957088" lon="15.0069392"><ele>86.0</ele><time>2026-03-29T09:38:09.226Z</time></trkpt><trkpt lat="40.2957413" lon="15.0070544"><ele>87.0</ele><time>2026-03-29T09:38:11.217Z</time></trkpt><trkpt lat="40.2957905" lon="15.007199"><ele>87.0</ele><time>2026-03-29T09:38:13.218Z</time></trkpt><trkpt lat="40.2958453" lon="15.0073287"><ele>87.0</ele><time>2026-03-29T09:38:15.215Z</time></trkpt><trkpt lat="40.2958967" lon="15.0074632"><ele>87.0</ele><time>2026-03-29T09:38:17.202Z</time></trkpt><trkpt lat="40.2959363" lon="15.0075718"><ele>87.0</ele><time>2026-03-29T09:38:19.207Z</time></trkpt><trkpt lat="40.2959555" lon="15.0076715"><ele>87.0</ele><time>2026-03-29T09:38:21.207Z</time></trkpt><trkpt lat="40.2959877" lon="15.0078328"><ele>89.19999999999999</ele><time>2026-03-29T09:38:23.208Z</time></trkpt><trkpt lat="40.2959971" lon="15.007928"><ele>91.4</ele><time>2026-03-29T09:38:24.208Z</time></trkpt><trkpt lat="40.2959952" lon="15.0080447"><ele>93.6</ele><time>2026-03-29T09:38:25.198Z</time></trkpt><trkpt lat="40.2959816" lon="15.0081569"><ele>95.80000000000001</ele><time>2026-03-29T09:38:26.192Z</time></trkpt><trkpt lat="40.2959675" lon="15.0082947"><ele>98.0</ele><time>2026-03-29T09:38:27.221Z</time></trkpt><trkpt lat="40.2959667" lon="15.0084229"><ele>100.0</ele><time>2026-03-29T09:38:28.193Z</time></trkpt><trkpt lat="40.2959692" lon="15.0085678"><ele>102.0</ele><time>2026-03-29T09:38:29.226Z</time></trkpt><trkpt lat="40.2959707" lon="15.0087038"><ele>104.00000000000001</ele><time>2026-03-29T09:38:30.204Z</time></trkpt><trkpt lat="40.295945" lon="15.008855"><ele>106.0</ele><time>2026-03-29T09:38:31.276Z</time></trkpt><trkpt lat="40.295922" lon="15.0089529"><ele>108.0</ele><time>2026-03-29T09:38:32.204Z</time></trkpt><trkpt lat="40.2958968" lon="15.0090444"><ele>108.0</ele><time>2026-03-29T09:38:33.22Z</time></trkpt><trkpt lat="40.2958339" lon="15.0091145"><ele>108.00000000000001</ele><time>2026-03-29T09:38:35.219Z</time></trkpt><trkpt lat="40.2957417" lon="15.0090677"><ele>108.00000000000001</ele><time>2026-03-29T09:38:37.236Z</time></trkpt><trkpt lat="40.2956431" lon="15.0089324"><ele>108.0</ele><time>2026-03-29T09:38:39.212Z</time></trkpt><trkpt lat="40.2955869" lon="15.0088262"><ele>108.0</ele><time>2026-03-29T09:38:40.213Z</time></trkpt><trkpt lat="40.295531" lon="15.0087286"><ele>109.60000000000001</ele><time>2026-03-29T09:38:41.212Z</time></trkpt><trkpt lat="40.2954789" lon="15.0086517"><ele>111.20000000000002</ele><time>2026-03-29T09:38:42.228Z</time></trkpt><trkpt lat="40.2954131" lon="15.0085729"><ele>112.8</ele><time>2026-03-29T09:38:43.254Z</time></trkpt><trkpt lat="40.295332" lon="15.0085117"><ele>114.4</ele><time>2026-03-29T09:38:44.207Z</time></trkpt><trkpt lat="40.2952466" lon="15.0084627"><ele>116.0</ele><time>2026-03-29T09:38:45.238Z</time></trkpt><trkpt lat="40.2951164" lon="15.0084263"><ele>116.0</ele><time>2026-03-29T09:38:46.291Z</time></trkpt><trkpt lat="40.2949575" lon="15.0084297"><ele>116.0</ele><time>2026-03-29T09:38:47.215Z</time></trkpt><trkpt lat="40.2947815" lon="15.0084451"><ele>116.0</ele><time>2026-03-29T09:38:48.219Z</time></trkpt><trkpt lat="40.2946271" lon="15.0084389"><ele>117.0</ele><time>2026-03-29T09:38:49.247Z</time></trkpt><trkpt lat="40.294502" lon="15.0084357"><ele>118.0</ele><time>2026-03-29T09:38:50.216Z</time></trkpt><trkpt lat="40.2943794" lon="15.0084508"><ele>119.0</ele><time>2026-03-29T09:38:51.237Z</time></trkpt><trkpt lat="40.2942641" lon="15.0084781"><ele>120.0</ele><time>2026-03-29T09:38:52.208Z</time></trkpt><trkpt lat="40.2941439" lon="15.0085272"><ele>120.0</ele><time>2026-03-29T09:38:53.226Z</time></trkpt><trkpt lat="40.2940464" lon="15.008579"><ele>120.0</ele><time>2026-03-29T09:38:54.215Z</time></trkpt><trkpt lat="40.2939707" lon="15.0086405"><ele>120.0</ele><time>2026-03-29T09:38:55.238Z</time></trkpt><trkpt lat="40.2939243" lon="15.0087267"><ele>120.0</ele><time>2026-03-29T09:38:56.277Z</time></trkpt><trkpt lat="40.2939064" lon="15.0088375"><ele>120.0</ele><time>2026-03-29T09:38:57.301Z</time></trkpt><trkpt lat="40.2939406" lon="15.0090583"><ele>120.0</ele><time>2026-03-29T09:38:59.24Z</time></trkpt><trkpt lat="40.2939961" lon="15.0091475"><ele>120.0</ele><time>2026-03-29T09:39:00.2Z</time></trkpt><trkpt lat="40.2940847" lon="15.0092461"><ele>120.0</ele><time>2026-03-29T09:39:01.381Z</time></trkpt><trkpt lat="40.2943018" lon="15.0093396"><ele>120.0</ele><time>2026-03-29T09:39:03.224Z</time></trkpt><trkpt lat="40.2944161" lon="15.009366"><ele>122.4</ele><time>2026-03-29T09:39:04.208Z</time></trkpt><trkpt lat="40.2945176" lon="15.0093763"><ele>124.8</ele><time>2026-03-29T09:39:05.212Z</time></trkpt><trkpt lat="40.2946093" lon="15.0094224"><ele>127.19999999999999</ele><time>2026-03-29T09:39:06.226Z</time></trkpt><trkpt lat="40.2946967" lon="15.0095266"><ele>129.6</ele><time>2026-03-29T09:39:07.222Z</time></trkpt><trkpt lat="40.2947775" lon="15.0096416"><ele>132.0</ele><time>2026-03-29T09:39:08.239Z</time></trkpt><trkpt lat="40.2948288" lon="15.0097433"><ele>132.0</ele><time>2026-03-29T09:39:09.21Z</time></trkpt><trkpt lat="40.2948507" lon="15.0098319"><ele>132.0</ele><time>2026-03-29T09:39:10.214Z</time></trkpt><trkpt lat="40.2948251" lon="15.0099212"><ele>132.0</ele><time>2026-03-29T09:39:12.234Z</time></trkpt><trkpt lat="40.294747" lon="15.0099286"><ele>132.0</ele><time>2026-03-29T09:39:14.226Z</time></trkpt><trkpt lat="40.2946798" lon="15.0099087"><ele>132.0</ele><time>2026-03-29T09:39:15.197Z</time></trkpt><trkpt lat="40.2945901" lon="15.0098951"><ele>132.0</ele><time>2026-03-29T09:39:16.373Z</time></trkpt><trkpt lat="40.2944023" lon="15.0099277"><ele>133.25</ele><time>2026-03-29T09:39:18.232Z</time></trkpt><trkpt lat="40.2942816" lon="15.0099584"><ele>134.5</ele><time>2026-03-29T09:39:19.229Z</time></trkpt><trkpt lat="40.2941479" lon="15.0099714"><ele>135.75</ele><time>2026-03-29T09:39:20.218Z</time></trkpt><trkpt lat="40.2940333" lon="15.0099548"><ele>137.0</ele><time>2026-03-29T09:39:21.218Z</time></trkpt><trkpt lat="40.2939466" lon="15.0099217"><ele>138.79999999999998</ele><time>2026-03-29T09:39:22.205Z</time></trkpt><trkpt lat="40.2938682" lon="15.0099037"><ele>140.6</ele><time>2026-03-29T09:39:23.214Z</time></trkpt><trkpt lat="40.2937678" lon="15.0099654"><ele>142.39999999999998</ele><time>2026-03-29T09:39:25.214Z</time></trkpt><trkpt lat="40.2937379" lon="15.0100409"><ele>144.2</ele><time>2026-03-29T09:39:26.218Z</time></trkpt><trkpt lat="40.2937368" lon="15.0101927"><ele>146.0</ele><time>2026-03-29T09:39:28.228Z</time></trkpt><trkpt lat="40.293823" lon="15.0102991"><ele>148.0</ele><time>2026-03-29T09:39:30.223Z</time></trkpt><trkpt lat="40.293917" lon="15.0103494"><ele>150.0</ele><time>2026-03-29T09:39:31.366Z</time></trkpt><trkpt lat="40.2940915" lon="15.0104286"><ele>152.0</ele><time>2026-03-29T09:39:33.207Z</time></trkpt><trkpt lat="40.2941476" lon="15.0104748"><ele>154.0</ele><time>2026-03-29T09:39:34.211Z</time></trkpt><trkpt lat="40.2941631" lon="15.0105767"><ele>156.0</ele><time>2026-03-29T09:39:36.206Z</time></trkpt><trkpt lat="40.2940946" lon="15.0106336"><ele>156.0</ele><time>2026-03-29T09:39:38.276Z</time></trkpt><trkpt lat="40.2940289" lon="15.0106367"><ele>156.0</ele><time>2026-03-29T09:39:39.236Z</time></trkpt><trkpt lat="40.2939447" lon="15.0106355"><ele>156.0</ele><time>2026-03-29T09:39:40.225Z</time></trkpt><trkpt lat="40.2938606" lon="15.0106401"><ele>156.0</ele><time>2026-03-29T09:39:41.222Z</time></trkpt><trkpt lat="40.293755" lon="15.0106526"><ele>156.0</ele><time>2026-03-29T09:39:42.215Z</time></trkpt><trkpt lat="40.2936629" lon="15.0106706"><ele>156.0</ele><time>2026-03-29T09:39:43.235Z</time></trkpt><trkpt lat="40.2935846" lon="15.010742"><ele>161.2</ele><time>2026-03-29T09:39:45.249Z</time></trkpt><trkpt lat="40.2935948" lon="15.0108584"><ele>166.39999999999998</ele><time>2026-03-29T09:39:47.256Z</time></trkpt><trkpt lat="40.2936266" lon="15.011014"><ele>171.6</ele><time>2026-03-29T09:39:49.239Z</time></trkpt><trkpt lat="40.2935707" lon="15.0111591"><ele>176.79999999999998</ele><time>2026-03-29T09:39:51.208Z</time></trkpt><trkpt lat="40.2935108" lon="15.0111991"><ele>182.0</ele><time>2026-03-29T09:39:52.204Z</time></trkpt><trkpt lat="40.2934331" lon="15.0112083"><ele>182.0</ele><time>2026-03-29T09:39:53.222Z</time></trkpt><trkpt lat="40.293333" lon="15.0111938"><ele>182.0</ele><time>2026-03-29T09:39:54.226Z</time></trkpt><trkpt lat="40.2932394" lon="15.0111696"><ele>182.0</ele><time>2026-03-29T09:39:55.24Z</time></trkpt><trkpt lat="40.2931281" lon="15.0111518"><ele>182.0</ele><time>2026-03-29T09:39:56.241Z</time></trkpt><trkpt lat="40.2930078" lon="15.0111687"><ele>182.0</ele><time>2026-03-29T09:39:57.22Z</time></trkpt><trkpt lat="40.2928537" lon="15.0112246"><ele>186.0</ele><time>2026-03-29T09:39:58.234Z</time></trkpt><trkpt lat="40.2927174" lon="15.0112893"><ele>190.0</ele><time>2026-03-29T09:39:59.234Z</time></trkpt><trkpt lat="40.2926103" lon="15.0113485"><ele>194.0</ele><time>2026-03-29T09:40:00.214Z</time></trkpt><trkpt lat="40.2925158" lon="15.0114119"><ele>198.0</ele><time>2026-03-29T09:40:01.223Z</time></trkpt><trkpt lat="40.2924088" lon="15.0114943"><ele>198.0</ele><time>2026-03-29T09:40:02.254Z</time></trkpt><trkpt lat="40.2922798" lon="15.0115696"><ele>198.0</ele><time>2026-03-29T09:40:03.259Z</time></trkpt><trkpt lat="40.2921084" lon="15.0116506"><ele>198.0</ele><time>2026-03-29T09:40:04.304Z</time></trkpt><trkpt lat="40.2919767" lon="15.0117088"><ele>202.66666666666669</ele><time>2026-03-29T09:40:05.219Z</time></trkpt><trkpt lat="40.291819" lon="15.0117621"><ele>207.33333333333334</ele><time>2026-03-29T09:40:06.237Z</time></trkpt><trkpt lat="40.2916641" lon="15.0118233"><ele>212.0</ele><time>2026-03-29T09:40:07.213Z</time></trkpt><trkpt lat="40.2914859" lon="15.0119072"><ele>215.66666666666669</ele><time>2026-03-29T09:40:08.238Z</time></trkpt><trkpt lat="40.2913329" lon="15.0119889"><ele>219.33333333333331</ele><time>2026-03-29T09:40:09.25Z</time></trkpt><trkpt lat="40.291199" lon="15.0120719"><ele>223.0</ele><time>2026-03-29T09:40:10.208Z</time></trkpt><trkpt lat="40.2910493" lon="15.0121611"><ele>223.0</ele><time>2026-03-29T09:40:11.237Z</time></trkpt><trkpt lat="40.2908896" lon="15.0122454"><ele>223.0</ele><time>2026-03-29T09:40:12.211Z</time></trkpt><trkpt lat="40.290712" lon="15.0123305"><ele>223.0</ele><time>2026-03-29T09:40:13.222Z</time></trkpt><trkpt lat="40.2905466" lon="15.0123968"><ele>225.75</ele><time>2026-03-29T09:40:14.235Z</time></trkpt><trkpt lat="40.2904098" lon="15.0124449"><ele>228.5</ele><time>2026-03-29T09:40:15.251Z</time></trkpt><trkpt lat="40.2902811" lon="15.0124808"><ele>231.25</ele><time>2026-03-29T09:40:16.25Z</time></trkpt><trkpt lat="40.2901721" lon="15.0125095"><ele>234.0</ele><time>2026-03-29T09:40:17.234Z</time></trkpt><trkpt lat="40.2900834" lon="15.0125473"><ele>234.5</ele><time>2026-03-29T09:40:18.213Z</time></trkpt><trkpt lat="40.2900082" lon="15.0126053"><ele>235.0</ele><time>2026-03-29T09:40:19.239Z</time></trkpt><trkpt lat="40.2899612" lon="15.0126734"><ele>235.5</ele><time>2026-03-29T09:40:20.221Z</time></trkpt><trkpt lat="40.2899395" lon="15.0127529"><ele>236.0</ele><time>2026-03-29T09:40:21.33Z</time></trkpt><trkpt lat="40.2899279" lon="15.0128593"><ele>236.5</ele><time>2026-03-29T09:40:23.24Z</time></trkpt><trkpt lat="40.2898954" lon="15.0129712"><ele>237.0</ele><time>2026-03-29T09:40:25.237Z</time></trkpt><trkpt lat="40.2898085" lon="15.0130384"><ele>240.33333333333334</ele><time>2026-03-29T09:40:27.351Z</time></trkpt><trkpt lat="40.2897192" lon="15.0129697"><ele>243.66666666666669</ele><time>2026-03-29T09:40:29.229Z</time></trkpt><trkpt lat="40.289665" lon="15.0128966"><ele>247.0</ele><time>2026-03-29T09:40:30.237Z</time></trkpt><trkpt lat="40.2896124" lon="15.0128194"><ele>250.33333333333334</ele><time>2026-03-29T09:40:31.229Z</time></trkpt><trkpt lat="40.2895433" lon="15.0127484"><ele>253.66666666666669</ele><time>2026-03-29T09:40:32.251Z</time></trkpt><trkpt lat="40.2894664" lon="15.0126836"><ele>257.0</ele><time>2026-03-29T09:40:33.219Z</time></trkpt><trkpt lat="40.2893775" lon="15.0126023"><ele>257.0</ele><time>2026-03-29T09:40:34.253Z</time></trkpt><trkpt lat="40.2892879" lon="15.0125204"><ele>257.0</ele><time>2026-03-29T09:40:35.202Z</time></trkpt><trkpt lat="40.2891778" lon="15.0124223"><ele>257.0</ele><time>2026-03-29T09:40:36.234Z</time></trkpt><trkpt lat="40.2890665" lon="15.0123204"><ele>257.0</ele><time>2026-03-29T09:40:37.341Z</time></trkpt><trkpt lat="40.2888387" lon="15.0121585"><ele>256.8</ele><time>2026-03-29T09:40:39.279Z</time></trkpt><trkpt lat="40.2887075" lon="15.0121131"><ele>256.6</ele><time>2026-03-29T09:40:40.257Z</time></trkpt><trkpt lat="40.288592" lon="15.0120955"><ele>256.40000000000003</ele><time>2026-03-29T09:40:41.242Z</time></trkpt><trkpt lat="40.2884996" lon="15.0120916"><ele>256.2</ele><time>2026-03-29T09:40:42.229Z</time></trkpt><trkpt lat="40.2884362" lon="15.0120959"><ele>256.0</ele><time>2026-03-29T09:40:43.213Z</time></trkpt><trkpt lat="40.2883911" lon="15.0122209"><ele>255.99999999999997</ele><time>2026-03-29T09:40:46.221Z</time></trkpt><trkpt lat="40.2884635" lon="15.0123255"><ele>256.0</ele><time>2026-03-29T09:40:48.235Z</time></trkpt><trkpt lat="40.2885178" lon="15.0123947"><ele>256.0</ele><time>2026-03-29T09:40:49.235Z</time></trkpt><trkpt lat="40.2885729" lon="15.0124748"><ele>256.0</ele><time>2026-03-29T09:40:50.216Z</time></trkpt><trkpt lat="40.2886276" lon="15.0125579"><ele>255.99999999999997</ele><time>2026-03-29T09:40:51.229Z</time></trkpt><trkpt lat="40.2886641" lon="15.0126336"><ele>256.0</ele><time>2026-03-29T09:40:52.228Z</time></trkpt><trkpt lat="40.2886429" lon="15.0128242"><ele>258.8333333333333</ele><time>2026-03-29T09:40:55.248Z</time></trkpt><trkpt lat="40.2885775" lon="15.0128691"><ele>261.66666666666663</ele><time>2026-03-29T09:40:56.317Z</time></trkpt><trkpt lat="40.288497" lon="15.0128986"><ele>264.5</ele><time>2026-03-29T09:40:57.245Z</time></trkpt><trkpt lat="40.2884051" lon="15.0129203"><ele>267.3333333333333</ele><time>2026-03-29T09:40:58.243Z</time></trkpt><trkpt lat="40.2883288" lon="15.0129103"><ele>270.1666666666667</ele><time>2026-03-29T09:40:59.231Z</time></trkpt><trkpt lat="40.2882383" lon="15.0128736"><ele>273.0</ele><time>2026-03-29T09:41:00.239Z</time></trkpt><trkpt lat="40.2881514" lon="15.0128195"><ele>274.0</ele><time>2026-03-29T09:41:01.221Z</time></trkpt><trkpt lat="40.2880447" lon="15.0127476"><ele>275.0</ele><time>2026-03-29T09:41:02.22Z</time></trkpt><trkpt lat="40.2879161" lon="15.0126697"><ele>276.0</ele><time>2026-03-29T09:41:03.241Z</time></trkpt><trkpt lat="40.2878077" lon="15.0126141"><ele>277.0</ele><time>2026-03-29T09:41:04.216Z</time></trkpt><trkpt lat="40.2877111" lon="15.0125642"><ele>277.0</ele><time>2026-03-29T09:41:05.248Z</time></trkpt><trkpt lat="40.2876285" lon="15.0125399"><ele>277.0</ele><time>2026-03-29T09:41:06.23Z</time></trkpt><trkpt lat="40.2875569" lon="15.0125535"><ele>277.0</ele><time>2026-03-29T09:41:07.24Z</time></trkpt><trkpt lat="40.2874912" lon="15.0126054"><ele>277.0</ele><time>2026-03-29T09:41:08.313Z</time></trkpt><trkpt lat="40.2874405" lon="15.0126882"><ele>277.0</ele><time>2026-03-29T09:41:09.227Z</time></trkpt><trkpt lat="40.2873777" lon="15.0128152"><ele>277.0</ele><time>2026-03-29T09:41:10.253Z</time></trkpt><trkpt lat="40.2873013" lon="15.0129547"><ele>276.25</ele><time>2026-03-29T09:41:11.263Z</time></trkpt><trkpt lat="40.2872221" lon="15.0130721"><ele>275.5</ele><time>2026-03-29T09:41:12.221Z</time></trkpt><trkpt lat="40.2871366" lon="15.0131724"><ele>274.75</ele><time>2026-03-29T09:41:13.232Z</time></trkpt><trkpt lat="40.2870388" lon="15.0132483"><ele>274.0</ele><time>2026-03-29T09:41:14.216Z</time></trkpt><trkpt lat="40.2869173" lon="15.0132963"><ele>274.0</ele><time>2026-03-29T09:41:15.231Z</time></trkpt><trkpt lat="40.2867905" lon="15.0133173"><ele>274.0</ele><time>2026-03-29T09:41:16.217Z</time></trkpt><trkpt lat="40.2866833" lon="15.0133326"><ele>274.0</ele><time>2026-03-29T09:41:17.216Z</time></trkpt><trkpt lat="40.2865945" lon="15.0133599"><ele>274.0</ele><time>2026-03-29T09:41:18.22Z</time></trkpt><trkpt lat="40.286529" lon="15.0134124"><ele>274.0</ele><time>2026-03-29T09:41:19.224Z</time></trkpt><trkpt lat="40.2864754" lon="15.0135054"><ele>275.5</ele><time>2026-03-29T09:41:20.235Z</time></trkpt><trkpt lat="40.2864366" lon="15.0136401"><ele>277.0</ele><time>2026-03-29T09:41:21.238Z</time></trkpt><trkpt lat="40.2863967" lon="15.0138032"><ele>278.5</ele><time>2026-03-29T09:41:22.24Z</time></trkpt><trkpt lat="40.2863523" lon="15.0140056"><ele>280.0</ele><time>2026-03-29T09:41:23.313Z</time></trkpt><trkpt lat="40.2863197" lon="15.0141673"><ele>283.2</ele><time>2026-03-29T09:41:24.221Z</time></trkpt><trkpt lat="40.2862926" lon="15.0143229"><ele>286.4</ele><time>2026-03-29T09:41:25.231Z</time></trkpt><trkpt lat="40.2862682" lon="15.0144593"><ele>289.6</ele><time>2026-03-29T09:41:26.258Z</time></trkpt><trkpt lat="40.2862352" lon="15.014572"><ele>292.8</ele><time>2026-03-29T09:41:27.22Z</time></trkpt><trkpt lat="40.286168" lon="15.0146865"><ele>296.0</ele><time>2026-03-29T09:41:28.337Z</time></trkpt><trkpt lat="40.2860838" lon="15.01476"><ele>296.0</ele><time>2026-03-29T09:41:29.331Z</time></trkpt><trkpt lat="40.2858477" lon="15.0148748"><ele>296.0</ele><time>2026-03-29T09:41:31.249Z</time></trkpt><trkpt lat="40.2856994" lon="15.0149396"><ele>296.0</ele><time>2026-03-29T09:41:32.216Z</time></trkpt><trkpt lat="40.2855542" lon="15.0150001"><ele>297.2</ele><time>2026-03-29T09:41:33.245Z</time></trkpt><trkpt lat="40.2854265" lon="15.0150321"><ele>298.40000000000003</ele><time>2026-03-29T09:41:34.232Z</time></trkpt><trkpt lat="40.2853087" lon="15.0150338"><ele>299.6</ele><time>2026-03-29T09:41:35.228Z</time></trkpt><trkpt lat="40.2852055" lon="15.0150061"><ele>300.8</ele><time>2026-03-29T09:41:36.228Z</time></trkpt><trkpt lat="40.2851203" lon="15.0149682"><ele>302.0</ele><time>2026-03-29T09:41:37.226Z</time></trkpt><trkpt lat="40.2850588" lon="15.0149429"><ele>304.83333333333337</ele><time>2026-03-29T09:41:38.243Z</time></trkpt><trkpt lat="40.2849864" lon="15.0150126"><ele>307.6666666666667</ele><time>2026-03-29T09:41:41.247Z</time></trkpt><trkpt lat="40.2850325" lon="15.0151097"><ele>310.5</ele><time>2026-03-29T09:41:43.228Z</time></trkpt><trkpt lat="40.2850903" lon="15.0151681"><ele>313.3333333333333</ele><time>2026-03-29T09:41:44.219Z</time></trkpt><trkpt lat="40.2851651" lon="15.0152321"><ele>316.16666666666663</ele><time>2026-03-29T09:41:45.224Z</time></trkpt><trkpt lat="40.2852383" lon="15.0152846"><ele>319.0</ele><time>2026-03-29T09:41:46.234Z</time></trkpt><trkpt lat="40.2853226" lon="15.0153391"><ele>319.0</ele><time>2026-03-29T09:41:47.213Z</time></trkpt><trkpt lat="40.2854154" lon="15.0153975"><ele>319.0</ele><time>2026-03-29T09:41:48.22Z</time></trkpt><trkpt lat="40.2854867" lon="15.0154602"><ele>319.0</ele><time>2026-03-29T09:41:49.23Z</time></trkpt><trkpt lat="40.2855272" lon="15.0155339"><ele>319.0</ele><time>2026-03-29T09:41:50.234Z</time></trkpt><trkpt lat="40.285522" lon="15.0156876"><ele>319.0</ele><time>2026-03-29T09:41:52.226Z</time></trkpt><trkpt lat="40.2854751" lon="15.0157588"><ele>319.0</ele><time>2026-03-29T09:41:53.245Z</time></trkpt><trkpt lat="40.2854256" lon="15.0158374"><ele>323.5</ele><time>2026-03-29T09:41:54.236Z</time></trkpt><trkpt lat="40.285386" lon="15.01595"><ele>328.0</ele><time>2026-03-29T09:41:55.226Z</time></trkpt><trkpt lat="40.2853579" lon="15.0161022"><ele>332.5</ele><time>2026-03-29T09:41:56.248Z</time></trkpt><trkpt lat="40.2853324" lon="15.016272"><ele>337.0</ele><time>2026-03-29T09:41:57.239Z</time></trkpt><trkpt lat="40.2853074" lon="15.0164227"><ele>337.0</ele><time>2026-03-29T09:41:58.242Z</time></trkpt><trkpt lat="40.2852809" lon="15.0165564"><ele>337.0</ele><time>2026-03-29T09:41:59.273Z</time></trkpt><trkpt lat="40.285245" lon="15.0166578"><ele>337.0</ele><time>2026-03-29T09:42:00.245Z</time></trkpt><trkpt lat="40.2851976" lon="15.0167394"><ele>337.0</ele><time>2026-03-29T09:42:01.224Z</time></trkpt><trkpt lat="40.2851338" lon="15.0168125"><ele>337.0</ele><time>2026-03-29T09:42:02.237Z</time></trkpt><trkpt lat="40.2850546" lon="15.0168793"><ele>337.0</ele><time>2026-03-29T09:42:03.242Z</time></trkpt><trkpt lat="40.2849613" lon="15.0169467"><ele>339.20000000000005</ele><time>2026-03-29T09:42:04.262Z</time></trkpt><trkpt lat="40.2848792" lon="15.0170148"><ele>341.4</ele><time>2026-03-29T09:42:05.199Z</time></trkpt><trkpt lat="40.2848018" lon="15.0171113"><ele>343.6</ele><time>2026-03-29T09:42:06.22Z</time></trkpt><trkpt lat="40.2847456" lon="15.017215"><ele>345.79999999999995</ele><time>2026-03-29T09:42:07.22Z</time></trkpt><trkpt lat="40.2847132" lon="15.0172985"><ele>348.0</ele><time>2026-03-29T09:42:08.217Z</time></trkpt><trkpt lat="40.2846717" lon="15.017396"><ele>350.0</ele><time>2026-03-29T09:42:10.196Z</time></trkpt><trkpt lat="40.2846022" lon="15.0173908"><ele>352.0</ele><time>2026-03-29T09:42:12.224Z</time></trkpt><trkpt lat="40.2845894" lon="15.0173019"><ele>354.0</ele><time>2026-03-29T09:42:14.242Z</time></trkpt><trkpt lat="40.2846361" lon="15.0171546"><ele>356.0</ele><time>2026-03-29T09:42:16.209Z</time></trkpt><trkpt lat="40.2846718" lon="15.0170511"><ele>358.0</ele><time>2026-03-29T09:42:17.206Z</time></trkpt><trkpt lat="40.2847011" lon="15.01695"><ele>360.0</ele><time>2026-03-29T09:42:18.214Z</time></trkpt><trkpt lat="40.2847096" lon="15.0168545"><ele>360.0</ele><time>2026-03-29T09:42:19.235Z</time></trkpt><trkpt lat="40.2846513" lon="15.0167265"><ele>360.0</ele><time>2026-03-29T09:42:21.223Z</time></trkpt><trkpt lat="40.2845886" lon="15.0167099"><ele>360.0</ele><time>2026-03-29T09:42:22.244Z</time></trkpt><trkpt lat="40.2845045" lon="15.0167114"><ele>360.0</ele><time>2026-03-29T09:42:23.219Z</time></trkpt><trkpt lat="40.2844079" lon="15.0167206"><ele>360.0</ele><time>2026-03-29T09:42:24.21Z</time></trkpt><trkpt lat="40.2843161" lon="15.0167521"><ele>360.0</ele><time>2026-03-29T09:42:25.211Z</time></trkpt><trkpt lat="40.2842372" lon="15.0168186"><ele>360.0</ele><time>2026-03-29T09:42:26.219Z</time></trkpt><trkpt lat="40.2841629" lon="15.0169147"><ele>360.0</ele><time>2026-03-29T09:42:27.235Z</time></trkpt><trkpt lat="40.2841005" lon="15.0170057"><ele>360.0</ele><time>2026-03-29T09:42:28.226Z</time></trkpt><trkpt lat="40.2840388" lon="15.0171124"><ele>360.0</ele><time>2026-03-29T09:42:29.212Z</time></trkpt><trkpt lat="40.2839723" lon="15.0172497"><ele>357.0</ele><time>2026-03-29T09:42:30.336Z</time></trkpt><trkpt lat="40.2838781" lon="15.0175681"><ele>354.0</ele><time>2026-03-29T09:42:32.219Z</time></trkpt><trkpt lat="40.2838262" lon="15.0177725"><ele>351.0</ele><time>2026-03-29T09:42:33.207Z</time></trkpt><trkpt lat="40.2837676" lon="15.0179699"><ele>351.0</ele><time>2026-03-29T09:42:34.232Z</time></trkpt><trkpt lat="40.2837063" lon="15.0181341"><ele>351.0</ele><time>2026-03-29T09:42:35.245Z</time></trkpt><trkpt lat="40.2836575" lon="15.0182764"><ele>351.0</ele><time>2026-03-29T09:42:36.225Z</time></trkpt><trkpt lat="40.2836182" lon="15.0184399"><ele>351.0</ele><time>2026-03-29T09:42:37.253Z</time></trkpt><trkpt lat="40.2835802" lon="15.0186081"><ele>354.75</ele><time>2026-03-29T09:42:38.214Z</time></trkpt><trkpt lat="40.2835269" lon="15.0187822"><ele>358.5</ele><time>2026-03-29T09:42:39.224Z</time></trkpt><trkpt lat="40.2834621" lon="15.018953"><ele>362.25</ele><time>2026-03-29T09:42:40.219Z</time></trkpt><trkpt lat="40.2833833" lon="15.0191269"><ele>366.0</ele><time>2026-03-29T09:42:41.233Z</time></trkpt><trkpt lat="40.2832936" lon="15.0192987"><ele>365.5</ele><time>2026-03-29T09:42:42.25Z</time></trkpt><trkpt lat="40.2832133" lon="15.0194412"><ele>365.0</ele><time>2026-03-29T09:42:43.224Z</time></trkpt><trkpt lat="40.2831378" lon="15.0195842"><ele>364.5</ele><time>2026-03-29T09:42:44.25Z</time></trkpt><trkpt lat="40.2830778" lon="15.0197316"><ele>364.0</ele><time>2026-03-29T09:42:45.217Z</time></trkpt><trkpt lat="40.2830189" lon="15.019896"><ele>365.79999999999995</ele><time>2026-03-29T09:42:46.238Z</time></trkpt><trkpt lat="40.2829703" lon="15.020041"><ele>367.59999999999997</ele><time>2026-03-29T09:42:47.212Z</time></trkpt><trkpt lat="40.2829356" lon="15.0201863"><ele>369.4</ele><time>2026-03-29T09:42:48.346Z</time></trkpt><trkpt lat="40.2829119" lon="15.0202952"><ele>371.2</ele><time>2026-03-29T09:42:49.27Z</time></trkpt><trkpt lat="40.2828893" lon="15.020401"><ele>373.0</ele><time>2026-03-29T09:42:50.229Z</time></trkpt><trkpt lat="40.2828703" lon="15.0204967"><ele>373.0</ele><time>2026-03-29T09:42:51.224Z</time></trkpt><trkpt lat="40.2828539" lon="15.0205976"><ele>373.0</ele><time>2026-03-29T09:42:52.231Z</time></trkpt><trkpt lat="40.2828365" lon="15.0207084"><ele>373.0</ele><time>2026-03-29T09:42:53.245Z</time></trkpt><trkpt lat="40.2828145" lon="15.0208187"><ele>373.0</ele><time>2026-03-29T09:42:54.221Z</time></trkpt><trkpt lat="40.2827925" lon="15.0209175"><ele>373.0</ele><time>2026-03-29T09:42:55.202Z</time></trkpt><trkpt lat="40.2827746" lon="15.0210111"><ele>373.0</ele><time>2026-03-29T09:42:56.24Z</time></trkpt><trkpt lat="40.2827603" lon="15.0210925"><ele>374.8333333333333</ele><time>2026-03-29T09:42:57.239Z</time></trkpt><trkpt lat="40.2827446" lon="15.0212016"><ele>376.66666666666663</ele><time>2026-03-29T09:42:59.236Z</time></trkpt><trkpt lat="40.2827251" lon="15.0212959"><ele>378.5</ele><time>2026-03-29T09:43:01.227Z</time></trkpt><trkpt lat="40.2827045" lon="15.0214107"><ele>380.3333333333333</ele><time>2026-03-29T09:43:03.248Z</time></trkpt><trkpt lat="40.2826758" lon="15.0215588"><ele>382.1666666666667</ele><time>2026-03-29T09:43:05.208Z</time></trkpt><trkpt lat="40.2826641" lon="15.0216417"><ele>384.0</ele><time>2026-03-29T09:43:06.242Z</time></trkpt><trkpt lat="40.2826477" lon="15.0217221"><ele>384.79999999999995</ele><time>2026-03-29T09:43:07.23Z</time></trkpt><trkpt lat="40.2826295" lon="15.0218022"><ele>385.59999999999997</ele><time>2026-03-29T09:43:08.225Z</time></trkpt><trkpt lat="40.2825983" lon="15.021936"><ele>386.4</ele><time>2026-03-29T09:43:10.239Z</time></trkpt><trkpt lat="40.2825706" lon="15.0220885"><ele>387.2</ele><time>2026-03-29T09:43:12.362Z</time></trkpt><trkpt lat="40.2825416" lon="15.0222394"><ele>388.0</ele><time>2026-03-29T09:43:14.234Z</time></trkpt><trkpt lat="40.2825266" lon="15.0223255"><ele>388.00000000000006</ele><time>2026-03-29T09:43:15.334Z</time></trkpt><trkpt lat="40.2824999" lon="15.0224723"><ele>388.0</ele><time>2026-03-29T09:43:17.25Z</time></trkpt><trkpt lat="40.2824751" lon="15.0225585"><ele>388.0</ele><time>2026-03-29T09:43:18.223Z</time></trkpt><trkpt lat="40.2824436" lon="15.0226699"><ele>388.0</ele><time>2026-03-29T09:43:19.227Z</time></trkpt><trkpt lat="40.2824137" lon="15.0227723"><ele>388.00000000000006</ele><time>2026-03-29T09:43:20.221Z</time></trkpt><trkpt lat="40.2823778" lon="15.0228768"><ele>388.0</ele><time>2026-03-29T09:43:21.226Z</time></trkpt><trkpt lat="40.282358" lon="15.0229891"><ele>388.50000000000006</ele><time>2026-03-29T09:43:23.223Z</time></trkpt><trkpt lat="40.2823335" lon="15.0230775"><ele>389.0</ele><time>2026-03-29T09:43:25.224Z</time></trkpt><trkpt lat="40.2822914" lon="15.0231966"><ele>389.5</ele><time>2026-03-29T09:43:27.228Z</time></trkpt><trkpt lat="40.2822391" lon="15.02335"><ele>390.0</ele><time>2026-03-29T09:43:29.232Z</time></trkpt><trkpt lat="40.2822088" lon="15.0234523"><ele>390.50000000000006</ele><time>2026-03-29T09:43:31.226Z</time></trkpt><trkpt lat="40.2822728" lon="15.0234496"><ele>391.0</ele><time>2026-03-29T09:43:44.217Z</time></trkpt><trkpt lat="40.2823206" lon="15.0233933"><ele>391.33333333333337</ele><time>2026-03-29T09:46:31.321Z</time></trkpt><trkpt lat="40.282268" lon="15.0234424"><ele>391.6666666666667</ele><time>2026-03-29T09:46:34.224Z</time></trkpt><trkpt lat="40.2822447" lon="15.0235288"><ele>392.0</ele><time>2026-03-29T09:46:36.245Z</time></trkpt><trkpt lat="40.2822044" lon="15.0236068"><ele>392.33333333333337</ele><time>2026-03-29T09:46:38.271Z</time></trkpt><trkpt lat="40.2821313" lon="15.023618"><ele>392.6666666666667</ele><time>2026-03-29T09:46:40.232Z</time></trkpt><trkpt lat="40.2820341" lon="15.0236468"><ele>393.0</ele><time>2026-03-29T09:46:42.224Z</time></trkpt><trkpt lat="40.2819293" lon="15.0237551"><ele>393.0</ele><time>2026-03-29T09:46:44.251Z</time></trkpt><trkpt lat="40.2818715" lon="15.0238232"><ele>393.0</ele><time>2026-03-29T09:46:45.229Z</time></trkpt><trkpt lat="40.2818179" lon="15.0238932"><ele>393.0</ele><time>2026-03-29T09:46:46.253Z</time></trkpt><trkpt lat="40.2817821" lon="15.0239661"><ele>393.0</ele><time>2026-03-29T09:46:47.232Z</time></trkpt><trkpt lat="40.2817627" lon="15.0240581"><ele>393.0</ele><time>2026-03-29T09:46:48.26Z</time></trkpt><trkpt lat="40.2817578" lon="15.0241622"><ele>393.0</ele><time>2026-03-29T09:46:49.241Z</time></trkpt><trkpt lat="40.2817537" lon="15.0242814"><ele>394.4</ele><time>2026-03-29T09:46:50.256Z</time></trkpt><trkpt lat="40.2817652" lon="15.0244097"><ele>395.79999999999995</ele><time>2026-03-29T09:46:51.24Z</time></trkpt><trkpt lat="40.2817929" lon="15.0245411"><ele>397.2</ele><time>2026-03-29T09:46:52.223Z</time></trkpt><trkpt lat="40.2818197" lon="15.0246739"><ele>398.6</ele><time>2026-03-29T09:46:53.236Z</time></trkpt><trkpt lat="40.2818281" lon="15.0247944"><ele>400.0</ele><time>2026-03-29T09:46:54.23Z</time></trkpt><trkpt lat="40.2818132" lon="15.0249045"><ele>401.8</ele><time>2026-03-29T09:46:55.222Z</time></trkpt><trkpt lat="40.2817748" lon="15.0250183"><ele>403.6</ele><time>2026-03-29T09:46:56.241Z</time></trkpt><trkpt lat="40.2817295" lon="15.0251317"><ele>405.4</ele><time>2026-03-29T09:46:57.223Z</time></trkpt><trkpt lat="40.2816659" lon="15.0252463"><ele>407.2</ele><time>2026-03-29T09:46:58.243Z</time></trkpt><trkpt lat="40.2816089" lon="15.0253529"><ele>409.0</ele><time>2026-03-29T09:46:59.228Z</time></trkpt><trkpt lat="40.2815675" lon="15.0254641"><ele>409.0</ele><time>2026-03-29T09:47:00.243Z</time></trkpt><trkpt lat="40.2815473" lon="15.0255849"><ele>409.0</ele><time>2026-03-29T09:47:01.253Z</time></trkpt><trkpt lat="40.2815278" lon="15.0257193"><ele>409.0</ele><time>2026-03-29T09:47:02.265Z</time></trkpt><trkpt lat="40.2815072" lon="15.0258583"><ele>409.0</ele><time>2026-03-29T09:47:03.245Z</time></trkpt><trkpt lat="40.2814725" lon="15.0259892"><ele>409.0</ele><time>2026-03-29T09:47:04.239Z</time></trkpt><trkpt lat="40.2814241" lon="15.0261167"><ele>407.79999999999995</ele><time>2026-03-29T09:47:05.227Z</time></trkpt><trkpt lat="40.2813568" lon="15.0262435"><ele>406.59999999999997</ele><time>2026-03-29T09:47:06.235Z</time></trkpt><trkpt lat="40.2812893" lon="15.0263481"><ele>405.4</ele><time>2026-03-29T09:47:07.216Z</time></trkpt><trkpt lat="40.2812038" lon="15.026441"><ele>404.2</ele><time>2026-03-29T09:47:08.268Z</time></trkpt><trkpt lat="40.281109" lon="15.0265139"><ele>403.0</ele><time>2026-03-29T09:47:09.255Z</time></trkpt><trkpt lat="40.2809995" lon="15.0265781"><ele>403.0</ele><time>2026-03-29T09:47:10.219Z</time></trkpt><trkpt lat="40.2808762" lon="15.0266372"><ele>403.0</ele><time>2026-03-29T09:47:11.227Z</time></trkpt><trkpt lat="40.2807368" lon="15.026698"><ele>403.0</ele><time>2026-03-29T09:47:12.237Z</time></trkpt><trkpt lat="40.2805927" lon="15.0267595"><ele>403.0</ele><time>2026-03-29T09:47:13.341Z</time></trkpt><trkpt lat="40.2804904" lon="15.0268011"><ele>406.0</ele><time>2026-03-29T09:47:14.255Z</time></trkpt><trkpt lat="40.2803922" lon="15.026834"><ele>409.0</ele><time>2026-03-29T09:47:15.232Z</time></trkpt><trkpt lat="40.2803064" lon="15.0268807"><ele>412.0</ele><time>2026-03-29T09:47:16.25Z</time></trkpt><trkpt lat="40.2802342" lon="15.0269507"><ele>415.0</ele><time>2026-03-29T09:47:17.222Z</time></trkpt><trkpt lat="40.280155" lon="15.0270552"><ele>418.0</ele><time>2026-03-29T09:47:18.223Z</time></trkpt><trkpt lat="40.2800703" lon="15.0271818"><ele>418.0</ele><time>2026-03-29T09:47:19.236Z</time></trkpt><trkpt lat="40.2799968" lon="15.027309"><ele>418.0</ele><time>2026-03-29T09:47:20.236Z</time></trkpt><trkpt lat="40.2799145" lon="15.0274279"><ele>418.0</ele><time>2026-03-29T09:47:21.278Z</time></trkpt><trkpt lat="40.2798249" lon="15.0275213"><ele>418.0</ele><time>2026-03-29T09:47:22.217Z</time></trkpt><trkpt lat="40.2797107" lon="15.027631"><ele>418.4</ele><time>2026-03-29T09:47:23.264Z</time></trkpt><trkpt lat="40.2796114" lon="15.0277269"><ele>418.79999999999995</ele><time>2026-03-29T09:47:24.231Z</time></trkpt><trkpt lat="40.2795214" lon="15.0278149"><ele>419.2</ele><time>2026-03-29T09:47:25.236Z</time></trkpt><trkpt lat="40.2794436" lon="15.0278975"><ele>419.6</ele><time>2026-03-29T09:47:26.221Z</time></trkpt><trkpt lat="40.2793709" lon="15.0279818"><ele>420.0</ele><time>2026-03-29T09:47:27.238Z</time></trkpt><trkpt lat="40.2793122" lon="15.0280666"><ele>420.0</ele><time>2026-03-29T09:47:28.251Z</time></trkpt><trkpt lat="40.2792687" lon="15.0281661"><ele>420.0</ele><time>2026-03-29T09:47:29.231Z</time></trkpt><trkpt lat="40.2792296" lon="15.0282909"><ele>420.0</ele><time>2026-03-29T09:47:30.329Z</time></trkpt><trkpt lat="40.2791989" lon="15.0284077"><ele>420.0</ele><time>2026-03-29T09:47:31.238Z</time></trkpt><trkpt lat="40.2791607" lon="15.0285435"><ele>420.0</ele><time>2026-03-29T09:47:32.251Z</time></trkpt><trkpt lat="40.2791179" lon="15.0286789"><ele>419.75</ele><time>2026-03-29T09:47:33.239Z</time></trkpt><trkpt lat="40.2790696" lon="15.0288165"><ele>419.5</ele><time>2026-03-29T09:47:34.221Z</time></trkpt><trkpt lat="40.2790161" lon="15.0289536"><ele>419.25</ele><time>2026-03-29T09:47:35.229Z</time></trkpt><trkpt lat="40.2789643" lon="15.0290901"><ele>419.0</ele><time>2026-03-29T09:47:36.235Z</time></trkpt><trkpt lat="40.2789129" lon="15.0292346"><ele>419.0</ele><time>2026-03-29T09:47:37.251Z</time></trkpt><trkpt lat="40.2788622" lon="15.0293808"><ele>419.0</ele><time>2026-03-29T09:47:38.246Z</time></trkpt><trkpt lat="40.27881" lon="15.0295167"><ele>419.0</ele><time>2026-03-29T09:47:39.233Z</time></trkpt><trkpt lat="40.2787639" lon="15.0296415"><ele>419.0</ele><time>2026-03-29T09:47:40.22Z</time></trkpt><trkpt lat="40.2787175" lon="15.0297588"><ele>419.0</ele><time>2026-03-29T09:47:41.24Z</time></trkpt><trkpt lat="40.2786601" lon="15.0298594"><ele>419.0</ele><time>2026-03-29T09:47:42.226Z</time></trkpt><trkpt lat="40.2785845" lon="15.0299502"><ele>419.0</ele><time>2026-03-29T09:47:43.221Z</time></trkpt><trkpt lat="40.2785101" lon="15.0300469"><ele>419.0</ele><time>2026-03-29T09:47:44.215Z</time></trkpt><trkpt lat="40.2784465" lon="15.0301623"><ele>419.0</ele><time>2026-03-29T09:47:45.229Z</time></trkpt><trkpt lat="40.2783914" lon="15.0302823"><ele>419.0</ele><time>2026-03-29T09:47:46.22Z</time></trkpt><trkpt lat="40.2783483" lon="15.0304082"><ele>421.2</ele><time>2026-03-29T09:47:47.231Z</time></trkpt><trkpt lat="40.2782991" lon="15.0305246"><ele>423.4</ele><time>2026-03-29T09:47:48.216Z</time></trkpt><trkpt lat="40.2782317" lon="15.0306324"><ele>425.6</ele><time>2026-03-29T09:47:49.226Z</time></trkpt><trkpt lat="40.2781489" lon="15.0307421"><ele>427.8</ele><time>2026-03-29T09:47:50.295Z</time></trkpt><trkpt lat="40.2780845" lon="15.0308455"><ele>430.0</ele><time>2026-03-29T09:47:51.205Z</time></trkpt><trkpt lat="40.2780218" lon="15.0309605"><ele>430.00000000000006</ele><time>2026-03-29T09:47:52.244Z</time></trkpt><trkpt lat="40.2779695" lon="15.0310556"><ele>430.0</ele><time>2026-03-29T09:47:53.223Z</time></trkpt><trkpt lat="40.2779304" lon="15.0311458"><ele>430.0</ele><time>2026-03-29T09:47:54.207Z</time></trkpt><trkpt lat="40.2779061" lon="15.031247"><ele>430.0</ele><time>2026-03-29T09:47:55.221Z</time></trkpt><trkpt lat="40.2778957" lon="15.0313659"><ele>430.00000000000006</ele><time>2026-03-29T09:47:56.23Z</time></trkpt><trkpt lat="40.2779009" lon="15.0315004"><ele>430.0</ele><time>2026-03-29T09:47:57.228Z</time></trkpt><trkpt lat="40.2779107" lon="15.0316382"><ele>433.8</ele><time>2026-03-29T09:47:58.229Z</time></trkpt><trkpt lat="40.2779222" lon="15.0317576"><ele>437.6</ele><time>2026-03-29T09:47:59.213Z</time></trkpt><trkpt lat="40.2779237" lon="15.0318552"><ele>441.4</ele><time>2026-03-29T09:48:00.207Z</time></trkpt><trkpt lat="40.2778671" lon="15.0319794"><ele>445.2</ele><time>2026-03-29T09:48:02.229Z</time></trkpt><trkpt lat="40.2777626" lon="15.0320337"><ele>449.0</ele><time>2026-03-29T09:48:04.243Z</time></trkpt><trkpt lat="40.277698" lon="15.0320367"><ele>449.0</ele><time>2026-03-29T09:48:05.232Z</time></trkpt><trkpt lat="40.2776175" lon="15.0320301"><ele>448.99999999999994</ele><time>2026-03-29T09:48:06.327Z</time></trkpt><trkpt lat="40.2775454" lon="15.0320268"><ele>449.0</ele><time>2026-03-29T09:48:07.235Z</time></trkpt><trkpt lat="40.2774672" lon="15.0320343"><ele>449.0</ele><time>2026-03-29T09:48:08.21Z</time></trkpt><trkpt lat="40.2773975" lon="15.0320734"><ele>448.99999999999994</ele><time>2026-03-29T09:48:09.247Z</time></trkpt><trkpt lat="40.2773503" lon="15.0321284"><ele>449.0</ele><time>2026-03-29T09:48:10.214Z</time></trkpt><trkpt lat="40.2773164" lon="15.0322"><ele>449.0</ele><time>2026-03-29T09:48:11.243Z</time></trkpt><trkpt lat="40.277298" lon="15.0322808"><ele>449.0</ele><time>2026-03-29T09:48:12.222Z</time></trkpt><trkpt lat="40.2772895" lon="15.0323828"><ele>449.0</ele><time>2026-03-29T09:48:13.206Z</time></trkpt><trkpt lat="40.2772834" lon="15.0325138"><ele>449.0</ele><time>2026-03-29T09:48:14.339Z</time></trkpt><trkpt lat="40.2772691" lon="15.0326197"><ele>449.0</ele><time>2026-03-29T09:48:15.244Z</time></trkpt><trkpt lat="40.2772365" lon="15.032733"><ele>449.0</ele><time>2026-03-29T09:48:16.217Z</time></trkpt><trkpt lat="40.2771975" lon="15.0328545"><ele>450.0</ele><time>2026-03-29T09:48:17.214Z</time></trkpt><trkpt lat="40.2771525" lon="15.0329758"><ele>451.0</ele><time>2026-03-29T09:48:18.219Z</time></trkpt><trkpt lat="40.2770992" lon="15.0330849"><ele>452.0</ele><time>2026-03-29T09:48:19.213Z</time></trkpt><trkpt lat="40.2770453" lon="15.0331871"><ele>453.0</ele><time>2026-03-29T09:48:20.211Z</time></trkpt><trkpt lat="40.2769866" lon="15.0332742"><ele>454.0</ele><time>2026-03-29T09:48:21.212Z</time></trkpt><trkpt lat="40.2769121" lon="15.0333535"><ele>458.6</ele><time>2026-03-29T09:48:22.214Z</time></trkpt><trkpt lat="40.2768233" lon="15.033439"><ele>463.2</ele><time>2026-03-29T09:48:23.298Z</time></trkpt><trkpt lat="40.2767477" lon="15.0335162"><ele>467.80000000000007</ele><time>2026-03-29T09:48:24.222Z</time></trkpt><trkpt lat="40.2766673" lon="15.0335982"><ele>472.40000000000003</ele><time>2026-03-29T09:48:25.21Z</time></trkpt><trkpt lat="40.276597" lon="15.0336761"><ele>477.0</ele><time>2026-03-29T09:48:26.169Z</time></trkpt><trkpt lat="40.2765351" lon="15.0337394"><ele>477.0</ele><time>2026-03-29T09:48:27.173Z</time></trkpt><trkpt lat="40.2764481" lon="15.0338053"><ele>477.00000000000006</ele><time>2026-03-29T09:48:29.173Z</time></trkpt><trkpt lat="40.2763857" lon="15.0338315"><ele>477.00000000000006</ele><time>2026-03-29T09:48:31.189Z</time></trkpt><trkpt lat="40.2763157" lon="15.0338698"><ele>477.0</ele><time>2026-03-29T09:48:33.183Z</time></trkpt><trkpt lat="40.2762295" lon="15.0339081"><ele>477.0</ele><time>2026-03-29T09:48:35.17Z</time></trkpt><trkpt lat="40.2761121" lon="15.0339387"><ele>476.8333333333333</ele><time>2026-03-29T09:48:37.218Z</time></trkpt><trkpt lat="40.2759904" lon="15.0339465"><ele>476.66666666666663</ele><time>2026-03-29T09:48:39.224Z</time></trkpt><trkpt lat="40.2758928" lon="15.0339722"><ele>476.5</ele><time>2026-03-29T09:48:41.223Z</time></trkpt><trkpt lat="40.275842" lon="15.0340371"><ele>476.3333333333333</ele><time>2026-03-29T09:48:43.226Z</time></trkpt><trkpt lat="40.2758469" lon="15.0341201"><ele>476.16666666666663</ele><time>2026-03-29T09:48:45.244Z</time></trkpt><trkpt lat="40.2759058" lon="15.0341667"><ele>476.0</ele><time>2026-03-29T09:48:49.238Z</time></trkpt><trkpt lat="40.2759904" lon="15.0341824"><ele>478.99999999999994</ele><time>2026-03-29T09:48:52.263Z</time></trkpt><trkpt lat="40.2761134" lon="15.034209"><ele>482.0</ele><time>2026-03-29T09:48:55.24Z</time></trkpt><trkpt lat="40.2761944" lon="15.0342481"><ele>485.0</ele><time>2026-03-29T09:48:57.214Z</time></trkpt><trkpt lat="40.2762392" lon="15.0343208"><ele>488.0</ele><time>2026-03-29T09:48:59.228Z</time></trkpt><trkpt lat="40.2762096" lon="15.0344078"><ele>490.99999999999994</ele><time>2026-03-29T09:49:02.217Z</time></trkpt><trkpt lat="40.2761291" lon="15.0344259"><ele>494.0</ele><time>2026-03-29T09:49:06.202Z</time></trkpt><trkpt lat="40.2760272" lon="15.0344544"><ele>493.99999999999994</ele><time>2026-03-29T09:49:08.18Z</time></trkpt><trkpt lat="40.2759671" lon="15.0344826"><ele>494.0</ele><time>2026-03-29T09:49:09.199Z</time></trkpt><trkpt lat="40.2759024" lon="15.0345138"><ele>494.0</ele><time>2026-03-29T09:49:10.237Z</time></trkpt><trkpt lat="40.2758364" lon="15.0345426"><ele>494.0</ele><time>2026-03-29T09:49:11.311Z</time></trkpt><trkpt lat="40.2757141" lon="15.0345912"><ele>493.99999999999994</ele><time>2026-03-29T09:49:13.243Z</time></trkpt><trkpt lat="40.275651" lon="15.0346109"><ele>494.0</ele><time>2026-03-29T09:49:14.224Z</time></trkpt><trkpt lat="40.2755867" lon="15.0346049"><ele>495.8333333333333</ele><time>2026-03-29T09:49:16.249Z</time></trkpt><trkpt lat="40.275528" lon="15.0345565"><ele>497.66666666666663</ele><time>2026-03-29T09:49:18.238Z</time></trkpt><trkpt lat="40.2754866" lon="15.034479"><ele>499.5</ele><time>2026-03-29T09:49:20.249Z</time></trkpt><trkpt lat="40.2754395" lon="15.0344024"><ele>501.33333333333337</ele><time>2026-03-29T09:49:22.224Z</time></trkpt><trkpt lat="40.2753786" lon="15.0343289"><ele>503.1666666666667</ele><time>2026-03-29T09:49:24.232Z</time></trkpt><trkpt lat="40.2753056" lon="15.0343005"><ele>505.0</ele><time>2026-03-29T09:49:26.25Z</time></trkpt><trkpt lat="40.2752293" lon="15.0343135"><ele>505.0</ele><time>2026-03-29T09:49:28.222Z</time></trkpt><trkpt lat="40.2751491" lon="15.0343577"><ele>505.0</ele><time>2026-03-29T09:49:30.258Z</time></trkpt><trkpt lat="40.2750715" lon="15.0344324"><ele>505.0</ele><time>2026-03-29T09:49:32.247Z</time></trkpt><trkpt lat="40.2749954" lon="15.0345339"><ele>505.0</ele><time>2026-03-29T09:49:34.249Z</time></trkpt><trkpt lat="40.2749134" lon="15.0346423"><ele>505.0</ele><time>2026-03-29T09:49:36.231Z</time></trkpt><trkpt lat="40.2748289" lon="15.034707"><ele>503.0</ele><time>2026-03-29T09:49:38.237Z</time></trkpt><trkpt lat="40.2747665" lon="15.0347412"><ele>501.0</ele><time>2026-03-29T09:49:40.238Z</time></trkpt><trkpt lat="40.2746698" lon="15.0347868"><ele>499.0</ele><time>2026-03-29T09:49:42.223Z</time></trkpt><trkpt lat="40.2746073" lon="15.0348202"><ele>497.0</ele><time>2026-03-29T09:49:43.222Z</time></trkpt><trkpt lat="40.2745015" lon="15.034888"><ele>495.0</ele><time>2026-03-29T09:49:45.215Z</time></trkpt><trkpt lat="40.2743869" lon="15.0349652"><ele>499.8</ele><time>2026-03-29T09:49:47.221Z</time></trkpt><trkpt lat="40.2742627" lon="15.0350305"><ele>504.6</ele><time>2026-03-29T09:49:49.23Z</time></trkpt><trkpt lat="40.2741809" lon="15.0350864"><ele>509.4</ele><time>2026-03-29T09:49:51.202Z</time></trkpt><trkpt lat="40.2741178" lon="15.0351883"><ele>514.2</ele><time>2026-03-29T09:49:53.232Z</time></trkpt><trkpt lat="40.2740529" lon="15.0352949"><ele>519.0</ele><time>2026-03-29T09:49:55.231Z</time></trkpt><trkpt lat="40.2739866" lon="15.0353857"><ele>518.0</ele><time>2026-03-29T09:49:57.235Z</time></trkpt><trkpt lat="40.2739267" lon="15.0354476"><ele>517.0</ele><time>2026-03-29T09:50:01.246Z</time></trkpt><trkpt lat="40.2738695" lon="15.0355272"><ele>516.0</ele><time>2026-03-29T09:50:05.243Z</time></trkpt><trkpt lat="40.2738089" lon="15.0356142"><ele>515.0</ele><time>2026-03-29T09:50:07.236Z</time></trkpt><trkpt lat="40.2737549" lon="15.0356756"><ele>514.0</ele><time>2026-03-29T09:50:09.244Z</time></trkpt><trkpt lat="40.2736814" lon="15.0357201"><ele>513.0</ele><time>2026-03-29T09:50:11.262Z</time></trkpt><trkpt lat="40.2736042" lon="15.0357412"><ele>513.0</ele><time>2026-03-29T09:50:13.239Z</time></trkpt><trkpt lat="40.2735208" lon="15.0357489"><ele>513.0</ele><time>2026-03-29T09:50:15.228Z</time></trkpt><trkpt lat="40.2734439" lon="15.0357666"><ele>513.0</ele><time>2026-03-29T09:50:17.219Z</time></trkpt><trkpt lat="40.2733493" lon="15.0358345"><ele>513.0</ele><time>2026-03-29T09:50:19.227Z</time></trkpt><trkpt lat="40.2732664" lon="15.0359382"><ele>513.0</ele><time>2026-03-29T09:50:21.238Z</time></trkpt><trkpt lat="40.2731921" lon="15.0360207"><ele>514.6</ele><time>2026-03-29T09:50:23.227Z</time></trkpt><trkpt lat="40.2730977" lon="15.0361087"><ele>516.1999999999999</ele><time>2026-03-29T09:50:25.234Z</time></trkpt><trkpt lat="40.2730372" lon="15.0362104"><ele>517.8</ele><time>2026-03-29T09:50:27.308Z</time></trkpt><trkpt lat="40.2730065" lon="15.0363267"><ele>519.4</ele><time>2026-03-29T09:50:29.253Z</time></trkpt><trkpt lat="40.2730142" lon="15.0364282"><ele>521.0</ele><time>2026-03-29T09:50:31.236Z</time></trkpt><trkpt lat="40.2730724" lon="15.0364618"><ele>522.4</ele><time>2026-03-29T09:50:33.257Z</time></trkpt><trkpt lat="40.2731498" lon="15.0364481"><ele>523.8</ele><time>2026-03-29T09:50:35.226Z</time></trkpt><trkpt lat="40.2732406" lon="15.0364178"><ele>525.1999999999999</ele><time>2026-03-29T09:50:37.224Z</time></trkpt><trkpt lat="40.2733634" lon="15.0363913"><ele>526.6</ele><time>2026-03-29T09:50:39.24Z</time></trkpt><trkpt lat="40.2734287" lon="15.0363864"><ele>528.0</ele><time>2026-03-29T09:50:40.242Z</time></trkpt><trkpt lat="40.2735535" lon="15.036398"><ele>528.0</ele><time>2026-03-29T09:50:42.231Z</time></trkpt><trkpt lat="40.2736578" lon="15.0364523"><ele>528.0</ele><time>2026-03-29T09:50:44.239Z</time></trkpt><trkpt lat="40.2737106" lon="15.0365381"><ele>528.0</ele><time>2026-03-29T09:50:46.25Z</time></trkpt><trkpt lat="40.2737365" lon="15.0366623"><ele>528.0</ele><time>2026-03-29T09:50:48.315Z</time></trkpt><trkpt lat="40.2737591" lon="15.0367566"><ele>528.0</ele><time>2026-03-29T09:50:50.258Z</time></trkpt><trkpt lat="40.2738307" lon="15.0368124"><ele>528.8</ele><time>2026-03-29T09:50:53.263Z</time></trkpt><trkpt lat="40.2739166" lon="15.0368135"><ele>529.5999999999999</ele><time>2026-03-29T09:50:55.243Z</time></trkpt><trkpt lat="40.2739964" lon="15.0367698"><ele>530.4000000000001</ele><time>2026-03-29T09:50:57.247Z</time></trkpt><trkpt lat="40.2740799" lon="15.0366803"><ele>531.2</ele><time>2026-03-29T09:50:59.352Z</time></trkpt><trkpt lat="40.2741535" lon="15.0365927"><ele>532.0</ele><time>2026-03-29T09:51:01.248Z</time></trkpt><trkpt lat="40.2742361" lon="15.0365304"><ele>532.0</ele><time>2026-03-29T09:51:03.242Z</time></trkpt><trkpt lat="40.274316" lon="15.0365462"><ele>532.0</ele><time>2026-03-29T09:51:05.221Z</time></trkpt><trkpt lat="40.2743505" lon="15.0366251"><ele>532.0</ele><time>2026-03-29T09:51:07.258Z</time></trkpt><trkpt lat="40.2742988" lon="15.0367306"><ele>532.0</ele><time>2026-03-29T09:51:10.228Z</time></trkpt><trkpt lat="40.2742403" lon="15.0368191"><ele>532.0</ele><time>2026-03-29T09:51:12.225Z</time></trkpt><trkpt lat="40.2741622" lon="15.0369435"><ele>534.3333333333334</ele><time>2026-03-29T09:51:14.244Z</time></trkpt><trkpt lat="40.2740535" lon="15.0370343"><ele>536.6666666666667</ele><time>2026-03-29T09:51:17.216Z</time></trkpt><trkpt lat="40.2739894" lon="15.0370971"><ele>539.0</ele><time>2026-03-29T09:51:29.23Z</time></trkpt><trkpt lat="40.2739809" lon="15.0372092"><ele>541.3333333333334</ele><time>2026-03-29T09:51:32.234Z</time></trkpt><trkpt lat="40.2740389" lon="15.0372492"><ele>543.6666666666666</ele><time>2026-03-29T09:51:34.242Z</time></trkpt><trkpt lat="40.2741153" lon="15.0372576"><ele>546.0</ele><time>2026-03-29T09:51:36.233Z</time></trkpt><trkpt lat="40.2742185" lon="15.0372677"><ele>546.0</ele><time>2026-03-29T09:51:38.23Z</time></trkpt><trkpt lat="40.2743406" lon="15.0372833"><ele>546.0</ele><time>2026-03-29T09:51:40.231Z</time></trkpt><trkpt lat="40.2744606" lon="15.0372707"><ele>546.0</ele><time>2026-03-29T09:51:42.24Z</time></trkpt><trkpt lat="40.2745229" lon="15.0372493"><ele>546.0</ele><time>2026-03-29T09:51:43.235Z</time></trkpt><trkpt lat="40.274637" lon="15.0372077"><ele>546.0</ele><time>2026-03-29T09:51:45.341Z</time></trkpt><trkpt lat="40.2747123" lon="15.0371759"><ele>546.0</ele><time>2026-03-29T09:51:47.208Z</time></trkpt><trkpt lat="40.2747932" lon="15.0371937"><ele>546.0</ele><time>2026-03-29T09:51:50.271Z</time></trkpt><trkpt lat="40.2747981" lon="15.0373012"><ele>546.0</ele><time>2026-03-29T09:51:54.232Z</time></trkpt><trkpt lat="40.2747467" lon="15.0373587"><ele>546.0</ele><time>2026-03-29T09:51:57.251Z</time></trkpt><trkpt lat="40.2746678" lon="15.0374365"><ele>546.0</ele><time>2026-03-29T09:52:00.224Z</time></trkpt><trkpt lat="40.2746057" lon="15.037504"><ele>546.0</ele><time>2026-03-29T09:52:02.272Z</time></trkpt><trkpt lat="40.274551" lon="15.0375747"><ele>548.3333333333334</ele><time>2026-03-29T09:52:04.249Z</time></trkpt><trkpt lat="40.2744927" lon="15.0376518"><ele>550.6666666666666</ele><time>2026-03-29T09:52:06.243Z</time></trkpt><trkpt lat="40.274446" lon="15.0377085"><ele>553.0</ele><time>2026-03-29T09:52:08.234Z</time></trkpt><trkpt lat="40.2743746" lon="15.0377857"><ele>555.3333333333333</ele><time>2026-03-29T09:52:10.246Z</time></trkpt><trkpt lat="40.2742841" lon="15.0378683"><ele>557.6666666666666</ele><time>2026-03-29T09:52:12.242Z</time></trkpt><trkpt lat="40.2742023" lon="15.037942"><ele>560.0</ele><time>2026-03-29T09:52:14.238Z</time></trkpt><trkpt lat="40.2741396" lon="15.0380082"><ele>560.0</ele><time>2026-03-29T09:52:19.23Z</time></trkpt><trkpt lat="40.2740776" lon="15.0380681"><ele>560.0</ele><time>2026-03-29T09:52:21.229Z</time></trkpt><trkpt lat="40.2739935" lon="15.0381474"><ele>560.0</ele><time>2026-03-29T09:52:23.233Z</time></trkpt><trkpt lat="40.2739038" lon="15.0382452"><ele>560.0</ele><time>2026-03-29T09:52:25.262Z</time></trkpt><trkpt lat="40.2738368" lon="15.0383443"><ele>560.0</ele><time>2026-03-29T09:52:27.226Z</time></trkpt><trkpt lat="40.273775" lon="15.0384643"><ele>561.2</ele><time>2026-03-29T09:52:29.26Z</time></trkpt><trkpt lat="40.2737031" lon="15.0386054"><ele>562.4</ele><time>2026-03-29T09:52:31.232Z</time></trkpt><trkpt lat="40.2736664" lon="15.0386791"><ele>563.6</ele><time>2026-03-29T09:52:32.236Z</time></trkpt><trkpt lat="40.2736134" lon="15.0388086"><ele>564.8</ele><time>2026-03-29T09:52:34.233Z</time></trkpt><trkpt lat="40.2735934" lon="15.0389222"><ele>566.0</ele><time>2026-03-29T09:52:36.265Z</time></trkpt><trkpt lat="40.2736065" lon="15.0390253"><ele>566.0</ele><time>2026-03-29T09:52:38.35Z</time></trkpt><trkpt lat="40.2736596" lon="15.0390931"><ele>566.0</ele><time>2026-03-29T09:52:41.248Z</time></trkpt><trkpt lat="40.2737241" lon="15.0391053"><ele>566.0</ele><time>2026-03-29T09:52:43.276Z</time></trkpt><trkpt lat="40.2738033" lon="15.0390947"><ele>566.0</ele><time>2026-03-29T09:52:45.228Z</time></trkpt><trkpt lat="40.273881" lon="15.0390708"><ele>566.0</ele><time>2026-03-29T09:52:47.251Z</time></trkpt><trkpt lat="40.2739859" lon="15.0390473"><ele>566.0</ele><time>2026-03-29T09:52:49.229Z</time></trkpt><trkpt lat="40.2740519" lon="15.0390374"><ele>567.1666666666666</ele><time>2026-03-29T09:52:50.266Z</time></trkpt><trkpt lat="40.2741155" lon="15.0390364"><ele>568.3333333333333</ele><time>2026-03-29T09:52:51.231Z</time></trkpt><trkpt lat="40.2741837" lon="15.0390372"><ele>569.5</ele><time>2026-03-29T09:52:52.239Z</time></trkpt><trkpt lat="40.2742589" lon="15.0390391"><ele>570.6666666666666</ele><time>2026-03-29T09:52:53.232Z</time></trkpt><trkpt lat="40.2743396" lon="15.0390447"><ele>571.8333333333334</ele><time>2026-03-29T09:52:54.353Z</time></trkpt><trkpt lat="40.2744574" lon="15.0390382"><ele>573.0</ele><time>2026-03-29T09:52:56.227Z</time></trkpt><trkpt lat="40.274577" lon="15.0390252"><ele>573.0</ele><time>2026-03-29T09:52:58.233Z</time></trkpt><trkpt lat="40.2747014" lon="15.0390159"><ele>573.0</ele><time>2026-03-29T09:53:00.37Z</time></trkpt><trkpt lat="40.2747829" lon="15.0390357"><ele>573.0</ele><time>2026-03-29T09:53:02.241Z</time></trkpt><trkpt lat="40.2748454" lon="15.0391011"><ele>573.0</ele><time>2026-03-29T09:53:05.252Z</time></trkpt><trkpt lat="40.2748814" lon="15.0391694"><ele>573.0</ele><time>2026-03-29T09:53:07.254Z</time></trkpt><trkpt lat="40.2748785" lon="15.0392584"><ele>573.0</ele><time>2026-03-29T09:53:16.224Z</time></trkpt><trkpt lat="40.2748093" lon="15.0393"><ele>576.75</ele><time>2026-03-29T09:53:18.258Z</time></trkpt><trkpt lat="40.2746697" lon="15.0393816"><ele>580.5</ele><time>2026-03-29T09:53:20.271Z</time></trkpt><trkpt lat="40.2745555" lon="15.0394528"><ele>584.25</ele><time>2026-03-29T09:53:21.308Z</time></trkpt><trkpt lat="40.2744406" lon="15.0395263"><ele>588.0</ele><time>2026-03-29T09:53:22.225Z</time></trkpt><trkpt lat="40.2743356" lon="15.0395998"><ele>588.0</ele><time>2026-03-29T09:53:23.258Z</time></trkpt><trkpt lat="40.2742452" lon="15.0396687"><ele>588.0</ele><time>2026-03-29T09:53:24.222Z</time></trkpt><trkpt lat="40.2741688" lon="15.039747"><ele>588.0</ele><time>2026-03-29T09:53:25.228Z</time></trkpt><trkpt lat="40.2740978" lon="15.0398413"><ele>588.0</ele><time>2026-03-29T09:53:26.229Z</time></trkpt><trkpt lat="40.274051" lon="15.0399356"><ele>588.0</ele><time>2026-03-29T09:53:27.246Z</time></trkpt><trkpt lat="40.2740098" lon="15.040038"><ele>588.6666666666666</ele><time>2026-03-29T09:53:28.227Z</time></trkpt><trkpt lat="40.2739775" lon="15.0401542"><ele>589.3333333333334</ele><time>2026-03-29T09:53:29.252Z</time></trkpt><trkpt lat="40.2739701" lon="15.0402718"><ele>590.0</ele><time>2026-03-29T09:53:30.256Z</time></trkpt><trkpt lat="40.2739803" lon="15.0403779"><ele>590.6666666666667</ele><time>2026-03-29T09:53:31.23Z</time></trkpt><trkpt lat="40.2739884" lon="15.040471"><ele>591.3333333333334</ele><time>2026-03-29T09:53:32.218Z</time></trkpt><trkpt lat="40.2739722" lon="15.040573"><ele>592.0</ele><time>2026-03-29T09:53:33.347Z</time></trkpt><trkpt lat="40.2738893" lon="15.0407071"><ele>592.0</ele><time>2026-03-29T09:53:35.208Z</time></trkpt><trkpt lat="40.2738233" lon="15.0407662"><ele>592.0</ele><time>2026-03-29T09:53:36.247Z</time></trkpt><trkpt lat="40.2737542" lon="15.0408168"><ele>592.0</ele><time>2026-03-29T09:53:37.219Z</time></trkpt><trkpt lat="40.2736856" lon="15.0408689"><ele>592.0</ele><time>2026-03-29T09:53:38.209Z</time></trkpt><trkpt lat="40.2736126" lon="15.0409236"><ele>592.0</ele><time>2026-03-29T09:53:39.236Z</time></trkpt><trkpt lat="40.2735444" lon="15.0409754"><ele>592.0</ele><time>2026-03-29T09:53:40.211Z</time></trkpt><trkpt lat="40.2734788" lon="15.0410182"><ele>592.8333333333334</ele><time>2026-03-29T09:53:41.228Z</time></trkpt><trkpt lat="40.2734195" lon="15.0410534"><ele>593.6666666666667</ele><time>2026-03-29T09:53:42.213Z</time></trkpt><trkpt lat="40.2733562" lon="15.0410815"><ele>594.5</ele><time>2026-03-29T09:53:43.231Z</time></trkpt><trkpt lat="40.2732931" lon="15.0411026"><ele>595.3333333333334</ele><time>2026-03-29T09:53:44.229Z</time></trkpt><trkpt lat="40.2731815" lon="15.0411277"><ele>596.1666666666666</ele><time>2026-03-29T09:53:46.251Z</time></trkpt><trkpt lat="40.2730624" lon="15.0411482"><ele>597.0</ele><time>2026-03-29T09:53:48.227Z</time></trkpt><trkpt lat="40.2729817" lon="15.0411597"><ele>597.0</ele><time>2026-03-29T09:53:49.226Z</time></trkpt><trkpt lat="40.2729109" lon="15.0411728"><ele>597.0</ele><time>2026-03-29T09:53:50.24Z</time></trkpt><trkpt lat="40.2727815" lon="15.0412026"><ele>597.0</ele><time>2026-03-29T09:53:52.25Z</time></trkpt><trkpt lat="40.2726747" lon="15.0412173"><ele>597.0</ele><time>2026-03-29T09:53:54.265Z</time></trkpt><trkpt lat="40.2727516" lon="15.0412524"><ele>597.0</ele><time>2026-03-29T09:54:02.258Z</time></trkpt><trkpt lat="40.2728346" lon="15.0412249"><ele>597.0</ele><time>2026-03-29T09:54:04.245Z</time></trkpt><trkpt lat="40.2729551" lon="15.0411901"><ele>597.0</ele><time>2026-03-29T09:54:06.234Z</time></trkpt><trkpt lat="40.2730446" lon="15.041167"><ele>597.0</ele><time>2026-03-29T09:54:07.233Z</time></trkpt><trkpt lat="40.2731674" lon="15.0411362"><ele>597.0</ele><time>2026-03-29T09:54:08.232Z</time></trkpt><trkpt lat="40.2732872" lon="15.0411024"><ele>597.8333333333334</ele><time>2026-03-29T09:54:09.261Z</time></trkpt><trkpt lat="40.2733788" lon="15.0410723"><ele>598.6666666666666</ele><time>2026-03-29T09:54:10.237Z</time></trkpt><trkpt lat="40.273441" lon="15.0410542"><ele>599.5</ele><time>2026-03-29T09:54:11.217Z</time></trkpt><trkpt lat="40.2735192" lon="15.0410762"><ele>600.3333333333333</ele><time>2026-03-29T09:54:13.215Z</time></trkpt><trkpt lat="40.2735681" lon="15.0411724"><ele>601.1666666666666</ele><time>2026-03-29T09:54:15.226Z</time></trkpt><trkpt lat="40.2736049" lon="15.0412982"><ele>602.0</ele><time>2026-03-29T09:54:17.241Z</time></trkpt><trkpt lat="40.2736814" lon="15.0413323"><ele>602.0</ele><time>2026-03-29T09:54:19.201Z</time></trkpt><trkpt lat="40.2738015" lon="15.0412844"><ele>602.0</ele><time>2026-03-29T09:54:21.233Z</time></trkpt><trkpt lat="40.2738712" lon="15.0412327"><ele>602.0</ele><time>2026-03-29T09:54:22.342Z</time></trkpt><trkpt lat="40.2739252" lon="15.0411768"><ele>602.0</ele><time>2026-03-29T09:54:23.326Z</time></trkpt><trkpt lat="40.273975" lon="15.0411143"><ele>602.0</ele><time>2026-03-29T09:54:24.276Z</time></trkpt><trkpt lat="40.2740803" lon="15.0410543"><ele>604.0</ele><time>2026-03-29T09:54:26.239Z</time></trkpt><trkpt lat="40.2741782" lon="15.0410906"><ele>606.0</ele><time>2026-03-29T09:54:28.246Z</time></trkpt><trkpt lat="40.2742369" lon="15.0412265"><ele>608.0</ele><time>2026-03-29T09:54:30.232Z</time></trkpt><trkpt lat="40.2742615" lon="15.0413275"><ele>610.0</ele><time>2026-03-29T09:54:31.371Z</time></trkpt><trkpt lat="40.274311" lon="15.0414387"><ele>612.0</ele><time>2026-03-29T09:54:33.227Z</time></trkpt><trkpt lat="40.2743877" lon="15.0414474"><ele>612.0</ele><time>2026-03-29T09:54:35.21Z</time></trkpt><trkpt lat="40.2744759" lon="15.0413942"><ele>612.0</ele><time>2026-03-29T09:54:37.208Z</time></trkpt><trkpt lat="40.2745355" lon="15.0413475"><ele>612.0</ele><time>2026-03-29T09:54:38.232Z</time></trkpt><trkpt lat="40.2746005" lon="15.0412934"><ele>612.0</ele><time>2026-03-29T09:54:39.219Z</time></trkpt><trkpt lat="40.274671" lon="15.0412404"><ele>612.0</ele><time>2026-03-29T09:54:40.231Z</time></trkpt><trkpt lat="40.2747481" lon="15.0411828"><ele>612.0</ele><time>2026-03-29T09:54:41.222Z</time></trkpt><trkpt lat="40.2748355" lon="15.0411171"><ele>615.25</ele><time>2026-03-29T09:54:42.303Z</time></trkpt><trkpt lat="40.2749133" lon="15.0410583"><ele>618.5</ele><time>2026-03-29T09:54:43.236Z</time></trkpt><trkpt lat="40.2749945" lon="15.041001"><ele>621.75</ele><time>2026-03-29T09:54:44.218Z</time></trkpt><trkpt lat="40.2750938" lon="15.0409306"><ele>625.0</ele><time>2026-03-29T09:54:45.3Z</time></trkpt><trkpt lat="40.2752887" lon="15.0408179"><ele>626.0</ele><time>2026-03-29T09:54:47.245Z</time></trkpt><trkpt lat="40.2754012" lon="15.0407814"><ele>627.0</ele><time>2026-03-29T09:54:48.231Z</time></trkpt><trkpt lat="40.2755253" lon="15.0407478"><ele>628.0</ele><time>2026-03-29T09:54:49.244Z</time></trkpt><trkpt lat="40.2756388" lon="15.0407207"><ele>629.0</ele><time>2026-03-29T09:54:50.239Z</time></trkpt><trkpt lat="40.2757422" lon="15.0407011"><ele>629.0</ele><time>2026-03-29T09:54:51.25Z</time></trkpt><trkpt lat="40.2758484" lon="15.0406845"><ele>629.0</ele><time>2026-03-29T09:54:52.22Z</time></trkpt><trkpt lat="40.2759555" lon="15.040667"><ele>629.0</ele><time>2026-03-29T09:54:53.256Z</time></trkpt><trkpt lat="40.2760564" lon="15.0406393"><ele>629.0</ele><time>2026-03-29T09:54:54.232Z</time></trkpt><trkpt lat="40.2761659" lon="15.040604"><ele>629.0</ele><time>2026-03-29T09:54:55.228Z</time></trkpt><trkpt lat="40.2762744" lon="15.0405584"><ele>629.0</ele><time>2026-03-29T09:54:56.249Z</time></trkpt><trkpt lat="40.2763788" lon="15.040539"><ele>629.0</ele><time>2026-03-29T09:54:57.235Z</time></trkpt><trkpt lat="40.2764798" lon="15.0405448"><ele>629.0</ele><time>2026-03-29T09:54:58.25Z</time></trkpt><trkpt lat="40.2765602" lon="15.040571"><ele>629.0</ele><time>2026-03-29T09:54:59.228Z</time></trkpt><trkpt lat="40.2766553" lon="15.0406026"><ele>629.0</ele><time>2026-03-29T09:55:00.242Z</time></trkpt><trkpt lat="40.2767487" lon="15.040627"><ele>632.0</ele><time>2026-03-29T09:55:01.228Z</time></trkpt><trkpt lat="40.2768593" lon="15.0406368"><ele>635.0</ele><time>2026-03-29T09:55:02.387Z</time></trkpt><trkpt lat="40.2769838" lon="15.0405937"><ele>638.0</ele><time>2026-03-29T09:55:04.229Z</time></trkpt><trkpt lat="40.2770514" lon="15.0405368"><ele>641.0</ele><time>2026-03-29T09:55:05.237Z</time></trkpt><trkpt lat="40.2771099" lon="15.0404567"><ele>644.0</ele><time>2026-03-29T09:55:06.242Z</time></trkpt><trkpt lat="40.2771938" lon="15.0403676"><ele>645.2</ele><time>2026-03-29T09:55:07.243Z</time></trkpt><trkpt lat="40.2772728" lon="15.0402868"><ele>646.4000000000001</ele><time>2026-03-29T09:55:08.252Z</time></trkpt><trkpt lat="40.277365" lon="15.0402241"><ele>647.6</ele><time>2026-03-29T09:55:09.246Z</time></trkpt><trkpt lat="40.2774731" lon="15.0401675"><ele>648.8</ele><time>2026-03-29T09:55:10.234Z</time></trkpt><trkpt lat="40.2775932" lon="15.0401116"><ele>650.0</ele><time>2026-03-29T09:55:11.233Z</time></trkpt><trkpt lat="40.2777126" lon="15.0400626"><ele>650.0</ele><time>2026-03-29T09:55:12.225Z</time></trkpt><trkpt lat="40.2778321" lon="15.0400196"><ele>650.0</ele><time>2026-03-29T09:55:13.209Z</time></trkpt><trkpt lat="40.2779591" lon="15.0399842"><ele>650.0</ele><time>2026-03-29T09:55:14.335Z</time></trkpt><trkpt lat="40.2780557" lon="15.0399652"><ele>650.0</ele><time>2026-03-29T09:55:15.237Z</time></trkpt><trkpt lat="40.2781683" lon="15.0399513"><ele>646.75</ele><time>2026-03-29T09:55:16.243Z</time></trkpt><trkpt lat="40.2782834" lon="15.0399459"><ele>643.5</ele><time>2026-03-29T09:55:17.226Z</time></trkpt><trkpt lat="40.2784049" lon="15.0399474"><ele>640.25</ele><time>2026-03-29T09:55:18.235Z</time></trkpt><trkpt lat="40.278527" lon="15.039945"><ele>637.0</ele><time>2026-03-29T09:55:19.22Z</time></trkpt><trkpt lat="40.278649" lon="15.0399315"><ele>637.0</ele><time>2026-03-29T09:55:20.219Z</time></trkpt><trkpt lat="40.2787659" lon="15.0399075"><ele>637.0</ele><time>2026-03-29T09:55:21.226Z</time></trkpt><trkpt lat="40.2788956" lon="15.0398726"><ele>637.0</ele><time>2026-03-29T09:55:22.336Z</time></trkpt><trkpt lat="40.2790023" lon="15.0398249"><ele>637.0</ele><time>2026-03-29T09:55:23.249Z</time></trkpt><trkpt lat="40.2791215" lon="15.0397532"><ele>638.25</ele><time>2026-03-29T09:55:24.259Z</time></trkpt><trkpt lat="40.2792324" lon="15.0396673"><ele>639.5</ele><time>2026-03-29T09:55:25.218Z</time></trkpt><trkpt lat="40.279347" lon="15.0395575"><ele>640.75</ele><time>2026-03-29T09:55:26.21Z</time></trkpt><trkpt lat="40.2794646" lon="15.0394379"><ele>642.0</ele><time>2026-03-29T09:55:27.222Z</time></trkpt><trkpt lat="40.2795706" lon="15.0393245"><ele>642.0</ele><time>2026-03-29T09:55:28.218Z</time></trkpt><trkpt lat="40.2796823" lon="15.0392157"><ele>642.0</ele><time>2026-03-29T09:55:29.218Z</time></trkpt><trkpt lat="40.2797781" lon="15.039108"><ele>642.0</ele><time>2026-03-29T09:55:30.248Z</time></trkpt><trkpt lat="40.2798657" lon="15.0390177"><ele>642.0</ele><time>2026-03-29T09:55:31.217Z</time></trkpt><trkpt lat="40.2799601" lon="15.0389428"><ele>642.5</ele><time>2026-03-29T09:55:32.213Z</time></trkpt><trkpt lat="40.2800602" lon="15.0388868"><ele>643.0</ele><time>2026-03-29T09:55:33.232Z</time></trkpt><trkpt lat="40.2801638" lon="15.0388335"><ele>643.5</ele><time>2026-03-29T09:55:34.241Z</time></trkpt><trkpt lat="40.2802725" lon="15.0388003"><ele>644.0</ele><time>2026-03-29T09:55:35.229Z</time></trkpt><trkpt lat="40.2803921" lon="15.0387874"><ele>644.0</ele><time>2026-03-29T09:55:36.23Z</time></trkpt><trkpt lat="40.280514" lon="15.03879"><ele>644.0</ele><time>2026-03-29T09:55:37.225Z</time></trkpt><trkpt lat="40.2806457" lon="15.0388032"><ele>644.0</ele><time>2026-03-29T09:55:38.313Z</time></trkpt><trkpt lat="40.2807586" lon="15.038816"><ele>644.0</ele><time>2026-03-29T09:55:39.218Z</time></trkpt><trkpt lat="40.2808809" lon="15.0388179"><ele>645.75</ele><time>2026-03-29T09:55:40.229Z</time></trkpt><trkpt lat="40.2809889" lon="15.0388216"><ele>647.5</ele><time>2026-03-29T09:55:41.233Z</time></trkpt><trkpt lat="40.2810941" lon="15.0388338"><ele>649.25</ele><time>2026-03-29T09:55:42.241Z</time></trkpt><trkpt lat="40.2812089" lon="15.0388583"><ele>651.0</ele><time>2026-03-29T09:55:43.231Z</time></trkpt><trkpt lat="40.2813358" lon="15.0388935"><ele>650.0</ele><time>2026-03-29T09:55:44.238Z</time></trkpt><trkpt lat="40.2814683" lon="15.0389321"><ele>649.0</ele><time>2026-03-29T09:55:45.23Z</time></trkpt><trkpt lat="40.2816053" lon="15.038972"><ele>648.0</ele><time>2026-03-29T09:55:46.253Z</time></trkpt><trkpt lat="40.2817359" lon="15.039015"><ele>647.0</ele><time>2026-03-29T09:55:47.238Z</time></trkpt><trkpt lat="40.2818693" lon="15.0390652"><ele>647.0</ele><time>2026-03-29T09:55:48.224Z</time></trkpt><trkpt lat="40.2820064" lon="15.0391147"><ele>647.0</ele><time>2026-03-29T09:55:49.233Z</time></trkpt><trkpt lat="40.2821492" lon="15.03915"><ele>647.0</ele><time>2026-03-29T09:55:50.257Z</time></trkpt><trkpt lat="40.2822887" lon="15.0391675"><ele>647.0</ele><time>2026-03-29T09:55:51.225Z</time></trkpt><trkpt lat="40.282439" lon="15.0391796"><ele>648.25</ele><time>2026-03-29T09:55:52.225Z</time></trkpt><trkpt lat="40.2825814" lon="15.039192"><ele>649.5</ele><time>2026-03-29T09:55:53.218Z</time></trkpt><trkpt lat="40.2827205" lon="15.0392111"><ele>650.75</ele><time>2026-03-29T09:55:54.247Z</time></trkpt><trkpt lat="40.2828472" lon="15.0392367"><ele>652.0</ele><time>2026-03-29T09:55:55.227Z</time></trkpt><trkpt lat="40.2829855" lon="15.0392725"><ele>652.0</ele><time>2026-03-29T09:55:56.386Z</time></trkpt><trkpt lat="40.2830924" lon="15.0393144"><ele>652.0</ele><time>2026-03-29T09:55:57.358Z</time></trkpt><trkpt lat="40.2833035" lon="15.039459"><ele>652.0</ele><time>2026-03-29T09:55:59.251Z</time></trkpt><trkpt lat="40.2834099" lon="15.0395472"><ele>650.75</ele><time>2026-03-29T09:56:00.227Z</time></trkpt><trkpt lat="40.2835074" lon="15.0396362"><ele>649.5</ele><time>2026-03-29T09:56:01.239Z</time></trkpt><trkpt lat="40.2836007" lon="15.0397126"><ele>648.25</ele><time>2026-03-29T09:56:02.242Z</time></trkpt><trkpt lat="40.2837015" lon="15.0397743"><ele>647.0</ele><time>2026-03-29T09:56:03.229Z</time></trkpt><trkpt lat="40.2838139" lon="15.0398351"><ele>647.0</ele><time>2026-03-29T09:56:04.237Z</time></trkpt><trkpt lat="40.2839351" lon="15.0398907"><ele>647.0</ele><time>2026-03-29T09:56:05.243Z</time></trkpt><trkpt lat="40.2840608" lon="15.0399321"><ele>647.0</ele><time>2026-03-29T09:56:06.236Z</time></trkpt><trkpt lat="40.2842012" lon="15.0399549"><ele>647.0</ele><time>2026-03-29T09:56:07.26Z</time></trkpt><trkpt lat="40.2843492" lon="15.0399718"><ele>647.0</ele><time>2026-03-29T09:56:08.258Z</time></trkpt><trkpt lat="40.2845002" lon="15.0400033"><ele>647.0</ele><time>2026-03-29T09:56:09.232Z</time></trkpt><trkpt lat="40.2846629" lon="15.0400496"><ele>647.0</ele><time>2026-03-29T09:56:10.249Z</time></trkpt><trkpt lat="40.2848294" lon="15.0401065"><ele>648.0</ele><time>2026-03-29T09:56:11.251Z</time></trkpt><trkpt lat="40.2849981" lon="15.0401696"><ele>649.0</ele><time>2026-03-29T09:56:12.224Z</time></trkpt><trkpt lat="40.2852108" lon="15.0402537"><ele>650.0</ele><time>2026-03-29T09:56:13.377Z</time></trkpt><trkpt lat="40.2855422" lon="15.0404077"><ele>649.6666666666666</ele><time>2026-03-29T09:56:15.271Z</time></trkpt><trkpt lat="40.2857009" lon="15.0405041"><ele>649.3333333333334</ele><time>2026-03-29T09:56:16.245Z</time></trkpt><trkpt lat="40.2858534" lon="15.040608"><ele>649.0</ele><time>2026-03-29T09:56:17.259Z</time></trkpt><trkpt lat="40.2859853" lon="15.0407039"><ele>649.0</ele><time>2026-03-29T09:56:18.24Z</time></trkpt><trkpt lat="40.2861221" lon="15.0407938"><ele>649.0</ele><time>2026-03-29T09:56:19.242Z</time></trkpt><trkpt lat="40.2862615" lon="15.0408702"><ele>649.0</ele><time>2026-03-29T09:56:20.253Z</time></trkpt><trkpt lat="40.2864116" lon="15.0409312"><ele>651.25</ele><time>2026-03-29T09:56:21.274Z</time></trkpt><trkpt lat="40.2865555" lon="15.0409741"><ele>653.5</ele><time>2026-03-29T09:56:22.237Z</time></trkpt><trkpt lat="40.2867048" lon="15.0409965"><ele>655.75</ele><time>2026-03-29T09:56:23.248Z</time></trkpt><trkpt lat="40.2868441" lon="15.0409988"><ele>658.0</ele><time>2026-03-29T09:56:24.233Z</time></trkpt><trkpt lat="40.2869928" lon="15.0409905"><ele>658.0</ele><time>2026-03-29T09:56:25.259Z</time></trkpt><trkpt lat="40.2871382" lon="15.0409808"><ele>658.0</ele><time>2026-03-29T09:56:26.257Z</time></trkpt><trkpt lat="40.2872917" lon="15.0409651"><ele>658.0</ele><time>2026-03-29T09:56:27.26Z</time></trkpt><trkpt lat="40.2874327" lon="15.0409406"><ele>658.0</ele><time>2026-03-29T09:56:28.242Z</time></trkpt><trkpt lat="40.2875933" lon="15.0409008"><ele>659.3333333333334</ele><time>2026-03-29T09:56:29.463Z</time></trkpt><trkpt lat="40.2878054" lon="15.0408757"><ele>660.6666666666666</ele><time>2026-03-29T09:56:31.339Z</time></trkpt><trkpt lat="40.2879119" lon="15.0409058"><ele>662.0</ele><time>2026-03-29T09:56:32.307Z</time></trkpt><trkpt lat="40.2880307" lon="15.0409691"><ele>661.25</ele><time>2026-03-29T09:56:33.298Z</time></trkpt><trkpt lat="40.2881521" lon="15.0410361"><ele>660.5</ele><time>2026-03-29T09:56:34.289Z</time></trkpt><trkpt lat="40.2882899" lon="15.0410955"><ele>659.75</ele><time>2026-03-29T09:56:35.295Z</time></trkpt><trkpt lat="40.288443" lon="15.0411507"><ele>659.0</ele><time>2026-03-29T09:56:36.312Z</time></trkpt><trkpt lat="40.2885835" lon="15.0411964"><ele>659.0</ele><time>2026-03-29T09:56:37.291Z</time></trkpt><trkpt lat="40.2887248" lon="15.0412408"><ele>659.0</ele><time>2026-03-29T09:56:38.318Z</time></trkpt><trkpt lat="40.2888453" lon="15.0412842"><ele>659.0</ele><time>2026-03-29T09:56:39.281Z</time></trkpt><trkpt lat="40.2889693" lon="15.0413568"><ele>659.0</ele><time>2026-03-29T09:56:40.293Z</time></trkpt><trkpt lat="40.289078" lon="15.041457"><ele>659.5</ele><time>2026-03-29T09:56:41.283Z</time></trkpt><trkpt lat="40.289181" lon="15.0415817"><ele>660.0</ele><time>2026-03-29T09:56:42.306Z</time></trkpt><trkpt lat="40.2892823" lon="15.0416978"><ele>660.5</ele><time>2026-03-29T09:56:43.324Z</time></trkpt><trkpt lat="40.2893886" lon="15.0417847"><ele>661.0</ele><time>2026-03-29T09:56:44.272Z</time></trkpt><trkpt lat="40.2895168" lon="15.0418669"><ele>661.0</ele><time>2026-03-29T09:56:45.351Z</time></trkpt><trkpt lat="40.2896169" lon="15.041938"><ele>661.0</ele><time>2026-03-29T09:56:46.287Z</time></trkpt><trkpt lat="40.2897089" lon="15.04203"><ele>661.0</ele><time>2026-03-29T09:56:47.295Z</time></trkpt><trkpt lat="40.2897896" lon="15.0421454"><ele>661.0</ele><time>2026-03-29T09:56:48.295Z</time></trkpt><trkpt lat="40.289869" lon="15.0422749"><ele>659.5</ele><time>2026-03-29T09:56:49.283Z</time></trkpt><trkpt lat="40.2899441" lon="15.0424016"><ele>658.0</ele><time>2026-03-29T09:56:50.287Z</time></trkpt><trkpt lat="40.2900105" lon="15.0425268"><ele>656.5</ele><time>2026-03-29T09:56:51.284Z</time></trkpt><trkpt lat="40.2900579" lon="15.0426614"><ele>655.0</ele><time>2026-03-29T09:56:52.297Z</time></trkpt><trkpt lat="40.290091" lon="15.0428029"><ele>655.0</ele><time>2026-03-29T09:56:53.29Z</time></trkpt><trkpt lat="40.2901228" lon="15.0429497"><ele>655.0</ele><time>2026-03-29T09:56:54.302Z</time></trkpt><trkpt lat="40.2901613" lon="15.0430859"><ele>655.0</ele><time>2026-03-29T09:56:55.326Z</time></trkpt><trkpt lat="40.2902134" lon="15.0432033"><ele>655.0</ele><time>2026-03-29T09:56:56.293Z</time></trkpt><trkpt lat="40.2902931" lon="15.0433256"><ele>653.75</ele><time>2026-03-29T09:56:57.328Z</time></trkpt><trkpt lat="40.29038" lon="15.0434394"><ele>652.5</ele><time>2026-03-29T09:56:58.288Z</time></trkpt><trkpt lat="40.2904714" lon="15.0435604"><ele>651.25</ele><time>2026-03-29T09:56:59.312Z</time></trkpt><trkpt lat="40.2905537" lon="15.0436706"><ele>650.0</ele><time>2026-03-29T09:57:00.291Z</time></trkpt><trkpt lat="40.2906371" lon="15.0437853"><ele>650.0</ele><time>2026-03-29T09:57:01.3Z</time></trkpt><trkpt lat="40.2907191" lon="15.0439061"><ele>650.0</ele><time>2026-03-29T09:57:02.308Z</time></trkpt><trkpt lat="40.2907936" lon="15.0440247"><ele>650.0</ele><time>2026-03-29T09:57:03.299Z</time></trkpt><trkpt lat="40.2908701" lon="15.0441351"><ele>650.0</ele><time>2026-03-29T09:57:04.296Z</time></trkpt><trkpt lat="40.290957" lon="15.0442335"><ele>650.25</ele><time>2026-03-29T09:57:05.311Z</time></trkpt><trkpt lat="40.2910542" lon="15.0443245"><ele>650.5</ele><time>2026-03-29T09:57:06.304Z</time></trkpt><trkpt lat="40.2911589" lon="15.0444111"><ele>650.75</ele><time>2026-03-29T09:57:07.301Z</time></trkpt><trkpt lat="40.291261" lon="15.0444882"><ele>651.0</ele><time>2026-03-29T09:57:08.292Z</time></trkpt><trkpt lat="40.2913616" lon="15.0445614"><ele>650.0</ele><time>2026-03-29T09:57:09.293Z</time></trkpt><trkpt lat="40.291454" lon="15.0446334"><ele>649.0</ele><time>2026-03-29T09:57:10.31Z</time></trkpt><trkpt lat="40.2915302" lon="15.0447178"><ele>648.0</ele><time>2026-03-29T09:57:11.287Z</time></trkpt><trkpt lat="40.2915975" lon="15.0448278"><ele>647.0</ele><time>2026-03-29T09:57:12.336Z</time></trkpt><trkpt lat="40.2916401" lon="15.044935"><ele>646.0</ele><time>2026-03-29T09:57:13.286Z</time></trkpt><trkpt lat="40.291675" lon="15.0450596"><ele>646.0</ele><time>2026-03-29T09:57:14.285Z</time></trkpt><trkpt lat="40.2917131" lon="15.0451973"><ele>646.0</ele><time>2026-03-29T09:57:15.298Z</time></trkpt><trkpt lat="40.291744" lon="15.04534"><ele>646.0</ele><time>2026-03-29T09:57:16.268Z</time></trkpt><trkpt lat="40.2917716" lon="15.0454923"><ele>646.0</ele><time>2026-03-29T09:57:17.314Z</time></trkpt><trkpt lat="40.2917942" lon="15.0456391"><ele>646.0</ele><time>2026-03-29T09:57:18.296Z</time></trkpt><trkpt lat="40.2918168" lon="15.045806"><ele>646.0</ele><time>2026-03-29T09:57:19.289Z</time></trkpt><trkpt lat="40.2918332" lon="15.0459848"><ele>646.0</ele><time>2026-03-29T09:57:20.294Z</time></trkpt><trkpt lat="40.2918399" lon="15.0461669"><ele>646.0</ele><time>2026-03-29T09:57:21.279Z</time></trkpt><trkpt lat="40.2918425" lon="15.0463508"><ele>646.0</ele><time>2026-03-29T09:57:22.299Z</time></trkpt><trkpt lat="40.2918515" lon="15.0465247"><ele>646.0</ele><time>2026-03-29T09:57:23.293Z</time></trkpt><trkpt lat="40.2918695" lon="15.0466956"><ele>646.0</ele><time>2026-03-29T09:57:24.294Z</time></trkpt><trkpt lat="40.2918941" lon="15.0468551"><ele>646.0</ele><time>2026-03-29T09:57:25.314Z</time></trkpt><trkpt lat="40.2919265" lon="15.0469985"><ele>647.25</ele><time>2026-03-29T09:57:26.301Z</time></trkpt><trkpt lat="40.291975" lon="15.0471389"><ele>648.5</ele><time>2026-03-29T09:57:27.291Z</time></trkpt><trkpt lat="40.2920412" lon="15.0472832"><ele>649.75</ele><time>2026-03-29T09:57:28.271Z</time></trkpt><trkpt lat="40.2921244" lon="15.0474378"><ele>651.0</ele><time>2026-03-29T09:57:29.306Z</time></trkpt><trkpt lat="40.2922095" lon="15.0475927"><ele>644.0</ele><time>2026-03-29T09:57:30.303Z</time></trkpt><trkpt lat="40.2922943" lon="15.0477667"><ele>637.0</ele><time>2026-03-29T09:57:31.326Z</time></trkpt><trkpt lat="40.2923726" lon="15.0479466"><ele>630.0</ele><time>2026-03-29T09:57:32.315Z</time></trkpt><trkpt lat="40.2924517" lon="15.0481413"><ele>633.6666666666666</ele><time>2026-03-29T09:57:33.328Z</time></trkpt><trkpt lat="40.2925304" lon="15.0483436"><ele>637.3333333333333</ele><time>2026-03-29T09:57:34.332Z</time></trkpt><trkpt lat="40.29261" lon="15.0485483"><ele>641.0</ele><time>2026-03-29T09:57:35.316Z</time></trkpt><trkpt lat="40.2926932" lon="15.0487613"><ele>641.0</ele><time>2026-03-29T09:57:36.348Z</time></trkpt><trkpt lat="40.2927715" lon="15.0489674"><ele>641.0</ele><time>2026-03-29T09:57:37.426Z</time></trkpt><trkpt lat="40.2928932" lon="15.0492981"><ele>643.0</ele><time>2026-03-29T09:57:39.299Z</time></trkpt><trkpt lat="40.2929518" lon="15.0494614"><ele>645.0</ele><time>2026-03-29T09:57:40.312Z</time></trkpt><trkpt lat="40.2930084" lon="15.0496184"><ele>647.0</ele><time>2026-03-29T09:57:41.365Z</time></trkpt><trkpt lat="40.2930579" lon="15.0497526"><ele>649.0</ele><time>2026-03-29T09:57:42.354Z</time></trkpt><trkpt lat="40.2931125" lon="15.0498829"><ele>646.0</ele><time>2026-03-29T09:57:43.341Z</time></trkpt><trkpt lat="40.2931733" lon="15.049999"><ele>643.0</ele><time>2026-03-29T09:57:44.307Z</time></trkpt><trkpt lat="40.2932463" lon="15.0501099"><ele>640.0</ele><time>2026-03-29T09:57:45.338Z</time></trkpt><trkpt lat="40.2933236" lon="15.0502162"><ele>637.0</ele><time>2026-03-29T09:57:46.343Z</time></trkpt><trkpt lat="40.2933902" lon="15.0503311"><ele>634.0</ele><time>2026-03-29T09:57:47.337Z</time></trkpt><trkpt lat="40.2934544" lon="15.0504716"><ele>634.0</ele><time>2026-03-29T09:57:48.327Z</time></trkpt><trkpt lat="40.2935216" lon="15.0506261"><ele>634.0</ele><time>2026-03-29T09:57:49.303Z</time></trkpt><trkpt lat="40.2935944" lon="15.0508047"><ele>634.0</ele><time>2026-03-29T09:57:50.301Z</time></trkpt><trkpt lat="40.293663" lon="15.0509819"><ele>634.0</ele><time>2026-03-29T09:57:51.304Z</time></trkpt><trkpt lat="40.2937314" lon="15.0511489"><ele>633.25</ele><time>2026-03-29T09:57:52.317Z</time></trkpt><trkpt lat="40.2938094" lon="15.0513135"><ele>632.5</ele><time>2026-03-29T09:57:53.358Z</time></trkpt><trkpt lat="40.2938952" lon="15.0514607"><ele>631.75</ele><time>2026-03-29T09:57:54.323Z</time></trkpt><trkpt lat="40.2939966" lon="15.0516"><ele>631.0</ele><time>2026-03-29T09:57:55.327Z</time></trkpt><trkpt lat="40.2940972" lon="15.0517254"><ele>630.5</ele><time>2026-03-29T09:57:56.312Z</time></trkpt><trkpt lat="40.294192" lon="15.0518626"><ele>630.0</ele><time>2026-03-29T09:57:57.336Z</time></trkpt><trkpt lat="40.2942766" lon="15.052002"><ele>629.5</ele><time>2026-03-29T09:57:58.327Z</time></trkpt><trkpt lat="40.2943561" lon="15.0521506"><ele>629.0</ele><time>2026-03-29T09:57:59.329Z</time></trkpt><trkpt lat="40.2944324" lon="15.0523197"><ele>625.6666666666666</ele><time>2026-03-29T09:58:00.329Z</time></trkpt><trkpt lat="40.2945046" lon="15.0524942"><ele>622.3333333333334</ele><time>2026-03-29T09:58:01.318Z</time></trkpt><trkpt lat="40.2945731" lon="15.0526795"><ele>619.0</ele><time>2026-03-29T09:58:02.376Z</time></trkpt><trkpt lat="40.2946297" lon="15.0528691"><ele>619.0</ele><time>2026-03-29T09:58:03.341Z</time></trkpt><trkpt lat="40.2946858" lon="15.0530807"><ele>619.0</ele><time>2026-03-29T09:58:04.332Z</time></trkpt><trkpt lat="40.2947461" lon="15.0533016"><ele>619.0</ele><time>2026-03-29T09:58:05.308Z</time></trkpt><trkpt lat="40.2948069" lon="15.0535313"><ele>620.75</ele><time>2026-03-29T09:58:06.366Z</time></trkpt><trkpt lat="40.294862" lon="15.0537189"><ele>622.5</ele><time>2026-03-29T09:58:07.38Z</time></trkpt><trkpt lat="40.2949233" lon="15.0538785"><ele>624.25</ele><time>2026-03-29T09:58:08.329Z</time></trkpt><trkpt lat="40.2949923" lon="15.0540276"><ele>626.0</ele><time>2026-03-29T09:58:09.342Z</time></trkpt><trkpt lat="40.2950587" lon="15.0541598"><ele>627.75</ele><time>2026-03-29T09:58:10.319Z</time></trkpt><trkpt lat="40.2951267" lon="15.0543028"><ele>629.5</ele><time>2026-03-29T09:58:11.341Z</time></trkpt><trkpt lat="40.2951862" lon="15.0544422"><ele>631.25</ele><time>2026-03-29T09:58:12.317Z</time></trkpt><trkpt lat="40.295238" lon="15.05459"><ele>633.0</ele><time>2026-03-29T09:58:13.304Z</time></trkpt><trkpt lat="40.2952925" lon="15.054748"><ele>633.0</ele><time>2026-03-29T09:58:14.319Z</time></trkpt><trkpt lat="40.2953429" lon="15.0549141"><ele>633.0</ele><time>2026-03-29T09:58:15.342Z</time></trkpt><trkpt lat="40.2953877" lon="15.0550719"><ele>633.0</ele><time>2026-03-29T09:58:16.337Z</time></trkpt><trkpt lat="40.2954273" lon="15.055221"><ele>633.0</ele><time>2026-03-29T09:58:17.342Z</time></trkpt><trkpt lat="40.2954593" lon="15.0553653"><ele>630.4</ele><time>2026-03-29T09:58:18.361Z</time></trkpt><trkpt lat="40.2954853" lon="15.0554971"><ele>627.8</ele><time>2026-03-29T09:58:19.317Z</time></trkpt><trkpt lat="40.2954996" lon="15.0556234"><ele>625.2</ele><time>2026-03-29T09:58:20.322Z</time></trkpt><trkpt lat="40.2955015" lon="15.0557407"><ele>622.6</ele><time>2026-03-29T09:58:21.334Z</time></trkpt><trkpt lat="40.2954872" lon="15.055853"><ele>620.0</ele><time>2026-03-29T09:58:22.322Z</time></trkpt><trkpt lat="40.2954621" lon="15.0559734"><ele>617.6</ele><time>2026-03-29T09:58:23.333Z</time></trkpt><trkpt lat="40.2954254" lon="15.0560907"><ele>615.2</ele><time>2026-03-29T09:58:24.299Z</time></trkpt><trkpt lat="40.2953696" lon="15.0562098"><ele>612.8</ele><time>2026-03-29T09:58:25.316Z</time></trkpt><trkpt lat="40.2953046" lon="15.0563262"><ele>610.4</ele><time>2026-03-29T09:58:26.299Z</time></trkpt><trkpt lat="40.2952422" lon="15.0564415"><ele>608.0</ele><time>2026-03-29T09:58:27.307Z</time></trkpt><trkpt lat="40.2951907" lon="15.0565424"><ele>609.5</ele><time>2026-03-29T09:58:28.302Z</time></trkpt><trkpt lat="40.2951454" lon="15.0566307"><ele>611.0</ele><time>2026-03-29T09:58:29.236Z</time></trkpt><trkpt lat="40.2951024" lon="15.0567131"><ele>612.5</ele><time>2026-03-29T09:58:30.215Z</time></trkpt><trkpt lat="40.2950636" lon="15.056791"><ele>614.0</ele><time>2026-03-29T09:58:31.211Z</time></trkpt><trkpt lat="40.2950293" lon="15.056861"><ele>615.5</ele><time>2026-03-29T09:58:32.225Z</time></trkpt><trkpt lat="40.2949867" lon="15.0569682"><ele>617.0</ele><time>2026-03-29T09:58:34.26Z</time></trkpt><trkpt lat="40.2949677" lon="15.0570812"><ele>617.0</ele><time>2026-03-29T09:58:36.23Z</time></trkpt><trkpt lat="40.2949412" lon="15.0572314"><ele>617.0</ele><time>2026-03-29T09:58:38.213Z</time></trkpt><trkpt lat="40.2949309" lon="15.0573455"><ele>617.0</ele><time>2026-03-29T09:58:40.221Z</time></trkpt><trkpt lat="40.2949298" lon="15.0574694"><ele>617.0</ele><time>2026-03-29T09:58:42.223Z</time></trkpt><trkpt lat="40.2949522" lon="15.0575652"><ele>617.0</ele><time>2026-03-29T09:58:44.224Z</time></trkpt><trkpt lat="40.295027" lon="15.0576505"><ele>617.8333333333333</ele><time>2026-03-29T09:58:47.225Z</time></trkpt><trkpt lat="40.2950992" lon="15.0576817"><ele>618.6666666666666</ele><time>2026-03-29T09:58:49.234Z</time></trkpt><trkpt lat="40.2951635" lon="15.0576913"><ele>619.5</ele><time>2026-03-29T09:58:51.223Z</time></trkpt><trkpt lat="40.2952738" lon="15.0576575"><ele>620.3333333333334</ele><time>2026-03-29T09:58:54.216Z</time></trkpt><trkpt lat="40.2953501" lon="15.0576185"><ele>621.1666666666667</ele><time>2026-03-29T09:58:56.249Z</time></trkpt><trkpt lat="40.2954463" lon="15.0575666"><ele>622.0</ele><time>2026-03-29T09:58:58.275Z</time></trkpt><trkpt lat="40.295561" lon="15.0575008"><ele>621.2</ele><time>2026-03-29T09:59:00.222Z</time></trkpt><trkpt lat="40.2956568" lon="15.0574685"><ele>620.4000000000001</ele><time>2026-03-29T09:59:02.228Z</time></trkpt><trkpt lat="40.2957689" lon="15.0574408"><ele>619.5999999999999</ele><time>2026-03-29T09:59:04.218Z</time></trkpt><trkpt lat="40.2958558" lon="15.0574211"><ele>618.8</ele><time>2026-03-29T09:59:05.26Z</time></trkpt><trkpt lat="40.2959323" lon="15.0574012"><ele>618.0</ele><time>2026-03-29T09:59:06.243Z</time></trkpt><trkpt lat="40.2960065" lon="15.0573847"><ele>617.3333333333334</ele><time>2026-03-29T09:59:07.237Z</time></trkpt><trkpt lat="40.2960851" lon="15.0573775"><ele>616.6666666666666</ele><time>2026-03-29T09:59:08.276Z</time></trkpt><trkpt lat="40.2961539" lon="15.0573733"><ele>616.0</ele><time>2026-03-29T09:59:09.238Z</time></trkpt><trkpt lat="40.2962188" lon="15.0573727"><ele>615.3333333333333</ele><time>2026-03-29T09:59:10.251Z</time></trkpt><trkpt lat="40.2963213" lon="15.0573797"><ele>614.6666666666666</ele><time>2026-03-29T09:59:12.265Z</time></trkpt><trkpt lat="40.2964158" lon="15.0573412"><ele>614.0</ele><time>2026-03-29T09:59:14.258Z</time></trkpt><trkpt lat="40.2964802" lon="15.05718"><ele>614.0</ele><time>2026-03-29T09:59:16.264Z</time></trkpt><trkpt lat="40.2964998" lon="15.0570724"><ele>614.0</ele><time>2026-03-29T09:59:17.249Z</time></trkpt><trkpt lat="40.2965167" lon="15.0569529"><ele>614.0</ele><time>2026-03-29T09:59:18.249Z</time></trkpt><trkpt lat="40.2965443" lon="15.0568045"><ele>614.0</ele><time>2026-03-29T09:59:19.244Z</time></trkpt><trkpt lat="40.2965706" lon="15.0566652"><ele>614.0</ele><time>2026-03-29T09:59:20.236Z</time></trkpt><trkpt lat="40.2965966" lon="15.0565248"><ele>614.0</ele><time>2026-03-29T09:59:21.242Z</time></trkpt><trkpt lat="40.2966164" lon="15.0563998"><ele>614.0</ele><time>2026-03-29T09:59:22.232Z</time></trkpt><trkpt lat="40.2966285" lon="15.0562864"><ele>614.0</ele><time>2026-03-29T09:59:23.244Z</time></trkpt><trkpt lat="40.2966469" lon="15.0561956"><ele>614.0</ele><time>2026-03-29T09:59:24.269Z</time></trkpt><trkpt lat="40.2967033" lon="15.056099"><ele>614.0</ele><time>2026-03-29T09:59:26.255Z</time></trkpt><trkpt lat="40.296794" lon="15.0560806"><ele>614.0</ele><time>2026-03-29T09:59:28.225Z</time></trkpt><trkpt lat="40.2969083" lon="15.0562296"><ele>614.0</ele><time>2026-03-29T09:59:30.232Z</time></trkpt><trkpt lat="40.296983" lon="15.0563505"><ele>614.0</ele><time>2026-03-29T09:59:31.234Z</time></trkpt><trkpt lat="40.2970659" lon="15.0565058"><ele>614.0</ele><time>2026-03-29T09:59:32.232Z</time></trkpt><trkpt lat="40.2971676" lon="15.0566969"><ele>614.0</ele><time>2026-03-29T09:59:33.246Z</time></trkpt><trkpt lat="40.2972629" lon="15.0568724"><ele>606.6666666666666</ele><time>2026-03-29T09:59:34.237Z</time></trkpt><trkpt lat="40.2973592" lon="15.0570388"><ele>599.3333333333334</ele><time>2026-03-29T09:59:35.265Z</time></trkpt><trkpt lat="40.2974456" lon="15.0571817"><ele>592.0</ele><time>2026-03-29T09:59:36.239Z</time></trkpt><trkpt lat="40.297541" lon="15.0573363"><ele>594.0</ele><time>2026-03-29T09:59:37.367Z</time></trkpt><trkpt lat="40.297689" lon="15.0575728"><ele>596.0</ele><time>2026-03-29T09:59:39.343Z</time></trkpt><trkpt lat="40.2977382" lon="15.0576871"><ele>598.0</ele><time>2026-03-29T09:59:40.369Z</time></trkpt><trkpt lat="40.2977623" lon="15.0577828"><ele>600.0</ele><time>2026-03-29T09:59:41.284Z</time></trkpt><trkpt lat="40.2977531" lon="15.0578865"><ele>600.0</ele><time>2026-03-29T09:59:42.274Z</time></trkpt><trkpt lat="40.297717" lon="15.0579864"><ele>600.0</ele><time>2026-03-29T09:59:43.311Z</time></trkpt><trkpt lat="40.2976604" lon="15.0580606"><ele>600.0</ele><time>2026-03-29T09:59:44.308Z</time></trkpt><trkpt lat="40.2975839" lon="15.0581103"><ele>600.0</ele><time>2026-03-29T09:59:45.312Z</time></trkpt><trkpt lat="40.2974912" lon="15.058126"><ele>600.0</ele><time>2026-03-29T09:59:46.312Z</time></trkpt><trkpt lat="40.2973948" lon="15.0581217"><ele>600.0</ele><time>2026-03-29T09:59:47.26Z</time></trkpt><trkpt lat="40.2972871" lon="15.0581068"><ele>602.5</ele><time>2026-03-29T09:59:48.238Z</time></trkpt><trkpt lat="40.2971649" lon="15.0580853"><ele>605.0</ele><time>2026-03-29T09:59:49.247Z</time></trkpt><trkpt lat="40.2970385" lon="15.0580863"><ele>607.5</ele><time>2026-03-29T09:59:50.232Z</time></trkpt><trkpt lat="40.2969059" lon="15.0580926"><ele>610.0</ele><time>2026-03-29T09:59:51.233Z</time></trkpt><trkpt lat="40.2967597" lon="15.0580986"><ele>610.0</ele><time>2026-03-29T09:59:52.376Z</time></trkpt><trkpt lat="40.2965272" lon="15.0581149"><ele>610.0</ele><time>2026-03-29T09:59:54.228Z</time></trkpt><trkpt lat="40.2964039" lon="15.0581212"><ele>610.0</ele><time>2026-03-29T09:59:55.223Z</time></trkpt><trkpt lat="40.2962788" lon="15.0581293"><ele>611.6</ele><time>2026-03-29T09:59:56.242Z</time></trkpt><trkpt lat="40.2961648" lon="15.0581436"><ele>613.2</ele><time>2026-03-29T09:59:57.236Z</time></trkpt><trkpt lat="40.2960512" lon="15.0581671"><ele>614.8</ele><time>2026-03-29T09:59:58.236Z</time></trkpt><trkpt lat="40.2959464" lon="15.0581957"><ele>616.4</ele><time>2026-03-29T09:59:59.221Z</time></trkpt><trkpt lat="40.2958475" lon="15.0582256"><ele>618.0</ele><time>2026-03-29T10:00:00.212Z</time></trkpt><trkpt lat="40.2957599" lon="15.0582571"><ele>611.6666666666666</ele><time>2026-03-29T10:00:01.232Z</time></trkpt><trkpt lat="40.2956928" lon="15.0582884"><ele>605.3333333333334</ele><time>2026-03-29T10:00:02.26Z</time></trkpt><trkpt lat="40.2956081" lon="15.0583518"><ele>599.0</ele><time>2026-03-29T10:00:04.257Z</time></trkpt><trkpt lat="40.2956538" lon="15.0584448"><ele>592.6666666666667</ele><time>2026-03-29T10:00:08.241Z</time></trkpt><trkpt lat="40.2957484" lon="15.0584169"><ele>586.3333333333334</ele><time>2026-03-29T10:00:10.227Z</time></trkpt><trkpt lat="40.2958231" lon="15.0583975"><ele>580.0</ele><time>2026-03-29T10:00:11.263Z</time></trkpt><trkpt lat="40.2958919" lon="15.0583887"><ele>580.0</ele><time>2026-03-29T10:00:12.218Z</time></trkpt><trkpt lat="40.295976" lon="15.0583895"><ele>580.0</ele><time>2026-03-29T10:00:13.23Z</time></trkpt><trkpt lat="40.2960742" lon="15.0584077"><ele>580.0</ele><time>2026-03-29T10:00:14.218Z</time></trkpt><trkpt lat="40.2961795" lon="15.0584442"><ele>580.0</ele><time>2026-03-29T10:00:15.218Z</time></trkpt><trkpt lat="40.2962926" lon="15.0584873"><ele>580.0</ele><time>2026-03-29T10:00:16.227Z</time></trkpt><trkpt lat="40.2964089" lon="15.0585245"><ele>580.5</ele><time>2026-03-29T10:00:17.226Z</time></trkpt><trkpt lat="40.2965261" lon="15.0585478"><ele>581.0</ele><time>2026-03-29T10:00:18.247Z</time></trkpt><trkpt lat="40.2966482" lon="15.0585672"><ele>581.5</ele><time>2026-03-29T10:00:19.263Z</time></trkpt><trkpt lat="40.2967595" lon="15.0585893"><ele>582.0</ele><time>2026-03-29T10:00:20.231Z</time></trkpt><trkpt lat="40.2968697" lon="15.0586268"><ele>582.0</ele><time>2026-03-29T10:00:21.244Z</time></trkpt><trkpt lat="40.2969715" lon="15.0586852"><ele>582.0</ele><time>2026-03-29T10:00:22.237Z</time></trkpt><trkpt lat="40.2970704" lon="15.0587695"><ele>582.0</ele><time>2026-03-29T10:00:23.228Z</time></trkpt><trkpt lat="40.2971706" lon="15.0588603"><ele>582.0</ele><time>2026-03-29T10:00:24.222Z</time></trkpt><trkpt lat="40.2972767" lon="15.0589358"><ele>584.25</ele><time>2026-03-29T10:00:25.24Z</time></trkpt><trkpt lat="40.2973858" lon="15.0589944"><ele>586.5</ele><time>2026-03-29T10:00:26.251Z</time></trkpt><trkpt lat="40.2974866" lon="15.0590569"><ele>588.75</ele><time>2026-03-29T10:00:27.222Z</time></trkpt><trkpt lat="40.2975935" lon="15.0591518"><ele>591.0</ele><time>2026-03-29T10:00:28.31Z</time></trkpt><trkpt lat="40.2976818" lon="15.0592649"><ele>584.5</ele><time>2026-03-29T10:00:29.35Z</time></trkpt><trkpt lat="40.297823" lon="15.0594983"><ele>578.0</ele><time>2026-03-29T10:00:31.244Z</time></trkpt><trkpt lat="40.2978838" lon="15.0596221"><ele>571.5</ele><time>2026-03-29T10:00:32.23Z</time></trkpt><trkpt lat="40.2979372" lon="15.0597454"><ele>565.0</ele><time>2026-03-29T10:00:33.224Z</time></trkpt><trkpt lat="40.297983" lon="15.0598576"><ele>565.0</ele><time>2026-03-29T10:00:34.245Z</time></trkpt><trkpt lat="40.298034" lon="15.0599466"><ele>565.0</ele><time>2026-03-29T10:00:35.254Z</time></trkpt><trkpt lat="40.2980939" lon="15.060001"><ele>565.0</ele><time>2026-03-29T10:00:36.236Z</time></trkpt><trkpt lat="40.2981624" lon="15.0600202"><ele>565.0</ele><time>2026-03-29T10:00:37.241Z</time></trkpt><trkpt lat="40.2982331" lon="15.0600015"><ele>565.0</ele><time>2026-03-29T10:00:38.217Z</time></trkpt><trkpt lat="40.2983091" lon="15.0599582"><ele>565.0</ele><time>2026-03-29T10:00:39.228Z</time></trkpt><trkpt lat="40.2983938" lon="15.0599044"><ele>568.25</ele><time>2026-03-29T10:00:40.243Z</time></trkpt><trkpt lat="40.2984907" lon="15.0598514"><ele>571.5</ele><time>2026-03-29T10:00:41.245Z</time></trkpt><trkpt lat="40.298604" lon="15.0598114"><ele>574.75</ele><time>2026-03-29T10:00:42.256Z</time></trkpt><trkpt lat="40.2987492" lon="15.0597807"><ele>578.0</ele><time>2026-03-29T10:00:43.378Z</time></trkpt><trkpt lat="40.2988652" lon="15.0597534"><ele>574.4</ele><time>2026-03-29T10:00:44.309Z</time></trkpt><trkpt lat="40.2989833" lon="15.059733"><ele>570.8</ele><time>2026-03-29T10:00:45.311Z</time></trkpt><trkpt lat="40.2990908" lon="15.0597413"><ele>567.2</ele><time>2026-03-29T10:00:46.308Z</time></trkpt><trkpt lat="40.2991909" lon="15.0597756"><ele>563.6</ele><time>2026-03-29T10:00:47.305Z</time></trkpt><trkpt lat="40.2992832" lon="15.0598395"><ele>560.0</ele><time>2026-03-29T10:00:48.317Z</time></trkpt><trkpt lat="40.2993636" lon="15.059933"><ele>557.0</ele><time>2026-03-29T10:00:49.3Z</time></trkpt><trkpt lat="40.2994427" lon="15.0600547"><ele>554.0</ele><time>2026-03-29T10:00:50.299Z</time></trkpt><trkpt lat="40.2995339" lon="15.0601814"><ele>551.0</ele><time>2026-03-29T10:00:51.325Z</time></trkpt><trkpt lat="40.2996253" lon="15.0602922"><ele>548.0</ele><time>2026-03-29T10:00:52.299Z</time></trkpt><trkpt lat="40.2997096" lon="15.0603906"><ele>547.6</ele><time>2026-03-29T10:00:53.296Z</time></trkpt><trkpt lat="40.2997789" lon="15.0604679"><ele>547.1999999999999</ele><time>2026-03-29T10:00:54.314Z</time></trkpt><trkpt lat="40.299836" lon="15.0605158"><ele>546.8</ele><time>2026-03-29T10:00:55.291Z</time></trkpt><trkpt lat="40.2999445" lon="15.0605362"><ele>546.4</ele><time>2026-03-29T10:00:57.323Z</time></trkpt><trkpt lat="40.3000404" lon="15.0604473"><ele>546.0</ele><time>2026-03-29T10:00:59.326Z</time></trkpt><trkpt lat="40.3000774" lon="15.0603556"><ele>546.0</ele><time>2026-03-29T10:01:00.325Z</time></trkpt><trkpt lat="40.3001019" lon="15.0602366"><ele>546.0</ele><time>2026-03-29T10:01:01.311Z</time></trkpt><trkpt lat="40.300113" lon="15.0600897"><ele>546.0</ele><time>2026-03-29T10:01:02.319Z</time></trkpt><trkpt lat="40.3001152" lon="15.0599262"><ele>546.0</ele><time>2026-03-29T10:01:03.314Z</time></trkpt><trkpt lat="40.3001285" lon="15.0597668"><ele>545.5</ele><time>2026-03-29T10:01:04.313Z</time></trkpt><trkpt lat="40.3001669" lon="15.0596129"><ele>545.0</ele><time>2026-03-29T10:01:05.315Z</time></trkpt><trkpt lat="40.3002124" lon="15.0594785"><ele>544.5</ele><time>2026-03-29T10:01:06.278Z</time></trkpt><trkpt lat="40.3002499" lon="15.0593419"><ele>544.0</ele><time>2026-03-29T10:01:07.284Z</time></trkpt><trkpt lat="40.3002665" lon="15.0591931"><ele>543.8</ele><time>2026-03-29T10:01:08.289Z</time></trkpt><trkpt lat="40.300254" lon="15.0590313"><ele>543.5999999999999</ele><time>2026-03-29T10:01:09.347Z</time></trkpt><trkpt lat="40.3002515" lon="15.0588836"><ele>543.4</ele><time>2026-03-29T10:01:10.347Z</time></trkpt><trkpt lat="40.3002683" lon="15.058753"><ele>543.1999999999999</ele><time>2026-03-29T10:01:11.318Z</time></trkpt><trkpt lat="40.3002888" lon="15.0586309"><ele>543.0</ele><time>2026-03-29T10:01:12.304Z</time></trkpt><trkpt lat="40.3002997" lon="15.0585143"><ele>543.0</ele><time>2026-03-29T10:01:13.307Z</time></trkpt><trkpt lat="40.3002939" lon="15.0584121"><ele>543.0</ele><time>2026-03-29T10:01:14.302Z</time></trkpt><trkpt lat="40.3002822" lon="15.0582979"><ele>543.0</ele><time>2026-03-29T10:01:15.315Z</time></trkpt><trkpt lat="40.300269" lon="15.0581747"><ele>543.0</ele><time>2026-03-29T10:01:16.311Z</time></trkpt><trkpt lat="40.3002462" lon="15.0580432"><ele>543.0</ele><time>2026-03-29T10:01:17.308Z</time></trkpt><trkpt lat="40.3002194" lon="15.0579029"><ele>542.6</ele><time>2026-03-29T10:01:18.322Z</time></trkpt><trkpt lat="40.3001937" lon="15.0577727"><ele>542.1999999999999</ele><time>2026-03-29T10:01:19.323Z</time></trkpt><trkpt lat="40.3001645" lon="15.0576522"><ele>541.8</ele><time>2026-03-29T10:01:20.324Z</time></trkpt><trkpt lat="40.3001254" lon="15.0575311"><ele>541.4</ele><time>2026-03-29T10:01:21.309Z</time></trkpt><trkpt lat="40.3000748" lon="15.0574099"><ele>541.0</ele><time>2026-03-29T10:01:22.306Z</time></trkpt><trkpt lat="40.3000197" lon="15.0572984"><ele>539.2</ele><time>2026-03-29T10:01:23.349Z</time></trkpt><trkpt lat="40.2999698" lon="15.0572054"><ele>537.4000000000001</ele><time>2026-03-29T10:01:24.311Z</time></trkpt><trkpt lat="40.2999222" lon="15.057113"><ele>535.6</ele><time>2026-03-29T10:01:25.274Z</time></trkpt><trkpt lat="40.2998652" lon="15.0570124"><ele>533.8000000000001</ele><time>2026-03-29T10:01:26.296Z</time></trkpt><trkpt lat="40.2998082" lon="15.0569062"><ele>532.0</ele><time>2026-03-29T10:01:27.303Z</time></trkpt><trkpt lat="40.2997564" lon="15.0567903"><ele>534.6</ele><time>2026-03-29T10:01:28.293Z</time></trkpt><trkpt lat="40.2997095" lon="15.0566671"><ele>537.2</ele><time>2026-03-29T10:01:29.328Z</time></trkpt><trkpt lat="40.2996756" lon="15.0565441"><ele>539.8</ele><time>2026-03-29T10:01:30.314Z</time></trkpt><trkpt lat="40.2996506" lon="15.0564164"><ele>542.4</ele><time>2026-03-29T10:01:31.291Z</time></trkpt><trkpt lat="40.2996285" lon="15.0562796"><ele>545.0</ele><time>2026-03-29T10:01:32.324Z</time></trkpt><trkpt lat="40.2996113" lon="15.0561538"><ele>545.0</ele><time>2026-03-29T10:01:33.305Z</time></trkpt><trkpt lat="40.2996008" lon="15.0560247"><ele>545.0</ele><time>2026-03-29T10:01:34.318Z</time></trkpt><trkpt lat="40.2995979" lon="15.0558932"><ele>545.0</ele><time>2026-03-29T10:01:35.294Z</time></trkpt><trkpt lat="40.2995909" lon="15.0557524"><ele>545.0</ele><time>2026-03-29T10:01:36.318Z</time></trkpt><trkpt lat="40.299581" lon="15.0556263"><ele>545.0</ele><time>2026-03-29T10:01:37.299Z</time></trkpt><trkpt lat="40.2995629" lon="15.0555096"><ele>544.3333333333333</ele><time>2026-03-29T10:01:38.286Z</time></trkpt><trkpt lat="40.2995395" lon="15.0553949"><ele>543.6666666666666</ele><time>2026-03-29T10:01:39.299Z</time></trkpt><trkpt lat="40.2995041" lon="15.0552844"><ele>543.0</ele><time>2026-03-29T10:01:40.335Z</time></trkpt><trkpt lat="40.299472" lon="15.055188"><ele>542.3333333333334</ele><time>2026-03-29T10:01:41.31Z</time></trkpt><trkpt lat="40.2994595" lon="15.0550869"><ele>541.6666666666667</ele><time>2026-03-29T10:01:42.309Z</time></trkpt><trkpt lat="40.2994651" lon="15.0549833"><ele>541.0</ele><time>2026-03-29T10:01:43.321Z</time></trkpt><trkpt lat="40.2994822" lon="15.0548739"><ele>540.0</ele><time>2026-03-29T10:01:44.295Z</time></trkpt><trkpt lat="40.2995054" lon="15.0547473"><ele>539.0</ele><time>2026-03-29T10:01:45.304Z</time></trkpt><trkpt lat="40.2995351" lon="15.0546088"><ele>538.0</ele><time>2026-03-29T10:01:46.318Z</time></trkpt><trkpt lat="40.2995626" lon="15.054475"><ele>537.0</ele><time>2026-03-29T10:01:47.305Z</time></trkpt><trkpt lat="40.2995895" lon="15.0543364"><ele>536.0</ele><time>2026-03-29T10:01:48.339Z</time></trkpt><trkpt lat="40.2996148" lon="15.0542062"><ele>535.8</ele><time>2026-03-29T10:01:49.325Z</time></trkpt><trkpt lat="40.2996393" lon="15.0540725"><ele>535.6</ele><time>2026-03-29T10:01:50.322Z</time></trkpt><trkpt lat="40.2996641" lon="15.0539343"><ele>535.4</ele><time>2026-03-29T10:01:51.355Z</time></trkpt><trkpt lat="40.2996851" lon="15.0538032"><ele>535.2</ele><time>2026-03-29T10:01:52.387Z</time></trkpt><trkpt lat="40.2997055" lon="15.0536963"><ele>535.0</ele><time>2026-03-29T10:01:53.315Z</time></trkpt><trkpt lat="40.2997244" lon="15.0535951"><ele>535.0</ele><time>2026-03-29T10:01:54.342Z</time></trkpt><trkpt lat="40.29975" lon="15.0534711"><ele>535.0</ele><time>2026-03-29T10:01:56.355Z</time></trkpt><trkpt lat="40.299786" lon="15.0533964"><ele>535.0</ele><time>2026-03-29T10:01:58.317Z</time></trkpt><trkpt lat="40.2998463" lon="15.0533465"><ele>535.0</ele><time>2026-03-29T10:02:00.339Z</time></trkpt><trkpt lat="40.2999202" lon="15.0533985"><ele>535.0</ele><time>2026-03-29T10:02:03.337Z</time></trkpt><trkpt lat="40.2999342" lon="15.0534885"><ele>535.0</ele><time>2026-03-29T10:02:05.342Z</time></trkpt><trkpt lat="40.2999251" lon="15.0535864"><ele>531.7142857142857</ele><time>2026-03-29T10:02:09.339Z</time></trkpt><trkpt lat="40.2999159" lon="15.0536715"><ele>528.4285714285714</ele><time>2026-03-29T10:02:12.357Z</time></trkpt><trkpt lat="40.2999002" lon="15.0537521"><ele>525.1428571428571</ele><time>2026-03-29T10:02:14.347Z</time></trkpt><trkpt lat="40.2998831" lon="15.0538585"><ele>521.8571428571429</ele><time>2026-03-29T10:02:17.345Z</time></trkpt><trkpt lat="40.2999252" lon="15.0539418"><ele>518.5714285714286</ele><time>2026-03-29T10:02:20.345Z</time></trkpt><trkpt lat="40.2999929" lon="15.0539239"><ele>515.2857142857142</ele><time>2026-03-29T10:02:23.356Z</time></trkpt><trkpt lat="40.3000275" lon="15.0538549"><ele>512.0</ele><time>2026-03-29T10:02:27.367Z</time></trkpt><trkpt lat="40.3000454" lon="15.0537754"><ele>512.0</ele><time>2026-03-29T10:02:35.347Z</time></trkpt><trkpt lat="40.3000661" lon="15.0536476"><ele>512.0</ele><time>2026-03-29T10:02:37.342Z</time></trkpt><trkpt lat="40.3001001" lon="15.0535351"><ele>512.0</ele><time>2026-03-29T10:02:39.356Z</time></trkpt><trkpt lat="40.3001299" lon="15.0534099"><ele>512.0</ele><time>2026-03-29T10:02:41.354Z</time></trkpt><trkpt lat="40.3001418" lon="15.0532932"><ele>512.0</ele><time>2026-03-29T10:02:44.355Z</time></trkpt><trkpt lat="40.3001644" lon="15.0531843"><ele>511.8333333333333</ele><time>2026-03-29T10:02:47.347Z</time></trkpt><trkpt lat="40.3002004" lon="15.0530788"><ele>511.66666666666663</ele><time>2026-03-29T10:02:50.301Z</time></trkpt><trkpt lat="40.300213" lon="15.0529955"><ele>511.5</ele><time>2026-03-29T10:02:52.329Z</time></trkpt><trkpt lat="40.3002125" lon="15.0529076"><ele>511.33333333333337</ele><time>2026-03-29T10:02:54.348Z</time></trkpt><trkpt lat="40.3002028" lon="15.0527985"><ele>511.1666666666667</ele><time>2026-03-29T10:02:56.328Z</time></trkpt><trkpt lat="40.3001591" lon="15.0526509"><ele>511.0</ele><time>2026-03-29T10:02:58.339Z</time></trkpt><trkpt lat="40.3001342" lon="15.0525723"><ele>511.00000000000006</ele><time>2026-03-29T10:02:59.332Z</time></trkpt><trkpt lat="40.3001153" lon="15.0524932"><ele>511.0</ele><time>2026-03-29T10:03:00.314Z</time></trkpt><trkpt lat="40.3000957" lon="15.0523918"><ele>511.0</ele><time>2026-03-29T10:03:01.321Z</time></trkpt><trkpt lat="40.30008" lon="15.0522751"><ele>511.0</ele><time>2026-03-29T10:03:02.337Z</time></trkpt><trkpt lat="40.3000679" lon="15.0521631"><ele>511.00000000000006</ele><time>2026-03-29T10:03:03.337Z</time></trkpt><trkpt lat="40.3000554" lon="15.0520408"><ele>511.0</ele><time>2026-03-29T10:03:04.363Z</time></trkpt><trkpt lat="40.3000427" lon="15.0519247"><ele>509.1666666666667</ele><time>2026-03-29T10:03:05.332Z</time></trkpt><trkpt lat="40.3000294" lon="15.0518085"><ele>507.33333333333337</ele><time>2026-03-29T10:03:06.34Z</time></trkpt><trkpt lat="40.3000087" lon="15.0517066"><ele>505.5</ele><time>2026-03-29T10:03:07.35Z</time></trkpt><trkpt lat="40.2999903" lon="15.0516265"><ele>503.66666666666663</ele><time>2026-03-29T10:03:08.337Z</time></trkpt><trkpt lat="40.2999573" lon="15.051508"><ele>501.8333333333333</ele><time>2026-03-29T10:03:10.322Z</time></trkpt><trkpt lat="40.299901" lon="15.0514239"><ele>500.0</ele><time>2026-03-29T10:03:12.336Z</time></trkpt><trkpt lat="40.2998317" lon="15.0513497"><ele>501.8</ele><time>2026-03-29T10:03:14.366Z</time></trkpt><trkpt lat="40.2997565" lon="15.0512879"><ele>503.6</ele><time>2026-03-29T10:03:16.33Z</time></trkpt><trkpt lat="40.2996684" lon="15.0512065"><ele>505.4</ele><time>2026-03-29T10:03:18.359Z</time></trkpt><trkpt lat="40.2996037" lon="15.0511249"><ele>507.2</ele><time>2026-03-29T10:03:20.314Z</time></trkpt><trkpt lat="40.2995422" lon="15.0510408"><ele>509.0</ele><time>2026-03-29T10:03:22.34Z</time></trkpt><trkpt lat="40.2994853" lon="15.0509367"><ele>509.0</ele><time>2026-03-29T10:03:24.352Z</time></trkpt><trkpt lat="40.2994541" lon="15.0508275"><ele>509.0</ele><time>2026-03-29T10:03:26.327Z</time></trkpt><trkpt lat="40.2994441" lon="15.0507122"><ele>509.0</ele><time>2026-03-29T10:03:28.44Z</time></trkpt><trkpt lat="40.299457" lon="15.0505798"><ele>509.0</ele><time>2026-03-29T10:03:30.356Z</time></trkpt><trkpt lat="40.2994882" lon="15.0504253"><ele>509.0</ele><time>2026-03-29T10:03:32.327Z</time></trkpt><trkpt lat="40.2995157" lon="15.0502824"><ele>508.2</ele><time>2026-03-29T10:03:34.348Z</time></trkpt><trkpt lat="40.2995417" lon="15.050153"><ele>507.4</ele><time>2026-03-29T10:03:36.33Z</time></trkpt><trkpt lat="40.2995624" lon="15.0500357"><ele>506.6</ele><time>2026-03-29T10:03:38.342Z</time></trkpt><trkpt lat="40.2995757" lon="15.0499287"><ele>505.8</ele><time>2026-03-29T10:03:40.327Z</time></trkpt><trkpt lat="40.2995922" lon="15.0498015"><ele>505.0</ele><time>2026-03-29T10:03:42.33Z</time></trkpt><trkpt lat="40.299583" lon="15.0496828"><ele>503.6666666666667</ele><time>2026-03-29T10:03:44.325Z</time></trkpt><trkpt lat="40.2995618" lon="15.049576"><ele>502.33333333333337</ele><time>2026-03-29T10:03:46.443Z</time></trkpt><trkpt lat="40.2995439" lon="15.0494875"><ele>501.0</ele><time>2026-03-29T10:03:48.346Z</time></trkpt><trkpt lat="40.299509" lon="15.049377"><ele>499.66666666666663</ele><time>2026-03-29T10:03:51.31Z</time></trkpt><trkpt lat="40.2994782" lon="15.049272"><ele>498.3333333333333</ele><time>2026-03-29T10:03:54.343Z</time></trkpt><trkpt lat="40.2994557" lon="15.0491869"><ele>497.0</ele><time>2026-03-29T10:03:56.319Z</time></trkpt><trkpt lat="40.2994429" lon="15.0490909"><ele>494.49999999999994</ele><time>2026-03-29T10:03:58.346Z</time></trkpt><trkpt lat="40.2994272" lon="15.0489792"><ele>492.0</ele><time>2026-03-29T10:04:00.349Z</time></trkpt><trkpt lat="40.2994" lon="15.0488468"><ele>489.5</ele><time>2026-03-29T10:04:02.343Z</time></trkpt><trkpt lat="40.2993391" lon="15.0487231"><ele>487.0</ele><time>2026-03-29T10:04:04.339Z</time></trkpt><trkpt lat="40.2992934" lon="15.0486606"><ele>484.49999999999994</ele><time>2026-03-29T10:04:05.354Z</time></trkpt><trkpt lat="40.2992438" lon="15.0485992"><ele>482.0</ele><time>2026-03-29T10:04:06.356Z</time></trkpt><trkpt lat="40.2991926" lon="15.0485387"><ele>481.99999999999994</ele><time>2026-03-29T10:04:07.344Z</time></trkpt><trkpt lat="40.2991392" lon="15.0484742"><ele>482.0</ele><time>2026-03-29T10:04:08.332Z</time></trkpt><trkpt lat="40.2990851" lon="15.0484072"><ele>482.0</ele><time>2026-03-29T10:04:09.331Z</time></trkpt><trkpt lat="40.2990289" lon="15.0483422"><ele>482.0</ele><time>2026-03-29T10:04:10.323Z</time></trkpt><trkpt lat="40.29897" lon="15.0482761"><ele>481.99999999999994</ele><time>2026-03-29T10:04:11.344Z</time></trkpt><trkpt lat="40.2989146" lon="15.0482078"><ele>482.0</ele><time>2026-03-29T10:04:12.331Z</time></trkpt><trkpt lat="40.2988628" lon="15.048133"><ele>484.3333333333333</ele><time>2026-03-29T10:04:13.331Z</time></trkpt><trkpt lat="40.2988152" lon="15.048063"><ele>486.66666666666663</ele><time>2026-03-29T10:04:14.317Z</time></trkpt><trkpt lat="40.2987714" lon="15.0479975"><ele>489.0</ele><time>2026-03-29T10:04:15.333Z</time></trkpt><trkpt lat="40.2986996" lon="15.0478801"><ele>491.33333333333337</ele><time>2026-03-29T10:04:17.316Z</time></trkpt><trkpt lat="40.298661" lon="15.0477732"><ele>493.6666666666667</ele><time>2026-03-29T10:04:19.371Z</time></trkpt><trkpt lat="40.2987222" lon="15.0477085"><ele>496.0</ele><time>2026-03-29T10:04:22.356Z</time></trkpt><trkpt lat="40.2987878" lon="15.0477578"><ele>496.0</ele><time>2026-03-29T10:04:24.308Z</time></trkpt><trkpt lat="40.2988295" lon="15.04782"><ele>496.0</ele><time>2026-03-29T10:04:25.333Z</time></trkpt><trkpt lat="40.2988746" lon="15.0478852"><ele>496.0</ele><time>2026-03-29T10:04:26.345Z</time></trkpt><trkpt lat="40.2989369" lon="15.0479587"><ele>496.0</ele><time>2026-03-29T10:04:27.355Z</time></trkpt><trkpt lat="40.2990212" lon="15.0480423"><ele>496.0</ele><time>2026-03-29T10:04:28.427Z</time></trkpt><trkpt lat="40.2992004" lon="15.0481903"><ele>492.5</ele><time>2026-03-29T10:04:30.23Z</time></trkpt><trkpt lat="40.2993158" lon="15.0482835"><ele>489.0</ele><time>2026-03-29T10:04:31.245Z</time></trkpt><trkpt lat="40.2994365" lon="15.0483875"><ele>485.5</ele><time>2026-03-29T10:04:32.263Z</time></trkpt><trkpt lat="40.2995465" lon="15.0484912"><ele>482.0</ele><time>2026-03-29T10:04:33.252Z</time></trkpt><trkpt lat="40.2996441" lon="15.0485928"><ele>482.0</ele><time>2026-03-29T10:04:34.229Z</time></trkpt><trkpt lat="40.2997397" lon="15.0487007"><ele>482.0</ele><time>2026-03-29T10:04:35.257Z</time></trkpt><trkpt lat="40.2998295" lon="15.0488078"><ele>482.0</ele><time>2026-03-29T10:04:36.242Z</time></trkpt><trkpt lat="40.2999219" lon="15.0489252"><ele>482.0</ele><time>2026-03-29T10:04:37.249Z</time></trkpt><trkpt lat="40.3000276" lon="15.0490787"><ele>479.66666666666663</ele><time>2026-03-29T10:04:38.441Z</time></trkpt><trkpt lat="40.3001628" lon="15.0493119"><ele>477.33333333333337</ele><time>2026-03-29T10:04:40.243Z</time></trkpt><trkpt lat="40.3002349" lon="15.049442"><ele>475.0</ele><time>2026-03-29T10:04:41.23Z</time></trkpt><trkpt lat="40.3003024" lon="15.049574"><ele>475.0</ele><time>2026-03-29T10:04:42.233Z</time></trkpt><trkpt lat="40.3003697" lon="15.0496974"><ele>475.0</ele><time>2026-03-29T10:04:43.232Z</time></trkpt><trkpt lat="40.3004336" lon="15.0498081"><ele>475.0</ele><time>2026-03-29T10:04:44.239Z</time></trkpt><trkpt lat="40.3004952" lon="15.0499164"><ele>475.0</ele><time>2026-03-29T10:04:45.365Z</time></trkpt><trkpt lat="40.3005883" lon="15.0500869"><ele>471.5</ele><time>2026-03-29T10:04:47.229Z</time></trkpt><trkpt lat="40.300653" lon="15.0502027"><ele>468.0</ele><time>2026-03-29T10:04:48.376Z</time></trkpt><trkpt lat="40.3007503" lon="15.0504043"><ele>464.5</ele><time>2026-03-29T10:04:50.25Z</time></trkpt><trkpt lat="40.3007979" lon="15.0504985"><ele>461.0</ele><time>2026-03-29T10:04:51.238Z</time></trkpt><trkpt lat="40.3008495" lon="15.0505973"><ele>461.0</ele><time>2026-03-29T10:04:52.285Z</time></trkpt><trkpt lat="40.300901" lon="15.0506927"><ele>461.0</ele><time>2026-03-29T10:04:53.251Z</time></trkpt><trkpt lat="40.3009612" lon="15.0507806"><ele>461.0</ele><time>2026-03-29T10:04:54.284Z</time></trkpt><trkpt lat="40.3010318" lon="15.0508538"><ele>461.0</ele><time>2026-03-29T10:04:55.26Z</time></trkpt><trkpt lat="40.3011163" lon="15.0509277"><ele>461.0</ele><time>2026-03-29T10:04:56.252Z</time></trkpt><trkpt lat="40.3011984" lon="15.0510066"><ele>460.4</ele><time>2026-03-29T10:04:57.247Z</time></trkpt><trkpt lat="40.3012683" lon="15.0510921"><ele>459.8</ele><time>2026-03-29T10:04:58.239Z</time></trkpt><trkpt lat="40.3013302" lon="15.0511998"><ele>459.19999999999993</ele><time>2026-03-29T10:04:59.256Z</time></trkpt><trkpt lat="40.3013875" lon="15.0513299"><ele>458.59999999999997</ele><time>2026-03-29T10:05:00.294Z</time></trkpt><trkpt lat="40.3014292" lon="15.051465"><ele>458.0</ele><time>2026-03-29T10:05:01.222Z</time></trkpt><trkpt lat="40.3014734" lon="15.0516267"><ele>458.0</ele><time>2026-03-29T10:05:02.234Z</time></trkpt><trkpt lat="40.3015311" lon="15.0517862"><ele>458.0</ele><time>2026-03-29T10:05:03.225Z</time></trkpt><trkpt lat="40.3016032" lon="15.0519434"><ele>458.0</ele><time>2026-03-29T10:05:04.244Z</time></trkpt><trkpt lat="40.3016795" lon="15.0520902"><ele>458.0</ele><time>2026-03-29T10:05:05.251Z</time></trkpt><trkpt lat="40.3017623" lon="15.0522375"><ele>458.0</ele><time>2026-03-29T10:05:06.338Z</time></trkpt><trkpt lat="40.3018137" lon="15.0523599"><ele>458.0</ele><time>2026-03-29T10:05:07.242Z</time></trkpt><trkpt lat="40.3018664" lon="15.0524967"><ele>458.0</ele><time>2026-03-29T10:05:08.237Z</time></trkpt><trkpt lat="40.30191" lon="15.0526311"><ele>458.0</ele><time>2026-03-29T10:05:09.23Z</time></trkpt><trkpt lat="40.3019465" lon="15.0527886"><ele>459.4</ele><time>2026-03-29T10:05:10.337Z</time></trkpt><trkpt lat="40.301962" lon="15.0529235"><ele>460.79999999999995</ele><time>2026-03-29T10:05:11.259Z</time></trkpt><trkpt lat="40.3019708" lon="15.0530591"><ele>462.2</ele><time>2026-03-29T10:05:12.225Z</time></trkpt><trkpt lat="40.3019861" lon="15.053194"><ele>463.6</ele><time>2026-03-29T10:05:13.252Z</time></trkpt><trkpt lat="40.3020142" lon="15.0533195"><ele>465.0</ele><time>2026-03-29T10:05:14.225Z</time></trkpt><trkpt lat="40.3020584" lon="15.0534372"><ele>465.4</ele><time>2026-03-29T10:05:15.269Z</time></trkpt><trkpt lat="40.3021176" lon="15.0535246"><ele>465.8</ele><time>2026-03-29T10:05:16.226Z</time></trkpt><trkpt lat="40.302206" lon="15.0536005"><ele>466.20000000000005</ele><time>2026-03-29T10:05:17.268Z</time></trkpt><trkpt lat="40.3023046" lon="15.0536504"><ele>466.6</ele><time>2026-03-29T10:05:18.243Z</time></trkpt><trkpt lat="40.3024115" lon="15.0537087"><ele>467.0</ele><time>2026-03-29T10:05:19.252Z</time></trkpt><trkpt lat="40.3025153" lon="15.0537982"><ele>465.0</ele><time>2026-03-29T10:05:20.259Z</time></trkpt><trkpt lat="40.3026117" lon="15.0538958"><ele>463.0</ele><time>2026-03-29T10:05:21.254Z</time></trkpt><trkpt lat="40.3027133" lon="15.0540183"><ele>461.0</ele><time>2026-03-29T10:05:22.332Z</time></trkpt><trkpt lat="40.3028064" lon="15.0541379"><ele>459.0</ele><time>2026-03-29T10:05:23.252Z</time></trkpt><trkpt lat="40.3029093" lon="15.0542607"><ele>459.0</ele><time>2026-03-29T10:05:24.239Z</time></trkpt><trkpt lat="40.3030272" lon="15.05439"><ele>459.0</ele><time>2026-03-29T10:05:25.249Z</time></trkpt><trkpt lat="40.3031518" lon="15.0545192"><ele>459.0</ele><time>2026-03-29T10:05:26.232Z</time></trkpt><trkpt lat="40.3032847" lon="15.0546445"><ele>457.0</ele><time>2026-03-29T10:05:27.255Z</time></trkpt><trkpt lat="40.3034103" lon="15.0547548"><ele>455.0</ele><time>2026-03-29T10:05:28.245Z</time></trkpt><trkpt lat="40.3035274" lon="15.0548573"><ele>453.0</ele><time>2026-03-29T10:05:29.249Z</time></trkpt><trkpt lat="40.3036346" lon="15.0549522"><ele>451.0</ele><time>2026-03-29T10:05:30.259Z</time></trkpt><trkpt lat="40.3037251" lon="15.055038"><ele>451.0</ele><time>2026-03-29T10:05:31.249Z</time></trkpt><trkpt lat="40.303805" lon="15.055122"><ele>451.0</ele><time>2026-03-29T10:05:32.23Z</time></trkpt><trkpt lat="40.3038719" lon="15.0552193"><ele>451.0</ele><time>2026-03-29T10:05:33.241Z</time></trkpt><trkpt lat="40.3039118" lon="15.0553266"><ele>451.0</ele><time>2026-03-29T10:05:34.234Z</time></trkpt><trkpt lat="40.3039251" lon="15.0554358"><ele>451.0</ele><time>2026-03-29T10:05:35.219Z</time></trkpt><trkpt lat="40.3039065" lon="15.055543"><ele>451.0</ele><time>2026-03-29T10:05:36.242Z</time></trkpt><trkpt lat="40.3038571" lon="15.0556407"><ele>451.0</ele><time>2026-03-29T10:05:37.341Z</time></trkpt><trkpt lat="40.303794" lon="15.0557154"><ele>451.0</ele><time>2026-03-29T10:05:38.247Z</time></trkpt><trkpt lat="40.3037119" lon="15.0558003"><ele>451.0</ele><time>2026-03-29T10:05:39.239Z</time></trkpt><trkpt lat="40.3036299" lon="15.0558864"><ele>451.0</ele><time>2026-03-29T10:05:40.239Z</time></trkpt><trkpt lat="40.3035518" lon="15.0559757"><ele>451.20000000000005</ele><time>2026-03-29T10:05:41.225Z</time></trkpt><trkpt lat="40.3034846" lon="15.0560694"><ele>451.40000000000003</ele><time>2026-03-29T10:05:42.242Z</time></trkpt><trkpt lat="40.3034356" lon="15.0561707"><ele>451.6</ele><time>2026-03-29T10:05:43.255Z</time></trkpt><trkpt lat="40.3034121" lon="15.0562777"><ele>451.8</ele><time>2026-03-29T10:05:44.261Z</time></trkpt><trkpt lat="40.3034122" lon="15.0563937"><ele>452.0</ele><time>2026-03-29T10:05:45.253Z</time></trkpt><trkpt lat="40.303438" lon="15.0565167"><ele>450.5</ele><time>2026-03-29T10:05:46.238Z</time></trkpt><trkpt lat="40.3034802" lon="15.0566525"><ele>449.0</ele><time>2026-03-29T10:05:47.255Z</time></trkpt><trkpt lat="40.3035303" lon="15.0567947"><ele>447.5</ele><time>2026-03-29T10:05:48.263Z</time></trkpt><trkpt lat="40.303582" lon="15.0569436"><ele>446.0</ele><time>2026-03-29T10:05:49.237Z</time></trkpt><trkpt lat="40.3036351" lon="15.057103"><ele>446.0</ele><time>2026-03-29T10:05:50.242Z</time></trkpt><trkpt lat="40.3036866" lon="15.0572555"><ele>446.0</ele><time>2026-03-29T10:05:51.258Z</time></trkpt><trkpt lat="40.3037353" lon="15.0573974"><ele>446.0</ele><time>2026-03-29T10:05:52.241Z</time></trkpt><trkpt lat="40.3037805" lon="15.0575282"><ele>446.0</ele><time>2026-03-29T10:05:53.221Z</time></trkpt><trkpt lat="40.303825" lon="15.0576607"><ele>446.0</ele><time>2026-03-29T10:05:54.231Z</time></trkpt><trkpt lat="40.3038548" lon="15.057799"><ele>446.0</ele><time>2026-03-29T10:05:55.386Z</time></trkpt><trkpt lat="40.3038301" lon="15.058005"><ele>446.0</ele><time>2026-03-29T10:05:57.266Z</time></trkpt><trkpt lat="40.3037792" lon="15.0580927"><ele>446.0</ele><time>2026-03-29T10:05:58.247Z</time></trkpt><trkpt lat="40.3037108" lon="15.0581775"><ele>446.0</ele><time>2026-03-29T10:05:59.25Z</time></trkpt><trkpt lat="40.3036321" lon="15.0582673"><ele>445.0</ele><time>2026-03-29T10:06:00.252Z</time></trkpt><trkpt lat="40.3035495" lon="15.0583609"><ele>444.0</ele><time>2026-03-29T10:06:01.232Z</time></trkpt><trkpt lat="40.3034716" lon="15.0584511"><ele>443.0</ele><time>2026-03-29T10:06:02.227Z</time></trkpt><trkpt lat="40.3033932" lon="15.0585379"><ele>442.0</ele><time>2026-03-29T10:06:03.243Z</time></trkpt><trkpt lat="40.3033114" lon="15.0586261"><ele>441.0</ele><time>2026-03-29T10:06:04.254Z</time></trkpt><trkpt lat="40.3032333" lon="15.0587077"><ele>441.0</ele><time>2026-03-29T10:06:05.25Z</time></trkpt><trkpt lat="40.3031564" lon="15.0587833"><ele>441.0</ele><time>2026-03-29T10:06:06.282Z</time></trkpt><trkpt lat="40.303098" lon="15.0588573"><ele>441.0</ele><time>2026-03-29T10:06:07.275Z</time></trkpt><trkpt lat="40.3030632" lon="15.0589374"><ele>441.0</ele><time>2026-03-29T10:06:08.249Z</time></trkpt><trkpt lat="40.3030555" lon="15.0590278"><ele>441.0</ele><time>2026-03-29T10:06:09.254Z</time></trkpt><trkpt lat="40.3030752" lon="15.0591174"><ele>441.0</ele><time>2026-03-29T10:06:10.24Z</time></trkpt><trkpt lat="40.3031237" lon="15.0592162"><ele>439.5</ele><time>2026-03-29T10:06:11.331Z</time></trkpt><trkpt lat="40.3031761" lon="15.0592968"><ele>438.0</ele><time>2026-03-29T10:06:12.237Z</time></trkpt><trkpt lat="40.3032324" lon="15.0593831"><ele>436.5</ele><time>2026-03-29T10:06:13.249Z</time></trkpt><trkpt lat="40.3032711" lon="15.0594723"><ele>435.0</ele><time>2026-03-29T10:06:14.216Z</time></trkpt><trkpt lat="40.3032935" lon="15.0595739"><ele>433.5</ele><time>2026-03-29T10:06:15.24Z</time></trkpt><trkpt lat="40.3032955" lon="15.0596884"><ele>432.0</ele><time>2026-03-29T10:06:16.256Z</time></trkpt><trkpt lat="40.3032801" lon="15.0598021"><ele>432.0</ele><time>2026-03-29T10:06:17.239Z</time></trkpt><trkpt lat="40.3032561" lon="15.059912"><ele>432.00000000000006</ele><time>2026-03-29T10:06:18.24Z</time></trkpt><trkpt lat="40.3032273" lon="15.0600228"><ele>432.00000000000006</ele><time>2026-03-29T10:06:19.284Z</time></trkpt><trkpt lat="40.3032005" lon="15.0601355"><ele>432.0</ele><time>2026-03-29T10:06:20.249Z</time></trkpt><trkpt lat="40.3031838" lon="15.0602612"><ele>432.0</ele><time>2026-03-29T10:06:21.244Z</time></trkpt><trkpt lat="40.3031846" lon="15.0603908"><ele>431.8</ele><time>2026-03-29T10:06:22.248Z</time></trkpt><trkpt lat="40.3032052" lon="15.0605111"><ele>431.6</ele><time>2026-03-29T10:06:23.253Z</time></trkpt><trkpt lat="40.3032449" lon="15.0606234"><ele>431.40000000000003</ele><time>2026-03-29T10:06:24.222Z</time></trkpt><trkpt lat="40.3033054" lon="15.0607372"><ele>431.20000000000005</ele><time>2026-03-29T10:06:25.216Z</time></trkpt><trkpt lat="40.3034063" lon="15.0608651"><ele>431.0</ele><time>2026-03-29T10:06:26.321Z</time></trkpt><trkpt lat="40.3035866" lon="15.0610535"><ele>433.6</ele><time>2026-03-29T10:06:28.23Z</time></trkpt><trkpt lat="40.3036729" lon="15.061142"><ele>436.20000000000005</ele><time>2026-03-29T10:06:29.217Z</time></trkpt><trkpt lat="40.3037565" lon="15.0612288"><ele>438.79999999999995</ele><time>2026-03-29T10:06:30.215Z</time></trkpt><trkpt lat="40.3038402" lon="15.0613133"><ele>441.4</ele><time>2026-03-29T10:06:31.232Z</time></trkpt><trkpt lat="40.3039323" lon="15.0613897"><ele>444.0</ele><time>2026-03-29T10:06:32.228Z</time></trkpt><trkpt lat="40.3040375" lon="15.0614555"><ele>432.33333333333337</ele><time>2026-03-29T10:06:33.206Z</time></trkpt><trkpt lat="40.3041696" lon="15.0615176"><ele>420.6666666666667</ele><time>2026-03-29T10:06:34.229Z</time></trkpt><trkpt lat="40.3043243" lon="15.061564"><ele>409.0</ele><time>2026-03-29T10:06:35.354Z</time></trkpt><trkpt lat="40.3045629" lon="15.061598"><ele>410.75</ele><time>2026-03-29T10:06:37.211Z</time></trkpt><trkpt lat="40.3046842" lon="15.0616279"><ele>412.5</ele><time>2026-03-29T10:06:38.235Z</time></trkpt><trkpt lat="40.3048022" lon="15.0616817"><ele>414.25</ele><time>2026-03-29T10:06:39.216Z</time></trkpt><trkpt lat="40.304915" lon="15.0617495"><ele>416.0</ele><time>2026-03-29T10:06:40.236Z</time></trkpt><trkpt lat="40.305016" lon="15.0618226"><ele>416.0</ele><time>2026-03-29T10:06:41.258Z</time></trkpt><trkpt lat="40.3051068" lon="15.0618893"><ele>416.0</ele><time>2026-03-29T10:06:42.244Z</time></trkpt><trkpt lat="40.305191" lon="15.0619573"><ele>416.0</ele><time>2026-03-29T10:06:43.23Z</time></trkpt><trkpt lat="40.3052646" lon="15.0620495"><ele>416.0</ele><time>2026-03-29T10:06:44.222Z</time></trkpt><trkpt lat="40.3053215" lon="15.0621653"><ele>416.0</ele><time>2026-03-29T10:06:45.223Z</time></trkpt><trkpt lat="40.3053699" lon="15.0622955"><ele>415.99999999999994</ele><time>2026-03-29T10:06:46.33Z</time></trkpt><trkpt lat="40.3054067" lon="15.0623957"><ele>416.0</ele><time>2026-03-29T10:06:47.239Z</time></trkpt><trkpt lat="40.3054479" lon="15.0624981"><ele>416.0</ele><time>2026-03-29T10:06:48.239Z</time></trkpt><trkpt lat="40.3054947" lon="15.0625863"><ele>416.0</ele><time>2026-03-29T10:06:49.219Z</time></trkpt><trkpt lat="40.3055467" lon="15.0626709"><ele>415.99999999999994</ele><time>2026-03-29T10:06:50.242Z</time></trkpt><trkpt lat="40.30561" lon="15.0627371"><ele>416.0</ele><time>2026-03-29T10:06:51.226Z</time></trkpt><trkpt lat="40.3056935" lon="15.0627832"><ele>414.25</ele><time>2026-03-29T10:06:52.243Z</time></trkpt><trkpt lat="40.3057927" lon="15.0627998"><ele>412.5</ele><time>2026-03-29T10:06:53.234Z</time></trkpt><trkpt lat="40.3059034" lon="15.0627946"><ele>410.75</ele><time>2026-03-29T10:06:54.222Z</time></trkpt><trkpt lat="40.3060301" lon="15.062782"><ele>409.0</ele><time>2026-03-29T10:06:55.234Z</time></trkpt><trkpt lat="40.3061498" lon="15.0627633"><ele>409.0</ele><time>2026-03-29T10:06:56.242Z</time></trkpt><trkpt lat="40.3062582" lon="15.0627465"><ele>409.0</ele><time>2026-03-29T10:06:57.234Z</time></trkpt><trkpt lat="40.3063662" lon="15.0627484"><ele>409.0</ele><time>2026-03-29T10:06:58.281Z</time></trkpt><trkpt lat="40.3064535" lon="15.0627868"><ele>409.0</ele><time>2026-03-29T10:06:59.242Z</time></trkpt><trkpt lat="40.3065272" lon="15.0628506"><ele>409.0</ele><time>2026-03-29T10:07:00.216Z</time></trkpt><trkpt lat="40.3065829" lon="15.0629389"><ele>408.0</ele><time>2026-03-29T10:07:01.229Z</time></trkpt><trkpt lat="40.3066104" lon="15.0630486"><ele>407.0</ele><time>2026-03-29T10:07:02.24Z</time></trkpt><trkpt lat="40.3066103" lon="15.0631924"><ele>406.0</ele><time>2026-03-29T10:07:03.329Z</time></trkpt><trkpt lat="40.3065948" lon="15.063339"><ele>405.0</ele><time>2026-03-29T10:07:04.258Z</time></trkpt><trkpt lat="40.306572" lon="15.0635045"><ele>404.0</ele><time>2026-03-29T10:07:05.266Z</time></trkpt><trkpt lat="40.3065542" lon="15.0636512"><ele>404.0</ele><time>2026-03-29T10:07:06.229Z</time></trkpt><trkpt lat="40.3065362" lon="15.0637981"><ele>404.0</ele><time>2026-03-29T10:07:07.23Z</time></trkpt><trkpt lat="40.3065139" lon="15.0639534"><ele>404.0</ele><time>2026-03-29T10:07:08.241Z</time></trkpt><trkpt lat="40.3064823" lon="15.0642405"><ele>404.0</ele><time>2026-03-29T10:07:10.264Z</time></trkpt><trkpt lat="40.3064873" lon="15.0643732"><ele>404.0</ele><time>2026-03-29T10:07:11.243Z</time></trkpt><trkpt lat="40.3065105" lon="15.0645112"><ele>404.0</ele><time>2026-03-29T10:07:12.249Z</time></trkpt><trkpt lat="40.3065397" lon="15.0646318"><ele>404.0</ele><time>2026-03-29T10:07:13.217Z</time></trkpt><trkpt lat="40.3065668" lon="15.0647462"><ele>404.0</ele><time>2026-03-29T10:07:14.237Z</time></trkpt><trkpt lat="40.3065888" lon="15.0648419"><ele>404.0</ele><time>2026-03-29T10:07:15.239Z</time></trkpt><trkpt lat="40.3066149" lon="15.0649791"><ele>404.0</ele><time>2026-03-29T10:07:17.255Z</time></trkpt><trkpt lat="40.3066091" lon="15.0650654"><ele>404.0</ele><time>2026-03-29T10:07:19.282Z</time></trkpt><trkpt lat="40.3066303" lon="15.0651693"><ele>404.0</ele><time>2026-03-29T10:07:27.29Z</time></trkpt><trkpt lat="40.3066869" lon="15.0652359"><ele>404.0</ele><time>2026-03-29T10:07:29.269Z</time></trkpt><trkpt lat="40.3068072" lon="15.0653127"><ele>404.0</ele><time>2026-03-29T10:07:31.255Z</time></trkpt><trkpt lat="40.3068841" lon="15.0653545"><ele>404.0</ele><time>2026-03-29T10:07:32.384Z</time></trkpt><trkpt lat="40.3070398" lon="15.0654409"><ele>404.0</ele><time>2026-03-29T10:07:34.244Z</time></trkpt><trkpt lat="40.3071426" lon="15.0654903"><ele>404.0</ele><time>2026-03-29T10:07:35.257Z</time></trkpt><trkpt lat="40.3072508" lon="15.065546"><ele>403.0</ele><time>2026-03-29T10:07:36.276Z</time></trkpt><trkpt lat="40.3073587" lon="15.0656139"><ele>402.0</ele><time>2026-03-29T10:07:37.284Z</time></trkpt><trkpt lat="40.3074579" lon="15.0656933"><ele>401.0</ele><time>2026-03-29T10:07:38.263Z</time></trkpt><trkpt lat="40.3075577" lon="15.0657851"><ele>400.0</ele><time>2026-03-29T10:07:39.294Z</time></trkpt><trkpt lat="40.3076477" lon="15.0658671"><ele>400.0</ele><time>2026-03-29T10:07:40.246Z</time></trkpt><trkpt lat="40.3077533" lon="15.0659407"><ele>400.0</ele><time>2026-03-29T10:07:41.267Z</time></trkpt><trkpt lat="40.3078634" lon="15.0660019"><ele>400.0</ele><time>2026-03-29T10:07:42.27Z</time></trkpt><trkpt lat="40.3079645" lon="15.0660527"><ele>400.0</ele><time>2026-03-29T10:07:43.251Z</time></trkpt><trkpt lat="40.3080635" lon="15.066102"><ele>400.4</ele><time>2026-03-29T10:07:44.271Z</time></trkpt><trkpt lat="40.3081606" lon="15.0661412"><ele>400.8</ele><time>2026-03-29T10:07:45.255Z</time></trkpt><trkpt lat="40.3082752" lon="15.0661714"><ele>401.20000000000005</ele><time>2026-03-29T10:07:46.335Z</time></trkpt><trkpt lat="40.3083758" lon="15.066186"><ele>401.6</ele><time>2026-03-29T10:07:47.248Z</time></trkpt><trkpt lat="40.3084963" lon="15.0661848"><ele>402.0</ele><time>2026-03-29T10:07:48.251Z</time></trkpt><trkpt lat="40.3086226" lon="15.0661713"><ele>402.0</ele><time>2026-03-29T10:07:49.251Z</time></trkpt><trkpt lat="40.3087536" lon="15.0661438"><ele>402.0</ele><time>2026-03-29T10:07:50.258Z</time></trkpt><trkpt lat="40.3088772" lon="15.0661085"><ele>402.0</ele><time>2026-03-29T10:07:51.286Z</time></trkpt><trkpt lat="40.3089822" lon="15.066069"><ele>402.0</ele><time>2026-03-29T10:07:52.247Z</time></trkpt><trkpt lat="40.3090896" lon="15.0660154"><ele>402.6666666666667</ele><time>2026-03-29T10:07:53.258Z</time></trkpt><trkpt lat="40.3091837" lon="15.0659529"><ele>403.33333333333337</ele><time>2026-03-29T10:07:54.249Z</time></trkpt><trkpt lat="40.3092643" lon="15.0658975"><ele>404.0</ele><time>2026-03-29T10:07:55.256Z</time></trkpt><trkpt lat="40.3093424" lon="15.0658701"><ele>404.6666666666667</ele><time>2026-03-29T10:07:56.272Z</time></trkpt><trkpt lat="40.309415" lon="15.0658795"><ele>405.33333333333337</ele><time>2026-03-29T10:07:57.237Z</time></trkpt><trkpt lat="40.3094877" lon="15.0659318"><ele>406.0</ele><time>2026-03-29T10:07:58.246Z</time></trkpt><trkpt lat="40.3095446" lon="15.0660085"><ele>406.0</ele><time>2026-03-29T10:07:59.233Z</time></trkpt><trkpt lat="40.3095921" lon="15.0660946"><ele>406.0</ele><time>2026-03-29T10:08:00.238Z</time></trkpt><trkpt lat="40.3096498" lon="15.0661706"><ele>406.0</ele><time>2026-03-29T10:08:01.374Z</time></trkpt><trkpt lat="40.3097971" lon="15.0661928"><ele>406.0</ele><time>2026-03-29T10:08:03.246Z</time></trkpt><trkpt lat="40.3098983" lon="15.0661519"><ele>406.0</ele><time>2026-03-29T10:08:04.333Z</time></trkpt><trkpt lat="40.3100878" lon="15.0660342"><ele>405.20000000000005</ele><time>2026-03-29T10:08:06.268Z</time></trkpt><trkpt lat="40.3101858" lon="15.0659721"><ele>404.40000000000003</ele><time>2026-03-29T10:08:07.253Z</time></trkpt><trkpt lat="40.3102802" lon="15.0659158"><ele>403.6</ele><time>2026-03-29T10:08:08.239Z</time></trkpt><trkpt lat="40.3103734" lon="15.0658667"><ele>402.8</ele><time>2026-03-29T10:08:09.246Z</time></trkpt><trkpt lat="40.3104594" lon="15.065821"><ele>402.0</ele><time>2026-03-29T10:08:10.236Z</time></trkpt><trkpt lat="40.3105526" lon="15.0658009"><ele>401.8</ele><time>2026-03-29T10:08:11.286Z</time></trkpt><trkpt lat="40.3106381" lon="15.06581"><ele>401.6</ele><time>2026-03-29T10:08:12.221Z</time></trkpt><trkpt lat="40.3107325" lon="15.0658417"><ele>401.40000000000003</ele><time>2026-03-29T10:08:13.24Z</time></trkpt><trkpt lat="40.310826" lon="15.0658881"><ele>401.20000000000005</ele><time>2026-03-29T10:08:14.23Z</time></trkpt><trkpt lat="40.3109253" lon="15.065937"><ele>401.0</ele><time>2026-03-29T10:08:15.227Z</time></trkpt><trkpt lat="40.3110256" lon="15.0659857"><ele>401.0</ele><time>2026-03-29T10:08:16.237Z</time></trkpt><trkpt lat="40.3111231" lon="15.0660366"><ele>401.0</ele><time>2026-03-29T10:08:17.253Z</time></trkpt><trkpt lat="40.3112265" lon="15.0660981"><ele>401.0</ele><time>2026-03-29T10:08:18.268Z</time></trkpt><trkpt lat="40.3113273" lon="15.0661764"><ele>401.0</ele><time>2026-03-29T10:08:19.339Z</time></trkpt><trkpt lat="40.3115009" lon="15.0663098"><ele>398.4</ele><time>2026-03-29T10:08:21.271Z</time></trkpt><trkpt lat="40.3115991" lon="15.0663637"><ele>395.8</ele><time>2026-03-29T10:08:22.242Z</time></trkpt><trkpt lat="40.311709" lon="15.0664036"><ele>393.2</ele><time>2026-03-29T10:08:23.241Z</time></trkpt><trkpt lat="40.3118317" lon="15.0664245"><ele>390.59999999999997</ele><time>2026-03-29T10:08:24.335Z</time></trkpt><trkpt lat="40.3119294" lon="15.0664389"><ele>388.0</ele><time>2026-03-29T10:08:25.24Z</time></trkpt><trkpt lat="40.3120367" lon="15.0664499"><ele>388.0</ele><time>2026-03-29T10:08:26.228Z</time></trkpt><trkpt lat="40.3121499" lon="15.0664461"><ele>388.0</ele><time>2026-03-29T10:08:27.258Z</time></trkpt><trkpt lat="40.3122604" lon="15.0664278"><ele>388.0</ele><time>2026-03-29T10:08:28.236Z</time></trkpt><trkpt lat="40.312368" lon="15.0663928"><ele>388.0</ele><time>2026-03-29T10:08:29.23Z</time></trkpt><trkpt lat="40.3124702" lon="15.0663418"><ele>388.0</ele><time>2026-03-29T10:08:30.236Z</time></trkpt><trkpt lat="40.3125723" lon="15.066281"><ele>387.5</ele><time>2026-03-29T10:08:31.229Z</time></trkpt><trkpt lat="40.3126738" lon="15.0662083"><ele>387.0</ele><time>2026-03-29T10:08:32.245Z</time></trkpt><trkpt lat="40.3127625" lon="15.0661286"><ele>386.5</ele><time>2026-03-29T10:08:33.23Z</time></trkpt><trkpt lat="40.3128547" lon="15.0660406"><ele>386.0</ele><time>2026-03-29T10:08:34.267Z</time></trkpt><trkpt lat="40.3129409" lon="15.0659453"><ele>386.0</ele><time>2026-03-29T10:08:35.271Z</time></trkpt><trkpt lat="40.313024" lon="15.0658353"><ele>386.0</ele><time>2026-03-29T10:08:36.39Z</time></trkpt><trkpt lat="40.3131364" lon="15.0656451"><ele>386.0</ele><time>2026-03-29T10:08:38.251Z</time></trkpt><trkpt lat="40.3131932" lon="15.0655478"><ele>386.0</ele><time>2026-03-29T10:08:39.272Z</time></trkpt><trkpt lat="40.3132366" lon="15.0654737"><ele>385.6</ele><time>2026-03-29T10:08:40.277Z</time></trkpt><trkpt lat="40.3132923" lon="15.0653795"><ele>385.20000000000005</ele><time>2026-03-29T10:08:41.255Z</time></trkpt><trkpt lat="40.3133719" lon="15.0652462"><ele>384.79999999999995</ele><time>2026-03-29T10:08:43.275Z</time></trkpt><trkpt lat="40.3134193" lon="15.0651468"><ele>384.4</ele><time>2026-03-29T10:08:44.244Z</time></trkpt><trkpt lat="40.3134732" lon="15.0650267"><ele>384.0</ele><time>2026-03-29T10:08:45.262Z</time></trkpt><trkpt lat="40.3135203" lon="15.0649208"><ele>382.79999999999995</ele><time>2026-03-29T10:08:46.271Z</time></trkpt><trkpt lat="40.3135558" lon="15.0648316"><ele>381.59999999999997</ele><time>2026-03-29T10:08:47.272Z</time></trkpt><trkpt lat="40.3136259" lon="15.0647086"><ele>380.4</ele><time>2026-03-29T10:08:49.253Z</time></trkpt><trkpt lat="40.3136898" lon="15.0646448"><ele>379.2</ele><time>2026-03-29T10:08:51.252Z</time></trkpt><trkpt lat="40.313755" lon="15.0645758"><ele>378.0</ele><time>2026-03-29T10:08:53.263Z</time></trkpt><trkpt lat="40.3138472" lon="15.0644731"><ele>379.79999999999995</ele><time>2026-03-29T10:08:55.372Z</time></trkpt><trkpt lat="40.3139603" lon="15.0643614"><ele>381.6</ele><time>2026-03-29T10:08:57.278Z</time></trkpt><trkpt lat="40.3140186" lon="15.064296"><ele>383.4</ele><time>2026-03-29T10:08:58.263Z</time></trkpt><trkpt lat="40.3140805" lon="15.0642233"><ele>385.20000000000005</ele><time>2026-03-29T10:08:59.258Z</time></trkpt><trkpt lat="40.3141495" lon="15.0641525"><ele>387.0</ele><time>2026-03-29T10:09:00.253Z</time></trkpt><trkpt lat="40.3142273" lon="15.0640676"><ele>387.0</ele><time>2026-03-29T10:09:01.268Z</time></trkpt><trkpt lat="40.3143014" lon="15.0639969"><ele>387.0</ele><time>2026-03-29T10:09:02.235Z</time></trkpt><trkpt lat="40.3143644" lon="15.0639324"><ele>387.0</ele><time>2026-03-29T10:09:03.26Z</time></trkpt><trkpt lat="40.3144319" lon="15.0638538"><ele>387.0</ele><time>2026-03-29T10:09:04.26Z</time></trkpt><trkpt lat="40.3145" lon="15.0637815"><ele>387.0</ele><time>2026-03-29T10:09:05.26Z</time></trkpt><trkpt lat="40.3145669" lon="15.0637094"><ele>387.0</ele><time>2026-03-29T10:09:06.281Z</time></trkpt><trkpt lat="40.3146295" lon="15.0636342"><ele>387.0</ele><time>2026-03-29T10:09:07.283Z</time></trkpt><trkpt lat="40.3146962" lon="15.0635581"><ele>387.0</ele><time>2026-03-29T10:09:08.246Z</time></trkpt><trkpt lat="40.314771" lon="15.0634777"><ele>387.0</ele><time>2026-03-29T10:09:09.278Z</time></trkpt><trkpt lat="40.3148445" lon="15.0634022"><ele>387.0</ele><time>2026-03-29T10:09:10.26Z</time></trkpt><trkpt lat="40.3149232" lon="15.0633139"><ele>387.0</ele><time>2026-03-29T10:09:11.276Z</time></trkpt><trkpt lat="40.3150023" lon="15.0632356"><ele>384.5</ele><time>2026-03-29T10:09:12.276Z</time></trkpt><trkpt lat="40.3150701" lon="15.0631715"><ele>382.0</ele><time>2026-03-29T10:09:13.254Z</time></trkpt><trkpt lat="40.3151505" lon="15.0631024"><ele>379.5</ele><time>2026-03-29T10:09:14.279Z</time></trkpt><trkpt lat="40.3152265" lon="15.0630338"><ele>377.0</ele><time>2026-03-29T10:09:15.271Z</time></trkpt><trkpt lat="40.3152929" lon="15.0629698"><ele>374.5</ele><time>2026-03-29T10:09:16.279Z</time></trkpt><trkpt lat="40.315358" lon="15.062898"><ele>372.0</ele><time>2026-03-29T10:09:18.244Z</time></trkpt><trkpt lat="40.3154203" lon="15.0628381"><ele>372.0</ele><time>2026-03-29T10:09:20.244Z</time></trkpt><trkpt lat="40.3154725" lon="15.0627748"><ele>372.0</ele><time>2026-03-29T10:09:22.377Z</time></trkpt><trkpt lat="40.3155243" lon="15.0626801"><ele>372.0</ele><time>2026-03-29T10:09:25.249Z</time></trkpt><trkpt lat="40.3155587" lon="15.0626105"><ele>372.0</ele><time>2026-03-29T10:09:27.274Z</time></trkpt><trkpt lat="40.3155985" lon="15.0625427"><ele>372.0</ele><time>2026-03-29T10:09:29.253Z</time></trkpt><trkpt lat="40.3156854" lon="15.0624396"><ele>372.0</ele><time>2026-03-29T10:09:31.241Z</time></trkpt><trkpt lat="40.3157531" lon="15.0623826"><ele>369.40000000000003</ele><time>2026-03-29T10:09:32.341Z</time></trkpt><trkpt lat="40.3158931" lon="15.062261"><ele>366.8</ele><time>2026-03-29T10:09:34.249Z</time></trkpt><trkpt lat="40.3159701" lon="15.062202"><ele>364.2</ele><time>2026-03-29T10:09:35.265Z</time></trkpt><trkpt lat="40.3160502" lon="15.062162"><ele>361.6</ele><time>2026-03-29T10:09:36.28Z</time></trkpt><trkpt lat="40.3161331" lon="15.0621331"><ele>359.0</ele><time>2026-03-29T10:09:37.269Z</time></trkpt><trkpt lat="40.3162172" lon="15.0621079"><ele>359.0</ele><time>2026-03-29T10:09:38.246Z</time></trkpt><trkpt lat="40.316309" lon="15.0620858"><ele>359.0</ele><time>2026-03-29T10:09:39.251Z</time></trkpt><trkpt lat="40.3164006" lon="15.0620554"><ele>359.0</ele><time>2026-03-29T10:09:40.251Z</time></trkpt><trkpt lat="40.3164947" lon="15.0620027"><ele>359.0</ele><time>2026-03-29T10:09:41.256Z</time></trkpt><trkpt lat="40.3165918" lon="15.0619362"><ele>359.0</ele><time>2026-03-29T10:09:42.25Z</time></trkpt><trkpt lat="40.3166907" lon="15.0618509"><ele>358.75</ele><time>2026-03-29T10:09:43.268Z</time></trkpt><trkpt lat="40.3167892" lon="15.0617639"><ele>358.5</ele><time>2026-03-29T10:09:44.246Z</time></trkpt><trkpt lat="40.3168884" lon="15.0616725"><ele>358.25</ele><time>2026-03-29T10:09:45.268Z</time></trkpt><trkpt lat="40.3169902" lon="15.0615835"><ele>358.0</ele><time>2026-03-29T10:09:46.272Z</time></trkpt><trkpt lat="40.3170877" lon="15.0614906"><ele>358.0</ele><time>2026-03-29T10:09:47.274Z</time></trkpt><trkpt lat="40.317186" lon="15.0614175"><ele>358.0</ele><time>2026-03-29T10:09:48.274Z</time></trkpt><trkpt lat="40.3173091" lon="15.0613522"><ele>358.0</ele><time>2026-03-29T10:09:49.315Z</time></trkpt><trkpt lat="40.3174342" lon="15.0613118"><ele>358.0</ele><time>2026-03-29T10:09:50.254Z</time></trkpt><trkpt lat="40.3175716" lon="15.061293"><ele>359.5</ele><time>2026-03-29T10:09:51.281Z</time></trkpt><trkpt lat="40.3176958" lon="15.0612821"><ele>361.0</ele><time>2026-03-29T10:09:52.261Z</time></trkpt><trkpt lat="40.3178346" lon="15.0612632"><ele>362.5</ele><time>2026-03-29T10:09:53.357Z</time></trkpt><trkpt lat="40.3179583" lon="15.0612235"><ele>364.0</ele><time>2026-03-29T10:09:54.367Z</time></trkpt><trkpt lat="40.3181773" lon="15.0610938"><ele>364.0</ele><time>2026-03-29T10:09:56.284Z</time></trkpt><trkpt lat="40.3182871" lon="15.0610189"><ele>364.0</ele><time>2026-03-29T10:09:57.266Z</time></trkpt><trkpt lat="40.3183939" lon="15.0609626"><ele>364.0</ele><time>2026-03-29T10:09:58.258Z</time></trkpt><trkpt lat="40.3184987" lon="15.0609255"><ele>364.0</ele><time>2026-03-29T10:09:59.264Z</time></trkpt><trkpt lat="40.3186007" lon="15.0609017"><ele>364.0</ele><time>2026-03-29T10:10:00.263Z</time></trkpt><trkpt lat="40.3187148" lon="15.0608882"><ele>364.0</ele><time>2026-03-29T10:10:01.249Z</time></trkpt><trkpt lat="40.3188555" lon="15.0608859"><ele>364.0</ele><time>2026-03-29T10:10:02.257Z</time></trkpt><trkpt lat="40.3190105" lon="15.0608904"><ele>364.0</ele><time>2026-03-29T10:10:03.258Z</time></trkpt><trkpt lat="40.3191576" lon="15.0608911"><ele>363.0</ele><time>2026-03-29T10:10:04.278Z</time></trkpt><trkpt lat="40.3193005" lon="15.0608818"><ele>362.0</ele><time>2026-03-29T10:10:05.277Z</time></trkpt><trkpt lat="40.3194322" lon="15.0608732"><ele>361.0</ele><time>2026-03-29T10:10:06.264Z</time></trkpt><trkpt lat="40.3195739" lon="15.0608566"><ele>360.0</ele><time>2026-03-29T10:10:07.273Z</time></trkpt><trkpt lat="40.3197142" lon="15.0608161"><ele>366.5</ele><time>2026-03-29T10:10:08.27Z</time></trkpt><trkpt lat="40.3198477" lon="15.060774"><ele>373.0</ele><time>2026-03-29T10:10:09.263Z</time></trkpt><trkpt lat="40.3199725" lon="15.0607369"><ele>379.5</ele><time>2026-03-29T10:10:10.251Z</time></trkpt><trkpt lat="40.320118" lon="15.0607086"><ele>386.0</ele><time>2026-03-29T10:10:11.363Z</time></trkpt><trkpt lat="40.3203556" lon="15.0606674"><ele>386.0</ele><time>2026-03-29T10:10:13.25Z</time></trkpt><trkpt lat="40.3204811" lon="15.0606501"><ele>386.0</ele><time>2026-03-29T10:10:14.26Z</time></trkpt><trkpt lat="40.3206075" lon="15.0606493"><ele>386.0</ele><time>2026-03-29T10:10:15.239Z</time></trkpt><trkpt lat="40.3207434" lon="15.0606666"><ele>386.0</ele><time>2026-03-29T10:10:16.273Z</time></trkpt><trkpt lat="40.3208738" lon="15.0607024"><ele>384.75</ele><time>2026-03-29T10:10:17.256Z</time></trkpt><trkpt lat="40.3210045" lon="15.0607596"><ele>383.5</ele><time>2026-03-29T10:10:18.258Z</time></trkpt><trkpt lat="40.3211312" lon="15.0608354"><ele>382.25</ele><time>2026-03-29T10:10:19.248Z</time></trkpt><trkpt lat="40.3212528" lon="15.0609255"><ele>381.0</ele><time>2026-03-29T10:10:20.235Z</time></trkpt><trkpt lat="40.3213683" lon="15.0610231"><ele>374.5</ele><time>2026-03-29T10:10:21.26Z</time></trkpt><trkpt lat="40.3214761" lon="15.0611142"><ele>368.0</ele><time>2026-03-29T10:10:22.27Z</time></trkpt><trkpt lat="40.3215908" lon="15.0611845"><ele>361.5</ele><time>2026-03-29T10:10:23.267Z</time></trkpt><trkpt lat="40.3217107" lon="15.0612379"><ele>355.0</ele><time>2026-03-29T10:10:24.258Z</time></trkpt><trkpt lat="40.3218281" lon="15.0612745"><ele>355.0</ele><time>2026-03-29T10:10:25.254Z</time></trkpt><trkpt lat="40.3219486" lon="15.0612816"><ele>355.0</ele><time>2026-03-29T10:10:26.319Z</time></trkpt><trkpt lat="40.3220671" lon="15.061255"><ele>355.0</ele><time>2026-03-29T10:10:27.379Z</time></trkpt><trkpt lat="40.3222692" lon="15.0611657"><ele>355.0</ele><time>2026-03-29T10:10:29.27Z</time></trkpt><trkpt lat="40.3223715" lon="15.0611531"><ele>355.0</ele><time>2026-03-29T10:10:30.263Z</time></trkpt><trkpt lat="40.3224796" lon="15.0611774"><ele>355.0</ele><time>2026-03-29T10:10:31.267Z</time></trkpt><trkpt lat="40.3225824" lon="15.0612347"><ele>355.0</ele><time>2026-03-29T10:10:32.252Z</time></trkpt><trkpt lat="40.3226753" lon="15.06133"><ele>355.0</ele><time>2026-03-29T10:10:33.257Z</time></trkpt><trkpt lat="40.3227575" lon="15.0614561"><ele>355.0</ele><time>2026-03-29T10:10:34.307Z</time></trkpt><trkpt lat="40.3228305" lon="15.0615837"><ele>355.0</ele><time>2026-03-29T10:10:35.279Z</time></trkpt><trkpt lat="40.3229045" lon="15.0617204"><ele>355.0</ele><time>2026-03-29T10:10:36.277Z</time></trkpt><trkpt lat="40.3229708" lon="15.0618617"><ele>355.0</ele><time>2026-03-29T10:10:37.246Z</time></trkpt><trkpt lat="40.323044" lon="15.0620159"><ele>351.25</ele><time>2026-03-29T10:10:38.263Z</time></trkpt><trkpt lat="40.3231171" lon="15.0621633"><ele>347.5</ele><time>2026-03-29T10:10:39.279Z</time></trkpt><trkpt lat="40.3231873" lon="15.0622991"><ele>343.75</ele><time>2026-03-29T10:10:40.282Z</time></trkpt><trkpt lat="40.3232646" lon="15.0624197"><ele>340.0</ele><time>2026-03-29T10:10:41.267Z</time></trkpt><trkpt lat="40.3233564" lon="15.06253"><ele>340.0</ele><time>2026-03-29T10:10:42.259Z</time></trkpt><trkpt lat="40.3234662" lon="15.0626355"><ele>340.0</ele><time>2026-03-29T10:10:43.337Z</time></trkpt><trkpt lat="40.3235604" lon="15.0627123"><ele>340.0</ele><time>2026-03-29T10:10:44.272Z</time></trkpt><trkpt lat="40.323662" lon="15.0627903"><ele>340.0</ele><time>2026-03-29T10:10:45.273Z</time></trkpt><trkpt lat="40.3237571" lon="15.0628756"><ele>340.0</ele><time>2026-03-29T10:10:46.244Z</time></trkpt><trkpt lat="40.3238382" lon="15.0629904"><ele>340.0</ele><time>2026-03-29T10:10:47.248Z</time></trkpt><trkpt lat="40.3239089" lon="15.063127"><ele>340.0</ele><time>2026-03-29T10:10:48.258Z</time></trkpt><trkpt lat="40.3239824" lon="15.0632682"><ele>340.0</ele><time>2026-03-29T10:10:49.275Z</time></trkpt><trkpt lat="40.3240696" lon="15.0633894"><ele>339.0</ele><time>2026-03-29T10:10:50.278Z</time></trkpt><trkpt lat="40.3241642" lon="15.0634962"><ele>338.0</ele><time>2026-03-29T10:10:51.238Z</time></trkpt><trkpt lat="40.3242746" lon="15.0635961"><ele>337.0</ele><time>2026-03-29T10:10:52.251Z</time></trkpt><trkpt lat="40.3243926" lon="15.0636787"><ele>336.0</ele><time>2026-03-29T10:10:53.263Z</time></trkpt><trkpt lat="40.3245146" lon="15.0637534"><ele>336.0</ele><time>2026-03-29T10:10:54.271Z</time></trkpt><trkpt lat="40.3246453" lon="15.063829"><ele>336.0</ele><time>2026-03-29T10:10:55.366Z</time></trkpt><trkpt lat="40.3248768" lon="15.0639634"><ele>336.0</ele><time>2026-03-29T10:10:57.303Z</time></trkpt><trkpt lat="40.3249881" lon="15.0640262"><ele>335.25</ele><time>2026-03-29T10:10:58.247Z</time></trkpt><trkpt lat="40.3251102" lon="15.0640871"><ele>334.5</ele><time>2026-03-29T10:10:59.264Z</time></trkpt><trkpt lat="40.3252359" lon="15.0641397"><ele>333.75</ele><time>2026-03-29T10:11:00.263Z</time></trkpt><trkpt lat="40.3253626" lon="15.0641872"><ele>333.0</ele><time>2026-03-29T10:11:01.245Z</time></trkpt><trkpt lat="40.3254979" lon="15.0642348"><ele>339.0</ele><time>2026-03-29T10:11:02.267Z</time></trkpt><trkpt lat="40.3256396" lon="15.0642797"><ele>345.0</ele><time>2026-03-29T10:11:03.273Z</time></trkpt><trkpt lat="40.3257947" lon="15.0643262"><ele>351.0</ele><time>2026-03-29T10:11:04.256Z</time></trkpt><trkpt lat="40.3259596" lon="15.0643876"><ele>351.0</ele><time>2026-03-29T10:11:05.341Z</time></trkpt><trkpt lat="40.3260996" lon="15.0644574"><ele>351.0</ele><time>2026-03-29T10:11:06.27Z</time></trkpt><trkpt lat="40.3262613" lon="15.0645551"><ele>351.0</ele><time>2026-03-29T10:11:07.269Z</time></trkpt><trkpt lat="40.3264294" lon="15.0646739"><ele>350.3333333333333</ele><time>2026-03-29T10:11:08.243Z</time></trkpt><trkpt lat="40.3266166" lon="15.0648122"><ele>349.66666666666663</ele><time>2026-03-29T10:11:09.27Z</time></trkpt><trkpt lat="40.3267845" lon="15.0649304"><ele>349.0</ele><time>2026-03-29T10:11:10.25Z</time></trkpt><trkpt lat="40.3269544" lon="15.0650514"><ele>348.0</ele><time>2026-03-29T10:11:11.246Z</time></trkpt><trkpt lat="40.3271293" lon="15.0651787"><ele>347.0</ele><time>2026-03-29T10:11:12.271Z</time></trkpt><trkpt lat="40.3272894" lon="15.0652925"><ele>346.0</ele><time>2026-03-29T10:11:13.252Z</time></trkpt><trkpt lat="40.32745" lon="15.0653989"><ele>346.0</ele><time>2026-03-29T10:11:14.258Z</time></trkpt><trkpt lat="40.3276008" lon="15.0654881"><ele>346.0</ele><time>2026-03-29T10:11:15.23Z</time></trkpt><trkpt lat="40.3277623" lon="15.0655845"><ele>346.0</ele><time>2026-03-29T10:11:16.259Z</time></trkpt><trkpt lat="40.3279271" lon="15.0656817"><ele>344.66666666666663</ele><time>2026-03-29T10:11:17.242Z</time></trkpt><trkpt lat="40.3280973" lon="15.0657642"><ele>343.3333333333333</ele><time>2026-03-29T10:11:18.268Z</time></trkpt><trkpt lat="40.3282602" lon="15.0658336"><ele>342.0</ele><time>2026-03-29T10:11:19.256Z</time></trkpt><trkpt lat="40.3284116" lon="15.0659076"><ele>349.3333333333333</ele><time>2026-03-29T10:11:20.246Z</time></trkpt><trkpt lat="40.3285542" lon="15.0659919"><ele>356.66666666666663</ele><time>2026-03-29T10:11:21.264Z</time></trkpt><trkpt lat="40.3287015" lon="15.066089"><ele>364.0</ele><time>2026-03-29T10:11:22.336Z</time></trkpt><trkpt lat="40.3288252" lon="15.0661704"><ele>361.75</ele><time>2026-03-29T10:11:23.249Z</time></trkpt><trkpt lat="40.3289604" lon="15.0662393"><ele>359.5</ele><time>2026-03-29T10:11:24.265Z</time></trkpt><trkpt lat="40.3290892" lon="15.0662938"><ele>357.25</ele><time>2026-03-29T10:11:25.256Z</time></trkpt><trkpt lat="40.3292151" lon="15.0663411"><ele>355.0</ele><time>2026-03-29T10:11:26.254Z</time></trkpt><trkpt lat="40.329329" lon="15.0663783"><ele>355.0</ele><time>2026-03-29T10:11:27.234Z</time></trkpt><trkpt lat="40.3294339" lon="15.066408"><ele>355.0</ele><time>2026-03-29T10:11:28.257Z</time></trkpt><trkpt lat="40.329518" lon="15.066431"><ele>355.0</ele><time>2026-03-29T10:11:29.261Z</time></trkpt><trkpt lat="40.3295845" lon="15.0664499"><ele>355.0</ele><time>2026-03-29T10:11:30.264Z</time></trkpt><trkpt lat="40.3296668" lon="15.0665099"><ele>355.0</ele><time>2026-03-29T10:11:32.239Z</time></trkpt><trkpt lat="40.3296563" lon="15.0666145"><ele>355.0</ele><time>2026-03-29T10:11:34.231Z</time></trkpt><trkpt lat="40.3295885" lon="15.0666381"><ele>355.0</ele><time>2026-03-29T10:11:36.24Z</time></trkpt><trkpt lat="40.3294507" lon="15.0665934"><ele>355.0</ele><time>2026-03-29T10:11:38.427Z</time></trkpt><trkpt lat="40.3292643" lon="15.0665369"><ele>355.0</ele><time>2026-03-29T10:11:40.316Z</time></trkpt><trkpt lat="40.3291384" lon="15.0665028"><ele>355.0</ele><time>2026-03-29T10:11:41.304Z</time></trkpt><trkpt lat="40.3289834" lon="15.0664649"><ele>355.0</ele><time>2026-03-29T10:11:42.309Z</time></trkpt><trkpt lat="40.3288404" lon="15.0664249"><ele>355.0</ele><time>2026-03-29T10:11:43.288Z</time></trkpt><trkpt lat="40.3287043" lon="15.0663876"><ele>355.0</ele><time>2026-03-29T10:11:44.309Z</time></trkpt><trkpt lat="40.3285678" lon="15.0663501"><ele>357.25</ele><time>2026-03-29T10:11:45.33Z</time></trkpt><trkpt lat="40.3284411" lon="15.0663191"><ele>359.5</ele><time>2026-03-29T10:11:46.291Z</time></trkpt><trkpt lat="40.3283143" lon="15.0662977"><ele>361.75</ele><time>2026-03-29T10:11:47.331Z</time></trkpt><trkpt lat="40.3281897" lon="15.0662882"><ele>364.0</ele><time>2026-03-29T10:11:48.34Z</time></trkpt><trkpt lat="40.3280756" lon="15.0662926"><ele>365.66666666666663</ele><time>2026-03-29T10:11:49.306Z</time></trkpt><trkpt lat="40.3279698" lon="15.0662979"><ele>367.3333333333333</ele><time>2026-03-29T10:11:50.325Z</time></trkpt><trkpt lat="40.32788" lon="15.066302"><ele>369.0</ele><time>2026-03-29T10:11:51.299Z</time></trkpt><trkpt lat="40.3278112" lon="15.0663109"><ele>370.6666666666667</ele><time>2026-03-29T10:11:52.392Z</time></trkpt><trkpt lat="40.3277341" lon="15.0663554"><ele>372.33333333333337</ele><time>2026-03-29T10:11:54.325Z</time></trkpt><trkpt lat="40.3277054" lon="15.0664539"><ele>374.0</ele><time>2026-03-29T10:11:56.287Z</time></trkpt><trkpt lat="40.3277645" lon="15.0665424"><ele>374.0</ele><time>2026-03-29T10:11:58.296Z</time></trkpt><trkpt lat="40.3278746" lon="15.0665617"><ele>374.0</ele><time>2026-03-29T10:12:00.279Z</time></trkpt><trkpt lat="40.3279413" lon="15.0665642"><ele>374.0</ele><time>2026-03-29T10:12:01.29Z</time></trkpt><trkpt lat="40.3280234" lon="15.0665677"><ele>374.0</ele><time>2026-03-29T10:12:02.298Z</time></trkpt><trkpt lat="40.3281328" lon="15.0665715"><ele>374.0</ele><time>2026-03-29T10:12:03.297Z</time></trkpt><trkpt lat="40.3282482" lon="15.0665869"><ele>376.5</ele><time>2026-03-29T10:12:04.301Z</time></trkpt><trkpt lat="40.3283759" lon="15.0666216"><ele>379.0</ele><time>2026-03-29T10:12:05.274Z</time></trkpt><trkpt lat="40.3285202" lon="15.0666926"><ele>381.5</ele><time>2026-03-29T10:12:06.295Z</time></trkpt><trkpt lat="40.3286605" lon="15.0667764"><ele>384.0</ele><time>2026-03-29T10:12:07.271Z</time></trkpt><trkpt lat="40.3287958" lon="15.0668635"><ele>382.5</ele><time>2026-03-29T10:12:08.307Z</time></trkpt><trkpt lat="40.3289223" lon="15.0669484"><ele>381.0</ele><time>2026-03-29T10:12:09.315Z</time></trkpt><trkpt lat="40.3290539" lon="15.0670527"><ele>379.5</ele><time>2026-03-29T10:12:10.312Z</time></trkpt><trkpt lat="40.3291782" lon="15.0671619"><ele>378.0</ele><time>2026-03-29T10:12:11.311Z</time></trkpt><trkpt lat="40.3293208" lon="15.067263"><ele>378.0</ele><time>2026-03-29T10:12:12.307Z</time></trkpt><trkpt lat="40.3295023" lon="15.0673511"><ele>378.0</ele><time>2026-03-29T10:12:13.397Z</time></trkpt><trkpt lat="40.3296582" lon="15.0674074"><ele>378.0</ele><time>2026-03-29T10:12:14.312Z</time></trkpt><trkpt lat="40.3298243" lon="15.0674668"><ele>382.66666666666663</ele><time>2026-03-29T10:12:15.351Z</time></trkpt><trkpt lat="40.3299731" lon="15.0675062"><ele>387.3333333333333</ele><time>2026-03-29T10:12:16.309Z</time></trkpt><trkpt lat="40.3301343" lon="15.067524"><ele>392.0</ele><time>2026-03-29T10:12:17.334Z</time></trkpt><trkpt lat="40.3302879" lon="15.0675197"><ele>392.0</ele><time>2026-03-29T10:12:18.311Z</time></trkpt><trkpt lat="40.3304362" lon="15.0675082"><ele>392.0</ele><time>2026-03-29T10:12:19.258Z</time></trkpt><trkpt lat="40.3305889" lon="15.0674771"><ele>392.0</ele><time>2026-03-29T10:12:20.247Z</time></trkpt><trkpt lat="40.3307431" lon="15.0674098"><ele>387.3333333333333</ele><time>2026-03-29T10:12:21.243Z</time></trkpt><trkpt lat="40.3308992" lon="15.0673158"><ele>382.66666666666663</ele><time>2026-03-29T10:12:22.258Z</time></trkpt><trkpt lat="40.3310573" lon="15.0672221"><ele>378.0</ele><time>2026-03-29T10:12:23.227Z</time></trkpt><trkpt lat="40.3312257" lon="15.0671354"><ele>382.33333333333337</ele><time>2026-03-29T10:12:24.237Z</time></trkpt><trkpt lat="40.3313954" lon="15.0670686"><ele>386.6666666666667</ele><time>2026-03-29T10:12:25.248Z</time></trkpt><trkpt lat="40.3315538" lon="15.066996"><ele>391.0</ele><time>2026-03-29T10:12:26.255Z</time></trkpt><trkpt lat="40.3317181" lon="15.0669134"><ele>391.0</ele><time>2026-03-29T10:12:27.266Z</time></trkpt><trkpt lat="40.3318738" lon="15.0668299"><ele>391.0</ele><time>2026-03-29T10:12:28.274Z</time></trkpt><trkpt lat="40.3320148" lon="15.0667596"><ele>391.0</ele><time>2026-03-29T10:12:29.23Z</time></trkpt><trkpt lat="40.3321772" lon="15.0666827"><ele>396.0</ele><time>2026-03-29T10:12:30.32Z</time></trkpt><trkpt lat="40.3323114" lon="15.0666145"><ele>401.0</ele><time>2026-03-29T10:12:31.226Z</time></trkpt><trkpt lat="40.3324629" lon="15.0665375"><ele>406.0</ele><time>2026-03-29T10:12:32.258Z</time></trkpt><trkpt lat="40.3326107" lon="15.0664736"><ele>398.33333333333337</ele><time>2026-03-29T10:12:33.238Z</time></trkpt><trkpt lat="40.3327729" lon="15.0664215"><ele>390.6666666666667</ele><time>2026-03-29T10:12:34.349Z</time></trkpt><trkpt lat="40.3329103" lon="15.0663921"><ele>383.0</ele><time>2026-03-29T10:12:35.279Z</time></trkpt><trkpt lat="40.3330567" lon="15.0663725"><ele>383.0</ele><time>2026-03-29T10:12:36.237Z</time></trkpt><trkpt lat="40.3332105" lon="15.0663563"><ele>383.0</ele><time>2026-03-29T10:12:37.247Z</time></trkpt><trkpt lat="40.3333619" lon="15.0663402"><ele>383.0</ele><time>2026-03-29T10:12:38.242Z</time></trkpt><trkpt lat="40.3335162" lon="15.0663287"><ele>383.0</ele><time>2026-03-29T10:12:39.249Z</time></trkpt><trkpt lat="40.3336674" lon="15.066321"><ele>383.0</ele><time>2026-03-29T10:12:40.223Z</time></trkpt><trkpt lat="40.333827" lon="15.0663083"><ele>383.0</ele><time>2026-03-29T10:12:41.245Z</time></trkpt><trkpt lat="40.3339806" lon="15.0662947"><ele>385.33333333333337</ele><time>2026-03-29T10:12:42.236Z</time></trkpt><trkpt lat="40.3341312" lon="15.066277"><ele>387.6666666666667</ele><time>2026-03-29T10:12:43.261Z</time></trkpt><trkpt lat="40.3342759" lon="15.0662452"><ele>390.0</ele><time>2026-03-29T10:12:44.266Z</time></trkpt><trkpt lat="40.3344326" lon="15.0661928"><ele>390.0</ele><time>2026-03-29T10:12:45.318Z</time></trkpt><trkpt lat="40.3346881" lon="15.066098"><ele>390.0</ele><time>2026-03-29T10:12:47.236Z</time></trkpt><trkpt lat="40.3348064" lon="15.0660577"><ele>390.0</ele><time>2026-03-29T10:12:48.247Z</time></trkpt><trkpt lat="40.3348998" lon="15.0660249"><ele>392.6</ele><time>2026-03-29T10:12:49.243Z</time></trkpt><trkpt lat="40.334979" lon="15.0659971"><ele>395.2</ele><time>2026-03-29T10:12:50.241Z</time></trkpt><trkpt lat="40.3350573" lon="15.0659654"><ele>397.79999999999995</ele><time>2026-03-29T10:12:51.271Z</time></trkpt><trkpt lat="40.3351452" lon="15.0659299"><ele>400.4</ele><time>2026-03-29T10:12:52.241Z</time></trkpt><trkpt lat="40.3352631" lon="15.0658896"><ele>403.0</ele><time>2026-03-29T10:12:53.271Z</time></trkpt><trkpt lat="40.335391" lon="15.0658368"><ele>403.0</ele><time>2026-03-29T10:12:54.272Z</time></trkpt><trkpt lat="40.3355172" lon="15.0657881"><ele>403.0</ele><time>2026-03-29T10:12:55.243Z</time></trkpt><trkpt lat="40.3356663" lon="15.0657262"><ele>403.0</ele><time>2026-03-29T10:12:56.289Z</time></trkpt><trkpt lat="40.3358109" lon="15.0656682"><ele>403.0</ele><time>2026-03-29T10:12:57.25Z</time></trkpt><trkpt lat="40.3359684" lon="15.0656066"><ele>405.6666666666667</ele><time>2026-03-29T10:12:58.24Z</time></trkpt><trkpt lat="40.3361302" lon="15.0655437"><ele>408.33333333333337</ele><time>2026-03-29T10:12:59.251Z</time></trkpt><trkpt lat="40.3362728" lon="15.0654837"><ele>411.0</ele><time>2026-03-29T10:13:00.276Z</time></trkpt><trkpt lat="40.3364072" lon="15.0654277"><ele>411.0</ele><time>2026-03-29T10:13:01.261Z</time></trkpt><trkpt lat="40.3365429" lon="15.0653699"><ele>411.0</ele><time>2026-03-29T10:13:02.262Z</time></trkpt><trkpt lat="40.3366732" lon="15.0653141"><ele>411.0</ele><time>2026-03-29T10:13:03.256Z</time></trkpt><trkpt lat="40.336796" lon="15.0652709"><ele>411.0</ele><time>2026-03-29T10:13:04.274Z</time></trkpt><trkpt lat="40.3369173" lon="15.0652477"><ele>411.0</ele><time>2026-03-29T10:13:05.279Z</time></trkpt><trkpt lat="40.3370425" lon="15.065238"><ele>411.0</ele><time>2026-03-29T10:13:06.365Z</time></trkpt><trkpt lat="40.3372946" lon="15.0652397"><ele>411.0</ele><time>2026-03-29T10:13:08.294Z</time></trkpt><trkpt lat="40.3374588" lon="15.065249"><ele>408.75</ele><time>2026-03-29T10:13:09.28Z</time></trkpt><trkpt lat="40.3375882" lon="15.0652635"><ele>406.5</ele><time>2026-03-29T10:13:10.288Z</time></trkpt><trkpt lat="40.3377103" lon="15.0652847"><ele>404.25</ele><time>2026-03-29T10:13:11.287Z</time></trkpt><trkpt lat="40.3378261" lon="15.06532"><ele>402.0</ele><time>2026-03-29T10:13:12.268Z</time></trkpt><trkpt lat="40.3379495" lon="15.0653635"><ele>402.0</ele><time>2026-03-29T10:13:13.266Z</time></trkpt><trkpt lat="40.3380478" lon="15.0654247"><ele>402.0</ele><time>2026-03-29T10:13:14.257Z</time></trkpt><trkpt lat="40.3381668" lon="15.0655038"><ele>402.0</ele><time>2026-03-29T10:13:15.262Z</time></trkpt><trkpt lat="40.3382842" lon="15.0655934"><ele>402.0</ele><time>2026-03-29T10:13:16.25Z</time></trkpt><trkpt lat="40.3383522" lon="15.0656754"><ele>402.25</ele><time>2026-03-29T10:13:17.23Z</time></trkpt><trkpt lat="40.3384114" lon="15.0657721"><ele>402.5</ele><time>2026-03-29T10:13:18.229Z</time></trkpt><trkpt lat="40.3384805" lon="15.0659764"><ele>402.75</ele><time>2026-03-29T10:13:20.342Z</time></trkpt><trkpt lat="40.3385225" lon="15.0660779"><ele>403.0</ele><time>2026-03-29T10:13:21.252Z</time></trkpt><trkpt lat="40.3385882" lon="15.0661826"><ele>403.0</ele><time>2026-03-29T10:13:22.263Z</time></trkpt><trkpt lat="40.3386723" lon="15.066283"><ele>403.0</ele><time>2026-03-29T10:13:23.253Z</time></trkpt><trkpt lat="40.3387927" lon="15.0663922"><ele>403.0</ele><time>2026-03-29T10:13:24.435Z</time></trkpt><trkpt lat="40.3389654" lon="15.0665519"><ele>405.59999999999997</ele><time>2026-03-29T10:13:26.255Z</time></trkpt><trkpt lat="40.3390481" lon="15.066646"><ele>408.2</ele><time>2026-03-29T10:13:27.256Z</time></trkpt><trkpt lat="40.3391213" lon="15.0667396"><ele>410.8</ele><time>2026-03-29T10:13:28.252Z</time></trkpt><trkpt lat="40.3391947" lon="15.0668329"><ele>413.4</ele><time>2026-03-29T10:13:29.257Z</time></trkpt><trkpt lat="40.3392664" lon="15.0669216"><ele>416.0</ele><time>2026-03-29T10:13:30.276Z</time></trkpt><trkpt lat="40.3393254" lon="15.0669867"><ele>416.0</ele><time>2026-03-29T10:13:31.255Z</time></trkpt><trkpt lat="40.3393833" lon="15.0669323"><ele>416.0</ele><time>2026-03-29T10:13:36.272Z</time></trkpt><trkpt lat="40.339517" lon="15.0668848"><ele>416.0</ele><time>2026-03-29T10:13:38.293Z</time></trkpt><trkpt lat="40.3396171" lon="15.0668678"><ele>416.0</ele><time>2026-03-29T10:13:39.296Z</time></trkpt><trkpt lat="40.339757" lon="15.0669121"><ele>432.0</ele><time>2026-03-29T10:13:40.26Z</time></trkpt><trkpt lat="40.3401464" lon="15.0673308"><ele>432.0</ele><time>2026-03-29T10:13:41.283Z</time></trkpt><trkpt lat="40.3402746" lon="15.0673703"><ele>432.0</ele><time>2026-03-29T10:13:42.339Z</time></trkpt><trkpt lat="40.34039" lon="15.0674057"><ele>432.0</ele><time>2026-03-29T10:13:43.273Z</time></trkpt><trkpt lat="40.3405075" lon="15.0674516"><ele>432.0</ele><time>2026-03-29T10:13:44.283Z</time></trkpt><trkpt lat="40.3406118" lon="15.0675183"><ele>428.5</ele><time>2026-03-29T10:13:45.263Z</time></trkpt><trkpt lat="40.3407067" lon="15.0676045"><ele>425.0</ele><time>2026-03-29T10:13:46.293Z</time></trkpt><trkpt lat="40.3407845" lon="15.0677057"><ele>421.5</ele><time>2026-03-29T10:13:47.265Z</time></trkpt><trkpt lat="40.3408663" lon="15.0678311"><ele>418.0</ele><time>2026-03-29T10:13:48.246Z</time></trkpt><trkpt lat="40.3409478" lon="15.0679463"><ele>418.0</ele><time>2026-03-29T10:13:49.276Z</time></trkpt><trkpt lat="40.3410277" lon="15.0680256"><ele>418.0</ele><time>2026-03-29T10:13:50.267Z</time></trkpt><trkpt lat="40.3410928" lon="15.0680937"><ele>418.0</ele><time>2026-03-29T10:13:51.246Z</time></trkpt><trkpt lat="40.341137" lon="15.0681874"><ele>418.0</ele><time>2026-03-29T10:13:52.25Z</time></trkpt><trkpt lat="40.3411625" lon="15.0683201"><ele>418.0</ele><time>2026-03-29T10:13:53.25Z</time></trkpt><trkpt lat="40.3411947" lon="15.0685004"><ele>414.5</ele><time>2026-03-29T10:13:54.246Z</time></trkpt><trkpt lat="40.341237" lon="15.0686762"><ele>411.0</ele><time>2026-03-29T10:13:55.259Z</time></trkpt><trkpt lat="40.3412935" lon="15.0688283"><ele>407.5</ele><time>2026-03-29T10:13:56.264Z</time></trkpt><trkpt lat="40.3413354" lon="15.0689688"><ele>404.0</ele><time>2026-03-29T10:13:57.363Z</time></trkpt><trkpt lat="40.3413792" lon="15.0690648"><ele>406.5</ele><time>2026-03-29T10:13:58.263Z</time></trkpt><trkpt lat="40.341453" lon="15.0691655"><ele>409.0</ele><time>2026-03-29T10:13:59.273Z</time></trkpt><trkpt lat="40.3415485" lon="15.0692596"><ele>411.5</ele><time>2026-03-29T10:14:00.277Z</time></trkpt><trkpt lat="40.3416648" lon="15.0693466"><ele>414.0</ele><time>2026-03-29T10:14:01.281Z</time></trkpt><trkpt lat="40.3417711" lon="15.0694255"><ele>414.0</ele><time>2026-03-29T10:14:02.25Z</time></trkpt><trkpt lat="40.341878" lon="15.0695068"><ele>414.0</ele><time>2026-03-29T10:14:03.247Z</time></trkpt><trkpt lat="40.341957" lon="15.0695836"><ele>414.0</ele><time>2026-03-29T10:14:04.263Z</time></trkpt><trkpt lat="40.3420105" lon="15.0696653"><ele>414.0</ele><time>2026-03-29T10:14:05.25Z</time></trkpt><trkpt lat="40.3420462" lon="15.0697733"><ele>414.0</ele><time>2026-03-29T10:14:06.257Z</time></trkpt><trkpt lat="40.342072" lon="15.0699141"><ele>410.0</ele><time>2026-03-29T10:14:07.246Z</time></trkpt><trkpt lat="40.3421062" lon="15.0700999"><ele>406.0</ele><time>2026-03-29T10:14:08.271Z</time></trkpt><trkpt lat="40.3421457" lon="15.0702864"><ele>402.0</ele><time>2026-03-29T10:14:09.288Z</time></trkpt><trkpt lat="40.3421823" lon="15.0704585"><ele>398.0</ele><time>2026-03-29T10:14:10.287Z</time></trkpt><trkpt lat="40.3421987" lon="15.0705821"><ele>397.99999999999994</ele><time>2026-03-29T10:14:11.267Z</time></trkpt><trkpt lat="40.3422104" lon="15.0706844"><ele>398.0</ele><time>2026-03-29T10:14:12.259Z</time></trkpt><trkpt lat="40.3422396" lon="15.0707774"><ele>398.0</ele><time>2026-03-29T10:14:13.259Z</time></trkpt><trkpt lat="40.3422857" lon="15.0708452"><ele>398.0</ele><time>2026-03-29T10:14:14.282Z</time></trkpt><trkpt lat="40.3423606" lon="15.0708854"><ele>397.99999999999994</ele><time>2026-03-29T10:14:15.336Z</time></trkpt><trkpt lat="40.342447" lon="15.0708961"><ele>398.0</ele><time>2026-03-29T10:14:16.276Z</time></trkpt><trkpt lat="40.3425645" lon="15.0708649"><ele>399.5</ele><time>2026-03-29T10:14:17.294Z</time></trkpt><trkpt lat="40.3426711" lon="15.0708317"><ele>401.0</ele><time>2026-03-29T10:14:18.253Z</time></trkpt><trkpt lat="40.3427915" lon="15.0708238"><ele>402.5</ele><time>2026-03-29T10:14:19.281Z</time></trkpt><trkpt lat="40.3429094" lon="15.0708342"><ele>404.0</ele><time>2026-03-29T10:14:20.288Z</time></trkpt><trkpt lat="40.3430285" lon="15.0708466"><ele>403.5</ele><time>2026-03-29T10:14:21.276Z</time></trkpt><trkpt lat="40.3431402" lon="15.0708972"><ele>403.0</ele><time>2026-03-29T10:14:22.267Z</time></trkpt><trkpt lat="40.343273" lon="15.0709556"><ele>402.5</ele><time>2026-03-29T10:14:23.269Z</time></trkpt><trkpt lat="40.343399" lon="15.0710111"><ele>402.0</ele><time>2026-03-29T10:14:24.269Z</time></trkpt><trkpt lat="40.343506" lon="15.0710882"><ele>402.0</ele><time>2026-03-29T10:14:25.27Z</time></trkpt><trkpt lat="40.3436049" lon="15.0711507"><ele>402.0</ele><time>2026-03-29T10:14:26.27Z</time></trkpt><trkpt lat="40.3437096" lon="15.071253"><ele>402.0</ele><time>2026-03-29T10:14:27.275Z</time></trkpt><trkpt lat="40.3438296" lon="15.0713609"><ele>402.0</ele><time>2026-03-29T10:14:28.335Z</time></trkpt><trkpt lat="40.3439507" lon="15.0714461"><ele>405.33333333333337</ele><time>2026-03-29T10:14:29.248Z</time></trkpt><trkpt lat="40.3440773" lon="15.0715325"><ele>408.6666666666667</ele><time>2026-03-29T10:14:30.253Z</time></trkpt><trkpt lat="40.3442004" lon="15.0715954"><ele>412.0</ele><time>2026-03-29T10:14:31.429Z</time></trkpt><trkpt lat="40.3443803" lon="15.0716488"><ele>412.0</ele><time>2026-03-29T10:14:33.302Z</time></trkpt><trkpt lat="40.3444728" lon="15.0716309"><ele>412.0</ele><time>2026-03-29T10:14:34.277Z</time></trkpt><trkpt lat="40.3445728" lon="15.0715803"><ele>412.0</ele><time>2026-03-29T10:14:35.278Z</time></trkpt><trkpt lat="40.3446796" lon="15.0715113"><ele>412.0</ele><time>2026-03-29T10:14:36.278Z</time></trkpt><trkpt lat="40.3447873" lon="15.071438"><ele>412.0</ele><time>2026-03-29T10:14:37.268Z</time></trkpt><trkpt lat="40.3448947" lon="15.071359"><ele>410.0</ele><time>2026-03-29T10:14:38.282Z</time></trkpt><trkpt lat="40.3449944" lon="15.0712992"><ele>408.0</ele><time>2026-03-29T10:14:39.259Z</time></trkpt><trkpt lat="40.3450918" lon="15.0712666"><ele>406.0</ele><time>2026-03-29T10:14:40.242Z</time></trkpt><trkpt lat="40.3452028" lon="15.0712538"><ele>404.0</ele><time>2026-03-29T10:14:41.26Z</time></trkpt><trkpt lat="40.3453117" lon="15.0712459"><ele>402.0</ele><time>2026-03-29T10:14:42.268Z</time></trkpt><trkpt lat="40.3454269" lon="15.0712384"><ele>398.6</ele><time>2026-03-29T10:14:43.261Z</time></trkpt><trkpt lat="40.3455764" lon="15.0712447"><ele>395.20000000000005</ele><time>2026-03-29T10:14:44.258Z</time></trkpt><trkpt lat="40.3456796" lon="15.0712312"><ele>391.8</ele><time>2026-03-29T10:14:45.274Z</time></trkpt><trkpt lat="40.3457686" lon="15.0711967"><ele>388.4</ele><time>2026-03-29T10:14:46.271Z</time></trkpt><trkpt lat="40.3458328" lon="15.0711309"><ele>385.0</ele><time>2026-03-29T10:14:47.242Z</time></trkpt><trkpt lat="40.3458981" lon="15.0710441"><ele>385.0</ele><time>2026-03-29T10:14:48.285Z</time></trkpt><trkpt lat="40.3459617" lon="15.0709311"><ele>385.0</ele><time>2026-03-29T10:14:49.39Z</time></trkpt><trkpt lat="40.3460618" lon="15.0706897"><ele>385.0</ele><time>2026-03-29T10:14:51.274Z</time></trkpt><trkpt lat="40.34612" lon="15.0705584"><ele>385.0</ele><time>2026-03-29T10:14:52.276Z</time></trkpt><trkpt lat="40.3461916" lon="15.0704307"><ele>382.25</ele><time>2026-03-29T10:14:53.298Z</time></trkpt><trkpt lat="40.3462675" lon="15.0703119"><ele>379.5</ele><time>2026-03-29T10:14:54.243Z</time></trkpt><trkpt lat="40.3463594" lon="15.0701896"><ele>376.75</ele><time>2026-03-29T10:14:55.262Z</time></trkpt><trkpt lat="40.3464522" lon="15.0700774"><ele>374.0</ele><time>2026-03-29T10:14:56.262Z</time></trkpt><trkpt lat="40.3465247" lon="15.0699839"><ele>379.25</ele><time>2026-03-29T10:14:57.249Z</time></trkpt><trkpt lat="40.3466085" lon="15.0699211"><ele>384.5</ele><time>2026-03-29T10:14:58.249Z</time></trkpt><trkpt lat="40.3467026" lon="15.0698931"><ele>389.75</ele><time>2026-03-29T10:14:59.375Z</time></trkpt><trkpt lat="40.3468706" lon="15.0699059"><ele>395.0</ele><time>2026-03-29T10:15:01.277Z</time></trkpt><trkpt lat="40.3470005" lon="15.069927"><ele>395.0</ele><time>2026-03-29T10:15:02.275Z</time></trkpt><trkpt lat="40.3471512" lon="15.0699212"><ele>395.0</ele><time>2026-03-29T10:15:03.273Z</time></trkpt><trkpt lat="40.3472972" lon="15.0698781"><ele>395.0</ele><time>2026-03-29T10:15:04.282Z</time></trkpt><trkpt lat="40.3474406" lon="15.0698303"><ele>395.0</ele><time>2026-03-29T10:15:05.359Z</time></trkpt><trkpt lat="40.3475712" lon="15.069823"><ele>393.5</ele><time>2026-03-29T10:15:06.296Z</time></trkpt><trkpt lat="40.3477124" lon="15.0698162"><ele>392.0</ele><time>2026-03-29T10:15:07.269Z</time></trkpt><trkpt lat="40.3478552" lon="15.0698022"><ele>390.5</ele><time>2026-03-29T10:15:08.292Z</time></trkpt><trkpt lat="40.3479739" lon="15.0698008"><ele>389.0</ele><time>2026-03-29T10:15:09.256Z</time></trkpt><trkpt lat="40.3480916" lon="15.0698196"><ele>388.5</ele><time>2026-03-29T10:15:10.342Z</time></trkpt><trkpt lat="40.3481833" lon="15.0698475"><ele>388.0</ele><time>2026-03-29T10:15:11.282Z</time></trkpt><trkpt lat="40.3482774" lon="15.0699086"><ele>387.5</ele><time>2026-03-29T10:15:12.274Z</time></trkpt><trkpt lat="40.3483781" lon="15.0700051"><ele>387.0</ele><time>2026-03-29T10:15:13.299Z</time></trkpt><trkpt lat="40.3484829" lon="15.0700983"><ele>383.0</ele><time>2026-03-29T10:15:14.277Z</time></trkpt><trkpt lat="40.3485947" lon="15.0701746"><ele>379.0</ele><time>2026-03-29T10:15:15.276Z</time></trkpt><trkpt lat="40.3487199" lon="15.0702374"><ele>375.0</ele><time>2026-03-29T10:15:16.278Z</time></trkpt><trkpt lat="40.348846" lon="15.0702808"><ele>371.0</ele><time>2026-03-29T10:15:17.281Z</time></trkpt><trkpt lat="40.3489645" lon="15.07033"><ele>371.0</ele><time>2026-03-29T10:15:18.281Z</time></trkpt><trkpt lat="40.3490726" lon="15.0704076"><ele>371.0</ele><time>2026-03-29T10:15:19.292Z</time></trkpt><trkpt lat="40.3491772" lon="15.0705002"><ele>371.0</ele><time>2026-03-29T10:15:20.293Z</time></trkpt><trkpt lat="40.3492783" lon="15.0706143"><ele>371.0</ele><time>2026-03-29T10:15:21.282Z</time></trkpt><trkpt lat="40.3493698" lon="15.0707368"><ele>369.0</ele><time>2026-03-29T10:15:22.281Z</time></trkpt><trkpt lat="40.3494566" lon="15.070841"><ele>367.0</ele><time>2026-03-29T10:15:23.284Z</time></trkpt><trkpt lat="40.3495419" lon="15.0709118"><ele>365.0</ele><time>2026-03-29T10:15:24.266Z</time></trkpt><trkpt lat="40.3496344" lon="15.0709558"><ele>363.0</ele><time>2026-03-29T10:15:25.293Z</time></trkpt><trkpt lat="40.3497293" lon="15.0709679"><ele>361.0</ele><time>2026-03-29T10:15:26.336Z</time></trkpt><trkpt lat="40.3498237" lon="15.0709472"><ele>361.0</ele><time>2026-03-29T10:15:27.343Z</time></trkpt><trkpt lat="40.3499107" lon="15.0709067"><ele>361.0</ele><time>2026-03-29T10:15:28.272Z</time></trkpt><trkpt lat="40.3499934" lon="15.0708616"><ele>361.0</ele><time>2026-03-29T10:15:29.265Z</time></trkpt><trkpt lat="40.350081" lon="15.0708342"><ele>361.0</ele><time>2026-03-29T10:15:30.291Z</time></trkpt><trkpt lat="40.3501537" lon="15.0708251"><ele>361.0</ele><time>2026-03-29T10:15:31.283Z</time></trkpt><trkpt lat="40.3502204" lon="15.0708344"><ele>361.0</ele><time>2026-03-29T10:15:32.27Z</time></trkpt><trkpt lat="40.3503152" lon="15.0709099"><ele>361.0</ele><time>2026-03-29T10:15:34.283Z</time></trkpt><trkpt lat="40.3503567" lon="15.0710355"><ele>361.0</ele><time>2026-03-29T10:15:36.259Z</time></trkpt><trkpt lat="40.3503664" lon="15.0711484"><ele>361.0</ele><time>2026-03-29T10:15:37.488Z</time></trkpt><trkpt lat="40.3503943" lon="15.0713552"><ele>361.0</ele><time>2026-03-29T10:15:39.271Z</time></trkpt><trkpt lat="40.3504177" lon="15.071488"><ele>362.0</ele><time>2026-03-29T10:15:40.266Z</time></trkpt><trkpt lat="40.3504551" lon="15.071643"><ele>363.0</ele><time>2026-03-29T10:15:41.362Z</time></trkpt><trkpt lat="40.3504975" lon="15.0717766"><ele>364.0</ele><time>2026-03-29T10:15:42.261Z</time></trkpt><trkpt lat="40.3505541" lon="15.0719212"><ele>365.0</ele><time>2026-03-29T10:15:43.262Z</time></trkpt><trkpt lat="40.3506168" lon="15.072069"><ele>365.0</ele><time>2026-03-29T10:15:44.278Z</time></trkpt><trkpt lat="40.3506767" lon="15.0722261"><ele>365.0</ele><time>2026-03-29T10:15:45.265Z</time></trkpt><trkpt lat="40.3507264" lon="15.0723918"><ele>365.0</ele><time>2026-03-29T10:15:46.291Z</time></trkpt><trkpt lat="40.3507604" lon="15.0725733"><ele>365.0</ele><time>2026-03-29T10:15:47.272Z</time></trkpt><trkpt lat="40.3507816" lon="15.0727523"><ele>362.0</ele><time>2026-03-29T10:15:48.254Z</time></trkpt><trkpt lat="40.3508012" lon="15.0729268"><ele>359.0</ele><time>2026-03-29T10:15:49.242Z</time></trkpt><trkpt lat="40.3508351" lon="15.0731035"><ele>356.0</ele><time>2026-03-29T10:15:50.289Z</time></trkpt><trkpt lat="40.3508794" lon="15.0732514"><ele>353.0</ele><time>2026-03-29T10:15:51.239Z</time></trkpt><trkpt lat="40.3509342" lon="15.073389"><ele>349.75</ele><time>2026-03-29T10:15:52.262Z</time></trkpt><trkpt lat="40.3509826" lon="15.0735169"><ele>346.5</ele><time>2026-03-29T10:15:53.261Z</time></trkpt><trkpt lat="40.3510374" lon="15.0736448"><ele>343.25</ele><time>2026-03-29T10:15:54.264Z</time></trkpt><trkpt lat="40.3511059" lon="15.0737697"><ele>340.0</ele><time>2026-03-29T10:15:55.252Z</time></trkpt><trkpt lat="40.3511923" lon="15.0738906"><ele>340.0</ele><time>2026-03-29T10:15:56.295Z</time></trkpt><trkpt lat="40.3512706" lon="15.0739951"><ele>340.0</ele><time>2026-03-29T10:15:57.26Z</time></trkpt><trkpt lat="40.3513504" lon="15.0740945"><ele>340.0</ele><time>2026-03-29T10:15:58.379Z</time></trkpt><trkpt lat="40.3514748" lon="15.0741901"><ele>340.0</ele><time>2026-03-29T10:16:00.276Z</time></trkpt><trkpt lat="40.3515363" lon="15.0742106"><ele>340.0</ele><time>2026-03-29T10:16:01.247Z</time></trkpt><trkpt lat="40.3516377" lon="15.0742061"><ele>340.8</ele><time>2026-03-29T10:16:03.264Z</time></trkpt><trkpt lat="40.3517293" lon="15.0741554"><ele>341.6</ele><time>2026-03-29T10:16:05.256Z</time></trkpt><trkpt lat="40.3518073" lon="15.0740697"><ele>342.4</ele><time>2026-03-29T10:16:07.24Z</time></trkpt><trkpt lat="40.3518824" lon="15.0739602"><ele>343.2</ele><time>2026-03-29T10:16:09.261Z</time></trkpt><trkpt lat="40.3519424" lon="15.0739073"><ele>344.0</ele><time>2026-03-29T10:16:10.268Z</time></trkpt><trkpt lat="40.3520453" lon="15.073816"><ele>345.6666666666667</ele><time>2026-03-29T10:16:12.256Z</time></trkpt><trkpt lat="40.352109" lon="15.0737733"><ele>347.33333333333337</ele><time>2026-03-29T10:16:13.285Z</time></trkpt><trkpt lat="40.3521768" lon="15.0737381"><ele>349.0</ele><time>2026-03-29T10:16:14.248Z</time></trkpt><trkpt lat="40.3522512" lon="15.0737029"><ele>350.6666666666667</ele><time>2026-03-29T10:16:15.253Z</time></trkpt><trkpt lat="40.3523356" lon="15.0736814"><ele>352.3333333333333</ele><time>2026-03-29T10:16:16.279Z</time></trkpt><trkpt lat="40.3524468" lon="15.0736703"><ele>354.0</ele><time>2026-03-29T10:16:17.388Z</time></trkpt><trkpt lat="40.3525831" lon="15.0736437"><ele>354.0</ele><time>2026-03-29T10:16:19.284Z</time></trkpt><trkpt lat="40.3526644" lon="15.073617"><ele>354.0</ele><time>2026-03-29T10:16:20.309Z</time></trkpt><trkpt lat="40.3527204" lon="15.0735718"><ele>354.0</ele><time>2026-03-29T10:16:21.32Z</time></trkpt><trkpt lat="40.3527751" lon="15.0735137"><ele>354.0</ele><time>2026-03-29T10:16:22.345Z</time></trkpt><trkpt lat="40.3528458" lon="15.0734583"><ele>354.0</ele><time>2026-03-29T10:16:23.303Z</time></trkpt><trkpt lat="40.3528952" lon="15.0733841"><ele>354.0</ele><time>2026-03-29T10:16:24.348Z</time></trkpt><trkpt lat="40.3529497" lon="15.0733042"><ele>352.1666666666667</ele><time>2026-03-29T10:16:25.332Z</time></trkpt><trkpt lat="40.3530005" lon="15.0732123"><ele>350.3333333333333</ele><time>2026-03-29T10:16:26.337Z</time></trkpt><trkpt lat="40.3530447" lon="15.0731212"><ele>348.5</ele><time>2026-03-29T10:16:27.313Z</time></trkpt><trkpt lat="40.3530868" lon="15.0730403"><ele>346.66666666666663</ele><time>2026-03-29T10:16:28.334Z</time></trkpt><trkpt lat="40.3531241" lon="15.0729536"><ele>344.8333333333333</ele><time>2026-03-29T10:16:29.325Z</time></trkpt><trkpt lat="40.3531551" lon="15.0728608"><ele>343.0</ele><time>2026-03-29T10:16:30.333Z</time></trkpt><trkpt lat="40.3531842" lon="15.0727697"><ele>343.0</ele><time>2026-03-29T10:16:31.322Z</time></trkpt><trkpt lat="40.3532176" lon="15.0726795"><ele>343.0</ele><time>2026-03-29T10:16:32.321Z</time></trkpt><trkpt lat="40.3532645" lon="15.0725972"><ele>343.0</ele><time>2026-03-29T10:16:33.326Z</time></trkpt><trkpt lat="40.3533198" lon="15.072526"><ele>343.0</ele><time>2026-03-29T10:16:34.326Z</time></trkpt><trkpt lat="40.3533776" lon="15.0724576"><ele>343.0</ele><time>2026-03-29T10:16:35.322Z</time></trkpt><trkpt lat="40.3534421" lon="15.0723929"><ele>343.0</ele><time>2026-03-29T10:16:36.349Z</time></trkpt><trkpt lat="40.3535085" lon="15.0723343"><ele>343.16666666666663</ele><time>2026-03-29T10:16:37.336Z</time></trkpt><trkpt lat="40.35358" lon="15.0722809"><ele>343.3333333333333</ele><time>2026-03-29T10:16:38.35Z</time></trkpt><trkpt lat="40.3536507" lon="15.0722336"><ele>343.5</ele><time>2026-03-29T10:16:39.332Z</time></trkpt><trkpt lat="40.353724" lon="15.0721871"><ele>343.6666666666667</ele><time>2026-03-29T10:16:40.317Z</time></trkpt><trkpt lat="40.3538008" lon="15.0721383"><ele>343.83333333333337</ele><time>2026-03-29T10:16:41.348Z</time></trkpt><trkpt lat="40.3538731" lon="15.072092"><ele>344.0</ele><time>2026-03-29T10:16:42.328Z</time></trkpt><trkpt lat="40.3539479" lon="15.0720452"><ele>344.0</ele><time>2026-03-29T10:16:43.344Z</time></trkpt><trkpt lat="40.354025" lon="15.0719976"><ele>344.0</ele><time>2026-03-29T10:16:44.379Z</time></trkpt><trkpt lat="40.3540977" lon="15.0719552"><ele>344.0</ele><time>2026-03-29T10:16:45.345Z</time></trkpt><trkpt lat="40.354171" lon="15.0719129"><ele>344.0</ele><time>2026-03-29T10:16:46.325Z</time></trkpt><trkpt lat="40.3542483" lon="15.0718733"><ele>344.0</ele><time>2026-03-29T10:16:47.336Z</time></trkpt><trkpt lat="40.3543278" lon="15.0718398"><ele>344.0</ele><time>2026-03-29T10:16:48.35Z</time></trkpt><trkpt lat="40.354405" lon="15.0718127"><ele>344.0</ele><time>2026-03-29T10:16:49.322Z</time></trkpt><trkpt lat="40.3544885" lon="15.0717802"><ele>344.0</ele><time>2026-03-29T10:16:50.348Z</time></trkpt><trkpt lat="40.3545724" lon="15.0717505"><ele>344.0</ele><time>2026-03-29T10:16:51.364Z</time></trkpt><trkpt lat="40.3546533" lon="15.0717263"><ele>344.0</ele><time>2026-03-29T10:16:52.321Z</time></trkpt><trkpt lat="40.3547428" lon="15.0716967"><ele>344.0</ele><time>2026-03-29T10:16:53.367Z</time></trkpt><trkpt lat="40.3548285" lon="15.0716651"><ele>344.0</ele><time>2026-03-29T10:16:54.36Z</time></trkpt><trkpt lat="40.3549155" lon="15.071636"><ele>343.33333333333337</ele><time>2026-03-29T10:16:55.354Z</time></trkpt><trkpt lat="40.3550036" lon="15.0716083"><ele>342.6666666666667</ele><time>2026-03-29T10:16:56.36Z</time></trkpt><trkpt lat="40.3550882" lon="15.0715794"><ele>342.0</ele><time>2026-03-29T10:16:57.354Z</time></trkpt><trkpt lat="40.3551677" lon="15.0715483"><ele>341.3333333333333</ele><time>2026-03-29T10:16:58.354Z</time></trkpt><trkpt lat="40.3552426" lon="15.0715214"><ele>340.66666666666663</ele><time>2026-03-29T10:16:59.384Z</time></trkpt><trkpt lat="40.3553132" lon="15.0715"><ele>340.0</ele><time>2026-03-29T10:17:00.346Z</time></trkpt><trkpt lat="40.3553971" lon="15.0714691"><ele>339.0</ele><time>2026-03-29T10:17:01.34Z</time></trkpt><trkpt lat="40.3554765" lon="15.0714391"><ele>338.0</ele><time>2026-03-29T10:17:02.375Z</time></trkpt><trkpt lat="40.3555461" lon="15.0714092"><ele>337.0</ele><time>2026-03-29T10:17:03.341Z</time></trkpt><trkpt lat="40.3556108" lon="15.0713772"><ele>336.0</ele><time>2026-03-29T10:17:04.344Z</time></trkpt><trkpt lat="40.3556709" lon="15.0713436"><ele>335.0</ele><time>2026-03-29T10:17:05.422Z</time></trkpt><trkpt lat="40.3557598" lon="15.0713066"><ele>334.0</ele><time>2026-03-29T10:17:07.323Z</time></trkpt><trkpt lat="40.3558732" lon="15.07131"><ele>334.0</ele><time>2026-03-29T10:17:09.351Z</time></trkpt><trkpt lat="40.3559585" lon="15.0713299"><ele>334.0</ele><time>2026-03-29T10:17:10.329Z</time></trkpt><trkpt lat="40.3560333" lon="15.071366"><ele>334.0</ele><time>2026-03-29T10:17:11.333Z</time></trkpt><trkpt lat="40.3561077" lon="15.0714055"><ele>334.0</ele><time>2026-03-29T10:17:12.347Z</time></trkpt><trkpt lat="40.3561849" lon="15.071437"><ele>334.0</ele><time>2026-03-29T10:17:13.361Z</time></trkpt><trkpt lat="40.356256" lon="15.071449"><ele>334.0</ele><time>2026-03-29T10:17:14.351Z</time></trkpt><trkpt lat="40.3563262" lon="15.0714425"><ele>334.2</ele><time>2026-03-29T10:17:15.325Z</time></trkpt><trkpt lat="40.3564467" lon="15.0714443"><ele>334.4</ele><time>2026-03-29T10:17:17.29Z</time></trkpt><trkpt lat="40.3565094" lon="15.0714817"><ele>334.6</ele><time>2026-03-29T10:17:18.261Z</time></trkpt><trkpt lat="40.3565972" lon="15.0715079"><ele>334.8</ele><time>2026-03-29T10:17:19.27Z</time></trkpt><trkpt lat="40.3566838" lon="15.0715416"><ele>335.0</ele><time>2026-03-29T10:17:20.267Z</time></trkpt><trkpt lat="40.3567761" lon="15.071584"><ele>336.0</ele><time>2026-03-29T10:17:21.293Z</time></trkpt><trkpt lat="40.3568698" lon="15.0716266"><ele>337.0</ele><time>2026-03-29T10:17:22.274Z</time></trkpt><trkpt lat="40.3569685" lon="15.0716662"><ele>338.0</ele><time>2026-03-29T10:17:23.27Z</time></trkpt><trkpt lat="40.3570766" lon="15.0716934"><ele>339.0</ele><time>2026-03-29T10:17:24.267Z</time></trkpt><trkpt lat="40.3571762" lon="15.0717094"><ele>340.0</ele><time>2026-03-29T10:17:25.273Z</time></trkpt><trkpt lat="40.3572863" lon="15.071722"><ele>340.0</ele><time>2026-03-29T10:17:26.309Z</time></trkpt><trkpt lat="40.3573885" lon="15.0717235"><ele>340.0</ele><time>2026-03-29T10:17:27.26Z</time></trkpt><trkpt lat="40.3574957" lon="15.0717226"><ele>340.0</ele><time>2026-03-29T10:17:28.268Z</time></trkpt><trkpt lat="40.3576012" lon="15.0717317"><ele>340.0</ele><time>2026-03-29T10:17:29.28Z</time></trkpt><trkpt lat="40.357711" lon="15.0717615"><ele>340.0</ele><time>2026-03-29T10:17:30.286Z</time></trkpt><trkpt lat="40.3578153" lon="15.0718053"><ele>340.0</ele><time>2026-03-29T10:17:31.261Z</time></trkpt><trkpt lat="40.357925" lon="15.0718642"><ele>340.0</ele><time>2026-03-29T10:17:32.282Z</time></trkpt><trkpt lat="40.3580317" lon="15.071914"><ele>340.0</ele><time>2026-03-29T10:17:33.276Z</time></trkpt><trkpt lat="40.3581451" lon="15.0719502"><ele>340.0</ele><time>2026-03-29T10:17:34.262Z</time></trkpt><trkpt lat="40.3582506" lon="15.0719559"><ele>339.4</ele><time>2026-03-29T10:17:35.271Z</time></trkpt><trkpt lat="40.358356" lon="15.0719553"><ele>338.8</ele><time>2026-03-29T10:17:36.332Z</time></trkpt><trkpt lat="40.3584454" lon="15.0719462"><ele>338.20000000000005</ele><time>2026-03-29T10:17:37.268Z</time></trkpt><trkpt lat="40.3585391" lon="15.0719286"><ele>337.6</ele><time>2026-03-29T10:17:38.279Z</time></trkpt><trkpt lat="40.3586288" lon="15.071906"><ele>337.0</ele><time>2026-03-29T10:17:39.287Z</time></trkpt><trkpt lat="40.3587131" lon="15.0718837"><ele>337.0</ele><time>2026-03-29T10:17:40.27Z</time></trkpt><trkpt lat="40.3587949" lon="15.0718641"><ele>337.0</ele><time>2026-03-29T10:17:41.275Z</time></trkpt><trkpt lat="40.3588764" lon="15.0718436"><ele>337.0</ele><time>2026-03-29T10:17:42.288Z</time></trkpt><trkpt lat="40.3589576" lon="15.0718195"><ele>337.0</ele><time>2026-03-29T10:17:43.266Z</time></trkpt><trkpt lat="40.3590446" lon="15.0717889"><ele>337.0</ele><time>2026-03-29T10:17:44.28Z</time></trkpt><trkpt lat="40.3591311" lon="15.0717564"><ele>337.0</ele><time>2026-03-29T10:17:45.274Z</time></trkpt><trkpt lat="40.3592217" lon="15.0717189"><ele>337.0</ele><time>2026-03-29T10:17:46.293Z</time></trkpt><trkpt lat="40.3593194" lon="15.0716775"><ele>337.0</ele><time>2026-03-29T10:17:47.388Z</time></trkpt><trkpt lat="40.3595026" lon="15.0716013"><ele>337.0</ele><time>2026-03-29T10:17:49.384Z</time></trkpt><trkpt lat="40.3595851" lon="15.0715654"><ele>337.0</ele><time>2026-03-29T10:17:50.264Z</time></trkpt><trkpt lat="40.3596806" lon="15.0715248"><ele>336.40000000000003</ele><time>2026-03-29T10:17:51.275Z</time></trkpt><trkpt lat="40.3597768" lon="15.0714854"><ele>335.8</ele><time>2026-03-29T10:17:52.28Z</time></trkpt><trkpt lat="40.3598805" lon="15.0714443"><ele>335.2</ele><time>2026-03-29T10:17:53.35Z</time></trkpt><trkpt lat="40.3599725" lon="15.0714078"><ele>334.6</ele><time>2026-03-29T10:17:54.29Z</time></trkpt><trkpt lat="40.3600725" lon="15.0713678"><ele>334.0</ele><time>2026-03-29T10:17:55.31Z</time></trkpt><trkpt lat="40.3601687" lon="15.0713326"><ele>334.0</ele><time>2026-03-29T10:17:56.28Z</time></trkpt><trkpt lat="40.3602662" lon="15.0713006"><ele>334.0</ele><time>2026-03-29T10:17:57.291Z</time></trkpt><trkpt lat="40.3603617" lon="15.0712662"><ele>334.0</ele><time>2026-03-29T10:17:58.368Z</time></trkpt><trkpt lat="40.360436" lon="15.0712386"><ele>334.0</ele><time>2026-03-29T10:17:59.277Z</time></trkpt><trkpt lat="40.3605135" lon="15.0711956"><ele>334.0</ele><time>2026-03-29T10:18:00.3Z</time></trkpt><trkpt lat="40.3605805" lon="15.0711285"><ele>334.0</ele><time>2026-03-29T10:18:01.284Z</time></trkpt><trkpt lat="40.360637" lon="15.0710311"><ele>334.4</ele><time>2026-03-29T10:18:02.306Z</time></trkpt><trkpt lat="40.3606773" lon="15.0709205"><ele>334.79999999999995</ele><time>2026-03-29T10:18:03.274Z</time></trkpt><trkpt lat="40.3607094" lon="15.0707833"><ele>335.20000000000005</ele><time>2026-03-29T10:18:04.274Z</time></trkpt><trkpt lat="40.3607373" lon="15.0706382"><ele>335.6</ele><time>2026-03-29T10:18:05.258Z</time></trkpt><trkpt lat="40.3607711" lon="15.0704805"><ele>336.0</ele><time>2026-03-29T10:18:06.315Z</time></trkpt><trkpt lat="40.3608049" lon="15.0703332"><ele>332.75</ele><time>2026-03-29T10:18:07.263Z</time></trkpt><trkpt lat="40.3608424" lon="15.0701745"><ele>329.5</ele><time>2026-03-29T10:18:08.283Z</time></trkpt><trkpt lat="40.3608817" lon="15.0700214"><ele>326.25</ele><time>2026-03-29T10:18:09.259Z</time></trkpt><trkpt lat="40.3609258" lon="15.0698552"><ele>323.0</ele><time>2026-03-29T10:18:10.296Z</time></trkpt><trkpt lat="40.3609669" lon="15.0696937"><ele>319.25</ele><time>2026-03-29T10:18:11.281Z</time></trkpt><trkpt lat="40.361009" lon="15.0695285"><ele>315.5</ele><time>2026-03-29T10:18:12.269Z</time></trkpt><trkpt lat="40.3610572" lon="15.0693597"><ele>311.75</ele><time>2026-03-29T10:18:13.285Z</time></trkpt><trkpt lat="40.3611116" lon="15.0692006"><ele>308.0</ele><time>2026-03-29T10:18:14.266Z</time></trkpt><trkpt lat="40.3611772" lon="15.0690342"><ele>310.33333333333337</ele><time>2026-03-29T10:18:15.287Z</time></trkpt><trkpt lat="40.361255" lon="15.0688508"><ele>312.6666666666667</ele><time>2026-03-29T10:18:16.422Z</time></trkpt><trkpt lat="40.3613881" lon="15.0685533"><ele>315.0</ele><time>2026-03-29T10:18:18.264Z</time></trkpt><trkpt lat="40.361461" lon="15.0683902"><ele>312.75</ele><time>2026-03-29T10:18:19.293Z</time></trkpt><trkpt lat="40.3615249" lon="15.0682395"><ele>310.5</ele><time>2026-03-29T10:18:20.258Z</time></trkpt><trkpt lat="40.361585" lon="15.0680788"><ele>308.25</ele><time>2026-03-29T10:18:21.269Z</time></trkpt><trkpt lat="40.3616363" lon="15.0679142"><ele>306.0</ele><time>2026-03-29T10:18:22.274Z</time></trkpt><trkpt lat="40.3616759" lon="15.0677376"><ele>306.0</ele><time>2026-03-29T10:18:23.259Z</time></trkpt><trkpt lat="40.3616971" lon="15.0675578"><ele>306.0</ele><time>2026-03-29T10:18:24.248Z</time></trkpt><trkpt lat="40.3617155" lon="15.0673666"><ele>306.0</ele><time>2026-03-29T10:18:25.297Z</time></trkpt><trkpt lat="40.3617335" lon="15.0671856"><ele>306.0</ele><time>2026-03-29T10:18:26.281Z</time></trkpt><trkpt lat="40.3617451" lon="15.0670004"><ele>303.5</ele><time>2026-03-29T10:18:27.277Z</time></trkpt><trkpt lat="40.3617433" lon="15.066812"><ele>301.0</ele><time>2026-03-29T10:18:28.266Z</time></trkpt><trkpt lat="40.3617325" lon="15.0666213"><ele>298.5</ele><time>2026-03-29T10:18:29.263Z</time></trkpt><trkpt lat="40.3617201" lon="15.0664251"><ele>296.0</ele><time>2026-03-29T10:18:30.274Z</time></trkpt><trkpt lat="40.361707" lon="15.0662285"><ele>295.5</ele><time>2026-03-29T10:18:31.285Z</time></trkpt><trkpt lat="40.3616951" lon="15.0660361"><ele>295.0</ele><time>2026-03-29T10:18:32.299Z</time></trkpt><trkpt lat="40.3616855" lon="15.0658539"><ele>294.5</ele><time>2026-03-29T10:18:33.273Z</time></trkpt><trkpt lat="40.3616779" lon="15.065648"><ele>294.0</ele><time>2026-03-29T10:18:34.37Z</time></trkpt><trkpt lat="40.3616743" lon="15.0654615"><ele>292.0</ele><time>2026-03-29T10:18:35.376Z</time></trkpt><trkpt lat="40.3616557" lon="15.0651011"><ele>290.0</ele><time>2026-03-29T10:18:37.282Z</time></trkpt><trkpt lat="40.3616435" lon="15.064913"><ele>288.0</ele><time>2026-03-29T10:18:38.287Z</time></trkpt><trkpt lat="40.3616363" lon="15.0647355"><ele>285.5</ele><time>2026-03-29T10:18:39.236Z</time></trkpt><trkpt lat="40.3616335" lon="15.0645447"><ele>283.0</ele><time>2026-03-29T10:18:40.271Z</time></trkpt><trkpt lat="40.3616383" lon="15.0643624"><ele>280.5</ele><time>2026-03-29T10:18:41.272Z</time></trkpt><trkpt lat="40.3616579" lon="15.0641742"><ele>278.0</ele><time>2026-03-29T10:18:42.315Z</time></trkpt><trkpt lat="40.3616863" lon="15.0640071"><ele>275.5</ele><time>2026-03-29T10:18:43.261Z</time></trkpt><trkpt lat="40.3617299" lon="15.0638252"><ele>273.0</ele><time>2026-03-29T10:18:44.285Z</time></trkpt><trkpt lat="40.3617821" lon="15.0636455"><ele>270.5</ele><time>2026-03-29T10:18:45.356Z</time></trkpt><trkpt lat="40.3618414" lon="15.0635011"><ele>268.0</ele><time>2026-03-29T10:18:46.388Z</time></trkpt><trkpt lat="40.3619123" lon="15.0633913"><ele>268.0</ele><time>2026-03-29T10:18:47.338Z</time></trkpt><trkpt lat="40.3620055" lon="15.0632967"><ele>268.0</ele><time>2026-03-29T10:18:48.355Z</time></trkpt><trkpt lat="40.3621066" lon="15.0632307"><ele>268.0</ele><time>2026-03-29T10:18:49.319Z</time></trkpt><trkpt lat="40.3622279" lon="15.0631833"><ele>268.0</ele><time>2026-03-29T10:18:50.313Z</time></trkpt><trkpt lat="40.3623683" lon="15.0631585"><ele>264.0</ele><time>2026-03-29T10:18:51.334Z</time></trkpt><trkpt lat="40.3625167" lon="15.0631537"><ele>260.0</ele><time>2026-03-29T10:18:52.304Z</time></trkpt><trkpt lat="40.3626807" lon="15.0631563"><ele>256.0</ele><time>2026-03-29T10:18:53.345Z</time></trkpt><trkpt lat="40.3628319" lon="15.0631579"><ele>256.0</ele><time>2026-03-29T10:18:54.293Z</time></trkpt><trkpt lat="40.3629925" lon="15.0631641"><ele>256.0</ele><time>2026-03-29T10:18:55.315Z</time></trkpt><trkpt lat="40.3631536" lon="15.06317"><ele>256.0</ele><time>2026-03-29T10:18:56.334Z</time></trkpt><trkpt lat="40.363317" lon="15.0631712"><ele>252.0</ele><time>2026-03-29T10:18:57.317Z</time></trkpt><trkpt lat="40.363485" lon="15.0631691"><ele>248.0</ele><time>2026-03-29T10:18:58.346Z</time></trkpt><trkpt lat="40.3636342" lon="15.0631694"><ele>244.0</ele><time>2026-03-29T10:18:59.3Z</time></trkpt><trkpt lat="40.3637867" lon="15.0631735"><ele>243.0</ele><time>2026-03-29T10:19:00.304Z</time></trkpt><trkpt lat="40.3639325" lon="15.063174"><ele>242.0</ele><time>2026-03-29T10:19:01.294Z</time></trkpt><trkpt lat="40.364075" lon="15.0631694"><ele>241.0</ele><time>2026-03-29T10:19:02.327Z</time></trkpt><trkpt lat="40.3642028" lon="15.0631619"><ele>240.0</ele><time>2026-03-29T10:19:03.295Z</time></trkpt><trkpt lat="40.3643368" lon="15.0631663"><ele>240.0</ele><time>2026-03-29T10:19:04.339Z</time></trkpt><trkpt lat="40.3644575" lon="15.0631685"><ele>240.0</ele><time>2026-03-29T10:19:05.301Z</time></trkpt><trkpt lat="40.3645823" lon="15.0631499"><ele>240.0</ele><time>2026-03-29T10:19:06.284Z</time></trkpt><trkpt lat="40.3646985" lon="15.0631015"><ele>240.0</ele><time>2026-03-29T10:19:07.308Z</time></trkpt><trkpt lat="40.3648148" lon="15.0630326"><ele>241.5</ele><time>2026-03-29T10:19:08.309Z</time></trkpt><trkpt lat="40.3649291" lon="15.0629406"><ele>243.0</ele><time>2026-03-29T10:19:09.319Z</time></trkpt><trkpt lat="40.3650336" lon="15.062826"><ele>244.5</ele><time>2026-03-29T10:19:10.315Z</time></trkpt><trkpt lat="40.3651296" lon="15.0627012"><ele>246.0</ele><time>2026-03-29T10:19:11.284Z</time></trkpt><trkpt lat="40.3652285" lon="15.0625489"><ele>239.33333333333331</ele><time>2026-03-29T10:19:12.3Z</time></trkpt><trkpt lat="40.3653295" lon="15.062378"><ele>232.66666666666666</ele><time>2026-03-29T10:19:13.328Z</time></trkpt><trkpt lat="40.3654227" lon="15.0622066"><ele>226.0</ele><time>2026-03-29T10:19:14.283Z</time></trkpt><trkpt lat="40.3655243" lon="15.0620168"><ele>225.33333333333331</ele><time>2026-03-29T10:19:15.323Z</time></trkpt><trkpt lat="40.3656204" lon="15.0618385"><ele>224.66666666666669</ele><time>2026-03-29T10:19:16.33Z</time></trkpt><trkpt lat="40.3657126" lon="15.0616639"><ele>224.0</ele><time>2026-03-29T10:19:17.33Z</time></trkpt><trkpt lat="40.3658041" lon="15.0614955"><ele>224.0</ele><time>2026-03-29T10:19:18.327Z</time></trkpt><trkpt lat="40.3658937" lon="15.061332"><ele>224.0</ele><time>2026-03-29T10:19:19.324Z</time></trkpt><trkpt lat="40.3659803" lon="15.0611691"><ele>224.0</ele><time>2026-03-29T10:19:20.315Z</time></trkpt><trkpt lat="40.3660688" lon="15.0610018"><ele>224.0</ele><time>2026-03-29T10:19:21.321Z</time></trkpt><trkpt lat="40.3661609" lon="15.0608292"><ele>224.0</ele><time>2026-03-29T10:19:22.342Z</time></trkpt><trkpt lat="40.3662491" lon="15.0606617"><ele>224.0</ele><time>2026-03-29T10:19:23.314Z</time></trkpt><trkpt lat="40.3663383" lon="15.0604888"><ele>223.75</ele><time>2026-03-29T10:19:24.352Z</time></trkpt><trkpt lat="40.3664107" lon="15.0603419"><ele>223.5</ele><time>2026-03-29T10:19:25.307Z</time></trkpt><trkpt lat="40.3664846" lon="15.0602077"><ele>223.25</ele><time>2026-03-29T10:19:26.326Z</time></trkpt><trkpt lat="40.3665609" lon="15.0600979"><ele>223.0</ele><time>2026-03-29T10:19:27.331Z</time></trkpt><trkpt lat="40.366646" lon="15.0600203"><ele>223.0</ele><time>2026-03-29T10:19:28.319Z</time></trkpt><trkpt lat="40.3667352" lon="15.0599755"><ele>223.0</ele><time>2026-03-29T10:19:29.328Z</time></trkpt><trkpt lat="40.3668356" lon="15.059968"><ele>223.0</ele><time>2026-03-29T10:19:30.334Z</time></trkpt><trkpt lat="40.3669615" lon="15.0599722"><ele>223.0</ele><time>2026-03-29T10:19:31.326Z</time></trkpt><trkpt lat="40.3671022" lon="15.0599762"><ele>223.0</ele><time>2026-03-29T10:19:32.337Z</time></trkpt><trkpt lat="40.3672388" lon="15.0599852"><ele>223.0</ele><time>2026-03-29T10:19:33.326Z</time></trkpt><trkpt lat="40.3673585" lon="15.0600107"><ele>223.0</ele><time>2026-03-29T10:19:34.307Z</time></trkpt><trkpt lat="40.3674745" lon="15.0600658"><ele>223.0</ele><time>2026-03-29T10:19:35.32Z</time></trkpt><trkpt lat="40.3675733" lon="15.0601418"><ele>223.0</ele><time>2026-03-29T10:19:36.268Z</time></trkpt><trkpt lat="40.3676674" lon="15.0602338"><ele>223.0</ele><time>2026-03-29T10:19:37.301Z</time></trkpt><trkpt lat="40.3677591" lon="15.0603224"><ele>223.0</ele><time>2026-03-29T10:19:38.294Z</time></trkpt><trkpt lat="40.3678457" lon="15.0603561"><ele>223.0</ele><time>2026-03-29T10:19:39.291Z</time></trkpt><trkpt lat="40.3679582" lon="15.0603668"><ele>223.0</ele><time>2026-03-29T10:19:40.309Z</time></trkpt><trkpt lat="40.3680436" lon="15.0603206"><ele>221.25</ele><time>2026-03-29T10:19:41.313Z</time></trkpt><trkpt lat="40.3681388" lon="15.0602388"><ele>219.5</ele><time>2026-03-29T10:19:42.293Z</time></trkpt><trkpt lat="40.3682307" lon="15.06013"><ele>217.75</ele><time>2026-03-29T10:19:43.316Z</time></trkpt><trkpt lat="40.3683125" lon="15.060018"><ele>216.0</ele><time>2026-03-29T10:19:44.3Z</time></trkpt><trkpt lat="40.3683928" lon="15.0599097"><ele>209.5</ele><time>2026-03-29T10:19:45.295Z</time></trkpt><trkpt lat="40.36849" lon="15.0598052"><ele>203.0</ele><time>2026-03-29T10:19:46.314Z</time></trkpt><trkpt lat="40.3685871" lon="15.0597214"><ele>196.5</ele><time>2026-03-29T10:19:47.298Z</time></trkpt><trkpt lat="40.3686984" lon="15.0596579"><ele>190.0</ele><time>2026-03-29T10:19:48.311Z</time></trkpt><trkpt lat="40.368832" lon="15.0595995"><ele>190.25</ele><time>2026-03-29T10:19:49.328Z</time></trkpt><trkpt lat="40.3689519" lon="15.0595582"><ele>190.5</ele><time>2026-03-29T10:19:50.284Z</time></trkpt><trkpt lat="40.3690803" lon="15.0595164"><ele>190.75</ele><time>2026-03-29T10:19:51.295Z</time></trkpt><trkpt lat="40.3692078" lon="15.0594759"><ele>191.0</ele><time>2026-03-29T10:19:52.303Z</time></trkpt><trkpt lat="40.3693319" lon="15.0594267"><ele>191.0</ele><time>2026-03-29T10:19:53.307Z</time></trkpt><trkpt lat="40.3694524" lon="15.059358"><ele>191.0</ele><time>2026-03-29T10:19:54.321Z</time></trkpt><trkpt lat="40.3695623" lon="15.0592748"><ele>191.0</ele><time>2026-03-29T10:19:55.304Z</time></trkpt><trkpt lat="40.369669" lon="15.0591875"><ele>191.0</ele><time>2026-03-29T10:19:56.287Z</time></trkpt><trkpt lat="40.3697795" lon="15.0590993"><ele>188.5</ele><time>2026-03-29T10:19:57.301Z</time></trkpt><trkpt lat="40.3698847" lon="15.0590027"><ele>186.0</ele><time>2026-03-29T10:19:58.32Z</time></trkpt><trkpt lat="40.3699838" lon="15.0588924"><ele>183.5</ele><time>2026-03-29T10:19:59.352Z</time></trkpt><trkpt lat="40.3700667" lon="15.0587744"><ele>181.0</ele><time>2026-03-29T10:20:00.346Z</time></trkpt><trkpt lat="40.3701319" lon="15.058642"><ele>181.0</ele><time>2026-03-29T10:20:01.339Z</time></trkpt><trkpt lat="40.3701804" lon="15.0584985"><ele>181.0</ele><time>2026-03-29T10:20:02.344Z</time></trkpt><trkpt lat="40.3702163" lon="15.0583365"><ele>181.0</ele><time>2026-03-29T10:20:03.349Z</time></trkpt><trkpt lat="40.3702482" lon="15.0581688"><ele>181.0</ele><time>2026-03-29T10:20:04.35Z</time></trkpt><trkpt lat="40.3702866" lon="15.0579862"><ele>177.75</ele><time>2026-03-29T10:20:05.344Z</time></trkpt><trkpt lat="40.3703234" lon="15.0577974"><ele>174.5</ele><time>2026-03-29T10:20:06.364Z</time></trkpt><trkpt lat="40.3703531" lon="15.0576237"><ele>171.25</ele><time>2026-03-29T10:20:07.338Z</time></trkpt><trkpt lat="40.3703845" lon="15.0574519"><ele>168.0</ele><time>2026-03-29T10:20:08.329Z</time></trkpt><trkpt lat="40.3704203" lon="15.0572818"><ele>168.0</ele><time>2026-03-29T10:20:09.335Z</time></trkpt><trkpt lat="40.3704575" lon="15.0571104"><ele>168.0</ele><time>2026-03-29T10:20:10.355Z</time></trkpt><trkpt lat="40.3704942" lon="15.0569382"><ele>168.0</ele><time>2026-03-29T10:20:11.356Z</time></trkpt><trkpt lat="40.3705307" lon="15.0567577"><ele>168.0</ele><time>2026-03-29T10:20:12.361Z</time></trkpt><trkpt lat="40.3705691" lon="15.0565751"><ele>168.0</ele><time>2026-03-29T10:20:13.356Z</time></trkpt><trkpt lat="40.3706073" lon="15.0563971"><ele>168.0</ele><time>2026-03-29T10:20:14.346Z</time></trkpt><trkpt lat="40.3706426" lon="15.0562203"><ele>168.0</ele><time>2026-03-29T10:20:15.348Z</time></trkpt><trkpt lat="40.3706779" lon="15.0560457"><ele>168.0</ele><time>2026-03-29T10:20:16.356Z</time></trkpt><trkpt lat="40.3707179" lon="15.0558741"><ele>164.5</ele><time>2026-03-29T10:20:17.358Z</time></trkpt><trkpt lat="40.3707568" lon="15.0557047"><ele>161.0</ele><time>2026-03-29T10:20:18.345Z</time></trkpt><trkpt lat="40.3707931" lon="15.0555274"><ele>157.5</ele><time>2026-03-29T10:20:19.371Z</time></trkpt><trkpt lat="40.3708331" lon="15.0553525"><ele>154.0</ele><time>2026-03-29T10:20:20.377Z</time></trkpt><trkpt lat="40.3708735" lon="15.0551876"><ele>154.0</ele><time>2026-03-29T10:20:21.335Z</time></trkpt><trkpt lat="40.3709207" lon="15.0550143"><ele>154.0</ele><time>2026-03-29T10:20:22.359Z</time></trkpt><trkpt lat="40.3709753" lon="15.0548597"><ele>154.0</ele><time>2026-03-29T10:20:23.319Z</time></trkpt><trkpt lat="40.3710419" lon="15.0547025"><ele>154.0</ele><time>2026-03-29T10:20:24.352Z</time></trkpt><trkpt lat="40.3711179" lon="15.0545609"><ele>154.75</ele><time>2026-03-29T10:20:25.352Z</time></trkpt><trkpt lat="40.3712062" lon="15.0544267"><ele>155.5</ele><time>2026-03-29T10:20:26.36Z</time></trkpt><trkpt lat="40.3712948" lon="15.0543035"><ele>156.25</ele><time>2026-03-29T10:20:27.341Z</time></trkpt><trkpt lat="40.3713867" lon="15.054177"><ele>157.0</ele><time>2026-03-29T10:20:28.37Z</time></trkpt><trkpt lat="40.371467" lon="15.0540685"><ele>155.2</ele><time>2026-03-29T10:20:29.347Z</time></trkpt><trkpt lat="40.3715355" lon="15.053958"><ele>153.39999999999998</ele><time>2026-03-29T10:20:30.334Z</time></trkpt><trkpt lat="40.3715792" lon="15.0538411"><ele>151.60000000000002</ele><time>2026-03-29T10:20:31.354Z</time></trkpt><trkpt lat="40.3715914" lon="15.0537238"><ele>149.8</ele><time>2026-03-29T10:20:32.353Z</time></trkpt><trkpt lat="40.3715775" lon="15.0536043"><ele>148.0</ele><time>2026-03-29T10:20:33.333Z</time></trkpt><trkpt lat="40.3715432" lon="15.0534779"><ele>148.0</ele><time>2026-03-29T10:20:34.376Z</time></trkpt><trkpt lat="40.3715094" lon="15.0533837"><ele>148.0</ele><time>2026-03-29T10:20:35.342Z</time></trkpt><trkpt lat="40.3715058" lon="15.0532484"><ele>148.0</ele><time>2026-03-29T10:20:37.349Z</time></trkpt><trkpt lat="40.371644" lon="15.0531026"><ele>148.0</ele><time>2026-03-29T10:20:40.365Z</time></trkpt><trkpt lat="40.3717136" lon="15.0530839"><ele>148.0</ele><time>2026-03-29T10:20:41.352Z</time></trkpt><trkpt lat="40.3717909" lon="15.0530193"><ele>145.4</ele><time>2026-03-29T10:20:42.359Z</time></trkpt><trkpt lat="40.3718446" lon="15.0529392"><ele>142.8</ele><time>2026-03-29T10:20:43.407Z</time></trkpt><trkpt lat="40.3718741" lon="15.0528465"><ele>140.2</ele><time>2026-03-29T10:20:44.357Z</time></trkpt><trkpt lat="40.3718863" lon="15.0527257"><ele>137.6</ele><time>2026-03-29T10:20:45.351Z</time></trkpt><trkpt lat="40.3718866" lon="15.0525921"><ele>135.0</ele><time>2026-03-29T10:20:46.361Z</time></trkpt><trkpt lat="40.3718833" lon="15.0524474"><ele>135.0</ele><time>2026-03-29T10:20:47.471Z</time></trkpt><trkpt lat="40.371919" lon="15.0522578"><ele>135.0</ele><time>2026-03-29T10:20:49.377Z</time></trkpt><trkpt lat="40.3719611" lon="15.0521814"><ele>135.0</ele><time>2026-03-29T10:20:50.481Z</time></trkpt><trkpt lat="40.3721387" lon="15.0520363"><ele>135.0</ele><time>2026-03-29T10:20:52.418Z</time></trkpt><trkpt lat="40.3722643" lon="15.0519551"><ele>135.0</ele><time>2026-03-29T10:20:53.353Z</time></trkpt><trkpt lat="40.3724042" lon="15.0518628"><ele>135.0</ele><time>2026-03-29T10:20:54.361Z</time></trkpt><trkpt lat="40.372528" lon="15.0517596"><ele>135.0</ele><time>2026-03-29T10:20:55.365Z</time></trkpt><trkpt lat="40.3726324" lon="15.0516325"><ele>135.0</ele><time>2026-03-29T10:20:56.354Z</time></trkpt><trkpt lat="40.3727206" lon="15.0515013"><ele>133.5</ele><time>2026-03-29T10:20:57.369Z</time></trkpt><trkpt lat="40.3728045" lon="15.051367"><ele>132.0</ele><time>2026-03-29T10:20:58.344Z</time></trkpt><trkpt lat="40.3728874" lon="15.0512171"><ele>130.5</ele><time>2026-03-29T10:20:59.367Z</time></trkpt><trkpt lat="40.3729639" lon="15.0510643"><ele>129.0</ele><time>2026-03-29T10:21:00.371Z</time></trkpt><trkpt lat="40.3730332" lon="15.0509154"><ele>124.75</ele><time>2026-03-29T10:21:01.349Z</time></trkpt><trkpt lat="40.3731049" lon="15.0507628"><ele>120.5</ele><time>2026-03-29T10:21:02.358Z</time></trkpt><trkpt lat="40.3731753" lon="15.0506192"><ele>116.25</ele><time>2026-03-29T10:21:03.348Z</time></trkpt><trkpt lat="40.3732641" lon="15.0504764"><ele>112.0</ele><time>2026-03-29T10:21:04.361Z</time></trkpt><trkpt lat="40.3733579" lon="15.0503547"><ele>112.0</ele><time>2026-03-29T10:21:05.368Z</time></trkpt><trkpt lat="40.3734472" lon="15.0502369"><ele>112.0</ele><time>2026-03-29T10:21:06.355Z</time></trkpt><trkpt lat="40.3735252" lon="15.0501101"><ele>112.0</ele><time>2026-03-29T10:21:07.368Z</time></trkpt><trkpt lat="40.3735809" lon="15.0499755"><ele>112.0</ele><time>2026-03-29T10:21:08.361Z</time></trkpt><trkpt lat="40.3736182" lon="15.0498301"><ele>109.33333333333334</ele><time>2026-03-29T10:21:09.404Z</time></trkpt><trkpt lat="40.3736583" lon="15.0495452"><ele>106.66666666666666</ele><time>2026-03-29T10:21:11.275Z</time></trkpt><trkpt lat="40.3736905" lon="15.0493968"><ele>104.0</ele><time>2026-03-29T10:21:12.276Z</time></trkpt><trkpt lat="40.3737335" lon="15.0492613"><ele>104.0</ele><time>2026-03-29T10:21:13.278Z</time></trkpt><trkpt lat="40.3737886" lon="15.0491398"><ele>104.0</ele><time>2026-03-29T10:21:14.274Z</time></trkpt><trkpt lat="40.37386" lon="15.0490285"><ele>104.0</ele><time>2026-03-29T10:21:15.265Z</time></trkpt><trkpt lat="40.3739481" lon="15.0489216"><ele>104.0</ele><time>2026-03-29T10:21:16.267Z</time></trkpt><trkpt lat="40.3740589" lon="15.0488261"><ele>103.0</ele><time>2026-03-29T10:21:17.273Z</time></trkpt><trkpt lat="40.3741764" lon="15.0487358"><ele>102.0</ele><time>2026-03-29T10:21:18.263Z</time></trkpt><trkpt lat="40.3742921" lon="15.0486418"><ele>101.0</ele><time>2026-03-29T10:21:19.279Z</time></trkpt><trkpt lat="40.3744067" lon="15.0485505"><ele>100.0</ele><time>2026-03-29T10:21:20.294Z</time></trkpt><trkpt lat="40.3745206" lon="15.0484658"><ele>100.0</ele><time>2026-03-29T10:21:21.29Z</time></trkpt><trkpt lat="40.3746332" lon="15.0483851"><ele>100.0</ele><time>2026-03-29T10:21:22.279Z</time></trkpt><trkpt lat="40.3747455" lon="15.048308"><ele>100.0</ele><time>2026-03-29T10:21:23.275Z</time></trkpt><trkpt lat="40.3748532" lon="15.0482342"><ele>100.0</ele><time>2026-03-29T10:21:24.276Z</time></trkpt><trkpt lat="40.3749567" lon="15.0481572"><ele>96.75</ele><time>2026-03-29T10:21:25.283Z</time></trkpt><trkpt lat="40.3750489" lon="15.0480587"><ele>93.5</ele><time>2026-03-29T10:21:26.295Z</time></trkpt><trkpt lat="40.3751239" lon="15.0479504"><ele>90.25</ele><time>2026-03-29T10:21:27.258Z</time></trkpt><trkpt lat="40.3751934" lon="15.0478156"><ele>87.0</ele><time>2026-03-29T10:21:28.305Z</time></trkpt><trkpt lat="40.3752561" lon="15.0476673"><ele>87.0</ele><time>2026-03-29T10:21:29.338Z</time></trkpt><trkpt lat="40.3753093" lon="15.0475392"><ele>87.0</ele><time>2026-03-29T10:21:30.261Z</time></trkpt><trkpt lat="40.3753688" lon="15.047401"><ele>87.0</ele><time>2026-03-29T10:21:31.259Z</time></trkpt><trkpt lat="40.3754307" lon="15.047257"><ele>87.0</ele><time>2026-03-29T10:21:32.277Z</time></trkpt><trkpt lat="40.3754962" lon="15.0471199"><ele>86.0</ele><time>2026-03-29T10:21:33.26Z</time></trkpt><trkpt lat="40.3755672" lon="15.0469844"><ele>85.0</ele><time>2026-03-29T10:21:34.259Z</time></trkpt><trkpt lat="40.375642" lon="15.0468513"><ele>84.0</ele><time>2026-03-29T10:21:35.274Z</time></trkpt><trkpt lat="40.3757193" lon="15.0467181"><ele>83.0</ele><time>2026-03-29T10:21:36.28Z</time></trkpt><trkpt lat="40.3757883" lon="15.046597"><ele>79.75</ele><time>2026-03-29T10:21:37.259Z</time></trkpt><trkpt lat="40.3758599" lon="15.0464862"><ele>76.5</ele><time>2026-03-29T10:21:38.282Z</time></trkpt><trkpt lat="40.3759411" lon="15.0464024"><ele>73.25</ele><time>2026-03-29T10:21:39.275Z</time></trkpt><trkpt lat="40.376049" lon="15.0463299"><ele>70.0</ele><time>2026-03-29T10:21:40.256Z</time></trkpt><trkpt lat="40.3761641" lon="15.0462584"><ele>70.0</ele><time>2026-03-29T10:21:41.274Z</time></trkpt><trkpt lat="40.3762824" lon="15.0461935"><ele>70.0</ele><time>2026-03-29T10:21:42.264Z</time></trkpt><trkpt lat="40.3763947" lon="15.0461417"><ele>70.0</ele><time>2026-03-29T10:21:43.268Z</time></trkpt><trkpt lat="40.3765123" lon="15.0460921"><ele>70.0</ele><time>2026-03-29T10:21:44.261Z</time></trkpt><trkpt lat="40.3766277" lon="15.0460454"><ele>70.0</ele><time>2026-03-29T10:21:45.281Z</time></trkpt><trkpt lat="40.3767296" lon="15.0460139"><ele>70.0</ele><time>2026-03-29T10:21:46.303Z</time></trkpt><trkpt lat="40.3768222" lon="15.0460064"><ele>70.0</ele><time>2026-03-29T10:21:47.27Z</time></trkpt><trkpt lat="40.3769119" lon="15.0460291"><ele>70.0</ele><time>2026-03-29T10:21:48.292Z</time></trkpt><trkpt lat="40.376986" lon="15.0460788"><ele>70.0</ele><time>2026-03-29T10:21:49.276Z</time></trkpt><trkpt lat="40.3770433" lon="15.0461543"><ele>70.0</ele><time>2026-03-29T10:21:50.266Z</time></trkpt><trkpt lat="40.3770783" lon="15.0462566"><ele>70.0</ele><time>2026-03-29T10:21:51.279Z</time></trkpt><trkpt lat="40.3770969" lon="15.0463892"><ele>70.0</ele><time>2026-03-29T10:21:52.304Z</time></trkpt><trkpt lat="40.3770907" lon="15.046592"><ele>70.0</ele><time>2026-03-29T10:21:53.585Z</time></trkpt><trkpt lat="40.3770297" lon="15.0469183"><ele>70.25</ele><time>2026-03-29T10:21:55.293Z</time></trkpt><trkpt lat="40.3769815" lon="15.04711"><ele>70.5</ele><time>2026-03-29T10:21:56.274Z</time></trkpt><trkpt lat="40.3769354" lon="15.0473036"><ele>70.75</ele><time>2026-03-29T10:21:57.272Z</time></trkpt><trkpt lat="40.3768925" lon="15.0474729"><ele>71.0</ele><time>2026-03-29T10:21:58.286Z</time></trkpt><trkpt lat="40.376857" lon="15.047648"><ele>71.0</ele><time>2026-03-29T10:21:59.26Z</time></trkpt><trkpt lat="40.3768295" lon="15.0478346"><ele>71.0</ele><time>2026-03-29T10:22:00.266Z</time></trkpt><trkpt lat="40.3768103" lon="15.0480183"><ele>71.0</ele><time>2026-03-29T10:22:01.277Z</time></trkpt><trkpt lat="40.3767935" lon="15.0481915"><ele>71.0</ele><time>2026-03-29T10:22:02.262Z</time></trkpt><trkpt lat="40.3767749" lon="15.0483601"><ele>69.75</ele><time>2026-03-29T10:22:03.267Z</time></trkpt><trkpt lat="40.3767618" lon="15.0485203"><ele>68.5</ele><time>2026-03-29T10:22:04.278Z</time></trkpt><trkpt lat="40.3767531" lon="15.0486851"><ele>67.25</ele><time>2026-03-29T10:22:05.369Z</time></trkpt><trkpt lat="40.3767813" lon="15.048942"><ele>66.0</ele><time>2026-03-29T10:22:07.263Z</time></trkpt><trkpt lat="40.3768224" lon="15.0490571"><ele>65.5</ele><time>2026-03-29T10:22:08.271Z</time></trkpt><trkpt lat="40.3768739" lon="15.0491518"><ele>65.0</ele><time>2026-03-29T10:22:09.28Z</time></trkpt><trkpt lat="40.3769497" lon="15.0492298"><ele>64.5</ele><time>2026-03-29T10:22:10.367Z</time></trkpt><trkpt lat="40.377013" lon="15.0492656"><ele>64.0</ele><time>2026-03-29T10:22:11.29Z</time></trkpt><trkpt lat="40.3770929" lon="15.0492841"><ele>63.5</ele><time>2026-03-29T10:22:12.272Z</time></trkpt><trkpt lat="40.377181" lon="15.0492754"><ele>63.0</ele><time>2026-03-29T10:22:13.279Z</time></trkpt><trkpt lat="40.3772676" lon="15.0492479"><ele>61.0</ele><time>2026-03-29T10:22:14.257Z</time></trkpt><trkpt lat="40.3773513" lon="15.0491957"><ele>59.0</ele><time>2026-03-29T10:22:15.246Z</time></trkpt><trkpt lat="40.3774269" lon="15.0491166"><ele>57.0</ele><time>2026-03-29T10:22:16.251Z</time></trkpt><trkpt lat="40.377502" lon="15.0490189"><ele>55.0</ele><time>2026-03-29T10:22:17.266Z</time></trkpt><trkpt lat="40.3775793" lon="15.0489162"><ele>53.0</ele><time>2026-03-29T10:22:18.26Z</time></trkpt><trkpt lat="40.3776595" lon="15.0488068"><ele>52.5</ele><time>2026-03-29T10:22:19.271Z</time></trkpt><trkpt lat="40.3777418" lon="15.0486966"><ele>52.0</ele><time>2026-03-29T10:22:20.263Z</time></trkpt><trkpt lat="40.3778279" lon="15.0485795"><ele>51.5</ele><time>2026-03-29T10:22:21.294Z</time></trkpt><trkpt lat="40.3779129" lon="15.0484745"><ele>51.0</ele><time>2026-03-29T10:22:22.264Z</time></trkpt><trkpt lat="40.3780132" lon="15.0483761"><ele>48.75</ele><time>2026-03-29T10:22:23.298Z</time></trkpt><trkpt lat="40.3781178" lon="15.0482973"><ele>46.5</ele><time>2026-03-29T10:22:24.28Z</time></trkpt><trkpt lat="40.3782359" lon="15.0482355"><ele>44.25</ele><time>2026-03-29T10:22:25.275Z</time></trkpt><trkpt lat="40.3783679" lon="15.0481948"><ele>42.0</ele><time>2026-03-29T10:22:26.262Z</time></trkpt><trkpt lat="40.3785582" lon="15.0481514"><ele>42.0</ele><time>2026-03-29T10:22:27.371Z</time></trkpt><trkpt lat="40.3787182" lon="15.048104"><ele>42.0</ele><time>2026-03-29T10:22:28.287Z</time></trkpt><trkpt lat="40.3788831" lon="15.04805"><ele>42.0</ele><time>2026-03-29T10:22:29.267Z</time></trkpt><trkpt lat="40.3790432" lon="15.0479945"><ele>40.25</ele><time>2026-03-29T10:22:30.268Z</time></trkpt><trkpt lat="40.3791834" lon="15.0479607"><ele>38.5</ele><time>2026-03-29T10:22:31.252Z</time></trkpt><trkpt lat="40.3793238" lon="15.0479207"><ele>36.75</ele><time>2026-03-29T10:22:32.264Z</time></trkpt><trkpt lat="40.3794469" lon="15.04788"><ele>35.0</ele><time>2026-03-29T10:22:33.273Z</time></trkpt><trkpt lat="40.3795496" lon="15.0478483"><ele>35.0</ele><time>2026-03-29T10:22:34.297Z</time></trkpt><trkpt lat="40.3796307" lon="15.0478242"><ele>35.0</ele><time>2026-03-29T10:22:35.304Z</time></trkpt><trkpt lat="40.3797288" lon="15.0477993"><ele>35.0</ele><time>2026-03-29T10:22:37.264Z</time></trkpt><trkpt lat="40.3797902" lon="15.0478267"><ele>35.0</ele><time>2026-03-29T10:22:40.277Z</time></trkpt><trkpt lat="40.3798157" lon="15.0479482"><ele>35.0</ele><time>2026-03-29T10:22:43.436Z</time></trkpt><trkpt lat="40.3798226" lon="15.0480902"><ele>34.4</ele><time>2026-03-29T10:22:45.285Z</time></trkpt><trkpt lat="40.3798294" lon="15.0481986"><ele>33.8</ele><time>2026-03-29T10:22:46.265Z</time></trkpt><trkpt lat="40.379837" lon="15.0483271"><ele>33.2</ele><time>2026-03-29T10:22:47.279Z</time></trkpt><trkpt lat="40.379847" lon="15.0484625"><ele>32.6</ele><time>2026-03-29T10:22:48.27Z</time></trkpt><trkpt lat="40.3798584" lon="15.0486437"><ele>32.0</ele><time>2026-03-29T10:22:49.285Z</time></trkpt><trkpt lat="40.3798672" lon="15.0488274"><ele>32.0</ele><time>2026-03-29T10:22:50.282Z</time></trkpt><trkpt lat="40.3798766" lon="15.0490108"><ele>32.0</ele><time>2026-03-29T10:22:51.289Z</time></trkpt><trkpt lat="40.3798883" lon="15.0491813"><ele>32.0</ele><time>2026-03-29T10:22:52.265Z</time></trkpt><trkpt lat="40.3798994" lon="15.0493435"><ele>32.0</ele><time>2026-03-29T10:22:53.263Z</time></trkpt><trkpt lat="40.3799102" lon="15.0495104"><ele>32.0</ele><time>2026-03-29T10:22:54.299Z</time></trkpt><trkpt lat="40.3799201" lon="15.0496677"><ele>32.0</ele><time>2026-03-29T10:22:55.265Z</time></trkpt><trkpt lat="40.379931" lon="15.049853"><ele>32.0</ele><time>2026-03-29T10:22:56.3Z</time></trkpt><trkpt lat="40.3799439" lon="15.0500443"><ele>32.0</ele><time>2026-03-29T10:22:57.289Z</time></trkpt><trkpt lat="40.3799534" lon="15.050239"><ele>32.33333333333333</ele><time>2026-03-29T10:22:58.268Z</time></trkpt><trkpt lat="40.379966" lon="15.0504457"><ele>32.666666666666664</ele><time>2026-03-29T10:22:59.273Z</time></trkpt><trkpt lat="40.3799815" lon="15.0506506"><ele>33.0</ele><time>2026-03-29T10:23:00.253Z</time></trkpt><trkpt lat="40.3800035" lon="15.0508729"><ele>33.666666666666664</ele><time>2026-03-29T10:23:01.299Z</time></trkpt><trkpt lat="40.3800381" lon="15.0510874"><ele>34.33333333333333</ele><time>2026-03-29T10:23:02.294Z</time></trkpt><trkpt lat="40.3800869" lon="15.0513215"><ele>35.0</ele><time>2026-03-29T10:23:03.375Z</time></trkpt><trkpt lat="40.3801766" lon="15.051686"><ele>35.5</ele><time>2026-03-29T10:23:05.289Z</time></trkpt><trkpt lat="40.3802215" lon="15.0518721"><ele>36.0</ele><time>2026-03-29T10:23:06.304Z</time></trkpt><trkpt lat="40.3802683" lon="15.0520503"><ele>36.5</ele><time>2026-03-29T10:23:07.293Z</time></trkpt><trkpt lat="40.3803236" lon="15.0522203"><ele>37.0</ele><time>2026-03-29T10:23:08.288Z</time></trkpt><trkpt lat="40.3803862" lon="15.0523841"><ele>36.75</ele><time>2026-03-29T10:23:09.275Z</time></trkpt><trkpt lat="40.3804553" lon="15.0525438"><ele>36.5</ele><time>2026-03-29T10:23:10.28Z</time></trkpt><trkpt lat="40.380526" lon="15.0526947"><ele>36.25</ele><time>2026-03-29T10:23:11.291Z</time></trkpt><trkpt lat="40.3805955" lon="15.0528332"><ele>36.0</ele><time>2026-03-29T10:23:12.284Z</time></trkpt><trkpt lat="40.3806615" lon="15.0529621"><ele>36.0</ele><time>2026-03-29T10:23:13.306Z</time></trkpt><trkpt lat="40.3807197" lon="15.0530787"><ele>36.0</ele><time>2026-03-29T10:23:14.298Z</time></trkpt><trkpt lat="40.3807717" lon="15.0531804"><ele>36.0</ele><time>2026-03-29T10:23:15.291Z</time></trkpt><trkpt lat="40.3808235" lon="15.0532684"><ele>36.0</ele><time>2026-03-29T10:23:16.278Z</time></trkpt><trkpt lat="40.3808823" lon="15.053337"><ele>36.0</ele><time>2026-03-29T10:23:17.269Z</time></trkpt><trkpt lat="40.3809497" lon="15.0533753"><ele>36.0</ele><time>2026-03-29T10:23:18.291Z</time></trkpt><trkpt lat="40.3810151" lon="15.0533874"><ele>36.25</ele><time>2026-03-29T10:23:19.254Z</time></trkpt><trkpt lat="40.3810955" lon="15.0533668"><ele>36.5</ele><time>2026-03-29T10:23:20.347Z</time></trkpt><trkpt lat="40.3811932" lon="15.0533123"><ele>36.75</ele><time>2026-03-29T10:23:21.454Z</time></trkpt><trkpt lat="40.3813714" lon="15.0531605"><ele>37.0</ele><time>2026-03-29T10:23:23.291Z</time></trkpt><trkpt lat="40.3815757" lon="15.0529915"><ele>36.0</ele><time>2026-03-29T10:23:25.256Z</time></trkpt><trkpt lat="40.381685" lon="15.0529137"><ele>35.0</ele><time>2026-03-29T10:23:26.263Z</time></trkpt><trkpt lat="40.3818165" lon="15.0528249"><ele>34.0</ele><time>2026-03-29T10:23:27.281Z</time></trkpt><trkpt lat="40.3819685" lon="15.0527167"><ele>33.0</ele><time>2026-03-29T10:23:28.282Z</time></trkpt><trkpt lat="40.3821468" lon="15.0525977"><ele>31.666666666666664</ele><time>2026-03-29T10:23:29.271Z</time></trkpt><trkpt lat="40.382288" lon="15.0524998"><ele>30.333333333333332</ele><time>2026-03-29T10:23:30.27Z</time></trkpt><trkpt lat="40.3824311" lon="15.0524026"><ele>29.0</ele><time>2026-03-29T10:23:31.258Z</time></trkpt><trkpt lat="40.3825722" lon="15.0523094"><ele>28.666666666666664</ele><time>2026-03-29T10:23:32.25Z</time></trkpt><trkpt lat="40.3827216" lon="15.0522116"><ele>28.333333333333336</ele><time>2026-03-29T10:23:33.266Z</time></trkpt><trkpt lat="40.3828948" lon="15.0520937"><ele>28.0</ele><time>2026-03-29T10:23:34.281Z</time></trkpt><trkpt lat="40.3830562" lon="15.0519839"><ele>27.333333333333336</ele><time>2026-03-29T10:23:35.288Z</time></trkpt><trkpt lat="40.3832355" lon="15.0518646"><ele>26.666666666666664</ele><time>2026-03-29T10:23:36.387Z</time></trkpt><trkpt lat="40.3833849" lon="15.0517698"><ele>26.0</ele><time>2026-03-29T10:23:37.275Z</time></trkpt><trkpt lat="40.3835527" lon="15.0516653"><ele>26.0</ele><time>2026-03-29T10:23:38.271Z</time></trkpt><trkpt lat="40.383721" lon="15.0515603"><ele>26.0</ele><time>2026-03-29T10:23:39.277Z</time></trkpt><trkpt lat="40.3838832" lon="15.0514577"><ele>26.0</ele><time>2026-03-29T10:23:40.288Z</time></trkpt><trkpt lat="40.3840347" lon="15.0513603"><ele>26.0</ele><time>2026-03-29T10:23:41.283Z</time></trkpt><trkpt lat="40.3841803" lon="15.0512653"><ele>26.0</ele><time>2026-03-29T10:23:42.299Z</time></trkpt><trkpt lat="40.3843282" lon="15.0511667"><ele>26.0</ele><time>2026-03-29T10:23:43.382Z</time></trkpt><trkpt lat="40.3844495" lon="15.0510855"><ele>26.0</ele><time>2026-03-29T10:23:44.297Z</time></trkpt><trkpt lat="40.3845773" lon="15.0510035"><ele>26.0</ele><time>2026-03-29T10:23:45.285Z</time></trkpt><trkpt lat="40.3846988" lon="15.0509302"><ele>26.0</ele><time>2026-03-29T10:23:46.275Z</time></trkpt><trkpt lat="40.3848116" lon="15.0508626"><ele>26.0</ele><time>2026-03-29T10:23:47.28Z</time></trkpt><trkpt lat="40.3849154" lon="15.0508107"><ele>26.0</ele><time>2026-03-29T10:23:48.272Z</time></trkpt><trkpt lat="40.3850087" lon="15.0507887"><ele>26.0</ele><time>2026-03-29T10:23:49.297Z</time></trkpt><trkpt lat="40.3850955" lon="15.0507931"><ele>26.0</ele><time>2026-03-29T10:23:50.276Z</time></trkpt><trkpt lat="40.3852326" lon="15.0508262"><ele>26.0</ele><time>2026-03-29T10:23:51.32Z</time></trkpt><trkpt lat="40.3853436" lon="15.0508779"><ele>26.0</ele><time>2026-03-29T10:23:52.286Z</time></trkpt><trkpt lat="40.3854664" lon="15.050959"><ele>25.666666666666664</ele><time>2026-03-29T10:23:53.284Z</time></trkpt><trkpt lat="40.385608" lon="15.0510529"><ele>25.333333333333336</ele><time>2026-03-29T10:23:54.295Z</time></trkpt><trkpt lat="40.3857625" lon="15.0511505"><ele>25.0</ele><time>2026-03-29T10:23:55.29Z</time></trkpt><trkpt lat="40.3859307" lon="15.0512499"><ele>25.0</ele><time>2026-03-29T10:23:56.303Z</time></trkpt><trkpt lat="40.3861279" lon="15.051363"><ele>25.0</ele><time>2026-03-29T10:23:57.424Z</time></trkpt><trkpt lat="40.3864688" lon="15.0515602"><ele>25.0</ele><time>2026-03-29T10:23:59.437Z</time></trkpt><trkpt lat="40.3867456" lon="15.0517283"><ele>25.0</ele><time>2026-03-29T10:24:01.384Z</time></trkpt><trkpt lat="40.3868717" lon="15.0518058"><ele>25.0</ele><time>2026-03-29T10:24:02.339Z</time></trkpt><trkpt lat="40.3869981" lon="15.0518756"><ele>25.0</ele><time>2026-03-29T10:24:03.344Z</time></trkpt><trkpt lat="40.3871192" lon="15.0519306"><ele>25.0</ele><time>2026-03-29T10:24:04.347Z</time></trkpt><trkpt lat="40.3872347" lon="15.0519784"><ele>25.0</ele><time>2026-03-29T10:24:05.37Z</time></trkpt><trkpt lat="40.3873394" lon="15.0520271"><ele>25.0</ele><time>2026-03-29T10:24:06.358Z</time></trkpt><trkpt lat="40.3874301" lon="15.0520647"><ele>25.166666666666668</ele><time>2026-03-29T10:24:07.334Z</time></trkpt><trkpt lat="40.3874961" lon="15.0520821"><ele>25.333333333333336</ele><time>2026-03-29T10:24:08.282Z</time></trkpt><trkpt lat="40.3875775" lon="15.0521334"><ele>25.5</ele><time>2026-03-29T10:24:10.276Z</time></trkpt><trkpt lat="40.3876351" lon="15.0521845"><ele>25.666666666666664</ele><time>2026-03-29T10:24:17.358Z</time></trkpt><trkpt lat="40.387741" lon="15.0522717"><ele>25.833333333333332</ele><time>2026-03-29T10:24:27.278Z</time></trkpt><trkpt lat="40.3877931" lon="15.0523677"><ele>26.0</ele><time>2026-03-29T10:24:30.3Z</time></trkpt><trkpt lat="40.387843" lon="15.0525292"><ele>26.0</ele><time>2026-03-29T10:24:32.283Z</time></trkpt><trkpt lat="40.3878648" lon="15.0526176"><ele>26.0</ele><time>2026-03-29T10:24:33.302Z</time></trkpt><trkpt lat="40.3878984" lon="15.0527656"><ele>26.0</ele><time>2026-03-29T10:24:35.281Z</time></trkpt><trkpt lat="40.3879243" lon="15.0528793"><ele>26.0</ele><time>2026-03-29T10:24:36.349Z</time></trkpt><trkpt lat="40.3879497" lon="15.0529824"><ele>26.0</ele><time>2026-03-29T10:24:37.305Z</time></trkpt><trkpt lat="40.387979" lon="15.0531124"><ele>26.5</ele><time>2026-03-29T10:24:38.265Z</time></trkpt><trkpt lat="40.388012" lon="15.0532618"><ele>27.0</ele><time>2026-03-29T10:24:39.282Z</time></trkpt><trkpt lat="40.3880495" lon="15.0534188"><ele>27.5</ele><time>2026-03-29T10:24:40.276Z</time></trkpt><trkpt lat="40.3880904" lon="15.0535902"><ele>28.0</ele><time>2026-03-29T10:24:41.306Z</time></trkpt><trkpt lat="40.3881269" lon="15.0537666"><ele>28.0</ele><time>2026-03-29T10:24:42.305Z</time></trkpt><trkpt lat="40.3881653" lon="15.0539498"><ele>28.0</ele><time>2026-03-29T10:24:43.275Z</time></trkpt><trkpt lat="40.3882052" lon="15.0541329"><ele>28.0</ele><time>2026-03-29T10:24:44.298Z</time></trkpt><trkpt lat="40.3882449" lon="15.0543164"><ele>28.0</ele><time>2026-03-29T10:24:45.282Z</time></trkpt><trkpt lat="40.3882855" lon="15.0545111"><ele>28.0</ele><time>2026-03-29T10:24:46.28Z</time></trkpt><trkpt lat="40.388328" lon="15.0547142"><ele>28.0</ele><time>2026-03-29T10:24:47.277Z</time></trkpt><trkpt lat="40.3883785" lon="15.0549257"><ele>28.0</ele><time>2026-03-29T10:24:48.292Z</time></trkpt><trkpt lat="40.3884336" lon="15.0551537"><ele>27.666666666666668</ele><time>2026-03-29T10:24:49.341Z</time></trkpt><trkpt lat="40.3884813" lon="15.0553632"><ele>27.333333333333336</ele><time>2026-03-29T10:24:50.269Z</time></trkpt><trkpt lat="40.3885392" lon="15.0556108"><ele>27.0</ele><time>2026-03-29T10:24:51.341Z</time></trkpt><trkpt lat="40.3885917" lon="15.0558351"><ele>27.666666666666664</ele><time>2026-03-29T10:24:52.291Z</time></trkpt><trkpt lat="40.3886467" lon="15.056067"><ele>28.333333333333332</ele><time>2026-03-29T10:24:53.265Z</time></trkpt><trkpt lat="40.3887041" lon="15.0563181"><ele>29.0</ele><time>2026-03-29T10:24:54.3Z</time></trkpt><trkpt lat="40.3887617" lon="15.0565658"><ele>28.666666666666664</ele><time>2026-03-29T10:24:55.312Z</time></trkpt><trkpt lat="40.3888176" lon="15.0568033"><ele>28.333333333333336</ele><time>2026-03-29T10:24:56.28Z</time></trkpt><trkpt lat="40.3888758" lon="15.0570515"><ele>28.0</ele><time>2026-03-29T10:24:57.283Z</time></trkpt><trkpt lat="40.3889373" lon="15.0573044"><ele>28.666666666666668</ele><time>2026-03-29T10:24:58.303Z</time></trkpt><trkpt lat="40.3889956" lon="15.0575446"><ele>29.333333333333336</ele><time>2026-03-29T10:24:59.279Z</time></trkpt><trkpt lat="40.3890549" lon="15.057796"><ele>30.0</ele><time>2026-03-29T10:25:00.297Z</time></trkpt><trkpt lat="40.389114" lon="15.0580472"><ele>30.666666666666664</ele><time>2026-03-29T10:25:01.306Z</time></trkpt><trkpt lat="40.3891752" lon="15.0583006"><ele>31.333333333333332</ele><time>2026-03-29T10:25:02.324Z</time></trkpt><trkpt lat="40.3892267" lon="15.058521"><ele>32.0</ele><time>2026-03-29T10:25:03.263Z</time></trkpt><trkpt lat="40.3892795" lon="15.058752"><ele>32.0</ele><time>2026-03-29T10:25:04.3Z</time></trkpt><trkpt lat="40.3893302" lon="15.0589777"><ele>32.0</ele><time>2026-03-29T10:25:05.306Z</time></trkpt><trkpt lat="40.3893816" lon="15.0591974"><ele>32.0</ele><time>2026-03-29T10:25:06.301Z</time></trkpt><trkpt lat="40.3894333" lon="15.0594043"><ele>31.666666666666664</ele><time>2026-03-29T10:25:07.301Z</time></trkpt><trkpt lat="40.3894827" lon="15.0596219"><ele>31.333333333333336</ele><time>2026-03-29T10:25:08.468Z</time></trkpt><trkpt lat="40.3895646" lon="15.0599648"><ele>31.0</ele><time>2026-03-29T10:25:10.375Z</time></trkpt><trkpt lat="40.3896097" lon="15.0601433"><ele>31.5</ele><time>2026-03-29T10:25:11.355Z</time></trkpt><trkpt lat="40.3896528" lon="15.0603236"><ele>32.0</ele><time>2026-03-29T10:25:12.38Z</time></trkpt><trkpt lat="40.3896942" lon="15.0604901"><ele>32.5</ele><time>2026-03-29T10:25:13.331Z</time></trkpt><trkpt lat="40.3897394" lon="15.0606597"><ele>33.0</ele><time>2026-03-29T10:25:14.361Z</time></trkpt><trkpt lat="40.3897793" lon="15.060814"><ele>33.75</ele><time>2026-03-29T10:25:15.375Z</time></trkpt><trkpt lat="40.3898069" lon="15.0609619"><ele>34.5</ele><time>2026-03-29T10:25:16.347Z</time></trkpt><trkpt lat="40.3898224" lon="15.0611192"><ele>35.25</ele><time>2026-03-29T10:25:17.37Z</time></trkpt><trkpt lat="40.3898281" lon="15.0612836"><ele>36.0</ele><time>2026-03-29T10:25:18.364Z</time></trkpt><trkpt lat="40.3898201" lon="15.0614524"><ele>36.5</ele><time>2026-03-29T10:25:19.344Z</time></trkpt><trkpt lat="40.3898001" lon="15.0616265"><ele>37.0</ele><time>2026-03-29T10:25:20.332Z</time></trkpt><trkpt lat="40.3897695" lon="15.0618053"><ele>37.5</ele><time>2026-03-29T10:25:21.34Z</time></trkpt><trkpt lat="40.3897397" lon="15.0619785"><ele>38.0</ele><time>2026-03-29T10:25:22.356Z</time></trkpt><trkpt lat="40.3897118" lon="15.0621465"><ele>38.0</ele><time>2026-03-29T10:25:23.353Z</time></trkpt><trkpt lat="40.3896808" lon="15.0623235"><ele>38.0</ele><time>2026-03-29T10:25:24.374Z</time></trkpt><trkpt lat="40.3896516" lon="15.0624873"><ele>38.0</ele><time>2026-03-29T10:25:25.333Z</time></trkpt><trkpt lat="40.3896239" lon="15.0626576"><ele>38.0</ele><time>2026-03-29T10:25:26.345Z</time></trkpt><trkpt lat="40.3895968" lon="15.0628275"><ele>38.0</ele><time>2026-03-29T10:25:27.337Z</time></trkpt><trkpt lat="40.3895687" lon="15.0629915"><ele>38.0</ele><time>2026-03-29T10:25:28.35Z</time></trkpt><trkpt lat="40.3895431" lon="15.0631446"><ele>38.0</ele><time>2026-03-29T10:25:29.375Z</time></trkpt><trkpt lat="40.3895208" lon="15.0632951"><ele>38.0</ele><time>2026-03-29T10:25:30.351Z</time></trkpt><trkpt lat="40.3895025" lon="15.0634538"><ele>38.0</ele><time>2026-03-29T10:25:31.363Z</time></trkpt><trkpt lat="40.3894938" lon="15.063615"><ele>38.0</ele><time>2026-03-29T10:25:32.375Z</time></trkpt><trkpt lat="40.3895" lon="15.0637714"><ele>38.0</ele><time>2026-03-29T10:25:33.35Z</time></trkpt><trkpt lat="40.3895216" lon="15.0639376"><ele>38.0</ele><time>2026-03-29T10:25:34.37Z</time></trkpt><trkpt lat="40.38955" lon="15.064093"><ele>38.4</ele><time>2026-03-29T10:25:35.34Z</time></trkpt><trkpt lat="40.3895854" lon="15.0642401"><ele>38.8</ele><time>2026-03-29T10:25:36.361Z</time></trkpt><trkpt lat="40.3896156" lon="15.0643707"><ele>39.2</ele><time>2026-03-29T10:25:37.367Z</time></trkpt><trkpt lat="40.389644" lon="15.0644998"><ele>39.6</ele><time>2026-03-29T10:25:38.349Z</time></trkpt><trkpt lat="40.3896853" lon="15.0646256"><ele>40.0</ele><time>2026-03-29T10:25:39.489Z</time></trkpt><trkpt lat="40.3897836" lon="15.0647883"><ele>41.5</ele><time>2026-03-29T10:25:41.38Z</time></trkpt><trkpt lat="40.3898633" lon="15.0648511"><ele>43.0</ele><time>2026-03-29T10:25:42.363Z</time></trkpt><trkpt lat="40.3899645" lon="15.0648974"><ele>44.5</ele><time>2026-03-29T10:25:43.35Z</time></trkpt><trkpt lat="40.3900983" lon="15.0649262"><ele>46.0</ele><time>2026-03-29T10:25:44.449Z</time></trkpt><trkpt lat="40.3903153" lon="15.0649611"><ele>46.0</ele><time>2026-03-29T10:25:46.357Z</time></trkpt><trkpt lat="40.390408" lon="15.0649987"><ele>46.0</ele><time>2026-03-29T10:25:47.37Z</time></trkpt><trkpt lat="40.3904688" lon="15.0650416"><ele>46.0</ele><time>2026-03-29T10:25:48.369Z</time></trkpt><trkpt lat="40.390539" lon="15.0651955"><ele>46.0</ele><time>2026-03-29T10:25:50.53Z</time></trkpt><trkpt lat="40.3907406" lon="15.0656087"><ele>46.75</ele><time>2026-03-29T10:25:52.389Z</time></trkpt><trkpt lat="40.3907997" lon="15.0657673"><ele>47.5</ele><time>2026-03-29T10:25:53.409Z</time></trkpt><trkpt lat="40.3908523" lon="15.0659153"><ele>48.25</ele><time>2026-03-29T10:25:54.356Z</time></trkpt><trkpt lat="40.3909105" lon="15.0660778"><ele>49.0</ele><time>2026-03-29T10:25:55.393Z</time></trkpt><trkpt lat="40.3909614" lon="15.0662205"><ele>49.0</ele><time>2026-03-29T10:25:56.385Z</time></trkpt><trkpt lat="40.3910113" lon="15.0663463"><ele>49.0</ele><time>2026-03-29T10:25:57.359Z</time></trkpt><trkpt lat="40.391082" lon="15.0664684"><ele>49.0</ele><time>2026-03-29T10:25:58.412Z</time></trkpt><trkpt lat="40.3911638" lon="15.0665754"><ele>49.0</ele><time>2026-03-29T10:25:59.342Z</time></trkpt><trkpt lat="40.3912625" lon="15.0666791"><ele>50.75</ele><time>2026-03-29T10:26:00.363Z</time></trkpt><trkpt lat="40.3913542" lon="15.0667713"><ele>52.5</ele><time>2026-03-29T10:26:01.367Z</time></trkpt><trkpt lat="40.3914459" lon="15.0668745"><ele>54.25</ele><time>2026-03-29T10:26:02.395Z</time></trkpt><trkpt lat="40.391537" lon="15.0669678"><ele>56.0</ele><time>2026-03-29T10:26:03.364Z</time></trkpt><trkpt lat="40.3916278" lon="15.0670635"><ele>56.0</ele><time>2026-03-29T10:26:04.368Z</time></trkpt><trkpt lat="40.391713" lon="15.0671609"><ele>55.99999999999999</ele><time>2026-03-29T10:26:05.385Z</time></trkpt><trkpt lat="40.3917826" lon="15.0672636"><ele>55.99999999999999</ele><time>2026-03-29T10:26:06.372Z</time></trkpt><trkpt lat="40.3918415" lon="15.0673684"><ele>56.0</ele><time>2026-03-29T10:26:07.362Z</time></trkpt><trkpt lat="40.3918998" lon="15.0674865"><ele>56.0</ele><time>2026-03-29T10:26:08.384Z</time></trkpt><trkpt lat="40.3919566" lon="15.0676077"><ele>54.8</ele><time>2026-03-29T10:26:09.373Z</time></trkpt><trkpt lat="40.3920107" lon="15.0677476"><ele>53.599999999999994</ele><time>2026-03-29T10:26:10.434Z</time></trkpt><trkpt lat="40.3920554" lon="15.067875"><ele>52.4</ele><time>2026-03-29T10:26:11.392Z</time></trkpt><trkpt lat="40.3920883" lon="15.0680044"><ele>51.2</ele><time>2026-03-29T10:26:12.39Z</time></trkpt><trkpt lat="40.3921113" lon="15.0681239"><ele>50.0</ele><time>2026-03-29T10:26:13.362Z</time></trkpt><trkpt lat="40.3921256" lon="15.0682444"><ele>49.6</ele><time>2026-03-29T10:26:14.386Z</time></trkpt><trkpt lat="40.3921321" lon="15.0683469"><ele>49.2</ele><time>2026-03-29T10:26:15.381Z</time></trkpt><trkpt lat="40.3921347" lon="15.0684537"><ele>48.8</ele><time>2026-03-29T10:26:16.503Z</time></trkpt><trkpt lat="40.3921318" lon="15.0685469"><ele>48.4</ele><time>2026-03-29T10:26:17.491Z</time></trkpt><trkpt lat="40.3921279" lon="15.0687493"><ele>48.0</ele><time>2026-03-29T10:26:19.397Z</time></trkpt><trkpt lat="40.3921225" lon="15.068862"><ele>48.0</ele><time>2026-03-29T10:26:20.374Z</time></trkpt><trkpt lat="40.3921174" lon="15.0689827"><ele>48.0</ele><time>2026-03-29T10:26:21.393Z</time></trkpt><trkpt lat="40.3921099" lon="15.0690874"><ele>48.0</ele><time>2026-03-29T10:26:22.372Z</time></trkpt><trkpt lat="40.3921032" lon="15.0691826"><ele>48.0</ele><time>2026-03-29T10:26:23.424Z</time></trkpt><trkpt lat="40.3920924" lon="15.0692912"><ele>48.0</ele><time>2026-03-29T10:26:25.422Z</time></trkpt><trkpt lat="40.3920847" lon="15.06938"><ele>48.0</ele><time>2026-03-29T10:26:28.315Z</time></trkpt><trkpt lat="40.3921553" lon="15.0694379"><ele>48.4</ele><time>2026-03-29T10:26:33.291Z</time></trkpt><trkpt lat="40.3922632" lon="15.0694241"><ele>48.8</ele><time>2026-03-29T10:26:35.315Z</time></trkpt><trkpt lat="40.3923772" lon="15.0693667"><ele>49.2</ele><time>2026-03-29T10:26:37.281Z</time></trkpt><trkpt lat="40.3924417" lon="15.0693448"><ele>49.6</ele><time>2026-03-29T10:26:38.292Z</time></trkpt><trkpt lat="40.3925119" lon="15.0693182"><ele>50.0</ele><time>2026-03-29T10:26:39.247Z</time></trkpt><trkpt lat="40.3925969" lon="15.0692863"><ele>50.0</ele><time>2026-03-29T10:26:40.267Z</time></trkpt><trkpt lat="40.3926933" lon="15.0692532"><ele>50.0</ele><time>2026-03-29T10:26:41.299Z</time></trkpt><trkpt lat="40.3927897" lon="15.0692205"><ele>50.0</ele><time>2026-03-29T10:26:42.276Z</time></trkpt><trkpt lat="40.3928847" lon="15.0691841"><ele>50.0</ele><time>2026-03-29T10:26:43.289Z</time></trkpt><trkpt lat="40.392974" lon="15.0691511"><ele>50.0</ele><time>2026-03-29T10:26:44.291Z</time></trkpt><trkpt lat="40.3930677" lon="15.0691156"><ele>50.8</ele><time>2026-03-29T10:26:45.288Z</time></trkpt><trkpt lat="40.3931685" lon="15.0690753"><ele>51.6</ele><time>2026-03-29T10:26:46.304Z</time></trkpt><trkpt lat="40.3932705" lon="15.0690351"><ele>52.400000000000006</ele><time>2026-03-29T10:26:47.324Z</time></trkpt><trkpt lat="40.3933624" lon="15.0689989"><ele>53.2</ele><time>2026-03-29T10:26:48.304Z</time></trkpt><trkpt lat="40.3934529" lon="15.0689653"><ele>54.0</ele><time>2026-03-29T10:26:49.294Z</time></trkpt><trkpt lat="40.3935327" lon="15.0689354"><ele>54.0</ele><time>2026-03-29T10:26:50.275Z</time></trkpt><trkpt lat="40.3936044" lon="15.0689094"><ele>54.0</ele><time>2026-03-29T10:26:51.288Z</time></trkpt><trkpt lat="40.3936696" lon="15.0688863"><ele>54.0</ele><time>2026-03-29T10:26:52.29Z</time></trkpt><trkpt lat="40.3937356" lon="15.0688702"><ele>54.0</ele><time>2026-03-29T10:26:53.282Z</time></trkpt><trkpt lat="40.3938047" lon="15.0688515"><ele>54.0</ele><time>2026-03-29T10:26:54.261Z</time></trkpt><trkpt lat="40.3938803" lon="15.0688229"><ele>54.0</ele><time>2026-03-29T10:26:55.279Z</time></trkpt><trkpt lat="40.3939652" lon="15.0687888"><ele>54.0</ele><time>2026-03-29T10:26:56.27Z</time></trkpt><trkpt lat="40.3940524" lon="15.0687548"><ele>54.400000000000006</ele><time>2026-03-29T10:26:57.3Z</time></trkpt><trkpt lat="40.3941438" lon="15.0687247"><ele>54.800000000000004</ele><time>2026-03-29T10:26:58.406Z</time></trkpt><trkpt lat="40.394225" lon="15.068696"><ele>55.199999999999996</ele><time>2026-03-29T10:26:59.389Z</time></trkpt><trkpt lat="40.394394" lon="15.0686233"><ele>55.599999999999994</ele><time>2026-03-29T10:27:01.3Z</time></trkpt><trkpt lat="40.3944804" lon="15.0685823"><ele>56.0</ele><time>2026-03-29T10:27:02.262Z</time></trkpt><trkpt lat="40.3945717" lon="15.0685353"><ele>56.0</ele><time>2026-03-29T10:27:03.273Z</time></trkpt><trkpt lat="40.3946538" lon="15.0684945"><ele>55.99999999999999</ele><time>2026-03-29T10:27:04.286Z</time></trkpt><trkpt lat="40.3947246" lon="15.0684552"><ele>55.99999999999999</ele><time>2026-03-29T10:27:05.284Z</time></trkpt><trkpt lat="40.3947867" lon="15.0684142"><ele>56.0</ele><time>2026-03-29T10:27:06.304Z</time></trkpt><trkpt lat="40.3949069" lon="15.0683558"><ele>56.0</ele><time>2026-03-29T10:27:08.28Z</time></trkpt><trkpt lat="40.3949956" lon="15.0683419"><ele>56.199999999999996</ele><time>2026-03-29T10:27:09.275Z</time></trkpt><trkpt lat="40.3951004" lon="15.0683355"><ele>56.39999999999999</ele><time>2026-03-29T10:27:10.275Z</time></trkpt><trkpt lat="40.3952549" lon="15.0683053"><ele>56.6</ele><time>2026-03-29T10:27:12.301Z</time></trkpt><trkpt lat="40.3953437" lon="15.0682765"><ele>56.8</ele><time>2026-03-29T10:27:13.306Z</time></trkpt><trkpt lat="40.3954057" lon="15.0682464"><ele>57.0</ele><time>2026-03-29T10:27:14.271Z</time></trkpt><trkpt lat="40.3954628" lon="15.0682089"><ele>57.400000000000006</ele><time>2026-03-29T10:27:15.289Z</time></trkpt><trkpt lat="40.3955177" lon="15.0681382"><ele>57.800000000000004</ele><time>2026-03-29T10:27:18.299Z</time></trkpt><trkpt lat="40.3955889" lon="15.0681021"><ele>58.2</ele><time>2026-03-29T10:27:19.305Z</time></trkpt><trkpt lat="40.395681" lon="15.0680519"><ele>58.6</ele><time>2026-03-29T10:27:20.406Z</time></trkpt><trkpt lat="40.3957936" lon="15.0679248"><ele>59.0</ele><time>2026-03-29T10:27:22.31Z</time></trkpt><trkpt lat="40.3958249" lon="15.0678509"><ele>59.00000000000001</ele><time>2026-03-29T10:27:23.287Z</time></trkpt><trkpt lat="40.3959042" lon="15.0677192"><ele>59.0</ele><time>2026-03-29T10:27:25.301Z</time></trkpt><trkpt lat="40.3959512" lon="15.0676544"><ele>59.0</ele><time>2026-03-29T10:27:26.283Z</time></trkpt><trkpt lat="40.3960017" lon="15.0675903"><ele>59.0</ele><time>2026-03-29T10:27:27.286Z</time></trkpt><trkpt lat="40.3960528" lon="15.0675267"><ele>59.00000000000001</ele><time>2026-03-29T10:27:28.295Z</time></trkpt><trkpt lat="40.3961046" lon="15.0674576"><ele>59.0</ele><time>2026-03-29T10:27:29.298Z</time></trkpt><trkpt lat="40.3961602" lon="15.0673928"><ele>59.16666666666667</ele><time>2026-03-29T10:27:30.286Z</time></trkpt><trkpt lat="40.3962209" lon="15.0673178"><ele>59.333333333333336</ele><time>2026-03-29T10:27:31.299Z</time></trkpt><trkpt lat="40.396277" lon="15.0672419"><ele>59.5</ele><time>2026-03-29T10:27:32.272Z</time></trkpt><trkpt lat="40.3963273" lon="15.0671699"><ele>59.66666666666667</ele><time>2026-03-29T10:27:33.283Z</time></trkpt><trkpt lat="40.396376" lon="15.0671102"><ele>59.833333333333336</ele><time>2026-03-29T10:27:34.281Z</time></trkpt><trkpt lat="40.3964481" lon="15.0670333"><ele>60.0</ele><time>2026-03-29T10:27:35.488Z</time></trkpt><trkpt lat="40.3965345" lon="15.0669218"><ele>60.42857142857143</ele><time>2026-03-29T10:27:37.287Z</time></trkpt><trkpt lat="40.3965967" lon="15.0668591"><ele>60.857142857142854</ele><time>2026-03-29T10:27:38.284Z</time></trkpt><trkpt lat="40.3966674" lon="15.0667962"><ele>61.285714285714285</ele><time>2026-03-29T10:27:39.288Z</time></trkpt><trkpt lat="40.3967275" lon="15.0667421"><ele>61.714285714285715</ele><time>2026-03-29T10:27:40.286Z</time></trkpt><trkpt lat="40.3967831" lon="15.0666915"><ele>62.14285714285714</ele><time>2026-03-29T10:27:41.268Z</time></trkpt><trkpt lat="40.3968452" lon="15.0666416"><ele>62.57142857142857</ele><time>2026-03-29T10:27:42.294Z</time></trkpt><trkpt lat="40.3969065" lon="15.0665972"><ele>63.0</ele><time>2026-03-29T10:27:43.282Z</time></trkpt><trkpt lat="40.3969718" lon="15.0665588"><ele>63.5</ele><time>2026-03-29T10:27:44.279Z</time></trkpt><trkpt lat="40.3970352" lon="15.0665259"><ele>64.0</ele><time>2026-03-29T10:27:45.276Z</time></trkpt><trkpt lat="40.3970969" lon="15.066497"><ele>64.5</ele><time>2026-03-29T10:27:46.285Z</time></trkpt><trkpt lat="40.397163" lon="15.0664644"><ele>65.0</ele><time>2026-03-29T10:27:47.286Z</time></trkpt><trkpt lat="40.3972371" lon="15.0664233"><ele>65.5</ele><time>2026-03-29T10:27:48.301Z</time></trkpt><trkpt lat="40.3973174" lon="15.0663826"><ele>66.0</ele><time>2026-03-29T10:27:49.316Z</time></trkpt><trkpt lat="40.3974027" lon="15.0663305"><ele>66.0</ele><time>2026-03-29T10:27:50.277Z</time></trkpt><trkpt lat="40.3974901" lon="15.0662746"><ele>66.0</ele><time>2026-03-29T10:27:51.293Z</time></trkpt><trkpt lat="40.3975763" lon="15.0662226"><ele>66.0</ele><time>2026-03-29T10:27:52.27Z</time></trkpt><trkpt lat="40.397665" lon="15.0661667"><ele>66.0</ele><time>2026-03-29T10:27:53.279Z</time></trkpt><trkpt lat="40.3977478" lon="15.0661105"><ele>66.0</ele><time>2026-03-29T10:27:54.262Z</time></trkpt><trkpt lat="40.3978328" lon="15.0660516"><ele>66.0</ele><time>2026-03-29T10:27:55.26Z</time></trkpt><trkpt lat="40.397913" lon="15.0659917"><ele>66.0</ele><time>2026-03-29T10:27:56.282Z</time></trkpt><trkpt lat="40.3979934" lon="15.0659319"><ele>66.0</ele><time>2026-03-29T10:27:57.277Z</time></trkpt><trkpt lat="40.3980784" lon="15.0658808"><ele>66.0</ele><time>2026-03-29T10:27:58.27Z</time></trkpt><trkpt lat="40.3981662" lon="15.0658397"><ele>66.0</ele><time>2026-03-29T10:27:59.288Z</time></trkpt><trkpt lat="40.3982543" lon="15.0658083"><ele>66.5</ele><time>2026-03-29T10:28:00.268Z</time></trkpt><trkpt lat="40.3983436" lon="15.0657915"><ele>67.0</ele><time>2026-03-29T10:28:01.259Z</time></trkpt><trkpt lat="40.398437" lon="15.0657801"><ele>67.5</ele><time>2026-03-29T10:28:02.311Z</time></trkpt><trkpt lat="40.3985242" lon="15.0657728"><ele>68.0</ele><time>2026-03-29T10:28:03.281Z</time></trkpt><trkpt lat="40.3986074" lon="15.0657666"><ele>68.5</ele><time>2026-03-29T10:28:04.312Z</time></trkpt><trkpt lat="40.3986795" lon="15.0657655"><ele>69.0</ele><time>2026-03-29T10:28:05.296Z</time></trkpt><trkpt lat="40.3987593" lon="15.0657655"><ele>69.5</ele><time>2026-03-29T10:28:06.298Z</time></trkpt><trkpt lat="40.3988348" lon="15.0657674"><ele>70.0</ele><time>2026-03-29T10:28:07.3Z</time></trkpt><trkpt lat="40.3989015" lon="15.065767"><ele>70.5</ele><time>2026-03-29T10:28:08.284Z</time></trkpt><trkpt lat="40.3990061" lon="15.06575"><ele>71.0</ele><time>2026-03-29T10:28:10.291Z</time></trkpt><trkpt lat="40.3991241" lon="15.0657256"><ele>71.5</ele><time>2026-03-29T10:28:12.314Z</time></trkpt><trkpt lat="40.3991879" lon="15.0657272"><ele>72.0</ele><time>2026-03-29T10:28:13.446Z</time></trkpt><trkpt lat="40.3993141" lon="15.0657293"><ele>72.0</ele><time>2026-03-29T10:28:15.303Z</time></trkpt><trkpt lat="40.399385" lon="15.06572"><ele>72.0</ele><time>2026-03-29T10:28:16.283Z</time></trkpt><trkpt lat="40.3994619" lon="15.0656965"><ele>72.0</ele><time>2026-03-29T10:28:17.278Z</time></trkpt><trkpt lat="40.3995428" lon="15.0656679"><ele>72.0</ele><time>2026-03-29T10:28:18.294Z</time></trkpt><trkpt lat="40.3996267" lon="15.0656373"><ele>72.0</ele><time>2026-03-29T10:28:19.267Z</time></trkpt><trkpt lat="40.3997141" lon="15.0656049"><ele>72.0</ele><time>2026-03-29T10:28:20.283Z</time></trkpt><trkpt lat="40.3997985" lon="15.0655731"><ele>72.5</ele><time>2026-03-29T10:28:21.281Z</time></trkpt><trkpt lat="40.3998825" lon="15.0655409"><ele>73.0</ele><time>2026-03-29T10:28:22.279Z</time></trkpt><trkpt lat="40.3999615" lon="15.0655084"><ele>73.5</ele><time>2026-03-29T10:28:23.281Z</time></trkpt><trkpt lat="40.4000374" lon="15.0654735"><ele>74.0</ele><time>2026-03-29T10:28:24.285Z</time></trkpt><trkpt lat="40.4001156" lon="15.0654416"><ele>74.5</ele><time>2026-03-29T10:28:25.294Z</time></trkpt><trkpt lat="40.4001892" lon="15.0654056"><ele>75.0</ele><time>2026-03-29T10:28:26.286Z</time></trkpt><trkpt lat="40.4002618" lon="15.0653623"><ele>75.0</ele><time>2026-03-29T10:28:27.295Z</time></trkpt><trkpt lat="40.4003242" lon="15.0653146"><ele>75.0</ele><time>2026-03-29T10:28:28.275Z</time></trkpt><trkpt lat="40.4003791" lon="15.0652693"><ele>75.0</ele><time>2026-03-29T10:28:29.296Z</time></trkpt><trkpt lat="40.4004716" lon="15.065201"><ele>75.0</ele><time>2026-03-29T10:28:31.286Z</time></trkpt><trkpt lat="40.4005699" lon="15.0651226"><ele>75.0</ele><time>2026-03-29T10:28:33.268Z</time></trkpt><trkpt lat="40.4006501" lon="15.0650414"><ele>75.5</ele><time>2026-03-29T10:28:35.286Z</time></trkpt><trkpt lat="40.400726" lon="15.0649547"><ele>76.0</ele><time>2026-03-29T10:28:37.26Z</time></trkpt><trkpt lat="40.4007737" lon="15.0648958"><ele>76.5</ele><time>2026-03-29T10:28:38.264Z</time></trkpt><trkpt lat="40.400844" lon="15.0647675"><ele>77.0</ele><time>2026-03-29T10:28:40.274Z</time></trkpt><trkpt lat="40.4008796" lon="15.0646961"><ele>77.5</ele><time>2026-03-29T10:28:41.279Z</time></trkpt><trkpt lat="40.4009219" lon="15.0646296"><ele>78.0</ele><time>2026-03-29T10:28:42.286Z</time></trkpt><trkpt lat="40.4009749" lon="15.0645623"><ele>78.0</ele><time>2026-03-29T10:28:43.402Z</time></trkpt><trkpt lat="40.4010626" lon="15.0644589"><ele>78.0</ele><time>2026-03-29T10:28:45.273Z</time></trkpt><trkpt lat="40.4011175" lon="15.0644095"><ele>78.0</ele><time>2026-03-29T10:28:46.276Z</time></trkpt><trkpt lat="40.4011743" lon="15.0643625"><ele>78.0</ele><time>2026-03-29T10:28:47.272Z</time></trkpt><trkpt lat="40.4012351" lon="15.0643203"><ele>78.0</ele><time>2026-03-29T10:28:48.287Z</time></trkpt><trkpt lat="40.4012967" lon="15.0642878"><ele>78.0</ele><time>2026-03-29T10:28:49.282Z</time></trkpt><trkpt lat="40.4013639" lon="15.0642653"><ele>78.6</ele><time>2026-03-29T10:28:50.332Z</time></trkpt><trkpt lat="40.4014657" lon="15.0642232"><ele>79.19999999999999</ele><time>2026-03-29T10:28:52.291Z</time></trkpt><trkpt lat="40.4015229" lon="15.0641756"><ele>79.8</ele><time>2026-03-29T10:28:54.28Z</time></trkpt><trkpt lat="40.4016272" lon="15.0641095"><ele>80.39999999999999</ele><time>2026-03-29T10:28:56.315Z</time></trkpt><trkpt lat="40.4017164" lon="15.0640597"><ele>81.0</ele><time>2026-03-29T10:28:58.287Z</time></trkpt><trkpt lat="40.4018184" lon="15.0640176"><ele>81.8</ele><time>2026-03-29T10:29:00.283Z</time></trkpt><trkpt lat="40.4018836" lon="15.0640013"><ele>82.6</ele><time>2026-03-29T10:29:01.427Z</time></trkpt><trkpt lat="40.4020535" lon="15.0639951"><ele>83.4</ele><time>2026-03-29T10:29:03.274Z</time></trkpt><trkpt lat="40.4021517" lon="15.0639904"><ele>84.2</ele><time>2026-03-29T10:29:04.304Z</time></trkpt><trkpt lat="40.4022379" lon="15.0639888"><ele>85.0</ele><time>2026-03-29T10:29:05.306Z</time></trkpt><trkpt lat="40.4023079" lon="15.0639968"><ele>85.2</ele><time>2026-03-29T10:29:06.311Z</time></trkpt><trkpt lat="40.4024143" lon="15.0640169"><ele>85.4</ele><time>2026-03-29T10:29:08.308Z</time></trkpt><trkpt lat="40.4024914" lon="15.0640319"><ele>85.6</ele><time>2026-03-29T10:29:10.294Z</time></trkpt><trkpt lat="40.4025853" lon="15.0640007"><ele>85.8</ele><time>2026-03-29T10:29:13.393Z</time></trkpt><trkpt lat="40.4026754" lon="15.063943"><ele>86.0</ele><time>2026-03-29T10:29:16.281Z</time></trkpt><trkpt lat="40.4027339" lon="15.0638947"><ele>86.0</ele><time>2026-03-29T10:29:18.276Z</time></trkpt><trkpt lat="40.4028068" lon="15.0638604"><ele>86.0</ele><time>2026-03-29T10:29:20.306Z</time></trkpt><trkpt lat="40.4028841" lon="15.0638275"><ele>86.0</ele><time>2026-03-29T10:29:22.316Z</time></trkpt><trkpt lat="40.4029915" lon="15.0637934"><ele>86.0</ele><time>2026-03-29T10:29:24.404Z</time></trkpt><trkpt lat="40.4030789" lon="15.0637659"><ele>86.0</ele><time>2026-03-29T10:29:26.302Z</time></trkpt><trkpt lat="40.4031653" lon="15.0637406"><ele>86.0</ele><time>2026-03-29T10:29:28.343Z</time></trkpt><trkpt lat="40.4032865" lon="15.0637068"><ele>86.4</ele><time>2026-03-29T10:29:31.288Z</time></trkpt><trkpt lat="40.4033748" lon="15.0636665"><ele>86.8</ele><time>2026-03-29T10:29:33.34Z</time></trkpt><trkpt lat="40.4034666" lon="15.0636324"><ele>87.2</ele><time>2026-03-29T10:29:35.287Z</time></trkpt><trkpt lat="40.403567" lon="15.0635981"><ele>87.60000000000001</ele><time>2026-03-29T10:29:37.315Z</time></trkpt><trkpt lat="40.4036681" lon="15.0635693"><ele>88.0</ele><time>2026-03-29T10:29:39.278Z</time></trkpt><trkpt lat="40.4037748" lon="15.0635355"><ele>88.60000000000001</ele><time>2026-03-29T10:29:41.308Z</time></trkpt><trkpt lat="40.4038767" lon="15.0635093"><ele>89.2</ele><time>2026-03-29T10:29:43.318Z</time></trkpt><trkpt lat="40.403988" lon="15.0634726"><ele>89.8</ele><time>2026-03-29T10:29:45.314Z</time></trkpt><trkpt lat="40.4040964" lon="15.0634386"><ele>90.4</ele><time>2026-03-29T10:29:47.304Z</time></trkpt><trkpt lat="40.4041992" lon="15.0634204"><ele>91.0</ele><time>2026-03-29T10:29:49.308Z</time></trkpt><trkpt lat="40.4042708" lon="15.0634081"><ele>91.0</ele><time>2026-03-29T10:29:51.293Z</time></trkpt><trkpt lat="40.4043549" lon="15.0633748"><ele>91.0</ele><time>2026-03-29T10:29:53.285Z</time></trkpt><trkpt lat="40.4044275" lon="15.0633363"><ele>91.0</ele><time>2026-03-29T10:29:55.405Z</time></trkpt><trkpt lat="40.4045146" lon="15.0633131"><ele>91.0</ele><time>2026-03-29T10:29:57.302Z</time></trkpt><trkpt lat="40.404594" lon="15.0632878"><ele>91.0</ele><time>2026-03-29T10:29:59.28Z</time></trkpt><trkpt lat="40.404686" lon="15.0632607"><ele>91.0</ele><time>2026-03-29T10:30:01.281Z</time></trkpt><trkpt lat="40.4047931" lon="15.0632254"><ele>92.0</ele><time>2026-03-29T10:30:03.3Z</time></trkpt><trkpt lat="40.4048898" lon="15.0631924"><ele>93.0</ele><time>2026-03-29T10:30:05.304Z</time></trkpt><trkpt lat="40.4049825" lon="15.0631645"><ele>94.0</ele><time>2026-03-29T10:30:07.295Z</time></trkpt><trkpt lat="40.405085" lon="15.0631337"><ele>95.0</ele><time>2026-03-29T10:30:09.277Z</time></trkpt><trkpt lat="40.4051779" lon="15.0631231"><ele>96.0</ele><time>2026-03-29T10:30:11.313Z</time></trkpt><trkpt lat="40.4052798" lon="15.063095"><ele>96.0</ele><time>2026-03-29T10:30:13.291Z</time></trkpt><trkpt lat="40.4053906" lon="15.0630555"><ele>96.0</ele><time>2026-03-29T10:30:15.282Z</time></trkpt><trkpt lat="40.4054951" lon="15.0630139"><ele>96.0</ele><time>2026-03-29T10:30:17.314Z</time></trkpt><trkpt lat="40.4055893" lon="15.0629768"><ele>96.0</ele><time>2026-03-29T10:30:19.313Z</time></trkpt><trkpt lat="40.4056805" lon="15.0629524"><ele>96.0</ele><time>2026-03-29T10:30:21.287Z</time></trkpt><trkpt lat="40.4057876" lon="15.0629185"><ele>96.6</ele><time>2026-03-29T10:30:23.342Z</time></trkpt><trkpt lat="40.4059014" lon="15.0628822"><ele>97.19999999999999</ele><time>2026-03-29T10:30:25.288Z</time></trkpt><trkpt lat="40.406018" lon="15.0628444"><ele>97.80000000000001</ele><time>2026-03-29T10:30:27.274Z</time></trkpt><trkpt lat="40.4060784" lon="15.0628205"><ele>98.4</ele><time>2026-03-29T10:30:28.289Z</time></trkpt><trkpt lat="40.4061732" lon="15.0628"><ele>99.0</ele><time>2026-03-29T10:30:30.32Z</time></trkpt><trkpt lat="40.4062508" lon="15.0627897"><ele>99.6</ele><time>2026-03-29T10:30:32.292Z</time></trkpt><trkpt lat="40.4063471" lon="15.0627624"><ele>100.2</ele><time>2026-03-29T10:30:34.288Z</time></trkpt><trkpt lat="40.4064488" lon="15.0627342"><ele>100.8</ele><time>2026-03-29T10:30:36.306Z</time></trkpt><trkpt lat="40.4065226" lon="15.0627081"><ele>101.39999999999999</ele><time>2026-03-29T10:30:38.304Z</time></trkpt><trkpt lat="40.4066145" lon="15.062668"><ele>102.0</ele><time>2026-03-29T10:30:40.41Z</time></trkpt><trkpt lat="40.4067062" lon="15.0626367"><ele>102.0</ele><time>2026-03-29T10:30:42.383Z</time></trkpt><trkpt lat="40.4068046" lon="15.0626345"><ele>102.0</ele><time>2026-03-29T10:30:45.312Z</time></trkpt><trkpt lat="40.4068893" lon="15.0626313"><ele>102.0</ele><time>2026-03-29T10:30:47.305Z</time></trkpt><trkpt lat="40.4069953" lon="15.0626261"><ele>102.0</ele><time>2026-03-29T10:30:49.29Z</time></trkpt><trkpt lat="40.4070872" lon="15.0626216"><ele>102.0</ele><time>2026-03-29T10:30:51.313Z</time></trkpt><trkpt lat="40.4071935" lon="15.062612"><ele>103.19999999999999</ele><time>2026-03-29T10:30:53.286Z</time></trkpt><trkpt lat="40.4073107" lon="15.0626055"><ele>104.4</ele><time>2026-03-29T10:30:55.295Z</time></trkpt><trkpt lat="40.4074039" lon="15.0625973"><ele>105.60000000000001</ele><time>2026-03-29T10:30:57.288Z</time></trkpt><trkpt lat="40.4075033" lon="15.0625741"><ele>106.80000000000001</ele><time>2026-03-29T10:30:59.291Z</time></trkpt><trkpt lat="40.4075757" lon="15.0625785"><ele>108.0</ele><time>2026-03-29T10:31:01.273Z</time></trkpt><trkpt lat="40.4076642" lon="15.0625736"><ele>108.0</ele><time>2026-03-29T10:31:03.284Z</time></trkpt><trkpt lat="40.40776" lon="15.0625575"><ele>108.0</ele><time>2026-03-29T10:31:05.296Z</time></trkpt><trkpt lat="40.407841" lon="15.062535"><ele>108.0</ele><time>2026-03-29T10:31:08.269Z</time></trkpt><trkpt lat="40.4079173" lon="15.0625182"><ele>108.0</ele><time>2026-03-29T10:31:11.286Z</time></trkpt><trkpt lat="40.4080135" lon="15.0625011"><ele>108.0</ele><time>2026-03-29T10:31:13.318Z</time></trkpt><trkpt lat="40.4080762" lon="15.0624915"><ele>108.0</ele><time>2026-03-29T10:31:14.292Z</time></trkpt><trkpt lat="40.4081395" lon="15.0624851"><ele>108.83333333333333</ele><time>2026-03-29T10:31:15.295Z</time></trkpt><trkpt lat="40.4082045" lon="15.0624822"><ele>109.66666666666666</ele><time>2026-03-29T10:31:16.286Z</time></trkpt><trkpt lat="40.4082704" lon="15.062482"><ele>110.5</ele><time>2026-03-29T10:31:17.267Z</time></trkpt><trkpt lat="40.4083351" lon="15.0624802"><ele>111.33333333333333</ele><time>2026-03-29T10:31:18.292Z</time></trkpt><trkpt lat="40.408445" lon="15.0624698"><ele>112.16666666666666</ele><time>2026-03-29T10:31:20.306Z</time></trkpt><trkpt lat="40.4085474" lon="15.062458"><ele>113.0</ele><time>2026-03-29T10:31:22.285Z</time></trkpt><trkpt lat="40.4086157" lon="15.0624493"><ele>112.83333333333333</ele><time>2026-03-29T10:31:23.404Z</time></trkpt><trkpt lat="40.4087326" lon="15.0624355"><ele>112.66666666666666</ele><time>2026-03-29T10:31:25.268Z</time></trkpt><trkpt lat="40.4087963" lon="15.062427"><ele>112.5</ele><time>2026-03-29T10:31:26.278Z</time></trkpt><trkpt lat="40.4088596" lon="15.0624174"><ele>112.33333333333334</ele><time>2026-03-29T10:31:27.292Z</time></trkpt><trkpt lat="40.4089311" lon="15.0624109"><ele>112.16666666666667</ele><time>2026-03-29T10:31:28.412Z</time></trkpt><trkpt lat="40.4090599" lon="15.0623965"><ele>112.0</ele><time>2026-03-29T10:31:30.294Z</time></trkpt><trkpt lat="40.4091291" lon="15.062389"><ele>112.71428571428572</ele><time>2026-03-29T10:31:31.303Z</time></trkpt><trkpt lat="40.4091932" lon="15.0623832"><ele>113.42857142857143</ele><time>2026-03-29T10:31:32.273Z</time></trkpt><trkpt lat="40.4092612" lon="15.0623777"><ele>114.14285714285714</ele><time>2026-03-29T10:31:33.293Z</time></trkpt><trkpt lat="40.4093267" lon="15.0623714"><ele>114.85714285714286</ele><time>2026-03-29T10:31:34.269Z</time></trkpt><trkpt lat="40.409395" lon="15.0623636"><ele>115.57142857142858</ele><time>2026-03-29T10:31:35.272Z</time></trkpt><trkpt lat="40.4094676" lon="15.0623558"><ele>116.28571428571429</ele><time>2026-03-29T10:31:36.296Z</time></trkpt><trkpt lat="40.4095396" lon="15.0623479"><ele>117.0</ele><time>2026-03-29T10:31:37.303Z</time></trkpt><trkpt lat="40.40961" lon="15.0623404"><ele>118.25</ele><time>2026-03-29T10:31:38.329Z</time></trkpt><trkpt lat="40.4097287" lon="15.062329"><ele>119.5</ele><time>2026-03-29T10:31:40.28Z</time></trkpt><trkpt lat="40.4098501" lon="15.0623195"><ele>120.75</ele><time>2026-03-29T10:31:42.278Z</time></trkpt><trkpt lat="40.4099689" lon="15.0623092"><ele>122.0</ele><time>2026-03-29T10:31:44.306Z</time></trkpt><trkpt lat="40.4100971" lon="15.0622978"><ele>121.99999999999999</ele><time>2026-03-29T10:31:46.302Z</time></trkpt><trkpt lat="40.4101613" lon="15.062292"><ele>122.0</ele><time>2026-03-29T10:31:47.294Z</time></trkpt><trkpt lat="40.410227" lon="15.0622835"><ele>122.0</ele><time>2026-03-29T10:31:48.371Z</time></trkpt><trkpt lat="40.4103191" lon="15.0622672"><ele>122.0</ele><time>2026-03-29T10:31:50.305Z</time></trkpt><trkpt lat="40.4104215" lon="15.0622497"><ele>121.99999999999999</ele><time>2026-03-29T10:31:52.299Z</time></trkpt><trkpt lat="40.4105076" lon="15.0622495"><ele>122.0</ele><time>2026-03-29T10:31:54.278Z</time></trkpt><trkpt lat="40.4105732" lon="15.0622352"><ele>123.6</ele><time>2026-03-29T10:31:56.297Z</time></trkpt><trkpt lat="40.4106483" lon="15.0621641"><ele>125.19999999999999</ele><time>2026-03-29T10:31:59.309Z</time></trkpt><trkpt lat="40.4106782" lon="15.0620735"><ele>126.8</ele><time>2026-03-29T10:32:01.316Z</time></trkpt><trkpt lat="40.4107077" lon="15.0619542"><ele>128.4</ele><time>2026-03-29T10:32:03.294Z</time></trkpt><trkpt lat="40.4107377" lon="15.0618002"><ele>130.0</ele><time>2026-03-29T10:32:05.301Z</time></trkpt><trkpt lat="40.4107559" lon="15.061709"><ele>130.33333333333334</ele><time>2026-03-29T10:32:06.351Z</time></trkpt><trkpt lat="40.410792" lon="15.0615457"><ele>130.66666666666669</ele><time>2026-03-29T10:32:08.303Z</time></trkpt><trkpt lat="40.4108105" lon="15.061459"><ele>131.0</ele><time>2026-03-29T10:32:09.346Z</time></trkpt><trkpt lat="40.4108309" lon="15.0613795"><ele>131.33333333333334</ele><time>2026-03-29T10:32:10.344Z</time></trkpt><trkpt lat="40.4108532" lon="15.061302"><ele>131.66666666666666</ele><time>2026-03-29T10:32:11.299Z</time></trkpt><trkpt lat="40.410876" lon="15.0612243"><ele>132.0</ele><time>2026-03-29T10:32:12.317Z</time></trkpt><trkpt lat="40.410917" lon="15.0610794"><ele>132.0</ele><time>2026-03-29T10:32:14.303Z</time></trkpt><trkpt lat="40.4109513" lon="15.0609226"><ele>132.0</ele><time>2026-03-29T10:32:16.312Z</time></trkpt><trkpt lat="40.4109696" lon="15.0608386"><ele>132.0</ele><time>2026-03-29T10:32:17.299Z</time></trkpt><trkpt lat="40.4109927" lon="15.0607442"><ele>132.0</ele><time>2026-03-29T10:32:18.351Z</time></trkpt><trkpt lat="40.4110132" lon="15.0606574"><ele>132.0</ele><time>2026-03-29T10:32:19.307Z</time></trkpt><trkpt lat="40.4110369" lon="15.0605694"><ele>132.0</ele><time>2026-03-29T10:32:20.308Z</time></trkpt><trkpt lat="40.4110587" lon="15.060487"><ele>132.14285714285714</ele><time>2026-03-29T10:32:21.313Z</time></trkpt><trkpt lat="40.4110803" lon="15.0604015"><ele>132.28571428571428</ele><time>2026-03-29T10:32:22.326Z</time></trkpt><trkpt lat="40.4111057" lon="15.0603167"><ele>132.42857142857144</ele><time>2026-03-29T10:32:23.304Z</time></trkpt><trkpt lat="40.4111331" lon="15.0602267"><ele>132.57142857142856</ele><time>2026-03-29T10:32:24.308Z</time></trkpt><trkpt lat="40.4111585" lon="15.0601378"><ele>132.71428571428572</ele><time>2026-03-29T10:32:25.309Z</time></trkpt><trkpt lat="40.4111858" lon="15.0600508"><ele>132.85714285714286</ele><time>2026-03-29T10:32:26.291Z</time></trkpt><trkpt lat="40.4112155" lon="15.0599653"><ele>133.0</ele><time>2026-03-29T10:32:27.316Z</time></trkpt><trkpt lat="40.4112429" lon="15.0598819"><ele>132.57142857142858</ele><time>2026-03-29T10:32:28.315Z</time></trkpt><trkpt lat="40.4112681" lon="15.0597987"><ele>132.14285714285714</ele><time>2026-03-29T10:32:29.326Z</time></trkpt><trkpt lat="40.411292" lon="15.0597197"><ele>131.71428571428572</ele><time>2026-03-29T10:32:30.297Z</time></trkpt><trkpt lat="40.4113199" lon="15.0596372"><ele>131.28571428571428</ele><time>2026-03-29T10:32:31.294Z</time></trkpt><trkpt lat="40.4113435" lon="15.0595531"><ele>130.85714285714286</ele><time>2026-03-29T10:32:32.292Z</time></trkpt><trkpt lat="40.4113671" lon="15.0594635"><ele>130.42857142857144</ele><time>2026-03-29T10:32:33.362Z</time></trkpt><trkpt lat="40.4113891" lon="15.059376"><ele>130.0</ele><time>2026-03-29T10:32:34.328Z</time></trkpt><trkpt lat="40.4114107" lon="15.0592921"><ele>131.33333333333334</ele><time>2026-03-29T10:32:35.292Z</time></trkpt><trkpt lat="40.411434" lon="15.0592064"><ele>132.66666666666669</ele><time>2026-03-29T10:32:36.31Z</time></trkpt><trkpt lat="40.4114601" lon="15.0591277"><ele>134.0</ele><time>2026-03-29T10:32:37.305Z</time></trkpt><trkpt lat="40.4114895" lon="15.0590454"><ele>135.33333333333334</ele><time>2026-03-29T10:32:38.321Z</time></trkpt><trkpt lat="40.4115377" lon="15.0588963"><ele>136.66666666666666</ele><time>2026-03-29T10:32:40.315Z</time></trkpt><trkpt lat="40.411562" lon="15.0588182"><ele>138.0</ele><time>2026-03-29T10:32:41.312Z</time></trkpt><trkpt lat="40.411586" lon="15.0587384"><ele>138.0</ele><time>2026-03-29T10:32:42.296Z</time></trkpt><trkpt lat="40.4116089" lon="15.0586601"><ele>138.0</ele><time>2026-03-29T10:32:43.322Z</time></trkpt><trkpt lat="40.4116368" lon="15.058496"><ele>138.0</ele><time>2026-03-29T10:32:45.317Z</time></trkpt><trkpt lat="40.4116513" lon="15.0584115"><ele>138.0</ele><time>2026-03-29T10:32:46.335Z</time></trkpt><trkpt lat="40.41167" lon="15.0582564"><ele>138.0</ele><time>2026-03-29T10:32:48.305Z</time></trkpt><trkpt lat="40.4116834" lon="15.0581071"><ele>138.6</ele><time>2026-03-29T10:32:50.318Z</time></trkpt><trkpt lat="40.4117197" lon="15.0579728"><ele>139.20000000000002</ele><time>2026-03-29T10:32:52.315Z</time></trkpt><trkpt lat="40.4117726" lon="15.0578462"><ele>139.8</ele><time>2026-03-29T10:32:54.324Z</time></trkpt><trkpt lat="40.4118514" lon="15.0577349"><ele>140.4</ele><time>2026-03-29T10:32:56.288Z</time></trkpt><trkpt lat="40.4119299" lon="15.0576494"><ele>141.0</ele><time>2026-03-29T10:32:58.31Z</time></trkpt><trkpt lat="40.4120037" lon="15.0575571"><ele>141.0</ele><time>2026-03-29T10:33:00.287Z</time></trkpt><trkpt lat="40.4120708" lon="15.0574687"><ele>141.0</ele><time>2026-03-29T10:33:02.297Z</time></trkpt><trkpt lat="40.4121513" lon="15.0573478"><ele>141.0</ele><time>2026-03-29T10:33:04.306Z</time></trkpt><trkpt lat="40.4121934" lon="15.0572775"><ele>141.0</ele><time>2026-03-29T10:33:05.304Z</time></trkpt><trkpt lat="40.4122364" lon="15.0572114"><ele>141.0</ele><time>2026-03-29T10:33:06.327Z</time></trkpt><trkpt lat="40.4123315" lon="15.0571227"><ele>140.6</ele><time>2026-03-29T10:33:08.329Z</time></trkpt><trkpt lat="40.4124202" lon="15.0571176"><ele>140.2</ele><time>2026-03-29T10:33:10.29Z</time></trkpt><trkpt lat="40.4124857" lon="15.0571599"><ele>139.8</ele><time>2026-03-29T10:33:12.301Z</time></trkpt><trkpt lat="40.4125473" lon="15.0572215"><ele>139.4</ele><time>2026-03-29T10:33:14.312Z</time></trkpt><trkpt lat="40.4126243" lon="15.0573181"><ele>139.0</ele><time>2026-03-29T10:33:16.296Z</time></trkpt><trkpt lat="40.4127114" lon="15.0573936"><ele>139.6</ele><time>2026-03-29T10:33:18.297Z</time></trkpt><trkpt lat="40.4128069" lon="15.0574553"><ele>140.2</ele><time>2026-03-29T10:33:20.318Z</time></trkpt><trkpt lat="40.4128905" lon="15.0575339"><ele>140.79999999999998</ele><time>2026-03-29T10:33:22.301Z</time></trkpt><trkpt lat="40.4129575" lon="15.0576163"><ele>141.4</ele><time>2026-03-29T10:33:24.283Z</time></trkpt><trkpt lat="40.4130232" lon="15.0577267"><ele>142.0</ele><time>2026-03-29T10:33:26.301Z</time></trkpt><trkpt lat="40.4130923" lon="15.0578294"><ele>142.5</ele><time>2026-03-29T10:33:28.319Z</time></trkpt><trkpt lat="40.4131628" lon="15.0579458"><ele>143.0</ele><time>2026-03-29T10:33:30.332Z</time></trkpt><trkpt lat="40.4132332" lon="15.058068"><ele>143.5</ele><time>2026-03-29T10:33:32.323Z</time></trkpt><trkpt lat="40.4132973" lon="15.0581847"><ele>144.0</ele><time>2026-03-29T10:33:34.316Z</time></trkpt><trkpt lat="40.4133625" lon="15.0583016"><ele>145.8</ele><time>2026-03-29T10:33:36.314Z</time></trkpt><trkpt lat="40.4134284" lon="15.058416"><ele>147.60000000000002</ele><time>2026-03-29T10:33:38.302Z</time></trkpt><trkpt lat="40.4134959" lon="15.058519"><ele>149.4</ele><time>2026-03-29T10:33:40.3Z</time></trkpt><trkpt lat="40.4135658" lon="15.0586149"><ele>151.20000000000002</ele><time>2026-03-29T10:33:42.295Z</time></trkpt><trkpt lat="40.4136133" lon="15.0586842"><ele>153.0</ele><time>2026-03-29T10:33:44.3Z</time></trkpt><trkpt lat="40.4136561" lon="15.0587918"><ele>153.0</ele><time>2026-03-29T10:33:47.301Z</time></trkpt><trkpt lat="40.4136987" lon="15.058863"><ele>153.0</ele><time>2026-03-29T10:33:50.32Z</time></trkpt><trkpt lat="40.4137326" lon="15.0589804"><ele>153.0</ele><time>2026-03-29T10:33:58.379Z</time></trkpt><trkpt lat="40.413742" lon="15.0590755"><ele>153.0</ele><time>2026-03-29T10:33:59.386Z</time></trkpt><trkpt lat="40.4137545" lon="15.0591638"><ele>153.0</ele><time>2026-03-29T10:34:00.363Z</time></trkpt><trkpt lat="40.4137769" lon="15.0592827"><ele>153.0</ele><time>2026-03-29T10:34:01.368Z</time></trkpt><trkpt lat="40.4138088" lon="15.059433"><ele>154.25</ele><time>2026-03-29T10:34:02.395Z</time></trkpt><trkpt lat="40.4138481" lon="15.0595952"><ele>155.5</ele><time>2026-03-29T10:34:03.354Z</time></trkpt><trkpt lat="40.4138876" lon="15.0597463"><ele>156.75</ele><time>2026-03-29T10:34:04.382Z</time></trkpt><trkpt lat="40.4139286" lon="15.0599091"><ele>158.0</ele><time>2026-03-29T10:34:05.368Z</time></trkpt><trkpt lat="40.4139728" lon="15.0600924"><ele>159.25</ele><time>2026-03-29T10:34:06.378Z</time></trkpt><trkpt lat="40.4140128" lon="15.0602648"><ele>160.5</ele><time>2026-03-29T10:34:07.379Z</time></trkpt><trkpt lat="40.4140471" lon="15.0604178"><ele>161.75</ele><time>2026-03-29T10:34:08.344Z</time></trkpt><trkpt lat="40.4140851" lon="15.0605855"><ele>163.0</ele><time>2026-03-29T10:34:09.381Z</time></trkpt><trkpt lat="40.4141265" lon="15.060743"><ele>164.25</ele><time>2026-03-29T10:34:10.387Z</time></trkpt><trkpt lat="40.4141715" lon="15.0608851"><ele>165.5</ele><time>2026-03-29T10:34:11.37Z</time></trkpt><trkpt lat="40.4142241" lon="15.0610116"><ele>166.75</ele><time>2026-03-29T10:34:12.362Z</time></trkpt><trkpt lat="40.4142901" lon="15.0611306"><ele>168.0</ele><time>2026-03-29T10:34:13.374Z</time></trkpt><trkpt lat="40.4143676" lon="15.0612351"><ele>168.0</ele><time>2026-03-29T10:34:14.345Z</time></trkpt><trkpt lat="40.4144678" lon="15.0613348"><ele>168.0</ele><time>2026-03-29T10:34:15.38Z</time></trkpt><trkpt lat="40.4145937" lon="15.0614279"><ele>168.0</ele><time>2026-03-29T10:34:16.471Z</time></trkpt><trkpt lat="40.4147103" lon="15.0615049"><ele>168.0</ele><time>2026-03-29T10:34:17.372Z</time></trkpt><trkpt lat="40.414844" lon="15.0615984"><ele>170.66666666666666</ele><time>2026-03-29T10:34:18.366Z</time></trkpt><trkpt lat="40.4149835" lon="15.0616902"><ele>173.33333333333331</ele><time>2026-03-29T10:34:19.369Z</time></trkpt><trkpt lat="40.415118" lon="15.0617759"><ele>176.0</ele><time>2026-03-29T10:34:20.371Z</time></trkpt><trkpt lat="40.4152469" lon="15.0618613"><ele>176.0</ele><time>2026-03-29T10:34:21.371Z</time></trkpt><trkpt lat="40.4153736" lon="15.0619422"><ele>176.0</ele><time>2026-03-29T10:34:22.367Z</time></trkpt><trkpt lat="40.4155119" lon="15.0620282"><ele>176.0</ele><time>2026-03-29T10:34:23.388Z</time></trkpt><trkpt lat="40.4156569" lon="15.0621082"><ele>177.66666666666666</ele><time>2026-03-29T10:34:24.356Z</time></trkpt><trkpt lat="40.4158118" lon="15.0621939"><ele>179.33333333333334</ele><time>2026-03-29T10:34:25.349Z</time></trkpt><trkpt lat="40.4159676" lon="15.062294"><ele>181.0</ele><time>2026-03-29T10:34:26.363Z</time></trkpt><trkpt lat="40.4161256" lon="15.0623916"><ele>180.33333333333334</ele><time>2026-03-29T10:34:27.342Z</time></trkpt><trkpt lat="40.416291" lon="15.0624896"><ele>179.66666666666666</ele><time>2026-03-29T10:34:28.358Z</time></trkpt><trkpt lat="40.4164477" lon="15.0625915"><ele>179.0</ele><time>2026-03-29T10:34:29.378Z</time></trkpt><trkpt lat="40.4165959" lon="15.0626907"><ele>181.0</ele><time>2026-03-29T10:34:30.381Z</time></trkpt><trkpt lat="40.4167384" lon="15.0627784"><ele>183.0</ele><time>2026-03-29T10:34:31.364Z</time></trkpt><trkpt lat="40.4168757" lon="15.062859"><ele>185.0</ele><time>2026-03-29T10:34:32.382Z</time></trkpt><trkpt lat="40.4170017" lon="15.0629356"><ele>187.0</ele><time>2026-03-29T10:34:33.363Z</time></trkpt><trkpt lat="40.4171294" lon="15.0630108"><ele>189.0</ele><time>2026-03-29T10:34:34.361Z</time></trkpt><trkpt lat="40.417265" lon="15.0630849"><ele>191.0</ele><time>2026-03-29T10:34:35.372Z</time></trkpt><trkpt lat="40.4174076" lon="15.063166"><ele>193.0</ele><time>2026-03-29T10:34:36.478Z</time></trkpt><trkpt lat="40.4176333" lon="15.0632973"><ele>194.0</ele><time>2026-03-29T10:34:38.365Z</time></trkpt><trkpt lat="40.4177411" lon="15.063374"><ele>195.0</ele><time>2026-03-29T10:34:39.36Z</time></trkpt><trkpt lat="40.417837" lon="15.0634565"><ele>196.0</ele><time>2026-03-29T10:34:40.335Z</time></trkpt><trkpt lat="40.4179268" lon="15.0635678"><ele>197.0</ele><time>2026-03-29T10:34:41.361Z</time></trkpt><trkpt lat="40.4180181" lon="15.063704"><ele>197.0</ele><time>2026-03-29T10:34:42.375Z</time></trkpt><trkpt lat="40.4181144" lon="15.06386"><ele>197.0</ele><time>2026-03-29T10:34:43.387Z</time></trkpt><trkpt lat="40.4182144" lon="15.0640293"><ele>197.0</ele><time>2026-03-29T10:34:44.417Z</time></trkpt><trkpt lat="40.4183085" lon="15.0641842"><ele>199.25</ele><time>2026-03-29T10:34:45.366Z</time></trkpt><trkpt lat="40.4183988" lon="15.0643411"><ele>201.5</ele><time>2026-03-29T10:34:46.363Z</time></trkpt><trkpt lat="40.4184754" lon="15.0644838"><ele>203.75</ele><time>2026-03-29T10:34:47.362Z</time></trkpt><trkpt lat="40.4185347" lon="15.0646254"><ele>206.0</ele><time>2026-03-29T10:34:48.372Z</time></trkpt><trkpt lat="40.418583" lon="15.0647734"><ele>206.0</ele><time>2026-03-29T10:34:49.375Z</time></trkpt><trkpt lat="40.4186195" lon="15.0649328"><ele>206.0</ele><time>2026-03-29T10:34:50.359Z</time></trkpt><trkpt lat="40.4186472" lon="15.0651154"><ele>206.0</ele><time>2026-03-29T10:34:51.367Z</time></trkpt><trkpt lat="40.4186674" lon="15.065314"><ele>206.0</ele><time>2026-03-29T10:34:52.38Z</time></trkpt><trkpt lat="40.4186772" lon="15.0655253"><ele>214.5</ele><time>2026-03-29T10:34:53.366Z</time></trkpt><trkpt lat="40.4186883" lon="15.0657928"><ele>223.0</ele><time>2026-03-29T10:34:54.498Z</time></trkpt><trkpt lat="40.4187149" lon="15.0662739"><ele>223.0</ele><time>2026-03-29T10:34:56.373Z</time></trkpt><trkpt lat="40.4187323" lon="15.0665165"><ele>223.0</ele><time>2026-03-29T10:34:57.367Z</time></trkpt><trkpt lat="40.4187456" lon="15.0667347"><ele>223.0</ele><time>2026-03-29T10:34:58.377Z</time></trkpt><trkpt lat="40.4187526" lon="15.0669053"><ele>224.75</ele><time>2026-03-29T10:34:59.369Z</time></trkpt><trkpt lat="40.4187722" lon="15.0670924"><ele>226.5</ele><time>2026-03-29T10:35:00.387Z</time></trkpt><trkpt lat="40.4188062" lon="15.0672333"><ele>228.25</ele><time>2026-03-29T10:35:01.389Z</time></trkpt><trkpt lat="40.4188458" lon="15.0674282"><ele>230.0</ele><time>2026-03-29T10:35:02.405Z</time></trkpt><trkpt lat="40.418878" lon="15.0676038"><ele>233.0</ele><time>2026-03-29T10:35:03.398Z</time></trkpt><trkpt lat="40.4189093" lon="15.0677718"><ele>236.0</ele><time>2026-03-29T10:35:04.381Z</time></trkpt><trkpt lat="40.4189491" lon="15.0679553"><ele>239.0</ele><time>2026-03-29T10:35:05.399Z</time></trkpt><trkpt lat="40.4189774" lon="15.0681337"><ele>242.0</ele><time>2026-03-29T10:35:06.415Z</time></trkpt><trkpt lat="40.4189908" lon="15.0683171"><ele>243.5</ele><time>2026-03-29T10:35:07.394Z</time></trkpt><trkpt lat="40.4189974" lon="15.0685098"><ele>245.0</ele><time>2026-03-29T10:35:08.403Z</time></trkpt><trkpt lat="40.4189942" lon="15.0686983"><ele>246.5</ele><time>2026-03-29T10:35:09.398Z</time></trkpt><trkpt lat="40.4189904" lon="15.0688737"><ele>248.0</ele><time>2026-03-29T10:35:10.371Z</time></trkpt><trkpt lat="40.4189983" lon="15.0690924"><ele>250.5</ele><time>2026-03-29T10:35:11.534Z</time></trkpt><trkpt lat="40.4190572" lon="15.0694759"><ele>253.0</ele><time>2026-03-29T10:35:13.387Z</time></trkpt><trkpt lat="40.4190831" lon="15.0697033"><ele>254.66666666666666</ele><time>2026-03-29T10:35:14.381Z</time></trkpt><trkpt lat="40.4190954" lon="15.0699493"><ele>256.3333333333333</ele><time>2026-03-29T10:35:15.403Z</time></trkpt><trkpt lat="40.4191022" lon="15.0701979"><ele>258.0</ele><time>2026-03-29T10:35:16.4Z</time></trkpt><trkpt lat="40.4191104" lon="15.0704287"><ele>258.0</ele><time>2026-03-29T10:35:17.381Z</time></trkpt><trkpt lat="40.4191169" lon="15.0706407"><ele>258.0</ele><time>2026-03-29T10:35:18.393Z</time></trkpt><trkpt lat="40.4191257" lon="15.0708404"><ele>258.0</ele><time>2026-03-29T10:35:19.389Z</time></trkpt><trkpt lat="40.4191465" lon="15.0710526"><ele>259.6666666666667</ele><time>2026-03-29T10:35:20.384Z</time></trkpt><trkpt lat="40.4191835" lon="15.0712895"><ele>261.33333333333337</ele><time>2026-03-29T10:35:21.403Z</time></trkpt><trkpt lat="40.4192163" lon="15.0715085"><ele>263.0</ele><time>2026-03-29T10:35:22.387Z</time></trkpt><trkpt lat="40.4192445" lon="15.071687"><ele>264.5</ele><time>2026-03-29T10:35:23.29Z</time></trkpt><trkpt lat="40.4192633" lon="15.0718806"><ele>266.0</ele><time>2026-03-29T10:35:24.31Z</time></trkpt><trkpt lat="40.419291" lon="15.0720441"><ele>267.5</ele><time>2026-03-29T10:35:25.287Z</time></trkpt><trkpt lat="40.4193225" lon="15.072188"><ele>269.0</ele><time>2026-03-29T10:35:26.301Z</time></trkpt><trkpt lat="40.4193578" lon="15.0723069"><ele>269.0</ele><time>2026-03-29T10:35:27.308Z</time></trkpt><trkpt lat="40.4193964" lon="15.0723968"><ele>269.0</ele><time>2026-03-29T10:35:28.279Z</time></trkpt><trkpt lat="40.4194445" lon="15.0724658"><ele>269.0</ele><time>2026-03-29T10:35:29.327Z</time></trkpt><trkpt lat="40.4195728" lon="15.0725134"><ele>269.0</ele><time>2026-03-29T10:35:31.358Z</time></trkpt><trkpt lat="40.4196594" lon="15.0725009"><ele>269.0</ele><time>2026-03-29T10:35:32.334Z</time></trkpt><trkpt lat="40.4197573" lon="15.0724615"><ele>272.2</ele><time>2026-03-29T10:35:33.295Z</time></trkpt><trkpt lat="40.4198792" lon="15.0724042"><ele>275.4</ele><time>2026-03-29T10:35:34.419Z</time></trkpt><trkpt lat="40.419981" lon="15.0723695"><ele>278.6</ele><time>2026-03-29T10:35:35.323Z</time></trkpt><trkpt lat="40.4200776" lon="15.07234"><ele>281.8</ele><time>2026-03-29T10:35:36.311Z</time></trkpt><trkpt lat="40.4201506" lon="15.0723409"><ele>285.0</ele><time>2026-03-29T10:35:37.312Z</time></trkpt><trkpt lat="40.4202686" lon="15.0724638"><ele>287.0</ele><time>2026-03-29T10:35:39.429Z</time></trkpt><trkpt lat="40.4203856" lon="15.0727266"><ele>289.0</ele><time>2026-03-29T10:35:41.32Z</time></trkpt><trkpt lat="40.420454" lon="15.0729019"><ele>291.0</ele><time>2026-03-29T10:35:42.304Z</time></trkpt><trkpt lat="40.4205418" lon="15.0731073"><ele>295.6666666666667</ele><time>2026-03-29T10:35:43.297Z</time></trkpt><trkpt lat="40.4206274" lon="15.0733098"><ele>300.33333333333337</ele><time>2026-03-29T10:35:44.306Z</time></trkpt><trkpt lat="40.4207078" lon="15.0734823"><ele>305.0</ele><time>2026-03-29T10:35:45.28Z</time></trkpt><trkpt lat="40.4207685" lon="15.0736467"><ele>305.0</ele><time>2026-03-29T10:35:46.333Z</time></trkpt><trkpt lat="40.4208315" lon="15.0737838"><ele>305.0</ele><time>2026-03-29T10:35:47.315Z</time></trkpt><trkpt lat="40.4209107" lon="15.0739046"><ele>305.0</ele><time>2026-03-29T10:35:48.308Z</time></trkpt><trkpt lat="40.4210108" lon="15.0740143"><ele>305.0</ele><time>2026-03-29T10:35:49.286Z</time></trkpt><trkpt lat="40.4211416" lon="15.0741342"><ele>306.0</ele><time>2026-03-29T10:35:50.312Z</time></trkpt><trkpt lat="40.4212872" lon="15.0742569"><ele>307.0</ele><time>2026-03-29T10:35:51.312Z</time></trkpt><trkpt lat="40.4214248" lon="15.0743622"><ele>308.0</ele><time>2026-03-29T10:35:52.288Z</time></trkpt><trkpt lat="40.4215482" lon="15.0744551"><ele>312.0</ele><time>2026-03-29T10:35:53.292Z</time></trkpt><trkpt lat="40.4216537" lon="15.0745358"><ele>316.0</ele><time>2026-03-29T10:35:54.306Z</time></trkpt><trkpt lat="40.4217483" lon="15.0746351"><ele>320.0</ele><time>2026-03-29T10:35:55.455Z</time></trkpt><trkpt lat="40.421868" lon="15.074859"><ele>322.0</ele><time>2026-03-29T10:35:57.335Z</time></trkpt><trkpt lat="40.4219233" lon="15.0750209"><ele>324.0</ele><time>2026-03-29T10:35:58.287Z</time></trkpt><trkpt lat="40.4219834" lon="15.0752366"><ele>326.0</ele><time>2026-03-29T10:35:59.296Z</time></trkpt><trkpt lat="40.4220403" lon="15.0754567"><ele>326.0</ele><time>2026-03-29T10:36:00.299Z</time></trkpt><trkpt lat="40.4220935" lon="15.0756771"><ele>326.0</ele><time>2026-03-29T10:36:01.306Z</time></trkpt><trkpt lat="40.4221442" lon="15.0758775"><ele>326.0</ele><time>2026-03-29T10:36:02.302Z</time></trkpt><trkpt lat="40.4221947" lon="15.0760658"><ele>329.6</ele><time>2026-03-29T10:36:03.302Z</time></trkpt><trkpt lat="40.4222345" lon="15.0762241"><ele>333.20000000000005</ele><time>2026-03-29T10:36:04.302Z</time></trkpt><trkpt lat="40.4222747" lon="15.0763688"><ele>336.79999999999995</ele><time>2026-03-29T10:36:05.277Z</time></trkpt><trkpt lat="40.4223119" lon="15.0765006"><ele>340.4</ele><time>2026-03-29T10:36:06.323Z</time></trkpt><trkpt lat="40.4223394" lon="15.0765947"><ele>344.0</ele><time>2026-03-29T10:36:07.292Z</time></trkpt><trkpt lat="40.4223899" lon="15.076753"><ele>345.79999999999995</ele><time>2026-03-29T10:36:09.315Z</time></trkpt><trkpt lat="40.4223966" lon="15.0768447"><ele>347.59999999999997</ele><time>2026-03-29T10:36:10.288Z</time></trkpt><trkpt lat="40.4223919" lon="15.0769662"><ele>349.4</ele><time>2026-03-29T10:36:11.34Z</time></trkpt><trkpt lat="40.4223799" lon="15.0771017"><ele>351.2</ele><time>2026-03-29T10:36:12.317Z</time></trkpt><trkpt lat="40.4223608" lon="15.0772641"><ele>353.0</ele><time>2026-03-29T10:36:13.392Z</time></trkpt><trkpt lat="40.4223385" lon="15.0774032"><ele>354.5</ele><time>2026-03-29T10:36:14.307Z</time></trkpt><trkpt lat="40.4223152" lon="15.0775567"><ele>356.0</ele><time>2026-03-29T10:36:15.296Z</time></trkpt><trkpt lat="40.4222993" lon="15.0777141"><ele>357.5</ele><time>2026-03-29T10:36:16.297Z</time></trkpt><trkpt lat="40.4222909" lon="15.0778669"><ele>359.0</ele><time>2026-03-29T10:36:17.297Z</time></trkpt><trkpt lat="40.422295" lon="15.0780097"><ele>359.0</ele><time>2026-03-29T10:36:18.305Z</time></trkpt><trkpt lat="40.4222942" lon="15.0781398"><ele>359.0</ele><time>2026-03-29T10:36:19.319Z</time></trkpt><trkpt lat="40.4222744" lon="15.0782606"><ele>359.0</ele><time>2026-03-29T10:36:20.295Z</time></trkpt><trkpt lat="40.4222337" lon="15.0783893"><ele>359.0</ele><time>2026-03-29T10:36:21.283Z</time></trkpt><trkpt lat="40.4221795" lon="15.0785465"><ele>359.0</ele><time>2026-03-29T10:36:22.302Z</time></trkpt><trkpt lat="40.4221205" lon="15.0787056"><ele>357.75</ele><time>2026-03-29T10:36:23.289Z</time></trkpt><trkpt lat="40.4220576" lon="15.0788676"><ele>356.5</ele><time>2026-03-29T10:36:24.306Z</time></trkpt><trkpt lat="40.4220031" lon="15.0790242"><ele>355.25</ele><time>2026-03-29T10:36:25.323Z</time></trkpt><trkpt lat="40.4219558" lon="15.0791624"><ele>354.0</ele><time>2026-03-29T10:36:26.295Z</time></trkpt><trkpt lat="40.4219053" lon="15.0792929"><ele>356.5</ele><time>2026-03-29T10:36:27.283Z</time></trkpt><trkpt lat="40.4218485" lon="15.0794262"><ele>359.0</ele><time>2026-03-29T10:36:28.303Z</time></trkpt><trkpt lat="40.4217853" lon="15.0795615"><ele>361.5</ele><time>2026-03-29T10:36:29.296Z</time></trkpt><trkpt lat="40.4217236" lon="15.0796938"><ele>364.0</ele><time>2026-03-29T10:36:30.305Z</time></trkpt><trkpt lat="40.4216639" lon="15.0798012"><ele>364.0</ele><time>2026-03-29T10:36:31.288Z</time></trkpt><trkpt lat="40.4216029" lon="15.0798937"><ele>364.0</ele><time>2026-03-29T10:36:32.292Z</time></trkpt><trkpt lat="40.4215513" lon="15.0799652"><ele>364.0</ele><time>2026-03-29T10:36:33.307Z</time></trkpt><trkpt lat="40.4214611" lon="15.080051"><ele>364.0</ele><time>2026-03-29T10:36:36.387Z</time></trkpt><trkpt lat="40.4214327" lon="15.0801356"><ele>364.0</ele><time>2026-03-29T10:38:06.387Z</time></trkpt><trkpt lat="40.4214158" lon="15.0802716"><ele>365.0</ele><time>2026-03-29T10:38:08.61Z</time></trkpt><trkpt lat="40.4213989" lon="15.0803928"><ele>366.0</ele><time>2026-03-29T10:38:10.317Z</time></trkpt><trkpt lat="40.4213672" lon="15.0805456"><ele>367.0</ele><time>2026-03-29T10:38:12.303Z</time></trkpt><trkpt lat="40.4213479" lon="15.0806282"><ele>368.0</ele><time>2026-03-29T10:38:13.28Z</time></trkpt><trkpt lat="40.421328" lon="15.080711"><ele>369.0</ele><time>2026-03-29T10:38:14.289Z</time></trkpt><trkpt lat="40.4213121" lon="15.0807982"><ele>370.0</ele><time>2026-03-29T10:38:15.291Z</time></trkpt><trkpt lat="40.4213201" lon="15.0809561"><ele>370.0</ele><time>2026-03-29T10:38:17.271Z</time></trkpt><trkpt lat="40.4213338" lon="15.0810491"><ele>370.0</ele><time>2026-03-29T10:38:18.298Z</time></trkpt><trkpt lat="40.421276" lon="15.0811354"><ele>370.0</ele><time>2026-03-29T10:38:22.277Z</time></trkpt><trkpt lat="40.4212138" lon="15.0812213"><ele>370.0</ele><time>2026-03-29T10:38:24.263Z</time></trkpt><trkpt lat="40.4211377" lon="15.0813772"><ele>370.0</ele><time>2026-03-29T10:38:27.288Z</time></trkpt><trkpt lat="40.4211235" lon="15.0815135"><ele>370.0</ele><time>2026-03-29T10:38:29.286Z</time></trkpt><trkpt lat="40.4211881" lon="15.0815123"><ele>370.0</ele><time>2026-03-29T10:38:33.273Z</time></trkpt><trkpt lat="40.4211858" lon="15.0814199"><ele>370.0</ele><time>2026-03-29T10:38:37.271Z</time></trkpt><trkpt lat="40.4213028" lon="15.0814738"><ele>370.0</ele><time>2026-03-29T10:38:41.281Z</time></trkpt><trkpt lat="40.4212085" lon="15.0813507"><ele>370.0</ele><time>2026-03-29T10:38:44.293Z</time></trkpt><trkpt lat="40.4211269" lon="15.0813318"><ele>392.0</ele><time>2026-03-29T10:38:45.283Z</time></trkpt><trkpt lat="40.4216284" lon="15.0818821"><ele>392.0</ele><time>2026-03-29T10:38:46.276Z</time></trkpt><trkpt lat="40.42157" lon="15.0820058"><ele>392.0</ele><time>2026-03-29T10:38:48.293Z</time></trkpt><trkpt lat="40.4215334" lon="15.0821126"><ele>392.0</ele><time>2026-03-29T10:38:50.255Z</time></trkpt><trkpt lat="40.4214749" lon="15.0822305"><ele>392.0</ele><time>2026-03-29T10:38:52.294Z</time></trkpt><trkpt lat="40.421411" lon="15.0823719"><ele>392.0</ele><time>2026-03-29T10:38:54.289Z</time></trkpt><trkpt lat="40.4213812" lon="15.0824474"><ele>393.20000000000005</ele><time>2026-03-29T10:38:55.297Z</time></trkpt><trkpt lat="40.4213386" lon="15.082543"><ele>394.4</ele><time>2026-03-29T10:38:57.402Z</time></trkpt><trkpt lat="40.4212939" lon="15.0826519"><ele>395.6</ele><time>2026-03-29T10:38:59.327Z</time></trkpt><trkpt lat="40.4212407" lon="15.0827958"><ele>396.79999999999995</ele><time>2026-03-29T10:39:01.262Z</time></trkpt><trkpt lat="40.4212059" lon="15.0829427"><ele>398.0</ele><time>2026-03-29T10:39:03.3Z</time></trkpt><trkpt lat="40.421206" lon="15.0830377"><ele>397.16666666666663</ele><time>2026-03-29T10:39:05.308Z</time></trkpt><trkpt lat="40.4212186" lon="15.083132"><ele>396.3333333333333</ele><time>2026-03-29T10:39:07.302Z</time></trkpt><trkpt lat="40.4212534" lon="15.0832342"><ele>395.5</ele><time>2026-03-29T10:39:09.297Z</time></trkpt><trkpt lat="40.4213082" lon="15.0833617"><ele>394.66666666666663</ele><time>2026-03-29T10:39:11.297Z</time></trkpt><trkpt lat="40.4213264" lon="15.0834647"><ele>393.8333333333333</ele><time>2026-03-29T10:39:13.304Z</time></trkpt><trkpt lat="40.4213296" lon="15.0833464"><ele>393.0</ele><time>2026-03-29T10:39:27.348Z</time></trkpt><trkpt lat="40.4212887" lon="15.0832666"><ele>391.4</ele><time>2026-03-29T10:39:29.348Z</time></trkpt><trkpt lat="40.421238" lon="15.0831729"><ele>389.79999999999995</ele><time>2026-03-29T10:39:31.294Z</time></trkpt><trkpt lat="40.4211997" lon="15.0830687"><ele>388.2</ele><time>2026-03-29T10:39:33.292Z</time></trkpt><trkpt lat="40.4211831" lon="15.0829383"><ele>386.6</ele><time>2026-03-29T10:39:35.307Z</time></trkpt><trkpt lat="40.4212006" lon="15.0828051"><ele>385.0</ele><time>2026-03-29T10:39:37.291Z</time></trkpt><trkpt lat="40.421269" lon="15.082612"><ele>386.4</ele><time>2026-03-29T10:39:40.267Z</time></trkpt><trkpt lat="40.4213166" lon="15.0824833"><ele>387.8</ele><time>2026-03-29T10:39:42.303Z</time></trkpt><trkpt lat="40.4213692" lon="15.082366"><ele>389.20000000000005</ele><time>2026-03-29T10:39:44.321Z</time></trkpt><trkpt lat="40.42142" lon="15.0822483"><ele>390.6</ele><time>2026-03-29T10:39:46.292Z</time></trkpt><trkpt lat="40.4214715" lon="15.0821413"><ele>392.0</ele><time>2026-03-29T10:39:48.273Z</time></trkpt><trkpt lat="40.4215121" lon="15.0820389"><ele>391.99999999999994</ele><time>2026-03-29T10:39:50.3Z</time></trkpt><trkpt lat="40.4215575" lon="15.081924"><ele>392.0</ele><time>2026-03-29T10:39:52.285Z</time></trkpt><trkpt lat="40.4216057" lon="15.0818258"><ele>392.0</ele><time>2026-03-29T10:39:54.278Z</time></trkpt><trkpt lat="40.4216688" lon="15.0817531"><ele>392.0</ele><time>2026-03-29T10:39:56.279Z</time></trkpt><trkpt lat="40.4217191" lon="15.0816716"><ele>391.99999999999994</ele><time>2026-03-29T10:39:58.3Z</time></trkpt><trkpt lat="40.4217061" lon="15.0815534"><ele>392.0</ele><time>2026-03-29T10:40:01.283Z</time></trkpt><trkpt lat="40.421746" lon="15.0814658"><ele>391.66666666666663</ele><time>2026-03-29T10:40:05.276Z</time></trkpt><trkpt lat="40.4217952" lon="15.0813588"><ele>391.3333333333333</ele><time>2026-03-29T10:40:08.274Z</time></trkpt><trkpt lat="40.4218192" lon="15.0812674"><ele>391.0</ele><time>2026-03-29T10:40:10.284Z</time></trkpt><trkpt lat="40.4218586" lon="15.0811773"><ele>390.66666666666663</ele><time>2026-03-29T10:40:12.306Z</time></trkpt><trkpt lat="40.4219081" lon="15.0811101"><ele>390.3333333333333</ele><time>2026-03-29T10:40:14.295Z</time></trkpt><trkpt lat="40.4219469" lon="15.0810331"><ele>390.0</ele><time>2026-03-29T10:40:16.27Z</time></trkpt><trkpt lat="40.4219887" lon="15.0809608"><ele>390.0</ele><time>2026-03-29T10:40:19.291Z</time></trkpt><trkpt lat="40.4220481" lon="15.0808927"><ele>390.0</ele><time>2026-03-29T10:40:29.272Z</time></trkpt><trkpt lat="40.4221119" lon="15.0808154"><ele>390.0</ele><time>2026-03-29T10:40:32.284Z</time></trkpt><trkpt lat="40.4221846" lon="15.0807465"><ele>390.0</ele><time>2026-03-29T10:40:35.251Z</time></trkpt><trkpt lat="40.4222402" lon="15.0806923"><ele>390.0</ele><time>2026-03-29T10:40:37.287Z</time></trkpt><trkpt lat="40.4223065" lon="15.0806679"><ele>390.0</ele><time>2026-03-29T10:40:40.225Z</time></trkpt><trkpt lat="40.4223759" lon="15.0806608"><ele>389.6666666666667</ele><time>2026-03-29T10:40:43.278Z</time></trkpt><trkpt lat="40.4224539" lon="15.0806361"><ele>389.33333333333337</ele><time>2026-03-29T10:40:46.32Z</time></trkpt><trkpt lat="40.4225352" lon="15.0806095"><ele>389.0</ele><time>2026-03-29T10:40:49.278Z</time></trkpt><trkpt lat="40.422583" lon="15.0806667"><ele>388.6666666666667</ele><time>2026-03-29T10:40:54.266Z</time></trkpt><trkpt lat="40.422529" lon="15.0807402"><ele>388.33333333333337</ele><time>2026-03-29T10:40:58.271Z</time></trkpt><trkpt lat="40.4224482" lon="15.0807954"><ele>388.0</ele><time>2026-03-29T10:41:00.279Z</time></trkpt><trkpt lat="40.4223935" lon="15.0808386"><ele>390.2</ele><time>2026-03-29T10:41:01.264Z</time></trkpt><trkpt lat="40.4223299" lon="15.0808819"><ele>392.4</ele><time>2026-03-29T10:41:02.299Z</time></trkpt><trkpt lat="40.4222437" lon="15.0809791"><ele>394.59999999999997</ele><time>2026-03-29T10:41:04.272Z</time></trkpt><trkpt lat="40.4221918" lon="15.0811077"><ele>396.79999999999995</ele><time>2026-03-29T10:41:06.261Z</time></trkpt><trkpt lat="40.4221658" lon="15.0812491"><ele>399.0</ele><time>2026-03-29T10:41:08.239Z</time></trkpt><trkpt lat="40.4221919" lon="15.0813563"><ele>399.0</ele><time>2026-03-29T10:41:10.262Z</time></trkpt><trkpt lat="40.4222492" lon="15.0814249"><ele>399.0</ele><time>2026-03-29T10:41:12.281Z</time></trkpt><trkpt lat="40.4222733" lon="15.0815548"><ele>399.0</ele><time>2026-03-29T10:41:14.289Z</time></trkpt><trkpt lat="40.4222815" lon="15.081644"><ele>399.0</ele><time>2026-03-29T10:41:15.308Z</time></trkpt><trkpt lat="40.4222801" lon="15.0817373"><ele>399.0</ele><time>2026-03-29T10:41:16.317Z</time></trkpt><trkpt lat="40.4222754" lon="15.0818299"><ele>399.0</ele><time>2026-03-29T10:41:17.297Z</time></trkpt><trkpt lat="40.4222734" lon="15.0819212"><ele>400.4</ele><time>2026-03-29T10:41:18.29Z</time></trkpt><trkpt lat="40.4222733" lon="15.0820135"><ele>401.79999999999995</ele><time>2026-03-29T10:41:19.273Z</time></trkpt><trkpt lat="40.4222755" lon="15.0821331"><ele>403.20000000000005</ele><time>2026-03-29T10:41:20.476Z</time></trkpt><trkpt lat="40.4222789" lon="15.082361"><ele>404.6</ele><time>2026-03-29T10:41:22.283Z</time></trkpt><trkpt lat="40.4222808" lon="15.0824986"><ele>406.0</ele><time>2026-03-29T10:41:23.315Z</time></trkpt><trkpt lat="40.4222818" lon="15.0826243"><ele>407.0</ele><time>2026-03-29T10:41:24.269Z</time></trkpt><trkpt lat="40.4222842" lon="15.0827488"><ele>408.0</ele><time>2026-03-29T10:41:25.285Z</time></trkpt><trkpt lat="40.4222958" lon="15.0828628"><ele>409.0</ele><time>2026-03-29T10:41:26.278Z</time></trkpt><trkpt lat="40.4222989" lon="15.0829892"><ele>410.0</ele><time>2026-03-29T10:41:27.27Z</time></trkpt><trkpt lat="40.4223033" lon="15.0831263"><ele>411.0</ele><time>2026-03-29T10:41:28.29Z</time></trkpt><trkpt lat="40.4223096" lon="15.0832598"><ele>412.1666666666667</ele><time>2026-03-29T10:41:29.276Z</time></trkpt><trkpt lat="40.4223098" lon="15.0833799"><ele>413.33333333333337</ele><time>2026-03-29T10:41:30.277Z</time></trkpt><trkpt lat="40.4223087" lon="15.0835115"><ele>414.5</ele><time>2026-03-29T10:41:31.263Z</time></trkpt><trkpt lat="40.4223118" lon="15.0836206"><ele>415.6666666666667</ele><time>2026-03-29T10:41:32.268Z</time></trkpt><trkpt lat="40.4223108" lon="15.0837272"><ele>416.83333333333337</ele><time>2026-03-29T10:41:33.253Z</time></trkpt><trkpt lat="40.4223068" lon="15.0838235"><ele>418.0</ele><time>2026-03-29T10:41:34.257Z</time></trkpt><trkpt lat="40.4222889" lon="15.0839516"><ele>418.0</ele><time>2026-03-29T10:41:36.278Z</time></trkpt><trkpt lat="40.4222451" lon="15.0840543"><ele>418.0</ele><time>2026-03-29T10:41:38.294Z</time></trkpt><trkpt lat="40.4221511" lon="15.0842795"><ele>418.0</ele><time>2026-03-29T10:41:41.29Z</time></trkpt><trkpt lat="40.422121" lon="15.0843795"><ele>418.0</ele><time>2026-03-29T10:41:42.281Z</time></trkpt><trkpt lat="40.4220729" lon="15.0844954"><ele>418.33333333333337</ele><time>2026-03-29T10:41:43.269Z</time></trkpt><trkpt lat="40.4220335" lon="15.0846088"><ele>418.6666666666667</ele><time>2026-03-29T10:41:44.268Z</time></trkpt><trkpt lat="40.4219968" lon="15.0847213"><ele>419.0</ele><time>2026-03-29T10:41:45.283Z</time></trkpt><trkpt lat="40.4219668" lon="15.0848191"><ele>419.33333333333337</ele><time>2026-03-29T10:41:46.256Z</time></trkpt><trkpt lat="40.4219356" lon="15.0849364"><ele>419.6666666666667</ele><time>2026-03-29T10:41:47.268Z</time></trkpt><trkpt lat="40.4218912" lon="15.0850301"><ele>420.0</ele><time>2026-03-29T10:41:49.271Z</time></trkpt><trkpt lat="40.4218262" lon="15.0851941"><ele>420.0</ele><time>2026-03-29T10:41:51.261Z</time></trkpt><trkpt lat="40.4217728" lon="15.0853061"><ele>420.0</ele><time>2026-03-29T10:41:52.287Z</time></trkpt><trkpt lat="40.4217276" lon="15.0853919"><ele>420.0</ele><time>2026-03-29T10:41:53.28Z</time></trkpt><trkpt lat="40.4216828" lon="15.0854888"><ele>420.0</ele><time>2026-03-29T10:41:54.292Z</time></trkpt><trkpt lat="40.421643" lon="15.0856088"><ele>420.0</ele><time>2026-03-29T10:41:55.295Z</time></trkpt><trkpt lat="40.4216062" lon="15.0857377"><ele>421.75</ele><time>2026-03-29T10:41:56.279Z</time></trkpt><trkpt lat="40.421569" lon="15.0858796"><ele>423.5</ele><time>2026-03-29T10:41:57.287Z</time></trkpt><trkpt lat="40.4215312" lon="15.0860452"><ele>425.25</ele><time>2026-03-29T10:41:58.289Z</time></trkpt><trkpt lat="40.4214986" lon="15.0861952"><ele>427.0</ele><time>2026-03-29T10:41:59.282Z</time></trkpt><trkpt lat="40.4214655" lon="15.0863442"><ele>427.0</ele><time>2026-03-29T10:42:00.3Z</time></trkpt><trkpt lat="40.4214289" lon="15.0865023"><ele>427.0</ele><time>2026-03-29T10:42:01.388Z</time></trkpt><trkpt lat="40.4213717" lon="15.0867337"><ele>427.0</ele><time>2026-03-29T10:42:03.273Z</time></trkpt><trkpt lat="40.4213464" lon="15.0868411"><ele>427.0</ele><time>2026-03-29T10:42:04.278Z</time></trkpt><trkpt lat="40.4213218" lon="15.0869484"><ele>425.75</ele><time>2026-03-29T10:42:05.292Z</time></trkpt><trkpt lat="40.4212944" lon="15.087057"><ele>424.5</ele><time>2026-03-29T10:42:06.281Z</time></trkpt><trkpt lat="40.4212653" lon="15.0871752"><ele>423.25</ele><time>2026-03-29T10:42:07.281Z</time></trkpt><trkpt lat="40.4212293" lon="15.0873236"><ele>422.0</ele><time>2026-03-29T10:42:08.393Z</time></trkpt><trkpt lat="40.4211619" lon="15.0875424"><ele>422.0</ele><time>2026-03-29T10:42:10.262Z</time></trkpt><trkpt lat="40.4211228" lon="15.0876368"><ele>422.0</ele><time>2026-03-29T10:42:12.275Z</time></trkpt><trkpt lat="40.4210934" lon="15.087715"><ele>422.0</ele><time>2026-03-29T10:42:15.287Z</time></trkpt><trkpt lat="40.421092" lon="15.0878051"><ele>422.0</ele><time>2026-03-29T10:42:18.286Z</time></trkpt><trkpt lat="40.4210621" lon="15.087912"><ele>422.0</ele><time>2026-03-29T10:42:20.452Z</time></trkpt><trkpt lat="40.4210051" lon="15.0881313"><ele>425.0</ele><time>2026-03-29T10:42:22.29Z</time></trkpt><trkpt lat="40.4209667" lon="15.0882606"><ele>428.0</ele><time>2026-03-29T10:42:23.28Z</time></trkpt><trkpt lat="40.4209203" lon="15.0884281"><ele>431.0</ele><time>2026-03-29T10:42:24.302Z</time></trkpt><trkpt lat="40.420867" lon="15.0886252"><ele>434.0</ele><time>2026-03-29T10:42:25.277Z</time></trkpt><trkpt lat="40.4208108" lon="15.088836"><ele>434.0</ele><time>2026-03-29T10:42:26.286Z</time></trkpt><trkpt lat="40.420762" lon="15.0890205"><ele>434.0</ele><time>2026-03-29T10:42:27.278Z</time></trkpt><trkpt lat="40.4207125" lon="15.0891851"><ele>434.0</ele><time>2026-03-29T10:42:28.267Z</time></trkpt><trkpt lat="40.4206634" lon="15.0893463"><ele>434.0</ele><time>2026-03-29T10:42:29.298Z</time></trkpt><trkpt lat="40.4206202" lon="15.0894994"><ele>435.6</ele><time>2026-03-29T10:42:30.321Z</time></trkpt><trkpt lat="40.4205843" lon="15.0896269"><ele>437.2</ele><time>2026-03-29T10:42:31.272Z</time></trkpt><trkpt lat="40.4205598" lon="15.0897549"><ele>438.80000000000007</ele><time>2026-03-29T10:42:32.301Z</time></trkpt><trkpt lat="40.4205563" lon="15.0898809"><ele>440.40000000000003</ele><time>2026-03-29T10:42:33.269Z</time></trkpt><trkpt lat="40.420575" lon="15.0900159"><ele>442.0</ele><time>2026-03-29T10:42:34.294Z</time></trkpt><trkpt lat="40.4206196" lon="15.090146"><ele>443.0</ele><time>2026-03-29T10:42:35.31Z</time></trkpt><trkpt lat="40.4206854" lon="15.0902677"><ele>444.0</ele><time>2026-03-29T10:42:36.299Z</time></trkpt><trkpt lat="40.4207647" lon="15.0903927"><ele>445.0</ele><time>2026-03-29T10:42:37.443Z</time></trkpt><trkpt lat="40.4208189" lon="15.0905737"><ele>446.0</ele><time>2026-03-29T10:42:39.299Z</time></trkpt><trkpt lat="40.4208154" lon="15.0906781"><ele>446.20000000000005</ele><time>2026-03-29T10:42:40.275Z</time></trkpt><trkpt lat="40.4208104" lon="15.0908139"><ele>446.40000000000003</ele><time>2026-03-29T10:42:41.293Z</time></trkpt><trkpt lat="40.42078" lon="15.090953"><ele>446.6</ele><time>2026-03-29T10:42:42.303Z</time></trkpt><trkpt lat="40.4207113" lon="15.0910548"><ele>446.8</ele><time>2026-03-29T10:42:43.349Z</time></trkpt><trkpt lat="40.420629" lon="15.0911342"><ele>447.0</ele><time>2026-03-29T10:42:44.33Z</time></trkpt><trkpt lat="40.4205259" lon="15.0911758"><ele>445.75</ele><time>2026-03-29T10:42:45.359Z</time></trkpt><trkpt lat="40.4204275" lon="15.0911847"><ele>444.5</ele><time>2026-03-29T10:42:46.293Z</time></trkpt><trkpt lat="40.4203151" lon="15.0911838"><ele>443.25</ele><time>2026-03-29T10:42:47.284Z</time></trkpt><trkpt lat="40.4202001" lon="15.091213"><ele>442.0</ele><time>2026-03-29T10:42:48.272Z</time></trkpt><trkpt lat="40.4200696" lon="15.0912718"><ele>442.0</ele><time>2026-03-29T10:42:49.279Z</time></trkpt><trkpt lat="40.4199653" lon="15.0913613"><ele>442.0</ele><time>2026-03-29T10:42:50.278Z</time></trkpt><trkpt lat="40.4198829" lon="15.0914805"><ele>442.0</ele><time>2026-03-29T10:42:51.3Z</time></trkpt><trkpt lat="40.4198596" lon="15.0916043"><ele>442.0</ele><time>2026-03-29T10:42:52.275Z</time></trkpt><trkpt lat="40.4198284" lon="15.0917459"><ele>442.6</ele><time>2026-03-29T10:42:53.275Z</time></trkpt><trkpt lat="40.4197746" lon="15.0919144"><ele>443.20000000000005</ele><time>2026-03-29T10:42:54.307Z</time></trkpt><trkpt lat="40.419735" lon="15.0920471"><ele>443.8</ele><time>2026-03-29T10:42:55.307Z</time></trkpt><trkpt lat="40.4196969" lon="15.0921504"><ele>444.4</ele><time>2026-03-29T10:42:56.275Z</time></trkpt><trkpt lat="40.4196545" lon="15.0922365"><ele>445.0</ele><time>2026-03-29T10:42:57.283Z</time></trkpt><trkpt lat="40.4195881" lon="15.0923139"><ele>445.00000000000006</ele><time>2026-03-29T10:42:59.287Z</time></trkpt><trkpt lat="40.4195379" lon="15.0923693"><ele>445.0</ele><time>2026-03-29T10:43:01.288Z</time></trkpt><trkpt lat="40.4195175" lon="15.0924641"><ele>445.0</ele><time>2026-03-29T10:43:03.288Z</time></trkpt><trkpt lat="40.4195557" lon="15.0925855"><ele>445.0</ele><time>2026-03-29T10:43:05.275Z</time></trkpt><trkpt lat="40.4195948" lon="15.0926645"><ele>445.00000000000006</ele><time>2026-03-29T10:43:06.304Z</time></trkpt><trkpt lat="40.41964" lon="15.0927503"><ele>445.0</ele><time>2026-03-29T10:43:07.29Z</time></trkpt><trkpt lat="40.4196826" lon="15.0928354"><ele>448.0</ele><time>2026-03-29T10:43:08.302Z</time></trkpt><trkpt lat="40.4197209" lon="15.0929417"><ele>451.0</ele><time>2026-03-29T10:43:09.281Z</time></trkpt><trkpt lat="40.4197667" lon="15.0930638"><ele>454.0</ele><time>2026-03-29T10:43:10.276Z</time></trkpt><trkpt lat="40.4198169" lon="15.0931936"><ele>457.0</ele><time>2026-03-29T10:43:11.289Z</time></trkpt><trkpt lat="40.4198619" lon="15.0933196"><ele>460.0</ele><time>2026-03-29T10:43:12.269Z</time></trkpt><trkpt lat="40.4199029" lon="15.0934453"><ele>461.4</ele><time>2026-03-29T10:43:13.284Z</time></trkpt><trkpt lat="40.4199353" lon="15.0935591"><ele>462.8</ele><time>2026-03-29T10:43:14.293Z</time></trkpt><trkpt lat="40.419946" lon="15.0936607"><ele>464.20000000000005</ele><time>2026-03-29T10:43:15.295Z</time></trkpt><trkpt lat="40.419932" lon="15.0937744"><ele>465.6</ele><time>2026-03-29T10:43:16.308Z</time></trkpt><trkpt lat="40.4198984" lon="15.0938988"><ele>467.0</ele><time>2026-03-29T10:43:17.282Z</time></trkpt><trkpt lat="40.419853" lon="15.0940563"><ele>470.66666666666663</ele><time>2026-03-29T10:43:18.293Z</time></trkpt><trkpt lat="40.4198128" lon="15.0942073"><ele>474.33333333333337</ele><time>2026-03-29T10:43:19.284Z</time></trkpt><trkpt lat="40.4197771" lon="15.0943728"><ele>478.0</ele><time>2026-03-29T10:43:20.382Z</time></trkpt><trkpt lat="40.4197305" lon="15.0946303"><ele>478.0</ele><time>2026-03-29T10:43:22.291Z</time></trkpt><trkpt lat="40.4197242" lon="15.0947538"><ele>477.99999999999994</ele><time>2026-03-29T10:43:23.29Z</time></trkpt><trkpt lat="40.4197421" lon="15.0948925"><ele>477.99999999999994</ele><time>2026-03-29T10:43:24.374Z</time></trkpt><trkpt lat="40.4197532" lon="15.095019"><ele>478.0</ele><time>2026-03-29T10:43:25.298Z</time></trkpt><trkpt lat="40.4197578" lon="15.0951541"><ele>478.0</ele><time>2026-03-29T10:43:26.275Z</time></trkpt><trkpt lat="40.4197549" lon="15.095299"><ele>480.5</ele><time>2026-03-29T10:43:27.289Z</time></trkpt><trkpt lat="40.4197585" lon="15.095446"><ele>483.0</ele><time>2026-03-29T10:43:28.285Z</time></trkpt><trkpt lat="40.4197617" lon="15.0956129"><ele>485.5</ele><time>2026-03-29T10:43:29.269Z</time></trkpt><trkpt lat="40.4197685" lon="15.0957876"><ele>488.0</ele><time>2026-03-29T10:43:30.311Z</time></trkpt><trkpt lat="40.4197707" lon="15.0959918"><ele>490.3333333333333</ele><time>2026-03-29T10:43:31.391Z</time></trkpt><trkpt lat="40.4197685" lon="15.0961835"><ele>492.66666666666663</ele><time>2026-03-29T10:43:32.302Z</time></trkpt><trkpt lat="40.4197587" lon="15.0964153"><ele>495.0</ele><time>2026-03-29T10:43:33.291Z</time></trkpt><trkpt lat="40.419754" lon="15.096629"><ele>498.66666666666663</ele><time>2026-03-29T10:43:34.274Z</time></trkpt><trkpt lat="40.4197523" lon="15.0968487"><ele>502.3333333333333</ele><time>2026-03-29T10:43:35.282Z</time></trkpt><trkpt lat="40.4197579" lon="15.0970663"><ele>506.0</ele><time>2026-03-29T10:43:36.288Z</time></trkpt><trkpt lat="40.4197725" lon="15.0972639"><ele>507.75</ele><time>2026-03-29T10:43:37.277Z</time></trkpt><trkpt lat="40.4197846" lon="15.0974451"><ele>509.5</ele><time>2026-03-29T10:43:38.288Z</time></trkpt><trkpt lat="40.4197846" lon="15.0976019"><ele>511.25</ele><time>2026-03-29T10:43:39.282Z</time></trkpt><trkpt lat="40.4197579" lon="15.0977585"><ele>513.0</ele><time>2026-03-29T10:43:40.378Z</time></trkpt><trkpt lat="40.4197011" lon="15.098014"><ele>513.0</ele><time>2026-03-29T10:43:42.26Z</time></trkpt><trkpt lat="40.4196909" lon="15.0981614"><ele>513.0</ele><time>2026-03-29T10:43:43.25Z</time></trkpt><trkpt lat="40.4196992" lon="15.098305"><ele>513.0</ele><time>2026-03-29T10:43:44.253Z</time></trkpt><trkpt lat="40.4197195" lon="15.0984702"><ele>513.0</ele><time>2026-03-29T10:43:45.287Z</time></trkpt><trkpt lat="40.4197407" lon="15.098636"><ele>515.75</ele><time>2026-03-29T10:43:46.279Z</time></trkpt><trkpt lat="40.4197595" lon="15.0988134"><ele>518.5</ele><time>2026-03-29T10:43:47.29Z</time></trkpt><trkpt lat="40.4197762" lon="15.0989843"><ele>521.25</ele><time>2026-03-29T10:43:48.281Z</time></trkpt><trkpt lat="40.4197918" lon="15.0991438"><ele>524.0</ele><time>2026-03-29T10:43:49.268Z</time></trkpt><trkpt lat="40.4198095" lon="15.0993026"><ele>525.8</ele><time>2026-03-29T10:43:50.311Z</time></trkpt><trkpt lat="40.419827" lon="15.0994488"><ele>527.5999999999999</ele><time>2026-03-29T10:43:51.274Z</time></trkpt><trkpt lat="40.4198494" lon="15.0995815"><ele>529.4</ele><time>2026-03-29T10:43:52.295Z</time></trkpt><trkpt lat="40.4198756" lon="15.0996867"><ele>531.1999999999999</ele><time>2026-03-29T10:43:53.278Z</time></trkpt><trkpt lat="40.4199085" lon="15.0997809"><ele>533.0</ele><time>2026-03-29T10:43:54.301Z</time></trkpt><trkpt lat="40.4199407" lon="15.0998702"><ele>534.4</ele><time>2026-03-29T10:43:55.268Z</time></trkpt><trkpt lat="40.4199587" lon="15.0999581"><ele>535.8</ele><time>2026-03-29T10:43:56.282Z</time></trkpt><trkpt lat="40.419953" lon="15.1000419"><ele>537.2</ele><time>2026-03-29T10:43:57.285Z</time></trkpt><trkpt lat="40.419932" lon="15.1001328"><ele>538.6</ele><time>2026-03-29T10:43:58.271Z</time></trkpt><trkpt lat="40.4199124" lon="15.1002624"><ele>540.0</ele><time>2026-03-29T10:43:59.401Z</time></trkpt><trkpt lat="40.4198703" lon="15.1004708"><ele>540.0</ele><time>2026-03-29T10:44:01.274Z</time></trkpt><trkpt lat="40.4198438" lon="15.1005737"><ele>540.0</ele><time>2026-03-29T10:44:02.285Z</time></trkpt><trkpt lat="40.4198077" lon="15.1006959"><ele>540.0</ele><time>2026-03-29T10:44:04.286Z</time></trkpt><trkpt lat="40.4197622" lon="15.1007995"><ele>540.0</ele><time>2026-03-29T10:44:07.277Z</time></trkpt><trkpt lat="40.4197543" lon="15.1009146"><ele>540.0</ele><time>2026-03-29T10:44:11.29Z</time></trkpt><trkpt lat="40.41976" lon="15.1010172"><ele>540.0</ele><time>2026-03-29T10:44:14.297Z</time></trkpt><trkpt lat="40.4197736" lon="15.1011093"><ele>542.0</ele><time>2026-03-29T10:44:17.284Z</time></trkpt><trkpt lat="40.4197835" lon="15.101195"><ele>544.0</ele><time>2026-03-29T10:44:23.269Z</time></trkpt><trkpt lat="40.4198047" lon="15.1012819"><ele>546.0</ele><time>2026-03-29T10:44:26.304Z</time></trkpt><trkpt lat="40.4198437" lon="15.101383"><ele>548.0</ele><time>2026-03-29T10:44:29.285Z</time></trkpt><trkpt lat="40.4198672" lon="15.1014715"><ele>550.0</ele><time>2026-03-29T10:44:31.291Z</time></trkpt><trkpt lat="40.4198918" lon="15.1015554"><ele>552.0</ele><time>2026-03-29T10:44:33.301Z</time></trkpt><trkpt lat="40.4199342" lon="15.1016655"><ele>552.4285714285714</ele><time>2026-03-29T10:44:36.283Z</time></trkpt><trkpt lat="40.4199615" lon="15.1017433"><ele>552.8571428571429</ele><time>2026-03-29T10:44:38.303Z</time></trkpt><trkpt lat="40.4199922" lon="15.1018554"><ele>553.2857142857143</ele><time>2026-03-29T10:44:41.286Z</time></trkpt><trkpt lat="40.4200144" lon="15.1019404"><ele>553.7142857142858</ele><time>2026-03-29T10:44:43.272Z</time></trkpt><trkpt lat="40.4200317" lon="15.1020304"><ele>554.1428571428571</ele><time>2026-03-29T10:44:45.273Z</time></trkpt><trkpt lat="40.4200454" lon="15.1021205"><ele>554.5714285714287</ele><time>2026-03-29T10:44:49.282Z</time></trkpt><trkpt lat="40.4200646" lon="15.1022044"><ele>555.0</ele><time>2026-03-29T10:44:52.29Z</time></trkpt><trkpt lat="40.420079" lon="15.1023063"><ele>555.0</ele><time>2026-03-29T10:44:55.275Z</time></trkpt><trkpt lat="40.420091" lon="15.1024034"><ele>555.0</ele><time>2026-03-29T10:44:58.281Z</time></trkpt><trkpt lat="40.4200782" lon="15.1025024"><ele>555.0</ele><time>2026-03-29T10:45:00.286Z</time></trkpt><trkpt lat="40.4200638" lon="15.1025944"><ele>555.0</ele><time>2026-03-29T10:45:02.296Z</time></trkpt><trkpt lat="40.4200366" lon="15.1026818"><ele>555.0</ele><time>2026-03-29T10:45:05.291Z</time></trkpt><trkpt lat="40.4200155" lon="15.1027698"><ele>555.0</ele><time>2026-03-29T10:45:07.3Z</time></trkpt><trkpt lat="40.4199913" lon="15.102886"><ele>555.5714285714287</ele><time>2026-03-29T10:45:11.299Z</time></trkpt><trkpt lat="40.4199816" lon="15.1029827"><ele>556.1428571428571</ele><time>2026-03-29T10:45:16.287Z</time></trkpt><trkpt lat="40.4199726" lon="15.1030793"><ele>556.7142857142858</ele><time>2026-03-29T10:45:20.299Z</time></trkpt><trkpt lat="40.4199528" lon="15.1031926"><ele>557.2857142857143</ele><time>2026-03-29T10:45:23.303Z</time></trkpt><trkpt lat="40.4199199" lon="15.1032826"><ele>557.8571428571429</ele><time>2026-03-29T10:45:26.286Z</time></trkpt><trkpt lat="40.4198991" lon="15.1033636"><ele>558.4285714285714</ele><time>2026-03-29T10:45:31.287Z</time></trkpt><trkpt lat="40.4198716" lon="15.1034475"><ele>559.0</ele><time>2026-03-29T10:45:34.305Z</time></trkpt><trkpt lat="40.4198302" lon="15.1035392"><ele>558.6666666666667</ele><time>2026-03-29T10:45:37.291Z</time></trkpt><trkpt lat="40.4198012" lon="15.1036182"><ele>558.3333333333334</ele><time>2026-03-29T10:45:41.286Z</time></trkpt><trkpt lat="40.4197614" lon="15.1037122"><ele>558.0</ele><time>2026-03-29T10:45:44.304Z</time></trkpt><trkpt lat="40.4197103" lon="15.1038127"><ele>557.6666666666666</ele><time>2026-03-29T10:45:48.283Z</time></trkpt><trkpt lat="40.41967" lon="15.1039047"><ele>557.3333333333333</ele><time>2026-03-29T10:45:51.293Z</time></trkpt><trkpt lat="40.4196253" lon="15.1040034"><ele>557.0</ele><time>2026-03-29T10:45:54.294Z</time></trkpt><trkpt lat="40.4195649" lon="15.1040991"><ele>557.0</ele><time>2026-03-29T10:45:57.305Z</time></trkpt><trkpt lat="40.4194984" lon="15.1041783"><ele>557.0</ele><time>2026-03-29T10:46:00.279Z</time></trkpt><trkpt lat="40.4194331" lon="15.1042461"><ele>557.0</ele><time>2026-03-29T10:46:03.302Z</time></trkpt><trkpt lat="40.4193579" lon="15.1043071"><ele>557.0</ele><time>2026-03-29T10:46:06.294Z</time></trkpt><trkpt lat="40.4192858" lon="15.1043676"><ele>557.0</ele><time>2026-03-29T10:46:09.289Z</time></trkpt><trkpt lat="40.4192442" lon="15.1044431"><ele>557.0</ele><time>2026-03-29T10:46:12.284Z</time></trkpt><trkpt lat="40.4192065" lon="15.1045523"><ele>557.0</ele><time>2026-03-29T10:46:15.314Z</time></trkpt><trkpt lat="40.4191969" lon="15.1046428"><ele>557.0</ele><time>2026-03-29T10:46:17.318Z</time></trkpt><trkpt lat="40.4191917" lon="15.1047385"><ele>557.0</ele><time>2026-03-29T10:46:20.292Z</time></trkpt><trkpt lat="40.4192033" lon="15.1048373"><ele>557.0</ele><time>2026-03-29T10:46:24.31Z</time></trkpt><trkpt lat="40.4192145" lon="15.1049224"><ele>557.0</ele><time>2026-03-29T10:46:26.296Z</time></trkpt><trkpt lat="40.4192207" lon="15.1050483"><ele>557.0</ele><time>2026-03-29T10:46:29.31Z</time></trkpt><trkpt lat="40.4192152" lon="15.1051515"><ele>557.6666666666666</ele><time>2026-03-29T10:46:31.306Z</time></trkpt><trkpt lat="40.4192141" lon="15.1052466"><ele>558.3333333333333</ele><time>2026-03-29T10:46:33.274Z</time></trkpt><trkpt lat="40.4192097" lon="15.1053416"><ele>559.0</ele><time>2026-03-29T10:46:35.287Z</time></trkpt><trkpt lat="40.4191874" lon="15.1054322"><ele>559.6666666666666</ele><time>2026-03-29T10:46:37.296Z</time></trkpt><trkpt lat="40.4191563" lon="15.1055308"><ele>560.3333333333334</ele><time>2026-03-29T10:46:39.307Z</time></trkpt><trkpt lat="40.4191312" lon="15.1056141"><ele>561.0</ele><time>2026-03-29T10:46:41.31Z</time></trkpt><trkpt lat="40.4190989" lon="15.1057526"><ele>561.2</ele><time>2026-03-29T10:46:45.296Z</time></trkpt><trkpt lat="40.4190585" lon="15.105853"><ele>561.4000000000001</ele><time>2026-03-29T10:46:48.344Z</time></trkpt><trkpt lat="40.4190235" lon="15.1059374"><ele>561.6</ele><time>2026-03-29T10:46:51.287Z</time></trkpt><trkpt lat="40.4189966" lon="15.1060387"><ele>561.8000000000001</ele><time>2026-03-29T10:46:53.3Z</time></trkpt><trkpt lat="40.4189607" lon="15.1061724"><ele>562.0</ele><time>2026-03-29T10:46:55.286Z</time></trkpt><trkpt lat="40.4189201" lon="15.106326"><ele>562.0</ele><time>2026-03-29T10:46:57.283Z</time></trkpt><trkpt lat="40.4188974" lon="15.1064067"><ele>562.0</ele><time>2026-03-29T10:46:58.288Z</time></trkpt><trkpt lat="40.4188778" lon="15.1064872"><ele>562.0</ele><time>2026-03-29T10:46:59.297Z</time></trkpt><trkpt lat="40.4188577" lon="15.1066536"><ele>562.0</ele><time>2026-03-29T10:47:01.297Z</time></trkpt><trkpt lat="40.4188552" lon="15.1067984"><ele>562.0</ele><time>2026-03-29T10:47:03.279Z</time></trkpt><trkpt lat="40.4188556" lon="15.1068884"><ele>562.0</ele><time>2026-03-29T10:47:04.316Z</time></trkpt><trkpt lat="40.4188429" lon="15.1070403"><ele>563.0</ele><time>2026-03-29T10:47:06.274Z</time></trkpt><trkpt lat="40.4188254" lon="15.1071885"><ele>564.0</ele><time>2026-03-29T10:47:08.278Z</time></trkpt><trkpt lat="40.4187989" lon="15.1073376"><ele>565.0</ele><time>2026-03-29T10:47:10.27Z</time></trkpt><trkpt lat="40.4187662" lon="15.1074715"><ele>566.0</ele><time>2026-03-29T10:47:12.275Z</time></trkpt><trkpt lat="40.4187288" lon="15.1076039"><ele>567.0</ele><time>2026-03-29T10:47:14.261Z</time></trkpt><trkpt lat="40.4187007" lon="15.1076956"><ele>564.5</ele><time>2026-03-29T10:47:16.276Z</time></trkpt><trkpt lat="40.4186897" lon="15.1078019"><ele>562.0</ele><time>2026-03-29T10:47:18.307Z</time></trkpt><trkpt lat="40.4186615" lon="15.1079037"><ele>559.5</ele><time>2026-03-29T10:47:20.287Z</time></trkpt><trkpt lat="40.4186158" lon="15.1079773"><ele>557.0</ele><time>2026-03-29T10:47:22.28Z</time></trkpt><trkpt lat="40.4185575" lon="15.1080264"><ele>554.5</ele><time>2026-03-29T10:47:24.303Z</time></trkpt><trkpt lat="40.418496" lon="15.1080861"><ele>552.0</ele><time>2026-03-29T10:47:26.282Z</time></trkpt><trkpt lat="40.4184329" lon="15.1081411"><ele>552.0</ele><time>2026-03-29T10:47:28.283Z</time></trkpt><trkpt lat="40.4183724" lon="15.1082187"><ele>552.0</ele><time>2026-03-29T10:47:30.282Z</time></trkpt><trkpt lat="40.4183238" lon="15.1083126"><ele>552.0</ele><time>2026-03-29T10:47:32.279Z</time></trkpt><trkpt lat="40.4182715" lon="15.1084031"><ele>552.0</ele><time>2026-03-29T10:47:34.282Z</time></trkpt><trkpt lat="40.4182016" lon="15.1085055"><ele>552.0</ele><time>2026-03-29T10:47:36.269Z</time></trkpt><trkpt lat="40.4181046" lon="15.1086121"><ele>551.0</ele><time>2026-03-29T10:47:38.326Z</time></trkpt><trkpt lat="40.4180143" lon="15.1086942"><ele>550.0</ele><time>2026-03-29T10:47:40.296Z</time></trkpt><trkpt lat="40.4179204" lon="15.1087697"><ele>549.0</ele><time>2026-03-29T10:47:42.289Z</time></trkpt><trkpt lat="40.4178227" lon="15.1088497"><ele>548.0</ele><time>2026-03-29T10:47:44.392Z</time></trkpt><trkpt lat="40.4177159" lon="15.1089334"><ele>548.0</ele><time>2026-03-29T10:47:46.38Z</time></trkpt><trkpt lat="40.4176379" lon="15.1090108"><ele>548.0</ele><time>2026-03-29T10:47:48.277Z</time></trkpt><trkpt lat="40.4175617" lon="15.1091066"><ele>548.0</ele><time>2026-03-29T10:47:50.295Z</time></trkpt><trkpt lat="40.4174932" lon="15.1092023"><ele>548.0</ele><time>2026-03-29T10:47:52.293Z</time></trkpt><trkpt lat="40.4174191" lon="15.1093273"><ele>548.0</ele><time>2026-03-29T10:47:54.306Z</time></trkpt><trkpt lat="40.4173516" lon="15.1094377"><ele>547.5</ele><time>2026-03-29T10:47:56.289Z</time></trkpt><trkpt lat="40.4172906" lon="15.109551"><ele>547.0</ele><time>2026-03-29T10:47:58.285Z</time></trkpt><trkpt lat="40.4172133" lon="15.1096504"><ele>546.5</ele><time>2026-03-29T10:48:00.297Z</time></trkpt><trkpt lat="40.4171077" lon="15.1097321"><ele>546.0</ele><time>2026-03-29T10:48:02.312Z</time></trkpt><trkpt lat="40.4170103" lon="15.1098175"><ele>548.2</ele><time>2026-03-29T10:48:04.297Z</time></trkpt><trkpt lat="40.4169293" lon="15.1099138"><ele>550.4000000000001</ele><time>2026-03-29T10:48:06.371Z</time></trkpt><trkpt lat="40.416879" lon="15.1100159"><ele>552.6</ele><time>2026-03-29T10:48:08.27Z</time></trkpt><trkpt lat="40.4168325" lon="15.1101487"><ele>554.8000000000001</ele><time>2026-03-29T10:48:10.291Z</time></trkpt><trkpt lat="40.4168154" lon="15.110284"><ele>557.0</ele><time>2026-03-29T10:48:12.283Z</time></trkpt><trkpt lat="40.4168148" lon="15.1104198"><ele>557.0</ele><time>2026-03-29T10:48:14.323Z</time></trkpt><trkpt lat="40.4168204" lon="15.1105351"><ele>557.0</ele><time>2026-03-29T10:48:16.418Z</time></trkpt><trkpt lat="40.4168184" lon="15.1106755"><ele>557.0</ele><time>2026-03-29T10:48:18.28Z</time></trkpt><trkpt lat="40.4168199" lon="15.1108188"><ele>557.0</ele><time>2026-03-29T10:48:20.261Z</time></trkpt><trkpt lat="40.4167991" lon="15.1109513"><ele>557.0</ele><time>2026-03-29T10:48:22.311Z</time></trkpt><trkpt lat="40.4167806" lon="15.1110871"><ele>556.8333333333333</ele><time>2026-03-29T10:48:24.293Z</time></trkpt><trkpt lat="40.4167541" lon="15.1112079"><ele>556.6666666666666</ele><time>2026-03-29T10:48:26.281Z</time></trkpt><trkpt lat="40.4167214" lon="15.1113012"><ele>556.5</ele><time>2026-03-29T10:48:28.271Z</time></trkpt><trkpt lat="40.4166911" lon="15.1113915"><ele>556.3333333333334</ele><time>2026-03-29T10:48:30.408Z</time></trkpt><trkpt lat="40.4166638" lon="15.1114739"><ele>556.1666666666667</ele><time>2026-03-29T10:48:32.306Z</time></trkpt><trkpt lat="40.416638" lon="15.1115796"><ele>556.0</ele><time>2026-03-29T10:48:34.295Z</time></trkpt><trkpt lat="40.4166081" lon="15.1116817"><ele>556.3333333333334</ele><time>2026-03-29T10:48:36.297Z</time></trkpt><trkpt lat="40.4165691" lon="15.1118101"><ele>556.6666666666667</ele><time>2026-03-29T10:48:39.292Z</time></trkpt><trkpt lat="40.4165431" lon="15.1118959"><ele>557.0</ele><time>2026-03-29T10:48:41.29Z</time></trkpt><trkpt lat="40.4165265" lon="15.1119874"><ele>557.3333333333334</ele><time>2026-03-29T10:48:44.292Z</time></trkpt><trkpt lat="40.4164908" lon="15.1120864"><ele>557.6666666666666</ele><time>2026-03-29T10:48:47.303Z</time></trkpt><trkpt lat="40.4164665" lon="15.112167"><ele>558.0</ele><time>2026-03-29T10:48:49.288Z</time></trkpt><trkpt lat="40.4164427" lon="15.1122489"><ele>558.0</ele><time>2026-03-29T10:48:51.394Z</time></trkpt><trkpt lat="40.4164066" lon="15.1123763"><ele>558.0</ele><time>2026-03-29T10:48:54.286Z</time></trkpt><trkpt lat="40.4163773" lon="15.1124671"><ele>558.0</ele><time>2026-03-29T10:48:56.271Z</time></trkpt><trkpt lat="40.416349" lon="15.1125425"><ele>558.0</ele><time>2026-03-29T10:48:58.284Z</time></trkpt><trkpt lat="40.4163244" lon="15.1126194"><ele>558.0</ele><time>2026-03-29T10:49:00.271Z</time></trkpt><trkpt lat="40.4162948" lon="15.1127087"><ele>558.0</ele><time>2026-03-29T10:49:02.25Z</time></trkpt><trkpt lat="40.4162632" lon="15.1127961"><ele>557.8333333333334</ele><time>2026-03-29T10:49:04.296Z</time></trkpt><trkpt lat="40.416219" lon="15.1129014"><ele>557.6666666666666</ele><time>2026-03-29T10:49:07.299Z</time></trkpt><trkpt lat="40.416187" lon="15.1129977"><ele>557.5</ele><time>2026-03-29T10:49:09.288Z</time></trkpt><trkpt lat="40.4161493" lon="15.113068"><ele>557.3333333333333</ele><time>2026-03-29T10:49:11.29Z</time></trkpt><trkpt lat="40.4160866" lon="15.1131605"><ele>557.1666666666666</ele><time>2026-03-29T10:49:14.276Z</time></trkpt><trkpt lat="40.4160405" lon="15.1132547"><ele>557.0</ele><time>2026-03-29T10:49:17.274Z</time></trkpt><trkpt lat="40.4160063" lon="15.1133384"><ele>557.0</ele><time>2026-03-29T10:49:20.284Z</time></trkpt><trkpt lat="40.4159648" lon="15.1134448"><ele>557.0</ele><time>2026-03-29T10:49:23.299Z</time></trkpt><trkpt lat="40.415936" lon="15.1135265"><ele>557.0</ele><time>2026-03-29T10:49:25.297Z</time></trkpt><trkpt lat="40.4158981" lon="15.1136213"><ele>557.0</ele><time>2026-03-29T10:49:27.272Z</time></trkpt><trkpt lat="40.4158563" lon="15.1137187"><ele>557.0</ele><time>2026-03-29T10:49:29.38Z</time></trkpt><trkpt lat="40.4158338" lon="15.1138094"><ele>557.0</ele><time>2026-03-29T10:49:31.285Z</time></trkpt><trkpt lat="40.415822" lon="15.1139258"><ele>557.0</ele><time>2026-03-29T10:49:33.278Z</time></trkpt><trkpt lat="40.4158087" lon="15.1140422"><ele>557.0</ele><time>2026-03-29T10:49:35.28Z</time></trkpt><trkpt lat="40.4157801" lon="15.1141403"><ele>557.0</ele><time>2026-03-29T10:49:37.306Z</time></trkpt><trkpt lat="40.4157779" lon="15.1142242"><ele>557.0</ele><time>2026-03-29T10:49:41.301Z</time></trkpt><trkpt lat="40.4157385" lon="15.1143146"><ele>557.0</ele><time>2026-03-29T10:49:43.298Z</time></trkpt><trkpt lat="40.4156949" lon="15.114399"><ele>557.0</ele><time>2026-03-29T10:49:45.285Z</time></trkpt><trkpt lat="40.4156347" lon="15.1144915"><ele>557.3333333333333</ele><time>2026-03-29T10:49:47.281Z</time></trkpt><trkpt lat="40.4155966" lon="15.1145579"><ele>557.6666666666666</ele><time>2026-03-29T10:49:49.276Z</time></trkpt><trkpt lat="40.4155672" lon="15.1146368"><ele>558.0</ele><time>2026-03-29T10:49:51.309Z</time></trkpt><trkpt lat="40.4155495" lon="15.1147322"><ele>558.3333333333334</ele><time>2026-03-29T10:49:53.298Z</time></trkpt><trkpt lat="40.4155256" lon="15.114839"><ele>558.6666666666667</ele><time>2026-03-29T10:49:55.299Z</time></trkpt><trkpt lat="40.4155041" lon="15.1149357"><ele>559.0</ele><time>2026-03-29T10:49:57.276Z</time></trkpt><trkpt lat="40.4154766" lon="15.1150555"><ele>559.0</ele><time>2026-03-29T10:49:59.28Z</time></trkpt><trkpt lat="40.4154374" lon="15.1151605"><ele>559.0</ele><time>2026-03-29T10:50:02.304Z</time></trkpt><trkpt lat="40.4153746" lon="15.1152759"><ele>559.0</ele><time>2026-03-29T10:50:05.298Z</time></trkpt><trkpt lat="40.4153416" lon="15.1153497"><ele>559.0</ele><time>2026-03-29T10:50:07.27Z</time></trkpt><trkpt lat="40.4152878" lon="15.1154483"><ele>559.0</ele><time>2026-03-29T10:50:10.263Z</time></trkpt><trkpt lat="40.4152443" lon="15.1155285"><ele>559.0</ele><time>2026-03-29T10:50:12.303Z</time></trkpt><trkpt lat="40.4151982" lon="15.1156184"><ele>559.0</ele><time>2026-03-29T10:50:15.298Z</time></trkpt><trkpt lat="40.4151454" lon="15.1157141"><ele>559.0</ele><time>2026-03-29T10:50:18.4Z</time></trkpt><trkpt lat="40.4150895" lon="15.1158199"><ele>559.0</ele><time>2026-03-29T10:50:21.286Z</time></trkpt><trkpt lat="40.415042" lon="15.1159209"><ele>559.0</ele><time>2026-03-29T10:50:23.282Z</time></trkpt><trkpt lat="40.4149914" lon="15.1160376"><ele>559.0</ele><time>2026-03-29T10:50:25.284Z</time></trkpt><trkpt lat="40.4149382" lon="15.1161536"><ele>560.0</ele><time>2026-03-29T10:50:27.279Z</time></trkpt><trkpt lat="40.4148656" lon="15.1163276"><ele>561.0</ele><time>2026-03-29T10:50:31.299Z</time></trkpt><trkpt lat="40.4148372" lon="15.1164099"><ele>562.0</ele><time>2026-03-29T10:50:43.281Z</time></trkpt><trkpt lat="40.4148165" lon="15.1164896"><ele>563.0</ele><time>2026-03-29T10:50:45.297Z</time></trkpt><trkpt lat="40.4147672" lon="15.1166335"><ele>564.0</ele><time>2026-03-29T10:50:48.298Z</time></trkpt><trkpt lat="40.4147205" lon="15.116721"><ele>565.3333333333334</ele><time>2026-03-29T10:50:50.3Z</time></trkpt><trkpt lat="40.4146842" lon="15.1168088"><ele>566.6666666666666</ele><time>2026-03-29T10:50:52.295Z</time></trkpt><trkpt lat="40.4146396" lon="15.1169221"><ele>568.0</ele><time>2026-03-29T10:50:54.291Z</time></trkpt><trkpt lat="40.4146003" lon="15.1170347"><ele>569.3333333333333</ele><time>2026-03-29T10:50:56.289Z</time></trkpt><trkpt lat="40.4145639" lon="15.1171446"><ele>570.6666666666666</ele><time>2026-03-29T10:50:58.296Z</time></trkpt><trkpt lat="40.4145269" lon="15.1172452"><ele>572.0</ele><time>2026-03-29T10:51:00.294Z</time></trkpt><trkpt lat="40.4144951" lon="15.1173381"><ele>571.2</ele><time>2026-03-29T10:51:02.305Z</time></trkpt><trkpt lat="40.414455" lon="15.1174584"><ele>570.4000000000001</ele><time>2026-03-29T10:51:04.298Z</time></trkpt><trkpt lat="40.4144029" lon="15.1176435"><ele>569.5999999999999</ele><time>2026-03-29T10:51:07.279Z</time></trkpt><trkpt lat="40.4143842" lon="15.1177379"><ele>568.8</ele><time>2026-03-29T10:51:09.291Z</time></trkpt><trkpt lat="40.4143662" lon="15.1178445"><ele>568.0</ele><time>2026-03-29T10:51:12.329Z</time></trkpt><trkpt lat="40.4143545" lon="15.1179304"><ele>568.0</ele><time>2026-03-29T10:51:14.284Z</time></trkpt><trkpt lat="40.4143396" lon="15.118023"><ele>568.0</ele><time>2026-03-29T10:51:17.319Z</time></trkpt><trkpt lat="40.414331" lon="15.1181611"><ele>568.0</ele><time>2026-03-29T10:51:20.292Z</time></trkpt><trkpt lat="40.4143017" lon="15.1183001"><ele>568.0</ele><time>2026-03-29T10:51:23.294Z</time></trkpt><trkpt lat="40.4142745" lon="15.1183968"><ele>568.0</ele><time>2026-03-29T10:51:25.299Z</time></trkpt><trkpt lat="40.414259" lon="15.1184831"><ele>568.0</ele><time>2026-03-29T10:51:26.294Z</time></trkpt><trkpt lat="40.4142432" lon="15.1186064"><ele>569.1666666666667</ele><time>2026-03-29T10:51:28.288Z</time></trkpt><trkpt lat="40.4142176" lon="15.1187711"><ele>570.3333333333334</ele><time>2026-03-29T10:51:31.305Z</time></trkpt><trkpt lat="40.4142147" lon="15.1188579"><ele>571.5</ele><time>2026-03-29T10:51:33.295Z</time></trkpt><trkpt lat="40.4142125" lon="15.1189537"><ele>572.6666666666666</ele><time>2026-03-29T10:51:35.293Z</time></trkpt><trkpt lat="40.4142043" lon="15.1190622"><ele>573.8333333333333</ele><time>2026-03-29T10:51:37.359Z</time></trkpt><trkpt lat="40.4141866" lon="15.1191741"><ele>575.0</ele><time>2026-03-29T10:51:39.296Z</time></trkpt><trkpt lat="40.4141602" lon="15.1192999"><ele>576.4</ele><time>2026-03-29T10:51:41.292Z</time></trkpt><trkpt lat="40.4141251" lon="15.1194293"><ele>577.8</ele><time>2026-03-29T10:51:43.292Z</time></trkpt><trkpt lat="40.4140834" lon="15.1195282"><ele>579.2</ele><time>2026-03-29T10:51:45.286Z</time></trkpt><trkpt lat="40.4140133" lon="15.1196143"><ele>580.6</ele><time>2026-03-29T10:51:47.297Z</time></trkpt><trkpt lat="40.4139417" lon="15.119714"><ele>582.0</ele><time>2026-03-29T10:51:49.279Z</time></trkpt><trkpt lat="40.4138829" lon="15.1198112"><ele>582.0</ele><time>2026-03-29T10:51:51.297Z</time></trkpt><trkpt lat="40.4138253" lon="15.1198888"><ele>582.0</ele><time>2026-03-29T10:51:53.287Z</time></trkpt><trkpt lat="40.4137758" lon="15.11998"><ele>582.0</ele><time>2026-03-29T10:51:56.308Z</time></trkpt><trkpt lat="40.4137167" lon="15.1200691"><ele>582.0</ele><time>2026-03-29T10:51:59.286Z</time></trkpt><trkpt lat="40.4136623" lon="15.1201573"><ele>582.0</ele><time>2026-03-29T10:52:01.295Z</time></trkpt><trkpt lat="40.4135951" lon="15.1202745"><ele>582.6666666666666</ele><time>2026-03-29T10:52:03.287Z</time></trkpt><trkpt lat="40.413539" lon="15.1203665"><ele>583.3333333333334</ele><time>2026-03-29T10:52:05.283Z</time></trkpt><trkpt lat="40.413481" lon="15.1204591"><ele>584.0</ele><time>2026-03-29T10:52:07.281Z</time></trkpt><trkpt lat="40.4134289" lon="15.1205458"><ele>584.6666666666667</ele><time>2026-03-29T10:52:09.289Z</time></trkpt><trkpt lat="40.4133788" lon="15.120625"><ele>585.3333333333334</ele><time>2026-03-29T10:52:11.294Z</time></trkpt><trkpt lat="40.4133072" lon="15.1207244"><ele>586.0</ele><time>2026-03-29T10:52:13.294Z</time></trkpt><trkpt lat="40.41325" lon="15.1208185"><ele>585.9999999999999</ele><time>2026-03-29T10:52:15.402Z</time></trkpt><trkpt lat="40.4132097" lon="15.1209073"><ele>586.0</ele><time>2026-03-29T10:52:18.285Z</time></trkpt><trkpt lat="40.4131955" lon="15.1209898"><ele>586.0</ele><time>2026-03-29T10:52:20.297Z</time></trkpt><trkpt lat="40.4131675" lon="15.1210827"><ele>586.0</ele><time>2026-03-29T10:52:22.296Z</time></trkpt><trkpt lat="40.4131385" lon="15.1211595"><ele>586.0</ele><time>2026-03-29T10:52:25.287Z</time></trkpt><trkpt lat="40.413094" lon="15.1212497"><ele>585.9999999999999</ele><time>2026-03-29T10:52:30.293Z</time></trkpt><trkpt lat="40.4130691" lon="15.1213331"><ele>586.0</ele><time>2026-03-29T10:52:32.302Z</time></trkpt><trkpt lat="40.4130486" lon="15.12144"><ele>586.0</ele><time>2026-03-29T10:52:34.313Z</time></trkpt><trkpt lat="40.4130329" lon="15.1215472"><ele>586.0</ele><time>2026-03-29T10:52:37.291Z</time></trkpt><trkpt lat="40.4130055" lon="15.1216229"><ele>586.0</ele><time>2026-03-29T10:52:43.322Z</time></trkpt><trkpt lat="40.412977" lon="15.121738"><ele>586.0</ele><time>2026-03-29T10:52:46.296Z</time></trkpt><trkpt lat="40.4129646" lon="15.121845"><ele>586.0</ele><time>2026-03-29T10:52:49.308Z</time></trkpt><trkpt lat="40.4129598" lon="15.1219393"><ele>586.0</ele><time>2026-03-29T10:52:52.302Z</time></trkpt><trkpt lat="40.4129463" lon="15.1220492"><ele>585.6666666666667</ele><time>2026-03-29T10:52:54.302Z</time></trkpt><trkpt lat="40.4129408" lon="15.1221648"><ele>585.3333333333334</ele><time>2026-03-29T10:52:56.283Z</time></trkpt><trkpt lat="40.41292" lon="15.1222883"><ele>585.0</ele><time>2026-03-29T10:52:58.309Z</time></trkpt><trkpt lat="40.4128973" lon="15.1224054"><ele>584.6666666666666</ele><time>2026-03-29T10:53:00.309Z</time></trkpt><trkpt lat="40.4128712" lon="15.1225147"><ele>584.3333333333333</ele><time>2026-03-29T10:53:02.303Z</time></trkpt><trkpt lat="40.4128445" lon="15.1226151"><ele>584.0</ele><time>2026-03-29T10:53:04.29Z</time></trkpt><trkpt lat="40.4127983" lon="15.1228002"><ele>584.6666666666666</ele><time>2026-03-29T10:53:07.285Z</time></trkpt><trkpt lat="40.4127656" lon="15.1229029"><ele>585.3333333333333</ele><time>2026-03-29T10:53:09.289Z</time></trkpt><trkpt lat="40.4127199" lon="15.1230109"><ele>586.0</ele><time>2026-03-29T10:53:11.41Z</time></trkpt><trkpt lat="40.4126767" lon="15.1231107"><ele>586.6666666666666</ele><time>2026-03-29T10:53:13.322Z</time></trkpt><trkpt lat="40.4126361" lon="15.1232164"><ele>587.3333333333334</ele><time>2026-03-29T10:53:16.293Z</time></trkpt><trkpt lat="40.412612" lon="15.1232972"><ele>588.0</ele><time>2026-03-29T10:53:18.321Z</time></trkpt><trkpt lat="40.4125856" lon="15.1233878"><ele>589.2857142857143</ele><time>2026-03-29T10:53:21.311Z</time></trkpt><trkpt lat="40.4125519" lon="15.123466"><ele>590.5714285714286</ele><time>2026-03-29T10:53:25.287Z</time></trkpt><trkpt lat="40.4125189" lon="15.12355"><ele>591.8571428571429</ele><time>2026-03-29T10:53:28.314Z</time></trkpt><trkpt lat="40.4124879" lon="15.1236275"><ele>593.1428571428571</ele><time>2026-03-29T10:53:31.317Z</time></trkpt><trkpt lat="40.4124492" lon="15.1237057"><ele>594.4285714285714</ele><time>2026-03-29T10:53:34.289Z</time></trkpt><trkpt lat="40.4124116" lon="15.1237942"><ele>595.7142857142858</ele><time>2026-03-29T10:53:37.298Z</time></trkpt><trkpt lat="40.4123756" lon="15.123887"><ele>597.0</ele><time>2026-03-29T10:53:39.299Z</time></trkpt><trkpt lat="40.4123385" lon="15.12397"><ele>597.0</ele><time>2026-03-29T10:53:41.327Z</time></trkpt><trkpt lat="40.4123005" lon="15.124036"><ele>597.0</ele><time>2026-03-29T10:53:43.316Z</time></trkpt><trkpt lat="40.4122449" lon="15.1241226"><ele>597.0</ele><time>2026-03-29T10:53:45.29Z</time></trkpt><trkpt lat="40.4121916" lon="15.1242327"><ele>597.0</ele><time>2026-03-29T10:53:47.307Z</time></trkpt><trkpt lat="40.4121452" lon="15.1243571"><ele>597.0</ele><time>2026-03-29T10:53:49.298Z</time></trkpt><trkpt lat="40.4121018" lon="15.1244613"><ele>597.0</ele><time>2026-03-29T10:53:51.316Z</time></trkpt><trkpt lat="40.4120564" lon="15.1245385"><ele>596.3333333333334</ele><time>2026-03-29T10:53:53.281Z</time></trkpt><trkpt lat="40.4119989" lon="15.1246221"><ele>595.6666666666666</ele><time>2026-03-29T10:53:55.301Z</time></trkpt><trkpt lat="40.4119261" lon="15.1246899"><ele>595.0</ele><time>2026-03-29T10:53:57.308Z</time></trkpt><trkpt lat="40.4118568" lon="15.124746"><ele>594.3333333333333</ele><time>2026-03-29T10:53:59.303Z</time></trkpt><trkpt lat="40.4117842" lon="15.1247902"><ele>593.6666666666666</ele><time>2026-03-29T10:54:01.316Z</time></trkpt><trkpt lat="40.4117124" lon="15.1248192"><ele>593.0</ele><time>2026-03-29T10:54:03.304Z</time></trkpt><trkpt lat="40.4116305" lon="15.1248585"><ele>593.8333333333333</ele><time>2026-03-29T10:54:06.307Z</time></trkpt><trkpt lat="40.4115653" lon="15.1249121"><ele>594.6666666666666</ele><time>2026-03-29T10:54:08.307Z</time></trkpt><trkpt lat="40.4115015" lon="15.1249759"><ele>595.5</ele><time>2026-03-29T10:54:10.294Z</time></trkpt><trkpt lat="40.4114351" lon="15.1250434"><ele>596.3333333333334</ele><time>2026-03-29T10:54:12.313Z</time></trkpt><trkpt lat="40.411372" lon="15.1251335"><ele>597.1666666666667</ele><time>2026-03-29T10:54:14.32Z</time></trkpt><trkpt lat="40.4113016" lon="15.1252362"><ele>598.0</ele><time>2026-03-29T10:54:16.309Z</time></trkpt><trkpt lat="40.4112227" lon="15.1253001"><ele>598.0</ele><time>2026-03-29T10:54:18.326Z</time></trkpt><trkpt lat="40.4111363" lon="15.1253267"><ele>598.0</ele><time>2026-03-29T10:54:20.304Z</time></trkpt><trkpt lat="40.4110781" lon="15.1253689"><ele>598.0</ele><time>2026-03-29T10:54:22.312Z</time></trkpt><trkpt lat="40.4110221" lon="15.1254277"><ele>598.0</ele><time>2026-03-29T10:54:24.317Z</time></trkpt><trkpt lat="40.4109413" lon="15.1254787"><ele>598.0</ele><time>2026-03-29T10:54:26.308Z</time></trkpt><trkpt lat="40.4108534" lon="15.1254975"><ele>598.0</ele><time>2026-03-29T10:54:28.327Z</time></trkpt><trkpt lat="40.4107641" lon="15.1255028"><ele>598.0</ele><time>2026-03-29T10:54:30.315Z</time></trkpt><trkpt lat="40.4106777" lon="15.1255066"><ele>598.0</ele><time>2026-03-29T10:54:32.303Z</time></trkpt><trkpt lat="40.4106066" lon="15.125505"><ele>598.0</ele><time>2026-03-29T10:54:34.282Z</time></trkpt><trkpt lat="40.4105438" lon="15.1254842"><ele>598.0</ele><time>2026-03-29T10:54:37.301Z</time></trkpt><trkpt lat="40.4105574" lon="15.1253774"><ele>598.0</ele><time>2026-03-29T10:54:41.315Z</time></trkpt><trkpt lat="40.410554" lon="15.1252791"><ele>598.0</ele><time>2026-03-29T10:54:43.307Z</time></trkpt><trkpt lat="40.4105481" lon="15.1251234"><ele>598.0</ele><time>2026-03-29T10:54:45.312Z</time></trkpt><trkpt lat="40.4105303" lon="15.1249513"><ele>598.0</ele><time>2026-03-29T10:54:47.321Z</time></trkpt><trkpt lat="40.4105225" lon="15.1248672"><ele>598.0</ele><time>2026-03-29T10:54:48.301Z</time></trkpt><trkpt lat="40.4105013" lon="15.1246978"><ele>598.0</ele><time>2026-03-29T10:54:50.303Z</time></trkpt><trkpt lat="40.4104778" lon="15.1246121"><ele>598.0</ele><time>2026-03-29T10:54:51.31Z</time></trkpt><trkpt lat="40.4104454" lon="15.1245349"><ele>596.7142857142857</ele><time>2026-03-29T10:54:52.305Z</time></trkpt><trkpt lat="40.4104111" lon="15.1244612"><ele>595.4285714285714</ele><time>2026-03-29T10:54:53.315Z</time></trkpt><trkpt lat="40.4103732" lon="15.1243933"><ele>594.1428571428571</ele><time>2026-03-29T10:54:54.328Z</time></trkpt><trkpt lat="40.4103273" lon="15.1243361"><ele>592.8571428571429</ele><time>2026-03-29T10:54:55.317Z</time></trkpt><trkpt lat="40.4102747" lon="15.1242846"><ele>591.5714285714286</ele><time>2026-03-29T10:54:56.321Z</time></trkpt><trkpt lat="40.4102176" lon="15.1242428"><ele>590.2857142857142</ele><time>2026-03-29T10:54:57.296Z</time></trkpt><trkpt lat="40.4101579" lon="15.1241972"><ele>589.0</ele><time>2026-03-29T10:54:58.276Z</time></trkpt><trkpt lat="40.4100971" lon="15.1241422"><ele>589.0</ele><time>2026-03-29T10:54:59.302Z</time></trkpt><trkpt lat="40.4100359" lon="15.1240744"><ele>589.0</ele><time>2026-03-29T10:55:00.329Z</time></trkpt><trkpt lat="40.4099823" lon="15.1239947"><ele>589.0</ele><time>2026-03-29T10:55:01.315Z</time></trkpt><trkpt lat="40.4099327" lon="15.1239084"><ele>589.0</ele><time>2026-03-29T10:55:02.325Z</time></trkpt><trkpt lat="40.4098848" lon="15.1238375"><ele>589.0</ele><time>2026-03-29T10:55:03.286Z</time></trkpt><trkpt lat="40.4098367" lon="15.1237735"><ele>589.0</ele><time>2026-03-29T10:55:04.307Z</time></trkpt><trkpt lat="40.4097835" lon="15.1236663"><ele>588.0</ele><time>2026-03-29T10:55:06.33Z</time></trkpt><trkpt lat="40.409766" lon="15.1235338"><ele>587.0</ele><time>2026-03-29T10:55:08.306Z</time></trkpt><trkpt lat="40.4097598" lon="15.1234413"><ele>586.0</ele><time>2026-03-29T10:55:09.304Z</time></trkpt><trkpt lat="40.4097486" lon="15.1233396"><ele>585.0</ele><time>2026-03-29T10:55:10.303Z</time></trkpt><trkpt lat="40.409735" lon="15.1232295"><ele>584.0</ele><time>2026-03-29T10:55:11.312Z</time></trkpt><trkpt lat="40.4097218" lon="15.1231181"><ele>583.0</ele><time>2026-03-29T10:55:12.332Z</time></trkpt><trkpt lat="40.4097085" lon="15.1230059"><ele>582.6666666666667</ele><time>2026-03-29T10:55:13.305Z</time></trkpt><trkpt lat="40.4096896" lon="15.1228968"><ele>582.3333333333334</ele><time>2026-03-29T10:55:14.3Z</time></trkpt><trkpt lat="40.4096638" lon="15.1227942"><ele>582.0</ele><time>2026-03-29T10:55:15.301Z</time></trkpt><trkpt lat="40.4096251" lon="15.1226987"><ele>581.6666666666666</ele><time>2026-03-29T10:55:16.329Z</time></trkpt><trkpt lat="40.4095811" lon="15.1226194"><ele>581.3333333333333</ele><time>2026-03-29T10:55:17.311Z</time></trkpt><trkpt lat="40.4095334" lon="15.1225462"><ele>581.0</ele><time>2026-03-29T10:55:18.297Z</time></trkpt><trkpt lat="40.409477" lon="15.1224836"><ele>580.5</ele><time>2026-03-29T10:55:19.307Z</time></trkpt><trkpt lat="40.4094126" lon="15.1224295"><ele>580.0</ele><time>2026-03-29T10:55:20.319Z</time></trkpt><trkpt lat="40.40935" lon="15.122382"><ele>579.5</ele><time>2026-03-29T10:55:21.313Z</time></trkpt><trkpt lat="40.4092837" lon="15.1223251"><ele>579.0</ele><time>2026-03-29T10:55:22.307Z</time></trkpt><trkpt lat="40.4092211" lon="15.1222663"><ele>578.5</ele><time>2026-03-29T10:55:23.303Z</time></trkpt><trkpt lat="40.4091659" lon="15.1222047"><ele>578.0</ele><time>2026-03-29T10:55:24.329Z</time></trkpt><trkpt lat="40.4091125" lon="15.1221404"><ele>576.5</ele><time>2026-03-29T10:55:25.297Z</time></trkpt><trkpt lat="40.4090743" lon="15.1220525"><ele>575.0</ele><time>2026-03-29T10:55:26.312Z</time></trkpt><trkpt lat="40.4090514" lon="15.1219553"><ele>573.5</ele><time>2026-03-29T10:55:27.304Z</time></trkpt><trkpt lat="40.4090284" lon="15.1218565"><ele>572.0</ele><time>2026-03-29T10:55:28.3Z</time></trkpt><trkpt lat="40.409001" lon="15.1217557"><ele>570.5</ele><time>2026-03-29T10:55:29.319Z</time></trkpt><trkpt lat="40.4089749" lon="15.1216463"><ele>569.0</ele><time>2026-03-29T10:55:30.414Z</time></trkpt><trkpt lat="40.4089521" lon="15.1215672"><ele>567.5</ele><time>2026-03-29T10:55:31.298Z</time></trkpt><trkpt lat="40.4089206" lon="15.1214848"><ele>566.0</ele><time>2026-03-29T10:55:32.311Z</time></trkpt><trkpt lat="40.4088417" lon="15.1213743"><ele>564.5</ele><time>2026-03-29T10:55:34.296Z</time></trkpt><trkpt lat="40.4087544" lon="15.1213406"><ele>563.0</ele><time>2026-03-29T10:55:36.313Z</time></trkpt><trkpt lat="40.4086561" lon="15.1213884"><ele>561.5</ele><time>2026-03-29T10:55:38.319Z</time></trkpt><trkpt lat="40.4086019" lon="15.121439"><ele>560.0</ele><time>2026-03-29T10:55:39.313Z</time></trkpt><trkpt lat="40.4085438" lon="15.1214858"><ele>559.2</ele><time>2026-03-29T10:55:40.316Z</time></trkpt><trkpt lat="40.4084213" lon="15.1214817"><ele>558.4</ele><time>2026-03-29T10:55:42.308Z</time></trkpt><trkpt lat="40.4083539" lon="15.1214281"><ele>557.6</ele><time>2026-03-29T10:55:43.315Z</time></trkpt><trkpt lat="40.4082698" lon="15.1213426"><ele>556.8</ele><time>2026-03-29T10:55:44.327Z</time></trkpt><trkpt lat="40.4081912" lon="15.1212559"><ele>556.0</ele><time>2026-03-29T10:55:45.296Z</time></trkpt><trkpt lat="40.4081105" lon="15.1211627"><ele>556.0</ele><time>2026-03-29T10:55:46.3Z</time></trkpt><trkpt lat="40.4080326" lon="15.1210952"><ele>556.0</ele><time>2026-03-29T10:55:47.31Z</time></trkpt><trkpt lat="40.407961" lon="15.1210532"><ele>556.0</ele><time>2026-03-29T10:55:48.314Z</time></trkpt><trkpt lat="40.4078593" lon="15.1209973"><ele>556.0</ele><time>2026-03-29T10:55:49.436Z</time></trkpt><trkpt lat="40.4077728" lon="15.1209494"><ele>556.0</ele><time>2026-03-29T10:55:50.435Z</time></trkpt><trkpt lat="40.4076084" lon="15.1208435"><ele>555.3333333333334</ele><time>2026-03-29T10:55:52.341Z</time></trkpt><trkpt lat="40.4075213" lon="15.1208001"><ele>554.6666666666667</ele><time>2026-03-29T10:55:53.329Z</time></trkpt><trkpt lat="40.407447" lon="15.1207693"><ele>554.0</ele><time>2026-03-29T10:55:54.336Z</time></trkpt><trkpt lat="40.4073741" lon="15.1207417"><ele>553.3333333333334</ele><time>2026-03-29T10:56:10.31Z</time></trkpt><trkpt lat="40.4073059" lon="15.1207235"><ele>552.6666666666666</ele><time>2026-03-29T10:56:12.347Z</time></trkpt><trkpt lat="40.4072011" lon="15.1207126"><ele>552.0</ele><time>2026-03-29T10:56:14.327Z</time></trkpt><trkpt lat="40.4071031" lon="15.1207432"><ele>551.6</ele><time>2026-03-29T10:56:16.298Z</time></trkpt><trkpt lat="40.4070353" lon="15.1207959"><ele>551.2</ele><time>2026-03-29T10:56:17.508Z</time></trkpt><trkpt lat="40.4069336" lon="15.120884"><ele>550.8</ele><time>2026-03-29T10:56:19.345Z</time></trkpt><trkpt lat="40.406877" lon="15.1209311"><ele>550.4</ele><time>2026-03-29T10:56:20.463Z</time></trkpt><trkpt lat="40.4067321" lon="15.1209638"><ele>550.0</ele><time>2026-03-29T10:56:23.343Z</time></trkpt><trkpt lat="40.4066604" lon="15.1209154"><ele>550.0</ele><time>2026-03-29T10:56:25.339Z</time></trkpt><trkpt lat="40.4066069" lon="15.1208678"><ele>550.0</ele><time>2026-03-29T10:56:29.324Z</time></trkpt><trkpt lat="40.4065401" lon="15.1208428"><ele>550.0</ele><time>2026-03-29T10:56:57.33Z</time></trkpt><trkpt lat="40.40643" lon="15.1208655"><ele>550.0</ele><time>2026-03-29T10:56:59.329Z</time></trkpt><trkpt lat="40.4063603" lon="15.1208787"><ele>550.0</ele><time>2026-03-29T10:57:00.311Z</time></trkpt><trkpt lat="40.406281" lon="15.1208889"><ele>550.0</ele><time>2026-03-29T10:57:01.337Z</time></trkpt><trkpt lat="40.4061941" lon="15.1208949"><ele>548.75</ele><time>2026-03-29T10:57:02.324Z</time></trkpt><trkpt lat="40.4060762" lon="15.1208995"><ele>547.5</ele><time>2026-03-29T10:57:03.542Z</time></trkpt><trkpt lat="40.4058844" lon="15.1208771"><ele>546.25</ele><time>2026-03-29T10:57:05.398Z</time></trkpt><trkpt lat="40.4057803" lon="15.1208367"><ele>545.0</ele><time>2026-03-29T10:57:06.398Z</time></trkpt><trkpt lat="40.4056746" lon="15.1207831"><ele>543.75</ele><time>2026-03-29T10:57:07.385Z</time></trkpt><trkpt lat="40.405572" lon="15.1207274"><ele>542.5</ele><time>2026-03-29T10:57:08.38Z</time></trkpt><trkpt lat="40.4054672" lon="15.1206767"><ele>541.25</ele><time>2026-03-29T10:57:09.394Z</time></trkpt><trkpt lat="40.405326" lon="15.1206222"><ele>540.0</ele><time>2026-03-29T10:57:10.594Z</time></trkpt><trkpt lat="40.4051097" lon="15.120571"><ele>540.0</ele><time>2026-03-29T10:57:12.387Z</time></trkpt><trkpt lat="40.4049862" lon="15.1205559"><ele>540.0</ele><time>2026-03-29T10:57:13.393Z</time></trkpt><trkpt lat="40.4048519" lon="15.1205437"><ele>540.0</ele><time>2026-03-29T10:57:14.507Z</time></trkpt><trkpt lat="40.4046075" lon="15.1204738"><ele>540.75</ele><time>2026-03-29T10:57:16.425Z</time></trkpt><trkpt lat="40.4044627" lon="15.1204163"><ele>541.5</ele><time>2026-03-29T10:57:17.483Z</time></trkpt><trkpt lat="40.4043467" lon="15.120363"><ele>542.25</ele><time>2026-03-29T10:57:18.402Z</time></trkpt><trkpt lat="40.4042329" lon="15.1202981"><ele>543.0</ele><time>2026-03-29T10:57:19.396Z</time></trkpt><trkpt lat="40.4041316" lon="15.1202188"><ele>543.0</ele><time>2026-03-29T10:57:20.394Z</time></trkpt><trkpt lat="40.4040458" lon="15.120126"><ele>543.0</ele><time>2026-03-29T10:57:21.391Z</time></trkpt><trkpt lat="40.4039729" lon="15.1200143"><ele>543.0</ele><time>2026-03-29T10:57:22.395Z</time></trkpt><trkpt lat="40.4039116" lon="15.1198856"><ele>543.0</ele><time>2026-03-29T10:57:23.392Z</time></trkpt><trkpt lat="40.4038597" lon="15.1197373"><ele>543.75</ele><time>2026-03-29T10:57:24.393Z</time></trkpt><trkpt lat="40.4038159" lon="15.1195875"><ele>544.5</ele><time>2026-03-29T10:57:25.396Z</time></trkpt><trkpt lat="40.403773" lon="15.1194409"><ele>545.25</ele><time>2026-03-29T10:57:26.401Z</time></trkpt><trkpt lat="40.4037231" lon="15.119314"><ele>546.0</ele><time>2026-03-29T10:57:27.384Z</time></trkpt><trkpt lat="40.4036756" lon="15.1191902"><ele>546.0</ele><time>2026-03-29T10:57:28.4Z</time></trkpt><trkpt lat="40.403628" lon="15.1190963"><ele>546.0</ele><time>2026-03-29T10:57:29.377Z</time></trkpt><trkpt lat="40.4035693" lon="15.1190238"><ele>546.0</ele><time>2026-03-29T10:57:30.42Z</time></trkpt><trkpt lat="40.4035102" lon="15.1189809"><ele>546.0</ele><time>2026-03-29T10:57:31.383Z</time></trkpt><trkpt lat="40.4034485" lon="15.1189579"><ele>546.0</ele><time>2026-03-29T10:57:32.402Z</time></trkpt><trkpt lat="40.4033809" lon="15.1189588"><ele>546.0</ele><time>2026-03-29T10:57:33.401Z</time></trkpt><trkpt lat="40.403311" lon="15.1189861"><ele>546.0</ele><time>2026-03-29T10:57:34.416Z</time></trkpt><trkpt lat="40.4032513" lon="15.1190415"><ele>546.0</ele><time>2026-03-29T10:57:35.427Z</time></trkpt><trkpt lat="40.4032093" lon="15.1191226"><ele>546.0</ele><time>2026-03-29T10:57:36.409Z</time></trkpt><trkpt lat="40.4031834" lon="15.1192312"><ele>546.0</ele><time>2026-03-29T10:57:37.405Z</time></trkpt><trkpt lat="40.4031644" lon="15.1193682"><ele>546.0</ele><time>2026-03-29T10:57:38.407Z</time></trkpt><trkpt lat="40.4031427" lon="15.1195081"><ele>546.0</ele><time>2026-03-29T10:57:39.367Z</time></trkpt><trkpt lat="40.403107" lon="15.119654"><ele>546.0</ele><time>2026-03-29T10:57:40.389Z</time></trkpt><trkpt lat="40.4030544" lon="15.1197952"><ele>546.0</ele><time>2026-03-29T10:57:41.394Z</time></trkpt><trkpt lat="40.4029886" lon="15.1199291"><ele>546.0</ele><time>2026-03-29T10:57:42.415Z</time></trkpt><trkpt lat="40.4029187" lon="15.1200396"><ele>546.0</ele><time>2026-03-29T10:57:43.377Z</time></trkpt><trkpt lat="40.4028371" lon="15.1201415"><ele>545.5</ele><time>2026-03-29T10:57:44.403Z</time></trkpt><trkpt lat="40.4027471" lon="15.120236"><ele>545.0</ele><time>2026-03-29T10:57:45.398Z</time></trkpt><trkpt lat="40.4026419" lon="15.120336"><ele>544.5</ele><time>2026-03-29T10:57:46.418Z</time></trkpt><trkpt lat="40.4025418" lon="15.1204142"><ele>544.0</ele><time>2026-03-29T10:57:47.378Z</time></trkpt><trkpt lat="40.4024317" lon="15.1204714"><ele>544.0</ele><time>2026-03-29T10:57:48.397Z</time></trkpt><trkpt lat="40.4023244" lon="15.1205027"><ele>544.0</ele><time>2026-03-29T10:57:49.392Z</time></trkpt><trkpt lat="40.4022232" lon="15.1205079"><ele>544.0</ele><time>2026-03-29T10:57:50.392Z</time></trkpt><trkpt lat="40.4021267" lon="15.1204812"><ele>544.0</ele><time>2026-03-29T10:57:51.416Z</time></trkpt><trkpt lat="40.4020354" lon="15.1204222"><ele>544.0</ele><time>2026-03-29T10:57:52.401Z</time></trkpt><trkpt lat="40.4019401" lon="15.1203272"><ele>544.0</ele><time>2026-03-29T10:57:53.395Z</time></trkpt><trkpt lat="40.4018373" lon="15.1202097"><ele>544.0</ele><time>2026-03-29T10:57:54.316Z</time></trkpt><trkpt lat="40.4017053" lon="15.1200532"><ele>544.0</ele><time>2026-03-29T10:57:55.329Z</time></trkpt><trkpt lat="40.4015625" lon="15.1198863"><ele>544.0</ele><time>2026-03-29T10:57:56.331Z</time></trkpt><trkpt lat="40.401418" lon="15.1197227"><ele>544.0</ele><time>2026-03-29T10:57:57.322Z</time></trkpt><trkpt lat="40.4012837" lon="15.1195682"><ele>544.0</ele><time>2026-03-29T10:57:58.336Z</time></trkpt><trkpt lat="40.4011685" lon="15.1194244"><ele>546.6666666666667</ele><time>2026-03-29T10:57:59.305Z</time></trkpt><trkpt lat="40.4010502" lon="15.1192637"><ele>549.3333333333334</ele><time>2026-03-29T10:58:00.306Z</time></trkpt><trkpt lat="40.4009509" lon="15.1191024"><ele>552.0</ele><time>2026-03-29T10:58:01.318Z</time></trkpt><trkpt lat="40.4008728" lon="15.1189529"><ele>552.0</ele><time>2026-03-29T10:58:02.315Z</time></trkpt><trkpt lat="40.4008034" lon="15.1188114"><ele>552.0</ele><time>2026-03-29T10:58:03.305Z</time></trkpt><trkpt lat="40.4007268" lon="15.1186667"><ele>552.0</ele><time>2026-03-29T10:58:04.33Z</time></trkpt><trkpt lat="40.4006582" lon="15.11854"><ele>552.0</ele><time>2026-03-29T10:58:05.312Z</time></trkpt><trkpt lat="40.4005993" lon="15.1183932"><ele>552.0</ele><time>2026-03-29T10:58:06.451Z</time></trkpt><trkpt lat="40.4005613" lon="15.1180975"><ele>552.0</ele><time>2026-03-29T10:58:08.367Z</time></trkpt><trkpt lat="40.4005596" lon="15.1179042"><ele>552.0</ele><time>2026-03-29T10:58:09.324Z</time></trkpt><trkpt lat="40.4005629" lon="15.1176601"><ele>552.0</ele><time>2026-03-29T10:58:10.394Z</time></trkpt><trkpt lat="40.400566" lon="15.1174406"><ele>552.0</ele><time>2026-03-29T10:58:11.338Z</time></trkpt><trkpt lat="40.40057" lon="15.1172186"><ele>552.0</ele><time>2026-03-29T10:58:12.315Z</time></trkpt><trkpt lat="40.4005715" lon="15.1170158"><ele>552.2</ele><time>2026-03-29T10:58:13.306Z</time></trkpt><trkpt lat="40.4005698" lon="15.1168682"><ele>552.4000000000001</ele><time>2026-03-29T10:58:14.299Z</time></trkpt><trkpt lat="40.4005665" lon="15.1167312"><ele>552.5999999999999</ele><time>2026-03-29T10:58:15.308Z</time></trkpt><trkpt lat="40.4005578" lon="15.1166257"><ele>552.8</ele><time>2026-03-29T10:58:16.323Z</time></trkpt><trkpt lat="40.400512" lon="15.1165181"><ele>553.0</ele><time>2026-03-29T10:58:18.324Z</time></trkpt><trkpt lat="40.4004411" lon="15.1165219"><ele>555.8</ele><time>2026-03-29T10:58:20.324Z</time></trkpt><trkpt lat="40.400397" lon="15.1166183"><ele>558.5999999999999</ele><time>2026-03-29T10:58:22.315Z</time></trkpt><trkpt lat="40.4003993" lon="15.1167911"><ele>561.4000000000001</ele><time>2026-03-29T10:58:24.331Z</time></trkpt><trkpt lat="40.4003945" lon="15.1168915"><ele>564.2</ele><time>2026-03-29T10:58:25.319Z</time></trkpt><trkpt lat="40.4003725" lon="15.1169949"><ele>567.0</ele><time>2026-03-29T10:58:26.471Z</time></trkpt><trkpt lat="40.4003173" lon="15.1171523"><ele>567.0</ele><time>2026-03-29T10:58:28.321Z</time></trkpt><trkpt lat="40.4002647" lon="15.1172557"><ele>567.0</ele><time>2026-03-29T10:58:29.325Z</time></trkpt><trkpt lat="40.4001967" lon="15.1173706"><ele>567.0</ele><time>2026-03-29T10:58:30.325Z</time></trkpt><trkpt lat="40.4001124" lon="15.1175023"><ele>567.0</ele><time>2026-03-29T10:58:31.323Z</time></trkpt><trkpt lat="40.400029" lon="15.1176476"><ele>566.75</ele><time>2026-03-29T10:58:32.316Z</time></trkpt><trkpt lat="40.3999476" lon="15.1177854"><ele>566.5</ele><time>2026-03-29T10:58:33.32Z</time></trkpt><trkpt lat="40.3998719" lon="15.1179086"><ele>566.25</ele><time>2026-03-29T10:58:34.313Z</time></trkpt><trkpt lat="40.3998085" lon="15.1180477"><ele>566.0</ele><time>2026-03-29T10:58:35.328Z</time></trkpt><trkpt lat="40.3997633" lon="15.1182091"><ele>566.0</ele><time>2026-03-29T10:58:36.334Z</time></trkpt><trkpt lat="40.3997348" lon="15.1183832"><ele>566.0</ele><time>2026-03-29T10:58:37.303Z</time></trkpt><trkpt lat="40.399717" lon="15.1185779"><ele>566.0</ele><time>2026-03-29T10:58:38.32Z</time></trkpt><trkpt lat="40.3997055" lon="15.1187514"><ele>566.0</ele><time>2026-03-29T10:58:39.316Z</time></trkpt><trkpt lat="40.3996924" lon="15.1189035"><ele>566.0</ele><time>2026-03-29T10:58:40.327Z</time></trkpt><trkpt lat="40.3996706" lon="15.1190331"><ele>566.0</ele><time>2026-03-29T10:58:41.32Z</time></trkpt><trkpt lat="40.3996304" lon="15.1191513"><ele>566.0</ele><time>2026-03-29T10:58:42.455Z</time></trkpt><trkpt lat="40.399531" lon="15.1193186"><ele>566.0</ele><time>2026-03-29T10:58:44.321Z</time></trkpt><trkpt lat="40.3994582" lon="15.1194169"><ele>568.2</ele><time>2026-03-29T10:58:45.338Z</time></trkpt><trkpt lat="40.3993772" lon="15.1195051"><ele>570.4000000000001</ele><time>2026-03-29T10:58:46.339Z</time></trkpt><trkpt lat="40.3993006" lon="15.1195904"><ele>572.6</ele><time>2026-03-29T10:58:47.339Z</time></trkpt><trkpt lat="40.3992318" lon="15.1196691"><ele>574.8000000000001</ele><time>2026-03-29T10:58:48.35Z</time></trkpt><trkpt lat="40.3991769" lon="15.119737"><ele>577.0</ele><time>2026-03-29T10:58:49.292Z</time></trkpt><trkpt lat="40.39912" lon="15.1198247"><ele>576.5</ele><time>2026-03-29T10:58:50.313Z</time></trkpt><trkpt lat="40.3990669" lon="15.1199306"><ele>576.0</ele><time>2026-03-29T10:58:51.302Z</time></trkpt><trkpt lat="40.3990126" lon="15.1200647"><ele>575.5</ele><time>2026-03-29T10:58:52.332Z</time></trkpt><trkpt lat="40.39896" lon="15.1202171"><ele>575.0</ele><time>2026-03-29T10:58:53.313Z</time></trkpt><trkpt lat="40.3989067" lon="15.120382"><ele>575.0</ele><time>2026-03-29T10:58:54.334Z</time></trkpt><trkpt lat="40.3988534" lon="15.120546"><ele>575.0</ele><time>2026-03-29T10:58:55.354Z</time></trkpt><trkpt lat="40.3988031" lon="15.1207081"><ele>575.0</ele><time>2026-03-29T10:58:56.315Z</time></trkpt><trkpt lat="40.3987483" lon="15.1208807"><ele>575.0</ele><time>2026-03-29T10:58:57.332Z</time></trkpt><trkpt lat="40.3986937" lon="15.1210458"><ele>574.25</ele><time>2026-03-29T10:58:58.371Z</time></trkpt><trkpt lat="40.3986411" lon="15.1212022"><ele>573.5</ele><time>2026-03-29T10:58:59.398Z</time></trkpt><trkpt lat="40.3986047" lon="15.1213469"><ele>572.75</ele><time>2026-03-29T10:59:00.336Z</time></trkpt><trkpt lat="40.3985746" lon="15.1214887"><ele>572.0</ele><time>2026-03-29T10:59:01.32Z</time></trkpt><trkpt lat="40.3985356" lon="15.1216211"><ele>572.0</ele><time>2026-03-29T10:59:02.317Z</time></trkpt><trkpt lat="40.3984802" lon="15.1217425"><ele>572.0</ele><time>2026-03-29T10:59:03.314Z</time></trkpt><trkpt lat="40.3984029" lon="15.1218585"><ele>572.0</ele><time>2026-03-29T10:59:04.362Z</time></trkpt><trkpt lat="40.3983244" lon="15.1219404"><ele>572.0</ele><time>2026-03-29T10:59:05.331Z</time></trkpt><trkpt lat="40.3982378" lon="15.1220003"><ele>572.0</ele><time>2026-03-29T10:59:06.329Z</time></trkpt><trkpt lat="40.3981442" lon="15.1220294"><ele>572.0</ele><time>2026-03-29T10:59:07.335Z</time></trkpt><trkpt lat="40.398045" lon="15.1220313"><ele>572.0</ele><time>2026-03-29T10:59:08.337Z</time></trkpt><trkpt lat="40.3979193" lon="15.1220445"><ele>572.0</ele><time>2026-03-29T10:59:09.457Z</time></trkpt><trkpt lat="40.3977111" lon="15.1221289"><ele>572.0</ele><time>2026-03-29T10:59:11.326Z</time></trkpt><trkpt lat="40.3976271" lon="15.12219"><ele>572.75</ele><time>2026-03-29T10:59:12.314Z</time></trkpt><trkpt lat="40.39754" lon="15.1222819"><ele>573.5</ele><time>2026-03-29T10:59:13.309Z</time></trkpt><trkpt lat="40.3974433" lon="15.1224306"><ele>574.25</ele><time>2026-03-29T10:59:14.422Z</time></trkpt><trkpt lat="40.3973618" lon="15.1225729"><ele>575.0</ele><time>2026-03-29T10:59:15.328Z</time></trkpt><trkpt lat="40.397275" lon="15.1227236"><ele>575.0</ele><time>2026-03-29T10:59:16.313Z</time></trkpt><trkpt lat="40.3971916" lon="15.1228735"><ele>575.0</ele><time>2026-03-29T10:59:17.322Z</time></trkpt><trkpt lat="40.3971184" lon="15.123023"><ele>575.0</ele><time>2026-03-29T10:59:18.332Z</time></trkpt><trkpt lat="40.3970491" lon="15.123158"><ele>575.0</ele><time>2026-03-29T10:59:19.334Z</time></trkpt><trkpt lat="40.3969881" lon="15.1232855"><ele>572.75</ele><time>2026-03-29T10:59:20.313Z</time></trkpt><trkpt lat="40.3969339" lon="15.1234267"><ele>570.5</ele><time>2026-03-29T10:59:21.339Z</time></trkpt><trkpt lat="40.3968953" lon="15.123562"><ele>568.25</ele><time>2026-03-29T10:59:22.337Z</time></trkpt><trkpt lat="40.396865" lon="15.1237048"><ele>566.0</ele><time>2026-03-29T10:59:23.428Z</time></trkpt><trkpt lat="40.3968403" lon="15.123951"><ele>567.4</ele><time>2026-03-29T10:59:25.333Z</time></trkpt><trkpt lat="40.3968473" lon="15.1240763"><ele>568.8</ele><time>2026-03-29T10:59:26.324Z</time></trkpt><trkpt lat="40.3968641" lon="15.1242093"><ele>570.1999999999999</ele><time>2026-03-29T10:59:27.318Z</time></trkpt><trkpt lat="40.3968914" lon="15.1243559"><ele>571.6</ele><time>2026-03-29T10:59:28.34Z</time></trkpt><trkpt lat="40.3969295" lon="15.124526"><ele>573.0</ele><time>2026-03-29T10:59:29.459Z</time></trkpt><trkpt lat="40.3970044" lon="15.1248345"><ele>571.75</ele><time>2026-03-29T10:59:31.339Z</time></trkpt><trkpt lat="40.3970462" lon="15.1250025"><ele>570.5</ele><time>2026-03-29T10:59:32.321Z</time></trkpt><trkpt lat="40.3970936" lon="15.1251794"><ele>569.25</ele><time>2026-03-29T10:59:33.327Z</time></trkpt><trkpt lat="40.3971494" lon="15.1253603"><ele>568.0</ele><time>2026-03-29T10:59:34.303Z</time></trkpt><trkpt lat="40.3972068" lon="15.1255526"><ele>572.5</ele><time>2026-03-29T10:59:35.339Z</time></trkpt><trkpt lat="40.3972489" lon="15.1257245"><ele>577.0</ele><time>2026-03-29T10:59:36.326Z</time></trkpt><trkpt lat="40.3972862" lon="15.1258883"><ele>581.5</ele><time>2026-03-29T10:59:37.326Z</time></trkpt><trkpt lat="40.3973214" lon="15.1260522"><ele>586.0</ele><time>2026-03-29T10:59:38.346Z</time></trkpt><trkpt lat="40.3973526" lon="15.1262164"><ele>586.0</ele><time>2026-03-29T10:59:39.348Z</time></trkpt><trkpt lat="40.3973818" lon="15.126381"><ele>586.0</ele><time>2026-03-29T10:59:40.333Z</time></trkpt><trkpt lat="40.3974091" lon="15.1265551"><ele>586.0</ele><time>2026-03-29T10:59:41.326Z</time></trkpt><trkpt lat="40.3974315" lon="15.1267412"><ele>586.0</ele><time>2026-03-29T10:59:42.307Z</time></trkpt><trkpt lat="40.3974507" lon="15.1269338"><ele>585.25</ele><time>2026-03-29T10:59:43.313Z</time></trkpt><trkpt lat="40.3974635" lon="15.1271248"><ele>584.5</ele><time>2026-03-29T10:59:44.333Z</time></trkpt><trkpt lat="40.3974711" lon="15.1273036"><ele>583.75</ele><time>2026-03-29T10:59:45.37Z</time></trkpt><trkpt lat="40.3974866" lon="15.1274648"><ele>583.0</ele><time>2026-03-29T10:59:46.328Z</time></trkpt><trkpt lat="40.3975203" lon="15.1276406"><ele>582.0</ele><time>2026-03-29T10:59:47.327Z</time></trkpt><trkpt lat="40.3975687" lon="15.1278209"><ele>581.0</ele><time>2026-03-29T10:59:48.316Z</time></trkpt><trkpt lat="40.3976224" lon="15.1280005"><ele>580.0</ele><time>2026-03-29T10:59:49.302Z</time></trkpt><trkpt lat="40.39768" lon="15.1281969"><ele>577.0</ele><time>2026-03-29T10:59:50.434Z</time></trkpt><trkpt lat="40.3977314" lon="15.1283649"><ele>574.0</ele><time>2026-03-29T10:59:51.454Z</time></trkpt><trkpt lat="40.3978329" lon="15.1286842"><ele>571.0</ele><time>2026-03-29T10:59:53.33Z</time></trkpt><trkpt lat="40.3978867" lon="15.1288619"><ele>565.0</ele><time>2026-03-29T10:59:54.331Z</time></trkpt><trkpt lat="40.3979452" lon="15.1290778"><ele>559.0</ele><time>2026-03-29T10:59:55.494Z</time></trkpt><trkpt lat="40.398021" lon="15.1294811"><ele>569.6666666666667</ele><time>2026-03-29T10:59:57.378Z</time></trkpt><trkpt lat="40.3980471" lon="15.1296898"><ele>580.3333333333334</ele><time>2026-03-29T10:59:58.372Z</time></trkpt><trkpt lat="40.3980839" lon="15.1299208"><ele>591.0</ele><time>2026-03-29T10:59:59.395Z</time></trkpt><trkpt lat="40.3981452" lon="15.1301614"><ele>591.0</ele><time>2026-03-29T11:00:00.403Z</time></trkpt><trkpt lat="40.3982096" lon="15.1303856"><ele>591.0</ele><time>2026-03-29T11:00:01.364Z</time></trkpt><trkpt lat="40.3982778" lon="15.1306021"><ele>591.0</ele><time>2026-03-29T11:00:02.369Z</time></trkpt><trkpt lat="40.3983387" lon="15.1307935"><ele>588.5</ele><time>2026-03-29T11:00:03.345Z</time></trkpt><trkpt lat="40.3984016" lon="15.1309741"><ele>586.0</ele><time>2026-03-29T11:00:04.333Z</time></trkpt><trkpt lat="40.3984599" lon="15.1311498"><ele>583.5</ele><time>2026-03-29T11:00:05.309Z</time></trkpt><trkpt lat="40.3985143" lon="15.1313353"><ele>581.0</ele><time>2026-03-29T11:00:06.316Z</time></trkpt><trkpt lat="40.39857" lon="15.1315164"><ele>579.0</ele><time>2026-03-29T11:00:07.318Z</time></trkpt><trkpt lat="40.3986206" lon="15.1317034"><ele>577.0</ele><time>2026-03-29T11:00:08.344Z</time></trkpt><trkpt lat="40.3986617" lon="15.1318904"><ele>575.0</ele><time>2026-03-29T11:00:09.354Z</time></trkpt><trkpt lat="40.3986987" lon="15.1320785"><ele>573.0</ele><time>2026-03-29T11:00:10.358Z</time></trkpt><trkpt lat="40.3987337" lon="15.1322636"><ele>570.6666666666666</ele><time>2026-03-29T11:00:11.327Z</time></trkpt><trkpt lat="40.3987687" lon="15.1324562"><ele>568.3333333333333</ele><time>2026-03-29T11:00:12.308Z</time></trkpt><trkpt lat="40.3988031" lon="15.132665"><ele>566.0</ele><time>2026-03-29T11:00:13.314Z</time></trkpt><trkpt lat="40.3988379" lon="15.1328796"><ele>576.6666666666666</ele><time>2026-03-29T11:00:14.32Z</time></trkpt><trkpt lat="40.3988746" lon="15.1330826"><ele>587.3333333333334</ele><time>2026-03-29T11:00:15.338Z</time></trkpt><trkpt lat="40.3989091" lon="15.1332637"><ele>598.0</ele><time>2026-03-29T11:00:16.296Z</time></trkpt><trkpt lat="40.3989467" lon="15.1334559"><ele>598.0</ele><time>2026-03-29T11:00:17.314Z</time></trkpt><trkpt lat="40.3989809" lon="15.1336325"><ele>598.0</ele><time>2026-03-29T11:00:18.313Z</time></trkpt><trkpt lat="40.39901" lon="15.1338049"><ele>598.0</ele><time>2026-03-29T11:00:19.343Z</time></trkpt><trkpt lat="40.3990275" lon="15.1339805"><ele>598.0</ele><time>2026-03-29T11:00:20.349Z</time></trkpt><trkpt lat="40.3990276" lon="15.1341605"><ele>597.0</ele><time>2026-03-29T11:00:21.339Z</time></trkpt><trkpt lat="40.3990142" lon="15.134352"><ele>596.0</ele><time>2026-03-29T11:00:22.313Z</time></trkpt><trkpt lat="40.3989972" lon="15.134545"><ele>595.0</ele><time>2026-03-29T11:00:23.323Z</time></trkpt><trkpt lat="40.3989846" lon="15.134723"><ele>594.0</ele><time>2026-03-29T11:00:24.303Z</time></trkpt><trkpt lat="40.3989759" lon="15.1349109"><ele>594.0</ele><time>2026-03-29T11:00:25.449Z</time></trkpt><trkpt lat="40.3989375" lon="15.1351824"><ele>594.0</ele><time>2026-03-29T11:00:27.323Z</time></trkpt><trkpt lat="40.3988933" lon="15.1353061"><ele>594.0</ele><time>2026-03-29T11:00:28.314Z</time></trkpt><trkpt lat="40.3988235" lon="15.1354194"><ele>594.0</ele><time>2026-03-29T11:00:29.326Z</time></trkpt><trkpt lat="40.3987322" lon="15.1355206"><ele>593.0</ele><time>2026-03-29T11:00:30.306Z</time></trkpt><trkpt lat="40.398619" lon="15.1356206"><ele>592.0</ele><time>2026-03-29T11:00:31.327Z</time></trkpt><trkpt lat="40.3985021" lon="15.1357115"><ele>591.0</ele><time>2026-03-29T11:00:32.325Z</time></trkpt><trkpt lat="40.3983927" lon="15.135769"><ele>590.0</ele><time>2026-03-29T11:00:33.332Z</time></trkpt><trkpt lat="40.3982846" lon="15.1357999"><ele>590.0</ele><time>2026-03-29T11:00:34.309Z</time></trkpt><trkpt lat="40.3981806" lon="15.135823"><ele>590.0</ele><time>2026-03-29T11:00:35.314Z</time></trkpt><trkpt lat="40.398103" lon="15.135881"><ele>590.0</ele><time>2026-03-29T11:00:36.324Z</time></trkpt><trkpt lat="40.3980357" lon="15.135962"><ele>590.0</ele><time>2026-03-29T11:00:37.299Z</time></trkpt><trkpt lat="40.3979871" lon="15.1360636"><ele>590.0</ele><time>2026-03-29T11:00:38.321Z</time></trkpt><trkpt lat="40.3979556" lon="15.1361801"><ele>587.3333333333333</ele><time>2026-03-29T11:00:39.324Z</time></trkpt><trkpt lat="40.3979272" lon="15.1362921"><ele>584.6666666666666</ele><time>2026-03-29T11:00:40.377Z</time></trkpt><trkpt lat="40.3979027" lon="15.1363725"><ele>582.0</ele><time>2026-03-29T11:00:41.324Z</time></trkpt><trkpt lat="40.3978156" lon="15.1364402"><ele>579.3333333333334</ele><time>2026-03-29T11:00:43.313Z</time></trkpt><trkpt lat="40.3977476" lon="15.1364382"><ele>576.6666666666667</ele><time>2026-03-29T11:00:44.307Z</time></trkpt><trkpt lat="40.3976416" lon="15.1364305"><ele>574.0</ele><time>2026-03-29T11:00:45.29Z</time></trkpt><trkpt lat="40.3975383" lon="15.1364158"><ele>574.0</ele><time>2026-03-29T11:00:46.287Z</time></trkpt><trkpt lat="40.3974203" lon="15.1364029"><ele>574.0</ele><time>2026-03-29T11:00:47.298Z</time></trkpt><trkpt lat="40.3972882" lon="15.136386"><ele>574.0</ele><time>2026-03-29T11:00:48.297Z</time></trkpt><trkpt lat="40.3971589" lon="15.1363651"><ele>574.0</ele><time>2026-03-29T11:00:49.3Z</time></trkpt><trkpt lat="40.3970415" lon="15.1363261"><ele>572.4</ele><time>2026-03-29T11:00:50.308Z</time></trkpt><trkpt lat="40.3969213" lon="15.1362921"><ele>570.8</ele><time>2026-03-29T11:00:51.312Z</time></trkpt><trkpt lat="40.3968088" lon="15.1362716"><ele>569.2</ele><time>2026-03-29T11:00:52.294Z</time></trkpt><trkpt lat="40.3966944" lon="15.1362724"><ele>567.6</ele><time>2026-03-29T11:00:53.31Z</time></trkpt><trkpt lat="40.396599" lon="15.1362946"><ele>566.0</ele><time>2026-03-29T11:00:54.301Z</time></trkpt><trkpt lat="40.3964993" lon="15.1363509"><ele>566.0</ele><time>2026-03-29T11:00:55.4Z</time></trkpt><trkpt lat="40.3964205" lon="15.1364248"><ele>566.0</ele><time>2026-03-29T11:00:56.301Z</time></trkpt><trkpt lat="40.3963363" lon="15.1365272"><ele>566.0</ele><time>2026-03-29T11:00:57.299Z</time></trkpt><trkpt lat="40.3962653" lon="15.1366391"><ele>566.0</ele><time>2026-03-29T11:00:58.316Z</time></trkpt><trkpt lat="40.3962072" lon="15.1367636"><ele>566.0</ele><time>2026-03-29T11:00:59.324Z</time></trkpt><trkpt lat="40.396164" lon="15.136895"><ele>566.5</ele><time>2026-03-29T11:01:00.29Z</time></trkpt><trkpt lat="40.3961305" lon="15.1370434"><ele>567.0</ele><time>2026-03-29T11:01:01.285Z</time></trkpt><trkpt lat="40.3960999" lon="15.1372253"><ele>567.5</ele><time>2026-03-29T11:01:02.384Z</time></trkpt><trkpt lat="40.3960747" lon="15.1373969"><ele>568.0</ele><time>2026-03-29T11:01:03.319Z</time></trkpt><trkpt lat="40.3960449" lon="15.1376073"><ele>571.3333333333334</ele><time>2026-03-29T11:01:04.337Z</time></trkpt><trkpt lat="40.3960144" lon="15.1378279"><ele>574.6666666666666</ele><time>2026-03-29T11:01:05.315Z</time></trkpt><trkpt lat="40.3959901" lon="15.1380425"><ele>578.0</ele><time>2026-03-29T11:01:06.326Z</time></trkpt><trkpt lat="40.395968" lon="15.138248"><ele>580.5</ele><time>2026-03-29T11:01:07.368Z</time></trkpt><trkpt lat="40.3959414" lon="15.1384232"><ele>583.0</ele><time>2026-03-29T11:01:08.313Z</time></trkpt><trkpt lat="40.3958996" lon="15.1385999"><ele>585.5</ele><time>2026-03-29T11:01:09.328Z</time></trkpt><trkpt lat="40.3958271" lon="15.1388041"><ele>588.0</ele><time>2026-03-29T11:01:10.488Z</time></trkpt><trkpt lat="40.3956817" lon="15.1391269"><ele>590.25</ele><time>2026-03-29T11:01:12.388Z</time></trkpt><trkpt lat="40.3956208" lon="15.1392946"><ele>592.5</ele><time>2026-03-29T11:01:13.397Z</time></trkpt><trkpt lat="40.3955711" lon="15.139458"><ele>594.75</ele><time>2026-03-29T11:01:14.364Z</time></trkpt><trkpt lat="40.3955226" lon="15.1396387"><ele>597.0</ele><time>2026-03-29T11:01:15.392Z</time></trkpt><trkpt lat="40.3954765" lon="15.1398248"><ele>590.5</ele><time>2026-03-29T11:01:16.419Z</time></trkpt><trkpt lat="40.3954356" lon="15.1400053"><ele>584.0</ele><time>2026-03-29T11:01:17.4Z</time></trkpt><trkpt lat="40.3954034" lon="15.1401923"><ele>577.5</ele><time>2026-03-29T11:01:18.404Z</time></trkpt><trkpt lat="40.3953813" lon="15.1403664"><ele>571.0</ele><time>2026-03-29T11:01:19.386Z</time></trkpt><trkpt lat="40.3953601" lon="15.1405465"><ele>572.5</ele><time>2026-03-29T11:01:20.405Z</time></trkpt><trkpt lat="40.3953424" lon="15.1407248"><ele>574.0</ele><time>2026-03-29T11:01:21.408Z</time></trkpt><trkpt lat="40.3953297" lon="15.1409043"><ele>575.5</ele><time>2026-03-29T11:01:22.405Z</time></trkpt><trkpt lat="40.3953225" lon="15.1410943"><ele>577.0</ele><time>2026-03-29T11:01:23.415Z</time></trkpt><trkpt lat="40.3953239" lon="15.141283"><ele>577.0</ele><time>2026-03-29T11:01:24.375Z</time></trkpt><trkpt lat="40.3953329" lon="15.1414902"><ele>577.0</ele><time>2026-03-29T11:01:25.374Z</time></trkpt><trkpt lat="40.3953483" lon="15.1417248"><ele>577.0</ele><time>2026-03-29T11:01:26.406Z</time></trkpt><trkpt lat="40.3953614" lon="15.1419713"><ele>576.6666666666667</ele><time>2026-03-29T11:01:27.388Z</time></trkpt><trkpt lat="40.3953691" lon="15.1422206"><ele>576.3333333333334</ele><time>2026-03-29T11:01:28.396Z</time></trkpt><trkpt lat="40.3953707" lon="15.1424498"><ele>576.0</ele><time>2026-03-29T11:01:29.395Z</time></trkpt><trkpt lat="40.3953731" lon="15.142665"><ele>576.0</ele><time>2026-03-29T11:01:30.396Z</time></trkpt><trkpt lat="40.3953738" lon="15.1428691"><ele>576.0</ele><time>2026-03-29T11:01:31.421Z</time></trkpt><trkpt lat="40.3953751" lon="15.1430582"><ele>576.0</ele><time>2026-03-29T11:01:32.411Z</time></trkpt><trkpt lat="40.3953838" lon="15.1432482"><ele>576.0</ele><time>2026-03-29T11:01:33.392Z</time></trkpt><trkpt lat="40.3954003" lon="15.1434484"><ele>575.3333333333334</ele><time>2026-03-29T11:01:34.406Z</time></trkpt><trkpt lat="40.3954222" lon="15.1436558"><ele>574.6666666666667</ele><time>2026-03-29T11:01:35.42Z</time></trkpt><trkpt lat="40.3954471" lon="15.143851"><ele>574.0</ele><time>2026-03-29T11:01:36.376Z</time></trkpt><trkpt lat="40.3954802" lon="15.1440401"><ele>583.25</ele><time>2026-03-29T11:01:37.384Z</time></trkpt><trkpt lat="40.3955166" lon="15.1442165"><ele>592.5</ele><time>2026-03-29T11:01:38.399Z</time></trkpt><trkpt lat="40.3955507" lon="15.1443774"><ele>601.75</ele><time>2026-03-29T11:01:39.388Z</time></trkpt><trkpt lat="40.3955796" lon="15.1445345"><ele>611.0</ele><time>2026-03-29T11:01:40.399Z</time></trkpt><trkpt lat="40.3955935" lon="15.144689"><ele>611.0</ele><time>2026-03-29T11:01:41.39Z</time></trkpt><trkpt lat="40.3955874" lon="15.1448496"><ele>611.0</ele><time>2026-03-29T11:01:42.414Z</time></trkpt><trkpt lat="40.3955609" lon="15.1450175"><ele>611.0</ele><time>2026-03-29T11:01:43.402Z</time></trkpt><trkpt lat="40.3955452" lon="15.1451773"><ele>611.0</ele><time>2026-03-29T11:01:44.391Z</time></trkpt><trkpt lat="40.3955361" lon="15.1453301"><ele>610.5</ele><time>2026-03-29T11:01:45.404Z</time></trkpt><trkpt lat="40.3955367" lon="15.1454725"><ele>610.0</ele><time>2026-03-29T11:01:46.41Z</time></trkpt><trkpt lat="40.3955575" lon="15.1456152"><ele>609.5</ele><time>2026-03-29T11:01:47.402Z</time></trkpt><trkpt lat="40.3956005" lon="15.1457624"><ele>609.0</ele><time>2026-03-29T11:01:48.415Z</time></trkpt><trkpt lat="40.3956624" lon="15.1459059"><ele>607.75</ele><time>2026-03-29T11:01:49.389Z</time></trkpt><trkpt lat="40.3957401" lon="15.1460529"><ele>606.5</ele><time>2026-03-29T11:01:50.394Z</time></trkpt><trkpt lat="40.3958143" lon="15.1461857"><ele>605.25</ele><time>2026-03-29T11:01:51.376Z</time></trkpt><trkpt lat="40.3958777" lon="15.1463018"><ele>604.0</ele><time>2026-03-29T11:01:52.391Z</time></trkpt><trkpt lat="40.3959237" lon="15.1464042"><ele>604.0</ele><time>2026-03-29T11:01:53.367Z</time></trkpt><trkpt lat="40.3959473" lon="15.1465051"><ele>604.0</ele><time>2026-03-29T11:01:54.403Z</time></trkpt><trkpt lat="40.3959418" lon="15.1465986"><ele>604.0</ele><time>2026-03-29T11:01:55.391Z</time></trkpt><trkpt lat="40.3959031" lon="15.14671"><ele>604.0</ele><time>2026-03-29T11:01:56.362Z</time></trkpt><trkpt lat="40.3958451" lon="15.1468562"><ele>604.0</ele><time>2026-03-29T11:01:57.34Z</time></trkpt><trkpt lat="40.3957639" lon="15.1470116"><ele>602.6666666666667</ele><time>2026-03-29T11:01:58.375Z</time></trkpt><trkpt lat="40.3956771" lon="15.1471792"><ele>601.3333333333334</ele><time>2026-03-29T11:01:59.358Z</time></trkpt><trkpt lat="40.3955714" lon="15.1473939"><ele>600.0</ele><time>2026-03-29T11:02:00.463Z</time></trkpt><trkpt lat="40.3954869" lon="15.1475648"><ele>592.0</ele><time>2026-03-29T11:02:01.368Z</time></trkpt><trkpt lat="40.3953971" lon="15.1477417"><ele>584.0</ele><time>2026-03-29T11:02:02.382Z</time></trkpt><trkpt lat="40.3953145" lon="15.1479058"><ele>576.0</ele><time>2026-03-29T11:02:03.384Z</time></trkpt><trkpt lat="40.3952316" lon="15.1480732"><ele>582.0</ele><time>2026-03-29T11:02:04.389Z</time></trkpt><trkpt lat="40.3951586" lon="15.148247"><ele>588.0</ele><time>2026-03-29T11:02:05.392Z</time></trkpt><trkpt lat="40.3950959" lon="15.1484383"><ele>594.0</ele><time>2026-03-29T11:02:06.399Z</time></trkpt><trkpt lat="40.3950411" lon="15.148619"><ele>594.0</ele><time>2026-03-29T11:02:07.374Z</time></trkpt><trkpt lat="40.3949903" lon="15.148799"><ele>594.0</ele><time>2026-03-29T11:02:08.383Z</time></trkpt><trkpt lat="40.3949511" lon="15.148994"><ele>594.0</ele><time>2026-03-29T11:02:09.401Z</time></trkpt><trkpt lat="40.394919" lon="15.1491981"><ele>597.5</ele><time>2026-03-29T11:02:10.412Z</time></trkpt><trkpt lat="40.3948973" lon="15.1493825"><ele>601.0</ele><time>2026-03-29T11:02:11.404Z</time></trkpt><trkpt lat="40.3948722" lon="15.1495573"><ele>604.5</ele><time>2026-03-29T11:02:12.437Z</time></trkpt><trkpt lat="40.3948328" lon="15.1497024"><ele>608.0</ele><time>2026-03-29T11:02:13.421Z</time></trkpt><trkpt lat="40.3947776" lon="15.1498295"><ele>610.75</ele><time>2026-03-29T11:02:14.383Z</time></trkpt><trkpt lat="40.3946974" lon="15.1499583"><ele>613.5</ele><time>2026-03-29T11:02:15.447Z</time></trkpt><trkpt lat="40.3946163" lon="15.1500661"><ele>616.25</ele><time>2026-03-29T11:02:16.4Z</time></trkpt><trkpt lat="40.3945371" lon="15.150193"><ele>619.0</ele><time>2026-03-29T11:02:17.404Z</time></trkpt><trkpt lat="40.3944753" lon="15.1503546"><ele>611.3333333333334</ele><time>2026-03-29T11:02:18.39Z</time></trkpt><trkpt lat="40.3944093" lon="15.1505469"><ele>603.6666666666666</ele><time>2026-03-29T11:02:19.404Z</time></trkpt><trkpt lat="40.394344" lon="15.1507456"><ele>596.0</ele><time>2026-03-29T11:02:20.387Z</time></trkpt><trkpt lat="40.394281" lon="15.1509393"><ele>596.0</ele><time>2026-03-29T11:02:21.4Z</time></trkpt><trkpt lat="40.3942319" lon="15.1511205"><ele>596.0</ele><time>2026-03-29T11:02:22.407Z</time></trkpt><trkpt lat="40.3942045" lon="15.151297"><ele>596.0</ele><time>2026-03-29T11:02:23.404Z</time></trkpt><trkpt lat="40.3941807" lon="15.1514637"><ele>596.0</ele><time>2026-03-29T11:02:24.396Z</time></trkpt><trkpt lat="40.3941478" lon="15.1516121"><ele>598.2</ele><time>2026-03-29T11:02:25.421Z</time></trkpt><trkpt lat="40.3941031" lon="15.15174"><ele>600.4000000000001</ele><time>2026-03-29T11:02:26.442Z</time></trkpt><trkpt lat="40.3940506" lon="15.1518419"><ele>602.6</ele><time>2026-03-29T11:02:27.395Z</time></trkpt><trkpt lat="40.3939775" lon="15.1519279"><ele>604.8000000000001</ele><time>2026-03-29T11:02:28.405Z</time></trkpt><trkpt lat="40.3938993" lon="15.1520046"><ele>607.0</ele><time>2026-03-29T11:02:29.409Z</time></trkpt><trkpt lat="40.3938186" lon="15.1521143"><ele>601.25</ele><time>2026-03-29T11:02:30.386Z</time></trkpt><trkpt lat="40.3937508" lon="15.1522488"><ele>595.5</ele><time>2026-03-29T11:02:31.372Z</time></trkpt><trkpt lat="40.3936952" lon="15.1524171"><ele>589.75</ele><time>2026-03-29T11:02:32.4Z</time></trkpt><trkpt lat="40.3936574" lon="15.1525929"><ele>584.0</ele><time>2026-03-29T11:02:33.399Z</time></trkpt><trkpt lat="40.3936296" lon="15.1527834"><ele>584.0</ele><time>2026-03-29T11:02:34.474Z</time></trkpt><trkpt lat="40.3936138" lon="15.1529557"><ele>584.0</ele><time>2026-03-29T11:02:35.413Z</time></trkpt><trkpt lat="40.393612" lon="15.1531566"><ele>584.0</ele><time>2026-03-29T11:02:36.407Z</time></trkpt><trkpt lat="40.3936216" lon="15.1533551"><ele>584.0</ele><time>2026-03-29T11:02:37.407Z</time></trkpt><trkpt lat="40.3936402" lon="15.1535383"><ele>585.4</ele><time>2026-03-29T11:02:38.414Z</time></trkpt><trkpt lat="40.3936597" lon="15.1536991"><ele>586.8</ele><time>2026-03-29T11:02:39.405Z</time></trkpt><trkpt lat="40.3936801" lon="15.153845"><ele>588.2</ele><time>2026-03-29T11:02:40.418Z</time></trkpt><trkpt lat="40.3936861" lon="15.1539626"><ele>589.6</ele><time>2026-03-29T11:02:41.4Z</time></trkpt><trkpt lat="40.3936731" lon="15.1540621"><ele>591.0</ele><time>2026-03-29T11:02:42.385Z</time></trkpt><trkpt lat="40.3936341" lon="15.1541601"><ele>592.75</ele><time>2026-03-29T11:02:43.403Z</time></trkpt><trkpt lat="40.3935681" lon="15.1542878"><ele>594.5</ele><time>2026-03-29T11:02:44.381Z</time></trkpt><trkpt lat="40.39348" lon="15.1544196"><ele>596.25</ele><time>2026-03-29T11:02:45.415Z</time></trkpt><trkpt lat="40.3933973" lon="15.1545402"><ele>598.0</ele><time>2026-03-29T11:02:46.407Z</time></trkpt><trkpt lat="40.3933011" lon="15.1546398"><ele>598.0</ele><time>2026-03-29T11:02:47.4Z</time></trkpt><trkpt lat="40.3931875" lon="15.1547272"><ele>598.0</ele><time>2026-03-29T11:02:48.388Z</time></trkpt><trkpt lat="40.3930583" lon="15.1548001"><ele>598.0</ele><time>2026-03-29T11:02:49.399Z</time></trkpt><trkpt lat="40.3929221" lon="15.1548622"><ele>598.0</ele><time>2026-03-29T11:02:50.523Z</time></trkpt><trkpt lat="40.3928182" lon="15.1549282"><ele>597.25</ele><time>2026-03-29T11:02:51.423Z</time></trkpt><trkpt lat="40.3927107" lon="15.1550258"><ele>596.5</ele><time>2026-03-29T11:02:52.413Z</time></trkpt><trkpt lat="40.3926089" lon="15.1551411"><ele>595.75</ele><time>2026-03-29T11:02:53.396Z</time></trkpt><trkpt lat="40.3925113" lon="15.1552665"><ele>595.0</ele><time>2026-03-29T11:02:54.413Z</time></trkpt><trkpt lat="40.3924248" lon="15.1553848"><ele>595.0</ele><time>2026-03-29T11:02:55.411Z</time></trkpt><trkpt lat="40.3923557" lon="15.15551"><ele>595.0</ele><time>2026-03-29T11:02:56.433Z</time></trkpt><trkpt lat="40.3923107" lon="15.1556387"><ele>595.0</ele><time>2026-03-29T11:02:57.418Z</time></trkpt><trkpt lat="40.3922757" lon="15.1557806"><ele>595.0</ele><time>2026-03-29T11:02:58.436Z</time></trkpt><trkpt lat="40.3922571" lon="15.1559176"><ele>595.0</ele><time>2026-03-29T11:02:59.455Z</time></trkpt><trkpt lat="40.3922545" lon="15.1560367"><ele>596.2</ele><time>2026-03-29T11:03:00.426Z</time></trkpt><trkpt lat="40.3922753" lon="15.1561444"><ele>597.4</ele><time>2026-03-29T11:03:01.411Z</time></trkpt><trkpt lat="40.3923242" lon="15.1562411"><ele>598.6</ele><time>2026-03-29T11:03:02.418Z</time></trkpt><trkpt lat="40.3923917" lon="15.1563318"><ele>599.8</ele><time>2026-03-29T11:03:03.426Z</time></trkpt><trkpt lat="40.3924919" lon="15.1564264"><ele>601.0</ele><time>2026-03-29T11:03:04.547Z</time></trkpt><trkpt lat="40.3926961" lon="15.1565373"><ele>601.0</ele><time>2026-03-29T11:03:06.404Z</time></trkpt><trkpt lat="40.3927926" lon="15.1565786"><ele>601.0</ele><time>2026-03-29T11:03:07.426Z</time></trkpt><trkpt lat="40.3928608" lon="15.1566168"><ele>601.0</ele><time>2026-03-29T11:03:08.393Z</time></trkpt><trkpt lat="40.3929244" lon="15.1566937"><ele>601.0</ele><time>2026-03-29T11:03:10.44Z</time></trkpt><trkpt lat="40.3929234" lon="15.1567827"><ele>601.0</ele><time>2026-03-29T11:03:12.408Z</time></trkpt><trkpt lat="40.3928497" lon="15.1568938"><ele>601.0</ele><time>2026-03-29T11:03:14.412Z</time></trkpt><trkpt lat="40.3927953" lon="15.1569501"><ele>601.0</ele><time>2026-03-29T11:03:15.364Z</time></trkpt><trkpt lat="40.3927368" lon="15.1570121"><ele>601.0</ele><time>2026-03-29T11:03:16.318Z</time></trkpt><trkpt lat="40.3926711" lon="15.1571047"><ele>601.0</ele><time>2026-03-29T11:03:17.318Z</time></trkpt><trkpt lat="40.3926019" lon="15.1571701"><ele>601.0</ele><time>2026-03-29T11:03:18.307Z</time></trkpt><trkpt lat="40.3925345" lon="15.1572726"><ele>601.0</ele><time>2026-03-29T11:03:19.407Z</time></trkpt><trkpt lat="40.3924897" lon="15.1573769"><ele>601.8333333333334</ele><time>2026-03-29T11:03:20.412Z</time></trkpt><trkpt lat="40.3924602" lon="15.1574832"><ele>602.6666666666667</ele><time>2026-03-29T11:03:21.368Z</time></trkpt><trkpt lat="40.3924312" lon="15.1576043"><ele>603.5</ele><time>2026-03-29T11:03:22.408Z</time></trkpt><trkpt lat="40.3924062" lon="15.1577163"><ele>604.3333333333334</ele><time>2026-03-29T11:03:23.394Z</time></trkpt><trkpt lat="40.3923906" lon="15.1578345"><ele>605.1666666666666</ele><time>2026-03-29T11:03:24.426Z</time></trkpt><trkpt lat="40.3923828" lon="15.1579418"><ele>606.0</ele><time>2026-03-29T11:03:25.404Z</time></trkpt><trkpt lat="40.3923878" lon="15.1580565"><ele>606.0</ele><time>2026-03-29T11:03:26.411Z</time></trkpt><trkpt lat="40.3924156" lon="15.1581897"><ele>606.0</ele><time>2026-03-29T11:03:27.418Z</time></trkpt><trkpt lat="40.3924579" lon="15.158329"><ele>606.0</ele><time>2026-03-29T11:03:28.358Z</time></trkpt><trkpt lat="40.3925133" lon="15.1585044"><ele>606.0</ele><time>2026-03-29T11:03:29.403Z</time></trkpt><trkpt lat="40.3925737" lon="15.1586731"><ele>605.6666666666666</ele><time>2026-03-29T11:03:30.412Z</time></trkpt><trkpt lat="40.392627" lon="15.1588242"><ele>605.3333333333333</ele><time>2026-03-29T11:03:31.408Z</time></trkpt><trkpt lat="40.3926643" lon="15.15898"><ele>605.0</ele><time>2026-03-29T11:03:32.405Z</time></trkpt><trkpt lat="40.39271" lon="15.1593307"><ele>605.0</ele><time>2026-03-29T11:03:34.335Z</time></trkpt><trkpt lat="40.3927298" lon="15.1595433"><ele>605.0</ele><time>2026-03-29T11:03:35.397Z</time></trkpt><trkpt lat="40.3927439" lon="15.1597243"><ele>605.0</ele><time>2026-03-29T11:03:36.385Z</time></trkpt><trkpt lat="40.3927553" lon="15.1598975"><ele>605.0</ele><time>2026-03-29T11:03:37.406Z</time></trkpt><trkpt lat="40.3927677" lon="15.1600459"><ele>604.6</ele><time>2026-03-29T11:03:38.319Z</time></trkpt><trkpt lat="40.3927773" lon="15.1601903"><ele>604.2</ele><time>2026-03-29T11:03:39.262Z</time></trkpt><trkpt lat="40.3927866" lon="15.160326"><ele>603.8</ele><time>2026-03-29T11:03:40.261Z</time></trkpt><trkpt lat="40.3927847" lon="15.1604414"><ele>603.4</ele><time>2026-03-29T11:03:41.268Z</time></trkpt><trkpt lat="40.3927615" lon="15.1605374"><ele>603.0</ele><time>2026-03-29T11:03:42.29Z</time></trkpt><trkpt lat="40.3927171" lon="15.1606119"><ele>607.0</ele><time>2026-03-29T11:03:43.283Z</time></trkpt><trkpt lat="40.3926363" lon="15.1607226"><ele>611.0</ele><time>2026-03-29T11:03:44.295Z</time></trkpt><trkpt lat="40.3924662" lon="15.1607592"><ele>615.0</ele><time>2026-03-29T11:03:46.143Z</time></trkpt><trkpt lat="40.3923444" lon="15.16077"><ele>619.0</ele><time>2026-03-29T11:03:47.144Z</time></trkpt><trkpt lat="40.3922009" lon="15.1607919"><ele>616.0</ele><time>2026-03-29T11:03:48.143Z</time></trkpt><trkpt lat="40.3920177" lon="15.1608261"><ele>613.0</ele><time>2026-03-29T11:03:49.309Z</time></trkpt><trkpt lat="40.391847" lon="15.1608744"><ele>610.0</ele><time>2026-03-29T11:03:50.286Z</time></trkpt><trkpt lat="40.3916844" lon="15.1609111"><ele>610.0</ele><time>2026-03-29T11:03:51.308Z</time></trkpt><trkpt lat="40.3915559" lon="15.1609298"><ele>610.0</ele><time>2026-03-29T11:03:52.295Z</time></trkpt><trkpt lat="40.3914405" lon="15.1609654"><ele>610.0</ele><time>2026-03-29T11:03:53.283Z</time></trkpt><trkpt lat="40.3913239" lon="15.1610054"><ele>610.0</ele><time>2026-03-29T11:03:54.418Z</time></trkpt><trkpt lat="40.3911833" lon="15.1611164"><ele>606.4</ele><time>2026-03-29T11:03:56.318Z</time></trkpt><trkpt lat="40.3911435" lon="15.1612024"><ele>602.8</ele><time>2026-03-29T11:03:57.314Z</time></trkpt><trkpt lat="40.3911284" lon="15.1613152"><ele>599.2</ele><time>2026-03-29T11:03:58.33Z</time></trkpt><trkpt lat="40.3911378" lon="15.1614435"><ele>595.6</ele><time>2026-03-29T11:03:59.297Z</time></trkpt><trkpt lat="40.3911686" lon="15.1615973"><ele>592.0</ele><time>2026-03-29T11:04:00.275Z</time></trkpt><trkpt lat="40.3912155" lon="15.1617878"><ele>592.0</ele><time>2026-03-29T11:04:01.275Z</time></trkpt><trkpt lat="40.3912593" lon="15.1619954"><ele>592.0</ele><time>2026-03-29T11:04:02.272Z</time></trkpt><trkpt lat="40.3913008" lon="15.1622138"><ele>592.0</ele><time>2026-03-29T11:04:03.413Z</time></trkpt><trkpt lat="40.3913359" lon="15.1623844"><ele>607.0</ele><time>2026-03-29T11:04:04.403Z</time></trkpt><trkpt lat="40.3913851" lon="15.1626921"><ele>622.0</ele><time>2026-03-29T11:04:06.316Z</time></trkpt><trkpt lat="40.3914086" lon="15.1628377"><ele>637.0</ele><time>2026-03-29T11:04:07.294Z</time></trkpt><trkpt lat="40.3914282" lon="15.1629633"><ele>637.0</ele><time>2026-03-29T11:04:08.323Z</time></trkpt><trkpt lat="40.3914327" lon="15.1630581"><ele>637.0</ele><time>2026-03-29T11:04:09.294Z</time></trkpt><trkpt lat="40.3913358" lon="15.1632057"><ele>637.0</ele><time>2026-03-29T11:04:12.295Z</time></trkpt><trkpt lat="40.3912615" lon="15.1632241"><ele>637.0</ele><time>2026-03-29T11:04:13.302Z</time></trkpt><trkpt lat="40.3911744" lon="15.1632135"><ele>637.0</ele><time>2026-03-29T11:04:14.311Z</time></trkpt><trkpt lat="40.3910719" lon="15.1631998"><ele>633.25</ele><time>2026-03-29T11:04:15.287Z</time></trkpt><trkpt lat="40.3909508" lon="15.1632027"><ele>629.5</ele><time>2026-03-29T11:04:16.307Z</time></trkpt><trkpt lat="40.3908087" lon="15.1632297"><ele>625.75</ele><time>2026-03-29T11:04:17.287Z</time></trkpt><trkpt lat="40.3906501" lon="15.1632699"><ele>622.0</ele><time>2026-03-29T11:04:18.296Z</time></trkpt><trkpt lat="40.3904999" lon="15.1633051"><ele>618.75</ele><time>2026-03-29T11:04:19.299Z</time></trkpt><trkpt lat="40.3903722" lon="15.1633361"><ele>615.5</ele><time>2026-03-29T11:04:20.288Z</time></trkpt><trkpt lat="40.3902537" lon="15.1633755"><ele>612.25</ele><time>2026-03-29T11:04:21.298Z</time></trkpt><trkpt lat="40.3901357" lon="15.1634344"><ele>609.0</ele><time>2026-03-29T11:04:22.322Z</time></trkpt><trkpt lat="40.3900303" lon="15.1635152"><ele>609.0</ele><time>2026-03-29T11:04:23.305Z</time></trkpt><trkpt lat="40.3899345" lon="15.1636227"><ele>609.0</ele><time>2026-03-29T11:04:24.311Z</time></trkpt><trkpt lat="40.3898391" lon="15.1637762"><ele>609.0</ele><time>2026-03-29T11:04:25.437Z</time></trkpt><trkpt lat="40.3897632" lon="15.1639374"><ele>609.0</ele><time>2026-03-29T11:04:26.386Z</time></trkpt><trkpt lat="40.3896818" lon="15.1641376"><ele>605.0</ele><time>2026-03-29T11:04:27.385Z</time></trkpt><trkpt lat="40.389612" lon="15.1643162"><ele>601.0</ele><time>2026-03-29T11:04:28.326Z</time></trkpt><trkpt lat="40.3895384" lon="15.1644922"><ele>597.0</ele><time>2026-03-29T11:04:29.311Z</time></trkpt><trkpt lat="40.3894678" lon="15.1646576"><ele>597.0</ele><time>2026-03-29T11:04:30.302Z</time></trkpt><trkpt lat="40.3893981" lon="15.1648191"><ele>597.0</ele><time>2026-03-29T11:04:31.315Z</time></trkpt><trkpt lat="40.3893365" lon="15.1649653"><ele>597.0</ele><time>2026-03-29T11:04:32.319Z</time></trkpt><trkpt lat="40.3892833" lon="15.1651042"><ele>597.0</ele><time>2026-03-29T11:04:33.322Z</time></trkpt><trkpt lat="40.389246" lon="15.1652473"><ele>601.25</ele><time>2026-03-29T11:04:34.309Z</time></trkpt><trkpt lat="40.3892287" lon="15.165405"><ele>605.5</ele><time>2026-03-29T11:04:35.333Z</time></trkpt><trkpt lat="40.389227" lon="15.1655642"><ele>609.75</ele><time>2026-03-29T11:04:36.322Z</time></trkpt><trkpt lat="40.3892311" lon="15.1657265"><ele>614.0</ele><time>2026-03-29T11:04:37.31Z</time></trkpt><trkpt lat="40.3892277" lon="15.1658772"><ele>615.8</ele><time>2026-03-29T11:04:38.319Z</time></trkpt><trkpt lat="40.3892068" lon="15.1660037"><ele>617.5999999999999</ele><time>2026-03-29T11:04:39.306Z</time></trkpt><trkpt lat="40.3891722" lon="15.1661117"><ele>619.4</ele><time>2026-03-29T11:04:40.315Z</time></trkpt><trkpt lat="40.3891177" lon="15.1662364"><ele>621.1999999999999</ele><time>2026-03-29T11:04:41.319Z</time></trkpt><trkpt lat="40.3890519" lon="15.1663345"><ele>623.0</ele><time>2026-03-29T11:04:42.335Z</time></trkpt><trkpt lat="40.3889977" lon="15.1664224"><ele>623.0</ele><time>2026-03-29T11:04:43.333Z</time></trkpt><trkpt lat="40.3889608" lon="15.1665209"><ele>623.0</ele><time>2026-03-29T11:04:44.407Z</time></trkpt><trkpt lat="40.3889475" lon="15.1666053"><ele>623.0</ele><time>2026-03-29T11:04:45.319Z</time></trkpt><trkpt lat="40.3889518" lon="15.1667029"><ele>623.0</ele><time>2026-03-29T11:04:46.307Z</time></trkpt><trkpt lat="40.3889716" lon="15.1668168"><ele>623.0</ele><time>2026-03-29T11:04:47.309Z</time></trkpt><trkpt lat="40.3890021" lon="15.1669488"><ele>623.0</ele><time>2026-03-29T11:04:48.315Z</time></trkpt><trkpt lat="40.3890504" lon="15.1671215"><ele>624.75</ele><time>2026-03-29T11:04:49.411Z</time></trkpt><trkpt lat="40.3890947" lon="15.1672867"><ele>626.5</ele><time>2026-03-29T11:04:50.341Z</time></trkpt><trkpt lat="40.3891397" lon="15.1674772"><ele>628.25</ele><time>2026-03-29T11:04:51.347Z</time></trkpt><trkpt lat="40.3891743" lon="15.1676749"><ele>630.0</ele><time>2026-03-29T11:04:52.325Z</time></trkpt><trkpt lat="40.3891964" lon="15.1678766"><ele>630.0</ele><time>2026-03-29T11:04:53.32Z</time></trkpt><trkpt lat="40.3892125" lon="15.1680879"><ele>630.0</ele><time>2026-03-29T11:04:54.332Z</time></trkpt><trkpt lat="40.3892302" lon="15.1683171"><ele>630.0</ele><time>2026-03-29T11:04:55.335Z</time></trkpt><trkpt lat="40.3892377" lon="15.1685624"><ele>628.6666666666666</ele><time>2026-03-29T11:04:56.309Z</time></trkpt><trkpt lat="40.3892384" lon="15.168808"><ele>627.3333333333333</ele><time>2026-03-29T11:04:57.32Z</time></trkpt><trkpt lat="40.3892365" lon="15.1690402"><ele>626.0</ele><time>2026-03-29T11:04:58.348Z</time></trkpt><trkpt lat="40.3892346" lon="15.1692461"><ele>626.0</ele><time>2026-03-29T11:04:59.312Z</time></trkpt><trkpt lat="40.3892288" lon="15.1694644"><ele>626.0</ele><time>2026-03-29T11:05:00.399Z</time></trkpt><trkpt lat="40.3892182" lon="15.1696389"><ele>626.0</ele><time>2026-03-29T11:05:01.318Z</time></trkpt><trkpt lat="40.3891999" lon="15.1698186"><ele>626.0</ele><time>2026-03-29T11:05:02.319Z</time></trkpt><trkpt lat="40.3891678" lon="15.1699876"><ele>626.0</ele><time>2026-03-29T11:05:03.302Z</time></trkpt><trkpt lat="40.3891181" lon="15.1701556"><ele>626.0</ele><time>2026-03-29T11:05:04.303Z</time></trkpt><trkpt lat="40.3890521" lon="15.1703184"><ele>626.0</ele><time>2026-03-29T11:05:05.308Z</time></trkpt><trkpt lat="40.3889771" lon="15.1704722"><ele>626.0</ele><time>2026-03-29T11:05:06.279Z</time></trkpt><trkpt lat="40.3888959" lon="15.1706329"><ele>619.6666666666666</ele><time>2026-03-29T11:05:07.286Z</time></trkpt><trkpt lat="40.3888152" lon="15.1707947"><ele>613.3333333333334</ele><time>2026-03-29T11:05:08.281Z</time></trkpt><trkpt lat="40.3887366" lon="15.1709679"><ele>607.0</ele><time>2026-03-29T11:05:09.292Z</time></trkpt><trkpt lat="40.388658" lon="15.1711656"><ele>607.0</ele><time>2026-03-29T11:05:10.371Z</time></trkpt><trkpt lat="40.3885892" lon="15.1713437"><ele>607.0</ele><time>2026-03-29T11:05:11.303Z</time></trkpt><trkpt lat="40.3885102" lon="15.1715404"><ele>607.0</ele><time>2026-03-29T11:05:12.304Z</time></trkpt><trkpt lat="40.3884088" lon="15.1717955"><ele>615.5</ele><time>2026-03-29T11:05:13.531Z</time></trkpt><trkpt lat="40.3882683" lon="15.1721746"><ele>624.0</ele><time>2026-03-29T11:05:15.335Z</time></trkpt><trkpt lat="40.3882002" lon="15.1723586"><ele>627.3333333333334</ele><time>2026-03-29T11:05:16.306Z</time></trkpt><trkpt lat="40.3881298" lon="15.1725484"><ele>630.6666666666667</ele><time>2026-03-29T11:05:17.323Z</time></trkpt><trkpt lat="40.388063" lon="15.1727304"><ele>634.0</ele><time>2026-03-29T11:05:18.308Z</time></trkpt><trkpt lat="40.3879749" lon="15.1729461"><ele>628.6666666666667</ele><time>2026-03-29T11:05:19.507Z</time></trkpt><trkpt lat="40.3878167" lon="15.173245"><ele>623.3333333333334</ele><time>2026-03-29T11:05:21.397Z</time></trkpt><trkpt lat="40.3877274" lon="15.173395"><ele>618.0</ele><time>2026-03-29T11:05:22.389Z</time></trkpt><trkpt lat="40.3876297" lon="15.1735356"><ele>618.0</ele><time>2026-03-29T11:05:23.374Z</time></trkpt><trkpt lat="40.3875222" lon="15.1736665"><ele>618.0</ele><time>2026-03-29T11:05:24.32Z</time></trkpt><trkpt lat="40.3873941" lon="15.1738068"><ele>618.0</ele><time>2026-03-29T11:05:25.311Z</time></trkpt><trkpt lat="40.3872527" lon="15.1739482"><ele>616.6666666666666</ele><time>2026-03-29T11:05:26.332Z</time></trkpt><trkpt lat="40.3871123" lon="15.1740786"><ele>615.3333333333333</ele><time>2026-03-29T11:05:27.381Z</time></trkpt><trkpt lat="40.3869857" lon="15.1741959"><ele>614.0</ele><time>2026-03-29T11:05:28.397Z</time></trkpt><trkpt lat="40.3868733" lon="15.1743064"><ele>614.0</ele><time>2026-03-29T11:05:29.387Z</time></trkpt><trkpt lat="40.3867714" lon="15.1744162"><ele>614.0</ele><time>2026-03-29T11:05:30.375Z</time></trkpt><trkpt lat="40.3866802" lon="15.1745489"><ele>614.0</ele><time>2026-03-29T11:05:31.368Z</time></trkpt><trkpt lat="40.3865969" lon="15.174713"><ele>614.0</ele><time>2026-03-29T11:05:32.405Z</time></trkpt><trkpt lat="40.3865265" lon="15.1748712"><ele>613.25</ele><time>2026-03-29T11:05:33.377Z</time></trkpt><trkpt lat="40.3864516" lon="15.1750235"><ele>612.5</ele><time>2026-03-29T11:05:34.376Z</time></trkpt><trkpt lat="40.3863788" lon="15.1751538"><ele>611.75</ele><time>2026-03-29T11:05:35.374Z</time></trkpt><trkpt lat="40.3863026" lon="15.1752582"><ele>611.0</ele><time>2026-03-29T11:05:36.363Z</time></trkpt><trkpt lat="40.3862205" lon="15.1753586"><ele>611.0</ele><time>2026-03-29T11:05:37.362Z</time></trkpt><trkpt lat="40.3861442" lon="15.1754258"><ele>611.0</ele><time>2026-03-29T11:05:38.349Z</time></trkpt><trkpt lat="40.3860726" lon="15.1754649"><ele>611.0</ele><time>2026-03-29T11:05:39.354Z</time></trkpt><trkpt lat="40.3860031" lon="15.1754669"><ele>611.0</ele><time>2026-03-29T11:05:40.339Z</time></trkpt><trkpt lat="40.3859276" lon="15.175434"><ele>611.0</ele><time>2026-03-29T11:05:41.364Z</time></trkpt><trkpt lat="40.3858713" lon="15.175373"><ele>611.0</ele><time>2026-03-29T11:05:42.351Z</time></trkpt><trkpt lat="40.3858233" lon="15.1752779"><ele>611.0</ele><time>2026-03-29T11:05:43.349Z</time></trkpt><trkpt lat="40.3857653" lon="15.1751686"><ele>611.0</ele><time>2026-03-29T11:05:44.339Z</time></trkpt><trkpt lat="40.3856831" lon="15.1750576"><ele>611.0</ele><time>2026-03-29T11:05:45.329Z</time></trkpt><trkpt lat="40.3855638" lon="15.1749532"><ele>611.0</ele><time>2026-03-29T11:05:46.348Z</time></trkpt><trkpt lat="40.3854305" lon="15.1748616"><ele>606.6666666666666</ele><time>2026-03-29T11:05:47.347Z</time></trkpt><trkpt lat="40.3852914" lon="15.1747706"><ele>602.3333333333334</ele><time>2026-03-29T11:05:48.344Z</time></trkpt><trkpt lat="40.3851397" lon="15.1746732"><ele>598.0</ele><time>2026-03-29T11:05:49.378Z</time></trkpt><trkpt lat="40.3849911" lon="15.1745818"><ele>598.0</ele><time>2026-03-29T11:05:50.367Z</time></trkpt><trkpt lat="40.3848482" lon="15.1745019"><ele>598.0</ele><time>2026-03-29T11:05:51.344Z</time></trkpt><trkpt lat="40.3847052" lon="15.1744326"><ele>598.0</ele><time>2026-03-29T11:05:52.363Z</time></trkpt><trkpt lat="40.3845648" lon="15.1743788"><ele>601.0</ele><time>2026-03-29T11:05:53.362Z</time></trkpt><trkpt lat="40.3844239" lon="15.1743281"><ele>604.0</ele><time>2026-03-29T11:05:54.359Z</time></trkpt><trkpt lat="40.3842876" lon="15.1742814"><ele>607.0</ele><time>2026-03-29T11:05:55.365Z</time></trkpt><trkpt lat="40.3841571" lon="15.1742408"><ele>610.0</ele><time>2026-03-29T11:05:56.382Z</time></trkpt><trkpt lat="40.3840312" lon="15.1742194"><ele>610.0</ele><time>2026-03-29T11:05:57.358Z</time></trkpt><trkpt lat="40.3839026" lon="15.1742182"><ele>610.0</ele><time>2026-03-29T11:05:58.318Z</time></trkpt><trkpt lat="40.3837688" lon="15.1742386"><ele>610.0</ele><time>2026-03-29T11:05:59.3Z</time></trkpt><trkpt lat="40.3836272" lon="15.1742828"><ele>610.0</ele><time>2026-03-29T11:06:00.33Z</time></trkpt><trkpt lat="40.3834839" lon="15.1743548"><ele>605.6666666666667</ele><time>2026-03-29T11:06:01.367Z</time></trkpt><trkpt lat="40.3833443" lon="15.1744523"><ele>601.3333333333334</ele><time>2026-03-29T11:06:02.371Z</time></trkpt><trkpt lat="40.3832008" lon="15.1745735"><ele>597.0</ele><time>2026-03-29T11:06:03.386Z</time></trkpt><trkpt lat="40.3830547" lon="15.1746912"><ele>601.3333333333334</ele><time>2026-03-29T11:06:04.357Z</time></trkpt><trkpt lat="40.3829025" lon="15.1748033"><ele>605.6666666666667</ele><time>2026-03-29T11:06:05.36Z</time></trkpt><trkpt lat="40.3827584" lon="15.1749003"><ele>610.0</ele><time>2026-03-29T11:06:06.359Z</time></trkpt><trkpt lat="40.3826234" lon="15.1749968"><ele>610.0</ele><time>2026-03-29T11:06:07.363Z</time></trkpt><trkpt lat="40.3824944" lon="15.1751082"><ele>610.0</ele><time>2026-03-29T11:06:08.369Z</time></trkpt><trkpt lat="40.3823683" lon="15.1752324"><ele>610.0</ele><time>2026-03-29T11:06:09.384Z</time></trkpt><trkpt lat="40.3822442" lon="15.1753606"><ele>613.3333333333334</ele><time>2026-03-29T11:06:10.384Z</time></trkpt><trkpt lat="40.3821204" lon="15.1754837"><ele>616.6666666666666</ele><time>2026-03-29T11:06:11.367Z</time></trkpt><trkpt lat="40.3819862" lon="15.1755981"><ele>620.0</ele><time>2026-03-29T11:06:12.368Z</time></trkpt><trkpt lat="40.3818498" lon="15.175696"><ele>620.0</ele><time>2026-03-29T11:06:13.378Z</time></trkpt><trkpt lat="40.381718" lon="15.1757829"><ele>620.0</ele><time>2026-03-29T11:06:14.376Z</time></trkpt><trkpt lat="40.3815932" lon="15.1758762"><ele>620.0</ele><time>2026-03-29T11:06:15.354Z</time></trkpt><trkpt lat="40.3814709" lon="15.1759756"><ele>620.0</ele><time>2026-03-29T11:06:16.361Z</time></trkpt><trkpt lat="40.381349" lon="15.1760861"><ele>622.6666666666666</ele><time>2026-03-29T11:06:17.386Z</time></trkpt><trkpt lat="40.3812395" lon="15.1762116"><ele>625.3333333333334</ele><time>2026-03-29T11:06:18.369Z</time></trkpt><trkpt lat="40.3811297" lon="15.1763637"><ele>628.0</ele><time>2026-03-29T11:06:19.406Z</time></trkpt><trkpt lat="40.3810154" lon="15.1765218"><ele>628.0</ele><time>2026-03-29T11:06:20.521Z</time></trkpt><trkpt lat="40.3808231" lon="15.1767314"><ele>628.0</ele><time>2026-03-29T11:06:22.384Z</time></trkpt><trkpt lat="40.3807129" lon="15.1768142"><ele>628.0</ele><time>2026-03-29T11:06:23.373Z</time></trkpt><trkpt lat="40.3805923" lon="15.1768701"><ele>609.6666666666667</ele><time>2026-03-29T11:06:24.35Z</time></trkpt><trkpt lat="40.3804587" lon="15.1769293"><ele>591.3333333333334</ele><time>2026-03-29T11:06:25.386Z</time></trkpt><trkpt lat="40.3803222" lon="15.1769994"><ele>573.0</ele><time>2026-03-29T11:06:26.356Z</time></trkpt><trkpt lat="40.3801813" lon="15.1771241"><ele>573.0</ele><time>2026-03-29T11:06:27.358Z</time></trkpt><trkpt lat="40.380044" lon="15.1772599"><ele>573.0</ele><time>2026-03-29T11:06:28.366Z</time></trkpt><trkpt lat="40.3799161" lon="15.1774068"><ele>573.0</ele><time>2026-03-29T11:06:29.38Z</time></trkpt><trkpt lat="40.3797915" lon="15.1775419"><ele>576.5</ele><time>2026-03-29T11:06:30.393Z</time></trkpt><trkpt lat="40.3796737" lon="15.1776493"><ele>580.0</ele><time>2026-03-29T11:06:31.349Z</time></trkpt><trkpt lat="40.3795578" lon="15.1777572"><ele>583.5</ele><time>2026-03-29T11:06:32.358Z</time></trkpt><trkpt lat="40.3794533" lon="15.1778419"><ele>587.0</ele><time>2026-03-29T11:06:33.286Z</time></trkpt><trkpt lat="40.37934" lon="15.1779097"><ele>587.0</ele><time>2026-03-29T11:06:34.282Z</time></trkpt><trkpt lat="40.3792161" lon="15.1779464"><ele>587.0</ele><time>2026-03-29T11:06:35.289Z</time></trkpt><trkpt lat="40.3790897" lon="15.1779696"><ele>587.0</ele><time>2026-03-29T11:06:36.29Z</time></trkpt><trkpt lat="40.3789757" lon="15.1779956"><ele>587.0</ele><time>2026-03-29T11:06:37.278Z</time></trkpt><trkpt lat="40.3788766" lon="15.1780325"><ele>586.8333333333333</ele><time>2026-03-29T11:06:38.302Z</time></trkpt><trkpt lat="40.3787927" lon="15.1780832"><ele>586.6666666666666</ele><time>2026-03-29T11:06:39.301Z</time></trkpt><trkpt lat="40.3787261" lon="15.178148"><ele>586.5</ele><time>2026-03-29T11:06:40.314Z</time></trkpt><trkpt lat="40.3786762" lon="15.1782353"><ele>586.3333333333334</ele><time>2026-03-29T11:06:41.352Z</time></trkpt><trkpt lat="40.3786409" lon="15.1783318"><ele>586.1666666666667</ele><time>2026-03-29T11:06:42.296Z</time></trkpt><trkpt lat="40.3786127" lon="15.1784488"><ele>586.0</ele><time>2026-03-29T11:06:43.307Z</time></trkpt><trkpt lat="40.378586" lon="15.1785794"><ele>586.0</ele><time>2026-03-29T11:06:44.326Z</time></trkpt><trkpt lat="40.3785555" lon="15.1787183"><ele>586.0</ele><time>2026-03-29T11:06:45.297Z</time></trkpt><trkpt lat="40.3785102" lon="15.1788709"><ele>586.0</ele><time>2026-03-29T11:06:46.293Z</time></trkpt><trkpt lat="40.3784523" lon="15.179033"><ele>586.0</ele><time>2026-03-29T11:06:47.307Z</time></trkpt><trkpt lat="40.3783915" lon="15.1791743"><ele>592.75</ele><time>2026-03-29T11:06:48.284Z</time></trkpt><trkpt lat="40.3783218" lon="15.1793089"><ele>599.5</ele><time>2026-03-29T11:06:49.284Z</time></trkpt><trkpt lat="40.3782395" lon="15.1794482"><ele>606.25</ele><time>2026-03-29T11:06:50.299Z</time></trkpt><trkpt lat="40.3781488" lon="15.1795756"><ele>613.0</ele><time>2026-03-29T11:06:51.271Z</time></trkpt><trkpt lat="40.3780464" lon="15.1796955"><ele>611.0</ele><time>2026-03-29T11:06:52.303Z</time></trkpt><trkpt lat="40.3779389" lon="15.1798115"><ele>609.0</ele><time>2026-03-29T11:06:53.292Z</time></trkpt><trkpt lat="40.3778184" lon="15.1799303"><ele>607.0</ele><time>2026-03-29T11:06:54.288Z</time></trkpt><trkpt lat="40.3776907" lon="15.1800486"><ele>605.0</ele><time>2026-03-29T11:06:55.302Z</time></trkpt><trkpt lat="40.3775709" lon="15.1801519"><ele>605.0</ele><time>2026-03-29T11:06:56.304Z</time></trkpt><trkpt lat="40.3774568" lon="15.180253"><ele>605.0</ele><time>2026-03-29T11:06:57.319Z</time></trkpt><trkpt lat="40.3773588" lon="15.1803481"><ele>605.0</ele><time>2026-03-29T11:06:58.288Z</time></trkpt><trkpt lat="40.3772684" lon="15.180436"><ele>605.0</ele><time>2026-03-29T11:06:59.287Z</time></trkpt><trkpt lat="40.3771801" lon="15.1805045"><ele>602.6</ele><time>2026-03-29T11:07:00.285Z</time></trkpt><trkpt lat="40.3770923" lon="15.1805546"><ele>600.2</ele><time>2026-03-29T11:07:01.294Z</time></trkpt><trkpt lat="40.3770034" lon="15.1805707"><ele>597.8</ele><time>2026-03-29T11:07:02.297Z</time></trkpt><trkpt lat="40.3769151" lon="15.1805519"><ele>595.4</ele><time>2026-03-29T11:07:03.306Z</time></trkpt><trkpt lat="40.3768271" lon="15.1805003"><ele>593.0</ele><time>2026-03-29T11:07:04.309Z</time></trkpt><trkpt lat="40.3767356" lon="15.180422"><ele>593.0</ele><time>2026-03-29T11:07:05.292Z</time></trkpt><trkpt lat="40.3766425" lon="15.1803352"><ele>593.0</ele><time>2026-03-29T11:07:06.288Z</time></trkpt><trkpt lat="40.3765462" lon="15.1802632"><ele>593.0</ele><time>2026-03-29T11:07:07.294Z</time></trkpt><trkpt lat="40.3764509" lon="15.1802276"><ele>593.0</ele><time>2026-03-29T11:07:08.295Z</time></trkpt><trkpt lat="40.3763521" lon="15.1802249"><ele>593.0</ele><time>2026-03-29T11:07:09.299Z</time></trkpt><trkpt lat="40.3762428" lon="15.1802539"><ele>593.25</ele><time>2026-03-29T11:07:10.297Z</time></trkpt><trkpt lat="40.3761167" lon="15.1803104"><ele>593.5</ele><time>2026-03-29T11:07:11.29Z</time></trkpt><trkpt lat="40.3759791" lon="15.180387"><ele>593.75</ele><time>2026-03-29T11:07:12.301Z</time></trkpt><trkpt lat="40.3758551" lon="15.180475"><ele>594.0</ele><time>2026-03-29T11:07:13.303Z</time></trkpt><trkpt lat="40.3757426" lon="15.1805797"><ele>590.25</ele><time>2026-03-29T11:07:14.303Z</time></trkpt><trkpt lat="40.3756413" lon="15.1807071"><ele>586.5</ele><time>2026-03-29T11:07:15.331Z</time></trkpt><trkpt lat="40.3755598" lon="15.1808526"><ele>582.75</ele><time>2026-03-29T11:07:16.3Z</time></trkpt><trkpt lat="40.3754845" lon="15.1810395"><ele>579.0</ele><time>2026-03-29T11:07:17.299Z</time></trkpt><trkpt lat="40.3754106" lon="15.1812614"><ele>579.0</ele><time>2026-03-29T11:07:18.314Z</time></trkpt><trkpt lat="40.3753438" lon="15.1814713"><ele>579.0</ele><time>2026-03-29T11:07:19.29Z</time></trkpt><trkpt lat="40.3752774" lon="15.1816733"><ele>579.0</ele><time>2026-03-29T11:07:20.286Z</time></trkpt><trkpt lat="40.3752121" lon="15.1818642"><ele>584.5</ele><time>2026-03-29T11:07:21.29Z</time></trkpt><trkpt lat="40.3751453" lon="15.1820588"><ele>590.0</ele><time>2026-03-29T11:07:22.401Z</time></trkpt><trkpt lat="40.3750879" lon="15.1822006"><ele>595.5</ele><time>2026-03-29T11:07:23.313Z</time></trkpt><trkpt lat="40.3750241" lon="15.1823187"><ele>601.0</ele><time>2026-03-29T11:07:24.299Z</time></trkpt><trkpt lat="40.3749584" lon="15.1824071"><ele>603.0</ele><time>2026-03-29T11:07:25.282Z</time></trkpt><trkpt lat="40.3748848" lon="15.1824817"><ele>605.0</ele><time>2026-03-29T11:07:26.298Z</time></trkpt><trkpt lat="40.3748112" lon="15.1825286"><ele>607.0</ele><time>2026-03-29T11:07:27.285Z</time></trkpt><trkpt lat="40.3747259" lon="15.1825467"><ele>609.0</ele><time>2026-03-29T11:07:28.283Z</time></trkpt><trkpt lat="40.3746247" lon="15.1825346"><ele>611.0</ele><time>2026-03-29T11:07:29.315Z</time></trkpt><trkpt lat="40.3745118" lon="15.1824897"><ele>611.0</ele><time>2026-03-29T11:07:30.284Z</time></trkpt><trkpt lat="40.3743745" lon="15.1824134"><ele>611.0</ele><time>2026-03-29T11:07:31.306Z</time></trkpt><trkpt lat="40.3742296" lon="15.1823427"><ele>611.0</ele><time>2026-03-29T11:07:32.295Z</time></trkpt><trkpt lat="40.374069" lon="15.1822782"><ele>602.75</ele><time>2026-03-29T11:07:33.366Z</time></trkpt><trkpt lat="40.3739353" lon="15.1822309"><ele>594.5</ele><time>2026-03-29T11:07:34.346Z</time></trkpt><trkpt lat="40.3738055" lon="15.1822189"><ele>586.25</ele><time>2026-03-29T11:07:35.372Z</time></trkpt><trkpt lat="40.3736917" lon="15.1822454"><ele>578.0</ele><time>2026-03-29T11:07:36.381Z</time></trkpt><trkpt lat="40.3735598" lon="15.1822951"><ele>587.3333333333333</ele><time>2026-03-29T11:07:37.351Z</time></trkpt><trkpt lat="40.3734158" lon="15.1823727"><ele>596.6666666666666</ele><time>2026-03-29T11:07:38.364Z</time></trkpt><trkpt lat="40.3732646" lon="15.1824836"><ele>606.0</ele><time>2026-03-29T11:07:39.391Z</time></trkpt><trkpt lat="40.3731126" lon="15.1826187"><ele>594.6666666666666</ele><time>2026-03-29T11:07:40.393Z</time></trkpt><trkpt lat="40.3729466" lon="15.1827862"><ele>583.3333333333333</ele><time>2026-03-29T11:07:41.417Z</time></trkpt><trkpt lat="40.3727915" lon="15.1829533"><ele>572.0</ele><time>2026-03-29T11:07:42.395Z</time></trkpt><trkpt lat="40.3726447" lon="15.1831171"><ele>583.6666666666666</ele><time>2026-03-29T11:07:43.41Z</time></trkpt><trkpt lat="40.3725079" lon="15.1832742"><ele>595.3333333333334</ele><time>2026-03-29T11:07:44.423Z</time></trkpt><trkpt lat="40.3723836" lon="15.1834278"><ele>607.0</ele><time>2026-03-29T11:07:45.389Z</time></trkpt><trkpt lat="40.3722592" lon="15.1835987"><ele>601.3333333333334</ele><time>2026-03-29T11:07:46.402Z</time></trkpt><trkpt lat="40.3721408" lon="15.1837726"><ele>595.6666666666666</ele><time>2026-03-29T11:07:47.394Z</time></trkpt><trkpt lat="40.3720243" lon="15.1839592"><ele>590.0</ele><time>2026-03-29T11:07:48.41Z</time></trkpt><trkpt lat="40.3719188" lon="15.1841451"><ele>590.0</ele><time>2026-03-29T11:07:49.38Z</time></trkpt><trkpt lat="40.3718118" lon="15.184343"><ele>590.0</ele><time>2026-03-29T11:07:50.393Z</time></trkpt><trkpt lat="40.3717057" lon="15.1845483"><ele>590.0</ele><time>2026-03-29T11:07:51.418Z</time></trkpt><trkpt lat="40.3716139" lon="15.1847344"><ele>599.0</ele><time>2026-03-29T11:07:52.319Z</time></trkpt><trkpt lat="40.3715095" lon="15.1849524"><ele>608.0</ele><time>2026-03-29T11:07:53.337Z</time></trkpt><trkpt lat="40.3714086" lon="15.185169"><ele>617.0</ele><time>2026-03-29T11:07:54.316Z</time></trkpt><trkpt lat="40.3713075" lon="15.1853939"><ele>605.3333333333333</ele><time>2026-03-29T11:07:55.308Z</time></trkpt><trkpt lat="40.3712099" lon="15.1856293"><ele>593.6666666666666</ele><time>2026-03-29T11:07:56.305Z</time></trkpt><trkpt lat="40.3711127" lon="15.1858757"><ele>582.0</ele><time>2026-03-29T11:07:57.322Z</time></trkpt><trkpt lat="40.3710196" lon="15.1861088"><ele>582.0</ele><time>2026-03-29T11:07:58.308Z</time></trkpt><trkpt lat="40.3709224" lon="15.1863392"><ele>582.0</ele><time>2026-03-29T11:07:59.307Z</time></trkpt><trkpt lat="40.3708211" lon="15.1865812"><ele>582.0</ele><time>2026-03-29T11:08:00.337Z</time></trkpt><trkpt lat="40.3707224" lon="15.1868143"><ele>580.0</ele><time>2026-03-29T11:08:01.326Z</time></trkpt><trkpt lat="40.3706288" lon="15.1870356"><ele>578.0</ele><time>2026-03-29T11:08:02.297Z</time></trkpt><trkpt lat="40.3705344" lon="15.1872578"><ele>576.0</ele><time>2026-03-29T11:08:03.32Z</time></trkpt><trkpt lat="40.3704459" lon="15.1874607"><ele>576.0</ele><time>2026-03-29T11:08:04.316Z</time></trkpt><trkpt lat="40.3703586" lon="15.1876571"><ele>576.0</ele><time>2026-03-29T11:08:05.309Z</time></trkpt><trkpt lat="40.3702695" lon="15.1878531"><ele>576.0</ele><time>2026-03-29T11:08:06.305Z</time></trkpt><trkpt lat="40.3701796" lon="15.1880582"><ele>583.3333333333334</ele><time>2026-03-29T11:08:07.33Z</time></trkpt><trkpt lat="40.3700888" lon="15.1882816"><ele>590.6666666666667</ele><time>2026-03-29T11:08:08.417Z</time></trkpt><trkpt lat="40.3700061" lon="15.1884809"><ele>598.0</ele><time>2026-03-29T11:08:09.394Z</time></trkpt><trkpt lat="40.3699185" lon="15.1886988"><ele>598.0</ele><time>2026-03-29T11:08:10.465Z</time></trkpt><trkpt lat="40.3698495" lon="15.1888745"><ele>598.0</ele><time>2026-03-29T11:08:11.378Z</time></trkpt><trkpt lat="40.3697778" lon="15.1890442"><ele>598.0</ele><time>2026-03-29T11:08:12.316Z</time></trkpt><trkpt lat="40.3696888" lon="15.1892195"><ele>590.3333333333334</ele><time>2026-03-29T11:08:13.34Z</time></trkpt><trkpt lat="40.3695813" lon="15.1893923"><ele>582.6666666666666</ele><time>2026-03-29T11:08:14.395Z</time></trkpt><trkpt lat="40.3694794" lon="15.1895419"><ele>575.0</ele><time>2026-03-29T11:08:15.381Z</time></trkpt><trkpt lat="40.3693706" lon="15.1896918"><ele>575.0</ele><time>2026-03-29T11:08:16.416Z</time></trkpt><trkpt lat="40.3692643" lon="15.1898174"><ele>575.0</ele><time>2026-03-29T11:08:17.398Z</time></trkpt><trkpt lat="40.3691621" lon="15.1899207"><ele>575.0</ele><time>2026-03-29T11:08:18.33Z</time></trkpt><trkpt lat="40.3690504" lon="15.1900226"><ele>575.0</ele><time>2026-03-29T11:08:19.34Z</time></trkpt><trkpt lat="40.3689444" lon="15.1901205"><ele>575.5</ele><time>2026-03-29T11:08:20.339Z</time></trkpt><trkpt lat="40.3688481" lon="15.1902201"><ele>576.0</ele><time>2026-03-29T11:08:21.341Z</time></trkpt><trkpt lat="40.368769" lon="15.1903331"><ele>576.5</ele><time>2026-03-29T11:08:22.303Z</time></trkpt><trkpt lat="40.3686928" lon="15.1904791"><ele>577.0</ele><time>2026-03-29T11:08:23.325Z</time></trkpt><trkpt lat="40.3686273" lon="15.1906475"><ele>585.5</ele><time>2026-03-29T11:08:24.318Z</time></trkpt><trkpt lat="40.3685402" lon="15.1908507"><ele>594.0</ele><time>2026-03-29T11:08:25.424Z</time></trkpt><trkpt lat="40.3683336" lon="15.1912124"><ele>594.0</ele><time>2026-03-29T11:08:27.299Z</time></trkpt><trkpt lat="40.3682046" lon="15.1914224"><ele>594.0</ele><time>2026-03-29T11:08:28.299Z</time></trkpt><trkpt lat="40.3680748" lon="15.1916431"><ele>594.0</ele><time>2026-03-29T11:08:29.3Z</time></trkpt><trkpt lat="40.3679517" lon="15.1918517"><ele>597.0</ele><time>2026-03-29T11:08:30.306Z</time></trkpt><trkpt lat="40.3678345" lon="15.1920482"><ele>600.0</ele><time>2026-03-29T11:08:31.304Z</time></trkpt><trkpt lat="40.3677297" lon="15.1922278"><ele>603.0</ele><time>2026-03-29T11:08:32.27Z</time></trkpt><trkpt lat="40.3676215" lon="15.1924135"><ele>603.0</ele><time>2026-03-29T11:08:33.325Z</time></trkpt><trkpt lat="40.3675272" lon="15.1925644"><ele>603.0</ele><time>2026-03-29T11:08:34.27Z</time></trkpt><trkpt lat="40.3674272" lon="15.1927051"><ele>603.0</ele><time>2026-03-29T11:08:35.277Z</time></trkpt><trkpt lat="40.3673284" lon="15.1928227"><ele>603.0</ele><time>2026-03-29T11:08:36.266Z</time></trkpt><trkpt lat="40.3672311" lon="15.1929282"><ele>598.4</ele><time>2026-03-29T11:08:37.287Z</time></trkpt><trkpt lat="40.3671396" lon="15.1930179"><ele>593.8</ele><time>2026-03-29T11:08:38.305Z</time></trkpt><trkpt lat="40.3670664" lon="15.1931059"><ele>589.2</ele><time>2026-03-29T11:08:39.25Z</time></trkpt><trkpt lat="40.3670059" lon="15.1932131"><ele>584.6</ele><time>2026-03-29T11:08:40.267Z</time></trkpt><trkpt lat="40.3669716" lon="15.1933485"><ele>580.0</ele><time>2026-03-29T11:08:41.265Z</time></trkpt><trkpt lat="40.3669602" lon="15.1935071"><ele>580.0</ele><time>2026-03-29T11:08:42.295Z</time></trkpt><trkpt lat="40.3669526" lon="15.1936595"><ele>580.0</ele><time>2026-03-29T11:08:43.29Z</time></trkpt><trkpt lat="40.3669425" lon="15.193798"><ele>580.0</ele><time>2026-03-29T11:08:44.273Z</time></trkpt><trkpt lat="40.3669269" lon="15.1939419"><ele>580.0</ele><time>2026-03-29T11:08:45.284Z</time></trkpt><trkpt lat="40.3669103" lon="15.1940825"><ele>580.0</ele><time>2026-03-29T11:08:46.265Z</time></trkpt><trkpt lat="40.3668876" lon="15.1942259"><ele>584.75</ele><time>2026-03-29T11:08:47.269Z</time></trkpt><trkpt lat="40.3668546" lon="15.1943678"><ele>589.5</ele><time>2026-03-29T11:08:48.265Z</time></trkpt><trkpt lat="40.3668067" lon="15.1945094"><ele>594.25</ele><time>2026-03-29T11:08:49.254Z</time></trkpt><trkpt lat="40.3667338" lon="15.1946583"><ele>599.0</ele><time>2026-03-29T11:08:50.351Z</time></trkpt><trkpt lat="40.3666562" lon="15.1947775"><ele>595.75</ele><time>2026-03-29T11:08:51.279Z</time></trkpt><trkpt lat="40.3665663" lon="15.1949087"><ele>592.5</ele><time>2026-03-29T11:08:52.269Z</time></trkpt><trkpt lat="40.3664803" lon="15.1950504"><ele>589.25</ele><time>2026-03-29T11:08:53.275Z</time></trkpt><trkpt lat="40.3663868" lon="15.1951896"><ele>586.0</ele><time>2026-03-29T11:08:54.276Z</time></trkpt><trkpt lat="40.3662837" lon="15.195317"><ele>586.0</ele><time>2026-03-29T11:08:55.264Z</time></trkpt><trkpt lat="40.3661764" lon="15.1954284"><ele>586.0</ele><time>2026-03-29T11:08:56.268Z</time></trkpt><trkpt lat="40.3660664" lon="15.1955206"><ele>586.0</ele><time>2026-03-29T11:08:57.269Z</time></trkpt><trkpt lat="40.3659493" lon="15.195592"><ele>586.0</ele><time>2026-03-29T11:08:58.259Z</time></trkpt><trkpt lat="40.3658224" lon="15.1956402"><ele>586.0</ele><time>2026-03-29T11:08:59.268Z</time></trkpt><trkpt lat="40.3656885" lon="15.1956621"><ele>586.0</ele><time>2026-03-29T11:09:00.278Z</time></trkpt><trkpt lat="40.3655437" lon="15.1956616"><ele>586.0</ele><time>2026-03-29T11:09:01.247Z</time></trkpt><trkpt lat="40.365373" lon="15.1956544"><ele>585.5</ele><time>2026-03-29T11:09:02.296Z</time></trkpt><trkpt lat="40.3652173" lon="15.1956535"><ele>585.0</ele><time>2026-03-29T11:09:03.276Z</time></trkpt><trkpt lat="40.3650714" lon="15.1956604"><ele>584.5</ele><time>2026-03-29T11:09:04.261Z</time></trkpt><trkpt lat="40.3649381" lon="15.1956661"><ele>584.0</ele><time>2026-03-29T11:09:05.275Z</time></trkpt><trkpt lat="40.3648218" lon="15.1956621"><ele>584.0</ele><time>2026-03-29T11:09:06.317Z</time></trkpt><trkpt lat="40.3647212" lon="15.1956575"><ele>584.0</ele><time>2026-03-29T11:09:07.268Z</time></trkpt><trkpt lat="40.364621" lon="15.1956465"><ele>584.0</ele><time>2026-03-29T11:09:08.289Z</time></trkpt><trkpt lat="40.3645339" lon="15.1956195"><ele>584.0</ele><time>2026-03-29T11:09:09.271Z</time></trkpt><trkpt lat="40.3644519" lon="15.1955705"><ele>584.0</ele><time>2026-03-29T11:09:10.264Z</time></trkpt><trkpt lat="40.3643767" lon="15.1954915"><ele>585.5</ele><time>2026-03-29T11:09:11.263Z</time></trkpt><trkpt lat="40.3643171" lon="15.1954133"><ele>587.0</ele><time>2026-03-29T11:09:12.27Z</time></trkpt><trkpt lat="40.3642585" lon="15.1953225"><ele>588.5</ele><time>2026-03-29T11:09:14.281Z</time></trkpt><trkpt lat="40.3641992" lon="15.1952298"><ele>590.0</ele><time>2026-03-29T11:09:17.253Z</time></trkpt><trkpt lat="40.3641546" lon="15.1950942"><ele>591.5</ele><time>2026-03-29T11:09:19.292Z</time></trkpt><trkpt lat="40.3641419" lon="15.1950081"><ele>593.0</ele><time>2026-03-29T11:09:20.316Z</time></trkpt><trkpt lat="40.364111" lon="15.1948615"><ele>591.1666666666666</ele><time>2026-03-29T11:09:22.319Z</time></trkpt><trkpt lat="40.3640602" lon="15.1947649"><ele>589.3333333333333</ele><time>2026-03-29T11:09:24.427Z</time></trkpt><trkpt lat="40.3639925" lon="15.1947276"><ele>587.5</ele><time>2026-03-29T11:09:26.306Z</time></trkpt><trkpt lat="40.3639259" lon="15.1947346"><ele>585.6666666666666</ele><time>2026-03-29T11:09:28.324Z</time></trkpt><trkpt lat="40.3638613" lon="15.1948046"><ele>583.8333333333334</ele><time>2026-03-29T11:09:30.328Z</time></trkpt><trkpt lat="40.3637925" lon="15.1949467"><ele>582.0</ele><time>2026-03-29T11:09:32.296Z</time></trkpt><trkpt lat="40.3637568" lon="15.1950478"><ele>579.25</ele><time>2026-03-29T11:09:33.3Z</time></trkpt><trkpt lat="40.3637164" lon="15.1951627"><ele>576.5</ele><time>2026-03-29T11:09:34.326Z</time></trkpt><trkpt lat="40.3636696" lon="15.1952998"><ele>573.75</ele><time>2026-03-29T11:09:35.317Z</time></trkpt><trkpt lat="40.3636156" lon="15.1954609"><ele>571.0</ele><time>2026-03-29T11:09:36.323Z</time></trkpt><trkpt lat="40.3635498" lon="15.1956352"><ele>577.0</ele><time>2026-03-29T11:09:37.333Z</time></trkpt><trkpt lat="40.363479" lon="15.1958135"><ele>583.0</ele><time>2026-03-29T11:09:38.348Z</time></trkpt><trkpt lat="40.3633991" lon="15.1960044"><ele>589.0</ele><time>2026-03-29T11:09:39.326Z</time></trkpt><trkpt lat="40.3633132" lon="15.1962145"><ele>589.0</ele><time>2026-03-29T11:09:40.312Z</time></trkpt><trkpt lat="40.3632229" lon="15.1964216"><ele>589.0</ele><time>2026-03-29T11:09:41.311Z</time></trkpt><trkpt lat="40.3631322" lon="15.196615"><ele>589.0</ele><time>2026-03-29T11:09:42.32Z</time></trkpt><trkpt lat="40.3630335" lon="15.1968026"><ele>583.3333333333334</ele><time>2026-03-29T11:09:43.299Z</time></trkpt><trkpt lat="40.3629346" lon="15.1969848"><ele>577.6666666666666</ele><time>2026-03-29T11:09:44.291Z</time></trkpt><trkpt lat="40.3628437" lon="15.1971499"><ele>572.0</ele><time>2026-03-29T11:09:45.272Z</time></trkpt><trkpt lat="40.3627459" lon="15.1973229"><ele>579.5</ele><time>2026-03-29T11:09:46.337Z</time></trkpt><trkpt lat="40.3626608" lon="15.1974736"><ele>587.0</ele><time>2026-03-29T11:09:47.271Z</time></trkpt><trkpt lat="40.3625695" lon="15.1976284"><ele>594.5</ele><time>2026-03-29T11:09:48.273Z</time></trkpt><trkpt lat="40.3624753" lon="15.1977801"><ele>602.0</ele><time>2026-03-29T11:09:49.276Z</time></trkpt><trkpt lat="40.3623722" lon="15.1979385"><ele>602.0</ele><time>2026-03-29T11:09:50.275Z</time></trkpt><trkpt lat="40.3622574" lon="15.1981018"><ele>602.0</ele><time>2026-03-29T11:09:51.27Z</time></trkpt><trkpt lat="40.3621487" lon="15.1982487"><ele>602.0</ele><time>2026-03-29T11:09:52.254Z</time></trkpt><trkpt lat="40.3620426" lon="15.198386"><ele>601.0</ele><time>2026-03-29T11:09:53.264Z</time></trkpt><trkpt lat="40.3619366" lon="15.1985169"><ele>600.0</ele><time>2026-03-29T11:09:54.263Z</time></trkpt><trkpt lat="40.3618325" lon="15.1986333"><ele>599.0</ele><time>2026-03-29T11:09:55.249Z</time></trkpt><trkpt lat="40.3617324" lon="15.1987419"><ele>598.0</ele><time>2026-03-29T11:09:56.281Z</time></trkpt><trkpt lat="40.3616445" lon="15.1988493"><ele>598.0</ele><time>2026-03-29T11:09:57.339Z</time></trkpt><trkpt lat="40.3615869" lon="15.1989387"><ele>598.0</ele><time>2026-03-29T11:09:58.278Z</time></trkpt><trkpt lat="40.3615461" lon="15.1990166"><ele>598.0</ele><time>2026-03-29T11:09:59.306Z</time></trkpt><trkpt lat="40.3615339" lon="15.1991455"><ele>598.0</ele><time>2026-03-29T11:10:01.315Z</time></trkpt><trkpt lat="40.3616107" lon="15.1992271"><ele>598.0</ele><time>2026-03-29T11:10:03.322Z</time></trkpt><trkpt lat="40.3616821" lon="15.1992614"><ele>598.0</ele><time>2026-03-29T11:10:04.441Z</time></trkpt><trkpt lat="40.3618187" lon="15.1993526"><ele>600.8333333333334</ele><time>2026-03-29T11:10:06.319Z</time></trkpt><trkpt lat="40.3618766" lon="15.199416"><ele>603.6666666666667</ele><time>2026-03-29T11:10:07.308Z</time></trkpt><trkpt lat="40.36192" lon="15.1995056"><ele>606.5</ele><time>2026-03-29T11:10:08.284Z</time></trkpt><trkpt lat="40.361947" lon="15.199605"><ele>609.3333333333334</ele><time>2026-03-29T11:10:09.284Z</time></trkpt><trkpt lat="40.3619548" lon="15.1997222"><ele>612.1666666666666</ele><time>2026-03-29T11:10:10.301Z</time></trkpt><trkpt lat="40.3619479" lon="15.1998632"><ele>615.0</ele><time>2026-03-29T11:10:11.33Z</time></trkpt><trkpt lat="40.3619425" lon="15.2000198"><ele>615.5</ele><time>2026-03-29T11:10:12.341Z</time></trkpt><trkpt lat="40.361938" lon="15.2001891"><ele>616.0</ele><time>2026-03-29T11:10:13.337Z</time></trkpt><trkpt lat="40.3619269" lon="15.2003545"><ele>616.5</ele><time>2026-03-29T11:10:14.364Z</time></trkpt><trkpt lat="40.3619124" lon="15.2005188"><ele>617.0</ele><time>2026-03-29T11:10:15.33Z</time></trkpt><trkpt lat="40.3618933" lon="15.2006983"><ele>619.0</ele><time>2026-03-29T11:10:16.34Z</time></trkpt><trkpt lat="40.3618625" lon="15.2008737"><ele>621.0</ele><time>2026-03-29T11:10:17.328Z</time></trkpt><trkpt lat="40.3618047" lon="15.2010531"><ele>623.0</ele><time>2026-03-29T11:10:18.329Z</time></trkpt><trkpt lat="40.3617254" lon="15.2012437"><ele>623.0</ele><time>2026-03-29T11:10:19.309Z</time></trkpt><trkpt lat="40.3616378" lon="15.2014627"><ele>623.0</ele><time>2026-03-29T11:10:20.518Z</time></trkpt><trkpt lat="40.36155" lon="15.2017767"><ele>623.0</ele><time>2026-03-29T11:10:22.314Z</time></trkpt><trkpt lat="40.3614981" lon="15.2019317"><ele>623.0</ele><time>2026-03-29T11:10:23.299Z</time></trkpt><trkpt lat="40.3614242" lon="15.2020902"><ele>623.0</ele><time>2026-03-29T11:10:24.328Z</time></trkpt><trkpt lat="40.3613381" lon="15.2022321"><ele>623.0</ele><time>2026-03-29T11:10:25.351Z</time></trkpt><trkpt lat="40.3612573" lon="15.2023633"><ele>623.0</ele><time>2026-03-29T11:10:26.325Z</time></trkpt><trkpt lat="40.3611735" lon="15.2025199"><ele>623.0</ele><time>2026-03-29T11:10:27.446Z</time></trkpt><trkpt lat="40.3610926" lon="15.2028418"><ele>623.0</ele><time>2026-03-29T11:10:29.322Z</time></trkpt><trkpt lat="40.3610824" lon="15.2030266"><ele>623.0</ele><time>2026-03-29T11:10:30.325Z</time></trkpt><trkpt lat="40.3610865" lon="15.2032059"><ele>625.6666666666666</ele><time>2026-03-29T11:10:31.347Z</time></trkpt><trkpt lat="40.361077" lon="15.2033545"><ele>628.3333333333334</ele><time>2026-03-29T11:10:32.32Z</time></trkpt><trkpt lat="40.3610348" lon="15.2035089"><ele>631.0</ele><time>2026-03-29T11:10:33.446Z</time></trkpt><trkpt lat="40.3608976" lon="15.2037369"><ele>631.0</ele><time>2026-03-29T11:10:35.295Z</time></trkpt><trkpt lat="40.3607914" lon="15.203831"><ele>631.0</ele><time>2026-03-29T11:10:36.315Z</time></trkpt><trkpt lat="40.3606707" lon="15.2038962"><ele>631.0</ele><time>2026-03-29T11:10:37.279Z</time></trkpt><trkpt lat="40.3605091" lon="15.2039584"><ele>631.0</ele><time>2026-03-29T11:10:38.381Z</time></trkpt><trkpt lat="40.3603609" lon="15.2039843"><ele>633.6666666666667</ele><time>2026-03-29T11:10:39.286Z</time></trkpt><trkpt lat="40.3601975" lon="15.2039937"><ele>636.3333333333334</ele><time>2026-03-29T11:10:40.296Z</time></trkpt><trkpt lat="40.3600415" lon="15.2040048"><ele>639.0</ele><time>2026-03-29T11:10:41.291Z</time></trkpt><trkpt lat="40.3599038" lon="15.2040255"><ele>639.0</ele><time>2026-03-29T11:10:42.266Z</time></trkpt><trkpt lat="40.3597706" lon="15.2040726"><ele>639.0</ele><time>2026-03-29T11:10:43.304Z</time></trkpt><trkpt lat="40.3596607" lon="15.2041444"><ele>639.0</ele><time>2026-03-29T11:10:44.309Z</time></trkpt><trkpt lat="40.3595766" lon="15.2042492"><ele>639.0</ele><time>2026-03-29T11:10:45.334Z</time></trkpt><trkpt lat="40.3595055" lon="15.2043784"><ele>638.5</ele><time>2026-03-29T11:10:46.328Z</time></trkpt><trkpt lat="40.3594373" lon="15.2045648"><ele>638.0</ele><time>2026-03-29T11:10:47.431Z</time></trkpt><trkpt lat="40.3593169" lon="15.2049258"><ele>638.0</ele><time>2026-03-29T11:10:49.318Z</time></trkpt><trkpt lat="40.3592315" lon="15.2050876"><ele>638.0</ele><time>2026-03-29T11:10:50.307Z</time></trkpt><trkpt lat="40.3591217" lon="15.2052414"><ele>638.0</ele><time>2026-03-29T11:10:51.41Z</time></trkpt><trkpt lat="40.3589968" lon="15.2053645"><ele>639.6666666666666</ele><time>2026-03-29T11:10:52.338Z</time></trkpt><trkpt lat="40.3588452" lon="15.2055061"><ele>641.3333333333334</ele><time>2026-03-29T11:10:53.315Z</time></trkpt><trkpt lat="40.3586828" lon="15.2056601"><ele>643.0</ele><time>2026-03-29T11:10:54.279Z</time></trkpt><trkpt lat="40.3585152" lon="15.2058253"><ele>643.0</ele><time>2026-03-29T11:10:55.298Z</time></trkpt><trkpt lat="40.3583524" lon="15.2059685"><ele>643.0</ele><time>2026-03-29T11:10:56.318Z</time></trkpt><trkpt lat="40.3581984" lon="15.2060964"><ele>643.0</ele><time>2026-03-29T11:10:57.319Z</time></trkpt><trkpt lat="40.3580578" lon="15.2062473"><ele>645.0</ele><time>2026-03-29T11:10:58.376Z</time></trkpt><trkpt lat="40.3579385" lon="15.2063754"><ele>647.0</ele><time>2026-03-29T11:10:59.327Z</time></trkpt><trkpt lat="40.3578207" lon="15.2064852"><ele>649.0</ele><time>2026-03-29T11:11:00.326Z</time></trkpt><trkpt lat="40.3576924" lon="15.206568"><ele>651.0</ele><time>2026-03-29T11:11:01.307Z</time></trkpt><trkpt lat="40.3575312" lon="15.2066393"><ele>651.0</ele><time>2026-03-29T11:11:02.341Z</time></trkpt><trkpt lat="40.357371" lon="15.2066952"><ele>651.0</ele><time>2026-03-29T11:11:03.339Z</time></trkpt><trkpt lat="40.3572077" lon="15.206764"><ele>651.0</ele><time>2026-03-29T11:11:04.339Z</time></trkpt><trkpt lat="40.3570406" lon="15.2068581"><ele>648.3333333333334</ele><time>2026-03-29T11:11:05.339Z</time></trkpt><trkpt lat="40.3568663" lon="15.2069752"><ele>645.6666666666667</ele><time>2026-03-29T11:11:06.363Z</time></trkpt><trkpt lat="40.3567039" lon="15.2071013"><ele>643.0</ele><time>2026-03-29T11:11:07.431Z</time></trkpt><trkpt lat="40.3565796" lon="15.2072106"><ele>643.0</ele><time>2026-03-29T11:11:08.348Z</time></trkpt><trkpt lat="40.3564464" lon="15.2073214"><ele>643.0</ele><time>2026-03-29T11:11:09.447Z</time></trkpt><trkpt lat="40.3562091" lon="15.2074291"><ele>643.0</ele><time>2026-03-29T11:11:11.344Z</time></trkpt><trkpt lat="40.3560641" lon="15.2074411"><ele>647.75</ele><time>2026-03-29T11:11:12.341Z</time></trkpt><trkpt lat="40.355927" lon="15.2074324"><ele>652.5</ele><time>2026-03-29T11:11:13.327Z</time></trkpt><trkpt lat="40.3557925" lon="15.2074168"><ele>657.25</ele><time>2026-03-29T11:11:14.332Z</time></trkpt><trkpt lat="40.3556708" lon="15.2074138"><ele>662.0</ele><time>2026-03-29T11:11:15.351Z</time></trkpt><trkpt lat="40.355568" lon="15.2074347"><ele>656.2</ele><time>2026-03-29T11:11:16.334Z</time></trkpt><trkpt lat="40.3554679" lon="15.2074681"><ele>650.4000000000001</ele><time>2026-03-29T11:11:17.338Z</time></trkpt><trkpt lat="40.3553798" lon="15.2075196"><ele>644.5999999999999</ele><time>2026-03-29T11:11:18.318Z</time></trkpt><trkpt lat="40.3553058" lon="15.2075878"><ele>638.8</ele><time>2026-03-29T11:11:19.355Z</time></trkpt><trkpt lat="40.3552542" lon="15.2076724"><ele>633.0</ele><time>2026-03-29T11:11:20.482Z</time></trkpt><trkpt lat="40.3552209" lon="15.2078738"><ele>638.6666666666666</ele><time>2026-03-29T11:11:22.46Z</time></trkpt><trkpt lat="40.3552382" lon="15.208176"><ele>644.3333333333333</ele><time>2026-03-29T11:11:24.345Z</time></trkpt><trkpt lat="40.3552473" lon="15.2083737"><ele>650.0</ele><time>2026-03-29T11:11:25.338Z</time></trkpt><trkpt lat="40.3552463" lon="15.2085571"><ele>650.0</ele><time>2026-03-29T11:11:26.318Z</time></trkpt><trkpt lat="40.3552369" lon="15.2087552"><ele>650.0</ele><time>2026-03-29T11:11:27.335Z</time></trkpt><trkpt lat="40.3552221" lon="15.2089577"><ele>650.0</ele><time>2026-03-29T11:11:28.319Z</time></trkpt><trkpt lat="40.3552156" lon="15.2091611"><ele>649.0</ele><time>2026-03-29T11:11:29.345Z</time></trkpt><trkpt lat="40.3552268" lon="15.2093588"><ele>648.0</ele><time>2026-03-29T11:11:30.35Z</time></trkpt><trkpt lat="40.3552452" lon="15.2095622"><ele>647.0</ele><time>2026-03-29T11:11:31.358Z</time></trkpt><trkpt lat="40.3552542" lon="15.2097592"><ele>648.0</ele><time>2026-03-29T11:11:32.307Z</time></trkpt><trkpt lat="40.3552479" lon="15.2099789"><ele>649.0</ele><time>2026-03-29T11:11:33.318Z</time></trkpt><trkpt lat="40.3552214" lon="15.2101883"><ele>650.0</ele><time>2026-03-29T11:11:34.334Z</time></trkpt><trkpt lat="40.3551739" lon="15.2103882"><ele>650.0</ele><time>2026-03-29T11:11:35.314Z</time></trkpt><trkpt lat="40.355095" lon="15.2106132"><ele>650.0</ele><time>2026-03-29T11:11:36.347Z</time></trkpt><trkpt lat="40.35499" lon="15.2108682"><ele>650.0</ele><time>2026-03-29T11:11:37.433Z</time></trkpt><trkpt lat="40.3548229" lon="15.2112776"><ele>653.3333333333333</ele><time>2026-03-29T11:11:39.326Z</time></trkpt><trkpt lat="40.354748" lon="15.2114617"><ele>656.6666666666666</ele><time>2026-03-29T11:11:40.325Z</time></trkpt><trkpt lat="40.354676" lon="15.2116466"><ele>660.0</ele><time>2026-03-29T11:11:41.331Z</time></trkpt><trkpt lat="40.3546139" lon="15.2118429"><ele>653.6666666666666</ele><time>2026-03-29T11:11:42.335Z</time></trkpt><trkpt lat="40.3545652" lon="15.2120572"><ele>647.3333333333333</ele><time>2026-03-29T11:11:43.351Z</time></trkpt><trkpt lat="40.3545265" lon="15.2122831"><ele>641.0</ele><time>2026-03-29T11:11:44.334Z</time></trkpt><trkpt lat="40.3544922" lon="15.2125236"><ele>641.0</ele><time>2026-03-29T11:11:45.337Z</time></trkpt><trkpt lat="40.3544557" lon="15.21275"><ele>641.0</ele><time>2026-03-29T11:11:46.324Z</time></trkpt><trkpt lat="40.3544036" lon="15.212959"><ele>641.0</ele><time>2026-03-29T11:11:47.349Z</time></trkpt><trkpt lat="40.3543486" lon="15.2131473"><ele>645.0</ele><time>2026-03-29T11:11:48.332Z</time></trkpt><trkpt lat="40.3542938" lon="15.2133416"><ele>649.0</ele><time>2026-03-29T11:11:49.352Z</time></trkpt><trkpt lat="40.3542455" lon="15.2135312"><ele>653.0</ele><time>2026-03-29T11:11:50.363Z</time></trkpt><trkpt lat="40.354206" lon="15.213716"><ele>653.0</ele><time>2026-03-29T11:11:51.331Z</time></trkpt><trkpt lat="40.3541799" lon="15.2138988"><ele>653.0</ele><time>2026-03-29T11:11:52.325Z</time></trkpt><trkpt lat="40.3541641" lon="15.2140819"><ele>653.0</ele><time>2026-03-29T11:11:53.332Z</time></trkpt><trkpt lat="40.3541525" lon="15.2142723"><ele>653.0</ele><time>2026-03-29T11:11:54.447Z</time></trkpt><trkpt lat="40.3541372" lon="15.2145792"><ele>654.75</ele><time>2026-03-29T11:11:56.349Z</time></trkpt><trkpt lat="40.3541377" lon="15.2147482"><ele>656.5</ele><time>2026-03-29T11:11:57.32Z</time></trkpt><trkpt lat="40.3541425" lon="15.2149323"><ele>658.25</ele><time>2026-03-29T11:11:58.323Z</time></trkpt><trkpt lat="40.354153" lon="15.2151379"><ele>660.0</ele><time>2026-03-29T11:11:59.408Z</time></trkpt><trkpt lat="40.3541659" lon="15.2153141"><ele>660.0</ele><time>2026-03-29T11:12:00.333Z</time></trkpt><trkpt lat="40.354182" lon="15.2155023"><ele>660.0</ele><time>2026-03-29T11:12:01.326Z</time></trkpt><trkpt lat="40.3541949" lon="15.2156906"><ele>660.0</ele><time>2026-03-29T11:12:02.319Z</time></trkpt><trkpt lat="40.354208" lon="15.2158813"><ele>660.0</ele><time>2026-03-29T11:12:03.331Z</time></trkpt><trkpt lat="40.3542174" lon="15.216071"><ele>660.0</ele><time>2026-03-29T11:12:04.341Z</time></trkpt><trkpt lat="40.3542105" lon="15.2162539"><ele>660.0</ele><time>2026-03-29T11:12:05.327Z</time></trkpt><trkpt lat="40.3541851" lon="15.2164371"><ele>660.0</ele><time>2026-03-29T11:12:06.341Z</time></trkpt><trkpt lat="40.3541506" lon="15.2166012"><ele>660.0</ele><time>2026-03-29T11:12:07.333Z</time></trkpt><trkpt lat="40.3541106" lon="15.2167603"><ele>660.0</ele><time>2026-03-29T11:12:08.33Z</time></trkpt><trkpt lat="40.3540625" lon="15.2169225"><ele>660.0</ele><time>2026-03-29T11:12:09.334Z</time></trkpt><trkpt lat="40.3540099" lon="15.217069"><ele>660.0</ele><time>2026-03-29T11:12:10.317Z</time></trkpt><trkpt lat="40.3539581" lon="15.2172098"><ele>660.0</ele><time>2026-03-29T11:12:11.339Z</time></trkpt><trkpt lat="40.3539057" lon="15.217332"><ele>657.6</ele><time>2026-03-29T11:12:12.322Z</time></trkpt><trkpt lat="40.3538481" lon="15.2174404"><ele>655.2</ele><time>2026-03-29T11:12:13.32Z</time></trkpt><trkpt lat="40.3537905" lon="15.2175281"><ele>652.8</ele><time>2026-03-29T11:12:14.317Z</time></trkpt><trkpt lat="40.3537209" lon="15.2176139"><ele>650.4</ele><time>2026-03-29T11:12:15.533Z</time></trkpt><trkpt lat="40.3536104" lon="15.2177405"><ele>648.0</ele><time>2026-03-29T11:12:17.371Z</time></trkpt><trkpt lat="40.353557" lon="15.2178111"><ele>648.0</ele><time>2026-03-29T11:12:18.379Z</time></trkpt><trkpt lat="40.3535252" lon="15.2178903"><ele>648.0</ele><time>2026-03-29T11:12:19.363Z</time></trkpt><trkpt lat="40.3535076" lon="15.2179853"><ele>648.0</ele><time>2026-03-29T11:12:20.366Z</time></trkpt><trkpt lat="40.3535004" lon="15.2181071"><ele>648.0</ele><time>2026-03-29T11:12:21.375Z</time></trkpt><trkpt lat="40.3534999" lon="15.2182481"><ele>648.0</ele><time>2026-03-29T11:12:22.376Z</time></trkpt><trkpt lat="40.3535028" lon="15.2183973"><ele>649.0</ele><time>2026-03-29T11:12:23.361Z</time></trkpt><trkpt lat="40.3534945" lon="15.2185522"><ele>650.0</ele><time>2026-03-29T11:12:24.357Z</time></trkpt><trkpt lat="40.3534716" lon="15.2187187"><ele>651.0</ele><time>2026-03-29T11:12:25.361Z</time></trkpt><trkpt lat="40.3534361" lon="15.2188845"><ele>652.0</ele><time>2026-03-29T11:12:26.359Z</time></trkpt><trkpt lat="40.3533909" lon="15.2190352"><ele>655.5</ele><time>2026-03-29T11:12:27.358Z</time></trkpt><trkpt lat="40.353333" lon="15.2191916"><ele>659.0</ele><time>2026-03-29T11:12:28.357Z</time></trkpt><trkpt lat="40.3532641" lon="15.2193553"><ele>662.5</ele><time>2026-03-29T11:12:29.351Z</time></trkpt><trkpt lat="40.3531889" lon="15.2195123"><ele>666.0</ele><time>2026-03-29T11:12:30.367Z</time></trkpt><trkpt lat="40.3531211" lon="15.2196447"><ele>666.0</ele><time>2026-03-29T11:12:31.312Z</time></trkpt><trkpt lat="40.3530446" lon="15.2197694"><ele>666.0</ele><time>2026-03-29T11:12:32.296Z</time></trkpt><trkpt lat="40.3529499" lon="15.2198839"><ele>666.0</ele><time>2026-03-29T11:12:33.294Z</time></trkpt><trkpt lat="40.3528368" lon="15.2199824"><ele>666.0</ele><time>2026-03-29T11:12:34.289Z</time></trkpt><trkpt lat="40.3527173" lon="15.2200679"><ele>664.25</ele><time>2026-03-29T11:12:35.287Z</time></trkpt><trkpt lat="40.3526004" lon="15.220163"><ele>662.5</ele><time>2026-03-29T11:12:36.286Z</time></trkpt><trkpt lat="40.3524816" lon="15.2202746"><ele>660.75</ele><time>2026-03-29T11:12:37.335Z</time></trkpt><trkpt lat="40.3523724" lon="15.220384"><ele>659.0</ele><time>2026-03-29T11:12:38.307Z</time></trkpt><trkpt lat="40.3522555" lon="15.2205118"><ele>657.5</ele><time>2026-03-29T11:12:39.308Z</time></trkpt><trkpt lat="40.3521435" lon="15.2206463"><ele>656.0</ele><time>2026-03-29T11:12:40.303Z</time></trkpt><trkpt lat="40.3520355" lon="15.2207759"><ele>654.5</ele><time>2026-03-29T11:12:41.301Z</time></trkpt><trkpt lat="40.3519338" lon="15.2209051"><ele>653.0</ele><time>2026-03-29T11:12:42.291Z</time></trkpt><trkpt lat="40.351842" lon="15.2210348"><ele>653.0</ele><time>2026-03-29T11:12:43.269Z</time></trkpt><trkpt lat="40.3517536" lon="15.2211666"><ele>653.0</ele><time>2026-03-29T11:12:44.28Z</time></trkpt><trkpt lat="40.3516672" lon="15.2213029"><ele>653.0</ele><time>2026-03-29T11:12:45.283Z</time></trkpt><trkpt lat="40.3515845" lon="15.2214564"><ele>653.0</ele><time>2026-03-29T11:12:46.32Z</time></trkpt><trkpt lat="40.3515123" lon="15.2216172"><ele>650.0</ele><time>2026-03-29T11:12:47.295Z</time></trkpt><trkpt lat="40.3514489" lon="15.2217982"><ele>647.0</ele><time>2026-03-29T11:12:48.288Z</time></trkpt><trkpt lat="40.3513958" lon="15.2220068"><ele>644.0</ele><time>2026-03-29T11:12:49.319Z</time></trkpt><trkpt lat="40.3513509" lon="15.2222175"><ele>646.6666666666666</ele><time>2026-03-29T11:12:50.333Z</time></trkpt><trkpt lat="40.351304" lon="15.2223998"><ele>649.3333333333334</ele><time>2026-03-29T11:12:51.302Z</time></trkpt><trkpt lat="40.3512421" lon="15.2225761"><ele>652.0</ele><time>2026-03-29T11:12:52.296Z</time></trkpt><trkpt lat="40.3511546" lon="15.2227483"><ele>652.0</ele><time>2026-03-29T11:12:53.27Z</time></trkpt><trkpt lat="40.3510555" lon="15.2229231"><ele>652.0</ele><time>2026-03-29T11:12:54.299Z</time></trkpt><trkpt lat="40.350974" lon="15.2231074"><ele>652.0</ele><time>2026-03-29T11:12:55.325Z</time></trkpt><trkpt lat="40.3509038" lon="15.2232855"><ele>654.25</ele><time>2026-03-29T11:12:56.357Z</time></trkpt><trkpt lat="40.3508445" lon="15.2234436"><ele>656.5</ele><time>2026-03-29T11:12:57.305Z</time></trkpt><trkpt lat="40.3507856" lon="15.2236121"><ele>658.75</ele><time>2026-03-29T11:12:58.33Z</time></trkpt><trkpt lat="40.350731" lon="15.2237627"><ele>661.0</ele><time>2026-03-29T11:12:59.316Z</time></trkpt><trkpt lat="40.3506814" lon="15.2239056"><ele>663.0</ele><time>2026-03-29T11:13:00.354Z</time></trkpt><trkpt lat="40.3506541" lon="15.224035"><ele>665.0</ele><time>2026-03-29T11:13:01.395Z</time></trkpt><trkpt lat="40.3506541" lon="15.224149"><ele>667.0</ele><time>2026-03-29T11:13:02.304Z</time></trkpt><trkpt lat="40.3506802" lon="15.224284"><ele>669.0</ele><time>2026-03-29T11:13:03.369Z</time></trkpt><trkpt lat="40.3507249" lon="15.2244071"><ele>671.0</ele><time>2026-03-29T11:13:04.326Z</time></trkpt><trkpt lat="40.3507774" lon="15.2245424"><ele>671.0</ele><time>2026-03-29T11:13:05.332Z</time></trkpt><trkpt lat="40.3508017" lon="15.2246738"><ele>671.0</ele><time>2026-03-29T11:13:06.319Z</time></trkpt><trkpt lat="40.350792" lon="15.2248101"><ele>671.0</ele><time>2026-03-29T11:13:07.324Z</time></trkpt><trkpt lat="40.3507472" lon="15.2249549"><ele>671.0</ele><time>2026-03-29T11:13:08.331Z</time></trkpt><trkpt lat="40.3506776" lon="15.2251013"><ele>671.3333333333333</ele><time>2026-03-29T11:13:09.325Z</time></trkpt><trkpt lat="40.3506044" lon="15.2252695"><ele>671.6666666666666</ele><time>2026-03-29T11:13:10.315Z</time></trkpt><trkpt lat="40.3505322" lon="15.2254885"><ele>672.0</ele><time>2026-03-29T11:13:11.341Z</time></trkpt><trkpt lat="40.3504737" lon="15.2257035"><ele>665.3333333333334</ele><time>2026-03-29T11:13:12.31Z</time></trkpt><trkpt lat="40.3504119" lon="15.225915"><ele>658.6666666666667</ele><time>2026-03-29T11:13:13.33Z</time></trkpt><trkpt lat="40.350358" lon="15.2261007"><ele>652.0</ele><time>2026-03-29T11:13:14.278Z</time></trkpt><trkpt lat="40.3503119" lon="15.2262924"><ele>652.0</ele><time>2026-03-29T11:13:15.287Z</time></trkpt><trkpt lat="40.3502683" lon="15.2264719"><ele>652.0</ele><time>2026-03-29T11:13:16.283Z</time></trkpt><trkpt lat="40.3502199" lon="15.226651"><ele>652.0</ele><time>2026-03-29T11:13:17.305Z</time></trkpt><trkpt lat="40.3501684" lon="15.2268067"><ele>652.0</ele><time>2026-03-29T11:13:18.268Z</time></trkpt><trkpt lat="40.3501057" lon="15.226952"><ele>653.0</ele><time>2026-03-29T11:13:19.267Z</time></trkpt><trkpt lat="40.3500283" lon="15.2270849"><ele>654.0</ele><time>2026-03-29T11:13:20.275Z</time></trkpt><trkpt lat="40.3499306" lon="15.2272038"><ele>655.0</ele><time>2026-03-29T11:13:21.276Z</time></trkpt><trkpt lat="40.3498108" lon="15.2273084"><ele>656.0</ele><time>2026-03-29T11:13:22.335Z</time></trkpt><trkpt lat="40.3497049" lon="15.2273994"><ele>652.75</ele><time>2026-03-29T11:13:23.285Z</time></trkpt><trkpt lat="40.3496025" lon="15.2275118"><ele>649.5</ele><time>2026-03-29T11:13:24.293Z</time></trkpt><trkpt lat="40.3495168" lon="15.2276436"><ele>646.25</ele><time>2026-03-29T11:13:25.28Z</time></trkpt><trkpt lat="40.3494333" lon="15.227784"><ele>643.0</ele><time>2026-03-29T11:13:26.309Z</time></trkpt><trkpt lat="40.3493615" lon="15.2279094"><ele>643.0</ele><time>2026-03-29T11:13:27.276Z</time></trkpt><trkpt lat="40.3492955" lon="15.2280266"><ele>643.0</ele><time>2026-03-29T11:13:28.271Z</time></trkpt><trkpt lat="40.3492483" lon="15.2281487"><ele>643.0</ele><time>2026-03-29T11:13:29.29Z</time></trkpt><trkpt lat="40.3492233" lon="15.2282906"><ele>643.0</ele><time>2026-03-29T11:13:30.336Z</time></trkpt><trkpt lat="40.3492122" lon="15.2284457"><ele>643.0</ele><time>2026-03-29T11:13:31.318Z</time></trkpt><trkpt lat="40.3492037" lon="15.2286033"><ele>645.75</ele><time>2026-03-29T11:13:32.325Z</time></trkpt><trkpt lat="40.3492121" lon="15.2287529"><ele>648.5</ele><time>2026-03-29T11:13:33.315Z</time></trkpt><trkpt lat="40.3492423" lon="15.2289061"><ele>651.25</ele><time>2026-03-29T11:13:34.317Z</time></trkpt><trkpt lat="40.3492969" lon="15.2290674"><ele>654.0</ele><time>2026-03-29T11:13:35.413Z</time></trkpt><trkpt lat="40.3493523" lon="15.2291988"><ele>654.5</ele><time>2026-03-29T11:13:36.32Z</time></trkpt><trkpt lat="40.3494206" lon="15.2293323"><ele>655.0</ele><time>2026-03-29T11:13:37.341Z</time></trkpt><trkpt lat="40.349479" lon="15.229456"><ele>655.5</ele><time>2026-03-29T11:13:38.322Z</time></trkpt><trkpt lat="40.3495212" lon="15.2295867"><ele>656.0</ele><time>2026-03-29T11:13:39.316Z</time></trkpt><trkpt lat="40.3495397" lon="15.2297373"><ele>654.5</ele><time>2026-03-29T11:13:40.302Z</time></trkpt><trkpt lat="40.3495385" lon="15.2299002"><ele>653.0</ele><time>2026-03-29T11:13:41.287Z</time></trkpt><trkpt lat="40.3495192" lon="15.2300735"><ele>651.5</ele><time>2026-03-29T11:13:42.286Z</time></trkpt><trkpt lat="40.3494851" lon="15.230252"><ele>650.0</ele><time>2026-03-29T11:13:43.283Z</time></trkpt><trkpt lat="40.3494421" lon="15.2304323"><ele>650.0</ele><time>2026-03-29T11:13:44.29Z</time></trkpt><trkpt lat="40.3493927" lon="15.2305945"><ele>650.0</ele><time>2026-03-29T11:13:45.282Z</time></trkpt><trkpt lat="40.3493261" lon="15.2307456"><ele>650.0</ele><time>2026-03-29T11:13:46.279Z</time></trkpt><trkpt lat="40.3492422" lon="15.2308836"><ele>650.0</ele><time>2026-03-29T11:13:47.27Z</time></trkpt><trkpt lat="40.3491417" lon="15.2310089"><ele>648.0</ele><time>2026-03-29T11:13:48.291Z</time></trkpt><trkpt lat="40.3490423" lon="15.2311132"><ele>646.0</ele><time>2026-03-29T11:13:49.288Z</time></trkpt><trkpt lat="40.3489405" lon="15.2312129"><ele>644.0</ele><time>2026-03-29T11:13:50.331Z</time></trkpt><trkpt lat="40.3488554" lon="15.2313129"><ele>642.0</ele><time>2026-03-29T11:13:51.278Z</time></trkpt><trkpt lat="40.3487805" lon="15.2314365"><ele>642.5</ele><time>2026-03-29T11:13:52.271Z</time></trkpt><trkpt lat="40.3487167" lon="15.2315796"><ele>643.0</ele><time>2026-03-29T11:13:53.267Z</time></trkpt><trkpt lat="40.3486591" lon="15.2317394"><ele>643.5</ele><time>2026-03-29T11:13:54.277Z</time></trkpt><trkpt lat="40.3486104" lon="15.2319127"><ele>644.0</ele><time>2026-03-29T11:13:55.276Z</time></trkpt><trkpt lat="40.3485702" lon="15.232113"><ele>646.75</ele><time>2026-03-29T11:13:56.285Z</time></trkpt><trkpt lat="40.3485332" lon="15.2323166"><ele>649.5</ele><time>2026-03-29T11:13:57.315Z</time></trkpt><trkpt lat="40.348492" lon="15.2324968"><ele>652.25</ele><time>2026-03-29T11:13:58.314Z</time></trkpt><trkpt lat="40.348448" lon="15.2326635"><ele>655.0</ele><time>2026-03-29T11:13:59.28Z</time></trkpt><trkpt lat="40.3484004" lon="15.2328344"><ele>655.0</ele><time>2026-03-29T11:14:00.281Z</time></trkpt><trkpt lat="40.3483428" lon="15.2329981"><ele>655.0</ele><time>2026-03-29T11:14:01.269Z</time></trkpt><trkpt lat="40.3482672" lon="15.2331625"><ele>655.0</ele><time>2026-03-29T11:14:02.299Z</time></trkpt><trkpt lat="40.3481814" lon="15.233326"><ele>655.0</ele><time>2026-03-29T11:14:03.345Z</time></trkpt><trkpt lat="40.3481059" lon="15.2334708"><ele>653.25</ele><time>2026-03-29T11:14:04.323Z</time></trkpt><trkpt lat="40.3480215" lon="15.2336221"><ele>651.5</ele><time>2026-03-29T11:14:05.441Z</time></trkpt><trkpt lat="40.3479519" lon="15.2337401"><ele>649.75</ele><time>2026-03-29T11:14:06.43Z</time></trkpt><trkpt lat="40.3478372" lon="15.2339175"><ele>648.0</ele><time>2026-03-29T11:14:08.337Z</time></trkpt><trkpt lat="40.3477933" lon="15.2339958"><ele>648.0</ele><time>2026-03-29T11:14:09.345Z</time></trkpt><trkpt lat="40.3477282" lon="15.2341005"><ele>648.0</ele><time>2026-03-29T11:14:11.344Z</time></trkpt><trkpt lat="40.3478058" lon="15.2340171"><ele>648.0</ele><time>2026-03-29T11:14:25.38Z</time></trkpt><trkpt lat="40.3478457" lon="15.233942"><ele>648.0</ele><time>2026-03-29T11:14:26.339Z</time></trkpt><trkpt lat="40.3478956" lon="15.2338507"><ele>648.0</ele><time>2026-03-29T11:14:27.332Z</time></trkpt><trkpt lat="40.3479509" lon="15.2337569"><ele>648.0</ele><time>2026-03-29T11:14:28.352Z</time></trkpt><trkpt lat="40.3480113" lon="15.2336541"><ele>649.4</ele><time>2026-03-29T11:14:29.314Z</time></trkpt><trkpt lat="40.3480782" lon="15.2335387"><ele>650.8</ele><time>2026-03-29T11:14:30.321Z</time></trkpt><trkpt lat="40.3481492" lon="15.2334116"><ele>652.2</ele><time>2026-03-29T11:14:31.369Z</time></trkpt><trkpt lat="40.3482137" lon="15.2332913"><ele>653.6</ele><time>2026-03-29T11:14:32.36Z</time></trkpt><trkpt lat="40.3482713" lon="15.2331804"><ele>655.0</ele><time>2026-03-29T11:14:33.313Z</time></trkpt><trkpt lat="40.3483302" lon="15.2330728"><ele>655.0</ele><time>2026-03-29T11:14:34.316Z</time></trkpt><trkpt lat="40.3483833" lon="15.2329888"><ele>655.0</ele><time>2026-03-29T11:14:35.321Z</time></trkpt><trkpt lat="40.3484459" lon="15.2328907"><ele>655.0</ele><time>2026-03-29T11:14:37.272Z</time></trkpt><trkpt lat="40.348474" lon="15.2328115"><ele>655.0</ele><time>2026-03-29T11:14:38.272Z</time></trkpt><trkpt lat="40.3485066" lon="15.2327107"><ele>655.0</ele><time>2026-03-29T11:14:39.278Z</time></trkpt><trkpt lat="40.3485476" lon="15.2326031"><ele>655.0</ele><time>2026-03-29T11:14:40.291Z</time></trkpt><trkpt lat="40.34859" lon="15.2324888"><ele>655.0</ele><time>2026-03-29T11:14:41.272Z</time></trkpt><trkpt lat="40.34862" lon="15.2323805"><ele>655.0</ele><time>2026-03-29T11:14:42.276Z</time></trkpt><trkpt lat="40.3486521" lon="15.2322798"><ele>655.0</ele><time>2026-03-29T11:14:43.267Z</time></trkpt><trkpt lat="40.3486802" lon="15.2321844"><ele>655.0</ele><time>2026-03-29T11:14:44.277Z</time></trkpt><trkpt lat="40.3487131" lon="15.2320701"><ele>655.0</ele><time>2026-03-29T11:14:46.262Z</time></trkpt><trkpt lat="40.3487472" lon="15.2319752"><ele>655.0</ele><time>2026-03-29T11:14:48.27Z</time></trkpt><trkpt lat="40.3490916" lon="15.2316949"><ele>659.6</ele><time>2026-03-29T11:14:49.282Z</time></trkpt><trkpt lat="40.3491236" lon="15.2317737"><ele>664.2</ele><time>2026-03-29T11:14:51.264Z</time></trkpt><trkpt lat="40.3491039" lon="15.2320232"><ele>668.8</ele><time>2026-03-29T11:14:54.312Z</time></trkpt><trkpt lat="40.3490937" lon="15.2321366"><ele>673.4</ele><time>2026-03-29T11:14:55.299Z</time></trkpt><trkpt lat="40.3490764" lon="15.2322592"><ele>678.0</ele><time>2026-03-29T11:14:56.274Z</time></trkpt><trkpt lat="40.349055" lon="15.2323636"><ele>681.2</ele><time>2026-03-29T11:14:57.293Z</time></trkpt><trkpt lat="40.3490189" lon="15.2324436"><ele>684.4</ele><time>2026-03-29T11:14:58.28Z</time></trkpt><trkpt lat="40.3489732" lon="15.2325244"><ele>687.6</ele><time>2026-03-29T11:14:59.282Z</time></trkpt><trkpt lat="40.3489334" lon="15.2326422"><ele>690.8000000000001</ele><time>2026-03-29T11:15:00.302Z</time></trkpt><trkpt lat="40.3489177" lon="15.2328025"><ele>694.0</ele><time>2026-03-29T11:15:01.276Z</time></trkpt><trkpt lat="40.3489008" lon="15.2329662"><ele>686.75</ele><time>2026-03-29T11:15:02.289Z</time></trkpt><trkpt lat="40.3488718" lon="15.2331127"><ele>679.5</ele><time>2026-03-29T11:15:03.263Z</time></trkpt><trkpt lat="40.3488283" lon="15.2332765"><ele>672.25</ele><time>2026-03-29T11:15:04.386Z</time></trkpt><trkpt lat="40.3487868" lon="15.2334129"><ele>665.0</ele><time>2026-03-29T11:15:05.288Z</time></trkpt><trkpt lat="40.3487369" lon="15.2335623"><ele>665.0</ele><time>2026-03-29T11:15:06.275Z</time></trkpt><trkpt lat="40.3486758" lon="15.2336989"><ele>665.0</ele><time>2026-03-29T11:15:07.264Z</time></trkpt><trkpt lat="40.3486118" lon="15.2338322"><ele>665.0</ele><time>2026-03-29T11:15:08.271Z</time></trkpt><trkpt lat="40.3485541" lon="15.2339494"><ele>665.0</ele><time>2026-03-29T11:15:09.282Z</time></trkpt><trkpt lat="40.3485252" lon="15.2340344"><ele>665.0</ele><time>2026-03-29T11:15:10.281Z</time></trkpt><trkpt lat="40.3484996" lon="15.2341582"><ele>669.2</ele><time>2026-03-29T11:15:11.281Z</time></trkpt><trkpt lat="40.3484844" lon="15.2342856"><ele>673.4</ele><time>2026-03-29T11:15:12.268Z</time></trkpt><trkpt lat="40.3484741" lon="15.2344122"><ele>677.5999999999999</ele><time>2026-03-29T11:15:13.302Z</time></trkpt><trkpt lat="40.3484657" lon="15.2345228"><ele>681.8</ele><time>2026-03-29T11:15:14.278Z</time></trkpt><trkpt lat="40.3484451" lon="15.2346397"><ele>686.0</ele><time>2026-03-29T11:15:15.278Z</time></trkpt><trkpt lat="40.34841" lon="15.2347503"><ele>690.5999999999999</ele><time>2026-03-29T11:15:16.278Z</time></trkpt><trkpt lat="40.3483607" lon="15.2348648"><ele>695.2</ele><time>2026-03-29T11:15:17.28Z</time></trkpt><trkpt lat="40.348309" lon="15.2349901"><ele>699.8</ele><time>2026-03-29T11:15:18.307Z</time></trkpt><trkpt lat="40.3482664" lon="15.2351093"><ele>704.4000000000001</ele><time>2026-03-29T11:15:19.285Z</time></trkpt><trkpt lat="40.3482305" lon="15.2352321"><ele>709.0</ele><time>2026-03-29T11:15:20.277Z</time></trkpt><trkpt lat="40.3482162" lon="15.2353633"><ele>709.0</ele><time>2026-03-29T11:15:21.274Z</time></trkpt><trkpt lat="40.3482196" lon="15.2355134"><ele>709.0</ele><time>2026-03-29T11:15:22.297Z</time></trkpt><trkpt lat="40.348233" lon="15.2356696"><ele>709.0</ele><time>2026-03-29T11:15:23.304Z</time></trkpt><trkpt lat="40.3482448" lon="15.2358211"><ele>709.0</ele><time>2026-03-29T11:15:24.27Z</time></trkpt><trkpt lat="40.3482549" lon="15.2359807"><ele>712.8000000000001</ele><time>2026-03-29T11:15:25.319Z</time></trkpt><trkpt lat="40.3482656" lon="15.2361247"><ele>716.6</ele><time>2026-03-29T11:15:26.277Z</time></trkpt><trkpt lat="40.348272" lon="15.2362811"><ele>720.4</ele><time>2026-03-29T11:15:27.342Z</time></trkpt><trkpt lat="40.3482678" lon="15.2364165"><ele>724.2</ele><time>2026-03-29T11:15:28.28Z</time></trkpt><trkpt lat="40.3482586" lon="15.2365468"><ele>728.0</ele><time>2026-03-29T11:15:29.287Z</time></trkpt><trkpt lat="40.3482461" lon="15.2366545"><ele>729.2</ele><time>2026-03-29T11:15:30.292Z</time></trkpt><trkpt lat="40.3482085" lon="15.2368078"><ele>730.4</ele><time>2026-03-29T11:15:32.287Z</time></trkpt><trkpt lat="40.3481851" lon="15.2368854"><ele>731.6</ele><time>2026-03-29T11:15:33.285Z</time></trkpt><trkpt lat="40.348149" lon="15.2370387"><ele>732.8000000000001</ele><time>2026-03-29T11:15:35.298Z</time></trkpt><trkpt lat="40.3481609" lon="15.2371979"><ele>734.0</ele><time>2026-03-29T11:15:37.276Z</time></trkpt><trkpt lat="40.3481818" lon="15.2373529"><ele>737.4000000000001</ele><time>2026-03-29T11:15:39.278Z</time></trkpt><trkpt lat="40.3481506" lon="15.2374783"><ele>740.8</ele><time>2026-03-29T11:15:41.304Z</time></trkpt><trkpt lat="40.348054" lon="15.2375469"><ele>744.2</ele><time>2026-03-29T11:15:43.288Z</time></trkpt><trkpt lat="40.3479482" lon="15.2375888"><ele>747.5999999999999</ele><time>2026-03-29T11:15:45.277Z</time></trkpt><trkpt lat="40.347932" lon="15.2377054"><ele>751.0</ele><time>2026-03-29T11:15:47.323Z</time></trkpt><trkpt lat="40.3480065" lon="15.2377549"><ele>751.0</ele><time>2026-03-29T11:15:49.281Z</time></trkpt><trkpt lat="40.3481315" lon="15.2377492"><ele>751.0</ele><time>2026-03-29T11:15:51.268Z</time></trkpt><trkpt lat="40.3482049" lon="15.2377436"><ele>751.0</ele><time>2026-03-29T11:15:52.281Z</time></trkpt><trkpt lat="40.3482771" lon="15.2377221"><ele>751.0</ele><time>2026-03-29T11:15:53.266Z</time></trkpt><trkpt lat="40.3483421" lon="15.2376719"><ele>751.0</ele><time>2026-03-29T11:15:54.286Z</time></trkpt><trkpt lat="40.3483729" lon="15.2375916"><ele>751.0</ele><time>2026-03-29T11:15:55.271Z</time></trkpt><trkpt lat="40.3484189" lon="15.2375166"><ele>751.0</ele><time>2026-03-29T11:15:56.282Z</time></trkpt><trkpt lat="40.3484694" lon="15.2374381"><ele>751.0</ele><time>2026-03-29T11:15:57.291Z</time></trkpt><trkpt lat="40.3485154" lon="15.2373627"><ele>751.0</ele><time>2026-03-29T11:15:58.284Z</time></trkpt><trkpt lat="40.3485514" lon="15.2372926"><ele>751.0</ele><time>2026-03-29T11:15:59.307Z</time></trkpt><trkpt lat="40.3486044" lon="15.2372152"><ele>751.0</ele><time>2026-03-29T11:16:01.322Z</time></trkpt><trkpt lat="40.3486613" lon="15.2372877"><ele>751.0</ele><time>2026-03-29T11:16:04.308Z</time></trkpt><trkpt lat="40.3486233" lon="15.2374059"><ele>751.0</ele><time>2026-03-29T11:16:06.432Z</time></trkpt><trkpt lat="40.3485558" lon="15.2375803"><ele>751.0</ele><time>2026-03-29T11:16:08.294Z</time></trkpt><trkpt lat="40.3485223" lon="15.2376895"><ele>751.0</ele><time>2026-03-29T11:16:09.272Z</time></trkpt><trkpt lat="40.348482" lon="15.2378047"><ele>751.0</ele><time>2026-03-29T11:16:10.296Z</time></trkpt><trkpt lat="40.3484342" lon="15.2379008"><ele>751.0</ele><time>2026-03-29T11:16:11.285Z</time></trkpt><trkpt lat="40.3483819" lon="15.2379835"><ele>751.0</ele><time>2026-03-29T11:16:12.28Z</time></trkpt><trkpt lat="40.34833" lon="15.2380492"><ele>751.0</ele><time>2026-03-29T11:16:13.272Z</time></trkpt><trkpt lat="40.3482841" lon="15.2381067"><ele>751.0</ele><time>2026-03-29T11:16:14.276Z</time></trkpt><trkpt lat="40.3482325" lon="15.2381891"><ele>751.0</ele><time>2026-03-29T11:16:16.366Z</time></trkpt><trkpt lat="40.3482787" lon="15.2382545"><ele>751.0</ele><time>2026-03-29T11:16:24.369Z</time></trkpt><trkpt lat="40.3483342" lon="15.2381949"><ele>751.0</ele><time>2026-03-29T11:16:26.346Z</time></trkpt><trkpt lat="40.3484401" lon="15.2380913"><ele>751.0</ele><time>2026-03-29T11:16:28.426Z</time></trkpt><trkpt lat="40.3484959" lon="15.2380419"><ele>751.0</ele><time>2026-03-29T11:16:29.357Z</time></trkpt><trkpt lat="40.3485628" lon="15.2379933"><ele>751.0</ele><time>2026-03-29T11:16:30.369Z</time></trkpt><trkpt lat="40.348632" lon="15.2379532"><ele>751.0</ele><time>2026-03-29T11:16:31.365Z</time></trkpt><trkpt lat="40.3486988" lon="15.2379133"><ele>751.0</ele><time>2026-03-29T11:16:32.355Z</time></trkpt><trkpt lat="40.3487579" lon="15.2378687"><ele>751.0</ele><time>2026-03-29T11:16:33.353Z</time></trkpt><trkpt lat="40.3488387" lon="15.2377792"><ele>751.0</ele><time>2026-03-29T11:16:35.356Z</time></trkpt><trkpt lat="40.3488741" lon="15.2377055"><ele>751.0</ele><time>2026-03-29T11:16:37.383Z</time></trkpt><trkpt lat="40.3488447" lon="15.2376225"><ele>751.0</ele><time>2026-03-29T11:16:40.374Z</time></trkpt><trkpt lat="40.348924" lon="15.2375514"><ele>751.0</ele><time>2026-03-29T11:23:21.356Z</time></trkpt><trkpt lat="40.3490021" lon="15.2374363"><ele>751.0</ele><time>2026-03-29T11:23:23.342Z</time></trkpt><trkpt lat="40.3490545" lon="15.2373716"><ele>751.0</ele><time>2026-03-29T11:23:24.364Z</time></trkpt><trkpt lat="40.3491088" lon="15.237308"><ele>757.3333333333334</ele><time>2026-03-29T11:23:25.371Z</time></trkpt><trkpt lat="40.3491629" lon="15.2372454"><ele>763.6666666666667</ele><time>2026-03-29T11:23:26.335Z</time></trkpt><trkpt lat="40.3492282" lon="15.2371763"><ele>770.0</ele><time>2026-03-29T11:23:27.343Z</time></trkpt><trkpt lat="40.3492997" lon="15.237104"><ele>776.3333333333334</ele><time>2026-03-29T11:23:28.344Z</time></trkpt><trkpt lat="40.3493711" lon="15.2370411"><ele>782.6666666666666</ele><time>2026-03-29T11:23:29.333Z</time></trkpt><trkpt lat="40.3494392" lon="15.2369922"><ele>789.0</ele><time>2026-03-29T11:23:30.343Z</time></trkpt><trkpt lat="40.3495113" lon="15.2369595"><ele>789.0</ele><time>2026-03-29T11:23:31.326Z</time></trkpt><trkpt lat="40.349595" lon="15.2369367"><ele>789.0</ele><time>2026-03-29T11:23:32.33Z</time></trkpt><trkpt lat="40.3496809" lon="15.2369191"><ele>789.0</ele><time>2026-03-29T11:23:33.354Z</time></trkpt><trkpt lat="40.3497643" lon="15.2368941"><ele>789.0</ele><time>2026-03-29T11:23:34.392Z</time></trkpt><trkpt lat="40.3498429" lon="15.2368505"><ele>789.0</ele><time>2026-03-29T11:23:35.454Z</time></trkpt><trkpt lat="40.3499668" lon="15.2367156"><ele>788.6666666666666</ele><time>2026-03-29T11:23:37.389Z</time></trkpt><trkpt lat="40.3500396" lon="15.2366427"><ele>788.3333333333333</ele><time>2026-03-29T11:23:38.348Z</time></trkpt><trkpt lat="40.3501193" lon="15.2365687"><ele>788.0</ele><time>2026-03-29T11:23:39.333Z</time></trkpt><trkpt lat="40.3501981" lon="15.2365089"><ele>787.6666666666666</ele><time>2026-03-29T11:23:40.355Z</time></trkpt><trkpt lat="40.350274" lon="15.2364721"><ele>787.3333333333333</ele><time>2026-03-29T11:23:41.339Z</time></trkpt><trkpt lat="40.3503533" lon="15.2364588"><ele>787.0</ele><time>2026-03-29T11:23:42.364Z</time></trkpt><trkpt lat="40.3504348" lon="15.2364561"><ele>798.0</ele><time>2026-03-29T11:23:43.344Z</time></trkpt><trkpt lat="40.350523" lon="15.2364643"><ele>809.0</ele><time>2026-03-29T11:23:44.338Z</time></trkpt><trkpt lat="40.3506179" lon="15.2364689"><ele>820.0</ele><time>2026-03-29T11:23:45.343Z</time></trkpt><trkpt lat="40.3507155" lon="15.2364658"><ele>831.0</ele><time>2026-03-29T11:23:46.342Z</time></trkpt><trkpt lat="40.3508191" lon="15.2364539"><ele>842.0</ele><time>2026-03-29T11:23:47.348Z</time></trkpt><trkpt lat="40.3509167" lon="15.2364373"><ele>846.6</ele><time>2026-03-29T11:23:48.342Z</time></trkpt><trkpt lat="40.3510258" lon="15.2364277"><ele>851.2</ele><time>2026-03-29T11:23:49.556Z</time></trkpt><trkpt lat="40.3511473" lon="15.2364353"><ele>855.8</ele><time>2026-03-29T11:23:51.34Z</time></trkpt><trkpt lat="40.3512637" lon="15.2364718"><ele>860.4</ele><time>2026-03-29T11:23:53.342Z</time></trkpt><trkpt lat="40.3513279" lon="15.2365023"><ele>865.0</ele><time>2026-03-29T11:23:54.323Z</time></trkpt><trkpt lat="40.3513943" lon="15.2365393"><ele>854.1666666666666</ele><time>2026-03-29T11:23:55.314Z</time></trkpt><trkpt lat="40.3514577" lon="15.2365681"><ele>843.3333333333333</ele><time>2026-03-29T11:23:56.309Z</time></trkpt><trkpt lat="40.3515272" lon="15.2365926"><ele>832.5</ele><time>2026-03-29T11:23:57.448Z</time></trkpt><trkpt lat="40.3516473" lon="15.2366305"><ele>821.6666666666667</ele><time>2026-03-29T11:23:59.322Z</time></trkpt><trkpt lat="40.3517177" lon="15.2366499"><ele>810.8333333333334</ele><time>2026-03-29T11:24:00.344Z</time></trkpt><trkpt lat="40.351788" lon="15.2366638"><ele>800.0</ele><time>2026-03-29T11:24:01.334Z</time></trkpt><trkpt lat="40.3518591" lon="15.2366654"><ele>800.0</ele><time>2026-03-29T11:24:02.33Z</time></trkpt><trkpt lat="40.3519269" lon="15.2366493"><ele>800.0</ele><time>2026-03-29T11:24:03.34Z</time></trkpt><trkpt lat="40.3520473" lon="15.2366442"><ele>800.0</ele><time>2026-03-29T11:24:05.362Z</time></trkpt><trkpt lat="40.3521866" lon="15.2366891"><ele>800.0</ele><time>2026-03-29T11:24:07.343Z</time></trkpt><trkpt lat="40.3522751" lon="15.2367008"><ele>800.0</ele><time>2026-03-29T11:24:08.336Z</time></trkpt><trkpt lat="40.3523751" lon="15.2367057"><ele>800.6</ele><time>2026-03-29T11:24:09.318Z</time></trkpt><trkpt lat="40.3524779" lon="15.2367061"><ele>801.2</ele><time>2026-03-29T11:24:10.308Z</time></trkpt><trkpt lat="40.3525816" lon="15.2366984"><ele>801.8</ele><time>2026-03-29T11:24:11.362Z</time></trkpt><trkpt lat="40.3526731" lon="15.2366728"><ele>802.4</ele><time>2026-03-29T11:24:12.338Z</time></trkpt><trkpt lat="40.3527611" lon="15.2366305"><ele>803.0</ele><time>2026-03-29T11:24:13.342Z</time></trkpt><trkpt lat="40.3528435" lon="15.2365735"><ele>803.0</ele><time>2026-03-29T11:24:14.323Z</time></trkpt><trkpt lat="40.3529271" lon="15.2365086"><ele>803.0</ele><time>2026-03-29T11:24:15.326Z</time></trkpt><trkpt lat="40.3530093" lon="15.2364393"><ele>803.0</ele><time>2026-03-29T11:24:16.327Z</time></trkpt><trkpt lat="40.3530981" lon="15.2363828"><ele>803.0</ele><time>2026-03-29T11:24:17.334Z</time></trkpt><trkpt lat="40.3531919" lon="15.2363273"><ele>803.0</ele><time>2026-03-29T11:24:18.423Z</time></trkpt><trkpt lat="40.3532712" lon="15.236292"><ele>804.6666666666667</ele><time>2026-03-29T11:24:19.356Z</time></trkpt><trkpt lat="40.3533565" lon="15.2362708"><ele>806.3333333333334</ele><time>2026-03-29T11:24:20.376Z</time></trkpt><trkpt lat="40.3534345" lon="15.2362595"><ele>808.0</ele><time>2026-03-29T11:24:21.321Z</time></trkpt><trkpt lat="40.3535204" lon="15.2362819"><ele>809.6666666666667</ele><time>2026-03-29T11:24:22.435Z</time></trkpt><trkpt lat="40.3536256" lon="15.236369"><ele>811.3333333333334</ele><time>2026-03-29T11:24:24.352Z</time></trkpt><trkpt lat="40.3536723" lon="15.236431"><ele>813.0</ele><time>2026-03-29T11:24:25.313Z</time></trkpt><trkpt lat="40.353774" lon="15.2364878"><ele>814.2</ele><time>2026-03-29T11:24:27.353Z</time></trkpt><trkpt lat="40.3539031" lon="15.2364823"><ele>815.4</ele><time>2026-03-29T11:24:29.352Z</time></trkpt><trkpt lat="40.3539662" lon="15.2364693"><ele>816.6</ele><time>2026-03-29T11:24:30.343Z</time></trkpt><trkpt lat="40.3540849" lon="15.2363913"><ele>817.8000000000001</ele><time>2026-03-29T11:24:32.448Z</time></trkpt><trkpt lat="40.3541635" lon="15.2363023"><ele>819.0</ele><time>2026-03-29T11:24:33.35Z</time></trkpt><trkpt lat="40.3542207" lon="15.2361928"><ele>831.0</ele><time>2026-03-29T11:24:34.491Z</time></trkpt><trkpt lat="40.3543496" lon="15.2359958"><ele>843.0</ele><time>2026-03-29T11:24:36.329Z</time></trkpt><trkpt lat="40.3544229" lon="15.2358914"><ele>855.0</ele><time>2026-03-29T11:24:37.318Z</time></trkpt><trkpt lat="40.3544841" lon="15.2357782"><ele>867.0</ele><time>2026-03-29T11:24:38.347Z</time></trkpt><trkpt lat="40.3545307" lon="15.2356695"><ele>870.8</ele><time>2026-03-29T11:24:39.344Z</time></trkpt><trkpt lat="40.3545778" lon="15.2355574"><ele>874.6</ele><time>2026-03-29T11:24:40.343Z</time></trkpt><trkpt lat="40.3546266" lon="15.2354494"><ele>878.3999999999999</ele><time>2026-03-29T11:24:41.343Z</time></trkpt><trkpt lat="40.3546794" lon="15.2353595"><ele>882.1999999999999</ele><time>2026-03-29T11:24:42.33Z</time></trkpt><trkpt lat="40.354745" lon="15.2352763"><ele>886.0</ele><time>2026-03-29T11:24:43.329Z</time></trkpt><trkpt lat="40.3548194" lon="15.2352161"><ele>886.0</ele><time>2026-03-29T11:24:44.355Z</time></trkpt><trkpt lat="40.3549015" lon="15.2351843"><ele>885.9999999999999</ele><time>2026-03-29T11:24:45.326Z</time></trkpt><trkpt lat="40.3549939" lon="15.2351507"><ele>885.9999999999999</ele><time>2026-03-29T11:24:46.338Z</time></trkpt><trkpt lat="40.3550908" lon="15.2351249"><ele>886.0</ele><time>2026-03-29T11:24:47.308Z</time></trkpt><trkpt lat="40.3551871" lon="15.2350994"><ele>886.0</ele><time>2026-03-29T11:24:48.337Z</time></trkpt><trkpt lat="40.3552667" lon="15.2350651"><ele>886.0</ele><time>2026-03-29T11:24:49.338Z</time></trkpt><trkpt lat="40.3553491" lon="15.2350227"><ele>885.9999999999999</ele><time>2026-03-29T11:24:50.349Z</time></trkpt><trkpt lat="40.3554186" lon="15.2349892"><ele>885.9999999999999</ele><time>2026-03-29T11:24:51.332Z</time></trkpt><trkpt lat="40.3555007" lon="15.2349602"><ele>886.0</ele><time>2026-03-29T11:24:52.443Z</time></trkpt><trkpt lat="40.355632" lon="15.2349541"><ele>886.0</ele><time>2026-03-29T11:24:54.324Z</time></trkpt><trkpt lat="40.3557019" lon="15.2349725"><ele>885.5999999999999</ele><time>2026-03-29T11:24:55.316Z</time></trkpt><trkpt lat="40.3557756" lon="15.2349936"><ele>885.1999999999999</ele><time>2026-03-29T11:24:56.344Z</time></trkpt><trkpt lat="40.355849" lon="15.2350059"><ele>884.8000000000001</ele><time>2026-03-29T11:24:57.319Z</time></trkpt><trkpt lat="40.3559093" lon="15.2351186"><ele>884.4000000000001</ele><time>2026-03-29T11:24:59.341Z</time></trkpt><trkpt lat="40.3559511" lon="15.2352387"><ele>884.0</ele><time>2026-03-29T11:25:01.338Z</time></trkpt><trkpt lat="40.3560172" lon="15.235343"><ele>884.0000000000001</ele><time>2026-03-29T11:25:03.331Z</time></trkpt><trkpt lat="40.3560763" lon="15.2354045"><ele>884.0</ele><time>2026-03-29T11:25:04.328Z</time></trkpt><trkpt lat="40.3561699" lon="15.2354639"><ele>884.0</ele><time>2026-03-29T11:25:06.341Z</time></trkpt><trkpt lat="40.3562882" lon="15.2354906"><ele>884.0</ele><time>2026-03-29T11:25:08.361Z</time></trkpt><trkpt lat="40.3563555" lon="15.2355149"><ele>884.0000000000001</ele><time>2026-03-29T11:25:09.334Z</time></trkpt><trkpt lat="40.3564208" lon="15.2355402"><ele>884.0</ele><time>2026-03-29T11:25:10.428Z</time></trkpt><trkpt lat="40.3564843" lon="15.2355578"><ele>888.0</ele><time>2026-03-29T11:25:11.337Z</time></trkpt><trkpt lat="40.3565976" lon="15.2355736"><ele>892.0000000000001</ele><time>2026-03-29T11:25:13.335Z</time></trkpt><trkpt lat="40.3566852" lon="15.235554"><ele>896.0000000000001</ele><time>2026-03-29T11:25:15.356Z</time></trkpt><trkpt lat="40.3568063" lon="15.2355307"><ele>900.0</ele><time>2026-03-29T11:25:17.331Z</time></trkpt><trkpt lat="40.3568751" lon="15.2355172"><ele>904.0</ele><time>2026-03-29T11:25:18.333Z</time></trkpt><trkpt lat="40.3568078" lon="15.2355417"><ele>904.0</ele><time>2026-03-29T11:25:20.332Z</time></trkpt><trkpt lat="40.3568711" lon="15.2354955"><ele>904.0</ele><time>2026-03-29T11:26:49.373Z</time></trkpt><trkpt lat="40.356901" lon="15.2354223"><ele>904.0</ele><time>2026-03-29T11:27:03.361Z</time></trkpt><trkpt lat="40.3568705" lon="15.235495"><ele>904.0</ele><time>2026-03-29T11:30:03.361Z</time></trkpt><trkpt lat="40.3568015" lon="15.235546"><ele>904.0</ele><time>2026-03-29T11:40:47.405Z</time></trkpt><trkpt lat="40.3568653" lon="15.2355245"><ele>904.0</ele><time>2026-03-29T11:43:15.368Z</time></trkpt><trkpt lat="40.3569565" lon="15.235508"><ele>904.0</ele><time>2026-03-29T11:43:17.374Z</time></trkpt><trkpt lat="40.3570474" lon="15.2354873"><ele>903.9999999999999</ele><time>2026-03-29T11:43:19.374Z</time></trkpt><trkpt lat="40.3571306" lon="15.2354747"><ele>904.0</ele><time>2026-03-29T11:43:21.349Z</time></trkpt><trkpt lat="40.3572053" lon="15.235452"><ele>904.0</ele><time>2026-03-29T11:43:23.359Z</time></trkpt><trkpt lat="40.3572835" lon="15.2354381"><ele>904.0</ele><time>2026-03-29T11:43:25.386Z</time></trkpt><trkpt lat="40.3573702" lon="15.2354192"><ele>903.9999999999999</ele><time>2026-03-29T11:43:27.417Z</time></trkpt><trkpt lat="40.3574673" lon="15.2354049"><ele>904.0</ele><time>2026-03-29T11:43:29.394Z</time></trkpt><trkpt lat="40.3575639" lon="15.235396"><ele>902.2</ele><time>2026-03-29T11:43:31.354Z</time></trkpt><trkpt lat="40.3576602" lon="15.2353892"><ele>900.4000000000001</ele><time>2026-03-29T11:43:33.38Z</time></trkpt><trkpt lat="40.3577573" lon="15.2353928"><ele>898.6</ele><time>2026-03-29T11:43:35.362Z</time></trkpt><trkpt lat="40.3578853" lon="15.2354119"><ele>896.8</ele><time>2026-03-29T11:43:38.372Z</time></trkpt><trkpt lat="40.3579541" lon="15.23542"><ele>895.0</ele><time>2026-03-29T11:43:40.362Z</time></trkpt><trkpt lat="40.3580368" lon="15.2354355"><ele>893.1666666666666</ele><time>2026-03-29T11:43:43.394Z</time></trkpt><trkpt lat="40.3581087" lon="15.2354515"><ele>891.3333333333333</ele><time>2026-03-29T11:43:45.369Z</time></trkpt><trkpt lat="40.3581894" lon="15.235448"><ele>889.5</ele><time>2026-03-29T11:43:47.361Z</time></trkpt><trkpt lat="40.3582659" lon="15.2354235"><ele>887.6666666666667</ele><time>2026-03-29T11:43:49.351Z</time></trkpt><trkpt lat="40.3583423" lon="15.2354093"><ele>885.8333333333334</ele><time>2026-03-29T11:43:51.367Z</time></trkpt><trkpt lat="40.3584134" lon="15.2353889"><ele>884.0</ele><time>2026-03-29T11:43:53.381Z</time></trkpt><trkpt lat="40.3584878" lon="15.2353357"><ele>884.0</ele><time>2026-03-29T11:43:55.377Z</time></trkpt><trkpt lat="40.3586309" lon="15.2352321"><ele>884.0000000000001</ele><time>2026-03-29T11:43:58.386Z</time></trkpt><trkpt lat="40.3587069" lon="15.2351664"><ele>884.0000000000001</ele><time>2026-03-29T11:44:00.361Z</time></trkpt><trkpt lat="40.3587767" lon="15.2351061"><ele>884.0</ele><time>2026-03-29T11:44:02.371Z</time></trkpt><trkpt lat="40.3588466" lon="15.2350535"><ele>884.0</ele><time>2026-03-29T11:44:04.366Z</time></trkpt><trkpt lat="40.3589138" lon="15.2350232"><ele>884.3333333333334</ele><time>2026-03-29T11:44:06.368Z</time></trkpt><trkpt lat="40.3589987" lon="15.2349993"><ele>884.6666666666667</ele><time>2026-03-29T11:44:08.388Z</time></trkpt><trkpt lat="40.3590648" lon="15.2350116"><ele>885.0</ele><time>2026-03-29T11:44:10.365Z</time></trkpt><trkpt lat="40.3591369" lon="15.2350349"><ele>885.3333333333333</ele><time>2026-03-29T11:44:12.382Z</time></trkpt><trkpt lat="40.3592069" lon="15.2349749"><ele>885.6666666666666</ele><time>2026-03-29T11:44:16.355Z</time></trkpt><trkpt lat="40.3592251" lon="15.234885"><ele>886.0</ele><time>2026-03-29T11:44:18.366Z</time></trkpt><trkpt lat="40.3592219" lon="15.234781"><ele>885.9999999999999</ele><time>2026-03-29T11:44:20.433Z</time></trkpt><trkpt lat="40.3591928" lon="15.2347072"><ele>886.0</ele><time>2026-03-29T11:44:22.404Z</time></trkpt><trkpt lat="40.3591431" lon="15.234601"><ele>886.0</ele><time>2026-03-29T11:44:24.377Z</time></trkpt><trkpt lat="40.3591082" lon="15.2344593"><ele>886.0</ele><time>2026-03-29T11:44:26.347Z</time></trkpt><trkpt lat="40.3590965" lon="15.2343466"><ele>885.9999999999999</ele><time>2026-03-29T11:44:28.346Z</time></trkpt><trkpt lat="40.3590838" lon="15.234251"><ele>886.0</ele><time>2026-03-29T11:44:31.362Z</time></trkpt><trkpt lat="40.3590789" lon="15.2341647"><ele>885.9999999999999</ele><time>2026-03-29T11:44:33.367Z</time></trkpt><trkpt lat="40.3590891" lon="15.2340708"><ele>886.0</ele><time>2026-03-29T11:44:35.379Z</time></trkpt><trkpt lat="40.359104" lon="15.2339867"><ele>886.0</ele><time>2026-03-29T11:44:37.357Z</time></trkpt><trkpt lat="40.3591121" lon="15.2338772"><ele>886.0</ele><time>2026-03-29T11:44:39.383Z</time></trkpt><trkpt lat="40.3591308" lon="15.2337637"><ele>885.9999999999999</ele><time>2026-03-29T11:44:41.384Z</time></trkpt><trkpt lat="40.3591604" lon="15.2336558"><ele>886.0</ele><time>2026-03-29T11:44:43.356Z</time></trkpt><trkpt lat="40.3591919" lon="15.2335773"><ele>887.1666666666666</ele><time>2026-03-29T11:44:45.369Z</time></trkpt><trkpt lat="40.3592292" lon="15.2334802"><ele>888.3333333333333</ele><time>2026-03-29T11:44:48.375Z</time></trkpt><trkpt lat="40.3592677" lon="15.2333601"><ele>889.5</ele><time>2026-03-29T11:44:51.39Z</time></trkpt><trkpt lat="40.3593082" lon="15.2332667"><ele>890.6666666666667</ele><time>2026-03-29T11:44:55.383Z</time></trkpt><trkpt lat="40.3593273" lon="15.2331558"><ele>891.8333333333334</ele><time>2026-03-29T11:45:31.384Z</time></trkpt><trkpt lat="40.3593688" lon="15.2330635"><ele>893.0</ele><time>2026-03-29T11:45:33.397Z</time></trkpt><trkpt lat="40.3594119" lon="15.2329643"><ele>894.1666666666667</ele><time>2026-03-29T11:45:35.358Z</time></trkpt><trkpt lat="40.3594554" lon="15.232863"><ele>895.3333333333334</ele><time>2026-03-29T11:45:37.376Z</time></trkpt><trkpt lat="40.3594983" lon="15.232773"><ele>896.5</ele><time>2026-03-29T11:45:39.38Z</time></trkpt><trkpt lat="40.359535" lon="15.2326677"><ele>897.6666666666667</ele><time>2026-03-29T11:45:41.396Z</time></trkpt><trkpt lat="40.3595804" lon="15.2325869"><ele>898.8333333333334</ele><time>2026-03-29T11:45:43.367Z</time></trkpt><trkpt lat="40.3596385" lon="15.2325018"><ele>900.0</ele><time>2026-03-29T11:45:45.368Z</time></trkpt><trkpt lat="40.3596907" lon="15.2324134"><ele>899.6666666666666</ele><time>2026-03-29T11:45:47.375Z</time></trkpt><trkpt lat="40.3597414" lon="15.2323262"><ele>899.3333333333333</ele><time>2026-03-29T11:45:50.393Z</time></trkpt><trkpt lat="40.3597952" lon="15.2322313"><ele>899.0</ele><time>2026-03-29T11:45:53.359Z</time></trkpt><trkpt lat="40.3598283" lon="15.2321605"><ele>898.6666666666666</ele><time>2026-03-29T11:45:55.374Z</time></trkpt><trkpt lat="40.3598798" lon="15.2320748"><ele>898.3333333333333</ele><time>2026-03-29T11:45:58.362Z</time></trkpt><trkpt lat="40.3599354" lon="15.2320053"><ele>898.0</ele><time>2026-03-29T11:46:02.375Z</time></trkpt><trkpt lat="40.3599802" lon="15.231936"><ele>897.9999999999999</ele><time>2026-03-29T11:46:04.39Z</time></trkpt><trkpt lat="40.3600316" lon="15.2318438"><ele>898.0</ele><time>2026-03-29T11:46:06.358Z</time></trkpt><trkpt lat="40.3600843" lon="15.2317528"><ele>898.0</ele><time>2026-03-29T11:46:08.383Z</time></trkpt><trkpt lat="40.3601409" lon="15.2316876"><ele>898.0</ele><time>2026-03-29T11:46:10.359Z</time></trkpt><trkpt lat="40.3601973" lon="15.2316238"><ele>897.9999999999999</ele><time>2026-03-29T11:46:12.37Z</time></trkpt><trkpt lat="40.3602512" lon="15.2315668"><ele>898.0</ele><time>2026-03-29T11:46:14.351Z</time></trkpt><trkpt lat="40.3603151" lon="15.2314958"><ele>899.8571428571428</ele><time>2026-03-29T11:46:16.376Z</time></trkpt><trkpt lat="40.3603549" lon="15.2314145"><ele>901.7142857142856</ele><time>2026-03-29T11:46:18.369Z</time></trkpt><trkpt lat="40.3603737" lon="15.2313239"><ele>903.5714285714286</ele><time>2026-03-29T11:46:20.388Z</time></trkpt><trkpt lat="40.3603778" lon="15.2312388"><ele>905.4285714285713</ele><time>2026-03-29T11:46:22.372Z</time></trkpt><trkpt lat="40.3603721" lon="15.2311494"><ele>907.2857142857142</ele><time>2026-03-29T11:46:24.391Z</time></trkpt><trkpt lat="40.3603747" lon="15.2310459"><ele>909.1428571428571</ele><time>2026-03-29T11:46:26.366Z</time></trkpt><trkpt lat="40.3603864" lon="15.230956"><ele>911.0</ele><time>2026-03-29T11:46:28.368Z</time></trkpt><trkpt lat="40.3604062" lon="15.230859"><ele>911.0000000000001</ele><time>2026-03-29T11:46:30.388Z</time></trkpt><trkpt lat="40.3604402" lon="15.2307637"><ele>911.0</ele><time>2026-03-29T11:46:32.372Z</time></trkpt><trkpt lat="40.3604745" lon="15.2306664"><ele>911.0</ele><time>2026-03-29T11:46:34.344Z</time></trkpt><trkpt lat="40.3605161" lon="15.2305089"><ele>911.0</ele><time>2026-03-29T11:46:37.415Z</time></trkpt><trkpt lat="40.3605567" lon="15.2304327"><ele>911.0000000000001</ele><time>2026-03-29T11:46:39.365Z</time></trkpt><trkpt lat="40.3606142" lon="15.2303791"><ele>911.0</ele><time>2026-03-29T11:46:42.379Z</time></trkpt><trkpt lat="40.3606986" lon="15.2303262"><ele>910.5000000000001</ele><time>2026-03-29T11:46:44.402Z</time></trkpt><trkpt lat="40.3607766" lon="15.2302742"><ele>910.0</ele><time>2026-03-29T11:46:46.368Z</time></trkpt><trkpt lat="40.3608737" lon="15.2302675"><ele>909.5</ele><time>2026-03-29T11:46:49.368Z</time></trkpt><trkpt lat="40.3609436" lon="15.2302774"><ele>909.0</ele><time>2026-03-29T11:46:51.384Z</time></trkpt><trkpt lat="40.361014" lon="15.2302542"><ele>908.5000000000001</ele><time>2026-03-29T11:46:53.382Z</time></trkpt><trkpt lat="40.3610702" lon="15.2302028"><ele>908.0</ele><time>2026-03-29T11:46:55.362Z</time></trkpt><trkpt lat="40.3611411" lon="15.2301364"><ele>908.0000000000001</ele><time>2026-03-29T11:46:57.422Z</time></trkpt><trkpt lat="40.361211" lon="15.230075"><ele>908.0</ele><time>2026-03-29T11:46:59.39Z</time></trkpt><trkpt lat="40.3612791" lon="15.2299936"><ele>908.0</ele><time>2026-03-29T11:47:01.357Z</time></trkpt><trkpt lat="40.3613282" lon="15.2298982"><ele>908.0</ele><time>2026-03-29T11:47:03.437Z</time></trkpt><trkpt lat="40.3613438" lon="15.229802"><ele>908.0000000000001</ele><time>2026-03-29T11:47:05.362Z</time></trkpt><trkpt lat="40.3613431" lon="15.2297045"><ele>908.0</ele><time>2026-03-29T11:47:07.377Z</time></trkpt><trkpt lat="40.3613334" lon="15.2295904"><ele>910.3333333333334</ele><time>2026-03-29T11:47:09.369Z</time></trkpt><trkpt lat="40.3613223" lon="15.2294675"><ele>912.6666666666667</ele><time>2026-03-29T11:47:11.36Z</time></trkpt><trkpt lat="40.3613124" lon="15.2293764"><ele>915.0</ele><time>2026-03-29T11:47:13.399Z</time></trkpt><trkpt lat="40.3612882" lon="15.2292944"><ele>917.3333333333333</ele><time>2026-03-29T11:47:15.389Z</time></trkpt><trkpt lat="40.3612608" lon="15.2292153"><ele>919.6666666666666</ele><time>2026-03-29T11:47:17.403Z</time></trkpt><trkpt lat="40.3612469" lon="15.2291009"><ele>922.0</ele><time>2026-03-29T11:47:20.398Z</time></trkpt><trkpt lat="40.3612608" lon="15.2290034"><ele>924.1666666666666</ele><time>2026-03-29T11:47:23.367Z</time></trkpt><trkpt lat="40.3612834" lon="15.2288998"><ele>926.3333333333333</ele><time>2026-03-29T11:47:26.382Z</time></trkpt><trkpt lat="40.361307" lon="15.228795"><ele>928.5</ele><time>2026-03-29T11:47:29.393Z</time></trkpt><trkpt lat="40.3613425" lon="15.228684"><ele>930.6666666666667</ele><time>2026-03-29T11:47:32.375Z</time></trkpt><trkpt lat="40.36138" lon="15.2286017"><ele>932.8333333333334</ele><time>2026-03-29T11:47:34.356Z</time></trkpt><trkpt lat="40.3614285" lon="15.2285215"><ele>935.0</ele><time>2026-03-29T11:47:36.379Z</time></trkpt><trkpt lat="40.361506" lon="15.2284464"><ele>934.1666666666667</ele><time>2026-03-29T11:47:39.358Z</time></trkpt><trkpt lat="40.3615581" lon="15.2283863"><ele>933.3333333333334</ele><time>2026-03-29T11:47:41.373Z</time></trkpt><trkpt lat="40.361616" lon="15.2283027"><ele>932.5</ele><time>2026-03-29T11:47:44.374Z</time></trkpt><trkpt lat="40.3616663" lon="15.228235"><ele>931.6666666666667</ele><time>2026-03-29T11:47:46.372Z</time></trkpt><trkpt lat="40.3617261" lon="15.2281486"><ele>930.8333333333334</ele><time>2026-03-29T11:47:49.379Z</time></trkpt><trkpt lat="40.3617777" lon="15.2280592"><ele>930.0</ele><time>2026-03-29T11:47:51.372Z</time></trkpt><trkpt lat="40.3618249" lon="15.2280019"><ele>930.0</ele><time>2026-03-29T11:47:53.371Z</time></trkpt><trkpt lat="40.3618951" lon="15.2279367"><ele>930.0</ele><time>2026-03-29T11:47:55.479Z</time></trkpt><trkpt lat="40.3619544" lon="15.2278801"><ele>930.0</ele><time>2026-03-29T11:47:57.39Z</time></trkpt><trkpt lat="40.3620113" lon="15.2278294"><ele>930.0</ele><time>2026-03-29T11:48:00.397Z</time></trkpt><trkpt lat="40.3620653" lon="15.2277718"><ele>930.0</ele><time>2026-03-29T11:48:02.366Z</time></trkpt><trkpt lat="40.3621253" lon="15.2277209"><ele>930.0</ele><time>2026-03-29T11:48:04.362Z</time></trkpt><trkpt lat="40.3621835" lon="15.2276693"><ele>930.0</ele><time>2026-03-29T11:48:06.364Z</time></trkpt><trkpt lat="40.3622434" lon="15.2276027"><ele>926.8</ele><time>2026-03-29T11:48:08.394Z</time></trkpt><trkpt lat="40.3623031" lon="15.2275145"><ele>923.6</ele><time>2026-03-29T11:48:10.377Z</time></trkpt><trkpt lat="40.3623567" lon="15.2273944"><ele>920.4000000000001</ele><time>2026-03-29T11:48:12.377Z</time></trkpt><trkpt lat="40.3624" lon="15.2272557"><ele>917.2</ele><time>2026-03-29T11:48:14.386Z</time></trkpt><trkpt lat="40.3624318" lon="15.2271291"><ele>914.0</ele><time>2026-03-29T11:48:16.375Z</time></trkpt><trkpt lat="40.3624769" lon="15.2269997"><ele>914.0</ele><time>2026-03-29T11:48:18.4Z</time></trkpt><trkpt lat="40.3625446" lon="15.2269159"><ele>914.0000000000001</ele><time>2026-03-29T11:48:20.355Z</time></trkpt><trkpt lat="40.3626351" lon="15.2268399"><ele>914.0000000000001</ele><time>2026-03-29T11:48:22.376Z</time></trkpt><trkpt lat="40.3627386" lon="15.2267468"><ele>914.0</ele><time>2026-03-29T11:48:24.39Z</time></trkpt><trkpt lat="40.3628252" lon="15.2266612"><ele>914.0</ele><time>2026-03-29T11:48:26.412Z</time></trkpt><trkpt lat="40.362898" lon="15.2265775"><ele>914.0</ele><time>2026-03-29T11:48:28.403Z</time></trkpt><trkpt lat="40.3629543" lon="15.2265071"><ele>914.0000000000001</ele><time>2026-03-29T11:48:30.369Z</time></trkpt><trkpt lat="40.3630069" lon="15.2264569"><ele>914.0000000000001</ele><time>2026-03-29T11:48:32.387Z</time></trkpt><trkpt lat="40.3630778" lon="15.2264282"><ele>914.0</ele><time>2026-03-29T11:48:35.36Z</time></trkpt><trkpt lat="40.3631724" lon="15.2264143"><ele>914.0</ele><time>2026-03-29T11:48:37.405Z</time></trkpt><trkpt lat="40.363319" lon="15.2264401"><ele>913.2</ele><time>2026-03-29T11:48:40.396Z</time></trkpt><trkpt lat="40.3634286" lon="15.2264622"><ele>912.4000000000001</ele><time>2026-03-29T11:48:42.38Z</time></trkpt><trkpt lat="40.3635314" lon="15.2264832"><ele>911.6</ele><time>2026-03-29T11:48:44.394Z</time></trkpt><trkpt lat="40.36364" lon="15.2264965"><ele>910.8</ele><time>2026-03-29T11:48:46.391Z</time></trkpt><trkpt lat="40.3637298" lon="15.226506"><ele>910.0</ele><time>2026-03-29T11:48:48.383Z</time></trkpt><trkpt lat="40.363793" lon="15.2264988"><ele>908.1428571428571</ele><time>2026-03-29T11:48:50.391Z</time></trkpt><trkpt lat="40.3638728" lon="15.226481"><ele>906.2857142857142</ele><time>2026-03-29T11:48:53.438Z</time></trkpt><trkpt lat="40.3639357" lon="15.2264891"><ele>904.4285714285714</ele><time>2026-03-29T11:48:55.39Z</time></trkpt><trkpt lat="40.3640023" lon="15.2265194"><ele>902.5714285714286</ele><time>2026-03-29T11:48:57.393Z</time></trkpt><trkpt lat="40.3640715" lon="15.2265597"><ele>900.7142857142857</ele><time>2026-03-29T11:48:59.379Z</time></trkpt><trkpt lat="40.3641402" lon="15.226606"><ele>898.8571428571429</ele><time>2026-03-29T11:49:01.405Z</time></trkpt><trkpt lat="40.3642067" lon="15.2266374"><ele>897.0</ele><time>2026-03-29T11:49:03.42Z</time></trkpt><trkpt lat="40.3642972" lon="15.226675"><ele>897.0</ele><time>2026-03-29T11:49:05.395Z</time></trkpt><trkpt lat="40.3644013" lon="15.2267221"><ele>897.0</ele><time>2026-03-29T11:49:07.387Z</time></trkpt><trkpt lat="40.3644869" lon="15.22677"><ele>897.0</ele><time>2026-03-29T11:49:09.387Z</time></trkpt><trkpt lat="40.3645668" lon="15.2268148"><ele>897.0</ele><time>2026-03-29T11:49:11.379Z</time></trkpt><trkpt lat="40.3646363" lon="15.226847"><ele>897.0</ele><time>2026-03-29T11:49:13.395Z</time></trkpt><trkpt lat="40.3647053" lon="15.2268782"><ele>897.0</ele><time>2026-03-29T11:49:15.41Z</time></trkpt><trkpt lat="40.3647724" lon="15.2269022"><ele>895.2857142857143</ele><time>2026-03-29T11:49:17.379Z</time></trkpt><trkpt lat="40.3648424" lon="15.2268968"><ele>893.5714285714286</ele><time>2026-03-29T11:49:19.408Z</time></trkpt><trkpt lat="40.3649069" lon="15.2268218"><ele>891.8571428571429</ele><time>2026-03-29T11:49:22.473Z</time></trkpt><trkpt lat="40.364933" lon="15.2267419"><ele>890.1428571428571</ele><time>2026-03-29T11:49:24.404Z</time></trkpt><trkpt lat="40.3649226" lon="15.2266543"><ele>888.4285714285713</ele><time>2026-03-29T11:49:26.382Z</time></trkpt><trkpt lat="40.3648891" lon="15.2265633"><ele>886.7142857142857</ele><time>2026-03-29T11:49:28.413Z</time></trkpt><trkpt lat="40.3648528" lon="15.2264811"><ele>885.0</ele><time>2026-03-29T11:49:30.403Z</time></trkpt><trkpt lat="40.3648072" lon="15.2263676"><ele>883.8571428571429</ele><time>2026-03-29T11:49:33.402Z</time></trkpt><trkpt lat="40.3647738" lon="15.2262813"><ele>882.7142857142857</ele><time>2026-03-29T11:49:35.381Z</time></trkpt><trkpt lat="40.3647587" lon="15.2262002"><ele>881.5714285714287</ele><time>2026-03-29T11:49:37.407Z</time></trkpt><trkpt lat="40.364745" lon="15.2261173"><ele>880.4285714285714</ele><time>2026-03-29T11:49:39.388Z</time></trkpt><trkpt lat="40.3647318" lon="15.2260265"><ele>879.2857142857143</ele><time>2026-03-29T11:49:41.394Z</time></trkpt><trkpt lat="40.3647271" lon="15.225923"><ele>878.1428571428572</ele><time>2026-03-29T11:49:46.388Z</time></trkpt><trkpt lat="40.3647282" lon="15.2258091"><ele>877.0</ele><time>2026-03-29T11:49:49.374Z</time></trkpt><trkpt lat="40.3647345" lon="15.2257257"><ele>875.9999999999999</ele><time>2026-03-29T11:49:51.395Z</time></trkpt><trkpt lat="40.3647413" lon="15.2256331"><ele>875.0</ele><time>2026-03-29T11:49:53.452Z</time></trkpt><trkpt lat="40.3647417" lon="15.2255412"><ele>874.0</ele><time>2026-03-29T11:49:55.393Z</time></trkpt><trkpt lat="40.3647418" lon="15.2254078"><ele>873.0</ele><time>2026-03-29T11:49:58.4Z</time></trkpt><trkpt lat="40.3647307" lon="15.2253171"><ele>871.9999999999999</ele><time>2026-03-29T11:50:00.414Z</time></trkpt><trkpt lat="40.3647053" lon="15.2252077"><ele>871.0</ele><time>2026-03-29T11:50:03.384Z</time></trkpt><trkpt lat="40.364663" lon="15.2250907"><ele>872.0</ele><time>2026-03-29T11:50:06.372Z</time></trkpt><trkpt lat="40.3646278" lon="15.2250166"><ele>873.0</ele><time>2026-03-29T11:50:08.371Z</time></trkpt><trkpt lat="40.3645911" lon="15.2249355"><ele>874.0</ele><time>2026-03-29T11:50:10.39Z</time></trkpt><trkpt lat="40.3645562" lon="15.2248489"><ele>875.0</ele><time>2026-03-29T11:50:12.375Z</time></trkpt><trkpt lat="40.3645297" lon="15.2247469"><ele>876.0</ele><time>2026-03-29T11:50:14.372Z</time></trkpt><trkpt lat="40.3645115" lon="15.2246535"><ele>877.0</ele><time>2026-03-29T11:50:16.394Z</time></trkpt><trkpt lat="40.3645251" lon="15.2245654"><ele>878.0</ele><time>2026-03-29T11:50:18.37Z</time></trkpt><trkpt lat="40.3645375" lon="15.2244648"><ele>878.0000000000001</ele><time>2026-03-29T11:50:20.382Z</time></trkpt><trkpt lat="40.3645607" lon="15.2243776"><ele>878.0</ele><time>2026-03-29T11:50:22.49Z</time></trkpt><trkpt lat="40.3645871" lon="15.2242776"><ele>878.0</ele><time>2026-03-29T11:50:24.414Z</time></trkpt><trkpt lat="40.3646113" lon="15.2241714"><ele>878.0</ele><time>2026-03-29T11:50:26.41Z</time></trkpt><trkpt lat="40.364624" lon="15.2240638"><ele>878.0000000000001</ele><time>2026-03-29T11:50:28.392Z</time></trkpt><trkpt lat="40.364628" lon="15.2239736"><ele>878.0</ele><time>2026-03-29T11:50:30.369Z</time></trkpt><trkpt lat="40.3646382" lon="15.2238871"><ele>877.4285714285714</ele><time>2026-03-29T11:50:32.386Z</time></trkpt><trkpt lat="40.3646503" lon="15.2237999"><ele>876.8571428571429</ele><time>2026-03-29T11:50:34.404Z</time></trkpt><trkpt lat="40.364667" lon="15.2237175"><ele>876.2857142857142</ele><time>2026-03-29T11:50:36.361Z</time></trkpt><trkpt lat="40.364685" lon="15.2236321"><ele>875.7142857142858</ele><time>2026-03-29T11:50:38.374Z</time></trkpt><trkpt lat="40.3646993" lon="15.2235286"><ele>875.1428571428572</ele><time>2026-03-29T11:50:40.379Z</time></trkpt><trkpt lat="40.3647127" lon="15.2234429"><ele>874.5714285714286</ele><time>2026-03-29T11:50:42.388Z</time></trkpt><trkpt lat="40.3647219" lon="15.2233515"><ele>874.0</ele><time>2026-03-29T11:50:44.374Z</time></trkpt><trkpt lat="40.3647338" lon="15.2232346"><ele>873.6666666666666</ele><time>2026-03-29T11:50:46.382Z</time></trkpt><trkpt lat="40.3647508" lon="15.2231228"><ele>873.3333333333333</ele><time>2026-03-29T11:50:48.412Z</time></trkpt><trkpt lat="40.3647646" lon="15.2230396"><ele>873.0</ele><time>2026-03-29T11:50:50.395Z</time></trkpt><trkpt lat="40.3647687" lon="15.2229209"><ele>872.6666666666667</ele><time>2026-03-29T11:50:53.373Z</time></trkpt><trkpt lat="40.3647754" lon="15.2228055"><ele>872.3333333333334</ele><time>2026-03-29T11:50:55.388Z</time></trkpt><trkpt lat="40.3647859" lon="15.222681"><ele>872.0</ele><time>2026-03-29T11:50:57.378Z</time></trkpt><trkpt lat="40.3647954" lon="15.2225478"><ele>872.0000000000001</ele><time>2026-03-29T11:50:59.345Z</time></trkpt><trkpt lat="40.3648075" lon="15.2224073"><ele>872.0</ele><time>2026-03-29T11:51:01.391Z</time></trkpt><trkpt lat="40.3648289" lon="15.2222978"><ele>872.0</ele><time>2026-03-29T11:51:03.403Z</time></trkpt><trkpt lat="40.3648464" lon="15.2221977"><ele>872.0</ele><time>2026-03-29T11:51:05.371Z</time></trkpt><trkpt lat="40.3648465" lon="15.2221111"><ele>872.0000000000001</ele><time>2026-03-29T11:51:07.364Z</time></trkpt><trkpt lat="40.3648501" lon="15.222"><ele>872.0</ele><time>2026-03-29T11:51:11.35Z</time></trkpt><trkpt lat="40.3648691" lon="15.2218929"><ele>871.4000000000001</ele><time>2026-03-29T11:51:13.39Z</time></trkpt><trkpt lat="40.3648917" lon="15.2217705"><ele>870.8000000000001</ele><time>2026-03-29T11:51:15.402Z</time></trkpt><trkpt lat="40.3649077" lon="15.2216651"><ele>870.2</ele><time>2026-03-29T11:51:17.375Z</time></trkpt><trkpt lat="40.3649184" lon="15.2215271"><ele>869.6</ele><time>2026-03-29T11:51:19.376Z</time></trkpt><trkpt lat="40.3649274" lon="15.2213867"><ele>869.0</ele><time>2026-03-29T11:51:21.385Z</time></trkpt><trkpt lat="40.3649455" lon="15.2212509"><ele>869.0</ele><time>2026-03-29T11:51:23.353Z</time></trkpt><trkpt lat="40.3649725" lon="15.2211195"><ele>869.0</ele><time>2026-03-29T11:51:25.3Z</time></trkpt><trkpt lat="40.3650019" lon="15.2209758"><ele>869.0</ele><time>2026-03-29T11:51:27.326Z</time></trkpt><trkpt lat="40.365023" lon="15.2208257"><ele>869.0</ele><time>2026-03-29T11:51:29.337Z</time></trkpt><trkpt lat="40.3650447" lon="15.2206698"><ele>869.0</ele><time>2026-03-29T11:51:31.325Z</time></trkpt><trkpt lat="40.3650688" lon="15.2205202"><ele>869.0000000000001</ele><time>2026-03-29T11:51:33.321Z</time></trkpt><trkpt lat="40.3650839" lon="15.2203791"><ele>869.0000000000001</ele><time>2026-03-29T11:51:35.332Z</time></trkpt><trkpt lat="40.3650935" lon="15.2202535"><ele>869.0</ele><time>2026-03-29T11:51:37.342Z</time></trkpt><trkpt lat="40.3651029" lon="15.2201344"><ele>869.0</ele><time>2026-03-29T11:51:39.369Z</time></trkpt><trkpt lat="40.365122" lon="15.2200212"><ele>869.0</ele><time>2026-03-29T11:51:41.374Z</time></trkpt><trkpt lat="40.3651578" lon="15.2198579"><ele>869.0000000000001</ele><time>2026-03-29T11:51:44.397Z</time></trkpt><trkpt lat="40.3651873" lon="15.2197429"><ele>869.0000000000001</ele><time>2026-03-29T11:51:46.37Z</time></trkpt><trkpt lat="40.3652093" lon="15.219645"><ele>869.0</ele><time>2026-03-29T11:51:48.379Z</time></trkpt><trkpt lat="40.3652321" lon="15.219539"><ele>869.0</ele><time>2026-03-29T11:51:50.395Z</time></trkpt><trkpt lat="40.3652594" lon="15.2194286"><ele>870.0</ele><time>2026-03-29T11:51:52.374Z</time></trkpt><trkpt lat="40.3652929" lon="15.2193176"><ele>871.0000000000001</ele><time>2026-03-29T11:51:54.4Z</time></trkpt><trkpt lat="40.3653252" lon="15.219209"><ele>872.0000000000001</ele><time>2026-03-29T11:51:56.398Z</time></trkpt><trkpt lat="40.3653582" lon="15.2191004"><ele>873.0</ele><time>2026-03-29T11:51:58.375Z</time></trkpt><trkpt lat="40.3653929" lon="15.218941"><ele>874.0</ele><time>2026-03-29T11:52:01.379Z</time></trkpt><trkpt lat="40.3654035" lon="15.218842"><ele>874.6666666666666</ele><time>2026-03-29T11:52:03.353Z</time></trkpt><trkpt lat="40.3653991" lon="15.2187309"><ele>875.3333333333333</ele><time>2026-03-29T11:52:05.35Z</time></trkpt><trkpt lat="40.3653783" lon="15.2186208"><ele>876.0</ele><time>2026-03-29T11:52:07.359Z</time></trkpt><trkpt lat="40.3653643" lon="15.2185243"><ele>876.6666666666667</ele><time>2026-03-29T11:52:09.358Z</time></trkpt><trkpt lat="40.3653655" lon="15.2184387"><ele>877.3333333333334</ele><time>2026-03-29T11:52:11.377Z</time></trkpt><trkpt lat="40.3653916" lon="15.2183413"><ele>878.0</ele><time>2026-03-29T11:52:14.345Z</time></trkpt><trkpt lat="40.3654448" lon="15.2182462"><ele>878.0000000000001</ele><time>2026-03-29T11:52:17.348Z</time></trkpt><trkpt lat="40.3655052" lon="15.2181831"><ele>878.0</ele><time>2026-03-29T11:52:19.327Z</time></trkpt><trkpt lat="40.3655781" lon="15.2181349"><ele>878.0</ele><time>2026-03-29T11:52:21.342Z</time></trkpt><trkpt lat="40.3656761" lon="15.21809"><ele>878.0</ele><time>2026-03-29T11:52:23.344Z</time></trkpt><trkpt lat="40.3657511" lon="15.2180762"><ele>878.0000000000001</ele><time>2026-03-29T11:52:25.341Z</time></trkpt><trkpt lat="40.3658352" lon="15.2180411"><ele>878.0</ele><time>2026-03-29T11:52:27.36Z</time></trkpt><trkpt lat="40.3659186" lon="15.2180043"><ele>877.8</ele><time>2026-03-29T11:52:29.347Z</time></trkpt><trkpt lat="40.366013" lon="15.2179641"><ele>877.5999999999999</ele><time>2026-03-29T11:52:31.347Z</time></trkpt><trkpt lat="40.3661163" lon="15.217929"><ele>877.4000000000001</ele><time>2026-03-29T11:52:33.361Z</time></trkpt><trkpt lat="40.3662261" lon="15.2178965"><ele>877.2</ele><time>2026-03-29T11:52:35.398Z</time></trkpt><trkpt lat="40.3663312" lon="15.2178532"><ele>877.0</ele><time>2026-03-29T11:52:37.381Z</time></trkpt><trkpt lat="40.3664148" lon="15.2177982"><ele>875.8</ele><time>2026-03-29T11:52:39.377Z</time></trkpt><trkpt lat="40.3664906" lon="15.2177295"><ele>874.6</ele><time>2026-03-29T11:52:41.401Z</time></trkpt><trkpt lat="40.3665601" lon="15.2176455"><ele>873.3999999999999</ele><time>2026-03-29T11:52:43.392Z</time></trkpt><trkpt lat="40.3666288" lon="15.2175571"><ele>872.1999999999999</ele><time>2026-03-29T11:52:45.386Z</time></trkpt><trkpt lat="40.3667139" lon="15.2174638"><ele>871.0</ele><time>2026-03-29T11:52:47.392Z</time></trkpt><trkpt lat="40.366794" lon="15.2173748"><ele>872.4</ele><time>2026-03-29T11:52:49.397Z</time></trkpt><trkpt lat="40.3668691" lon="15.2172936"><ele>873.8</ele><time>2026-03-29T11:52:51.379Z</time></trkpt><trkpt lat="40.3669317" lon="15.2172263"><ele>875.1999999999999</ele><time>2026-03-29T11:52:53.382Z</time></trkpt><trkpt lat="40.3669879" lon="15.217176"><ele>876.5999999999999</ele><time>2026-03-29T11:52:55.356Z</time></trkpt><trkpt lat="40.3670785" lon="15.2170856"><ele>878.0</ele><time>2026-03-29T11:52:57.337Z</time></trkpt><trkpt lat="40.367169" lon="15.2169906"><ele>876.3333333333334</ele><time>2026-03-29T11:52:59.367Z</time></trkpt><trkpt lat="40.3672325" lon="15.2169265"><ele>874.6666666666667</ele><time>2026-03-29T11:53:01.397Z</time></trkpt><trkpt lat="40.3672976" lon="15.2168547"><ele>873.0</ele><time>2026-03-29T11:53:04.327Z</time></trkpt><trkpt lat="40.3673614" lon="15.216777"><ele>871.3333333333333</ele><time>2026-03-29T11:53:07.329Z</time></trkpt><trkpt lat="40.3674123" lon="15.2166945"><ele>869.6666666666666</ele><time>2026-03-29T11:53:09.371Z</time></trkpt><trkpt lat="40.3674559" lon="15.2166192"><ele>868.0</ele><time>2026-03-29T11:53:11.483Z</time></trkpt><trkpt lat="40.3674938" lon="15.2165452"><ele>867.8333333333333</ele><time>2026-03-29T11:53:13.392Z</time></trkpt><trkpt lat="40.3675417" lon="15.2164555"><ele>867.6666666666666</ele><time>2026-03-29T11:53:16.368Z</time></trkpt><trkpt lat="40.3675773" lon="15.2163849"><ele>867.5</ele><time>2026-03-29T11:53:18.453Z</time></trkpt><trkpt lat="40.3676085" lon="15.2163092"><ele>867.3333333333333</ele><time>2026-03-29T11:53:20.381Z</time></trkpt><trkpt lat="40.367629" lon="15.2162303"><ele>867.1666666666666</ele><time>2026-03-29T11:53:22.387Z</time></trkpt><trkpt lat="40.3676699" lon="15.2161135"><ele>867.0</ele><time>2026-03-29T11:53:25.342Z</time></trkpt><trkpt lat="40.3677194" lon="15.2160122"><ele>867.0</ele><time>2026-03-29T11:53:27.39Z</time></trkpt><trkpt lat="40.3677854" lon="15.2159085"><ele>867.0</ele><time>2026-03-29T11:53:29.376Z</time></trkpt><trkpt lat="40.3678274" lon="15.2158256"><ele>867.0</ele><time>2026-03-29T11:53:31.374Z</time></trkpt><trkpt lat="40.3678914" lon="15.2157463"><ele>867.0</ele><time>2026-03-29T11:53:37.472Z</time></trkpt><trkpt lat="40.3679516" lon="15.2157079"><ele>867.0</ele><time>2026-03-29T11:53:40.401Z</time></trkpt><trkpt lat="40.3680311" lon="15.2156515"><ele>867.0</ele><time>2026-03-29T11:53:43.337Z</time></trkpt><trkpt lat="40.3681095" lon="15.2156032"><ele>867.6666666666666</ele><time>2026-03-29T11:53:45.351Z</time></trkpt><trkpt lat="40.3681802" lon="15.215572"><ele>868.3333333333333</ele><time>2026-03-29T11:53:47.339Z</time></trkpt><trkpt lat="40.3682697" lon="15.2155322"><ele>869.0</ele><time>2026-03-29T11:53:49.376Z</time></trkpt><trkpt lat="40.3683647" lon="15.2154739"><ele>869.6666666666666</ele><time>2026-03-29T11:53:51.368Z</time></trkpt><trkpt lat="40.3684239" lon="15.2154408"><ele>870.3333333333333</ele><time>2026-03-29T11:53:52.353Z</time></trkpt><trkpt lat="40.368523" lon="15.2153973"><ele>871.0</ele><time>2026-03-29T11:53:54.367Z</time></trkpt><trkpt lat="40.3686242" lon="15.2153601"><ele>871.0</ele><time>2026-03-29T11:53:56.401Z</time></trkpt><trkpt lat="40.3687332" lon="15.2153346"><ele>870.9999999999999</ele><time>2026-03-29T11:53:58.435Z</time></trkpt><trkpt lat="40.3688286" lon="15.2153215"><ele>870.9999999999999</ele><time>2026-03-29T11:54:00.394Z</time></trkpt><trkpt lat="40.3689214" lon="15.2153081"><ele>871.0</ele><time>2026-03-29T11:54:02.428Z</time></trkpt><trkpt lat="40.3690063" lon="15.215299"><ele>871.0</ele><time>2026-03-29T11:54:04.405Z</time></trkpt><trkpt lat="40.3690947" lon="15.2152895"><ele>871.1666666666666</ele><time>2026-03-29T11:54:06.388Z</time></trkpt><trkpt lat="40.3691826" lon="15.2152789"><ele>871.3333333333333</ele><time>2026-03-29T11:54:08.385Z</time></trkpt><trkpt lat="40.3692661" lon="15.2152595"><ele>871.5</ele><time>2026-03-29T11:54:10.415Z</time></trkpt><trkpt lat="40.3693753" lon="15.2152429"><ele>871.6666666666667</ele><time>2026-03-29T11:54:12.398Z</time></trkpt><trkpt lat="40.3694592" lon="15.2152434"><ele>871.8333333333334</ele><time>2026-03-29T11:54:14.367Z</time></trkpt><trkpt lat="40.3695253" lon="15.2152395"><ele>872.0</ele><time>2026-03-29T11:54:16.396Z</time></trkpt><trkpt lat="40.3696047" lon="15.2152353"><ele>872.8</ele><time>2026-03-29T11:54:18.386Z</time></trkpt><trkpt lat="40.3696966" lon="15.2152372"><ele>873.6</ele><time>2026-03-29T11:54:20.395Z</time></trkpt><trkpt lat="40.3697886" lon="15.2152455"><ele>874.3999999999999</ele><time>2026-03-29T11:54:22.399Z</time></trkpt><trkpt lat="40.3698806" lon="15.215256"><ele>875.1999999999999</ele><time>2026-03-29T11:54:24.361Z</time></trkpt><trkpt lat="40.3699828" lon="15.2152709"><ele>876.0</ele><time>2026-03-29T11:54:26.379Z</time></trkpt><trkpt lat="40.3700622" lon="15.2152847"><ele>876.0</ele><time>2026-03-29T11:54:28.405Z</time></trkpt><trkpt lat="40.3701591" lon="15.2152927"><ele>876.0</ele><time>2026-03-29T11:54:31.4Z</time></trkpt><trkpt lat="40.3702276" lon="15.2153132"><ele>876.0</ele><time>2026-03-29T11:54:33.401Z</time></trkpt><trkpt lat="40.3703114" lon="15.2153451"><ele>876.0</ele><time>2026-03-29T11:54:36.385Z</time></trkpt><trkpt lat="40.3703755" lon="15.2153761"><ele>876.0</ele><time>2026-03-29T11:54:38.38Z</time></trkpt><trkpt lat="40.3704379" lon="15.2153996"><ele>876.0</ele><time>2026-03-29T11:54:40.483Z</time></trkpt><trkpt lat="40.3705101" lon="15.21539"><ele>876.5</ele><time>2026-03-29T11:54:43.397Z</time></trkpt><trkpt lat="40.3706013" lon="15.2153669"><ele>877.0</ele><time>2026-03-29T11:54:46.386Z</time></trkpt><trkpt lat="40.3706717" lon="15.2153553"><ele>877.5</ele><time>2026-03-29T11:54:48.427Z</time></trkpt><trkpt lat="40.370751" lon="15.2153601"><ele>878.0</ele><time>2026-03-29T11:54:50.412Z</time></trkpt><trkpt lat="40.3708396" lon="15.2154001"><ele>878.5</ele><time>2026-03-29T11:54:52.407Z</time></trkpt><trkpt lat="40.3709179" lon="15.2154522"><ele>879.0</ele><time>2026-03-29T11:54:54.379Z</time></trkpt><trkpt lat="40.3709873" lon="15.2155238"><ele>879.0</ele><time>2026-03-29T11:54:56.412Z</time></trkpt><trkpt lat="40.3710419" lon="15.2156013"><ele>879.0</ele><time>2026-03-29T11:54:58.37Z</time></trkpt><trkpt lat="40.3710886" lon="15.215678"><ele>879.0</ele><time>2026-03-29T11:55:00.403Z</time></trkpt><trkpt lat="40.3711386" lon="15.2157448"><ele>879.0</ele><time>2026-03-29T11:55:02.412Z</time></trkpt><trkpt lat="40.371201" lon="15.2157706"><ele>879.0</ele><time>2026-03-29T11:55:04.411Z</time></trkpt><trkpt lat="40.3713" lon="15.2157643"><ele>879.0</ele><time>2026-03-29T11:55:07.384Z</time></trkpt><trkpt lat="40.3713914" lon="15.2157482"><ele>874.0</ele><time>2026-03-29T11:55:10.389Z</time></trkpt><trkpt lat="40.3714665" lon="15.2157466"><ele>869.0</ele><time>2026-03-29T11:55:12.382Z</time></trkpt><trkpt lat="40.3715529" lon="15.2157456"><ele>864.0</ele><time>2026-03-29T11:55:15.373Z</time></trkpt><trkpt lat="40.371636" lon="15.2157585"><ele>859.0</ele><time>2026-03-29T11:55:17.392Z</time></trkpt><trkpt lat="40.3717211" lon="15.2157983"><ele>854.0</ele><time>2026-03-29T11:55:19.389Z</time></trkpt><trkpt lat="40.3717933" lon="15.2158577"><ele>849.0</ele><time>2026-03-29T11:55:21.37Z</time></trkpt><trkpt lat="40.3718556" lon="15.2158933"><ele>849.0</ele><time>2026-03-29T11:55:23.405Z</time></trkpt><trkpt lat="40.3719335" lon="15.2158743"><ele>849.0</ele><time>2026-03-29T11:55:26.382Z</time></trkpt><trkpt lat="40.3720123" lon="15.2158094"><ele>849.0</ele><time>2026-03-29T11:55:28.371Z</time></trkpt><trkpt lat="40.372083" lon="15.215753"><ele>849.0</ele><time>2026-03-29T11:55:30.405Z</time></trkpt><trkpt lat="40.3721537" lon="15.2157262"><ele>849.0</ele><time>2026-03-29T11:55:32.385Z</time></trkpt><trkpt lat="40.3722304" lon="15.2157476"><ele>849.0</ele><time>2026-03-29T11:55:34.398Z</time></trkpt><trkpt lat="40.3723308" lon="15.2158073"><ele>848.2</ele><time>2026-03-29T11:55:36.408Z</time></trkpt><trkpt lat="40.3724225" lon="15.2158316"><ele>847.4000000000001</ele><time>2026-03-29T11:55:38.394Z</time></trkpt><trkpt lat="40.372514" lon="15.2158319"><ele>846.6</ele><time>2026-03-29T11:55:40.434Z</time></trkpt><trkpt lat="40.3725936" lon="15.215829"><ele>845.8</ele><time>2026-03-29T11:55:42.403Z</time></trkpt><trkpt lat="40.3726937" lon="15.215828"><ele>845.0</ele><time>2026-03-29T11:55:44.397Z</time></trkpt><trkpt lat="40.3727864" lon="15.2158257"><ele>845.0</ele><time>2026-03-29T11:55:46.39Z</time></trkpt><trkpt lat="40.3728894" lon="15.2158315"><ele>845.0</ele><time>2026-03-29T11:55:48.396Z</time></trkpt><trkpt lat="40.3729751" lon="15.2158463"><ele>845.0</ele><time>2026-03-29T11:55:50.411Z</time></trkpt><trkpt lat="40.3730743" lon="15.2158708"><ele>845.0</ele><time>2026-03-29T11:55:52.385Z</time></trkpt><trkpt lat="40.3731859" lon="15.215904"><ele>845.0</ele><time>2026-03-29T11:55:54.405Z</time></trkpt><trkpt lat="40.3732731" lon="15.2159322"><ele>844.8333333333334</ele><time>2026-03-29T11:55:56.4Z</time></trkpt><trkpt lat="40.3733542" lon="15.2159539"><ele>844.6666666666667</ele><time>2026-03-29T11:55:58.386Z</time></trkpt><trkpt lat="40.3734234" lon="15.2159716"><ele>844.5</ele><time>2026-03-29T11:56:00.402Z</time></trkpt><trkpt lat="40.3735168" lon="15.2159769"><ele>844.3333333333333</ele><time>2026-03-29T11:56:03.395Z</time></trkpt><trkpt lat="40.3735789" lon="15.2159969"><ele>844.1666666666666</ele><time>2026-03-29T11:56:05.396Z</time></trkpt><trkpt lat="40.3736736" lon="15.2160129"><ele>844.0</ele><time>2026-03-29T11:56:08.39Z</time></trkpt><trkpt lat="40.3737414" lon="15.2160225"><ele>843.9999999999999</ele><time>2026-03-29T11:56:10.384Z</time></trkpt><trkpt lat="40.3738131" lon="15.2160299"><ele>844.0</ele><time>2026-03-29T11:56:12.387Z</time></trkpt><trkpt lat="40.3739023" lon="15.2160572"><ele>844.0</ele><time>2026-03-29T11:56:15.391Z</time></trkpt><trkpt lat="40.3739747" lon="15.2160876"><ele>844.0</ele><time>2026-03-29T11:56:18.459Z</time></trkpt><trkpt lat="40.3740479" lon="15.2161115"><ele>843.9999999999999</ele><time>2026-03-29T11:56:21.4Z</time></trkpt><trkpt lat="40.3741184" lon="15.2161433"><ele>844.0</ele><time>2026-03-29T11:56:23.393Z</time></trkpt><trkpt lat="40.3741916" lon="15.2161857"><ele>844.6666666666666</ele><time>2026-03-29T11:56:25.399Z</time></trkpt><trkpt lat="40.3742597" lon="15.2162268"><ele>845.3333333333333</ele><time>2026-03-29T11:56:27.389Z</time></trkpt><trkpt lat="40.3743268" lon="15.2162854"><ele>846.0</ele><time>2026-03-29T11:56:29.399Z</time></trkpt><trkpt lat="40.3743963" lon="15.2163432"><ele>846.6666666666667</ele><time>2026-03-29T11:56:31.47Z</time></trkpt><trkpt lat="40.3744596" lon="15.2163998"><ele>847.3333333333334</ele><time>2026-03-29T11:56:33.44Z</time></trkpt><trkpt lat="40.3745165" lon="15.2164537"><ele>848.0</ele><time>2026-03-29T11:56:35.386Z</time></trkpt><trkpt lat="40.3745776" lon="15.2165195"><ele>844.5000000000001</ele><time>2026-03-29T11:56:37.392Z</time></trkpt><trkpt lat="40.3746346" lon="15.2165945"><ele>841.0</ele><time>2026-03-29T11:56:39.398Z</time></trkpt><trkpt lat="40.3746837" lon="15.216661"><ele>837.5</ele><time>2026-03-29T11:56:41.428Z</time></trkpt><trkpt lat="40.3747397" lon="15.2167377"><ele>834.0</ele><time>2026-03-29T11:56:43.516Z</time></trkpt><trkpt lat="40.374805" lon="15.2168003"><ele>830.5000000000001</ele><time>2026-03-29T11:56:45.505Z</time></trkpt><trkpt lat="40.3748599" lon="15.2168582"><ele>827.0</ele><time>2026-03-29T11:56:47.404Z</time></trkpt><trkpt lat="40.3749163" lon="15.2169281"><ele>827.0000000000001</ele><time>2026-03-29T11:56:49.383Z</time></trkpt><trkpt lat="40.3749793" lon="15.2170051"><ele>827.0</ele><time>2026-03-29T11:56:51.51Z</time></trkpt><trkpt lat="40.375034" lon="15.2170746"><ele>827.0</ele><time>2026-03-29T11:56:53.385Z</time></trkpt><trkpt lat="40.3750939" lon="15.2171525"><ele>827.0</ele><time>2026-03-29T11:56:55.403Z</time></trkpt><trkpt lat="40.3751704" lon="15.2172349"><ele>827.0000000000001</ele><time>2026-03-29T11:56:57.389Z</time></trkpt><trkpt lat="40.3752372" lon="15.2172844"><ele>827.0</ele><time>2026-03-29T11:56:59.407Z</time></trkpt><trkpt lat="40.3753095" lon="15.2173199"><ele>824.0</ele><time>2026-03-29T11:57:01.375Z</time></trkpt><trkpt lat="40.3753996" lon="15.2173661"><ele>821.0</ele><time>2026-03-29T11:57:03.407Z</time></trkpt><trkpt lat="40.3755062" lon="15.2173997"><ele>818.0</ele><time>2026-03-29T11:57:05.374Z</time></trkpt><trkpt lat="40.3755989" lon="15.2174365"><ele>815.0</ele><time>2026-03-29T11:57:07.408Z</time></trkpt><trkpt lat="40.3756747" lon="15.2174753"><ele>812.0</ele><time>2026-03-29T11:57:09.411Z</time></trkpt><trkpt lat="40.3757667" lon="15.2175295"><ele>812.0</ele><time>2026-03-29T11:57:11.408Z</time></trkpt><trkpt lat="40.3758736" lon="15.2175703"><ele>812.0</ele><time>2026-03-29T11:57:13.387Z</time></trkpt><trkpt lat="40.3759717" lon="15.2175963"><ele>812.0</ele><time>2026-03-29T11:57:15.393Z</time></trkpt><trkpt lat="40.3760404" lon="15.2175959"><ele>812.0</ele><time>2026-03-29T11:57:17.392Z</time></trkpt><trkpt lat="40.3761214" lon="15.2175406"><ele>812.0</ele><time>2026-03-29T11:57:20.415Z</time></trkpt><trkpt lat="40.3761934" lon="15.2174936"><ele>812.0</ele><time>2026-03-29T11:57:22.411Z</time></trkpt><trkpt lat="40.3762791" lon="15.2174466"><ele>812.0</ele><time>2026-03-29T11:57:24.408Z</time></trkpt><trkpt lat="40.3763813" lon="15.2173949"><ele>812.0</ele><time>2026-03-29T11:57:26.513Z</time></trkpt><trkpt lat="40.3764558" lon="15.2173477"><ele>812.0</ele><time>2026-03-29T11:57:28.386Z</time></trkpt><trkpt lat="40.3765311" lon="15.2172853"><ele>812.0</ele><time>2026-03-29T11:57:30.374Z</time></trkpt><trkpt lat="40.3765978" lon="15.2172316"><ele>813.6666666666667</ele><time>2026-03-29T11:57:32.392Z</time></trkpt><trkpt lat="40.3766549" lon="15.2171723"><ele>815.3333333333334</ele><time>2026-03-29T11:57:34.385Z</time></trkpt><trkpt lat="40.3767051" lon="15.2171025"><ele>817.0</ele><time>2026-03-29T11:57:36.384Z</time></trkpt><trkpt lat="40.3767513" lon="15.2170304"><ele>818.6666666666667</ele><time>2026-03-29T11:57:38.4Z</time></trkpt><trkpt lat="40.3767964" lon="15.2169534"><ele>820.3333333333334</ele><time>2026-03-29T11:57:40.39Z</time></trkpt><trkpt lat="40.3768448" lon="15.2168858"><ele>822.0</ele><time>2026-03-29T11:57:42.383Z</time></trkpt><trkpt lat="40.3769077" lon="15.2168038"><ele>822.0</ele><time>2026-03-29T11:57:44.381Z</time></trkpt><trkpt lat="40.3769749" lon="15.216718"><ele>822.0</ele><time>2026-03-29T11:57:47.486Z</time></trkpt><trkpt lat="40.3770257" lon="15.2166525"><ele>822.0</ele><time>2026-03-29T11:57:49.393Z</time></trkpt><trkpt lat="40.3770904" lon="15.2165662"><ele>822.0</ele><time>2026-03-29T11:57:52.378Z</time></trkpt><trkpt lat="40.3771404" lon="15.216488"><ele>822.0</ele><time>2026-03-29T11:57:54.387Z</time></trkpt><trkpt lat="40.3771942" lon="15.2164196"><ele>822.0</ele><time>2026-03-29T11:57:56.389Z</time></trkpt><trkpt lat="40.3772478" lon="15.2163631"><ele>819.5</ele><time>2026-03-29T11:57:58.451Z</time></trkpt><trkpt lat="40.3773025" lon="15.2163183"><ele>817.0</ele><time>2026-03-29T11:58:00.403Z</time></trkpt><trkpt lat="40.3773793" lon="15.2162855"><ele>814.5</ele><time>2026-03-29T11:58:03.381Z</time></trkpt><trkpt lat="40.3774466" lon="15.2162416"><ele>812.0</ele><time>2026-03-29T11:58:06.373Z</time></trkpt><trkpt lat="40.3775167" lon="15.2161675"><ele>809.5</ele><time>2026-03-29T11:58:09.375Z</time></trkpt><trkpt lat="40.3775855" lon="15.2161053"><ele>807.0</ele><time>2026-03-29T11:58:11.392Z</time></trkpt><trkpt lat="40.3776472" lon="15.2160525"><ele>807.0</ele><time>2026-03-29T11:58:13.389Z</time></trkpt><trkpt lat="40.3777346" lon="15.2159558"><ele>807.0</ele><time>2026-03-29T11:58:16.407Z</time></trkpt><trkpt lat="40.3777787" lon="15.2158798"><ele>807.0</ele><time>2026-03-29T11:58:18.38Z</time></trkpt><trkpt lat="40.3778088" lon="15.2157991"><ele>807.0</ele><time>2026-03-29T11:58:20.378Z</time></trkpt><trkpt lat="40.3778471" lon="15.2157035"><ele>807.0</ele><time>2026-03-29T11:58:23.393Z</time></trkpt><trkpt lat="40.3778637" lon="15.2156144"><ele>807.0</ele><time>2026-03-29T11:58:27.373Z</time></trkpt><trkpt lat="40.3778819" lon="15.215527"><ele>803.8333333333334</ele><time>2026-03-29T11:58:30.448Z</time></trkpt><trkpt lat="40.3779032" lon="15.2154196"><ele>800.6666666666667</ele><time>2026-03-29T11:58:33.388Z</time></trkpt><trkpt lat="40.3779307" lon="15.2153337"><ele>797.5</ele><time>2026-03-29T11:58:35.418Z</time></trkpt><trkpt lat="40.3779705" lon="15.2152288"><ele>794.3333333333334</ele><time>2026-03-29T11:58:37.417Z</time></trkpt><trkpt lat="40.3780199" lon="15.2151347"><ele>791.1666666666667</ele><time>2026-03-29T11:58:39.406Z</time></trkpt><trkpt lat="40.378068" lon="15.2150519"><ele>788.0</ele><time>2026-03-29T11:58:41.444Z</time></trkpt><trkpt lat="40.3781384" lon="15.2149526"><ele>788.0000000000001</ele><time>2026-03-29T11:58:43.43Z</time></trkpt><trkpt lat="40.3782048" lon="15.2148648"><ele>788.0</ele><time>2026-03-29T11:58:45.403Z</time></trkpt><trkpt lat="40.3782548" lon="15.21479"><ele>788.0</ele><time>2026-03-29T11:58:47.393Z</time></trkpt><trkpt lat="40.3782942" lon="15.2147251"><ele>788.0</ele><time>2026-03-29T11:58:49.388Z</time></trkpt><trkpt lat="40.3783448" lon="15.2146598"><ele>788.0000000000001</ele><time>2026-03-29T11:58:52.391Z</time></trkpt><trkpt lat="40.3783966" lon="15.2145974"><ele>788.0</ele><time>2026-03-29T11:58:55.437Z</time></trkpt><trkpt lat="40.3784572" lon="15.214537"><ele>790.6666666666667</ele><time>2026-03-29T11:58:58.382Z</time></trkpt><trkpt lat="40.3785269" lon="15.2144584"><ele>793.3333333333334</ele><time>2026-03-29T11:59:01.39Z</time></trkpt><trkpt lat="40.3785648" lon="15.2143884"><ele>796.0</ele><time>2026-03-29T11:59:03.407Z</time></trkpt><trkpt lat="40.3786167" lon="15.2142887"><ele>798.6666666666667</ele><time>2026-03-29T11:59:06.395Z</time></trkpt><trkpt lat="40.3786568" lon="15.2142167"><ele>801.3333333333334</ele><time>2026-03-29T11:59:08.388Z</time></trkpt><trkpt lat="40.3787008" lon="15.2141434"><ele>804.0</ele><time>2026-03-29T11:59:10.388Z</time></trkpt><trkpt lat="40.3787379" lon="15.2140664"><ele>804.0</ele><time>2026-03-29T11:59:12.405Z</time></trkpt><trkpt lat="40.3787801" lon="15.2139906"><ele>804.0</ele><time>2026-03-29T11:59:14.385Z</time></trkpt><trkpt lat="40.3788259" lon="15.2139098"><ele>804.0</ele><time>2026-03-29T11:59:16.411Z</time></trkpt><trkpt lat="40.3788662" lon="15.2138362"><ele>804.0</ele><time>2026-03-29T11:59:18.392Z</time></trkpt><trkpt lat="40.3789045" lon="15.213768"><ele>804.0</ele><time>2026-03-29T11:59:20.382Z</time></trkpt><trkpt lat="40.378936" lon="15.2136962"><ele>804.0</ele><time>2026-03-29T11:59:22.373Z</time></trkpt><trkpt lat="40.3789764" lon="15.2136146"><ele>804.0</ele><time>2026-03-29T11:59:24.374Z</time></trkpt><trkpt lat="40.3790234" lon="15.2135114"><ele>800.8571428571428</ele><time>2026-03-29T11:59:26.415Z</time></trkpt><trkpt lat="40.379059" lon="15.2134107"><ele>797.7142857142858</ele><time>2026-03-29T11:59:28.403Z</time></trkpt><trkpt lat="40.3790918" lon="15.2133184"><ele>794.5714285714286</ele><time>2026-03-29T11:59:30.419Z</time></trkpt><trkpt lat="40.379128" lon="15.213239"><ele>791.4285714285713</ele><time>2026-03-29T11:59:32.39Z</time></trkpt><trkpt lat="40.37915" lon="15.2131611"><ele>788.2857142857142</ele><time>2026-03-29T11:59:34.405Z</time></trkpt><trkpt lat="40.3791744" lon="15.2130599"><ele>785.1428571428571</ele><time>2026-03-29T11:59:37.4Z</time></trkpt><trkpt lat="40.3791684" lon="15.2129762"><ele>782.0</ele><time>2026-03-29T11:59:39.374Z</time></trkpt><trkpt lat="40.3791599" lon="15.2128679"><ele>782.0000000000001</ele><time>2026-03-29T11:59:42.408Z</time></trkpt><trkpt lat="40.3791454" lon="15.2127576"><ele>782.0</ele><time>2026-03-29T11:59:45.386Z</time></trkpt><trkpt lat="40.3791375" lon="15.2126599"><ele>782.0</ele><time>2026-03-29T11:59:47.412Z</time></trkpt><trkpt lat="40.3791496" lon="15.2125613"><ele>782.0</ele><time>2026-03-29T11:59:49.391Z</time></trkpt><trkpt lat="40.3791953" lon="15.212461"><ele>782.0000000000001</ele><time>2026-03-29T11:59:51.381Z</time></trkpt><trkpt lat="40.3792698" lon="15.2123623"><ele>782.0</ele><time>2026-03-29T11:59:53.384Z</time></trkpt><trkpt lat="40.3793256" lon="15.2122773"><ele>783.8</ele><time>2026-03-29T11:59:55.372Z</time></trkpt><trkpt lat="40.3793607" lon="15.2121906"><ele>785.6</ele><time>2026-03-29T11:59:57.388Z</time></trkpt><trkpt lat="40.3793885" lon="15.2120938"><ele>787.4</ele><time>2026-03-29T11:59:59.396Z</time></trkpt><trkpt lat="40.379424" lon="15.2119749"><ele>789.1999999999999</ele><time>2026-03-29T12:00:01.399Z</time></trkpt><trkpt lat="40.3794565" lon="15.2118515"><ele>791.0</ele><time>2026-03-29T12:00:03.414Z</time></trkpt><trkpt lat="40.3795006" lon="15.2117344"><ele>791.0</ele><time>2026-03-29T12:00:05.394Z</time></trkpt><trkpt lat="40.3795438" lon="15.2116707"><ele>791.0</ele><time>2026-03-29T12:00:07.395Z</time></trkpt><trkpt lat="40.3795848" lon="15.2115836"><ele>791.0</ele><time>2026-03-29T12:00:10.4Z</time></trkpt><trkpt lat="40.3796109" lon="15.2114918"><ele>791.0</ele><time>2026-03-29T12:00:12.39Z</time></trkpt><trkpt lat="40.3796344" lon="15.211407"><ele>791.0</ele><time>2026-03-29T12:00:14.403Z</time></trkpt><trkpt lat="40.3796615" lon="15.2113282"><ele>791.0</ele><time>2026-03-29T12:00:16.41Z</time></trkpt><trkpt lat="40.3797067" lon="15.2112233"><ele>791.0</ele><time>2026-03-29T12:00:19.412Z</time></trkpt><trkpt lat="40.3797425" lon="15.2111268"><ele>786.0000000000001</ele><time>2026-03-29T12:00:22.403Z</time></trkpt><trkpt lat="40.37978" lon="15.2110403"><ele>781.0</ele><time>2026-03-29T12:00:25.443Z</time></trkpt><trkpt lat="40.3798292" lon="15.2109418"><ele>776.0</ele><time>2026-03-29T12:00:28.398Z</time></trkpt><trkpt lat="40.3798834" lon="15.2108454"><ele>771.0</ele><time>2026-03-29T12:00:31.414Z</time></trkpt><trkpt lat="40.3799122" lon="15.2107589"><ele>766.0</ele><time>2026-03-29T12:00:34.382Z</time></trkpt><trkpt lat="40.3799073" lon="15.210646"><ele>761.0</ele><time>2026-03-29T12:00:37.389Z</time></trkpt><trkpt lat="40.3798944" lon="15.2105594"><ele>761.0</ele><time>2026-03-29T12:00:39.444Z</time></trkpt><trkpt lat="40.3798968" lon="15.2104377"><ele>761.0</ele><time>2026-03-29T12:00:42.406Z</time></trkpt><trkpt lat="40.3799096" lon="15.2103424"><ele>761.0</ele><time>2026-03-29T12:00:46.403Z</time></trkpt><trkpt lat="40.3799224" lon="15.2102546"><ele>761.0</ele><time>2026-03-29T12:00:49.417Z</time></trkpt><trkpt lat="40.3799345" lon="15.2101447"><ele>761.0</ele><time>2026-03-29T12:00:55.431Z</time></trkpt><trkpt lat="40.3799463" lon="15.2100617"><ele>761.0</ele><time>2026-03-29T12:00:58.389Z</time></trkpt><trkpt lat="40.3799726" lon="15.209976"><ele>760.9999999999999</ele><time>2026-03-29T12:01:01.507Z</time></trkpt><trkpt lat="40.3800021" lon="15.2098821"><ele>761.0</ele><time>2026-03-29T12:01:06.407Z</time></trkpt><trkpt lat="40.3800416" lon="15.209809"><ele>761.0</ele><time>2026-03-29T12:01:10.377Z</time></trkpt><trkpt lat="40.3800952" lon="15.2097246"><ele>761.0</ele><time>2026-03-29T12:01:14.379Z</time></trkpt><trkpt lat="40.3801488" lon="15.2096408"><ele>761.0</ele><time>2026-03-29T12:01:18.365Z</time></trkpt><trkpt lat="40.3802016" lon="15.2095823"><ele>760.9999999999999</ele><time>2026-03-29T12:01:21.341Z</time></trkpt><trkpt lat="40.3802653" lon="15.2095703"><ele>761.0</ele><time>2026-03-29T12:01:24.367Z</time></trkpt><trkpt lat="40.3803419" lon="15.2096038"><ele>761.3333333333333</ele><time>2026-03-29T12:01:27.518Z</time></trkpt><trkpt lat="40.3804187" lon="15.2096538"><ele>761.6666666666666</ele><time>2026-03-29T12:01:30.364Z</time></trkpt><trkpt lat="40.3804844" lon="15.2096872"><ele>762.0</ele><time>2026-03-29T12:01:32.381Z</time></trkpt><trkpt lat="40.380549" lon="15.2097226"><ele>762.3333333333334</ele><time>2026-03-29T12:01:34.409Z</time></trkpt><trkpt lat="40.3806229" lon="15.2097587"><ele>762.6666666666667</ele><time>2026-03-29T12:01:36.398Z</time></trkpt><trkpt lat="40.3807047" lon="15.2097873"><ele>763.0</ele><time>2026-03-29T12:01:38.377Z</time></trkpt><trkpt lat="40.3807848" lon="15.2097983"><ele>763.0</ele><time>2026-03-29T12:01:40.411Z</time></trkpt><trkpt lat="40.3808739" lon="15.209799"><ele>763.0</ele><time>2026-03-29T12:01:42.406Z</time></trkpt><trkpt lat="40.3809576" lon="15.2097794"><ele>763.0</ele><time>2026-03-29T12:01:44.411Z</time></trkpt><trkpt lat="40.3810182" lon="15.2097451"><ele>763.0</ele><time>2026-03-29T12:01:46.383Z</time></trkpt><trkpt lat="40.3810938" lon="15.2097019"><ele>763.0</ele><time>2026-03-29T12:01:48.406Z</time></trkpt><trkpt lat="40.3811409" lon="15.2096447"><ele>763.0</ele><time>2026-03-29T12:01:50.404Z</time></trkpt><trkpt lat="40.3811901" lon="15.2095805"><ele>763.0</ele><time>2026-03-29T12:01:52.385Z</time></trkpt><trkpt lat="40.3812282" lon="15.2094918"><ele>763.0</ele><time>2026-03-29T12:01:54.39Z</time></trkpt><trkpt lat="40.3812592" lon="15.209396"><ele>763.0</ele><time>2026-03-29T12:01:56.4Z</time></trkpt><trkpt lat="40.3812768" lon="15.2093017"><ele>763.0</ele><time>2026-03-29T12:01:58.392Z</time></trkpt><trkpt lat="40.3812892" lon="15.2091933"><ele>763.0</ele><time>2026-03-29T12:02:01.421Z</time></trkpt><trkpt lat="40.3813076" lon="15.2091033"><ele>763.0</ele><time>2026-03-29T12:02:04.393Z</time></trkpt><trkpt lat="40.3813244" lon="15.2090124"><ele>766.0</ele><time>2026-03-29T12:02:06.406Z</time></trkpt><trkpt lat="40.3813405" lon="15.208916"><ele>769.0</ele><time>2026-03-29T12:02:08.421Z</time></trkpt><trkpt lat="40.3813563" lon="15.2088061"><ele>772.0</ele><time>2026-03-29T12:02:10.403Z</time></trkpt><trkpt lat="40.3813686" lon="15.2086885"><ele>775.0</ele><time>2026-03-29T12:02:12.376Z</time></trkpt><trkpt lat="40.3813761" lon="15.2085687"><ele>777.9999999999999</ele><time>2026-03-29T12:02:14.399Z</time></trkpt><trkpt lat="40.3813777" lon="15.2084805"><ele>781.0</ele><time>2026-03-29T12:02:16.408Z</time></trkpt><trkpt lat="40.3813874" lon="15.2083513"><ele>777.1666666666666</ele><time>2026-03-29T12:02:19.417Z</time></trkpt><trkpt lat="40.3814089" lon="15.2082308"><ele>773.3333333333333</ele><time>2026-03-29T12:02:21.454Z</time></trkpt><trkpt lat="40.3814385" lon="15.2081056"><ele>769.5</ele><time>2026-03-29T12:02:23.393Z</time></trkpt><trkpt lat="40.3814678" lon="15.2079837"><ele>765.6666666666666</ele><time>2026-03-29T12:02:25.413Z</time></trkpt><trkpt lat="40.3814908" lon="15.2078807"><ele>761.8333333333333</ele><time>2026-03-29T12:02:27.393Z</time></trkpt><trkpt lat="40.3815133" lon="15.207803"><ele>758.0</ele><time>2026-03-29T12:02:29.395Z</time></trkpt><trkpt lat="40.381545" lon="15.2076868"><ele>758.0</ele><time>2026-03-29T12:02:32.399Z</time></trkpt><trkpt lat="40.3815866" lon="15.2075806"><ele>758.0</ele><time>2026-03-29T12:02:34.413Z</time></trkpt><trkpt lat="40.3816312" lon="15.2074852"><ele>758.0</ele><time>2026-03-29T12:02:36.409Z</time></trkpt><trkpt lat="40.3816776" lon="15.2074081"><ele>758.0</ele><time>2026-03-29T12:02:37.374Z</time></trkpt><trkpt lat="40.3817468" lon="15.2072867"><ele>758.0</ele><time>2026-03-29T12:02:39.406Z</time></trkpt><trkpt lat="40.3818021" lon="15.2071782"><ele>760.0000000000001</ele><time>2026-03-29T12:02:41.395Z</time></trkpt><trkpt lat="40.3818394" lon="15.2071071"><ele>762.0</ele><time>2026-03-29T12:02:43.409Z</time></trkpt><trkpt lat="40.3818633" lon="15.2069866"><ele>764.0</ele><time>2026-03-29T12:02:46.411Z</time></trkpt><trkpt lat="40.3818819" lon="15.206883"><ele>766.0</ele><time>2026-03-29T12:02:49.41Z</time></trkpt><trkpt lat="40.3819154" lon="15.2068115"><ele>768.0</ele><time>2026-03-29T12:02:51.402Z</time></trkpt><trkpt lat="40.3819619" lon="15.2067486"><ele>770.0000000000001</ele><time>2026-03-29T12:02:53.385Z</time></trkpt><trkpt lat="40.382009" lon="15.2066743"><ele>772.0</ele><time>2026-03-29T12:02:55.388Z</time></trkpt><trkpt lat="40.3820751" lon="15.2065482"><ele>773.8333333333333</ele><time>2026-03-29T12:02:58.411Z</time></trkpt><trkpt lat="40.382101" lon="15.2064579"><ele>775.6666666666666</ele><time>2026-03-29T12:03:00.39Z</time></trkpt><trkpt lat="40.3821129" lon="15.2063366"><ele>777.5</ele><time>2026-03-29T12:03:02.398Z</time></trkpt><trkpt lat="40.3821232" lon="15.2062272"><ele>779.3333333333333</ele><time>2026-03-29T12:03:04.389Z</time></trkpt><trkpt lat="40.3821387" lon="15.2061265"><ele>781.1666666666666</ele><time>2026-03-29T12:03:06.402Z</time></trkpt><trkpt lat="40.382161" lon="15.2060472"><ele>783.0</ele><time>2026-03-29T12:03:08.391Z</time></trkpt><trkpt lat="40.3822161" lon="15.2059328"><ele>779.4</ele><time>2026-03-29T12:03:11.404Z</time></trkpt><trkpt lat="40.3822616" lon="15.2058408"><ele>775.8</ele><time>2026-03-29T12:03:13.392Z</time></trkpt><trkpt lat="40.3823093" lon="15.2057251"><ele>772.2</ele><time>2026-03-29T12:03:15.403Z</time></trkpt><trkpt lat="40.3823409" lon="15.2055999"><ele>768.6</ele><time>2026-03-29T12:03:17.414Z</time></trkpt><trkpt lat="40.3823618" lon="15.2054684"><ele>765.0</ele><time>2026-03-29T12:03:19.387Z</time></trkpt><trkpt lat="40.3823838" lon="15.2053293"><ele>765.0</ele><time>2026-03-29T12:03:21.414Z</time></trkpt><trkpt lat="40.3824078" lon="15.2052184"><ele>765.0</ele><time>2026-03-29T12:03:23.42Z</time></trkpt><trkpt lat="40.3824417" lon="15.2051132"><ele>765.0</ele><time>2026-03-29T12:03:25.383Z</time></trkpt><trkpt lat="40.3825032" lon="15.2050065"><ele>765.0</ele><time>2026-03-29T12:03:27.398Z</time></trkpt><trkpt lat="40.38259" lon="15.2049174"><ele>765.0</ele><time>2026-03-29T12:03:29.395Z</time></trkpt><trkpt lat="40.3826728" lon="15.2048523"><ele>764.0</ele><time>2026-03-29T12:03:31.398Z</time></trkpt><trkpt lat="40.3827659" lon="15.2047976"><ele>763.0</ele><time>2026-03-29T12:03:33.425Z</time></trkpt><trkpt lat="40.3828766" lon="15.2047059"><ele>762.0</ele><time>2026-03-29T12:03:36.469Z</time></trkpt><trkpt lat="40.3829533" lon="15.204637"><ele>761.0</ele><time>2026-03-29T12:03:39.415Z</time></trkpt><trkpt lat="40.3830271" lon="15.2045502"><ele>760.0</ele><time>2026-03-29T12:03:42.392Z</time></trkpt><trkpt lat="40.3830885" lon="15.2044766"><ele>760.0</ele><time>2026-03-29T12:03:44.4Z</time></trkpt><trkpt lat="40.3831462" lon="15.2044008"><ele>760.0</ele><time>2026-03-29T12:03:46.409Z</time></trkpt><trkpt lat="40.3832015" lon="15.2043284"><ele>760.0</ele><time>2026-03-29T12:03:48.393Z</time></trkpt><trkpt lat="40.3832532" lon="15.2042618"><ele>760.0</ele><time>2026-03-29T12:03:50.394Z</time></trkpt><trkpt lat="40.3833117" lon="15.2041964"><ele>760.0</ele><time>2026-03-29T12:03:52.411Z</time></trkpt><trkpt lat="40.3833924" lon="15.2041323"><ele>760.0</ele><time>2026-03-29T12:03:55.388Z</time></trkpt><trkpt lat="40.3834762" lon="15.2040915"><ele>760.0</ele><time>2026-03-29T12:03:57.412Z</time></trkpt><trkpt lat="40.383544" lon="15.2040654"><ele>760.0</ele><time>2026-03-29T12:03:59.409Z</time></trkpt><trkpt lat="40.3836156" lon="15.2040229"><ele>760.0</ele><time>2026-03-29T12:04:02.395Z</time></trkpt><trkpt lat="40.3836616" lon="15.2039408"><ele>760.0</ele><time>2026-03-29T12:04:05.41Z</time></trkpt><trkpt lat="40.383684" lon="15.2038468"><ele>760.0</ele><time>2026-03-29T12:04:08.402Z</time></trkpt><trkpt lat="40.3836855" lon="15.2037591"><ele>760.0</ele><time>2026-03-29T12:04:11.416Z</time></trkpt><trkpt lat="40.3836877" lon="15.2036677"><ele>760.0</ele><time>2026-03-29T12:04:14.417Z</time></trkpt><trkpt lat="40.3836997" lon="15.2035823"><ele>762.5</ele><time>2026-03-29T12:04:18.417Z</time></trkpt><trkpt lat="40.3837113" lon="15.2034792"><ele>765.0</ele><time>2026-03-29T12:04:21.418Z</time></trkpt><trkpt lat="40.3837391" lon="15.203393"><ele>767.5</ele><time>2026-03-29T12:04:23.39Z</time></trkpt><trkpt lat="40.3837848" lon="15.2033112"><ele>770.0</ele><time>2026-03-29T12:04:25.419Z</time></trkpt><trkpt lat="40.3838311" lon="15.2032331"><ele>772.4999999999999</ele><time>2026-03-29T12:04:27.392Z</time></trkpt><trkpt lat="40.3838913" lon="15.2031512"><ele>775.0</ele><time>2026-03-29T12:04:29.399Z</time></trkpt><trkpt lat="40.3839374" lon="15.2030753"><ele>769.8333333333333</ele><time>2026-03-29T12:04:31.398Z</time></trkpt><trkpt lat="40.3839766" lon="15.2029912"><ele>764.6666666666666</ele><time>2026-03-29T12:04:34.393Z</time></trkpt><trkpt lat="40.3840046" lon="15.2029056"><ele>759.5</ele><time>2026-03-29T12:04:37.387Z</time></trkpt><trkpt lat="40.3840287" lon="15.2028131"><ele>754.3333333333333</ele><time>2026-03-29T12:04:42.376Z</time></trkpt><trkpt lat="40.3840499" lon="15.2026911"><ele>749.1666666666666</ele><time>2026-03-29T12:04:45.401Z</time></trkpt><trkpt lat="40.3840749" lon="15.2026023"><ele>744.0</ele><time>2026-03-29T12:04:47.402Z</time></trkpt><trkpt lat="40.3840998" lon="15.20252"><ele>744.0</ele><time>2026-03-29T12:04:49.41Z</time></trkpt><trkpt lat="40.3841281" lon="15.2024418"><ele>744.0</ele><time>2026-03-29T12:04:52.419Z</time></trkpt><trkpt lat="40.3841713" lon="15.2023414"><ele>744.0</ele><time>2026-03-29T12:04:55.439Z</time></trkpt><trkpt lat="40.3842102" lon="15.2022559"><ele>744.0</ele><time>2026-03-29T12:04:57.381Z</time></trkpt><trkpt lat="40.3842492" lon="15.2021591"><ele>744.0</ele><time>2026-03-29T12:04:59.38Z</time></trkpt><trkpt lat="40.3842853" lon="15.202078"><ele>744.0</ele><time>2026-03-29T12:05:01.511Z</time></trkpt><trkpt lat="40.3843331" lon="15.2019649"><ele>744.0</ele><time>2026-03-29T12:05:04.376Z</time></trkpt><trkpt lat="40.3843737" lon="15.2018991"><ele>744.0</ele><time>2026-03-29T12:05:06.405Z</time></trkpt><trkpt lat="40.3844527" lon="15.2018394"><ele>744.0</ele><time>2026-03-29T12:05:09.392Z</time></trkpt><trkpt lat="40.384519" lon="15.2018291"><ele>744.0</ele><time>2026-03-29T12:05:11.406Z</time></trkpt><trkpt lat="40.3845961" lon="15.2018014"><ele>744.0</ele><time>2026-03-29T12:05:13.499Z</time></trkpt><trkpt lat="40.3846855" lon="15.2017601"><ele>744.0</ele><time>2026-03-29T12:05:15.485Z</time></trkpt><trkpt lat="40.3847869" lon="15.2017242"><ele>744.0</ele><time>2026-03-29T12:05:17.397Z</time></trkpt><trkpt lat="40.3848974" lon="15.2016993"><ele>744.0</ele><time>2026-03-29T12:05:19.425Z</time></trkpt><trkpt lat="40.3849979" lon="15.2016829"><ele>744.0</ele><time>2026-03-29T12:05:21.41Z</time></trkpt><trkpt lat="40.3850935" lon="15.2016661"><ele>744.0</ele><time>2026-03-29T12:05:23.406Z</time></trkpt><trkpt lat="40.3851729" lon="15.2016527"><ele>744.0</ele><time>2026-03-29T12:05:25.522Z</time></trkpt><trkpt lat="40.3852587" lon="15.2016362"><ele>744.0</ele><time>2026-03-29T12:05:28.395Z</time></trkpt><trkpt lat="40.3853405" lon="15.2016177"><ele>744.0</ele><time>2026-03-29T12:05:31.428Z</time></trkpt><trkpt lat="40.3854337" lon="15.2016116"><ele>744.0</ele><time>2026-03-29T12:05:34.408Z</time></trkpt><trkpt lat="40.3854995" lon="15.2016004"><ele>744.0</ele><time>2026-03-29T12:05:36.414Z</time></trkpt><trkpt lat="40.3855693" lon="15.2015878"><ele>744.0</ele><time>2026-03-29T12:05:38.399Z</time></trkpt><trkpt lat="40.3856341" lon="15.2015781"><ele>744.0</ele><time>2026-03-29T12:05:40.41Z</time></trkpt><trkpt lat="40.3857139" lon="15.2015467"><ele>743.5714285714287</ele><time>2026-03-29T12:05:43.516Z</time></trkpt><trkpt lat="40.3857808" lon="15.2015114"><ele>743.1428571428571</ele><time>2026-03-29T12:05:46.402Z</time></trkpt><trkpt lat="40.3858399" lon="15.2014406"><ele>742.7142857142858</ele><time>2026-03-29T12:05:49.41Z</time></trkpt><trkpt lat="40.3858782" lon="15.2013672"><ele>742.2857142857143</ele><time>2026-03-29T12:05:51.444Z</time></trkpt><trkpt lat="40.3859168" lon="15.2012888"><ele>741.8571428571429</ele><time>2026-03-29T12:05:54.426Z</time></trkpt><trkpt lat="40.3859818" lon="15.2012433"><ele>741.4285714285714</ele><time>2026-03-29T12:05:57.408Z</time></trkpt><trkpt lat="40.3860246" lon="15.20132"><ele>741.0</ele><time>2026-03-29T12:06:01.407Z</time></trkpt><trkpt lat="40.3860091" lon="15.2014143"><ele>741.0</ele><time>2026-03-29T12:06:04.412Z</time></trkpt><trkpt lat="40.3859932" lon="15.2015234"><ele>741.0</ele><time>2026-03-29T12:06:07.413Z</time></trkpt><trkpt lat="40.386027" lon="15.201612"><ele>741.0</ele><time>2026-03-29T12:06:11.421Z</time></trkpt><trkpt lat="40.3861013" lon="15.2016222"><ele>741.0</ele><time>2026-03-29T12:06:16.408Z</time></trkpt><trkpt lat="40.3861552" lon="15.2015573"><ele>741.0</ele><time>2026-03-29T12:06:22.398Z</time></trkpt><trkpt lat="40.3861934" lon="15.201483"><ele>741.0</ele><time>2026-03-29T12:06:26.424Z</time></trkpt><trkpt lat="40.3862313" lon="15.2014034"><ele>741.0</ele><time>2026-03-29T12:06:29.394Z</time></trkpt><trkpt lat="40.3862675" lon="15.2013272"><ele>741.0</ele><time>2026-03-29T12:06:32.418Z</time></trkpt><trkpt lat="40.3863289" lon="15.2012293"><ele>741.0</ele><time>2026-03-29T12:06:35.398Z</time></trkpt><trkpt lat="40.3863561" lon="15.2011474"><ele>741.0</ele><time>2026-03-29T12:06:37.421Z</time></trkpt><trkpt lat="40.3863876" lon="15.2010403"><ele>741.0</ele><time>2026-03-29T12:06:40.419Z</time></trkpt><trkpt lat="40.3863977" lon="15.2009324"><ele>741.0</ele><time>2026-03-29T12:06:43.421Z</time></trkpt><trkpt lat="40.386383" lon="15.2008175"><ele>741.0</ele><time>2026-03-29T12:06:46.408Z</time></trkpt><trkpt lat="40.3863704" lon="15.2006965"><ele>741.6666666666666</ele><time>2026-03-29T12:06:49.39Z</time></trkpt><trkpt lat="40.3863444" lon="15.2005761"><ele>742.3333333333334</ele><time>2026-03-29T12:06:52.416Z</time></trkpt><trkpt lat="40.3863171" lon="15.2004606"><ele>743.0</ele><time>2026-03-29T12:06:55.41Z</time></trkpt><trkpt lat="40.3862819" lon="15.2003752"><ele>743.6666666666667</ele><time>2026-03-29T12:06:57.411Z</time></trkpt><trkpt lat="40.3862357" lon="15.2002801"><ele>744.3333333333334</ele><time>2026-03-29T12:06:59.412Z</time></trkpt><trkpt lat="40.3861877" lon="15.2001893"><ele>745.0</ele><time>2026-03-29T12:07:01.399Z</time></trkpt><trkpt lat="40.3861513" lon="15.2001064"><ele>745.0</ele><time>2026-03-29T12:07:03.413Z</time></trkpt><trkpt lat="40.3861258" lon="15.2000292"><ele>745.0</ele><time>2026-03-29T12:07:05.382Z</time></trkpt><trkpt lat="40.3861139" lon="15.1999464"><ele>745.0</ele><time>2026-03-29T12:07:07.393Z</time></trkpt><trkpt lat="40.3861303" lon="15.1998647"><ele>745.0</ele><time>2026-03-29T12:07:09.407Z</time></trkpt><trkpt lat="40.3861643" lon="15.1997732"><ele>745.0</ele><time>2026-03-29T12:07:12.403Z</time></trkpt><trkpt lat="40.3862201" lon="15.1996886"><ele>745.0</ele><time>2026-03-29T12:07:15.412Z</time></trkpt><trkpt lat="40.3862754" lon="15.1996193"><ele>745.0</ele><time>2026-03-29T12:07:17.412Z</time></trkpt><trkpt lat="40.3863507" lon="15.1995541"><ele>741.6666666666667</ele><time>2026-03-29T12:07:20.416Z</time></trkpt><trkpt lat="40.386402" lon="15.1995027"><ele>738.3333333333334</ele><time>2026-03-29T12:07:22.419Z</time></trkpt><trkpt lat="40.3864582" lon="15.1994511"><ele>735.0</ele><time>2026-03-29T12:07:24.416Z</time></trkpt><trkpt lat="40.3865252" lon="15.1993991"><ele>731.6666666666666</ele><time>2026-03-29T12:07:26.409Z</time></trkpt><trkpt lat="40.3865998" lon="15.1993205"><ele>728.3333333333333</ele><time>2026-03-29T12:07:28.419Z</time></trkpt><trkpt lat="40.3866557" lon="15.1992481"><ele>725.0</ele><time>2026-03-29T12:07:30.513Z</time></trkpt><trkpt lat="40.386694" lon="15.1991683"><ele>725.0</ele><time>2026-03-29T12:07:32.413Z</time></trkpt><trkpt lat="40.3867328" lon="15.1990652"><ele>725.0</ele><time>2026-03-29T12:07:34.417Z</time></trkpt><trkpt lat="40.3867576" lon="15.198963"><ele>725.0</ele><time>2026-03-29T12:07:36.395Z</time></trkpt><trkpt lat="40.3867764" lon="15.198858"><ele>725.0</ele><time>2026-03-29T12:07:39.413Z</time></trkpt><trkpt lat="40.3867861" lon="15.198772"><ele>725.0</ele><time>2026-03-29T12:07:42.402Z</time></trkpt><trkpt lat="40.3867794" lon="15.1986685"><ele>725.0</ele><time>2026-03-29T12:07:45.424Z</time></trkpt><trkpt lat="40.3867819" lon="15.198545"><ele>726.8571428571429</ele><time>2026-03-29T12:07:48.383Z</time></trkpt><trkpt lat="40.3867944" lon="15.1984309"><ele>728.7142857142858</ele><time>2026-03-29T12:07:51.412Z</time></trkpt><trkpt lat="40.386816" lon="15.1983311"><ele>730.5714285714286</ele><time>2026-03-29T12:07:54.412Z</time></trkpt><trkpt lat="40.3868519" lon="15.1982426"><ele>732.4285714285714</ele><time>2026-03-29T12:07:58.424Z</time></trkpt><trkpt lat="40.3868922" lon="15.19816"><ele>734.2857142857142</ele><time>2026-03-29T12:08:02.385Z</time></trkpt><trkpt lat="40.3869313" lon="15.1980874"><ele>736.1428571428571</ele><time>2026-03-29T12:08:05.409Z</time></trkpt><trkpt lat="40.3869684" lon="15.1980195"><ele>738.0</ele><time>2026-03-29T12:08:08.427Z</time></trkpt><trkpt lat="40.3870059" lon="15.197944"><ele>739.6666666666666</ele><time>2026-03-29T12:08:10.393Z</time></trkpt><trkpt lat="40.3870707" lon="15.1978321"><ele>741.3333333333334</ele><time>2026-03-29T12:08:13.41Z</time></trkpt><trkpt lat="40.387128" lon="15.1977297"><ele>743.0</ele><time>2026-03-29T12:08:15.409Z</time></trkpt><trkpt lat="40.3871766" lon="15.1976394"><ele>744.6666666666667</ele><time>2026-03-29T12:08:17.391Z</time></trkpt><trkpt lat="40.3872136" lon="15.1975722"><ele>746.3333333333334</ele><time>2026-03-29T12:08:19.414Z</time></trkpt><trkpt lat="40.3872517" lon="15.1974711"><ele>748.0</ele><time>2026-03-29T12:08:22.405Z</time></trkpt><trkpt lat="40.3872773" lon="15.1973604"><ele>743.6666666666667</ele><time>2026-03-29T12:08:25.412Z</time></trkpt><trkpt lat="40.387284" lon="15.1972675"><ele>739.3333333333334</ele><time>2026-03-29T12:08:27.418Z</time></trkpt><trkpt lat="40.3872941" lon="15.1971698"><ele>735.0</ele><time>2026-03-29T12:08:29.418Z</time></trkpt><trkpt lat="40.3872993" lon="15.1970632"><ele>730.6666666666666</ele><time>2026-03-29T12:08:31.417Z</time></trkpt><trkpt lat="40.3873101" lon="15.1969438"><ele>726.3333333333333</ele><time>2026-03-29T12:08:33.404Z</time></trkpt><trkpt lat="40.3873195" lon="15.1968445"><ele>722.0</ele><time>2026-03-29T12:08:35.423Z</time></trkpt><trkpt lat="40.3873384" lon="15.1967397"><ele>722.0</ele><time>2026-03-29T12:08:38.402Z</time></trkpt><trkpt lat="40.3873686" lon="15.1966371"><ele>722.0</ele><time>2026-03-29T12:08:41.398Z</time></trkpt><trkpt lat="40.3873997" lon="15.1965474"><ele>722.0</ele><time>2026-03-29T12:08:43.393Z</time></trkpt><trkpt lat="40.387432" lon="15.1964741"><ele>722.0</ele><time>2026-03-29T12:08:45.395Z</time></trkpt><trkpt lat="40.3874776" lon="15.19636"><ele>722.0</ele><time>2026-03-29T12:08:48.416Z</time></trkpt><trkpt lat="40.3875073" lon="15.1962695"><ele>722.0</ele><time>2026-03-29T12:08:50.419Z</time></trkpt><trkpt lat="40.3875351" lon="15.1961895"><ele>724.6666666666666</ele><time>2026-03-29T12:08:52.405Z</time></trkpt><trkpt lat="40.3875641" lon="15.1960791"><ele>727.3333333333333</ele><time>2026-03-29T12:08:55.355Z</time></trkpt><trkpt lat="40.3875938" lon="15.1959858"><ele>730.0</ele><time>2026-03-29T12:08:58.418Z</time></trkpt><trkpt lat="40.3876287" lon="15.1959081"><ele>732.6666666666666</ele><time>2026-03-29T12:09:01.431Z</time></trkpt><trkpt lat="40.3876645" lon="15.1958336"><ele>735.3333333333334</ele><time>2026-03-29T12:09:04.393Z</time></trkpt><trkpt lat="40.3876981" lon="15.1957564"><ele>738.0</ele><time>2026-03-29T12:09:06.42Z</time></trkpt><trkpt lat="40.387755" lon="15.1956306"><ele>740.6666666666666</ele><time>2026-03-29T12:09:09.399Z</time></trkpt><trkpt lat="40.3878068" lon="15.1955317"><ele>743.3333333333334</ele><time>2026-03-29T12:09:11.408Z</time></trkpt><trkpt lat="40.3878631" lon="15.1954376"><ele>746.0</ele><time>2026-03-29T12:09:13.41Z</time></trkpt><trkpt lat="40.3879154" lon="15.1953485"><ele>748.6666666666667</ele><time>2026-03-29T12:09:15.406Z</time></trkpt><trkpt lat="40.3879627" lon="15.1952623"><ele>751.3333333333334</ele><time>2026-03-29T12:09:17.415Z</time></trkpt><trkpt lat="40.3880046" lon="15.1951674"><ele>754.0</ele><time>2026-03-29T12:09:19.403Z</time></trkpt><trkpt lat="40.3880491" lon="15.1950499"><ele>752.3333333333334</ele><time>2026-03-29T12:09:22.394Z</time></trkpt><trkpt lat="40.3880813" lon="15.1949684"><ele>750.6666666666667</ele><time>2026-03-29T12:09:24.417Z</time></trkpt><trkpt lat="40.3881132" lon="15.194897"><ele>749.0</ele><time>2026-03-29T12:09:26.403Z</time></trkpt><trkpt lat="40.3881653" lon="15.1947971"><ele>747.3333333333334</ele><time>2026-03-29T12:09:29.405Z</time></trkpt><trkpt lat="40.3882166" lon="15.1947273"><ele>745.6666666666666</ele><time>2026-03-29T12:09:32.4Z</time></trkpt><trkpt lat="40.3882796" lon="15.1946808"><ele>744.0</ele><time>2026-03-29T12:09:36.407Z</time></trkpt><trkpt lat="40.3883411" lon="15.1946077"><ele>744.0</ele><time>2026-03-29T12:09:38.398Z</time></trkpt><trkpt lat="40.3884031" lon="15.1945333"><ele>744.0</ele><time>2026-03-29T12:09:40.392Z</time></trkpt><trkpt lat="40.388449" lon="15.1944655"><ele>744.0</ele><time>2026-03-29T12:09:42.414Z</time></trkpt><trkpt lat="40.3885014" lon="15.1943998"><ele>744.0</ele><time>2026-03-29T12:09:44.436Z</time></trkpt><trkpt lat="40.3885617" lon="15.1943241"><ele>744.0</ele><time>2026-03-29T12:09:47.406Z</time></trkpt><trkpt lat="40.3886145" lon="15.1942594"><ele>744.0</ele><time>2026-03-29T12:09:50.404Z</time></trkpt><trkpt lat="40.3886887" lon="15.1941763"><ele>744.0</ele><time>2026-03-29T12:09:53.406Z</time></trkpt><trkpt lat="40.3887509" lon="15.1941095"><ele>744.0</ele><time>2026-03-29T12:09:55.429Z</time></trkpt><trkpt lat="40.3888202" lon="15.194033"><ele>744.0</ele><time>2026-03-29T12:09:58.425Z</time></trkpt><trkpt lat="40.3888739" lon="15.193962"><ele>744.0</ele><time>2026-03-29T12:10:00.417Z</time></trkpt><trkpt lat="40.3889444" lon="15.1938687"><ele>744.0</ele><time>2026-03-29T12:10:02.419Z</time></trkpt><trkpt lat="40.3890136" lon="15.1937758"><ele>744.0</ele><time>2026-03-29T12:10:04.393Z</time></trkpt><trkpt lat="40.3890735" lon="15.1937065"><ele>742.8333333333334</ele><time>2026-03-29T12:10:06.4Z</time></trkpt><trkpt lat="40.3891327" lon="15.193645"><ele>741.6666666666666</ele><time>2026-03-29T12:10:08.42Z</time></trkpt><trkpt lat="40.3891872" lon="15.1936003"><ele>740.5</ele><time>2026-03-29T12:10:10.41Z</time></trkpt><trkpt lat="40.3892497" lon="15.1935578"><ele>739.3333333333333</ele><time>2026-03-29T12:10:12.389Z</time></trkpt><trkpt lat="40.3893375" lon="15.1935198"><ele>738.1666666666666</ele><time>2026-03-29T12:10:14.421Z</time></trkpt><trkpt lat="40.3894348" lon="15.1934854"><ele>737.0</ele><time>2026-03-29T12:10:16.408Z</time></trkpt><trkpt lat="40.3895341" lon="15.1934527"><ele>737.0</ele><time>2026-03-29T12:10:18.398Z</time></trkpt><trkpt lat="40.3896048" lon="15.193429"><ele>737.0</ele><time>2026-03-29T12:10:20.402Z</time></trkpt><trkpt lat="40.3896679" lon="15.1934103"><ele>737.0</ele><time>2026-03-29T12:10:22.398Z</time></trkpt><trkpt lat="40.3897496" lon="15.1933831"><ele>737.0</ele><time>2026-03-29T12:10:25.397Z</time></trkpt><trkpt lat="40.3898385" lon="15.1933468"><ele>737.0</ele><time>2026-03-29T12:10:28.423Z</time></trkpt><trkpt lat="40.38992" lon="15.1933045"><ele>737.0</ele><time>2026-03-29T12:10:30.492Z</time></trkpt><trkpt lat="40.389986" lon="15.1932599"><ele>738.0000000000001</ele><time>2026-03-29T12:10:32.399Z</time></trkpt><trkpt lat="40.3900528" lon="15.1932045"><ele>739.0</ele><time>2026-03-29T12:10:34.407Z</time></trkpt><trkpt lat="40.390111" lon="15.1931551"><ele>740.0</ele><time>2026-03-29T12:10:36.408Z</time></trkpt><trkpt lat="40.3901622" lon="15.1930966"><ele>741.0</ele><time>2026-03-29T12:10:38.4Z</time></trkpt><trkpt lat="40.3902226" lon="15.1930394"><ele>742.0</ele><time>2026-03-29T12:10:40.416Z</time></trkpt><trkpt lat="40.3902891" lon="15.1930045"><ele>743.0000000000001</ele><time>2026-03-29T12:10:42.384Z</time></trkpt><trkpt lat="40.3903498" lon="15.1929823"><ele>744.0</ele><time>2026-03-29T12:10:44.409Z</time></trkpt><trkpt lat="40.3904313" lon="15.1929421"><ele>742.1666666666666</ele><time>2026-03-29T12:10:47.404Z</time></trkpt><trkpt lat="40.3905184" lon="15.1928952"><ele>740.3333333333334</ele><time>2026-03-29T12:10:50.421Z</time></trkpt><trkpt lat="40.390598" lon="15.1928471"><ele>738.5</ele><time>2026-03-29T12:10:52.419Z</time></trkpt><trkpt lat="40.3906682" lon="15.1928076"><ele>736.6666666666667</ele><time>2026-03-29T12:10:54.403Z</time></trkpt><trkpt lat="40.3907277" lon="15.1927795"><ele>734.8333333333334</ele><time>2026-03-29T12:10:56.411Z</time></trkpt><trkpt lat="40.3908041" lon="15.1927465"><ele>733.0</ele><time>2026-03-29T12:10:59.399Z</time></trkpt><trkpt lat="40.3908794" lon="15.1927325"><ele>733.0</ele><time>2026-03-29T12:11:01.403Z</time></trkpt><trkpt lat="40.390965" lon="15.1927268"><ele>733.0</ele><time>2026-03-29T12:11:03.393Z</time></trkpt><trkpt lat="40.3910573" lon="15.1927407"><ele>733.0</ele><time>2026-03-29T12:11:05.412Z</time></trkpt><trkpt lat="40.3911496" lon="15.1927493"><ele>733.0</ele><time>2026-03-29T12:11:07.42Z</time></trkpt><trkpt lat="40.3912232" lon="15.1927482"><ele>733.0</ele><time>2026-03-29T12:11:09.406Z</time></trkpt><trkpt lat="40.3912888" lon="15.1927427"><ele>733.0</ele><time>2026-03-29T12:11:11.405Z</time></trkpt><trkpt lat="40.3913601" lon="15.1927298"><ele>731.8333333333334</ele><time>2026-03-29T12:11:13.405Z</time></trkpt><trkpt lat="40.3914326" lon="15.1927066"><ele>730.6666666666667</ele><time>2026-03-29T12:11:15.413Z</time></trkpt><trkpt lat="40.3915118" lon="15.192671"><ele>729.5</ele><time>2026-03-29T12:11:17.416Z</time></trkpt><trkpt lat="40.3915758" lon="15.1926396"><ele>728.3333333333334</ele><time>2026-03-29T12:11:19.405Z</time></trkpt><trkpt lat="40.3916526" lon="15.1925906"><ele>727.1666666666666</ele><time>2026-03-29T12:11:21.53Z</time></trkpt><trkpt lat="40.3917062" lon="15.1925448"><ele>726.0</ele><time>2026-03-29T12:11:23.418Z</time></trkpt><trkpt lat="40.3917715" lon="15.19248"><ele>726.0</ele><time>2026-03-29T12:11:25.415Z</time></trkpt><trkpt lat="40.3918335" lon="15.1924155"><ele>726.0</ele><time>2026-03-29T12:11:27.399Z</time></trkpt><trkpt lat="40.3918935" lon="15.1923453"><ele>726.0</ele><time>2026-03-29T12:11:29.437Z</time></trkpt><trkpt lat="40.391963" lon="15.1922618"><ele>726.0</ele><time>2026-03-29T12:11:31.417Z</time></trkpt><trkpt lat="40.392019" lon="15.192176"><ele>726.0</ele><time>2026-03-29T12:11:33.442Z</time></trkpt><trkpt lat="40.392064" lon="15.1920856"><ele>726.0</ele><time>2026-03-29T12:11:35.417Z</time></trkpt><trkpt lat="40.3920989" lon="15.192001"><ele>725.0</ele><time>2026-03-29T12:11:37.414Z</time></trkpt><trkpt lat="40.3921327" lon="15.1919188"><ele>724.0</ele><time>2026-03-29T12:11:39.514Z</time></trkpt><trkpt lat="40.3921715" lon="15.1918285"><ele>723.0</ele><time>2026-03-29T12:11:42.406Z</time></trkpt><trkpt lat="40.3922323" lon="15.1917323"><ele>722.0</ele><time>2026-03-29T12:11:45.449Z</time></trkpt><trkpt lat="40.3922857" lon="15.191673"><ele>721.0</ele><time>2026-03-29T12:11:47.401Z</time></trkpt><trkpt lat="40.3923568" lon="15.1916164"><ele>720.0</ele><time>2026-03-29T12:11:49.407Z</time></trkpt><trkpt lat="40.3924207" lon="15.1915844"><ele>720.0</ele><time>2026-03-29T12:11:51.423Z</time></trkpt><trkpt lat="40.3924942" lon="15.1915678"><ele>720.0</ele><time>2026-03-29T12:11:54.442Z</time></trkpt><trkpt lat="40.3925572" lon="15.191544"><ele>720.0</ele><time>2026-03-29T12:11:56.408Z</time></trkpt><trkpt lat="40.392628" lon="15.1915098"><ele>720.0</ele><time>2026-03-29T12:11:58.506Z</time></trkpt><trkpt lat="40.3927088" lon="15.1914646"><ele>720.0</ele><time>2026-03-29T12:12:01.414Z</time></trkpt><trkpt lat="40.392772" lon="15.1914292"><ele>720.0</ele><time>2026-03-29T12:12:04.415Z</time></trkpt><trkpt lat="40.3928238" lon="15.1913775"><ele>720.0</ele><time>2026-03-29T12:12:07.413Z</time></trkpt><trkpt lat="40.3928805" lon="15.1913415"><ele>718.3333333333334</ele><time>2026-03-29T12:12:10.411Z</time></trkpt><trkpt lat="40.3929409" lon="15.1913022"><ele>716.6666666666666</ele><time>2026-03-29T12:12:13.412Z</time></trkpt><trkpt lat="40.3930105" lon="15.1912506"><ele>715.0</ele><time>2026-03-29T12:12:16.431Z</time></trkpt><trkpt lat="40.3930883" lon="15.1911896"><ele>713.3333333333333</ele><time>2026-03-29T12:12:19.406Z</time></trkpt><trkpt lat="40.3931538" lon="15.1911384"><ele>711.6666666666666</ele><time>2026-03-29T12:12:21.416Z</time></trkpt><trkpt lat="40.3932138" lon="15.1910831"><ele>710.0</ele><time>2026-03-29T12:12:23.411Z</time></trkpt><trkpt lat="40.3932736" lon="15.1910223"><ele>710.0</ele><time>2026-03-29T12:12:25.402Z</time></trkpt><trkpt lat="40.3933345" lon="15.1909533"><ele>710.0</ele><time>2026-03-29T12:12:27.409Z</time></trkpt><trkpt lat="40.3933908" lon="15.1908757"><ele>710.0</ele><time>2026-03-29T12:12:29.424Z</time></trkpt><trkpt lat="40.3934373" lon="15.1908118"><ele>710.0</ele><time>2026-03-29T12:12:31.419Z</time></trkpt><trkpt lat="40.3934854" lon="15.1907464"><ele>710.0</ele><time>2026-03-29T12:12:33.423Z</time></trkpt><trkpt lat="40.3935347" lon="15.1906768"><ele>710.0</ele><time>2026-03-29T12:12:35.403Z</time></trkpt><trkpt lat="40.3935838" lon="15.1905961"><ele>711.3333333333333</ele><time>2026-03-29T12:12:37.41Z</time></trkpt><trkpt lat="40.39364" lon="15.1905178"><ele>712.6666666666666</ele><time>2026-03-29T12:12:39.407Z</time></trkpt><trkpt lat="40.3936979" lon="15.1904383"><ele>714.0</ele><time>2026-03-29T12:12:41.424Z</time></trkpt><trkpt lat="40.3937514" lon="15.1903645"><ele>715.3333333333334</ele><time>2026-03-29T12:12:43.484Z</time></trkpt><trkpt lat="40.3938023" lon="15.1902869"><ele>716.6666666666667</ele><time>2026-03-29T12:12:45.42Z</time></trkpt><trkpt lat="40.3938564" lon="15.1902092"><ele>718.0</ele><time>2026-03-29T12:12:47.416Z</time></trkpt><trkpt lat="40.3939193" lon="15.1901237"><ele>715.7142857142858</ele><time>2026-03-29T12:12:49.405Z</time></trkpt><trkpt lat="40.3939821" lon="15.1900482"><ele>713.4285714285714</ele><time>2026-03-29T12:12:51.42Z</time></trkpt><trkpt lat="40.3940379" lon="15.1899827"><ele>711.1428571428571</ele><time>2026-03-29T12:12:53.414Z</time></trkpt><trkpt lat="40.3940874" lon="15.1899184"><ele>708.8571428571429</ele><time>2026-03-29T12:12:55.417Z</time></trkpt><trkpt lat="40.3941366" lon="15.1898607"><ele>706.5714285714286</ele><time>2026-03-29T12:12:57.418Z</time></trkpt><trkpt lat="40.3941839" lon="15.1898041"><ele>704.2857142857143</ele><time>2026-03-29T12:12:59.408Z</time></trkpt><trkpt lat="40.3942344" lon="15.189741"><ele>702.0</ele><time>2026-03-29T12:13:01.423Z</time></trkpt><trkpt lat="40.3942777" lon="15.1896766"><ele>702.0000000000001</ele><time>2026-03-29T12:13:03.396Z</time></trkpt><trkpt lat="40.3943205" lon="15.1896087"><ele>702.0</ele><time>2026-03-29T12:13:05.442Z</time></trkpt><trkpt lat="40.3943829" lon="15.1895266"><ele>702.0</ele><time>2026-03-29T12:13:08.405Z</time></trkpt><trkpt lat="40.3944391" lon="15.1894704"><ele>702.0</ele><time>2026-03-29T12:13:11.436Z</time></trkpt><trkpt lat="40.3944921" lon="15.1894068"><ele>702.0</ele><time>2026-03-29T12:13:14.402Z</time></trkpt><trkpt lat="40.3945488" lon="15.1893393"><ele>702.0000000000001</ele><time>2026-03-29T12:13:17.403Z</time></trkpt><trkpt lat="40.3945797" lon="15.1892621"><ele>702.0</ele><time>2026-03-29T12:13:23.223Z</time></trkpt><trkpt lat="40.3946938" lon="15.1890816"><ele>697.0000000000001</ele><time>2026-03-29T12:13:30.222Z</time></trkpt><trkpt lat="40.3947367" lon="15.1889967"><ele>692.0</ele><time>2026-03-29T12:13:32.432Z</time></trkpt><trkpt lat="40.3947805" lon="15.1889088"><ele>687.0</ele><time>2026-03-29T12:13:34.449Z</time></trkpt><trkpt lat="40.3948029" lon="15.1888193"><ele>682.0</ele><time>2026-03-29T12:13:36.425Z</time></trkpt><trkpt lat="40.394813" lon="15.1887333"><ele>677.0</ele><time>2026-03-29T12:13:38.417Z</time></trkpt><trkpt lat="40.3948097" lon="15.1886455"><ele>672.0000000000001</ele><time>2026-03-29T12:13:40.385Z</time></trkpt><trkpt lat="40.3948139" lon="15.1885422"><ele>667.0</ele><time>2026-03-29T12:13:42.423Z</time></trkpt><trkpt lat="40.394817" lon="15.1884498"><ele>667.0</ele><time>2026-03-29T12:13:44.389Z</time></trkpt><trkpt lat="40.3948203" lon="15.1883518"><ele>667.0</ele><time>2026-03-29T12:13:46.403Z</time></trkpt><trkpt lat="40.3948202" lon="15.1882639"><ele>667.0</ele><time>2026-03-29T12:13:48.411Z</time></trkpt><trkpt lat="40.3948188" lon="15.1881551"><ele>667.0</ele><time>2026-03-29T12:13:50.417Z</time></trkpt><trkpt lat="40.3948123" lon="15.1880422"><ele>667.0</ele><time>2026-03-29T12:13:52.398Z</time></trkpt><trkpt lat="40.3948104" lon="15.1879466"><ele>667.0</ele><time>2026-03-29T12:13:54.397Z</time></trkpt><trkpt lat="40.3948059" lon="15.1878329"><ele>667.8</ele><time>2026-03-29T12:13:56.406Z</time></trkpt><trkpt lat="40.3947997" lon="15.1877006"><ele>668.6</ele><time>2026-03-29T12:13:58.394Z</time></trkpt><trkpt lat="40.3947941" lon="15.1875738"><ele>669.4</ele><time>2026-03-29T12:14:00.391Z</time></trkpt><trkpt lat="40.3947927" lon="15.1874669"><ele>670.1999999999999</ele><time>2026-03-29T12:14:02.413Z</time></trkpt><trkpt lat="40.3947934" lon="15.1873538"><ele>671.0</ele><time>2026-03-29T12:14:04.411Z</time></trkpt><trkpt lat="40.3948031" lon="15.1872427"><ele>672.6666666666666</ele><time>2026-03-29T12:14:06.409Z</time></trkpt><trkpt lat="40.3948211" lon="15.1871522"><ele>674.3333333333333</ele><time>2026-03-29T12:14:08.402Z</time></trkpt><trkpt lat="40.3948581" lon="15.1870508"><ele>676.0</ele><time>2026-03-29T12:14:10.391Z</time></trkpt><trkpt lat="40.3948909" lon="15.1869664"><ele>677.6666666666666</ele><time>2026-03-29T12:14:12.398Z</time></trkpt><trkpt lat="40.3949183" lon="15.1868791"><ele>679.3333333333334</ele><time>2026-03-29T12:14:14.394Z</time></trkpt><trkpt lat="40.394949" lon="15.1867855"><ele>681.0</ele><time>2026-03-29T12:14:16.345Z</time></trkpt><trkpt lat="40.3949804" lon="15.18669"><ele>681.0</ele><time>2026-03-29T12:14:18.354Z</time></trkpt><trkpt lat="40.3950061" lon="15.1865989"><ele>681.0</ele><time>2026-03-29T12:14:20.367Z</time></trkpt><trkpt lat="40.3950306" lon="15.1865045"><ele>681.0</ele><time>2026-03-29T12:14:22.378Z</time></trkpt><trkpt lat="40.3950534" lon="15.186415"><ele>681.0</ele><time>2026-03-29T12:14:24.367Z</time></trkpt><trkpt lat="40.3950798" lon="15.1863158"><ele>681.0</ele><time>2026-03-29T12:14:26.397Z</time></trkpt><trkpt lat="40.3951104" lon="15.1862237"><ele>681.0</ele><time>2026-03-29T12:14:28.4Z</time></trkpt><trkpt lat="40.3951449" lon="15.1861323"><ele>683.4285714285714</ele><time>2026-03-29T12:14:30.39Z</time></trkpt><trkpt lat="40.395173" lon="15.1860538"><ele>685.8571428571429</ele><time>2026-03-29T12:14:32.388Z</time></trkpt><trkpt lat="40.3952054" lon="15.1859752"><ele>688.2857142857142</ele><time>2026-03-29T12:14:34.408Z</time></trkpt><trkpt lat="40.3952301" lon="15.1858988"><ele>690.7142857142858</ele><time>2026-03-29T12:14:36.382Z</time></trkpt><trkpt lat="40.3952628" lon="15.1858198"><ele>693.1428571428571</ele><time>2026-03-29T12:14:38.39Z</time></trkpt><trkpt lat="40.3953213" lon="15.1857505"><ele>695.5714285714286</ele><time>2026-03-29T12:14:41.406Z</time></trkpt><trkpt lat="40.3954037" lon="15.1857388"><ele>698.0</ele><time>2026-03-29T12:14:44.423Z</time></trkpt><trkpt lat="40.3954533" lon="15.1858006"><ele>698.0</ele><time>2026-03-29T12:14:47.396Z</time></trkpt><trkpt lat="40.3954775" lon="15.185913"><ele>698.0</ele><time>2026-03-29T12:14:50.36Z</time></trkpt><trkpt lat="40.395515" lon="15.1860282"><ele>698.0</ele><time>2026-03-29T12:14:53.379Z</time></trkpt><trkpt lat="40.3955502" lon="15.1860999"><ele>698.0</ele><time>2026-03-29T12:14:55.405Z</time></trkpt><trkpt lat="40.395617" lon="15.186189"><ele>698.0</ele><time>2026-03-29T12:14:58.408Z</time></trkpt><trkpt lat="40.3956882" lon="15.1862578"><ele>698.0</ele><time>2026-03-29T12:15:01.413Z</time></trkpt><trkpt lat="40.3957657" lon="15.1863222"><ele>697.3333333333333</ele><time>2026-03-29T12:15:04.415Z</time></trkpt><trkpt lat="40.3958234" lon="15.1863731"><ele>696.6666666666666</ele><time>2026-03-29T12:15:06.407Z</time></trkpt><trkpt lat="40.3958762" lon="15.1864231"><ele>696.0</ele><time>2026-03-29T12:15:08.53Z</time></trkpt><trkpt lat="40.3959558" lon="15.1864882"><ele>695.3333333333334</ele><time>2026-03-29T12:15:11.411Z</time></trkpt><trkpt lat="40.3960241" lon="15.1865482"><ele>694.6666666666667</ele><time>2026-03-29T12:15:13.422Z</time></trkpt><trkpt lat="40.3960738" lon="15.1866124"><ele>694.0</ele><time>2026-03-29T12:15:15.4Z</time></trkpt><trkpt lat="40.3961276" lon="15.1866858"><ele>693.8571428571429</ele><time>2026-03-29T12:15:17.423Z</time></trkpt><trkpt lat="40.396179" lon="15.1867632"><ele>693.7142857142857</ele><time>2026-03-29T12:15:19.423Z</time></trkpt><trkpt lat="40.3962282" lon="15.1868291"><ele>693.5714285714286</ele><time>2026-03-29T12:15:21.434Z</time></trkpt><trkpt lat="40.3962783" lon="15.1868888"><ele>693.4285714285714</ele><time>2026-03-29T12:15:23.408Z</time></trkpt><trkpt lat="40.3963323" lon="15.1869463"><ele>693.2857142857142</ele><time>2026-03-29T12:15:25.422Z</time></trkpt><trkpt lat="40.3963903" lon="15.1870095"><ele>693.1428571428571</ele><time>2026-03-29T12:15:27.433Z</time></trkpt><trkpt lat="40.3964531" lon="15.1870802"><ele>693.0</ele><time>2026-03-29T12:15:29.411Z</time></trkpt><trkpt lat="40.3965267" lon="15.1871639"><ele>693.0</ele><time>2026-03-29T12:15:31.404Z</time></trkpt><trkpt lat="40.3965956" lon="15.1872383"><ele>693.0</ele><time>2026-03-29T12:15:33.534Z</time></trkpt><trkpt lat="40.3966596" lon="15.187306"><ele>693.0</ele><time>2026-03-29T12:15:35.425Z</time></trkpt><trkpt lat="40.3967381" lon="15.1873872"><ele>693.0</ele><time>2026-03-29T12:15:37.414Z</time></trkpt><trkpt lat="40.3968147" lon="15.1874726"><ele>693.0</ele><time>2026-03-29T12:15:39.447Z</time></trkpt><trkpt lat="40.3968737" lon="15.1875385"><ele>693.0</ele><time>2026-03-29T12:15:41.403Z</time></trkpt><trkpt lat="40.3969278" lon="15.1875976"><ele>692.1666666666666</ele><time>2026-03-29T12:15:43.418Z</time></trkpt><trkpt lat="40.3969825" lon="15.1876538"><ele>691.3333333333334</ele><time>2026-03-29T12:15:45.42Z</time></trkpt><trkpt lat="40.3970582" lon="15.1877209"><ele>690.5</ele><time>2026-03-29T12:15:48.396Z</time></trkpt><trkpt lat="40.3971365" lon="15.1877612"><ele>689.6666666666667</ele><time>2026-03-29T12:15:50.417Z</time></trkpt><trkpt lat="40.3972181" lon="15.187793"><ele>688.8333333333334</ele><time>2026-03-29T12:15:53.411Z</time></trkpt><trkpt lat="40.3972982" lon="15.1878385"><ele>688.0</ele><time>2026-03-29T12:15:56.409Z</time></trkpt><trkpt lat="40.3973679" lon="15.1878656"><ele>688.0</ele><time>2026-03-29T12:15:58.414Z</time></trkpt><trkpt lat="40.3974545" lon="15.1878798"><ele>688.0</ele><time>2026-03-29T12:16:00.412Z</time></trkpt><trkpt lat="40.3975573" lon="15.1878767"><ele>688.0</ele><time>2026-03-29T12:16:02.399Z</time></trkpt><trkpt lat="40.3976595" lon="15.1878548"><ele>688.0</ele><time>2026-03-29T12:16:04.413Z</time></trkpt><trkpt lat="40.3977329" lon="15.1878383"><ele>688.0</ele><time>2026-03-29T12:16:06.408Z</time></trkpt><trkpt lat="40.3977993" lon="15.1878308"><ele>688.0</ele><time>2026-03-29T12:16:08.415Z</time></trkpt><trkpt lat="40.3978819" lon="15.1878319"><ele>688.0000000000001</ele><time>2026-03-29T12:16:12.413Z</time></trkpt><trkpt lat="40.3979578" lon="15.1878246"><ele>688.0</ele><time>2026-03-29T12:16:15.418Z</time></trkpt><trkpt lat="40.3980288" lon="15.1878237"><ele>688.0</ele><time>2026-03-29T12:16:18.405Z</time></trkpt><trkpt lat="40.3981136" lon="15.1878365"><ele>688.0</ele><time>2026-03-29T12:16:21.404Z</time></trkpt><trkpt lat="40.3981814" lon="15.1878374"><ele>688.0</ele><time>2026-03-29T12:16:23.426Z</time></trkpt><trkpt lat="40.3982532" lon="15.1878206"><ele>688.0000000000001</ele><time>2026-03-29T12:16:25.406Z</time></trkpt><trkpt lat="40.3983158" lon="15.1877969"><ele>688.0</ele><time>2026-03-29T12:16:27.38Z</time></trkpt><trkpt lat="40.398395" lon="15.1877604"><ele>688.7142857142858</ele><time>2026-03-29T12:16:31.421Z</time></trkpt><trkpt lat="40.3984551" lon="15.1877182"><ele>689.4285714285714</ele><time>2026-03-29T12:16:33.425Z</time></trkpt><trkpt lat="40.3985103" lon="15.1876466"><ele>690.1428571428571</ele><time>2026-03-29T12:16:35.402Z</time></trkpt><trkpt lat="40.3985559" lon="15.187581"><ele>690.8571428571429</ele><time>2026-03-29T12:16:37.413Z</time></trkpt><trkpt lat="40.3986159" lon="15.1875154"><ele>691.5714285714286</ele><time>2026-03-29T12:16:40.435Z</time></trkpt><trkpt lat="40.3986807" lon="15.1874636"><ele>692.2857142857143</ele><time>2026-03-29T12:16:43.42Z</time></trkpt><trkpt lat="40.3987416" lon="15.1874306"><ele>693.0</ele><time>2026-03-29T12:16:46.406Z</time></trkpt><trkpt lat="40.3988328" lon="15.1874261"><ele>691.1428571428571</ele><time>2026-03-29T12:16:49.398Z</time></trkpt><trkpt lat="40.3989037" lon="15.1874347"><ele>689.2857142857142</ele><time>2026-03-29T12:16:51.407Z</time></trkpt><trkpt lat="40.3989754" lon="15.1874365"><ele>687.4285714285714</ele><time>2026-03-29T12:16:53.409Z</time></trkpt><trkpt lat="40.3990415" lon="15.1874251"><ele>685.5714285714286</ele><time>2026-03-29T12:16:55.492Z</time></trkpt><trkpt lat="40.399116" lon="15.1874001"><ele>683.7142857142857</ele><time>2026-03-29T12:16:58.404Z</time></trkpt><trkpt lat="40.3992022" lon="15.1873745"><ele>681.8571428571429</ele><time>2026-03-29T12:17:01.406Z</time></trkpt><trkpt lat="40.3992675" lon="15.1873693"><ele>680.0</ele><time>2026-03-29T12:17:03.394Z</time></trkpt><trkpt lat="40.3993499" lon="15.1873757"><ele>680.0</ele><time>2026-03-29T12:17:05.402Z</time></trkpt><trkpt lat="40.3994241" lon="15.1874028"><ele>680.0</ele><time>2026-03-29T12:17:07.394Z</time></trkpt><trkpt lat="40.3994962" lon="15.1874315"><ele>680.0</ele><time>2026-03-29T12:17:09.412Z</time></trkpt><trkpt lat="40.399572" lon="15.187461"><ele>680.0</ele><time>2026-03-29T12:17:11.432Z</time></trkpt><trkpt lat="40.3996442" lon="15.1874826"><ele>680.0</ele><time>2026-03-29T12:17:13.381Z</time></trkpt><trkpt lat="40.3997177" lon="15.1874984"><ele>680.0</ele><time>2026-03-29T12:17:15.394Z</time></trkpt><trkpt lat="40.3997928" lon="15.1875115"><ele>678.5</ele><time>2026-03-29T12:17:17.416Z</time></trkpt><trkpt lat="40.3998688" lon="15.1875258"><ele>677.0</ele><time>2026-03-29T12:17:19.409Z</time></trkpt><trkpt lat="40.3999429" lon="15.1875408"><ele>675.5</ele><time>2026-03-29T12:17:21.415Z</time></trkpt><trkpt lat="40.4000118" lon="15.1875361"><ele>674.0</ele><time>2026-03-29T12:17:23.535Z</time></trkpt><trkpt lat="40.400077" lon="15.1875319"><ele>672.5</ele><time>2026-03-29T12:17:25.414Z</time></trkpt><trkpt lat="40.4001672" lon="15.1875273"><ele>671.0</ele><time>2026-03-29T12:17:28.398Z</time></trkpt><trkpt lat="40.4002546" lon="15.1875179"><ele>671.0</ele><time>2026-03-29T12:17:31.41Z</time></trkpt><trkpt lat="40.40032" lon="15.187513"><ele>671.0</ele><time>2026-03-29T12:17:35.435Z</time></trkpt><trkpt lat="40.4003866" lon="15.1875097"><ele>671.0</ele><time>2026-03-29T12:17:39.406Z</time></trkpt><trkpt lat="40.4004675" lon="15.1874973"><ele>671.0</ele><time>2026-03-29T12:17:43.423Z</time></trkpt><trkpt lat="40.4005413" lon="15.1874765"><ele>671.0</ele><time>2026-03-29T12:17:46.492Z</time></trkpt><trkpt lat="40.400622" lon="15.1874585"><ele>671.0</ele><time>2026-03-29T12:17:49.417Z</time></trkpt><trkpt lat="40.4007096" lon="15.1874297"><ele>671.7142857142857</ele><time>2026-03-29T12:17:52.43Z</time></trkpt><trkpt lat="40.4007731" lon="15.187414"><ele>672.4285714285714</ele><time>2026-03-29T12:17:54.407Z</time></trkpt><trkpt lat="40.400847" lon="15.1873874"><ele>673.1428571428571</ele><time>2026-03-29T12:17:56.406Z</time></trkpt><trkpt lat="40.4009159" lon="15.1873657"><ele>673.8571428571429</ele><time>2026-03-29T12:17:58.421Z</time></trkpt><trkpt lat="40.4009899" lon="15.187343"><ele>674.5714285714286</ele><time>2026-03-29T12:18:00.406Z</time></trkpt><trkpt lat="40.4010638" lon="15.187319"><ele>675.2857142857143</ele><time>2026-03-29T12:18:02.416Z</time></trkpt><trkpt lat="40.4011399" lon="15.187303"><ele>676.0</ele><time>2026-03-29T12:18:04.407Z</time></trkpt><trkpt lat="40.4012023" lon="15.187248"><ele>676.0</ele><time>2026-03-29T12:18:06.422Z</time></trkpt><trkpt lat="40.4012656" lon="15.1871919"><ele>676.0</ele><time>2026-03-29T12:18:08.405Z</time></trkpt><trkpt lat="40.4013256" lon="15.1871464"><ele>676.0</ele><time>2026-03-29T12:18:10.428Z</time></trkpt><trkpt lat="40.4013882" lon="15.1871185"><ele>676.0</ele><time>2026-03-29T12:18:12.419Z</time></trkpt><trkpt lat="40.4014501" lon="15.1870994"><ele>676.0</ele><time>2026-03-29T12:18:14.405Z</time></trkpt><trkpt lat="40.4015234" lon="15.1870803"><ele>676.0</ele><time>2026-03-29T12:18:17.404Z</time></trkpt><trkpt lat="40.401605" lon="15.1870729"><ele>676.0</ele><time>2026-03-29T12:18:20.405Z</time></trkpt><trkpt lat="40.401693" lon="15.1870514"><ele>672.8333333333334</ele><time>2026-03-29T12:18:23.44Z</time></trkpt><trkpt lat="40.401771" lon="15.187019"><ele>669.6666666666667</ele><time>2026-03-29T12:18:27.422Z</time></trkpt><trkpt lat="40.4018456" lon="15.1869581"><ele>666.5</ele><time>2026-03-29T12:18:30.414Z</time></trkpt><trkpt lat="40.401902" lon="15.1869002"><ele>663.3333333333334</ele><time>2026-03-29T12:18:32.486Z</time></trkpt><trkpt lat="40.4019658" lon="15.1868511"><ele>660.1666666666666</ele><time>2026-03-29T12:18:34.426Z</time></trkpt><trkpt lat="40.402029" lon="15.1868211"><ele>657.0</ele><time>2026-03-29T12:18:36.415Z</time></trkpt><trkpt lat="40.4020934" lon="15.1867823"><ele>657.0</ele><time>2026-03-29T12:18:38.415Z</time></trkpt><trkpt lat="40.4021495" lon="15.1867429"><ele>657.0</ele><time>2026-03-29T12:18:40.43Z</time></trkpt><trkpt lat="40.402211" lon="15.1866967"><ele>657.0</ele><time>2026-03-29T12:18:42.438Z</time></trkpt><trkpt lat="40.4022836" lon="15.186646"><ele>657.0</ele><time>2026-03-29T12:18:44.443Z</time></trkpt><trkpt lat="40.4023506" lon="15.1865993"><ele>657.0</ele><time>2026-03-29T12:18:46.442Z</time></trkpt><trkpt lat="40.4024177" lon="15.1865494"><ele>657.0</ele><time>2026-03-29T12:18:48.439Z</time></trkpt><trkpt lat="40.4024813" lon="15.1865047"><ele>657.0</ele><time>2026-03-29T12:18:50.44Z</time></trkpt><trkpt lat="40.402538" lon="15.1864552"><ele>654.5</ele><time>2026-03-29T12:18:52.42Z</time></trkpt><trkpt lat="40.4026095" lon="15.1863787"><ele>652.0</ele><time>2026-03-29T12:18:56.412Z</time></trkpt><trkpt lat="40.402656" lon="15.1863174"><ele>649.5</ele><time>2026-03-29T12:18:58.451Z</time></trkpt><trkpt lat="40.4027031" lon="15.1862555"><ele>647.0</ele><time>2026-03-29T12:19:00.432Z</time></trkpt><trkpt lat="40.4027575" lon="15.1861733"><ele>644.5</ele><time>2026-03-29T12:19:02.441Z</time></trkpt><trkpt lat="40.4028095" lon="15.1860865"><ele>642.0</ele><time>2026-03-29T12:19:04.4Z</time></trkpt><trkpt lat="40.4028457" lon="15.1860134"><ele>641.9999999999999</ele><time>2026-03-29T12:19:06.419Z</time></trkpt><trkpt lat="40.4028922" lon="15.1859395"><ele>642.0</ele><time>2026-03-29T12:19:08.414Z</time></trkpt><trkpt lat="40.4029449" lon="15.1858792"><ele>642.0</ele><time>2026-03-29T12:19:10.418Z</time></trkpt><trkpt lat="40.4029938" lon="15.1858211"><ele>642.0</ele><time>2026-03-29T12:19:12.416Z</time></trkpt><trkpt lat="40.4030497" lon="15.185765"><ele>642.0</ele><time>2026-03-29T12:19:14.443Z</time></trkpt><trkpt lat="40.4031068" lon="15.1856948"><ele>641.9999999999999</ele><time>2026-03-29T12:19:17.443Z</time></trkpt><trkpt lat="40.4031645" lon="15.1856275"><ele>642.0</ele><time>2026-03-29T12:19:21.443Z</time></trkpt><trkpt lat="40.4031916" lon="15.1855444"><ele>637.0</ele><time>2026-03-29T12:19:26.431Z</time></trkpt><trkpt lat="40.4031907" lon="15.1854349"><ele>632.0</ele><time>2026-03-29T12:19:31.419Z</time></trkpt><trkpt lat="40.4031884" lon="15.1853423"><ele>627.0</ele><time>2026-03-29T12:19:34.409Z</time></trkpt><trkpt lat="40.4031869" lon="15.1852322"><ele>622.0</ele><time>2026-03-29T12:19:37.407Z</time></trkpt><trkpt lat="40.4031807" lon="15.1851366"><ele>617.0</ele><time>2026-03-29T12:19:40.408Z</time></trkpt><trkpt lat="40.4031634" lon="15.1850439"><ele>612.0</ele><time>2026-03-29T12:19:43.43Z</time></trkpt><trkpt lat="40.4031507" lon="15.1849494"><ele>612.0</ele><time>2026-03-29T12:19:46.392Z</time></trkpt><trkpt lat="40.403174" lon="15.1848666"><ele>612.0</ele><time>2026-03-29T12:19:49.381Z</time></trkpt><trkpt lat="40.403205" lon="15.1847662"><ele>612.0</ele><time>2026-03-29T12:19:52.424Z</time></trkpt><trkpt lat="40.4032263" lon="15.184668"><ele>612.0</ele><time>2026-03-29T12:19:54.392Z</time></trkpt><trkpt lat="40.4032523" lon="15.1845646"><ele>612.0</ele><time>2026-03-29T12:19:56.413Z</time></trkpt><trkpt lat="40.4032864" lon="15.184461"><ele>612.0</ele><time>2026-03-29T12:19:58.406Z</time></trkpt><trkpt lat="40.4033135" lon="15.1843711"><ele>614.0</ele><time>2026-03-29T12:20:00.472Z</time></trkpt><trkpt lat="40.4033469" lon="15.1842491"><ele>616.0</ele><time>2026-03-29T12:20:03.417Z</time></trkpt><trkpt lat="40.4033829" lon="15.184148"><ele>618.0</ele><time>2026-03-29T12:20:05.402Z</time></trkpt><trkpt lat="40.4034301" lon="15.1840583"><ele>620.0</ele><time>2026-03-29T12:20:07.413Z</time></trkpt><trkpt lat="40.4034868" lon="15.1839966"><ele>622.0</ele><time>2026-03-29T12:20:09.436Z</time></trkpt><trkpt lat="40.4035609" lon="15.1839781"><ele>624.0</ele><time>2026-03-29T12:20:11.418Z</time></trkpt><trkpt lat="40.4036282" lon="15.1839664"><ele>622.8333333333334</ele><time>2026-03-29T12:20:13.427Z</time></trkpt><trkpt lat="40.403696" lon="15.1839371"><ele>621.6666666666666</ele><time>2026-03-29T12:20:15.406Z</time></trkpt><trkpt lat="40.4037518" lon="15.1838943"><ele>620.5</ele><time>2026-03-29T12:20:17.432Z</time></trkpt><trkpt lat="40.4038223" lon="15.183816"><ele>619.3333333333333</ele><time>2026-03-29T12:20:20.415Z</time></trkpt><trkpt lat="40.4038707" lon="15.183714"><ele>618.1666666666666</ele><time>2026-03-29T12:20:23.414Z</time></trkpt><trkpt lat="40.4039071" lon="15.1836232"><ele>617.0</ele><time>2026-03-29T12:20:25.423Z</time></trkpt><trkpt lat="40.4039383" lon="15.1835327"><ele>617.0</ele><time>2026-03-29T12:20:27.437Z</time></trkpt><trkpt lat="40.4039601" lon="15.1834431"><ele>617.0</ele><time>2026-03-29T12:20:29.402Z</time></trkpt><trkpt lat="40.4039842" lon="15.1833369"><ele>617.0</ele><time>2026-03-29T12:20:32.436Z</time></trkpt><trkpt lat="40.4039999" lon="15.1832508"><ele>617.0</ele><time>2026-03-29T12:20:35.535Z</time></trkpt><trkpt lat="40.4040203" lon="15.1831522"><ele>617.0</ele><time>2026-03-29T12:20:38.413Z</time></trkpt><trkpt lat="40.4040545" lon="15.1830606"><ele>617.0</ele><time>2026-03-29T12:20:41.41Z</time></trkpt><trkpt lat="40.404106" lon="15.1830049"><ele>617.0</ele><time>2026-03-29T12:20:44.43Z</time></trkpt><trkpt lat="40.4041896" lon="15.1830231"><ele>617.0</ele><time>2026-03-29T12:20:47.421Z</time></trkpt><trkpt lat="40.404238" lon="15.1831287"><ele>617.0</ele><time>2026-03-29T12:20:49.438Z</time></trkpt><trkpt lat="40.4042566" lon="15.1832693"><ele>617.0</ele><time>2026-03-29T12:20:51.412Z</time></trkpt><trkpt lat="40.4042796" lon="15.1833997"><ele>617.0</ele><time>2026-03-29T12:20:53.415Z</time></trkpt><trkpt lat="40.4043159" lon="15.1835425"><ele>617.0</ele><time>2026-03-29T12:20:55.41Z</time></trkpt><trkpt lat="40.4043983" lon="15.1836639"><ele>617.0</ele><time>2026-03-29T12:20:57.421Z</time></trkpt><trkpt lat="40.4044567" lon="15.1837081"><ele>617.0</ele><time>2026-03-29T12:20:58.438Z</time></trkpt><trkpt lat="40.4045118" lon="15.1837496"><ele>617.0</ele><time>2026-03-29T12:20:59.425Z</time></trkpt><trkpt lat="40.4045701" lon="15.1837911"><ele>617.0</ele><time>2026-03-29T12:21:00.416Z</time></trkpt><trkpt lat="40.4046285" lon="15.183833"><ele>617.0</ele><time>2026-03-29T12:21:01.404Z</time></trkpt><trkpt lat="40.4046865" lon="15.1838747"><ele>617.0</ele><time>2026-03-29T12:21:02.396Z</time></trkpt><trkpt lat="40.4047436" lon="15.1839213"><ele>617.0</ele><time>2026-03-29T12:21:03.435Z</time></trkpt><trkpt lat="40.4047944" lon="15.1839708"><ele>614.0</ele><time>2026-03-29T12:21:04.447Z</time></trkpt><trkpt lat="40.4048644" lon="15.1840946"><ele>611.0</ele><time>2026-03-29T12:21:06.403Z</time></trkpt><trkpt lat="40.4048894" lon="15.1841734"><ele>608.0</ele><time>2026-03-29T12:21:07.416Z</time></trkpt><trkpt lat="40.4049063" lon="15.1842576"><ele>605.0</ele><time>2026-03-29T12:21:08.411Z</time></trkpt><trkpt lat="40.4049203" lon="15.1843427"><ele>602.0</ele><time>2026-03-29T12:21:09.386Z</time></trkpt><trkpt lat="40.4049324" lon="15.184439"><ele>599.0</ele><time>2026-03-29T12:21:10.413Z</time></trkpt><trkpt lat="40.4049497" lon="15.1845395"><ele>599.0</ele><time>2026-03-29T12:21:11.427Z</time></trkpt><trkpt lat="40.4049623" lon="15.1846233"><ele>599.0</ele><time>2026-03-29T12:21:12.432Z</time></trkpt><trkpt lat="40.4049875" lon="15.1847411"><ele>599.0</ele><time>2026-03-29T12:21:14.424Z</time></trkpt><trkpt lat="40.4050416" lon="15.1848226"><ele>599.0</ele><time>2026-03-29T12:21:16.437Z</time></trkpt><trkpt lat="40.4052075" lon="15.1849256"><ele>599.0</ele><time>2026-03-29T12:21:19.412Z</time></trkpt><trkpt lat="40.4053274" lon="15.1849937"><ele>597.3333333333333</ele><time>2026-03-29T12:21:21.419Z</time></trkpt><trkpt lat="40.40543" lon="15.1850552"><ele>595.6666666666666</ele><time>2026-03-29T12:21:23.4Z</time></trkpt><trkpt lat="40.4054895" lon="15.1850889"><ele>594.0</ele><time>2026-03-29T12:21:24.415Z</time></trkpt><trkpt lat="40.4055478" lon="15.1851245"><ele>592.3333333333334</ele><time>2026-03-29T12:21:25.431Z</time></trkpt><trkpt lat="40.4056506" lon="15.1851845"><ele>590.6666666666667</ele><time>2026-03-29T12:21:27.42Z</time></trkpt><trkpt lat="40.4057257" lon="15.1852409"><ele>589.0</ele><time>2026-03-29T12:21:29.388Z</time></trkpt><trkpt lat="40.4057986" lon="15.1852783"><ele>587.0</ele><time>2026-03-29T12:21:31.416Z</time></trkpt><trkpt lat="40.405851" lon="15.1853252"><ele>585.0</ele><time>2026-03-29T12:21:33.419Z</time></trkpt><trkpt lat="40.4059099" lon="15.1853668"><ele>583.0</ele><time>2026-03-29T12:21:36.41Z</time></trkpt><trkpt lat="40.406382" lon="15.1854571"><ele>581.4285714285714</ele><time>2026-03-29T12:21:37.441Z</time></trkpt><trkpt lat="40.4064447" lon="15.1854866"><ele>579.8571428571429</ele><time>2026-03-29T12:21:38.402Z</time></trkpt><trkpt lat="40.4065125" lon="15.1855143"><ele>578.2857142857142</ele><time>2026-03-29T12:21:39.419Z</time></trkpt><trkpt lat="40.4065805" lon="15.1855384"><ele>576.7142857142858</ele><time>2026-03-29T12:21:40.422Z</time></trkpt><trkpt lat="40.4066524" lon="15.1855535"><ele>575.1428571428571</ele><time>2026-03-29T12:21:41.426Z</time></trkpt><trkpt lat="40.4067237" lon="15.1855671"><ele>573.5714285714286</ele><time>2026-03-29T12:21:42.407Z</time></trkpt><trkpt lat="40.4067974" lon="15.1855788"><ele>572.0</ele><time>2026-03-29T12:21:43.419Z</time></trkpt><trkpt lat="40.4068652" lon="15.1855861"><ele>572.0</ele><time>2026-03-29T12:21:44.426Z</time></trkpt><trkpt lat="40.4069329" lon="15.1855802"><ele>572.0</ele><time>2026-03-29T12:21:45.431Z</time></trkpt><trkpt lat="40.4070543" lon="15.1855397"><ele>572.0</ele><time>2026-03-29T12:21:47.433Z</time></trkpt><trkpt lat="40.4071154" lon="15.1855188"><ele>572.0</ele><time>2026-03-29T12:21:48.418Z</time></trkpt><trkpt lat="40.4071902" lon="15.1855197"><ele>572.0</ele><time>2026-03-29T12:21:49.547Z</time></trkpt><trkpt lat="40.4073118" lon="15.1855649"><ele>570.4</ele><time>2026-03-29T12:21:51.423Z</time></trkpt><trkpt lat="40.4074146" lon="15.1856172"><ele>568.8000000000001</ele><time>2026-03-29T12:21:53.418Z</time></trkpt><trkpt lat="40.4075287" lon="15.1856396"><ele>567.2</ele><time>2026-03-29T12:21:55.413Z</time></trkpt><trkpt lat="40.4076405" lon="15.1856236"><ele>565.6</ele><time>2026-03-29T12:21:57.403Z</time></trkpt><trkpt lat="40.4077279" lon="15.185608"><ele>564.0</ele><time>2026-03-29T12:21:59.431Z</time></trkpt><trkpt lat="40.4078075" lon="15.1855719"><ele>564.0</ele><time>2026-03-29T12:22:01.404Z</time></trkpt><trkpt lat="40.4078774" lon="15.1855296"><ele>564.0</ele><time>2026-03-29T12:22:02.429Z</time></trkpt><trkpt lat="40.4079607" lon="15.1854941"><ele>564.0</ele><time>2026-03-29T12:22:03.439Z</time></trkpt><trkpt lat="40.4080419" lon="15.1854314"><ele>564.0</ele><time>2026-03-29T12:22:04.425Z</time></trkpt><trkpt lat="40.4081168" lon="15.1853576"><ele>564.0</ele><time>2026-03-29T12:22:05.439Z</time></trkpt><trkpt lat="40.4081874" lon="15.1852795"><ele>564.0</ele><time>2026-03-29T12:22:06.42Z</time></trkpt><trkpt lat="40.4082571" lon="15.1851983"><ele>564.8333333333334</ele><time>2026-03-29T12:22:07.416Z</time></trkpt><trkpt lat="40.4083178" lon="15.18512"><ele>565.6666666666666</ele><time>2026-03-29T12:22:08.41Z</time></trkpt><trkpt lat="40.4083807" lon="15.1850397"><ele>566.5</ele><time>2026-03-29T12:22:09.419Z</time></trkpt><trkpt lat="40.4084476" lon="15.1849608"><ele>567.3333333333333</ele><time>2026-03-29T12:22:10.434Z</time></trkpt><trkpt lat="40.4085121" lon="15.1848924"><ele>568.1666666666666</ele><time>2026-03-29T12:22:11.431Z</time></trkpt><trkpt lat="40.4085801" lon="15.1848264"><ele>569.0</ele><time>2026-03-29T12:22:12.509Z</time></trkpt><trkpt lat="40.4087101" lon="15.1847341"><ele>569.0</ele><time>2026-03-29T12:22:14.408Z</time></trkpt><trkpt lat="40.4087888" lon="15.1846897"><ele>569.0</ele><time>2026-03-29T12:22:15.421Z</time></trkpt><trkpt lat="40.4088652" lon="15.1846546"><ele>569.0</ele><time>2026-03-29T12:22:16.39Z</time></trkpt><trkpt lat="40.408945" lon="15.1846247"><ele>569.0</ele><time>2026-03-29T12:22:17.404Z</time></trkpt><trkpt lat="40.4090199" lon="15.1845951"><ele>569.0</ele><time>2026-03-29T12:22:18.417Z</time></trkpt><trkpt lat="40.4090975" lon="15.184568"><ele>569.0</ele><time>2026-03-29T12:22:19.412Z</time></trkpt><trkpt lat="40.409181" lon="15.1845441"><ele>566.6</ele><time>2026-03-29T12:22:20.414Z</time></trkpt><trkpt lat="40.4092681" lon="15.1845265"><ele>564.2</ele><time>2026-03-29T12:22:21.401Z</time></trkpt><trkpt lat="40.4093607" lon="15.1845101"><ele>561.8000000000001</ele><time>2026-03-29T12:22:22.406Z</time></trkpt><trkpt lat="40.4094566" lon="15.1844931"><ele>559.4</ele><time>2026-03-29T12:22:23.41Z</time></trkpt><trkpt lat="40.4095569" lon="15.1844756"><ele>557.0</ele><time>2026-03-29T12:22:24.413Z</time></trkpt><trkpt lat="40.4096531" lon="15.1844528"><ele>555.6</ele><time>2026-03-29T12:22:25.424Z</time></trkpt><trkpt lat="40.4097389" lon="15.1844359"><ele>554.2</ele><time>2026-03-29T12:22:26.395Z</time></trkpt><trkpt lat="40.4098228" lon="15.1844199"><ele>552.8</ele><time>2026-03-29T12:22:27.409Z</time></trkpt><trkpt lat="40.4098993" lon="15.1844041"><ele>551.4</ele><time>2026-03-29T12:22:28.407Z</time></trkpt><trkpt lat="40.4099837" lon="15.1843863"><ele>550.0</ele><time>2026-03-29T12:22:29.528Z</time></trkpt><trkpt lat="40.4101447" lon="15.1843531"><ele>550.0</ele><time>2026-03-29T12:22:31.409Z</time></trkpt><trkpt lat="40.4102292" lon="15.1843383"><ele>550.0</ele><time>2026-03-29T12:22:32.405Z</time></trkpt><trkpt lat="40.4103078" lon="15.1843244"><ele>550.0</ele><time>2026-03-29T12:22:33.406Z</time></trkpt><trkpt lat="40.4103913" lon="15.1843068"><ele>550.0</ele><time>2026-03-29T12:22:34.425Z</time></trkpt><trkpt lat="40.4104742" lon="15.1842897"><ele>550.0</ele><time>2026-03-29T12:22:35.447Z</time></trkpt><trkpt lat="40.4105571" lon="15.1842723"><ele>550.0</ele><time>2026-03-29T12:22:36.453Z</time></trkpt><trkpt lat="40.4106369" lon="15.1842482"><ele>548.3333333333334</ele><time>2026-03-29T12:22:37.415Z</time></trkpt><trkpt lat="40.4107212" lon="15.184215"><ele>546.6666666666667</ele><time>2026-03-29T12:22:38.42Z</time></trkpt><trkpt lat="40.4108061" lon="15.184179"><ele>545.0</ele><time>2026-03-29T12:22:39.419Z</time></trkpt><trkpt lat="40.4108914" lon="15.1841413"><ele>543.3333333333334</ele><time>2026-03-29T12:22:40.422Z</time></trkpt><trkpt lat="40.4109752" lon="15.184104"><ele>541.6666666666666</ele><time>2026-03-29T12:22:41.426Z</time></trkpt><trkpt lat="40.4110546" lon="15.184067"><ele>540.0</ele><time>2026-03-29T12:22:42.403Z</time></trkpt><trkpt lat="40.4111339" lon="15.1840271"><ele>539.6666666666666</ele><time>2026-03-29T12:22:43.428Z</time></trkpt><trkpt lat="40.4112133" lon="15.1839894"><ele>539.3333333333334</ele><time>2026-03-29T12:22:44.43Z</time></trkpt><trkpt lat="40.4112928" lon="15.1839503"><ele>539.0</ele><time>2026-03-29T12:22:45.419Z</time></trkpt><trkpt lat="40.4113763" lon="15.1839085"><ele>538.6666666666667</ele><time>2026-03-29T12:22:46.434Z</time></trkpt><trkpt lat="40.4114597" lon="15.1838654"><ele>538.3333333333334</ele><time>2026-03-29T12:22:47.431Z</time></trkpt><trkpt lat="40.4115451" lon="15.1838238"><ele>538.0</ele><time>2026-03-29T12:22:48.433Z</time></trkpt><trkpt lat="40.4116375" lon="15.1837818"><ele>538.0</ele><time>2026-03-29T12:22:49.436Z</time></trkpt><trkpt lat="40.4117243" lon="15.1837413"><ele>538.0</ele><time>2026-03-29T12:22:50.422Z</time></trkpt><trkpt lat="40.4118183" lon="15.1836932"><ele>538.0</ele><time>2026-03-29T12:22:51.51Z</time></trkpt><trkpt lat="40.4118914" lon="15.1836507"><ele>538.0</ele><time>2026-03-29T12:22:52.418Z</time></trkpt><trkpt lat="40.4119763" lon="15.1836082"><ele>538.0</ele><time>2026-03-29T12:22:53.521Z</time></trkpt><trkpt lat="40.4121097" lon="15.1835773"><ele>535.8333333333334</ele><time>2026-03-29T12:22:55.402Z</time></trkpt><trkpt lat="40.412185" lon="15.1835696"><ele>533.6666666666667</ele><time>2026-03-29T12:22:56.529Z</time></trkpt><trkpt lat="40.4123106" lon="15.1835879"><ele>531.5</ele><time>2026-03-29T12:22:58.448Z</time></trkpt><trkpt lat="40.4123844" lon="15.1836087"><ele>529.3333333333334</ele><time>2026-03-29T12:22:59.403Z</time></trkpt><trkpt lat="40.4124617" lon="15.1836397"><ele>527.1666666666666</ele><time>2026-03-29T12:23:00.442Z</time></trkpt><trkpt lat="40.4125444" lon="15.1836855"><ele>525.0</ele><time>2026-03-29T12:23:01.409Z</time></trkpt><trkpt lat="40.4126537" lon="15.1837544"><ele>525.0</ele><time>2026-03-29T12:23:02.423Z</time></trkpt><trkpt lat="40.4127522" lon="15.1838119"><ele>525.0</ele><time>2026-03-29T12:23:03.414Z</time></trkpt><trkpt lat="40.4128519" lon="15.1838706"><ele>525.0</ele><time>2026-03-29T12:23:04.424Z</time></trkpt><trkpt lat="40.4129519" lon="15.1839285"><ele>525.0</ele><time>2026-03-29T12:23:05.426Z</time></trkpt><trkpt lat="40.4130485" lon="15.1839852"><ele>525.0</ele><time>2026-03-29T12:23:06.446Z</time></trkpt><trkpt lat="40.4131445" lon="15.184041"><ele>521.0</ele><time>2026-03-29T12:23:07.454Z</time></trkpt><trkpt lat="40.4132386" lon="15.1840947"><ele>517.0</ele><time>2026-03-29T12:23:08.422Z</time></trkpt><trkpt lat="40.4133363" lon="15.1841504"><ele>513.0</ele><time>2026-03-29T12:23:09.435Z</time></trkpt><trkpt lat="40.4134284" lon="15.1842033"><ele>509.0</ele><time>2026-03-29T12:23:10.421Z</time></trkpt><trkpt lat="40.4135194" lon="15.184257"><ele>505.0</ele><time>2026-03-29T12:23:11.457Z</time></trkpt><trkpt lat="40.4135958" lon="15.1843019"><ele>505.00000000000006</ele><time>2026-03-29T12:23:12.403Z</time></trkpt><trkpt lat="40.4136756" lon="15.1843459"><ele>505.0</ele><time>2026-03-29T12:23:13.427Z</time></trkpt><trkpt lat="40.4137501" lon="15.1843775"><ele>505.0</ele><time>2026-03-29T12:23:14.437Z</time></trkpt><trkpt lat="40.4138275" lon="15.1843909"><ele>505.0</ele><time>2026-03-29T12:23:15.44Z</time></trkpt><trkpt lat="40.413909" lon="15.1843868"><ele>505.00000000000006</ele><time>2026-03-29T12:23:16.446Z</time></trkpt><trkpt lat="40.414001" lon="15.1843779"><ele>505.0</ele><time>2026-03-29T12:23:17.514Z</time></trkpt><trkpt lat="40.4140811" lon="15.1843693"><ele>502.8</ele><time>2026-03-29T12:23:18.416Z</time></trkpt><trkpt lat="40.4141832" lon="15.1843609"><ele>500.6</ele><time>2026-03-29T12:23:19.456Z</time></trkpt><trkpt lat="40.4142843" lon="15.1843578"><ele>498.4</ele><time>2026-03-29T12:23:20.44Z</time></trkpt><trkpt lat="40.4143898" lon="15.1843584"><ele>496.2</ele><time>2026-03-29T12:23:21.429Z</time></trkpt><trkpt lat="40.4145089" lon="15.1843667"><ele>494.0</ele><time>2026-03-29T12:23:22.452Z</time></trkpt><trkpt lat="40.414617" lon="15.1843814"><ele>491.79999999999995</ele><time>2026-03-29T12:23:23.435Z</time></trkpt><trkpt lat="40.4147219" lon="15.1844084"><ele>489.59999999999997</ele><time>2026-03-29T12:23:24.418Z</time></trkpt><trkpt lat="40.4148214" lon="15.1844521"><ele>487.4</ele><time>2026-03-29T12:23:25.415Z</time></trkpt><trkpt lat="40.4149181" lon="15.1845128"><ele>485.2</ele><time>2026-03-29T12:23:26.436Z</time></trkpt><trkpt lat="40.4150108" lon="15.1845778"><ele>483.0</ele><time>2026-03-29T12:23:27.425Z</time></trkpt><trkpt lat="40.4151059" lon="15.1846417"><ele>483.0</ele><time>2026-03-29T12:23:28.453Z</time></trkpt><trkpt lat="40.4151917" lon="15.1846995"><ele>482.99999999999994</ele><time>2026-03-29T12:23:29.429Z</time></trkpt><trkpt lat="40.4152797" lon="15.1847531"><ele>482.99999999999994</ele><time>2026-03-29T12:23:30.43Z</time></trkpt><trkpt lat="40.4153684" lon="15.1848031"><ele>483.0</ele><time>2026-03-29T12:23:31.435Z</time></trkpt><trkpt lat="40.4154571" lon="15.1848417"><ele>483.0</ele><time>2026-03-29T12:23:32.469Z</time></trkpt><trkpt lat="40.4155377" lon="15.1848652"><ele>480.0</ele><time>2026-03-29T12:23:33.458Z</time></trkpt><trkpt lat="40.4156117" lon="15.1848819"><ele>477.0</ele><time>2026-03-29T12:23:34.474Z</time></trkpt><trkpt lat="40.4157208" lon="15.184901"><ele>474.0</ele><time>2026-03-29T12:23:36.453Z</time></trkpt><trkpt lat="40.4158076" lon="15.1849142"><ele>471.0</ele><time>2026-03-29T12:23:38.461Z</time></trkpt><trkpt lat="40.4158907" lon="15.184928"><ele>468.0</ele><time>2026-03-29T12:23:41.594Z</time></trkpt><trkpt lat="40.4159811" lon="15.1849189"><ele>465.0</ele><time>2026-03-29T12:23:44.434Z</time></trkpt><trkpt lat="40.4160709" lon="15.184917"><ele>465.0</ele><time>2026-03-29T12:24:09.41Z</time></trkpt><trkpt lat="40.4161773" lon="15.1848741"><ele>465.0</ele><time>2026-03-29T12:24:11.427Z</time></trkpt><trkpt lat="40.416252" lon="15.1848397"><ele>465.0</ele><time>2026-03-29T12:24:12.424Z</time></trkpt><trkpt lat="40.4163306" lon="15.1847955"><ele>465.0</ele><time>2026-03-29T12:24:13.429Z</time></trkpt><trkpt lat="40.41642" lon="15.1847504"><ele>465.0</ele><time>2026-03-29T12:24:14.441Z</time></trkpt><trkpt lat="40.4165154" lon="15.1846996"><ele>468.5</ele><time>2026-03-29T12:24:15.424Z</time></trkpt><trkpt lat="40.4166201" lon="15.184649"><ele>472.0</ele><time>2026-03-29T12:24:16.437Z</time></trkpt><trkpt lat="40.416728" lon="15.1846046"><ele>475.5</ele><time>2026-03-29T12:24:17.4Z</time></trkpt><trkpt lat="40.4168411" lon="15.1845719"><ele>479.0</ele><time>2026-03-29T12:24:18.411Z</time></trkpt><trkpt lat="40.416973" lon="15.1845587"><ele>479.0</ele><time>2026-03-29T12:24:19.452Z</time></trkpt><trkpt lat="40.4171066" lon="15.1845533"><ele>479.0</ele><time>2026-03-29T12:24:20.43Z</time></trkpt><trkpt lat="40.4172413" lon="15.1845435"><ele>479.0</ele><time>2026-03-29T12:24:21.456Z</time></trkpt><trkpt lat="40.4173624" lon="15.1845298"><ele>479.0</ele><time>2026-03-29T12:24:22.421Z</time></trkpt><trkpt lat="40.4174739" lon="15.1845224"><ele>478.6</ele><time>2026-03-29T12:24:23.41Z</time></trkpt><trkpt lat="40.4175835" lon="15.1845088"><ele>478.2</ele><time>2026-03-29T12:24:24.448Z</time></trkpt><trkpt lat="40.4176828" lon="15.1844839"><ele>477.80000000000007</ele><time>2026-03-29T12:24:25.433Z</time></trkpt><trkpt lat="40.417791" lon="15.1844339"><ele>477.40000000000003</ele><time>2026-03-29T12:24:26.566Z</time></trkpt><trkpt lat="40.4178671" lon="15.184365"><ele>477.0</ele><time>2026-03-29T12:24:27.512Z</time></trkpt><trkpt lat="40.4179236" lon="15.1842699"><ele>477.0</ele><time>2026-03-29T12:24:28.486Z</time></trkpt><trkpt lat="40.4179698" lon="15.1841552"><ele>477.00000000000006</ele><time>2026-03-29T12:24:29.485Z</time></trkpt><trkpt lat="40.4179987" lon="15.184041"><ele>477.00000000000006</ele><time>2026-03-29T12:24:30.512Z</time></trkpt><trkpt lat="40.4180248" lon="15.1839461"><ele>477.0</ele><time>2026-03-29T12:24:31.516Z</time></trkpt><trkpt lat="40.4180593" lon="15.1837979"><ele>477.0</ele><time>2026-03-29T12:24:33.494Z</time></trkpt><trkpt lat="40.4180873" lon="15.1836477"><ele>475.40000000000003</ele><time>2026-03-29T12:24:35.491Z</time></trkpt><trkpt lat="40.4181214" lon="15.1835019"><ele>473.80000000000007</ele><time>2026-03-29T12:24:37.624Z</time></trkpt><trkpt lat="40.4181522" lon="15.1834053"><ele>472.2</ele><time>2026-03-29T12:24:39.498Z</time></trkpt><trkpt lat="40.4181799" lon="15.1833043"><ele>470.6</ele><time>2026-03-29T12:24:42.48Z</time></trkpt><trkpt lat="40.4181345" lon="15.183404"><ele>469.0</ele><time>2026-03-29T12:24:49.482Z</time></trkpt><trkpt lat="40.4180982" lon="15.1835836"><ele>469.0</ele><time>2026-03-29T12:24:51.486Z</time></trkpt><trkpt lat="40.4180727" lon="15.1836922"><ele>469.0</ele><time>2026-03-29T12:24:52.483Z</time></trkpt><trkpt lat="40.4180479" lon="15.1838249"><ele>469.0</ele><time>2026-03-29T12:24:53.486Z</time></trkpt><trkpt lat="40.4180218" lon="15.1839653"><ele>469.0</ele><time>2026-03-29T12:24:54.502Z</time></trkpt><trkpt lat="40.4179958" lon="15.1840859"><ele>469.0</ele><time>2026-03-29T12:24:55.473Z</time></trkpt><trkpt lat="40.4179542" lon="15.1841966"><ele>470.33333333333337</ele><time>2026-03-29T12:24:56.492Z</time></trkpt><trkpt lat="40.4179051" lon="15.1842936"><ele>471.6666666666667</ele><time>2026-03-29T12:24:57.483Z</time></trkpt><trkpt lat="40.4178459" lon="15.1843635"><ele>473.0</ele><time>2026-03-29T12:24:58.499Z</time></trkpt><trkpt lat="40.4177835" lon="15.1844128"><ele>474.33333333333337</ele><time>2026-03-29T12:24:59.465Z</time></trkpt><trkpt lat="40.4177048" lon="15.1844425"><ele>475.6666666666667</ele><time>2026-03-29T12:25:00.496Z</time></trkpt><trkpt lat="40.4176129" lon="15.1844604"><ele>477.0</ele><time>2026-03-29T12:25:01.483Z</time></trkpt><trkpt lat="40.4174885" lon="15.184477"><ele>477.0</ele><time>2026-03-29T12:25:02.492Z</time></trkpt><trkpt lat="40.4173411" lon="15.1844905"><ele>477.0</ele><time>2026-03-29T12:25:03.487Z</time></trkpt><trkpt lat="40.4171898" lon="15.1844941"><ele>477.0</ele><time>2026-03-29T12:25:04.494Z</time></trkpt><trkpt lat="40.4170427" lon="15.1845059"><ele>477.0</ele><time>2026-03-29T12:25:05.49Z</time></trkpt><trkpt lat="40.4168781" lon="15.1845332"><ele>478.0</ele><time>2026-03-29T12:25:06.51Z</time></trkpt><trkpt lat="40.4166964" lon="15.1846022"><ele>479.0</ele><time>2026-03-29T12:25:07.641Z</time></trkpt><trkpt lat="40.4163843" lon="15.1847703"><ele>475.5</ele><time>2026-03-29T12:25:09.525Z</time></trkpt><trkpt lat="40.4162456" lon="15.184855"><ele>472.0</ele><time>2026-03-29T12:25:10.524Z</time></trkpt><trkpt lat="40.4161149" lon="15.1849338"><ele>468.5</ele><time>2026-03-29T12:25:11.477Z</time></trkpt><trkpt lat="40.4159943" lon="15.1849962"><ele>465.0</ele><time>2026-03-29T12:25:12.507Z</time></trkpt><trkpt lat="40.4158847" lon="15.1850444"><ele>465.0</ele><time>2026-03-29T12:25:13.494Z</time></trkpt><trkpt lat="40.4157882" lon="15.185098"><ele>465.0</ele><time>2026-03-29T12:25:14.526Z</time></trkpt><trkpt lat="40.4157136" lon="15.1851376"><ele>465.0</ele><time>2026-03-29T12:25:15.493Z</time></trkpt><trkpt lat="40.4156517" lon="15.1851664"><ele>465.0</ele><time>2026-03-29T12:25:16.488Z</time></trkpt><trkpt lat="40.4155887" lon="15.1851973"><ele>465.0</ele><time>2026-03-29T12:25:18.499Z</time></trkpt><trkpt lat="40.4156827" lon="15.1851727"><ele>465.0</ele><time>2026-03-29T12:25:26.434Z</time></trkpt><trkpt lat="40.4157885" lon="15.1851097"><ele>465.0</ele><time>2026-03-29T12:25:28.44Z</time></trkpt><trkpt lat="40.4158481" lon="15.1850672"><ele>465.0</ele><time>2026-03-29T12:25:29.452Z</time></trkpt><trkpt lat="40.4159039" lon="15.1850275"><ele>465.0</ele><time>2026-03-29T12:25:30.421Z</time></trkpt><trkpt lat="40.4159965" lon="15.1849842"><ele>465.0</ele><time>2026-03-29T12:25:32.449Z</time></trkpt><trkpt lat="40.4160668" lon="15.1849869"><ele>465.0</ele><time>2026-03-29T12:25:35.449Z</time></trkpt><trkpt lat="40.4161403" lon="15.1850011"><ele>465.0</ele><time>2026-03-29T12:25:38.454Z</time></trkpt><trkpt lat="40.4162144" lon="15.1850119"><ele>465.0</ele><time>2026-03-29T12:25:40.444Z</time></trkpt><trkpt lat="40.4162919" lon="15.185034"><ele>464.5</ele><time>2026-03-29T12:25:42.431Z</time></trkpt><trkpt lat="40.4163673" lon="15.1850658"><ele>464.0</ele><time>2026-03-29T12:25:44.417Z</time></trkpt><trkpt lat="40.4164309" lon="15.1850956"><ele>463.5</ele><time>2026-03-29T12:25:46.427Z</time></trkpt><trkpt lat="40.4164946" lon="15.1851067"><ele>463.0</ele><time>2026-03-29T12:25:49.446Z</time></trkpt><trkpt lat="40.4165747" lon="15.1851369"><ele>462.5</ele><time>2026-03-29T12:25:52.413Z</time></trkpt><trkpt lat="40.4166552" lon="15.1851714"><ele>462.0</ele><time>2026-03-29T12:25:55.433Z</time></trkpt><trkpt lat="40.4167384" lon="15.1852149"><ele>462.0</ele><time>2026-03-29T12:25:58.418Z</time></trkpt><trkpt lat="40.416816" lon="15.1852479"><ele>462.0</ele><time>2026-03-29T12:26:01.42Z</time></trkpt><trkpt lat="40.4168857" lon="15.185288"><ele>462.0</ele><time>2026-03-29T12:26:04.411Z</time></trkpt><trkpt lat="40.4169619" lon="15.1853349"><ele>462.0</ele><time>2026-03-29T12:26:07.427Z</time></trkpt><trkpt lat="40.4170268" lon="15.1853729"><ele>462.0</ele><time>2026-03-29T12:26:10.467Z</time></trkpt><trkpt lat="40.4170968" lon="15.1854106"><ele>462.0</ele><time>2026-03-29T12:26:14.429Z</time></trkpt><trkpt lat="40.4171618" lon="15.1854563"><ele>461.5</ele><time>2026-03-29T12:26:27.437Z</time></trkpt><trkpt lat="40.4172309" lon="15.1854862"><ele>461.0</ele><time>2026-03-29T12:26:30.439Z</time></trkpt><trkpt lat="40.4173063" lon="15.1855327"><ele>460.5</ele><time>2026-03-29T12:26:33.444Z</time></trkpt><trkpt lat="40.4173704" lon="15.1855648"><ele>460.0</ele><time>2026-03-29T12:26:36.424Z</time></trkpt><trkpt lat="40.4174564" lon="15.1855978"><ele>459.5</ele><time>2026-03-29T12:26:46.447Z</time></trkpt><trkpt lat="40.4175234" lon="15.1856586"><ele>459.0</ele><time>2026-03-29T12:26:50.431Z</time></trkpt><trkpt lat="40.4175773" lon="15.1857191"><ele>456.6666666666667</ele><time>2026-03-29T12:26:53.427Z</time></trkpt><trkpt lat="40.4176359" lon="15.1857912"><ele>454.33333333333337</ele><time>2026-03-29T12:26:56.463Z</time></trkpt><trkpt lat="40.4176794" lon="15.1858514"><ele>452.0</ele><time>2026-03-29T12:26:58.451Z</time></trkpt><trkpt lat="40.4177145" lon="15.185928"><ele>449.6666666666667</ele><time>2026-03-29T12:27:00.421Z</time></trkpt><trkpt lat="40.4177382" lon="15.1860231"><ele>447.33333333333337</ele><time>2026-03-29T12:27:02.431Z</time></trkpt><trkpt lat="40.4177514" lon="15.1861393"><ele>445.0</ele><time>2026-03-29T12:27:04.436Z</time></trkpt><trkpt lat="40.4177601" lon="15.1862637"><ele>445.00000000000006</ele><time>2026-03-29T12:27:06.429Z</time></trkpt><trkpt lat="40.4177665" lon="15.1863886"><ele>445.0</ele><time>2026-03-29T12:27:08.423Z</time></trkpt><trkpt lat="40.4177738" lon="15.1865095"><ele>445.0</ele><time>2026-03-29T12:27:10.434Z</time></trkpt><trkpt lat="40.4177769" lon="15.1866134"><ele>445.0</ele><time>2026-03-29T12:27:12.418Z</time></trkpt><trkpt lat="40.4177917" lon="15.1866986"><ele>445.00000000000006</ele><time>2026-03-29T12:27:14.432Z</time></trkpt><trkpt lat="40.4178287" lon="15.1867755"><ele>445.0</ele><time>2026-03-29T12:27:16.45Z</time></trkpt><trkpt lat="40.4178825" lon="15.1868449"><ele>442.6666666666667</ele><time>2026-03-29T12:27:18.433Z</time></trkpt><trkpt lat="40.4179419" lon="15.1869244"><ele>440.33333333333337</ele><time>2026-03-29T12:27:20.446Z</time></trkpt><trkpt lat="40.4180231" lon="15.1870248"><ele>438.0</ele><time>2026-03-29T12:27:22.476Z</time></trkpt><trkpt lat="40.418073" lon="15.1870781"><ele>435.66666666666663</ele><time>2026-03-29T12:27:23.465Z</time></trkpt><trkpt lat="40.4181313" lon="15.187139"><ele>433.3333333333333</ele><time>2026-03-29T12:27:24.479Z</time></trkpt><trkpt lat="40.4181899" lon="15.1872005"><ele>431.0</ele><time>2026-03-29T12:27:25.429Z</time></trkpt><trkpt lat="40.4182625" lon="15.1872697"><ele>430.4</ele><time>2026-03-29T12:27:26.455Z</time></trkpt><trkpt lat="40.4183397" lon="15.1873411"><ele>429.8</ele><time>2026-03-29T12:27:27.439Z</time></trkpt><trkpt lat="40.4184237" lon="15.1874191"><ele>429.19999999999993</ele><time>2026-03-29T12:27:28.432Z</time></trkpt><trkpt lat="40.4185218" lon="15.1875122"><ele>428.59999999999997</ele><time>2026-03-29T12:27:29.546Z</time></trkpt><trkpt lat="40.4185974" lon="15.1875838"><ele>428.0</ele><time>2026-03-29T12:27:30.458Z</time></trkpt><trkpt lat="40.4186784" lon="15.1876588"><ele>427.0</ele><time>2026-03-29T12:27:31.472Z</time></trkpt><trkpt lat="40.4187573" lon="15.1877306"><ele>425.99999999999994</ele><time>2026-03-29T12:27:32.447Z</time></trkpt><trkpt lat="40.4188387" lon="15.1878088"><ele>425.0</ele><time>2026-03-29T12:27:33.436Z</time></trkpt><trkpt lat="40.4189136" lon="15.1878834"><ele>424.0</ele><time>2026-03-29T12:27:34.433Z</time></trkpt><trkpt lat="40.4189961" lon="15.1879585"><ele>423.0</ele><time>2026-03-29T12:27:35.556Z</time></trkpt><trkpt lat="40.4191347" lon="15.1880794"><ele>422.0</ele><time>2026-03-29T12:27:37.422Z</time></trkpt><trkpt lat="40.4192052" lon="15.1881527"><ele>421.0</ele><time>2026-03-29T12:27:38.461Z</time></trkpt><trkpt lat="40.4192646" lon="15.1882315"><ele>420.0</ele><time>2026-03-29T12:27:39.434Z</time></trkpt><trkpt lat="40.4193273" lon="15.1883279"><ele>419.0</ele><time>2026-03-29T12:27:40.535Z</time></trkpt><trkpt lat="40.4193788" lon="15.1884213"><ele>418.0</ele><time>2026-03-29T12:27:41.481Z</time></trkpt><trkpt lat="40.4194347" lon="15.1885165"><ele>418.0</ele><time>2026-03-29T12:27:42.469Z</time></trkpt><trkpt lat="40.4194934" lon="15.1886037"><ele>418.0</ele><time>2026-03-29T12:27:43.447Z</time></trkpt><trkpt lat="40.419555" lon="15.1886894"><ele>418.0</ele><time>2026-03-29T12:27:44.435Z</time></trkpt><trkpt lat="40.4196221" lon="15.188773"><ele>418.0</ele><time>2026-03-29T12:27:45.446Z</time></trkpt><trkpt lat="40.4196905" lon="15.188859"><ele>418.0</ele><time>2026-03-29T12:27:46.468Z</time></trkpt><trkpt lat="40.4197645" lon="15.1889579"><ele>415.0</ele><time>2026-03-29T12:27:47.586Z</time></trkpt><trkpt lat="40.4198856" lon="15.1891205"><ele>412.0</ele><time>2026-03-29T12:27:49.424Z</time></trkpt><trkpt lat="40.4199503" lon="15.1892008"><ele>409.0</ele><time>2026-03-29T12:27:50.439Z</time></trkpt><trkpt lat="40.4200145" lon="15.189279"><ele>406.0</ele><time>2026-03-29T12:27:51.571Z</time></trkpt><trkpt lat="40.4200909" lon="15.1893726"><ele>406.00000000000006</ele><time>2026-03-29T12:27:53.454Z</time></trkpt><trkpt lat="40.4201415" lon="15.1894424"><ele>406.0</ele><time>2026-03-29T12:27:58.435Z</time></trkpt><trkpt lat="40.420219" lon="15.1894878"><ele>406.0</ele><time>2026-03-29T12:28:00.461Z</time></trkpt><trkpt lat="40.4202877" lon="15.1895103"><ele>406.0</ele><time>2026-03-29T12:28:01.415Z</time></trkpt><trkpt lat="40.4203721" lon="15.1895378"><ele>406.00000000000006</ele><time>2026-03-29T12:28:02.444Z</time></trkpt><trkpt lat="40.4204669" lon="15.1895718"><ele>406.0</ele><time>2026-03-29T12:28:03.45Z</time></trkpt><trkpt lat="40.420586" lon="15.1896163"><ele>406.0</ele><time>2026-03-29T12:28:04.532Z</time></trkpt><trkpt lat="40.4206741" lon="15.1896524"><ele>406.0</ele><time>2026-03-29T12:28:05.44Z</time></trkpt><trkpt lat="40.4207844" lon="15.189699"><ele>406.0</ele><time>2026-03-29T12:28:06.573Z</time></trkpt><trkpt lat="40.4209581" lon="15.1898042"><ele>406.0</ele><time>2026-03-29T12:28:08.44Z</time></trkpt><trkpt lat="40.4210506" lon="15.189875"><ele>405.1666666666667</ele><time>2026-03-29T12:28:09.474Z</time></trkpt><trkpt lat="40.4211339" lon="15.1899449"><ele>404.33333333333337</ele><time>2026-03-29T12:28:10.473Z</time></trkpt><trkpt lat="40.4212051" lon="15.1900108"><ele>403.5</ele><time>2026-03-29T12:28:11.462Z</time></trkpt><trkpt lat="40.421266" lon="15.1900795"><ele>402.66666666666663</ele><time>2026-03-29T12:28:12.461Z</time></trkpt><trkpt lat="40.4213116" lon="15.1901522"><ele>401.8333333333333</ele><time>2026-03-29T12:28:13.421Z</time></trkpt><trkpt lat="40.4213465" lon="15.190233"><ele>401.0</ele><time>2026-03-29T12:28:14.441Z</time></trkpt><trkpt lat="40.4213655" lon="15.1903145"><ele>400.99999999999994</ele><time>2026-03-29T12:28:15.447Z</time></trkpt><trkpt lat="40.4213847" lon="15.1903979"><ele>401.0</ele><time>2026-03-29T12:28:16.441Z</time></trkpt><trkpt lat="40.4214174" lon="15.1904701"><ele>401.0</ele><time>2026-03-29T12:28:17.445Z</time></trkpt><trkpt lat="40.4214791" lon="15.1905136"><ele>401.0</ele><time>2026-03-29T12:28:18.475Z</time></trkpt><trkpt lat="40.4215697" lon="15.1904483"><ele>400.99999999999994</ele><time>2026-03-29T12:28:20.528Z</time></trkpt><trkpt lat="40.4216514" lon="15.1903853"><ele>401.0</ele><time>2026-03-29T12:28:22.449Z</time></trkpt><trkpt lat="40.4217774" lon="15.1903819"><ele>401.0</ele><time>2026-03-29T12:28:24.446Z</time></trkpt><trkpt lat="40.4218817" lon="15.1903684"><ele>401.0</ele><time>2026-03-29T12:28:25.455Z</time></trkpt><trkpt lat="40.422003" lon="15.1903641"><ele>401.0</ele><time>2026-03-29T12:28:26.42Z</time></trkpt><trkpt lat="40.4221296" lon="15.1903616"><ele>401.0</ele><time>2026-03-29T12:28:27.454Z</time></trkpt><trkpt lat="40.4222618" lon="15.1903414"><ele>401.0</ele><time>2026-03-29T12:28:28.424Z</time></trkpt><trkpt lat="40.4223633" lon="15.1903383"><ele>401.0</ele><time>2026-03-29T12:28:29.446Z</time></trkpt><trkpt lat="40.4224742" lon="15.1903181"><ele>401.0</ele><time>2026-03-29T12:28:30.446Z</time></trkpt><trkpt lat="40.4225984" lon="15.1902835"><ele>401.0</ele><time>2026-03-29T12:28:31.577Z</time></trkpt><trkpt lat="40.4228109" lon="15.1901838"><ele>401.0</ele><time>2026-03-29T12:28:33.44Z</time></trkpt><trkpt lat="40.4229198" lon="15.1901023"><ele>401.0</ele><time>2026-03-29T12:28:34.425Z</time></trkpt><trkpt lat="40.4230273" lon="15.1899955"><ele>401.0</ele><time>2026-03-29T12:28:35.406Z</time></trkpt><trkpt lat="40.4231371" lon="15.1898616"><ele>401.0</ele><time>2026-03-29T12:28:36.44Z</time></trkpt><trkpt lat="40.4232416" lon="15.1897221"><ele>402.66666666666663</ele><time>2026-03-29T12:28:37.442Z</time></trkpt><trkpt lat="40.4233496" lon="15.1895791"><ele>404.33333333333337</ele><time>2026-03-29T12:28:38.436Z</time></trkpt><trkpt lat="40.4234685" lon="15.189431"><ele>406.0</ele><time>2026-03-29T12:28:39.425Z</time></trkpt><trkpt lat="40.4235867" lon="15.1892744"><ele>406.0</ele><time>2026-03-29T12:28:40.419Z</time></trkpt><trkpt lat="40.4237465" lon="15.1890983"><ele>406.0</ele><time>2026-03-29T12:28:41.623Z</time></trkpt><trkpt lat="40.4239707" lon="15.1888163"><ele>403.6666666666667</ele><time>2026-03-29T12:28:43.51Z</time></trkpt><trkpt lat="40.4240894" lon="15.1886698"><ele>401.33333333333337</ele><time>2026-03-29T12:28:44.494Z</time></trkpt><trkpt lat="40.4242125" lon="15.1885157"><ele>399.0</ele><time>2026-03-29T12:28:45.505Z</time></trkpt><trkpt lat="40.4243363" lon="15.1883604"><ele>399.0</ele><time>2026-03-29T12:28:46.5Z</time></trkpt><trkpt lat="40.4244583" lon="15.1882091"><ele>399.0</ele><time>2026-03-29T12:28:47.513Z</time></trkpt><trkpt lat="40.42458" lon="15.1880561"><ele>399.0</ele><time>2026-03-29T12:28:48.499Z</time></trkpt><trkpt lat="40.4247062" lon="15.1879019"><ele>398.0</ele><time>2026-03-29T12:28:49.503Z</time></trkpt><trkpt lat="40.4248368" lon="15.1877497"><ele>397.0</ele><time>2026-03-29T12:28:50.512Z</time></trkpt><trkpt lat="40.4249672" lon="15.1876002"><ele>396.0</ele><time>2026-03-29T12:28:51.487Z</time></trkpt><trkpt lat="40.4251031" lon="15.1874455"><ele>397.0</ele><time>2026-03-29T12:28:52.485Z</time></trkpt><trkpt lat="40.4252406" lon="15.1872906"><ele>398.0</ele><time>2026-03-29T12:28:53.487Z</time></trkpt><trkpt lat="40.4253906" lon="15.1871351"><ele>399.0</ele><time>2026-03-29T12:28:54.526Z</time></trkpt><trkpt lat="40.4255335" lon="15.1869966"><ele>399.0</ele><time>2026-03-29T12:28:55.484Z</time></trkpt><trkpt lat="40.4256929" lon="15.1868549"><ele>399.0</ele><time>2026-03-29T12:28:56.489Z</time></trkpt><trkpt lat="40.4258534" lon="15.1867159"><ele>399.0</ele><time>2026-03-29T12:28:57.491Z</time></trkpt><trkpt lat="40.4260099" lon="15.1865817"><ele>397.66666666666663</ele><time>2026-03-29T12:28:58.5Z</time></trkpt><trkpt lat="40.4261583" lon="15.1864628"><ele>396.3333333333333</ele><time>2026-03-29T12:28:59.502Z</time></trkpt><trkpt lat="40.4262988" lon="15.1863486"><ele>395.0</ele><time>2026-03-29T12:29:00.525Z</time></trkpt><trkpt lat="40.4264262" lon="15.1862417"><ele>395.0</ele><time>2026-03-29T12:29:01.509Z</time></trkpt><trkpt lat="40.4265427" lon="15.1861332"><ele>395.0</ele><time>2026-03-29T12:29:02.506Z</time></trkpt><trkpt lat="40.4266505" lon="15.1860094"><ele>395.0</ele><time>2026-03-29T12:29:03.517Z</time></trkpt><trkpt lat="40.4267443" lon="15.1858773"><ele>395.0</ele><time>2026-03-29T12:29:04.508Z</time></trkpt><trkpt lat="40.4268319" lon="15.1857151"><ele>398.25</ele><time>2026-03-29T12:29:05.531Z</time></trkpt><trkpt lat="40.4269007" lon="15.1855644"><ele>401.5</ele><time>2026-03-29T12:29:06.518Z</time></trkpt><trkpt lat="40.4269643" lon="15.1854125"><ele>404.75</ele><time>2026-03-29T12:29:07.516Z</time></trkpt><trkpt lat="40.4270217" lon="15.1852557"><ele>408.0</ele><time>2026-03-29T12:29:08.506Z</time></trkpt><trkpt lat="40.4270659" lon="15.1850959"><ele>408.0</ele><time>2026-03-29T12:29:09.499Z</time></trkpt><trkpt lat="40.4270979" lon="15.1849336"><ele>408.0</ele><time>2026-03-29T12:29:10.493Z</time></trkpt><trkpt lat="40.4271221" lon="15.1847568"><ele>408.0</ele><time>2026-03-29T12:29:11.517Z</time></trkpt><trkpt lat="40.4271394" lon="15.1845886"><ele>408.0</ele><time>2026-03-29T12:29:12.504Z</time></trkpt><trkpt lat="40.4271533" lon="15.1844189"><ele>401.0</ele><time>2026-03-29T12:29:13.493Z</time></trkpt><trkpt lat="40.4271637" lon="15.1842596"><ele>394.0</ele><time>2026-03-29T12:29:14.472Z</time></trkpt><trkpt lat="40.4271878" lon="15.184098"><ele>387.0</ele><time>2026-03-29T12:29:15.511Z</time></trkpt><trkpt lat="40.4272038" lon="15.1839619"><ele>380.0</ele><time>2026-03-29T12:29:16.461Z</time></trkpt><trkpt lat="40.4272244" lon="15.1838327"><ele>380.0</ele><time>2026-03-29T12:29:17.502Z</time></trkpt><trkpt lat="40.4272454" lon="15.1837134"><ele>380.0</ele><time>2026-03-29T12:29:18.531Z</time></trkpt><trkpt lat="40.4272744" lon="15.1836221"><ele>380.0</ele><time>2026-03-29T12:29:19.488Z</time></trkpt><trkpt lat="40.4273304" lon="15.1835166"><ele>380.0</ele><time>2026-03-29T12:29:20.512Z</time></trkpt><trkpt lat="40.4273908" lon="15.1834336"><ele>380.0</ele><time>2026-03-29T12:29:21.489Z</time></trkpt><trkpt lat="40.4274693" lon="15.1833732"><ele>380.0</ele><time>2026-03-29T12:29:22.512Z</time></trkpt><trkpt lat="40.4275543" lon="15.1833403"><ele>380.0</ele><time>2026-03-29T12:29:23.487Z</time></trkpt><trkpt lat="40.4276505" lon="15.1833308"><ele>380.0</ele><time>2026-03-29T12:29:24.491Z</time></trkpt><trkpt lat="40.4277622" lon="15.1833443"><ele>380.0</ele><time>2026-03-29T12:29:25.532Z</time></trkpt><trkpt lat="40.4278691" lon="15.1833676"><ele>380.0</ele><time>2026-03-29T12:29:26.486Z</time></trkpt><trkpt lat="40.4279977" lon="15.1834077"><ele>380.0</ele><time>2026-03-29T12:29:27.583Z</time></trkpt><trkpt lat="40.428215" lon="15.1834729"><ele>379.25</ele><time>2026-03-29T12:29:29.469Z</time></trkpt><trkpt lat="40.428325" lon="15.1835087"><ele>378.5</ele><time>2026-03-29T12:29:30.512Z</time></trkpt><trkpt lat="40.4284224" lon="15.1835318"><ele>377.75</ele><time>2026-03-29T12:29:31.478Z</time></trkpt><trkpt lat="40.4285479" lon="15.183552"><ele>377.0</ele><time>2026-03-29T12:29:32.59Z</time></trkpt><trkpt lat="40.4287548" lon="15.1835816"><ele>377.8</ele><time>2026-03-29T12:29:34.475Z</time></trkpt><trkpt lat="40.4288551" lon="15.1836005"><ele>378.6</ele><time>2026-03-29T12:29:35.471Z</time></trkpt><trkpt lat="40.4289581" lon="15.183611"><ele>379.40000000000003</ele><time>2026-03-29T12:29:36.488Z</time></trkpt><trkpt lat="40.4290545" lon="15.1836171"><ele>380.20000000000005</ele><time>2026-03-29T12:29:37.48Z</time></trkpt><trkpt lat="40.4291361" lon="15.1836295"><ele>381.0</ele><time>2026-03-29T12:29:38.418Z</time></trkpt><trkpt lat="40.4292232" lon="15.1836524"><ele>381.0</ele><time>2026-03-29T12:29:39.467Z</time></trkpt><trkpt lat="40.4292947" lon="15.1836885"><ele>381.0</ele><time>2026-03-29T12:29:40.447Z</time></trkpt><trkpt lat="40.4293538" lon="15.1837317"><ele>381.0</ele><time>2026-03-29T12:29:41.485Z</time></trkpt><trkpt lat="40.4294357" lon="15.1837896"><ele>381.0</ele><time>2026-03-29T12:29:43.491Z</time></trkpt><trkpt lat="40.4295777" lon="15.1838366"><ele>381.0</ele><time>2026-03-29T12:29:45.572Z</time></trkpt><trkpt lat="40.429789" lon="15.1838854"><ele>383.5</ele><time>2026-03-29T12:29:47.502Z</time></trkpt><trkpt lat="40.4299122" lon="15.1839236"><ele>386.0</ele><time>2026-03-29T12:29:48.463Z</time></trkpt><trkpt lat="40.4300573" lon="15.1839703"><ele>388.5</ele><time>2026-03-29T12:29:49.486Z</time></trkpt><trkpt lat="40.4302077" lon="15.1840235"><ele>391.0</ele><time>2026-03-29T12:29:50.487Z</time></trkpt><trkpt lat="40.430371" lon="15.1840843"><ele>377.33333333333337</ele><time>2026-03-29T12:29:51.475Z</time></trkpt><trkpt lat="40.4305386" lon="15.1841505"><ele>363.6666666666667</ele><time>2026-03-29T12:29:52.509Z</time></trkpt><trkpt lat="40.4306905" lon="15.184214"><ele>350.0</ele><time>2026-03-29T12:29:53.497Z</time></trkpt><trkpt lat="40.4308213" lon="15.1842833"><ele>350.0</ele><time>2026-03-29T12:29:54.505Z</time></trkpt><trkpt lat="40.4309458" lon="15.1843357"><ele>350.0</ele><time>2026-03-29T12:29:55.523Z</time></trkpt><trkpt lat="40.4310622" lon="15.1843642"><ele>350.0</ele><time>2026-03-29T12:29:56.476Z</time></trkpt><trkpt lat="40.431194" lon="15.1843731"><ele>350.0</ele><time>2026-03-29T12:29:57.491Z</time></trkpt><trkpt lat="40.4313321" lon="15.1843626"><ele>351.0</ele><time>2026-03-29T12:29:58.495Z</time></trkpt><trkpt lat="40.4314704" lon="15.1843515"><ele>352.0</ele><time>2026-03-29T12:29:59.463Z</time></trkpt><trkpt lat="40.4316161" lon="15.1843284"><ele>353.0</ele><time>2026-03-29T12:30:00.485Z</time></trkpt><trkpt lat="40.43176" lon="15.1842861"><ele>354.0</ele><time>2026-03-29T12:30:01.481Z</time></trkpt><trkpt lat="40.4319052" lon="15.1842224"><ele>354.0</ele><time>2026-03-29T12:30:02.477Z</time></trkpt><trkpt lat="40.4320493" lon="15.1841589"><ele>354.0</ele><time>2026-03-29T12:30:03.492Z</time></trkpt><trkpt lat="40.4321862" lon="15.1841165"><ele>354.0</ele><time>2026-03-29T12:30:04.465Z</time></trkpt><trkpt lat="40.43232" lon="15.1841003"><ele>354.0</ele><time>2026-03-29T12:30:05.456Z</time></trkpt><trkpt lat="40.432459" lon="15.1841086"><ele>352.25</ele><time>2026-03-29T12:30:06.491Z</time></trkpt><trkpt lat="40.4326174" lon="15.1841332"><ele>350.5</ele><time>2026-03-29T12:30:07.544Z</time></trkpt><trkpt lat="40.432761" lon="15.1841562"><ele>348.75</ele><time>2026-03-29T12:30:08.467Z</time></trkpt><trkpt lat="40.4328931" lon="15.1841927"><ele>347.0</ele><time>2026-03-29T12:30:09.478Z</time></trkpt><trkpt lat="40.4330111" lon="15.1842143"><ele>344.25</ele><time>2026-03-29T12:30:10.471Z</time></trkpt><trkpt lat="40.43313" lon="15.1842085"><ele>341.5</ele><time>2026-03-29T12:30:11.499Z</time></trkpt><trkpt lat="40.4332412" lon="15.1841688"><ele>338.75</ele><time>2026-03-29T12:30:12.49Z</time></trkpt><trkpt lat="40.4333421" lon="15.1840959"><ele>336.0</ele><time>2026-03-29T12:30:13.465Z</time></trkpt><trkpt lat="40.4334373" lon="15.1839932"><ele>341.5</ele><time>2026-03-29T12:30:14.485Z</time></trkpt><trkpt lat="40.4335173" lon="15.1838676"><ele>347.0</ele><time>2026-03-29T12:30:15.468Z</time></trkpt><trkpt lat="40.4335866" lon="15.183712"><ele>352.5</ele><time>2026-03-29T12:30:16.472Z</time></trkpt><trkpt lat="40.4336477" lon="15.183528"><ele>358.0</ele><time>2026-03-29T12:30:17.466Z</time></trkpt><trkpt lat="40.4337005" lon="15.1833253"><ele>362.3333333333333</ele><time>2026-03-29T12:30:18.45Z</time></trkpt><trkpt lat="40.4337493" lon="15.1831016"><ele>366.6666666666667</ele><time>2026-03-29T12:30:19.471Z</time></trkpt><trkpt lat="40.4338022" lon="15.1828979"><ele>371.0</ele><time>2026-03-29T12:30:20.481Z</time></trkpt><trkpt lat="40.4338685" lon="15.1827319"><ele>353.0</ele><time>2026-03-29T12:30:21.479Z</time></trkpt><trkpt lat="40.4339582" lon="15.1825424"><ele>335.0</ele><time>2026-03-29T12:30:22.626Z</time></trkpt><trkpt lat="40.4341226" lon="15.1821624"><ele>335.0</ele><time>2026-03-29T12:30:24.503Z</time></trkpt><trkpt lat="40.434193" lon="15.1819423"><ele>335.0</ele><time>2026-03-29T12:30:25.469Z</time></trkpt><trkpt lat="40.4342642" lon="15.1817103"><ele>335.0</ele><time>2026-03-29T12:30:26.516Z</time></trkpt><trkpt lat="40.4343223" lon="15.1815036"><ele>335.75</ele><time>2026-03-29T12:30:27.506Z</time></trkpt><trkpt lat="40.4343674" lon="15.1813171"><ele>336.5</ele><time>2026-03-29T12:30:28.464Z</time></trkpt><trkpt lat="40.4344065" lon="15.1811227"><ele>337.25</ele><time>2026-03-29T12:30:29.493Z</time></trkpt><trkpt lat="40.4344373" lon="15.1809409"><ele>338.0</ele><time>2026-03-29T12:30:30.487Z</time></trkpt><trkpt lat="40.4344645" lon="15.1807544"><ele>338.75</ele><time>2026-03-29T12:30:31.493Z</time></trkpt><trkpt lat="40.4344896" lon="15.1805693"><ele>339.5</ele><time>2026-03-29T12:30:32.486Z</time></trkpt><trkpt lat="40.4345158" lon="15.1803813"><ele>340.25</ele><time>2026-03-29T12:30:33.496Z</time></trkpt><trkpt lat="40.4345467" lon="15.1801907"><ele>341.0</ele><time>2026-03-29T12:30:34.518Z</time></trkpt><trkpt lat="40.4345697" lon="15.1800087"><ele>343.0</ele><time>2026-03-29T12:30:35.486Z</time></trkpt><trkpt lat="40.434583" lon="15.1798018"><ele>345.0</ele><time>2026-03-29T12:30:36.545Z</time></trkpt><trkpt lat="40.4345815" lon="15.1796063"><ele>347.0</ele><time>2026-03-29T12:30:37.503Z</time></trkpt><trkpt lat="40.434569" lon="15.1793918"><ele>347.0</ele><time>2026-03-29T12:30:38.517Z</time></trkpt><trkpt lat="40.4345486" lon="15.1791724"><ele>347.0</ele><time>2026-03-29T12:30:39.514Z</time></trkpt><trkpt lat="40.4345137" lon="15.1789258"><ele>347.0</ele><time>2026-03-29T12:30:40.613Z</time></trkpt><trkpt lat="40.4344482" lon="15.1785225"><ele>345.6666666666667</ele><time>2026-03-29T12:30:42.528Z</time></trkpt><trkpt lat="40.434434" lon="15.1783241"><ele>344.3333333333333</ele><time>2026-03-29T12:30:43.505Z</time></trkpt><trkpt lat="40.4344268" lon="15.1781154"><ele>343.0</ele><time>2026-03-29T12:30:44.48Z</time></trkpt><trkpt lat="40.4344208" lon="15.1779116"><ele>343.25</ele><time>2026-03-29T12:30:45.499Z</time></trkpt><trkpt lat="40.4344194" lon="15.1777244"><ele>343.5</ele><time>2026-03-29T12:30:46.474Z</time></trkpt><trkpt lat="40.4344185" lon="15.1775347"><ele>343.75</ele><time>2026-03-29T12:30:47.482Z</time></trkpt><trkpt lat="40.4344271" lon="15.1773424"><ele>344.0</ele><time>2026-03-29T12:30:48.477Z</time></trkpt><trkpt lat="40.4344586" lon="15.1771303"><ele>344.0</ele><time>2026-03-29T12:30:49.502Z</time></trkpt><trkpt lat="40.4345081" lon="15.1769215"><ele>344.0</ele><time>2026-03-29T12:30:50.49Z</time></trkpt><trkpt lat="40.4345743" lon="15.1767014"><ele>344.0</ele><time>2026-03-29T12:30:51.477Z</time></trkpt><trkpt lat="40.4346588" lon="15.1764313"><ele>336.6666666666667</ele><time>2026-03-29T12:30:52.491Z</time></trkpt><trkpt lat="40.434737" lon="15.1761688"><ele>329.3333333333333</ele><time>2026-03-29T12:30:53.501Z</time></trkpt><trkpt lat="40.4348098" lon="15.1759104"><ele>322.0</ele><time>2026-03-29T12:30:54.491Z</time></trkpt><trkpt lat="40.4348933" lon="15.1756538"><ele>322.0</ele><time>2026-03-29T12:30:55.53Z</time></trkpt><trkpt lat="40.4349628" lon="15.1754405"><ele>322.0</ele><time>2026-03-29T12:30:56.481Z</time></trkpt><trkpt lat="40.4350524" lon="15.1752166"><ele>322.0</ele><time>2026-03-29T12:30:57.503Z</time></trkpt><trkpt lat="40.4351537" lon="15.1749775"><ele>316.66666666666663</ele><time>2026-03-29T12:30:58.493Z</time></trkpt><trkpt lat="40.435265" lon="15.1747385"><ele>311.3333333333333</ele><time>2026-03-29T12:30:59.508Z</time></trkpt><trkpt lat="40.4353769" lon="15.1745159"><ele>306.0</ele><time>2026-03-29T12:31:00.514Z</time></trkpt><trkpt lat="40.4354828" lon="15.1743134"><ele>306.0</ele><time>2026-03-29T12:31:01.508Z</time></trkpt><trkpt lat="40.4355848" lon="15.1741199"><ele>306.0</ele><time>2026-03-29T12:31:02.516Z</time></trkpt><trkpt lat="40.435685" lon="15.1739589"><ele>306.0</ele><time>2026-03-29T12:31:03.506Z</time></trkpt><trkpt lat="40.4357887" lon="15.1738143"><ele>309.25</ele><time>2026-03-29T12:31:04.521Z</time></trkpt><trkpt lat="40.4358923" lon="15.1736914"><ele>312.5</ele><time>2026-03-29T12:31:05.506Z</time></trkpt><trkpt lat="40.435997" lon="15.1735787"><ele>315.75</ele><time>2026-03-29T12:31:06.522Z</time></trkpt><trkpt lat="40.4360899" lon="15.1734728"><ele>319.0</ele><time>2026-03-29T12:31:07.501Z</time></trkpt><trkpt lat="40.4361756" lon="15.1733506"><ele>319.0</ele><time>2026-03-29T12:31:08.497Z</time></trkpt><trkpt lat="40.4362261" lon="15.1732101"><ele>319.0</ele><time>2026-03-29T12:31:09.517Z</time></trkpt><trkpt lat="40.436259" lon="15.1730511"><ele>319.0</ele><time>2026-03-29T12:31:10.488Z</time></trkpt><trkpt lat="40.4362714" lon="15.1728663"><ele>319.0</ele><time>2026-03-29T12:31:11.493Z</time></trkpt><trkpt lat="40.4362733" lon="15.1726692"><ele>319.75</ele><time>2026-03-29T12:31:12.497Z</time></trkpt><trkpt lat="40.4362761" lon="15.1724878"><ele>320.5</ele><time>2026-03-29T12:31:13.483Z</time></trkpt><trkpt lat="40.4362898" lon="15.1723083"><ele>321.25</ele><time>2026-03-29T12:31:14.504Z</time></trkpt><trkpt lat="40.4363398" lon="15.1721186"><ele>322.0</ele><time>2026-03-29T12:31:15.498Z</time></trkpt><trkpt lat="40.4363901" lon="15.1719089"><ele>313.66666666666663</ele><time>2026-03-29T12:31:16.499Z</time></trkpt><trkpt lat="40.4364202" lon="15.1716833"><ele>305.3333333333333</ele><time>2026-03-29T12:31:17.493Z</time></trkpt><trkpt lat="40.4364366" lon="15.1714567"><ele>297.0</ele><time>2026-03-29T12:31:18.475Z</time></trkpt><trkpt lat="40.4364436" lon="15.1712078"><ele>297.0</ele><time>2026-03-29T12:31:19.469Z</time></trkpt><trkpt lat="40.4364634" lon="15.1709411"><ele>297.0</ele><time>2026-03-29T12:31:20.461Z</time></trkpt><trkpt lat="40.4364797" lon="15.1706757"><ele>297.0</ele><time>2026-03-29T12:31:21.523Z</time></trkpt><trkpt lat="40.4364925" lon="15.1704478"><ele>297.0</ele><time>2026-03-29T12:31:22.479Z</time></trkpt><trkpt lat="40.4365026" lon="15.1702164"><ele>297.0</ele><time>2026-03-29T12:31:23.496Z</time></trkpt><trkpt lat="40.4365133" lon="15.1699874"><ele>297.0</ele><time>2026-03-29T12:31:24.494Z</time></trkpt><trkpt lat="40.4365334" lon="15.1697581"><ele>299.6666666666667</ele><time>2026-03-29T12:31:25.49Z</time></trkpt><trkpt lat="40.4365644" lon="15.1695236"><ele>302.33333333333337</ele><time>2026-03-29T12:31:26.511Z</time></trkpt><trkpt lat="40.4366095" lon="15.169294"><ele>305.0</ele><time>2026-03-29T12:31:27.508Z</time></trkpt><trkpt lat="40.4366724" lon="15.1690603"><ele>306.6666666666667</ele><time>2026-03-29T12:31:28.511Z</time></trkpt><trkpt lat="40.436738" lon="15.1688311"><ele>308.3333333333333</ele><time>2026-03-29T12:31:29.505Z</time></trkpt><trkpt lat="40.4368019" lon="15.1686163"><ele>310.0</ele><time>2026-03-29T12:31:30.484Z</time></trkpt><trkpt lat="40.436865" lon="15.1683965"><ele>313.0</ele><time>2026-03-29T12:31:31.492Z</time></trkpt><trkpt lat="40.4369247" lon="15.1681821"><ele>316.0</ele><time>2026-03-29T12:31:32.492Z</time></trkpt><trkpt lat="40.4369788" lon="15.1679755"><ele>319.0</ele><time>2026-03-29T12:31:33.515Z</time></trkpt><trkpt lat="40.4370354" lon="15.1677964"><ele>319.0</ele><time>2026-03-29T12:31:34.523Z</time></trkpt><trkpt lat="40.437096" lon="15.1676482"><ele>319.0</ele><time>2026-03-29T12:31:35.459Z</time></trkpt><trkpt lat="40.4371707" lon="15.1675034"><ele>319.0</ele><time>2026-03-29T12:31:36.45Z</time></trkpt><trkpt lat="40.4372446" lon="15.1673595"><ele>319.0</ele><time>2026-03-29T12:31:37.473Z</time></trkpt><trkpt lat="40.4373102" lon="15.1672118"><ele>311.25</ele><time>2026-03-29T12:31:38.451Z</time></trkpt><trkpt lat="40.4373398" lon="15.1670494"><ele>303.5</ele><time>2026-03-29T12:31:39.431Z</time></trkpt><trkpt lat="40.437355" lon="15.1668566"><ele>295.75</ele><time>2026-03-29T12:31:40.445Z</time></trkpt><trkpt lat="40.4373424" lon="15.1666566"><ele>288.0</ele><time>2026-03-29T12:31:41.439Z</time></trkpt><trkpt lat="40.4373094" lon="15.166442"><ele>288.0</ele><time>2026-03-29T12:31:42.431Z</time></trkpt><trkpt lat="40.4372763" lon="15.1662307"><ele>288.0</ele><time>2026-03-29T12:31:43.433Z</time></trkpt><trkpt lat="40.4372461" lon="15.1660322"><ele>288.0</ele><time>2026-03-29T12:31:44.428Z</time></trkpt><trkpt lat="40.4372258" lon="15.1658371"><ele>288.0</ele><time>2026-03-29T12:31:45.44Z</time></trkpt><trkpt lat="40.4372029" lon="15.1656343"><ele>288.0</ele><time>2026-03-29T12:31:46.544Z</time></trkpt><trkpt lat="40.4371861" lon="15.1653475"><ele>288.0</ele><time>2026-03-29T12:31:48.435Z</time></trkpt><trkpt lat="40.4372082" lon="15.1652292"><ele>288.0</ele><time>2026-03-29T12:31:49.422Z</time></trkpt><trkpt lat="40.4372638" lon="15.1650739"><ele>288.0</ele><time>2026-03-29T12:31:50.536Z</time></trkpt><trkpt lat="40.4374304" lon="15.1647858"><ele>288.0</ele><time>2026-03-29T12:31:52.441Z</time></trkpt><trkpt lat="40.4375018" lon="15.1646371"><ele>289.5</ele><time>2026-03-29T12:31:53.434Z</time></trkpt><trkpt lat="40.4375974" lon="15.1644786"><ele>291.0</ele><time>2026-03-29T12:31:54.442Z</time></trkpt><trkpt lat="40.4376635" lon="15.1643418"><ele>292.5</ele><time>2026-03-29T12:31:55.428Z</time></trkpt><trkpt lat="40.4377474" lon="15.164186"><ele>294.0</ele><time>2026-03-29T12:31:56.56Z</time></trkpt><trkpt lat="40.4379098" lon="15.1639741"><ele>294.25</ele><time>2026-03-29T12:31:58.448Z</time></trkpt><trkpt lat="40.4380288" lon="15.1638787"><ele>294.5</ele><time>2026-03-29T12:31:59.443Z</time></trkpt><trkpt lat="40.4381607" lon="15.1638011"><ele>294.75</ele><time>2026-03-29T12:32:00.455Z</time></trkpt><trkpt lat="40.4382903" lon="15.1637389"><ele>295.0</ele><time>2026-03-29T12:32:01.425Z</time></trkpt><trkpt lat="40.4384323" lon="15.1636946"><ele>295.0</ele><time>2026-03-29T12:32:02.452Z</time></trkpt><trkpt lat="40.4385753" lon="15.1636712"><ele>295.0</ele><time>2026-03-29T12:32:03.431Z</time></trkpt><trkpt lat="40.4387231" lon="15.1636658"><ele>295.0</ele><time>2026-03-29T12:32:04.438Z</time></trkpt><trkpt lat="40.4388729" lon="15.16367"><ele>295.0</ele><time>2026-03-29T12:32:05.446Z</time></trkpt><trkpt lat="40.4390235" lon="15.163675"><ele>291.66666666666663</ele><time>2026-03-29T12:32:06.446Z</time></trkpt><trkpt lat="40.439192" lon="15.1636572"><ele>288.3333333333333</ele><time>2026-03-29T12:32:07.559Z</time></trkpt><trkpt lat="40.4394197" lon="15.1635785"><ele>285.0</ele><time>2026-03-29T12:32:09.448Z</time></trkpt><trkpt lat="40.4394583" lon="15.1635017"><ele>285.0</ele><time>2026-03-29T12:32:10.44Z</time></trkpt><trkpt lat="40.4395585" lon="15.1633972"><ele>285.0</ele><time>2026-03-29T12:32:11.448Z</time></trkpt><trkpt lat="40.4396613" lon="15.1632779"><ele>285.0</ele><time>2026-03-29T12:32:12.446Z</time></trkpt><trkpt lat="40.4397622" lon="15.1631568"><ele>285.0</ele><time>2026-03-29T12:32:13.409Z</time></trkpt><trkpt lat="40.4398627" lon="15.1630287"><ele>283.5</ele><time>2026-03-29T12:32:14.438Z</time></trkpt><trkpt lat="40.4399621" lon="15.1628968"><ele>282.0</ele><time>2026-03-29T12:32:15.425Z</time></trkpt><trkpt lat="40.4400625" lon="15.1627625"><ele>280.5</ele><time>2026-03-29T12:32:16.408Z</time></trkpt><trkpt lat="40.4401641" lon="15.1626246"><ele>279.0</ele><time>2026-03-29T12:32:17.418Z</time></trkpt><trkpt lat="40.4402705" lon="15.1624801"><ele>277.0</ele><time>2026-03-29T12:32:18.446Z</time></trkpt><trkpt lat="40.4403761" lon="15.1623359"><ele>275.0</ele><time>2026-03-29T12:32:19.423Z</time></trkpt><trkpt lat="40.4404792" lon="15.1621896"><ele>273.0</ele><time>2026-03-29T12:32:20.43Z</time></trkpt><trkpt lat="40.4405764" lon="15.1620483"><ele>271.0</ele><time>2026-03-29T12:32:21.439Z</time></trkpt><trkpt lat="40.4406683" lon="15.1619109"><ele>271.0</ele><time>2026-03-29T12:32:22.432Z</time></trkpt><trkpt lat="40.4407554" lon="15.1617732"><ele>271.0</ele><time>2026-03-29T12:32:23.44Z</time></trkpt><trkpt lat="40.4408343" lon="15.1616399"><ele>271.0</ele><time>2026-03-29T12:32:24.437Z</time></trkpt><trkpt lat="40.4409176" lon="15.1615198"><ele>271.0</ele><time>2026-03-29T12:32:25.451Z</time></trkpt><trkpt lat="40.4410102" lon="15.1614249"><ele>272.5</ele><time>2026-03-29T12:32:26.435Z</time></trkpt><trkpt lat="40.4411247" lon="15.1613564"><ele>274.0</ele><time>2026-03-29T12:32:27.441Z</time></trkpt><trkpt lat="40.4412966" lon="15.1612717"><ele>275.5</ele><time>2026-03-29T12:32:28.599Z</time></trkpt><trkpt lat="40.4414172" lon="15.1612198"><ele>277.0</ele><time>2026-03-29T12:32:29.506Z</time></trkpt><trkpt lat="40.4415448" lon="15.1611702"><ele>277.0</ele><time>2026-03-29T12:32:30.515Z</time></trkpt><trkpt lat="40.4416642" lon="15.1611386"><ele>277.0</ele><time>2026-03-29T12:32:31.49Z</time></trkpt><trkpt lat="40.4417975" lon="15.1611314"><ele>277.0</ele><time>2026-03-29T12:32:32.506Z</time></trkpt><trkpt lat="40.4419362" lon="15.1611498"><ele>277.0</ele><time>2026-03-29T12:32:33.514Z</time></trkpt><trkpt lat="40.4420886" lon="15.1611985"><ele>276.3333333333333</ele><time>2026-03-29T12:32:34.519Z</time></trkpt><trkpt lat="40.442244" lon="15.1612606"><ele>275.6666666666667</ele><time>2026-03-29T12:32:35.526Z</time></trkpt><trkpt lat="40.4423936" lon="15.1613274"><ele>275.0</ele><time>2026-03-29T12:32:36.491Z</time></trkpt><trkpt lat="40.4425441" lon="15.1614094"><ele>275.0</ele><time>2026-03-29T12:32:37.542Z</time></trkpt><trkpt lat="40.4426757" lon="15.161496"><ele>275.0</ele><time>2026-03-29T12:32:38.508Z</time></trkpt><trkpt lat="40.4427806" lon="15.1615843"><ele>275.0</ele><time>2026-03-29T12:32:39.499Z</time></trkpt><trkpt lat="40.4428602" lon="15.1616776"><ele>275.0</ele><time>2026-03-29T12:32:40.517Z</time></trkpt><trkpt lat="40.442941" lon="15.1618009"><ele>274.75</ele><time>2026-03-29T12:32:41.525Z</time></trkpt><trkpt lat="40.4430176" lon="15.1619347"><ele>274.5</ele><time>2026-03-29T12:32:42.529Z</time></trkpt><trkpt lat="40.4430927" lon="15.1620743"><ele>274.25</ele><time>2026-03-29T12:32:43.518Z</time></trkpt><trkpt lat="40.4431817" lon="15.1622175"><ele>274.0</ele><time>2026-03-29T12:32:44.53Z</time></trkpt><trkpt lat="40.4432895" lon="15.1623344"><ele>272.8</ele><time>2026-03-29T12:32:45.501Z</time></trkpt><trkpt lat="40.4433913" lon="15.1624089"><ele>271.59999999999997</ele><time>2026-03-29T12:32:46.513Z</time></trkpt><trkpt lat="40.4434773" lon="15.1624455"><ele>270.4</ele><time>2026-03-29T12:32:47.522Z</time></trkpt><trkpt lat="40.4435572" lon="15.1624963"><ele>269.2</ele><time>2026-03-29T12:32:48.491Z</time></trkpt><trkpt lat="40.4436318" lon="15.1625408"><ele>268.0</ele><time>2026-03-29T12:32:49.483Z</time></trkpt><trkpt lat="40.4437101" lon="15.1625663"><ele>268.0</ele><time>2026-03-29T12:32:50.488Z</time></trkpt><trkpt lat="40.4437839" lon="15.162552"><ele>268.0</ele><time>2026-03-29T12:32:51.487Z</time></trkpt><trkpt lat="40.4438679" lon="15.1624976"><ele>268.0</ele><time>2026-03-29T12:32:52.513Z</time></trkpt><trkpt lat="40.4439618" lon="15.1624244"><ele>268.0</ele><time>2026-03-29T12:32:53.448Z</time></trkpt><trkpt lat="40.4440783" lon="15.1623446"><ele>268.0</ele><time>2026-03-29T12:32:54.469Z</time></trkpt><trkpt lat="40.4442224" lon="15.1622483"><ele>267.3333333333333</ele><time>2026-03-29T12:32:55.483Z</time></trkpt><trkpt lat="40.4443885" lon="15.1621576"><ele>266.6666666666667</ele><time>2026-03-29T12:32:56.481Z</time></trkpt><trkpt lat="40.4445336" lon="15.1620653"><ele>266.0</ele><time>2026-03-29T12:32:57.438Z</time></trkpt><trkpt lat="40.4446805" lon="15.1619669"><ele>264.75</ele><time>2026-03-29T12:32:58.438Z</time></trkpt><trkpt lat="40.4448184" lon="15.1618881"><ele>263.5</ele><time>2026-03-29T12:32:59.44Z</time></trkpt><trkpt lat="40.4449609" lon="15.1618057"><ele>262.25</ele><time>2026-03-29T12:33:00.52Z</time></trkpt><trkpt lat="40.4450802" lon="15.1617387"><ele>261.0</ele><time>2026-03-29T12:33:01.45Z</time></trkpt><trkpt lat="40.4452143" lon="15.1616553"><ele>261.0</ele><time>2026-03-29T12:33:02.515Z</time></trkpt><trkpt lat="40.4453308" lon="15.1615827"><ele>261.0</ele><time>2026-03-29T12:33:03.474Z</time></trkpt><trkpt lat="40.4454541" lon="15.1615093"><ele>261.0</ele><time>2026-03-29T12:33:04.47Z</time></trkpt><trkpt lat="40.445579" lon="15.1614331"><ele>261.0</ele><time>2026-03-29T12:33:05.453Z</time></trkpt><trkpt lat="40.4457049" lon="15.1613559"><ele>258.5</ele><time>2026-03-29T12:33:06.457Z</time></trkpt><trkpt lat="40.4458285" lon="15.1612818"><ele>256.0</ele><time>2026-03-29T12:33:07.472Z</time></trkpt><trkpt lat="40.445946" lon="15.1612114"><ele>253.5</ele><time>2026-03-29T12:33:08.473Z</time></trkpt><trkpt lat="40.446059" lon="15.1611435"><ele>251.0</ele><time>2026-03-29T12:33:09.447Z</time></trkpt><trkpt lat="40.4461769" lon="15.1610628"><ele>251.0</ele><time>2026-03-29T12:33:10.439Z</time></trkpt><trkpt lat="40.4462927" lon="15.1609544"><ele>251.0</ele><time>2026-03-29T12:33:11.442Z</time></trkpt><trkpt lat="40.4464051" lon="15.16082"><ele>251.0</ele><time>2026-03-29T12:33:12.447Z</time></trkpt><trkpt lat="40.4465104" lon="15.1606836"><ele>251.0</ele><time>2026-03-29T12:33:13.449Z</time></trkpt><trkpt lat="40.4466127" lon="15.1605563"><ele>249.25</ele><time>2026-03-29T12:33:14.451Z</time></trkpt><trkpt lat="40.446709" lon="15.1604311"><ele>247.5</ele><time>2026-03-29T12:33:15.435Z</time></trkpt><trkpt lat="40.446803" lon="15.1603101"><ele>245.75</ele><time>2026-03-29T12:33:16.426Z</time></trkpt><trkpt lat="40.4468987" lon="15.1601943"><ele>244.0</ele><time>2026-03-29T12:33:17.438Z</time></trkpt><trkpt lat="40.4469846" lon="15.1600836"><ele>244.0</ele><time>2026-03-29T12:33:18.452Z</time></trkpt><trkpt lat="40.4470596" lon="15.1599842"><ele>244.0</ele><time>2026-03-29T12:33:19.439Z</time></trkpt><trkpt lat="40.4471391" lon="15.1598765"><ele>244.0</ele><time>2026-03-29T12:33:20.57Z</time></trkpt><trkpt lat="40.4472319" lon="15.1596689"><ele>244.0</ele><time>2026-03-29T12:33:22.662Z</time></trkpt><trkpt lat="40.4472157" lon="15.1594829"><ele>243.0</ele><time>2026-03-29T12:33:24.432Z</time></trkpt><trkpt lat="40.4471714" lon="15.1593764"><ele>242.0</ele><time>2026-03-29T12:33:25.442Z</time></trkpt><trkpt lat="40.4471037" lon="15.1592693"><ele>241.0</ele><time>2026-03-29T12:33:26.444Z</time></trkpt><trkpt lat="40.447012" lon="15.1591518"><ele>240.0</ele><time>2026-03-29T12:33:27.439Z</time></trkpt><trkpt lat="40.446905" lon="15.1590385"><ele>238.2</ele><time>2026-03-29T12:33:28.459Z</time></trkpt><trkpt lat="40.4468095" lon="15.1589282"><ele>236.4</ele><time>2026-03-29T12:33:29.444Z</time></trkpt><trkpt lat="40.4467186" lon="15.1588223"><ele>234.60000000000002</ele><time>2026-03-29T12:33:30.46Z</time></trkpt><trkpt lat="40.4466379" lon="15.1587349"><ele>232.8</ele><time>2026-03-29T12:33:31.481Z</time></trkpt><trkpt lat="40.4465779" lon="15.1586609"><ele>231.0</ele><time>2026-03-29T12:33:32.451Z</time></trkpt><trkpt lat="40.446547" lon="15.1585426"><ele>231.0</ele><time>2026-03-29T12:33:34.463Z</time></trkpt><trkpt lat="40.4466426" lon="15.1584097"><ele>231.0</ele><time>2026-03-29T12:33:36.473Z</time></trkpt><trkpt lat="40.4467417" lon="15.158407"><ele>231.0</ele><time>2026-03-29T12:33:37.575Z</time></trkpt><trkpt lat="40.4470015" lon="15.1584254"><ele>230.0</ele><time>2026-03-29T12:33:39.468Z</time></trkpt><trkpt lat="40.4471677" lon="15.1584174"><ele>229.0</ele><time>2026-03-29T12:33:40.444Z</time></trkpt><trkpt lat="40.4473358" lon="15.1584044"><ele>228.0</ele><time>2026-03-29T12:33:41.445Z</time></trkpt><trkpt lat="40.4474853" lon="15.1583988"><ele>228.0</ele><time>2026-03-29T12:33:42.47Z</time></trkpt><trkpt lat="40.4476283" lon="15.1584196"><ele>228.0</ele><time>2026-03-29T12:33:43.567Z</time></trkpt><trkpt lat="40.4478034" lon="15.1585177"><ele>228.0</ele><time>2026-03-29T12:33:45.443Z</time></trkpt><trkpt lat="40.4478962" lon="15.1585913"><ele>228.0</ele><time>2026-03-29T12:33:46.446Z</time></trkpt><trkpt lat="40.4479751" lon="15.1586541"><ele>226.33333333333334</ele><time>2026-03-29T12:33:47.45Z</time></trkpt><trkpt lat="40.4480535" lon="15.1587071"><ele>224.66666666666669</ele><time>2026-03-29T12:33:48.438Z</time></trkpt><trkpt lat="40.4481248" lon="15.1587035"><ele>223.0</ele><time>2026-03-29T12:33:49.437Z</time></trkpt><trkpt lat="40.4481983" lon="15.1585821"><ele>221.33333333333334</ele><time>2026-03-29T12:33:51.456Z</time></trkpt><trkpt lat="40.4481913" lon="15.1584882"><ele>219.66666666666669</ele><time>2026-03-29T12:33:52.531Z</time></trkpt><trkpt lat="40.4481656" lon="15.1584055"><ele>218.0</ele><time>2026-03-29T12:33:53.431Z</time></trkpt><trkpt lat="40.4481219" lon="15.1583075"><ele>216.60000000000002</ele><time>2026-03-29T12:33:54.427Z</time></trkpt><trkpt lat="40.4480657" lon="15.1581936"><ele>215.20000000000002</ele><time>2026-03-29T12:33:55.425Z</time></trkpt><trkpt lat="40.4480181" lon="15.1580803"><ele>213.8</ele><time>2026-03-29T12:33:56.456Z</time></trkpt><trkpt lat="40.4479937" lon="15.1579578"><ele>212.4</ele><time>2026-03-29T12:33:57.487Z</time></trkpt><trkpt lat="40.4479967" lon="15.1578505"><ele>211.0</ele><time>2026-03-29T12:33:58.433Z</time></trkpt><trkpt lat="40.4480103" lon="15.1576945"><ele>211.0</ele><time>2026-03-29T12:33:59.451Z</time></trkpt><trkpt lat="40.4480383" lon="15.1575095"><ele>211.0</ele><time>2026-03-29T12:34:00.436Z</time></trkpt><trkpt lat="40.448072" lon="15.1572628"><ele>211.0</ele><time>2026-03-29T12:34:01.432Z</time></trkpt><trkpt lat="40.4481083" lon="15.1570186"><ele>210.0</ele><time>2026-03-29T12:34:02.448Z</time></trkpt><trkpt lat="40.4481486" lon="15.1568241"><ele>209.0</ele><time>2026-03-29T12:34:03.477Z</time></trkpt><trkpt lat="40.4481774" lon="15.1566267"><ele>208.0</ele><time>2026-03-29T12:34:04.431Z</time></trkpt><trkpt lat="40.4482144" lon="15.1564465"><ele>207.0</ele><time>2026-03-29T12:34:05.448Z</time></trkpt><trkpt lat="40.4482496" lon="15.1562739"><ele>206.75</ele><time>2026-03-29T12:34:06.444Z</time></trkpt><trkpt lat="40.4482807" lon="15.1560878"><ele>206.5</ele><time>2026-03-29T12:34:07.457Z</time></trkpt><trkpt lat="40.44832" lon="15.1559207"><ele>206.25</ele><time>2026-03-29T12:34:08.463Z</time></trkpt><trkpt lat="40.448354" lon="15.1557498"><ele>206.0</ele><time>2026-03-29T12:34:09.438Z</time></trkpt><trkpt lat="40.4483885" lon="15.1555789"><ele>205.25</ele><time>2026-03-29T12:34:10.476Z</time></trkpt><trkpt lat="40.4484082" lon="15.1554182"><ele>204.5</ele><time>2026-03-29T12:34:11.425Z</time></trkpt><trkpt lat="40.4484285" lon="15.1552614"><ele>203.75</ele><time>2026-03-29T12:34:12.442Z</time></trkpt><trkpt lat="40.4484281" lon="15.1551029"><ele>203.0</ele><time>2026-03-29T12:34:13.442Z</time></trkpt><trkpt lat="40.4484102" lon="15.1549562"><ele>201.8</ele><time>2026-03-29T12:34:14.506Z</time></trkpt><trkpt lat="40.448379" lon="15.1548339"><ele>200.60000000000002</ele><time>2026-03-29T12:34:15.449Z</time></trkpt><trkpt lat="40.4483375" lon="15.154717"><ele>199.39999999999998</ele><time>2026-03-29T12:34:16.488Z</time></trkpt><trkpt lat="40.4482926" lon="15.1546284"><ele>198.2</ele><time>2026-03-29T12:34:17.446Z</time></trkpt><trkpt lat="40.4482467" lon="15.1545144"><ele>197.0</ele><time>2026-03-29T12:34:19.473Z</time></trkpt><trkpt lat="40.448311" lon="15.1544461"><ele>197.0</ele><time>2026-03-29T12:34:21.463Z</time></trkpt><trkpt lat="40.4484292" lon="15.1544447"><ele>197.0</ele><time>2026-03-29T12:34:23.448Z</time></trkpt><trkpt lat="40.4485118" lon="15.1545135"><ele>197.0</ele><time>2026-03-29T12:34:24.434Z</time></trkpt><trkpt lat="40.4486118" lon="15.1546025"><ele>197.0</ele><time>2026-03-29T12:34:25.452Z</time></trkpt><trkpt lat="40.4487145" lon="15.1547147"><ele>195.25</ele><time>2026-03-29T12:34:26.433Z</time></trkpt><trkpt lat="40.4488243" lon="15.1548493"><ele>193.5</ele><time>2026-03-29T12:34:27.452Z</time></trkpt><trkpt lat="40.4489351" lon="15.1549793"><ele>191.75</ele><time>2026-03-29T12:34:28.436Z</time></trkpt><trkpt lat="40.4490562" lon="15.1550833"><ele>190.0</ele><time>2026-03-29T12:34:29.684Z</time></trkpt><trkpt lat="40.4491829" lon="15.1552376"><ele>190.0</ele><time>2026-03-29T12:34:31.517Z</time></trkpt><trkpt lat="40.4492499" lon="15.1553361"><ele>190.0</ele><time>2026-03-29T12:34:32.521Z</time></trkpt><trkpt lat="40.4493129" lon="15.1554207"><ele>190.0</ele><time>2026-03-29T12:34:33.522Z</time></trkpt><trkpt lat="40.4494303" lon="15.155507"><ele>190.0</ele><time>2026-03-29T12:34:35.5Z</time></trkpt><trkpt lat="40.4494966" lon="15.1555187"><ele>190.0</ele><time>2026-03-29T12:34:36.537Z</time></trkpt><trkpt lat="40.4495966" lon="15.155424"><ele>187.5</ele><time>2026-03-29T12:34:38.521Z</time></trkpt><trkpt lat="40.449642" lon="15.1553189"><ele>185.0</ele><time>2026-03-29T12:34:39.526Z</time></trkpt><trkpt lat="40.4496788" lon="15.1551759"><ele>182.5</ele><time>2026-03-29T12:34:40.515Z</time></trkpt><trkpt lat="40.4497121" lon="15.1550105"><ele>180.0</ele><time>2026-03-29T12:34:41.512Z</time></trkpt><trkpt lat="40.4497447" lon="15.1548506"><ele>179.25</ele><time>2026-03-29T12:34:42.505Z</time></trkpt><trkpt lat="40.449767" lon="15.1546867"><ele>178.5</ele><time>2026-03-29T12:34:43.514Z</time></trkpt><trkpt lat="40.4497754" lon="15.1545207"><ele>177.75</ele><time>2026-03-29T12:34:44.549Z</time></trkpt><trkpt lat="40.4497764" lon="15.154357"><ele>177.0</ele><time>2026-03-29T12:34:45.53Z</time></trkpt><trkpt lat="40.4497587" lon="15.1542017"><ele>177.0</ele><time>2026-03-29T12:34:46.542Z</time></trkpt><trkpt lat="40.4497226" lon="15.1540586"><ele>177.0</ele><time>2026-03-29T12:34:47.554Z</time></trkpt><trkpt lat="40.4496724" lon="15.1539329"><ele>177.0</ele><time>2026-03-29T12:34:48.524Z</time></trkpt><trkpt lat="40.4496086" lon="15.1538127"><ele>177.0</ele><time>2026-03-29T12:34:49.496Z</time></trkpt><trkpt lat="40.4495386" lon="15.1537054"><ele>177.0</ele><time>2026-03-29T12:34:50.523Z</time></trkpt><trkpt lat="40.4494734" lon="15.15362"><ele>177.5</ele><time>2026-03-29T12:34:51.525Z</time></trkpt><trkpt lat="40.4494195" lon="15.1535426"><ele>178.0</ele><time>2026-03-29T12:34:52.502Z</time></trkpt><trkpt lat="40.4493915" lon="15.1534437"><ele>178.5</ele><time>2026-03-29T12:34:53.661Z</time></trkpt><trkpt lat="40.4494439" lon="15.1533087"><ele>179.0</ele><time>2026-03-29T12:34:55.535Z</time></trkpt><trkpt lat="40.4495046" lon="15.1532756"><ele>179.5</ele><time>2026-03-29T12:34:56.507Z</time></trkpt><trkpt lat="40.4495948" lon="15.1532616"><ele>180.0</ele><time>2026-03-29T12:34:57.52Z</time></trkpt><trkpt lat="40.4497069" lon="15.1532547"><ele>178.8</ele><time>2026-03-29T12:34:58.528Z</time></trkpt><trkpt lat="40.4498211" lon="15.1532472"><ele>177.6</ele><time>2026-03-29T12:34:59.515Z</time></trkpt><trkpt lat="40.4499283" lon="15.1532641"><ele>176.39999999999998</ele><time>2026-03-29T12:35:00.522Z</time></trkpt><trkpt lat="40.4500218" lon="15.1533199"><ele>175.2</ele><time>2026-03-29T12:35:01.525Z</time></trkpt><trkpt lat="40.4500914" lon="15.1534047"><ele>174.0</ele><time>2026-03-29T12:35:02.516Z</time></trkpt><trkpt lat="40.4501539" lon="15.1535106"><ele>174.0</ele><time>2026-03-29T12:35:03.735Z</time></trkpt><trkpt lat="40.4502562" lon="15.1535415"><ele>174.0</ele><time>2026-03-29T12:35:05.499Z</time></trkpt><trkpt lat="40.4503162" lon="15.1534529"><ele>174.0</ele><time>2026-03-29T12:35:07.515Z</time></trkpt><trkpt lat="40.4502993" lon="15.1531773"><ele>174.0</ele><time>2026-03-29T12:35:10.495Z</time></trkpt><trkpt lat="40.4502716" lon="15.1530366"><ele>172.6</ele><time>2026-03-29T12:35:11.567Z</time></trkpt><trkpt lat="40.4502341" lon="15.1529143"><ele>171.2</ele><time>2026-03-29T12:35:12.52Z</time></trkpt><trkpt lat="40.4501791" lon="15.1527954"><ele>169.79999999999998</ele><time>2026-03-29T12:35:13.507Z</time></trkpt><trkpt lat="40.4501121" lon="15.1526813"><ele>168.39999999999998</ele><time>2026-03-29T12:35:14.511Z</time></trkpt><trkpt lat="40.4500397" lon="15.1525793"><ele>167.0</ele><time>2026-03-29T12:35:15.528Z</time></trkpt><trkpt lat="40.4499766" lon="15.1524887"><ele>167.0</ele><time>2026-03-29T12:35:16.517Z</time></trkpt><trkpt lat="40.4499186" lon="15.1523988"><ele>167.0</ele><time>2026-03-29T12:35:17.648Z</time></trkpt><trkpt lat="40.4499085" lon="15.1522608"><ele>167.0</ele><time>2026-03-29T12:35:19.516Z</time></trkpt><trkpt lat="40.4499982" lon="15.152199"><ele>167.0</ele><time>2026-03-29T12:35:21.472Z</time></trkpt><trkpt lat="40.450086" lon="15.1522385"><ele>167.0</ele><time>2026-03-29T12:35:22.778Z</time></trkpt><trkpt lat="40.4502473" lon="15.1523076"><ele>167.0</ele><time>2026-03-29T12:35:24.516Z</time></trkpt><trkpt lat="40.4503322" lon="15.1523642"><ele>167.0</ele><time>2026-03-29T12:35:25.533Z</time></trkpt><trkpt lat="40.4504049" lon="15.1523941"><ele>167.0</ele><time>2026-03-29T12:35:26.511Z</time></trkpt><trkpt lat="40.4505111" lon="15.1523651"><ele>167.0</ele><time>2026-03-29T12:35:28.524Z</time></trkpt><trkpt lat="40.4505189" lon="15.1522468"><ele>167.0</ele><time>2026-03-29T12:35:30.508Z</time></trkpt><trkpt lat="40.4504923" lon="15.1521647"><ele>167.0</ele><time>2026-03-29T12:35:31.545Z</time></trkpt><trkpt lat="40.4504505" lon="15.1520573"><ele>165.5</ele><time>2026-03-29T12:35:32.51Z</time></trkpt><trkpt lat="40.4503905" lon="15.1518996"><ele>164.0</ele><time>2026-03-29T12:35:33.554Z</time></trkpt><trkpt lat="40.4503294" lon="15.1517341"><ele>162.5</ele><time>2026-03-29T12:35:34.527Z</time></trkpt><trkpt lat="40.4502699" lon="15.151577"><ele>161.0</ele><time>2026-03-29T12:35:35.53Z</time></trkpt><trkpt lat="40.4502071" lon="15.1514202"><ele>159.0</ele><time>2026-03-29T12:35:36.535Z</time></trkpt><trkpt lat="40.4501409" lon="15.1512707"><ele>157.0</ele><time>2026-03-29T12:35:37.496Z</time></trkpt><trkpt lat="40.4500604" lon="15.1511225"><ele>155.0</ele><time>2026-03-29T12:35:38.504Z</time></trkpt><trkpt lat="40.4499849" lon="15.1509878"><ele>153.0</ele><time>2026-03-29T12:35:39.517Z</time></trkpt><trkpt lat="40.4499151" lon="15.1508634"><ele>153.0</ele><time>2026-03-29T12:35:40.507Z</time></trkpt><trkpt lat="40.4498544" lon="15.1507453"><ele>153.0</ele><time>2026-03-29T12:35:41.525Z</time></trkpt><trkpt lat="40.4498156" lon="15.1506353"><ele>153.0</ele><time>2026-03-29T12:35:42.491Z</time></trkpt><trkpt lat="40.4498097" lon="15.1505289"><ele>153.0</ele><time>2026-03-29T12:35:43.484Z</time></trkpt><trkpt lat="40.44984" lon="15.1504319"><ele>153.0</ele><time>2026-03-29T12:35:44.504Z</time></trkpt><trkpt lat="40.449903" lon="15.1503434"><ele>151.6</ele><time>2026-03-29T12:35:45.588Z</time></trkpt><trkpt lat="40.4499707" lon="15.1502712"><ele>150.20000000000002</ele><time>2026-03-29T12:35:46.505Z</time></trkpt><trkpt lat="40.4500495" lon="15.1502112"><ele>148.8</ele><time>2026-03-29T12:35:47.515Z</time></trkpt><trkpt lat="40.4501313" lon="15.1501838"><ele>147.4</ele><time>2026-03-29T12:35:48.491Z</time></trkpt><trkpt lat="40.4502214" lon="15.1501891"><ele>146.0</ele><time>2026-03-29T12:35:49.51Z</time></trkpt><trkpt lat="40.4503243" lon="15.1502181"><ele>146.0</ele><time>2026-03-29T12:35:50.51Z</time></trkpt><trkpt lat="40.4504492" lon="15.1502669"><ele>146.0</ele><time>2026-03-29T12:35:51.559Z</time></trkpt><trkpt lat="40.4505672" lon="15.1503241"><ele>146.0</ele><time>2026-03-29T12:35:52.499Z</time></trkpt><trkpt lat="40.4506888" lon="15.1503845"><ele>146.0</ele><time>2026-03-29T12:35:53.49Z</time></trkpt><trkpt lat="40.4508132" lon="15.1504475"><ele>144.75</ele><time>2026-03-29T12:35:54.486Z</time></trkpt><trkpt lat="40.4509369" lon="15.1505095"><ele>143.5</ele><time>2026-03-29T12:35:55.501Z</time></trkpt><trkpt lat="40.4510512" lon="15.1505608"><ele>142.25</ele><time>2026-03-29T12:35:56.5Z</time></trkpt><trkpt lat="40.4511534" lon="15.1505919"><ele>141.0</ele><time>2026-03-29T12:35:57.479Z</time></trkpt><trkpt lat="40.4512555" lon="15.1505961"><ele>141.6</ele><time>2026-03-29T12:35:58.509Z</time></trkpt><trkpt lat="40.4513438" lon="15.1505687"><ele>142.2</ele><time>2026-03-29T12:35:59.48Z</time></trkpt><trkpt lat="40.4514213" lon="15.1505066"><ele>142.8</ele><time>2026-03-29T12:36:00.499Z</time></trkpt><trkpt lat="40.4514845" lon="15.1504078"><ele>143.4</ele><time>2026-03-29T12:36:01.514Z</time></trkpt><trkpt lat="40.4515348" lon="15.1502765"><ele>144.0</ele><time>2026-03-29T12:36:02.484Z</time></trkpt><trkpt lat="40.4515721" lon="15.1500921"><ele>144.0</ele><time>2026-03-29T12:36:03.587Z</time></trkpt><trkpt lat="40.4515838" lon="15.1499147"><ele>144.0</ele><time>2026-03-29T12:36:04.503Z</time></trkpt><trkpt lat="40.4515818" lon="15.1497005"><ele>144.0</ele><time>2026-03-29T12:36:05.514Z</time></trkpt><trkpt lat="40.4515716" lon="15.1494818"><ele>144.0</ele><time>2026-03-29T12:36:06.503Z</time></trkpt><trkpt lat="40.451559" lon="15.1492682"><ele>144.0</ele><time>2026-03-29T12:36:07.506Z</time></trkpt><trkpt lat="40.4515477" lon="15.1490768"><ele>144.0</ele><time>2026-03-29T12:36:08.486Z</time></trkpt><trkpt lat="40.4515362" lon="15.1488792"><ele>143.0</ele><time>2026-03-29T12:36:09.501Z</time></trkpt><trkpt lat="40.4515284" lon="15.1486807"><ele>142.0</ele><time>2026-03-29T12:36:10.496Z</time></trkpt><trkpt lat="40.4515228" lon="15.1484855"><ele>141.0</ele><time>2026-03-29T12:36:11.516Z</time></trkpt><trkpt lat="40.4515129" lon="15.1482995"><ele>140.0</ele><time>2026-03-29T12:36:12.506Z</time></trkpt><trkpt lat="40.4514935" lon="15.1481029"><ele>139.66666666666666</ele><time>2026-03-29T12:36:13.507Z</time></trkpt><trkpt lat="40.4514549" lon="15.1478884"><ele>139.33333333333334</ele><time>2026-03-29T12:36:14.522Z</time></trkpt><trkpt lat="40.4513975" lon="15.1476567"><ele>139.0</ele><time>2026-03-29T12:36:15.505Z</time></trkpt><trkpt lat="40.4513335" lon="15.1474271"><ele>136.0</ele><time>2026-03-29T12:36:16.533Z</time></trkpt><trkpt lat="40.4512751" lon="15.1472179"><ele>133.0</ele><time>2026-03-29T12:36:17.511Z</time></trkpt><trkpt lat="40.4512064" lon="15.1469876"><ele>130.0</ele><time>2026-03-29T12:36:18.654Z</time></trkpt><trkpt lat="40.4511514" lon="15.146815"><ele>130.0</ele><time>2026-03-29T12:36:19.57Z</time></trkpt><trkpt lat="40.4510939" lon="15.1466468"><ele>130.0</ele><time>2026-03-29T12:36:20.509Z</time></trkpt><trkpt lat="40.451037" lon="15.1464687"><ele>130.0</ele><time>2026-03-29T12:36:21.541Z</time></trkpt><trkpt lat="40.4509924" lon="15.1463103"><ele>130.0</ele><time>2026-03-29T12:36:22.503Z</time></trkpt><trkpt lat="40.4509561" lon="15.146153"><ele>129.5</ele><time>2026-03-29T12:36:23.509Z</time></trkpt><trkpt lat="40.4509366" lon="15.1459942"><ele>129.0</ele><time>2026-03-29T12:36:24.519Z</time></trkpt><trkpt lat="40.4509372" lon="15.1458268"><ele>128.5</ele><time>2026-03-29T12:36:25.515Z</time></trkpt><trkpt lat="40.4509544" lon="15.1456433"><ele>128.0</ele><time>2026-03-29T12:36:26.511Z</time></trkpt><trkpt lat="40.4509846" lon="15.1454454"><ele>127.0</ele><time>2026-03-29T12:36:27.511Z</time></trkpt><trkpt lat="40.4510204" lon="15.1452332"><ele>126.0</ele><time>2026-03-29T12:36:28.519Z</time></trkpt><trkpt lat="40.4510461" lon="15.1450068"><ele>125.0</ele><time>2026-03-29T12:36:29.519Z</time></trkpt><trkpt lat="40.4510621" lon="15.1447664"><ele>123.33333333333333</ele><time>2026-03-29T12:36:30.532Z</time></trkpt><trkpt lat="40.4510759" lon="15.144543"><ele>121.66666666666666</ele><time>2026-03-29T12:36:31.523Z</time></trkpt><trkpt lat="40.451098" lon="15.1443188"><ele>120.0</ele><time>2026-03-29T12:36:32.57Z</time></trkpt><trkpt lat="40.4511225" lon="15.1441085"><ele>120.0</ele><time>2026-03-29T12:36:33.53Z</time></trkpt><trkpt lat="40.4511476" lon="15.1439024"><ele>120.0</ele><time>2026-03-29T12:36:34.53Z</time></trkpt><trkpt lat="40.4511765" lon="15.1437015"><ele>120.0</ele><time>2026-03-29T12:36:35.541Z</time></trkpt><trkpt lat="40.4512089" lon="15.1435068"><ele>120.0</ele><time>2026-03-29T12:36:36.517Z</time></trkpt><trkpt lat="40.4512449" lon="15.1433111"><ele>120.0</ele><time>2026-03-29T12:36:37.548Z</time></trkpt><trkpt lat="40.4512917" lon="15.1431293"><ele>120.0</ele><time>2026-03-29T12:36:38.538Z</time></trkpt><trkpt lat="40.4513583" lon="15.1429404"><ele>119.5</ele><time>2026-03-29T12:36:39.546Z</time></trkpt><trkpt lat="40.4514329" lon="15.1427622"><ele>119.0</ele><time>2026-03-29T12:36:40.541Z</time></trkpt><trkpt lat="40.4515082" lon="15.1425947"><ele>118.5</ele><time>2026-03-29T12:36:41.556Z</time></trkpt><trkpt lat="40.4515883" lon="15.1424494"><ele>118.0</ele><time>2026-03-29T12:36:42.537Z</time></trkpt><trkpt lat="40.4516797" lon="15.1423223"><ele>116.75</ele><time>2026-03-29T12:36:43.536Z</time></trkpt><trkpt lat="40.451777" lon="15.1422141"><ele>115.5</ele><time>2026-03-29T12:36:44.53Z</time></trkpt><trkpt lat="40.4518766" lon="15.1421242"><ele>114.25</ele><time>2026-03-29T12:36:45.523Z</time></trkpt><trkpt lat="40.4519805" lon="15.1420542"><ele>113.0</ele><time>2026-03-29T12:36:46.531Z</time></trkpt><trkpt lat="40.4520901" lon="15.1420076"><ele>113.5</ele><time>2026-03-29T12:36:47.514Z</time></trkpt><trkpt lat="40.4522117" lon="15.1419724"><ele>114.0</ele><time>2026-03-29T12:36:48.516Z</time></trkpt><trkpt lat="40.4523297" lon="15.1419335"><ele>114.5</ele><time>2026-03-29T12:36:49.528Z</time></trkpt><trkpt lat="40.4524402" lon="15.1418674"><ele>115.0</ele><time>2026-03-29T12:36:50.567Z</time></trkpt><trkpt lat="40.4525444" lon="15.1417641"><ele>112.66666666666667</ele><time>2026-03-29T12:36:51.644Z</time></trkpt><trkpt lat="40.4526946" lon="15.1414933"><ele>110.33333333333334</ele><time>2026-03-29T12:36:53.527Z</time></trkpt><trkpt lat="40.4527665" lon="15.1413196"><ele>108.0</ele><time>2026-03-29T12:36:54.528Z</time></trkpt><trkpt lat="40.4528355" lon="15.1411495"><ele>108.0</ele><time>2026-03-29T12:36:55.51Z</time></trkpt><trkpt lat="40.4528972" lon="15.1409778"><ele>108.0</ele><time>2026-03-29T12:36:56.513Z</time></trkpt><trkpt lat="40.4529417" lon="15.1407981"><ele>108.0</ele><time>2026-03-29T12:36:57.506Z</time></trkpt><trkpt lat="40.452965" lon="15.140609"><ele>108.0</ele><time>2026-03-29T12:36:58.527Z</time></trkpt><trkpt lat="40.4529646" lon="15.1404156"><ele>107.75</ele><time>2026-03-29T12:36:59.536Z</time></trkpt><trkpt lat="40.4529426" lon="15.1402382"><ele>107.5</ele><time>2026-03-29T12:37:00.522Z</time></trkpt><trkpt lat="40.4529054" lon="15.1400761"><ele>107.25</ele><time>2026-03-29T12:37:01.53Z</time></trkpt><trkpt lat="40.4528745" lon="15.1399292"><ele>107.0</ele><time>2026-03-29T12:37:02.522Z</time></trkpt><trkpt lat="40.4528633" lon="15.1397682"><ele>106.0</ele><time>2026-03-29T12:37:03.557Z</time></trkpt><trkpt lat="40.4528655" lon="15.1396022"><ele>105.0</ele><time>2026-03-29T12:37:04.536Z</time></trkpt><trkpt lat="40.452889" lon="15.1394094"><ele>104.0</ele><time>2026-03-29T12:37:05.543Z</time></trkpt><trkpt lat="40.4529297" lon="15.1392156"><ele>103.0</ele><time>2026-03-29T12:37:06.488Z</time></trkpt><trkpt lat="40.4529794" lon="15.1390225"><ele>105.75</ele><time>2026-03-29T12:37:07.504Z</time></trkpt><trkpt lat="40.4530277" lon="15.1388325"><ele>108.5</ele><time>2026-03-29T12:37:08.522Z</time></trkpt><trkpt lat="40.4530649" lon="15.138647"><ele>111.25</ele><time>2026-03-29T12:37:09.524Z</time></trkpt><trkpt lat="40.4530823" lon="15.1384556"><ele>114.0</ele><time>2026-03-29T12:37:10.524Z</time></trkpt><trkpt lat="40.4530824" lon="15.1382399"><ele>115.0</ele><time>2026-03-29T12:37:11.524Z</time></trkpt><trkpt lat="40.4530709" lon="15.13799"><ele>116.0</ele><time>2026-03-29T12:37:12.52Z</time></trkpt><trkpt lat="40.4530544" lon="15.1377402"><ele>117.0</ele><time>2026-03-29T12:37:13.511Z</time></trkpt><trkpt lat="40.4530408" lon="15.137496"><ele>116.66666666666666</ele><time>2026-03-29T12:37:14.507Z</time></trkpt><trkpt lat="40.4530264" lon="15.1372749"><ele>116.33333333333333</ele><time>2026-03-29T12:37:15.51Z</time></trkpt><trkpt lat="40.4529979" lon="15.1370554"><ele>116.0</ele><time>2026-03-29T12:37:16.555Z</time></trkpt><trkpt lat="40.4529636" lon="15.1368588"><ele>112.0</ele><time>2026-03-29T12:37:17.555Z</time></trkpt><trkpt lat="40.452929" lon="15.136674"><ele>108.0</ele><time>2026-03-29T12:37:18.543Z</time></trkpt><trkpt lat="40.4529055" lon="15.1364935"><ele>104.0</ele><time>2026-03-29T12:37:19.538Z</time></trkpt><trkpt lat="40.4528968" lon="15.1363072"><ele>100.0</ele><time>2026-03-29T12:37:20.562Z</time></trkpt><trkpt lat="40.4529028" lon="15.1361257"><ele>100.0</ele><time>2026-03-29T12:37:21.539Z</time></trkpt><trkpt lat="40.4529173" lon="15.1359407"><ele>100.0</ele><time>2026-03-29T12:37:22.538Z</time></trkpt><trkpt lat="40.4529334" lon="15.135748"><ele>100.0</ele><time>2026-03-29T12:37:23.54Z</time></trkpt><trkpt lat="40.4529517" lon="15.1355472"><ele>100.0</ele><time>2026-03-29T12:37:24.531Z</time></trkpt><trkpt lat="40.4529733" lon="15.1353368"><ele>100.0</ele><time>2026-03-29T12:37:25.541Z</time></trkpt><trkpt lat="40.452999" lon="15.1351341"><ele>100.0</ele><time>2026-03-29T12:37:26.527Z</time></trkpt><trkpt lat="40.4530285" lon="15.1349373"><ele>100.0</ele><time>2026-03-29T12:37:27.537Z</time></trkpt><trkpt lat="40.4530591" lon="15.1347515"><ele>100.0</ele><time>2026-03-29T12:37:28.551Z</time></trkpt><trkpt lat="40.4531013" lon="15.1345815"><ele>100.0</ele><time>2026-03-29T12:37:29.533Z</time></trkpt><trkpt lat="40.4531603" lon="15.1344057"><ele>100.0</ele><time>2026-03-29T12:37:30.528Z</time></trkpt><trkpt lat="40.4532324" lon="15.1342297"><ele>100.0</ele><time>2026-03-29T12:37:31.502Z</time></trkpt><trkpt lat="40.4533166" lon="15.1340401"><ele>97.33333333333334</ele><time>2026-03-29T12:37:32.514Z</time></trkpt><trkpt lat="40.453404" lon="15.1338569"><ele>94.66666666666667</ele><time>2026-03-29T12:37:33.512Z</time></trkpt><trkpt lat="40.4534875" lon="15.1336861"><ele>92.0</ele><time>2026-03-29T12:37:34.515Z</time></trkpt><trkpt lat="40.4535775" lon="15.1335288"><ele>92.0</ele><time>2026-03-29T12:37:35.519Z</time></trkpt><trkpt lat="40.4536839" lon="15.1333672"><ele>92.0</ele><time>2026-03-29T12:37:36.523Z</time></trkpt><trkpt lat="40.453793" lon="15.1332193"><ele>92.0</ele><time>2026-03-29T12:37:37.518Z</time></trkpt><trkpt lat="40.4538968" lon="15.1330815"><ele>91.75</ele><time>2026-03-29T12:37:38.521Z</time></trkpt><trkpt lat="40.4540061" lon="15.1329642"><ele>91.5</ele><time>2026-03-29T12:37:39.526Z</time></trkpt><trkpt lat="40.4541266" lon="15.1328623"><ele>91.25</ele><time>2026-03-29T12:37:40.531Z</time></trkpt><trkpt lat="40.4542468" lon="15.1327622"><ele>91.0</ele><time>2026-03-29T12:37:41.547Z</time></trkpt><trkpt lat="40.4543489" lon="15.1326691"><ele>91.0</ele><time>2026-03-29T12:37:42.51Z</time></trkpt><trkpt lat="40.4544418" lon="15.1325616"><ele>91.0</ele><time>2026-03-29T12:37:43.501Z</time></trkpt><trkpt lat="40.454528" lon="15.1324247"><ele>91.0</ele><time>2026-03-29T12:37:44.541Z</time></trkpt><trkpt lat="40.4545914" lon="15.132289"><ele>91.0</ele><time>2026-03-29T12:37:45.52Z</time></trkpt><trkpt lat="40.4546386" lon="15.1321454"><ele>93.5</ele><time>2026-03-29T12:37:46.521Z</time></trkpt><trkpt lat="40.4546672" lon="15.1319786"><ele>96.0</ele><time>2026-03-29T12:37:47.528Z</time></trkpt><trkpt lat="40.454677" lon="15.1317968"><ele>98.5</ele><time>2026-03-29T12:37:48.525Z</time></trkpt><trkpt lat="40.4546687" lon="15.1315913"><ele>101.0</ele><time>2026-03-29T12:37:49.542Z</time></trkpt><trkpt lat="40.4546493" lon="15.1313954"><ele>101.0</ele><time>2026-03-29T12:37:50.528Z</time></trkpt><trkpt lat="40.4546295" lon="15.1312063"><ele>101.0</ele><time>2026-03-29T12:37:51.503Z</time></trkpt><trkpt lat="40.4546319" lon="15.1310187"><ele>101.0</ele><time>2026-03-29T12:37:52.501Z</time></trkpt><trkpt lat="40.4546537" lon="15.1308399"><ele>101.0</ele><time>2026-03-29T12:37:53.423Z</time></trkpt><trkpt lat="40.4547032" lon="15.1306321"><ele>98.66666666666666</ele><time>2026-03-29T12:37:54.442Z</time></trkpt><trkpt lat="40.4547718" lon="15.1304083"><ele>96.33333333333333</ele><time>2026-03-29T12:37:55.436Z</time></trkpt><trkpt lat="40.4548537" lon="15.1301663"><ele>94.0</ele><time>2026-03-29T12:37:56.521Z</time></trkpt><trkpt lat="40.4549313" lon="15.1299587"><ele>91.33333333333333</ele><time>2026-03-29T12:37:57.507Z</time></trkpt><trkpt lat="40.455019" lon="15.129764"><ele>88.66666666666667</ele><time>2026-03-29T12:37:58.533Z</time></trkpt><trkpt lat="40.4551044" lon="15.1295805"><ele>86.0</ele><time>2026-03-29T12:37:59.547Z</time></trkpt><trkpt lat="40.4551654" lon="15.1294094"><ele>86.0</ele><time>2026-03-29T12:38:00.502Z</time></trkpt><trkpt lat="40.4552197" lon="15.1292149"><ele>86.0</ele><time>2026-03-29T12:38:01.522Z</time></trkpt><trkpt lat="40.455259" lon="15.1290265"><ele>86.0</ele><time>2026-03-29T12:38:02.535Z</time></trkpt><trkpt lat="40.4552849" lon="15.1288548"><ele>86.0</ele><time>2026-03-29T12:38:03.536Z</time></trkpt><trkpt lat="40.4553025" lon="15.1286973"><ele>85.25</ele><time>2026-03-29T12:38:04.523Z</time></trkpt><trkpt lat="40.4553224" lon="15.1285437"><ele>84.5</ele><time>2026-03-29T12:38:05.51Z</time></trkpt><trkpt lat="40.4553592" lon="15.1283823"><ele>83.75</ele><time>2026-03-29T12:38:06.511Z</time></trkpt><trkpt lat="40.455412" lon="15.1282037"><ele>83.0</ele><time>2026-03-29T12:38:07.531Z</time></trkpt><trkpt lat="40.4554778" lon="15.1280139"><ele>84.25</ele><time>2026-03-29T12:38:08.524Z</time></trkpt><trkpt lat="40.4555439" lon="15.1278261"><ele>85.5</ele><time>2026-03-29T12:38:09.544Z</time></trkpt><trkpt lat="40.4555962" lon="15.1276507"><ele>86.75</ele><time>2026-03-29T12:38:10.527Z</time></trkpt><trkpt lat="40.4556374" lon="15.1274667"><ele>88.0</ele><time>2026-03-29T12:38:11.535Z</time></trkpt><trkpt lat="40.4556774" lon="15.1272766"><ele>88.0</ele><time>2026-03-29T12:38:12.521Z</time></trkpt><trkpt lat="40.4557248" lon="15.1270602"><ele>88.0</ele><time>2026-03-29T12:38:13.538Z</time></trkpt><trkpt lat="40.4557718" lon="15.1268346"><ele>88.0</ele><time>2026-03-29T12:38:14.527Z</time></trkpt><trkpt lat="40.4558092" lon="15.1266256"><ele>86.66666666666666</ele><time>2026-03-29T12:38:15.516Z</time></trkpt><trkpt lat="40.455838" lon="15.126421"><ele>85.33333333333333</ele><time>2026-03-29T12:38:16.523Z</time></trkpt><trkpt lat="40.4558626" lon="15.1262135"><ele>84.0</ele><time>2026-03-29T12:38:17.55Z</time></trkpt><trkpt lat="40.4558798" lon="15.1260251"><ele>84.0</ele><time>2026-03-29T12:38:18.553Z</time></trkpt><trkpt lat="40.4558879" lon="15.1258534"><ele>84.0</ele><time>2026-03-29T12:38:19.516Z</time></trkpt><trkpt lat="40.455893" lon="15.1256917"><ele>84.0</ele><time>2026-03-29T12:38:20.531Z</time></trkpt><trkpt lat="40.4558951" lon="15.1255527"><ele>84.0</ele><time>2026-03-29T12:38:21.531Z</time></trkpt><trkpt lat="40.4558986" lon="15.1254222"><ele>83.16666666666667</ele><time>2026-03-29T12:38:22.517Z</time></trkpt><trkpt lat="40.4559017" lon="15.1253015"><ele>82.33333333333333</ele><time>2026-03-29T12:38:23.557Z</time></trkpt><trkpt lat="40.4558951" lon="15.1251961"><ele>81.5</ele><time>2026-03-29T12:38:24.553Z</time></trkpt><trkpt lat="40.4558702" lon="15.1251103"><ele>80.66666666666666</ele><time>2026-03-29T12:38:25.524Z</time></trkpt><trkpt lat="40.4558264" lon="15.1250407"><ele>79.83333333333333</ele><time>2026-03-29T12:38:26.54Z</time></trkpt><trkpt lat="40.4557074" lon="15.1249777"><ele>79.0</ele><time>2026-03-29T12:38:28.517Z</time></trkpt><trkpt lat="40.4556255" lon="15.1249659"><ele>79.0</ele><time>2026-03-29T12:38:29.54Z</time></trkpt><trkpt lat="40.4555317" lon="15.1249626"><ele>79.0</ele><time>2026-03-29T12:38:30.546Z</time></trkpt><trkpt lat="40.4554478" lon="15.1249601"><ele>79.0</ele><time>2026-03-29T12:38:31.528Z</time></trkpt><trkpt lat="40.4553717" lon="15.1249413"><ele>79.0</ele><time>2026-03-29T12:38:32.54Z</time></trkpt><trkpt lat="40.4553126" lon="15.1248976"><ele>79.0</ele><time>2026-03-29T12:38:33.518Z</time></trkpt><trkpt lat="40.4552675" lon="15.1248255"><ele>79.0</ele><time>2026-03-29T12:38:34.52Z</time></trkpt><trkpt lat="40.4552303" lon="15.1247139"><ele>79.0</ele><time>2026-03-29T12:38:35.517Z</time></trkpt><trkpt lat="40.4551968" lon="15.1245576"><ele>79.0</ele><time>2026-03-29T12:38:36.559Z</time></trkpt><trkpt lat="40.4551637" lon="15.1243977"><ele>79.0</ele><time>2026-03-29T12:38:37.526Z</time></trkpt><trkpt lat="40.4551254" lon="15.1242113"><ele>79.0</ele><time>2026-03-29T12:38:38.544Z</time></trkpt><trkpt lat="40.4550891" lon="15.1240228"><ele>78.0</ele><time>2026-03-29T12:38:39.542Z</time></trkpt><trkpt lat="40.4550523" lon="15.1238397"><ele>77.0</ele><time>2026-03-29T12:38:40.517Z</time></trkpt><trkpt lat="40.4550121" lon="15.1236462"><ele>76.0</ele><time>2026-03-29T12:38:41.547Z</time></trkpt><trkpt lat="40.4549794" lon="15.1234752"><ele>75.0</ele><time>2026-03-29T12:38:42.521Z</time></trkpt><trkpt lat="40.4549495" lon="15.1233092"><ele>74.5</ele><time>2026-03-29T12:38:43.526Z</time></trkpt><trkpt lat="40.4549258" lon="15.1231408"><ele>74.0</ele><time>2026-03-29T12:38:44.554Z</time></trkpt><trkpt lat="40.4549259" lon="15.1229702"><ele>73.5</ele><time>2026-03-29T12:38:45.518Z</time></trkpt><trkpt lat="40.4549513" lon="15.1227608"><ele>73.0</ele><time>2026-03-29T12:38:46.521Z</time></trkpt><trkpt lat="40.4549808" lon="15.1225555"><ele>73.0</ele><time>2026-03-29T12:38:47.479Z</time></trkpt><trkpt lat="40.4549994" lon="15.1223274"><ele>73.0</ele><time>2026-03-29T12:38:48.528Z</time></trkpt><trkpt lat="40.4550163" lon="15.122116"><ele>73.0</ele><time>2026-03-29T12:38:49.513Z</time></trkpt><trkpt lat="40.4550485" lon="15.1219125"><ele>73.0</ele><time>2026-03-29T12:38:50.521Z</time></trkpt><trkpt lat="40.45511" lon="15.1216967"><ele>73.0</ele><time>2026-03-29T12:38:51.521Z</time></trkpt><trkpt lat="40.4551826" lon="15.1214745"><ele>73.0</ele><time>2026-03-29T12:38:52.54Z</time></trkpt><trkpt lat="40.4552436" lon="15.1212601"><ele>73.0</ele><time>2026-03-29T12:38:53.53Z</time></trkpt><trkpt lat="40.4552916" lon="15.1210152"><ele>73.0</ele><time>2026-03-29T12:38:54.537Z</time></trkpt><trkpt lat="40.4553301" lon="15.1207581"><ele>73.0</ele><time>2026-03-29T12:38:55.562Z</time></trkpt><trkpt lat="40.4553661" lon="15.1204943"><ele>74.0</ele><time>2026-03-29T12:38:56.526Z</time></trkpt><trkpt lat="40.455403" lon="15.120215"><ele>75.0</ele><time>2026-03-29T12:38:57.52Z</time></trkpt><trkpt lat="40.4554421" lon="15.119907"><ele>71.0</ele><time>2026-03-29T12:38:58.623Z</time></trkpt><trkpt lat="40.4555067" lon="15.1193907"><ele>67.0</ele><time>2026-03-29T12:39:00.45Z</time></trkpt><trkpt lat="40.4555426" lon="15.1191039"><ele>65.5</ele><time>2026-03-29T12:39:01.419Z</time></trkpt><trkpt lat="40.4555795" lon="15.118804"><ele>64.0</ele><time>2026-03-29T12:39:02.413Z</time></trkpt><trkpt lat="40.4556182" lon="15.1184785"><ele>63.0</ele><time>2026-03-29T12:39:03.453Z</time></trkpt><trkpt lat="40.4556556" lon="15.1181689"><ele>62.0</ele><time>2026-03-29T12:39:04.45Z</time></trkpt><trkpt lat="40.4556891" lon="15.1178751"><ele>62.0</ele><time>2026-03-29T12:39:05.441Z</time></trkpt><trkpt lat="40.4557232" lon="15.1175814"><ele>62.0</ele><time>2026-03-29T12:39:06.454Z</time></trkpt><trkpt lat="40.4557586" lon="15.1172858"><ele>62.0</ele><time>2026-03-29T12:39:07.468Z</time></trkpt><trkpt lat="40.455793" lon="15.1169986"><ele>62.0</ele><time>2026-03-29T12:39:08.445Z</time></trkpt><trkpt lat="40.4558314" lon="15.1167031"><ele>62.0</ele><time>2026-03-29T12:39:09.439Z</time></trkpt><trkpt lat="40.4558716" lon="15.1164027"><ele>62.0</ele><time>2026-03-29T12:39:10.436Z</time></trkpt><trkpt lat="40.4559119" lon="15.1160919"><ele>62.0</ele><time>2026-03-29T12:39:11.457Z</time></trkpt><trkpt lat="40.4559514" lon="15.1157902"><ele>62.5</ele><time>2026-03-29T12:39:12.439Z</time></trkpt><trkpt lat="40.4559928" lon="15.1154771"><ele>63.0</ele><time>2026-03-29T12:39:13.455Z</time></trkpt><trkpt lat="40.4560326" lon="15.1151754"><ele>64.0</ele><time>2026-03-29T12:39:14.451Z</time></trkpt><trkpt lat="40.4560716" lon="15.1148685"><ele>65.0</ele><time>2026-03-29T12:39:15.468Z</time></trkpt><trkpt lat="40.4561077" lon="15.1145755"><ele>65.0</ele><time>2026-03-29T12:39:16.441Z</time></trkpt><trkpt lat="40.456145" lon="15.1142709"><ele>65.0</ele><time>2026-03-29T12:39:17.452Z</time></trkpt><trkpt lat="40.4561815" lon="15.1139717"><ele>65.5</ele><time>2026-03-29T12:39:18.445Z</time></trkpt><trkpt lat="40.4562174" lon="15.1136744"><ele>66.0</ele><time>2026-03-29T12:39:19.424Z</time></trkpt><trkpt lat="40.4562558" lon="15.113356"><ele>63.5</ele><time>2026-03-29T12:39:20.468Z</time></trkpt><trkpt lat="40.4562888" lon="15.1130783"><ele>61.0</ele><time>2026-03-29T12:39:21.418Z</time></trkpt><trkpt lat="40.4563281" lon="15.1127596"><ele>61.0</ele><time>2026-03-29T12:39:22.527Z</time></trkpt><trkpt lat="40.4563633" lon="15.1124931"><ele>61.0</ele><time>2026-03-29T12:39:23.445Z</time></trkpt><trkpt lat="40.4564047" lon="15.1121936"><ele>61.0</ele><time>2026-03-29T12:39:24.48Z</time></trkpt><trkpt lat="40.4564412" lon="15.1119265"><ele>62.0</ele><time>2026-03-29T12:39:25.46Z</time></trkpt><trkpt lat="40.4564738" lon="15.1116706"><ele>63.0</ele><time>2026-03-29T12:39:26.443Z</time></trkpt><trkpt lat="40.456505" lon="15.1114141"><ele>64.0</ele><time>2026-03-29T12:39:27.479Z</time></trkpt><trkpt lat="40.4565366" lon="15.1111801"><ele>65.0</ele><time>2026-03-29T12:39:28.429Z</time></trkpt><trkpt lat="40.4565739" lon="15.1109178"><ele>66.0</ele><time>2026-03-29T12:39:29.472Z</time></trkpt><trkpt lat="40.4566099" lon="15.1106608"><ele>67.0</ele><time>2026-03-29T12:39:30.456Z</time></trkpt><trkpt lat="40.4566447" lon="15.1104163"><ele>67.33333333333333</ele><time>2026-03-29T12:39:31.413Z</time></trkpt><trkpt lat="40.4566838" lon="15.1101663"><ele>67.66666666666667</ele><time>2026-03-29T12:39:32.454Z</time></trkpt><trkpt lat="40.4567227" lon="15.1099078"><ele>68.0</ele><time>2026-03-29T12:39:33.578Z</time></trkpt><trkpt lat="40.4567815" lon="15.1094604"><ele>68.0</ele><time>2026-03-29T12:39:35.463Z</time></trkpt><trkpt lat="40.4568133" lon="15.1092181"><ele>68.0</ele><time>2026-03-29T12:39:36.449Z</time></trkpt><trkpt lat="40.4568485" lon="15.1089694"><ele>68.0</ele><time>2026-03-29T12:39:37.441Z</time></trkpt><trkpt lat="40.4568869" lon="15.1087121"><ele>68.33333333333334</ele><time>2026-03-29T12:39:38.461Z</time></trkpt><trkpt lat="40.4569258" lon="15.1084565"><ele>68.66666666666667</ele><time>2026-03-29T12:39:39.469Z</time></trkpt><trkpt lat="40.4569613" lon="15.108212"><ele>69.0</ele><time>2026-03-29T12:39:40.431Z</time></trkpt><trkpt lat="40.4569944" lon="15.1079561"><ele>69.0</ele><time>2026-03-29T12:39:41.454Z</time></trkpt><trkpt lat="40.4570222" lon="15.1077241"><ele>69.0</ele><time>2026-03-29T12:39:42.429Z</time></trkpt><trkpt lat="40.4570567" lon="15.1074692"><ele>69.0</ele><time>2026-03-29T12:39:43.528Z</time></trkpt><trkpt lat="40.4570897" lon="15.1072422"><ele>66.66666666666667</ele><time>2026-03-29T12:39:44.453Z</time></trkpt><trkpt lat="40.4571236" lon="15.1069914"><ele>64.33333333333334</ele><time>2026-03-29T12:39:45.43Z</time></trkpt><trkpt lat="40.4571632" lon="15.1067213"><ele>62.0</ele><time>2026-03-29T12:39:46.445Z</time></trkpt><trkpt lat="40.4572114" lon="15.1064462"><ele>62.0</ele><time>2026-03-29T12:39:47.45Z</time></trkpt><trkpt lat="40.4572715" lon="15.1061464"><ele>62.0</ele><time>2026-03-29T12:39:48.514Z</time></trkpt><trkpt lat="40.4573295" lon="15.1058869"><ele>62.0</ele><time>2026-03-29T12:39:49.449Z</time></trkpt><trkpt lat="40.4573964" lon="15.1056299"><ele>63.333333333333336</ele><time>2026-03-29T12:39:50.447Z</time></trkpt><trkpt lat="40.4574645" lon="15.1053829"><ele>64.66666666666667</ele><time>2026-03-29T12:39:51.484Z</time></trkpt><trkpt lat="40.4575239" lon="15.105165"><ele>66.0</ele><time>2026-03-29T12:39:52.435Z</time></trkpt><trkpt lat="40.4575817" lon="15.1049348"><ele>67.0</ele><time>2026-03-29T12:39:53.446Z</time></trkpt><trkpt lat="40.457634" lon="15.1046923"><ele>68.0</ele><time>2026-03-29T12:39:54.455Z</time></trkpt><trkpt lat="40.4576842" lon="15.1044422"><ele>69.0</ele><time>2026-03-29T12:39:55.44Z</time></trkpt><trkpt lat="40.4577356" lon="15.104182"><ele>68.66666666666667</ele><time>2026-03-29T12:39:56.449Z</time></trkpt><trkpt lat="40.4577921" lon="15.1039049"><ele>68.33333333333334</ele><time>2026-03-29T12:39:57.498Z</time></trkpt><trkpt lat="40.457848" lon="15.1036621"><ele>68.0</ele><time>2026-03-29T12:39:58.447Z</time></trkpt><trkpt lat="40.457912" lon="15.1034162"><ele>66.33333333333334</ele><time>2026-03-29T12:39:59.468Z</time></trkpt><trkpt lat="40.457981" lon="15.1031834"><ele>64.66666666666667</ele><time>2026-03-29T12:40:00.454Z</time></trkpt><trkpt lat="40.4580713" lon="15.1029257"><ele>63.0</ele><time>2026-03-29T12:40:01.54Z</time></trkpt><trkpt lat="40.4581538" lon="15.102706"><ele>63.0</ele><time>2026-03-29T12:40:02.465Z</time></trkpt><trkpt lat="40.4582425" lon="15.1024749"><ele>63.0</ele><time>2026-03-29T12:40:03.454Z</time></trkpt><trkpt lat="40.4583345" lon="15.1022371"><ele>63.0</ele><time>2026-03-29T12:40:04.487Z</time></trkpt><trkpt lat="40.4584196" lon="15.1020265"><ele>64.0</ele><time>2026-03-29T12:40:05.452Z</time></trkpt><trkpt lat="40.4585088" lon="15.1018074"><ele>65.0</ele><time>2026-03-29T12:40:06.459Z</time></trkpt><trkpt lat="40.4585978" lon="15.1015834"><ele>66.0</ele><time>2026-03-29T12:40:07.49Z</time></trkpt><trkpt lat="40.4586836" lon="15.1013689"><ele>65.33333333333333</ele><time>2026-03-29T12:40:08.454Z</time></trkpt><trkpt lat="40.4587818" lon="15.1011386"><ele>64.66666666666666</ele><time>2026-03-29T12:40:09.444Z</time></trkpt><trkpt lat="40.4588892" lon="15.1008989"><ele>64.0</ele><time>2026-03-29T12:40:10.487Z</time></trkpt><trkpt lat="40.4589889" lon="15.1006901"><ele>64.0</ele><time>2026-03-29T12:40:11.458Z</time></trkpt><trkpt lat="40.4590858" lon="15.1004966"><ele>64.0</ele><time>2026-03-29T12:40:12.443Z</time></trkpt><trkpt lat="40.4591787" lon="15.1003115"><ele>64.0</ele><time>2026-03-29T12:40:13.456Z</time></trkpt><trkpt lat="40.4592633" lon="15.1001332"><ele>64.0</ele><time>2026-03-29T12:40:14.465Z</time></trkpt><trkpt lat="40.4593437" lon="15.099967"><ele>64.0</ele><time>2026-03-29T12:40:15.457Z</time></trkpt><trkpt lat="40.4594248" lon="15.0997857"><ele>64.0</ele><time>2026-03-29T12:40:16.471Z</time></trkpt><trkpt lat="40.4595009" lon="15.0995792"><ele>63.0</ele><time>2026-03-29T12:40:17.472Z</time></trkpt><trkpt lat="40.4595746" lon="15.0993543"><ele>62.0</ele><time>2026-03-29T12:40:18.439Z</time></trkpt><trkpt lat="40.4596536" lon="15.0990963"><ele>61.0</ele><time>2026-03-29T12:40:19.456Z</time></trkpt><trkpt lat="40.4597423" lon="15.0988138"><ele>59.0</ele><time>2026-03-29T12:40:20.47Z</time></trkpt><trkpt lat="40.45985" lon="15.0984902"><ele>57.0</ele><time>2026-03-29T12:40:21.54Z</time></trkpt><trkpt lat="40.4599506" lon="15.0981847"><ele>57.0</ele><time>2026-03-29T12:40:22.46Z</time></trkpt><trkpt lat="40.4600649" lon="15.0978413"><ele>57.0</ele><time>2026-03-29T12:40:23.483Z</time></trkpt><trkpt lat="40.4601646" lon="15.0975352"><ele>57.0</ele><time>2026-03-29T12:40:24.458Z</time></trkpt><trkpt lat="40.4602565" lon="15.0972646"><ele>57.0</ele><time>2026-03-29T12:40:25.452Z</time></trkpt><trkpt lat="40.4603228" lon="15.0970486"><ele>57.0</ele><time>2026-03-29T12:40:26.456Z</time></trkpt><trkpt lat="40.4604001" lon="15.096804"><ele>55.0</ele><time>2026-03-29T12:40:27.444Z</time></trkpt><trkpt lat="40.4604795" lon="15.0965514"><ele>53.0</ele><time>2026-03-29T12:40:28.474Z</time></trkpt><trkpt lat="40.4605619" lon="15.0962901"><ele>51.0</ele><time>2026-03-29T12:40:29.568Z</time></trkpt><trkpt lat="40.4607061" lon="15.0958494"><ele>51.0</ele><time>2026-03-29T12:40:31.482Z</time></trkpt><trkpt lat="40.4607811" lon="15.0956191"><ele>51.0</ele><time>2026-03-29T12:40:32.475Z</time></trkpt><trkpt lat="40.460856" lon="15.0953885"><ele>51.0</ele><time>2026-03-29T12:40:33.454Z</time></trkpt><trkpt lat="40.4609389" lon="15.0951313"><ele>51.66666666666667</ele><time>2026-03-29T12:40:34.55Z</time></trkpt><trkpt lat="40.4610066" lon="15.0949146"><ele>52.333333333333336</ele><time>2026-03-29T12:40:35.458Z</time></trkpt><trkpt lat="40.4610825" lon="15.0946751"><ele>53.0</ele><time>2026-03-29T12:40:36.444Z</time></trkpt><trkpt lat="40.4611621" lon="15.0944297"><ele>53.0</ele><time>2026-03-29T12:40:37.448Z</time></trkpt><trkpt lat="40.4612411" lon="15.0941859"><ele>53.0</ele><time>2026-03-29T12:40:38.453Z</time></trkpt><trkpt lat="40.4613165" lon="15.0939477"><ele>53.0</ele><time>2026-03-29T12:40:39.477Z</time></trkpt><trkpt lat="40.4613898" lon="15.0937208"><ele>53.0</ele><time>2026-03-29T12:40:40.465Z</time></trkpt><trkpt lat="40.4614662" lon="15.0934889"><ele>53.0</ele><time>2026-03-29T12:40:41.483Z</time></trkpt><trkpt lat="40.4615342" lon="15.0932652"><ele>53.0</ele><time>2026-03-29T12:40:42.435Z</time></trkpt><trkpt lat="40.4616106" lon="15.0930175"><ele>52.333333333333336</ele><time>2026-03-29T12:40:43.459Z</time></trkpt><trkpt lat="40.4616871" lon="15.0927724"><ele>51.66666666666667</ele><time>2026-03-29T12:40:44.438Z</time></trkpt><trkpt lat="40.4617661" lon="15.0925242"><ele>51.0</ele><time>2026-03-29T12:40:45.473Z</time></trkpt><trkpt lat="40.4618372" lon="15.0923021"><ele>50.66666666666667</ele><time>2026-03-29T12:40:46.446Z</time></trkpt><trkpt lat="40.4619082" lon="15.0920811"><ele>50.333333333333336</ele><time>2026-03-29T12:40:47.45Z</time></trkpt><trkpt lat="40.4619808" lon="15.0918647"><ele>50.0</ele><time>2026-03-29T12:40:48.494Z</time></trkpt><trkpt lat="40.4620485" lon="15.0916659"><ele>50.333333333333336</ele><time>2026-03-29T12:40:49.506Z</time></trkpt><trkpt lat="40.4621137" lon="15.0914691"><ele>50.66666666666667</ele><time>2026-03-29T12:40:50.541Z</time></trkpt><trkpt lat="40.4621667" lon="15.0912786"><ele>51.0</ele><time>2026-03-29T12:40:51.519Z</time></trkpt><trkpt lat="40.4622054" lon="15.0910761"><ele>51.33333333333333</ele><time>2026-03-29T12:40:52.542Z</time></trkpt><trkpt lat="40.4622232" lon="15.0908745"><ele>51.666666666666664</ele><time>2026-03-29T12:40:53.511Z</time></trkpt><trkpt lat="40.4622195" lon="15.090646"><ele>52.0</ele><time>2026-03-29T12:40:54.531Z</time></trkpt><trkpt lat="40.4622044" lon="15.0904168"><ele>53.666666666666664</ele><time>2026-03-29T12:40:55.507Z</time></trkpt><trkpt lat="40.4621894" lon="15.0901922"><ele>55.33333333333333</ele><time>2026-03-29T12:40:56.44Z</time></trkpt><trkpt lat="40.4621769" lon="15.0899544"><ele>57.0</ele><time>2026-03-29T12:40:57.476Z</time></trkpt><trkpt lat="40.4621738" lon="15.0897282"><ele>56.66666666666667</ele><time>2026-03-29T12:40:58.447Z</time></trkpt><trkpt lat="40.4621786" lon="15.089482"><ele>56.333333333333336</ele><time>2026-03-29T12:40:59.474Z</time></trkpt><trkpt lat="40.4621902" lon="15.0892275"><ele>56.0</ele><time>2026-03-29T12:41:00.469Z</time></trkpt><trkpt lat="40.4622034" lon="15.088955"><ele>56.0</ele><time>2026-03-29T12:41:01.458Z</time></trkpt><trkpt lat="40.4622173" lon="15.0886844"><ele>56.0</ele><time>2026-03-29T12:41:02.454Z</time></trkpt><trkpt lat="40.4622354" lon="15.0884202"><ele>56.0</ele><time>2026-03-29T12:41:03.468Z</time></trkpt><trkpt lat="40.4622514" lon="15.0881745"><ele>55.333333333333336</ele><time>2026-03-29T12:41:04.46Z</time></trkpt><trkpt lat="40.4622669" lon="15.0879296"><ele>54.66666666666667</ele><time>2026-03-29T12:41:05.463Z</time></trkpt><trkpt lat="40.4622772" lon="15.0876942"><ele>54.0</ele><time>2026-03-29T12:41:06.486Z</time></trkpt><trkpt lat="40.4622867" lon="15.0874842"><ele>53.66666666666667</ele><time>2026-03-29T12:41:07.447Z</time></trkpt><trkpt lat="40.4623013" lon="15.0872631"><ele>53.333333333333336</ele><time>2026-03-29T12:41:08.468Z</time></trkpt><trkpt lat="40.4623183" lon="15.0870411"><ele>53.0</ele><time>2026-03-29T12:41:09.459Z</time></trkpt><trkpt lat="40.4623336" lon="15.0868152"><ele>53.0</ele><time>2026-03-29T12:41:10.447Z</time></trkpt><trkpt lat="40.4623497" lon="15.0865769"><ele>53.0</ele><time>2026-03-29T12:41:11.454Z</time></trkpt><trkpt lat="40.4623673" lon="15.0863329"><ele>53.0</ele><time>2026-03-29T12:41:12.454Z</time></trkpt><trkpt lat="40.4623865" lon="15.0860766"><ele>53.0</ele><time>2026-03-29T12:41:13.472Z</time></trkpt><trkpt lat="40.4624036" lon="15.0858222"><ele>53.0</ele><time>2026-03-29T12:41:14.456Z</time></trkpt><trkpt lat="40.4624197" lon="15.0855711"><ele>53.0</ele><time>2026-03-29T12:41:15.444Z</time></trkpt><trkpt lat="40.4624354" lon="15.0852944"><ele>52.66666666666667</ele><time>2026-03-29T12:41:16.605Z</time></trkpt><trkpt lat="40.4624469" lon="15.0850795"><ele>52.33333333333333</ele><time>2026-03-29T12:41:17.553Z</time></trkpt><trkpt lat="40.4624545" lon="15.0848773"><ele>52.0</ele><time>2026-03-29T12:41:18.472Z</time></trkpt><trkpt lat="40.4624526" lon="15.0846622"><ele>53.0</ele><time>2026-03-29T12:41:19.447Z</time></trkpt><trkpt lat="40.462437" lon="15.0844308"><ele>54.0</ele><time>2026-03-29T12:41:20.491Z</time></trkpt><trkpt lat="40.4624059" lon="15.0841987"><ele>55.0</ele><time>2026-03-29T12:41:21.478Z</time></trkpt><trkpt lat="40.4623648" lon="15.0839547"><ele>55.0</ele><time>2026-03-29T12:41:22.455Z</time></trkpt><trkpt lat="40.4623201" lon="15.0836965"><ele>55.0</ele><time>2026-03-29T12:41:23.462Z</time></trkpt><trkpt lat="40.4622737" lon="15.0834353"><ele>55.0</ele><time>2026-03-29T12:41:24.452Z</time></trkpt><trkpt lat="40.4622269" lon="15.0831696"><ele>54.33333333333333</ele><time>2026-03-29T12:41:25.464Z</time></trkpt><trkpt lat="40.4621839" lon="15.0829227"><ele>53.66666666666667</ele><time>2026-03-29T12:41:26.463Z</time></trkpt><trkpt lat="40.4621487" lon="15.0827118"><ele>53.0</ele><time>2026-03-29T12:41:27.462Z</time></trkpt><trkpt lat="40.4621121" lon="15.0824958"><ele>52.66666666666667</ele><time>2026-03-29T12:41:28.46Z</time></trkpt><trkpt lat="40.4620759" lon="15.082287"><ele>52.33333333333333</ele><time>2026-03-29T12:41:29.47Z</time></trkpt><trkpt lat="40.4620414" lon="15.0820886"><ele>52.0</ele><time>2026-03-29T12:41:30.469Z</time></trkpt><trkpt lat="40.4620099" lon="15.0819001"><ele>52.0</ele><time>2026-03-29T12:41:31.442Z</time></trkpt><trkpt lat="40.4619748" lon="15.0816905"><ele>52.0</ele><time>2026-03-29T12:41:32.487Z</time></trkpt><trkpt lat="40.4619395" lon="15.0814865"><ele>52.0</ele><time>2026-03-29T12:41:33.464Z</time></trkpt><trkpt lat="40.4618961" lon="15.0812433"><ele>52.666666666666664</ele><time>2026-03-29T12:41:34.57Z</time></trkpt><trkpt lat="40.4618599" lon="15.0810292"><ele>53.33333333333333</ele><time>2026-03-29T12:41:35.473Z</time></trkpt><trkpt lat="40.4618182" lon="15.080773"><ele>54.0</ele><time>2026-03-29T12:41:36.487Z</time></trkpt><trkpt lat="40.4617775" lon="15.0805239"><ele>54.0</ele><time>2026-03-29T12:41:37.45Z</time></trkpt><trkpt lat="40.4617298" lon="15.0802419"><ele>54.0</ele><time>2026-03-29T12:41:38.489Z</time></trkpt><trkpt lat="40.4616821" lon="15.0799657"><ele>54.0</ele><time>2026-03-29T12:41:39.453Z</time></trkpt><trkpt lat="40.4616318" lon="15.0796655"><ele>54.0</ele><time>2026-03-29T12:41:40.461Z</time></trkpt><trkpt lat="40.4615807" lon="15.0793589"><ele>54.0</ele><time>2026-03-29T12:41:41.476Z</time></trkpt><trkpt lat="40.4615286" lon="15.0790517"><ele>53.5</ele><time>2026-03-29T12:41:42.463Z</time></trkpt><trkpt lat="40.4614724" lon="15.0787221"><ele>53.0</ele><time>2026-03-29T12:41:43.481Z</time></trkpt><trkpt lat="40.4614184" lon="15.0783996"><ele>52.5</ele><time>2026-03-29T12:41:44.448Z</time></trkpt><trkpt lat="40.4613614" lon="15.0780605"><ele>52.0</ele><time>2026-03-29T12:41:45.448Z</time></trkpt><trkpt lat="40.4613035" lon="15.0777223"><ele>52.5</ele><time>2026-03-29T12:41:46.448Z</time></trkpt><trkpt lat="40.4612442" lon="15.0773737"><ele>53.0</ele><time>2026-03-29T12:41:47.477Z</time></trkpt><trkpt lat="40.4611909" lon="15.0770553"><ele>53.0</ele><time>2026-03-29T12:41:48.452Z</time></trkpt><trkpt lat="40.461135" lon="15.076722"><ele>53.0</ele><time>2026-03-29T12:41:49.489Z</time></trkpt><trkpt lat="40.4610826" lon="15.0764033"><ele>54.0</ele><time>2026-03-29T12:41:50.48Z</time></trkpt><trkpt lat="40.4610322" lon="15.0760975"><ele>55.0</ele><time>2026-03-29T12:41:51.446Z</time></trkpt><trkpt lat="40.4609779" lon="15.0757812"><ele>55.0</ele><time>2026-03-29T12:41:52.462Z</time></trkpt><trkpt lat="40.4609244" lon="15.0754679"><ele>55.0</ele><time>2026-03-29T12:41:53.465Z</time></trkpt><trkpt lat="40.4608715" lon="15.0751587"><ele>54.0</ele><time>2026-03-29T12:41:54.45Z</time></trkpt><trkpt lat="40.4608165" lon="15.0748402"><ele>53.0</ele><time>2026-03-29T12:41:55.46Z</time></trkpt><trkpt lat="40.4607632" lon="15.0745288"><ele>53.0</ele><time>2026-03-29T12:41:56.437Z</time></trkpt><trkpt lat="40.4607077" lon="15.0741963"><ele>53.0</ele><time>2026-03-29T12:41:57.476Z</time></trkpt><trkpt lat="40.4606549" lon="15.0738804"><ele>53.5</ele><time>2026-03-29T12:41:58.463Z</time></trkpt><trkpt lat="40.4605993" lon="15.0735544"><ele>54.0</ele><time>2026-03-29T12:41:59.492Z</time></trkpt><trkpt lat="40.4605485" lon="15.0732516"><ele>54.5</ele><time>2026-03-29T12:42:00.453Z</time></trkpt><trkpt lat="40.4604956" lon="15.0729369"><ele>55.0</ele><time>2026-03-29T12:42:01.458Z</time></trkpt><trkpt lat="40.4604419" lon="15.0726303"><ele>55.33333333333333</ele><time>2026-03-29T12:42:02.46Z</time></trkpt><trkpt lat="40.4603922" lon="15.0723361"><ele>55.66666666666667</ele><time>2026-03-29T12:42:03.477Z</time></trkpt><trkpt lat="40.4603494" lon="15.0720643"><ele>56.0</ele><time>2026-03-29T12:42:04.457Z</time></trkpt><trkpt lat="40.4603057" lon="15.0717885"><ele>56.0</ele><time>2026-03-29T12:42:05.467Z</time></trkpt><trkpt lat="40.4602601" lon="15.0715201"><ele>56.0</ele><time>2026-03-29T12:42:06.457Z</time></trkpt><trkpt lat="40.4602099" lon="15.0712362"><ele>56.0</ele><time>2026-03-29T12:42:07.482Z</time></trkpt><trkpt lat="40.4601607" lon="15.0709466"><ele>55.5</ele><time>2026-03-29T12:42:08.475Z</time></trkpt><trkpt lat="40.4601085" lon="15.0706395"><ele>55.0</ele><time>2026-03-29T12:42:09.457Z</time></trkpt><trkpt lat="40.4600494" lon="15.0702995"><ele>55.0</ele><time>2026-03-29T12:42:10.484Z</time></trkpt><trkpt lat="40.459987" lon="15.0699348"><ele>55.0</ele><time>2026-03-29T12:42:11.59Z</time></trkpt><trkpt lat="40.4598908" lon="15.0693621"><ele>54.5</ele><time>2026-03-29T12:42:13.485Z</time></trkpt><trkpt lat="40.4598439" lon="15.0690802"><ele>54.0</ele><time>2026-03-29T12:42:14.45Z</time></trkpt><trkpt lat="40.4597943" lon="15.0687841"><ele>54.0</ele><time>2026-03-29T12:42:15.462Z</time></trkpt><trkpt lat="40.4597489" lon="15.0684966"><ele>54.0</ele><time>2026-03-29T12:42:16.457Z</time></trkpt><trkpt lat="40.4597049" lon="15.0682112"><ele>54.0</ele><time>2026-03-29T12:42:17.453Z</time></trkpt><trkpt lat="40.4596636" lon="15.0679228"><ele>54.33333333333333</ele><time>2026-03-29T12:42:18.466Z</time></trkpt><trkpt lat="40.4596289" lon="15.06763"><ele>54.666666666666664</ele><time>2026-03-29T12:42:19.493Z</time></trkpt><trkpt lat="40.4596023" lon="15.0673446"><ele>55.0</ele><time>2026-03-29T12:42:20.461Z</time></trkpt><trkpt lat="40.4595785" lon="15.0670331"><ele>55.33333333333333</ele><time>2026-03-29T12:42:21.462Z</time></trkpt><trkpt lat="40.459558" lon="15.0667215"><ele>55.66666666666667</ele><time>2026-03-29T12:42:22.485Z</time></trkpt><trkpt lat="40.4595455" lon="15.06645"><ele>56.0</ele><time>2026-03-29T12:42:23.466Z</time></trkpt><trkpt lat="40.4595427" lon="15.0661688"><ele>56.0</ele><time>2026-03-29T12:42:24.498Z</time></trkpt><trkpt lat="40.4595449" lon="15.0659033"><ele>56.0</ele><time>2026-03-29T12:42:25.456Z</time></trkpt><trkpt lat="40.4595418" lon="15.0656171"><ele>56.0</ele><time>2026-03-29T12:42:26.459Z</time></trkpt><trkpt lat="40.4595376" lon="15.0653482"><ele>56.333333333333336</ele><time>2026-03-29T12:42:27.428Z</time></trkpt><trkpt lat="40.4595365" lon="15.0650686"><ele>56.66666666666667</ele><time>2026-03-29T12:42:28.467Z</time></trkpt><trkpt lat="40.4595324" lon="15.0647976"><ele>57.0</ele><time>2026-03-29T12:42:29.47Z</time></trkpt><trkpt lat="40.4595235" lon="15.0645301"><ele>57.0</ele><time>2026-03-29T12:42:30.454Z</time></trkpt><trkpt lat="40.4595093" lon="15.0642544"><ele>57.0</ele><time>2026-03-29T12:42:31.452Z</time></trkpt><trkpt lat="40.4594865" lon="15.0639398"><ele>56.5</ele><time>2026-03-29T12:42:32.558Z</time></trkpt><trkpt lat="40.4594656" lon="15.0636632"><ele>56.0</ele><time>2026-03-29T12:42:33.473Z</time></trkpt><trkpt lat="40.4594417" lon="15.0633455"><ele>56.0</ele><time>2026-03-29T12:42:34.473Z</time></trkpt><trkpt lat="40.4594135" lon="15.0630273"><ele>56.0</ele><time>2026-03-29T12:42:35.439Z</time></trkpt><trkpt lat="40.4593819" lon="15.0626847"><ele>56.0</ele><time>2026-03-29T12:42:36.438Z</time></trkpt><trkpt lat="40.4593513" lon="15.0623538"><ele>56.0</ele><time>2026-03-29T12:42:37.426Z</time></trkpt><trkpt lat="40.4593214" lon="15.0620211"><ele>56.0</ele><time>2026-03-29T12:42:38.466Z</time></trkpt><trkpt lat="40.4592939" lon="15.0617101"><ele>56.0</ele><time>2026-03-29T12:42:39.456Z</time></trkpt><trkpt lat="40.4592658" lon="15.0614062"><ele>56.0</ele><time>2026-03-29T12:42:40.456Z</time></trkpt><trkpt lat="40.4592376" lon="15.0611072"><ele>56.0</ele><time>2026-03-29T12:42:41.458Z</time></trkpt><trkpt lat="40.4592092" lon="15.0608095"><ele>56.0</ele><time>2026-03-29T12:42:42.444Z</time></trkpt><trkpt lat="40.4591784" lon="15.0604926"><ele>56.0</ele><time>2026-03-29T12:42:43.463Z</time></trkpt><trkpt lat="40.4591477" lon="15.060168"><ele>56.5</ele><time>2026-03-29T12:42:44.463Z</time></trkpt><trkpt lat="40.4591184" lon="15.0598469"><ele>57.0</ele><time>2026-03-29T12:42:45.447Z</time></trkpt><trkpt lat="40.4590868" lon="15.0594789"><ele>57.0</ele><time>2026-03-29T12:42:46.594Z</time></trkpt><trkpt lat="40.4590275" lon="15.0588747"><ele>57.0</ele><time>2026-03-29T12:42:48.467Z</time></trkpt><trkpt lat="40.4589995" lon="15.0585558"><ele>57.0</ele><time>2026-03-29T12:42:49.434Z</time></trkpt><trkpt lat="40.45897" lon="15.0582292"><ele>57.0</ele><time>2026-03-29T12:42:50.465Z</time></trkpt><trkpt lat="40.4589412" lon="15.0579196"><ele>57.0</ele><time>2026-03-29T12:42:51.461Z</time></trkpt><trkpt lat="40.4589119" lon="15.0576085"><ele>57.5</ele><time>2026-03-29T12:42:52.463Z</time></trkpt><trkpt lat="40.4588829" lon="15.0573051"><ele>58.0</ele><time>2026-03-29T12:42:53.456Z</time></trkpt><trkpt lat="40.458854" lon="15.0570121"><ele>58.0</ele><time>2026-03-29T12:42:54.47Z</time></trkpt><trkpt lat="40.4588295" lon="15.0567354"><ele>58.0</ele><time>2026-03-29T12:42:55.471Z</time></trkpt><trkpt lat="40.4588056" lon="15.0564733"><ele>58.0</ele><time>2026-03-29T12:42:56.452Z</time></trkpt><trkpt lat="40.4587774" lon="15.0562007"><ele>57.666666666666664</ele><time>2026-03-29T12:42:57.498Z</time></trkpt><trkpt lat="40.4587544" lon="15.0559519"><ele>57.33333333333333</ele><time>2026-03-29T12:42:58.465Z</time></trkpt><trkpt lat="40.4587311" lon="15.055702"><ele>57.0</ele><time>2026-03-29T12:42:59.458Z</time></trkpt><trkpt lat="40.4587076" lon="15.05546"><ele>57.0</ele><time>2026-03-29T12:43:00.464Z</time></trkpt><trkpt lat="40.4586847" lon="15.0552317"><ele>57.0</ele><time>2026-03-29T12:43:01.462Z</time></trkpt><trkpt lat="40.4586621" lon="15.0550118"><ele>57.0</ele><time>2026-03-29T12:43:02.468Z</time></trkpt><trkpt lat="40.4586366" lon="15.0547811"><ele>57.0</ele><time>2026-03-29T12:43:03.561Z</time></trkpt><trkpt lat="40.458608" lon="15.0545878"><ele>57.0</ele><time>2026-03-29T12:43:04.475Z</time></trkpt><trkpt lat="40.4585625" lon="15.0543782"><ele>57.0</ele><time>2026-03-29T12:43:05.482Z</time></trkpt><trkpt lat="40.4585038" lon="15.0541862"><ele>56.66666666666667</ele><time>2026-03-29T12:43:06.445Z</time></trkpt><trkpt lat="40.4584273" lon="15.0539854"><ele>56.333333333333336</ele><time>2026-03-29T12:43:07.46Z</time></trkpt><trkpt lat="40.4583473" lon="15.0537951"><ele>56.0</ele><time>2026-03-29T12:43:08.455Z</time></trkpt><trkpt lat="40.4582657" lon="15.0535896"><ele>56.0</ele><time>2026-03-29T12:43:09.538Z</time></trkpt><trkpt lat="40.4582019" lon="15.0534113"><ele>56.0</ele><time>2026-03-29T12:43:10.455Z</time></trkpt><trkpt lat="40.4581413" lon="15.0532124"><ele>56.0</ele><time>2026-03-29T12:43:11.46Z</time></trkpt><trkpt lat="40.4580909" lon="15.0530061"><ele>56.0</ele><time>2026-03-29T12:43:12.469Z</time></trkpt><trkpt lat="40.4580439" lon="15.0527766"><ele>56.0</ele><time>2026-03-29T12:43:13.555Z</time></trkpt><trkpt lat="40.4579748" lon="15.0523618"><ele>56.66666666666667</ele><time>2026-03-29T12:43:15.458Z</time></trkpt><trkpt lat="40.4579472" lon="15.0521338"><ele>57.33333333333333</ele><time>2026-03-29T12:43:16.471Z</time></trkpt><trkpt lat="40.457921" lon="15.0519107"><ele>58.0</ele><time>2026-03-29T12:43:17.442Z</time></trkpt><trkpt lat="40.4578923" lon="15.0516721"><ele>57.666666666666664</ele><time>2026-03-29T12:43:18.467Z</time></trkpt><trkpt lat="40.457863" lon="15.0514383"><ele>57.33333333333333</ele><time>2026-03-29T12:43:19.46Z</time></trkpt><trkpt lat="40.4578283" lon="15.0511734"><ele>57.0</ele><time>2026-03-29T12:43:20.585Z</time></trkpt><trkpt lat="40.4577675" lon="15.0507309"><ele>56.0</ele><time>2026-03-29T12:43:22.461Z</time></trkpt><trkpt lat="40.4577381" lon="15.0505064"><ele>55.0</ele><time>2026-03-29T12:43:23.461Z</time></trkpt><trkpt lat="40.4577104" lon="15.0502926"><ele>54.0</ele><time>2026-03-29T12:43:24.448Z</time></trkpt><trkpt lat="40.45768" lon="15.0500477"><ele>53.5</ele><time>2026-03-29T12:43:25.57Z</time></trkpt><trkpt lat="40.4576516" lon="15.0498293"><ele>53.0</ele><time>2026-03-29T12:43:26.564Z</time></trkpt><trkpt lat="40.4575961" lon="15.0494321"><ele>53.0</ele><time>2026-03-29T12:43:28.466Z</time></trkpt><trkpt lat="40.4575661" lon="15.0492272"><ele>53.0</ele><time>2026-03-29T12:43:29.45Z</time></trkpt><trkpt lat="40.457535" lon="15.0490158"><ele>53.0</ele><time>2026-03-29T12:43:30.455Z</time></trkpt><trkpt lat="40.4575021" lon="15.0488022"><ele>52.0</ele><time>2026-03-29T12:43:31.469Z</time></trkpt><trkpt lat="40.4574685" lon="15.0485954"><ele>51.0</ele><time>2026-03-29T12:43:32.456Z</time></trkpt><trkpt lat="40.4574344" lon="15.0483913"><ele>50.0</ele><time>2026-03-29T12:43:33.48Z</time></trkpt><trkpt lat="40.4574017" lon="15.0482022"><ele>49.25</ele><time>2026-03-29T12:43:34.469Z</time></trkpt><trkpt lat="40.4573677" lon="15.0480109"><ele>48.5</ele><time>2026-03-29T12:43:35.512Z</time></trkpt><trkpt lat="40.4573392" lon="15.0478424"><ele>47.75</ele><time>2026-03-29T12:43:36.461Z</time></trkpt><trkpt lat="40.4573099" lon="15.0476625"><ele>47.0</ele><time>2026-03-29T12:43:37.515Z</time></trkpt><trkpt lat="40.4572818" lon="15.0475043"><ele>46.8</ele><time>2026-03-29T12:43:38.488Z</time></trkpt><trkpt lat="40.4572548" lon="15.0473543"><ele>46.6</ele><time>2026-03-29T12:43:39.478Z</time></trkpt><trkpt lat="40.4572318" lon="15.0472222"><ele>46.4</ele><time>2026-03-29T12:43:40.467Z</time></trkpt><trkpt lat="40.4572143" lon="15.0471078"><ele>46.199999999999996</ele><time>2026-03-29T12:43:41.524Z</time></trkpt><trkpt lat="40.4572034" lon="15.0469874"><ele>46.0</ele><time>2026-03-29T12:43:43.458Z</time></trkpt><trkpt lat="40.4572201" lon="15.0468649"><ele>46.0</ele><time>2026-03-29T12:44:16.453Z</time></trkpt><trkpt lat="40.4573776" lon="15.0467053"><ele>46.0</ele><time>2026-03-29T12:44:19.442Z</time></trkpt><trkpt lat="40.4574461" lon="15.0466464"><ele>46.0</ele><time>2026-03-29T12:44:20.434Z</time></trkpt><trkpt lat="40.4575192" lon="15.0465778"><ele>46.0</ele><time>2026-03-29T12:44:21.458Z</time></trkpt><trkpt lat="40.4575835" lon="15.0465174"><ele>46.0</ele><time>2026-03-29T12:44:22.451Z</time></trkpt><trkpt lat="40.4576465" lon="15.0464615"><ele>46.0</ele><time>2026-03-29T12:44:23.431Z</time></trkpt><trkpt lat="40.4577193" lon="15.0463989"><ele>46.0</ele><time>2026-03-29T12:44:24.429Z</time></trkpt><trkpt lat="40.457805" lon="15.0463266"><ele>46.0</ele><time>2026-03-29T12:44:25.452Z</time></trkpt><trkpt lat="40.4579051" lon="15.0462611"><ele>46.0</ele><time>2026-03-29T12:44:26.469Z</time></trkpt><trkpt lat="40.4580136" lon="15.046204"><ele>45.5</ele><time>2026-03-29T12:44:27.465Z</time></trkpt><trkpt lat="40.4581452" lon="15.0461495"><ele>45.0</ele><time>2026-03-29T12:44:28.557Z</time></trkpt><trkpt lat="40.4582639" lon="15.0461063"><ele>44.5</ele><time>2026-03-29T12:44:29.469Z</time></trkpt><trkpt lat="40.4583936" lon="15.0460668"><ele>44.0</ele><time>2026-03-29T12:44:30.469Z</time></trkpt><trkpt lat="40.4585345" lon="15.0460274"><ele>44.0</ele><time>2026-03-29T12:44:31.494Z</time></trkpt><trkpt lat="40.4586731" lon="15.0459913"><ele>44.0</ele><time>2026-03-29T12:44:32.451Z</time></trkpt><trkpt lat="40.4588223" lon="15.0459552"><ele>44.0</ele><time>2026-03-29T12:44:33.44Z</time></trkpt><trkpt lat="40.4589778" lon="15.0459187"><ele>44.0</ele><time>2026-03-29T12:44:34.44Z</time></trkpt><trkpt lat="40.4591402" lon="15.0458809"><ele>44.0</ele><time>2026-03-29T12:44:35.49Z</time></trkpt><trkpt lat="40.4592864" lon="15.0458448"><ele>44.0</ele><time>2026-03-29T12:44:36.462Z</time></trkpt><trkpt lat="40.4594395" lon="15.0458099"><ele>43.75</ele><time>2026-03-29T12:44:37.468Z</time></trkpt><trkpt lat="40.4595917" lon="15.0457784"><ele>43.5</ele><time>2026-03-29T12:44:38.462Z</time></trkpt><trkpt lat="40.4597386" lon="15.0457452"><ele>43.25</ele><time>2026-03-29T12:44:39.451Z</time></trkpt><trkpt lat="40.4598762" lon="15.0457154"><ele>43.0</ele><time>2026-03-29T12:44:40.435Z</time></trkpt><trkpt lat="40.4600114" lon="15.0456851"><ele>42.75</ele><time>2026-03-29T12:44:41.467Z</time></trkpt><trkpt lat="40.4601322" lon="15.0456572"><ele>42.5</ele><time>2026-03-29T12:44:42.451Z</time></trkpt><trkpt lat="40.4602531" lon="15.0456293"><ele>42.25</ele><time>2026-03-29T12:44:43.483Z</time></trkpt><trkpt lat="40.4603595" lon="15.0455961"><ele>42.0</ele><time>2026-03-29T12:44:44.45Z</time></trkpt><trkpt lat="40.4604625" lon="15.0455477"><ele>41.75</ele><time>2026-03-29T12:44:45.424Z</time></trkpt><trkpt lat="40.4605668" lon="15.0454753"><ele>41.5</ele><time>2026-03-29T12:44:46.45Z</time></trkpt><trkpt lat="40.4606635" lon="15.0453784"><ele>41.25</ele><time>2026-03-29T12:44:47.453Z</time></trkpt><trkpt lat="40.4607585" lon="15.0452537"><ele>41.0</ele><time>2026-03-29T12:44:48.494Z</time></trkpt><trkpt lat="40.4608476" lon="15.0451214"><ele>41.0</ele><time>2026-03-29T12:44:49.432Z</time></trkpt><trkpt lat="40.4609491" lon="15.0449619"><ele>41.0</ele><time>2026-03-29T12:44:50.458Z</time></trkpt><trkpt lat="40.4610528" lon="15.0447963"><ele>41.0</ele><time>2026-03-29T12:44:51.446Z</time></trkpt><trkpt lat="40.4611661" lon="15.0446178"><ele>41.0</ele><time>2026-03-29T12:44:52.466Z</time></trkpt><trkpt lat="40.4612758" lon="15.044447"><ele>41.0</ele><time>2026-03-29T12:44:53.452Z</time></trkpt><trkpt lat="40.4613976" lon="15.0442566"><ele>41.0</ele><time>2026-03-29T12:44:54.493Z</time></trkpt><trkpt lat="40.4615163" lon="15.0440694"><ele>40.666666666666664</ele><time>2026-03-29T12:44:55.464Z</time></trkpt><trkpt lat="40.461658" lon="15.0438503"><ele>40.333333333333336</ele><time>2026-03-29T12:44:56.569Z</time></trkpt><trkpt lat="40.4617716" lon="15.0436741"><ele>40.0</ele><time>2026-03-29T12:44:57.455Z</time></trkpt><trkpt lat="40.4618908" lon="15.0434861"><ele>40.0</ele><time>2026-03-29T12:44:58.447Z</time></trkpt><trkpt lat="40.462006" lon="15.0433065"><ele>40.0</ele><time>2026-03-29T12:44:59.451Z</time></trkpt><trkpt lat="40.4621174" lon="15.0431314"><ele>40.0</ele><time>2026-03-29T12:45:00.458Z</time></trkpt><trkpt lat="40.4622286" lon="15.0429565"><ele>39.66666666666667</ele><time>2026-03-29T12:45:01.483Z</time></trkpt><trkpt lat="40.4623313" lon="15.0427925"><ele>39.333333333333336</ele><time>2026-03-29T12:45:02.455Z</time></trkpt><trkpt lat="40.4624374" lon="15.0426258"><ele>39.0</ele><time>2026-03-29T12:45:03.462Z</time></trkpt><trkpt lat="40.4625376" lon="15.0424689"><ele>39.0</ele><time>2026-03-29T12:45:04.475Z</time></trkpt><trkpt lat="40.4626266" lon="15.042333"><ele>39.0</ele><time>2026-03-29T12:45:05.461Z</time></trkpt><trkpt lat="40.4627133" lon="15.0422063"><ele>39.0</ele><time>2026-03-29T12:45:06.456Z</time></trkpt><trkpt lat="40.4628057" lon="15.0420748"><ele>39.0</ele><time>2026-03-29T12:45:07.564Z</time></trkpt><trkpt lat="40.4628838" lon="15.0419719"><ele>38.75</ele><time>2026-03-29T12:45:08.494Z</time></trkpt><trkpt lat="40.4629788" lon="15.0418708"><ele>38.5</ele><time>2026-03-29T12:45:09.469Z</time></trkpt><trkpt lat="40.4630987" lon="15.041766"><ele>38.25</ele><time>2026-03-29T12:45:10.489Z</time></trkpt><trkpt lat="40.4632224" lon="15.0416613"><ele>38.0</ele><time>2026-03-29T12:45:11.446Z</time></trkpt><trkpt lat="40.4633638" lon="15.0415436"><ele>38.0</ele><time>2026-03-29T12:45:12.49Z</time></trkpt><trkpt lat="40.4635011" lon="15.0414302"><ele>38.0</ele><time>2026-03-29T12:45:13.478Z</time></trkpt><trkpt lat="40.4636345" lon="15.0413214"><ele>38.0</ele><time>2026-03-29T12:45:14.493Z</time></trkpt><trkpt lat="40.4637646" lon="15.0412144"><ele>38.0</ele><time>2026-03-29T12:45:15.503Z</time></trkpt><trkpt lat="40.4638807" lon="15.0411127"><ele>38.0</ele><time>2026-03-29T12:45:16.466Z</time></trkpt><trkpt lat="40.4639897" lon="15.0410085"><ele>38.0</ele><time>2026-03-29T12:45:17.485Z</time></trkpt><trkpt lat="40.4640767" lon="15.0409153"><ele>38.0</ele><time>2026-03-29T12:45:18.476Z</time></trkpt><trkpt lat="40.4641482" lon="15.0408312"><ele>37.8</ele><time>2026-03-29T12:45:19.454Z</time></trkpt><trkpt lat="40.4642041" lon="15.0407566"><ele>37.599999999999994</ele><time>2026-03-29T12:45:20.467Z</time></trkpt><trkpt lat="40.464246" lon="15.0406937"><ele>37.400000000000006</ele><time>2026-03-29T12:45:21.469Z</time></trkpt><trkpt lat="40.4642863" lon="15.0406219"><ele>37.2</ele><time>2026-03-29T12:45:23.456Z</time></trkpt><trkpt lat="40.4642713" lon="15.0405356"><ele>37.0</ele><time>2026-03-29T12:45:26.453Z</time></trkpt><trkpt lat="40.4640929" lon="15.0403023"><ele>37.0</ele><time>2026-03-29T12:45:29.454Z</time></trkpt><trkpt lat="40.4640121" lon="15.0401747"><ele>37.0</ele><time>2026-03-29T12:45:30.45Z</time></trkpt><trkpt lat="40.463925" lon="15.0400149"><ele>37.0</ele><time>2026-03-29T12:45:31.47Z</time></trkpt><trkpt lat="40.4638423" lon="15.0398372"><ele>37.0</ele><time>2026-03-29T12:45:32.454Z</time></trkpt><trkpt lat="40.4637586" lon="15.0396243"><ele>37.333333333333336</ele><time>2026-03-29T12:45:33.461Z</time></trkpt><trkpt lat="40.4636818" lon="15.0394021"><ele>37.666666666666664</ele><time>2026-03-29T12:45:34.467Z</time></trkpt><trkpt lat="40.463613" lon="15.0391884"><ele>38.0</ele><time>2026-03-29T12:45:35.46Z</time></trkpt><trkpt lat="40.4635439" lon="15.0389736"><ele>37.0</ele><time>2026-03-29T12:45:36.458Z</time></trkpt><trkpt lat="40.4634704" lon="15.0387496"><ele>36.0</ele><time>2026-03-29T12:45:37.582Z</time></trkpt><trkpt lat="40.4633546" lon="15.0384043"><ele>36.2</ele><time>2026-03-29T12:45:39.456Z</time></trkpt><trkpt lat="40.4632985" lon="15.0382411"><ele>36.400000000000006</ele><time>2026-03-29T12:45:40.467Z</time></trkpt><trkpt lat="40.463252" lon="15.0381087"><ele>36.6</ele><time>2026-03-29T12:45:41.462Z</time></trkpt><trkpt lat="40.4632104" lon="15.037986"><ele>36.800000000000004</ele><time>2026-03-29T12:45:42.47Z</time></trkpt><trkpt lat="40.4631722" lon="15.0378717"><ele>37.0</ele><time>2026-03-29T12:45:43.491Z</time></trkpt><trkpt lat="40.4631379" lon="15.0377661"><ele>37.0</ele><time>2026-03-29T12:45:44.645Z</time></trkpt><trkpt lat="40.4631384" lon="15.0376533"><ele>37.0</ele><time>2026-03-29T12:45:46.523Z</time></trkpt><trkpt lat="40.4631999" lon="15.0376114"><ele>37.0</ele><time>2026-03-29T12:45:48.539Z</time></trkpt><trkpt lat="40.4632966" lon="15.0376522"><ele>37.0</ele><time>2026-03-29T12:45:50.541Z</time></trkpt><trkpt lat="40.4633623" lon="15.0376923"><ele>37.0</ele><time>2026-03-29T12:45:51.516Z</time></trkpt><trkpt lat="40.4634473" lon="15.0377415"><ele>37.0</ele><time>2026-03-29T12:45:52.523Z</time></trkpt><trkpt lat="40.4635417" lon="15.037798"><ele>37.0</ele><time>2026-03-29T12:45:53.52Z</time></trkpt><trkpt lat="40.4636433" lon="15.0378626"><ele>37.0</ele><time>2026-03-29T12:45:54.544Z</time></trkpt><trkpt lat="40.4637362" lon="15.0379231"><ele>37.0</ele><time>2026-03-29T12:45:55.541Z</time></trkpt><trkpt lat="40.4638144" lon="15.0379747"><ele>37.0</ele><time>2026-03-29T12:45:56.517Z</time></trkpt><trkpt lat="40.4638808" lon="15.0380141"><ele>37.0</ele><time>2026-03-29T12:45:57.514Z</time></trkpt><trkpt lat="40.4639757" lon="15.0380374"><ele>36.800000000000004</ele><time>2026-03-29T12:45:59.518Z</time></trkpt><trkpt lat="40.4640193" lon="15.0379608"><ele>36.6</ele><time>2026-03-29T12:46:01.622Z</time></trkpt><trkpt lat="40.4640081" lon="15.0378396"><ele>36.400000000000006</ele><time>2026-03-29T12:46:03.52Z</time></trkpt><trkpt lat="40.4639897" lon="15.0377403"><ele>36.2</ele><time>2026-03-29T12:46:04.537Z</time></trkpt><trkpt lat="40.4639678" lon="15.0376082"><ele>36.0</ele><time>2026-03-29T12:46:05.522Z</time></trkpt><trkpt lat="40.463942" lon="15.0374542"><ele>36.0</ele><time>2026-03-29T12:46:06.536Z</time></trkpt><trkpt lat="40.4639121" lon="15.0372738"><ele>36.0</ele><time>2026-03-29T12:46:07.555Z</time></trkpt><trkpt lat="40.4638799" lon="15.037081"><ele>36.0</ele><time>2026-03-29T12:46:08.52Z</time></trkpt><trkpt lat="40.4638433" lon="15.0368495"><ele>36.0</ele><time>2026-03-29T12:46:09.543Z</time></trkpt><trkpt lat="40.4638041" lon="15.0366161"><ele>36.0</ele><time>2026-03-29T12:46:10.532Z</time></trkpt><trkpt lat="40.4637673" lon="15.0363949"><ele>36.0</ele><time>2026-03-29T12:46:11.525Z</time></trkpt><trkpt lat="40.4637261" lon="15.0361674"><ele>36.0</ele><time>2026-03-29T12:46:12.532Z</time></trkpt><trkpt lat="40.4636854" lon="15.0359575"><ele>36.0</ele><time>2026-03-29T12:46:13.453Z</time></trkpt><trkpt lat="40.4636403" lon="15.035721"><ele>36.0</ele><time>2026-03-29T12:46:14.493Z</time></trkpt><trkpt lat="40.4636028" lon="15.035483"><ele>36.0</ele><time>2026-03-29T12:46:15.502Z</time></trkpt><trkpt lat="40.4635636" lon="15.0352591"><ele>36.0</ele><time>2026-03-29T12:46:16.461Z</time></trkpt><trkpt lat="40.4635271" lon="15.0350521"><ele>36.0</ele><time>2026-03-29T12:46:17.447Z</time></trkpt><trkpt lat="40.4634875" lon="15.0348422"><ele>36.0</ele><time>2026-03-29T12:46:18.448Z</time></trkpt><trkpt lat="40.4634434" lon="15.0346252"><ele>36.0</ele><time>2026-03-29T12:46:19.448Z</time></trkpt><trkpt lat="40.463411" lon="15.034414"><ele>36.0</ele><time>2026-03-29T12:46:20.459Z</time></trkpt><trkpt lat="40.4633728" lon="15.0341768"><ele>35.5</ele><time>2026-03-29T12:46:21.464Z</time></trkpt><trkpt lat="40.4633317" lon="15.0339031"><ele>35.0</ele><time>2026-03-29T12:46:22.601Z</time></trkpt><trkpt lat="40.4632612" lon="15.0335253"><ele>35.0</ele><time>2026-03-29T12:46:24.442Z</time></trkpt><trkpt lat="40.4632282" lon="15.0333417"><ele>35.0</ele><time>2026-03-29T12:46:25.466Z</time></trkpt><trkpt lat="40.4631979" lon="15.0331775"><ele>35.0</ele><time>2026-03-29T12:46:26.445Z</time></trkpt><trkpt lat="40.4631648" lon="15.0330111"><ele>35.0</ele><time>2026-03-29T12:46:27.473Z</time></trkpt><trkpt lat="40.4631349" lon="15.0328316"><ele>34.75</ele><time>2026-03-29T12:46:28.496Z</time></trkpt><trkpt lat="40.4631076" lon="15.0326593"><ele>34.5</ele><time>2026-03-29T12:46:29.464Z</time></trkpt><trkpt lat="40.4630795" lon="15.0324903"><ele>34.25</ele><time>2026-03-29T12:46:30.465Z</time></trkpt><trkpt lat="40.4630486" lon="15.0323072"><ele>34.0</ele><time>2026-03-29T12:46:31.575Z</time></trkpt><trkpt lat="40.4629904" lon="15.0319697"><ele>33.333333333333336</ele><time>2026-03-29T12:46:33.462Z</time></trkpt><trkpt lat="40.462957" lon="15.031778"><ele>32.666666666666664</ele><time>2026-03-29T12:46:34.467Z</time></trkpt><trkpt lat="40.4629246" lon="15.0315818"><ele>32.0</ele><time>2026-03-29T12:46:35.454Z</time></trkpt><trkpt lat="40.4628913" lon="15.0313783"><ele>32.0</ele><time>2026-03-29T12:46:36.454Z</time></trkpt><trkpt lat="40.4628571" lon="15.0311748"><ele>32.0</ele><time>2026-03-29T12:46:37.45Z</time></trkpt><trkpt lat="40.4628221" lon="15.0309772"><ele>32.0</ele><time>2026-03-29T12:46:38.441Z</time></trkpt><trkpt lat="40.4627831" lon="15.0307486"><ele>32.0</ele><time>2026-03-29T12:46:39.553Z</time></trkpt><trkpt lat="40.4627517" lon="15.0305617"><ele>32.0</ele><time>2026-03-29T12:46:40.482Z</time></trkpt><trkpt lat="40.4627188" lon="15.0303683"><ele>32.0</ele><time>2026-03-29T12:46:41.455Z</time></trkpt><trkpt lat="40.462684" lon="15.0301681"><ele>31.666666666666664</ele><time>2026-03-29T12:46:42.448Z</time></trkpt><trkpt lat="40.4626472" lon="15.029962"><ele>31.333333333333336</ele><time>2026-03-29T12:46:43.465Z</time></trkpt><trkpt lat="40.4626154" lon="15.0297701"><ele>31.0</ele><time>2026-03-29T12:46:44.448Z</time></trkpt><trkpt lat="40.4625877" lon="15.0295852"><ele>31.0</ele><time>2026-03-29T12:46:45.447Z</time></trkpt><trkpt lat="40.4625623" lon="15.0293998"><ele>31.0</ele><time>2026-03-29T12:46:46.468Z</time></trkpt><trkpt lat="40.4625341" lon="15.029223"><ele>31.0</ele><time>2026-03-29T12:46:47.447Z</time></trkpt><trkpt lat="40.4625029" lon="15.0290396"><ele>31.0</ele><time>2026-03-29T12:46:48.449Z</time></trkpt><trkpt lat="40.4624716" lon="15.0288538"><ele>31.333333333333336</ele><time>2026-03-29T12:46:49.441Z</time></trkpt><trkpt lat="40.462437" lon="15.0286524"><ele>31.666666666666664</ele><time>2026-03-29T12:46:50.446Z</time></trkpt><trkpt lat="40.4624028" lon="15.0284502"><ele>32.0</ele><time>2026-03-29T12:46:51.43Z</time></trkpt><trkpt lat="40.4623694" lon="15.0282422"><ele>32.0</ele><time>2026-03-29T12:46:52.457Z</time></trkpt><trkpt lat="40.4623386" lon="15.0280475"><ele>32.0</ele><time>2026-03-29T12:46:53.459Z</time></trkpt><trkpt lat="40.4623086" lon="15.0278693"><ele>32.0</ele><time>2026-03-29T12:46:54.471Z</time></trkpt><trkpt lat="40.4622776" lon="15.0276868"><ele>32.0</ele><time>2026-03-29T12:46:55.475Z</time></trkpt><trkpt lat="40.4622471" lon="15.0275045"><ele>31.0</ele><time>2026-03-29T12:46:56.455Z</time></trkpt><trkpt lat="40.4622116" lon="15.0273123"><ele>30.0</ele><time>2026-03-29T12:46:57.47Z</time></trkpt><trkpt lat="40.4621729" lon="15.0270995"><ele>29.0</ele><time>2026-03-29T12:46:58.568Z</time></trkpt><trkpt lat="40.4621432" lon="15.0269269"><ele>29.5</ele><time>2026-03-29T12:46:59.467Z</time></trkpt><trkpt lat="40.462111" lon="15.0267386"><ele>30.0</ele><time>2026-03-29T12:47:00.511Z</time></trkpt><trkpt lat="40.4620825" lon="15.0265739"><ele>30.5</ele><time>2026-03-29T12:47:01.475Z</time></trkpt><trkpt lat="40.4620528" lon="15.0264119"><ele>31.0</ele><time>2026-03-29T12:47:02.45Z</time></trkpt><trkpt lat="40.4620237" lon="15.0262435"><ele>31.0</ele><time>2026-03-29T12:47:03.454Z</time></trkpt><trkpt lat="40.4619933" lon="15.0260664"><ele>31.0</ele><time>2026-03-29T12:47:04.48Z</time></trkpt><trkpt lat="40.4619658" lon="15.0259054"><ele>31.0</ele><time>2026-03-29T12:47:05.478Z</time></trkpt><trkpt lat="40.4619409" lon="15.0257575"><ele>31.0</ele><time>2026-03-29T12:47:06.488Z</time></trkpt><trkpt lat="40.4619173" lon="15.0256213"><ele>31.000000000000004</ele><time>2026-03-29T12:47:07.478Z</time></trkpt><trkpt lat="40.4618979" lon="15.0254958"><ele>31.0</ele><time>2026-03-29T12:47:08.46Z</time></trkpt><trkpt lat="40.461881" lon="15.0253779"><ele>31.0</ele><time>2026-03-29T12:47:09.482Z</time></trkpt><trkpt lat="40.4618671" lon="15.0252867"><ele>31.0</ele><time>2026-03-29T12:47:10.453Z</time></trkpt><trkpt lat="40.4618429" lon="15.0251532"><ele>31.000000000000004</ele><time>2026-03-29T12:47:12.477Z</time></trkpt><trkpt lat="40.4618723" lon="15.0250617"><ele>31.0</ele><time>2026-03-29T12:47:15.451Z</time></trkpt><trkpt lat="40.4619535" lon="15.0250408"><ele>31.0</ele><time>2026-03-29T12:47:17.482Z</time></trkpt><trkpt lat="40.4620255" lon="15.0250508"><ele>31.0</ele><time>2026-03-29T12:47:18.486Z</time></trkpt><trkpt lat="40.4621029" lon="15.0250588"><ele>31.0</ele><time>2026-03-29T12:47:19.455Z</time></trkpt><trkpt lat="40.4622022" lon="15.0250671"><ele>31.0</ele><time>2026-03-29T12:47:20.459Z</time></trkpt><trkpt lat="40.4623208" lon="15.0250798"><ele>31.0</ele><time>2026-03-29T12:47:21.448Z</time></trkpt><trkpt lat="40.4624434" lon="15.0250962"><ele>30.75</ele><time>2026-03-29T12:47:22.445Z</time></trkpt><trkpt lat="40.4625751" lon="15.0251098"><ele>30.5</ele><time>2026-03-29T12:47:23.435Z</time></trkpt><trkpt lat="40.4627196" lon="15.0251242"><ele>30.25</ele><time>2026-03-29T12:47:24.465Z</time></trkpt><trkpt lat="40.4628621" lon="15.0251404"><ele>30.0</ele><time>2026-03-29T12:47:25.45Z</time></trkpt><trkpt lat="40.4630103" lon="15.0251558"><ele>29.333333333333336</ele><time>2026-03-29T12:47:26.453Z</time></trkpt><trkpt lat="40.4631593" lon="15.0251694"><ele>28.666666666666668</ele><time>2026-03-29T12:47:27.461Z</time></trkpt><trkpt lat="40.4633036" lon="15.0251829"><ele>28.0</ele><time>2026-03-29T12:47:28.432Z</time></trkpt><trkpt lat="40.4634587" lon="15.0251977"><ele>28.0</ele><time>2026-03-29T12:47:29.462Z</time></trkpt><trkpt lat="40.4636108" lon="15.0252117"><ele>28.0</ele><time>2026-03-29T12:47:30.473Z</time></trkpt><trkpt lat="40.4637576" lon="15.0252261"><ele>28.0</ele><time>2026-03-29T12:47:31.447Z</time></trkpt><trkpt lat="40.4639101" lon="15.0252404"><ele>28.0</ele><time>2026-03-29T12:47:32.447Z</time></trkpt><trkpt lat="40.4640589" lon="15.0252561"><ele>28.0</ele><time>2026-03-29T12:47:33.468Z</time></trkpt><trkpt lat="40.4642012" lon="15.0252698"><ele>28.0</ele><time>2026-03-29T12:47:34.485Z</time></trkpt><trkpt lat="40.4643383" lon="15.0252779"><ele>28.0</ele><time>2026-03-29T12:47:35.451Z</time></trkpt><trkpt lat="40.4644758" lon="15.0252808"><ele>28.0</ele><time>2026-03-29T12:47:36.461Z</time></trkpt><trkpt lat="40.4646086" lon="15.0252716"><ele>28.0</ele><time>2026-03-29T12:47:37.434Z</time></trkpt><trkpt lat="40.4647526" lon="15.0252392"><ele>28.0</ele><time>2026-03-29T12:47:38.469Z</time></trkpt><trkpt lat="40.4649005" lon="15.0251951"><ele>28.0</ele><time>2026-03-29T12:47:39.468Z</time></trkpt><trkpt lat="40.4650435" lon="15.0251469"><ele>27.666666666666668</ele><time>2026-03-29T12:47:40.44Z</time></trkpt><trkpt lat="40.4651995" lon="15.0250909"><ele>27.333333333333336</ele><time>2026-03-29T12:47:41.488Z</time></trkpt><trkpt lat="40.4653489" lon="15.0250346"><ele>27.0</ele><time>2026-03-29T12:47:42.471Z</time></trkpt><trkpt lat="40.4655027" lon="15.0249776"><ele>26.666666666666664</ele><time>2026-03-29T12:47:43.452Z</time></trkpt><trkpt lat="40.4656703" lon="15.0249164"><ele>26.333333333333332</ele><time>2026-03-29T12:47:44.46Z</time></trkpt><trkpt lat="40.4658494" lon="15.0248539"><ele>26.0</ele><time>2026-03-29T12:47:45.549Z</time></trkpt><trkpt lat="40.4660002" lon="15.0248005"><ele>26.0</ele><time>2026-03-29T12:47:46.453Z</time></trkpt><trkpt lat="40.4661712" lon="15.024742"><ele>26.0</ele><time>2026-03-29T12:47:47.479Z</time></trkpt><trkpt lat="40.4663389" lon="15.0246849"><ele>26.0</ele><time>2026-03-29T12:47:48.469Z</time></trkpt><trkpt lat="40.466504" lon="15.0246246"><ele>25.666666666666664</ele><time>2026-03-29T12:47:49.478Z</time></trkpt><trkpt lat="40.4666609" lon="15.0245676"><ele>25.333333333333336</ele><time>2026-03-29T12:47:50.469Z</time></trkpt><trkpt lat="40.466815" lon="15.0245079"><ele>25.0</ele><time>2026-03-29T12:47:51.454Z</time></trkpt><trkpt lat="40.4669802" lon="15.0244499"><ele>24.666666666666668</ele><time>2026-03-29T12:47:52.455Z</time></trkpt><trkpt lat="40.4671253" lon="15.0243959"><ele>24.333333333333336</ele><time>2026-03-29T12:47:53.466Z</time></trkpt><trkpt lat="40.4672659" lon="15.0243456"><ele>24.0</ele><time>2026-03-29T12:47:54.461Z</time></trkpt><trkpt lat="40.4674168" lon="15.0242897"><ele>24.0</ele><time>2026-03-29T12:47:55.463Z</time></trkpt><trkpt lat="40.4675643" lon="15.0242348"><ele>24.0</ele><time>2026-03-29T12:47:56.458Z</time></trkpt><trkpt lat="40.4677143" lon="15.0241802"><ele>24.0</ele><time>2026-03-29T12:47:57.458Z</time></trkpt><trkpt lat="40.4678679" lon="15.0241272"><ele>24.5</ele><time>2026-03-29T12:47:58.471Z</time></trkpt><trkpt lat="40.4680127" lon="15.0240788"><ele>25.0</ele><time>2026-03-29T12:47:59.454Z</time></trkpt><trkpt lat="40.4681548" lon="15.0240304"><ele>25.5</ele><time>2026-03-29T12:48:00.445Z</time></trkpt><trkpt lat="40.4682993" lon="15.0239771"><ele>26.0</ele><time>2026-03-29T12:48:01.462Z</time></trkpt><trkpt lat="40.4684398" lon="15.0239245"><ele>26.0</ele><time>2026-03-29T12:48:02.487Z</time></trkpt><trkpt lat="40.4685729" lon="15.023877"><ele>26.0</ele><time>2026-03-29T12:48:03.453Z</time></trkpt><trkpt lat="40.4687141" lon="15.0238303"><ele>26.0</ele><time>2026-03-29T12:48:04.464Z</time></trkpt><trkpt lat="40.4688574" lon="15.0237774"><ele>26.0</ele><time>2026-03-29T12:48:05.47Z</time></trkpt><trkpt lat="40.4690081" lon="15.0237102"><ele>25.333333333333332</ele><time>2026-03-29T12:48:06.464Z</time></trkpt><trkpt lat="40.4691674" lon="15.0236223"><ele>24.666666666666664</ele><time>2026-03-29T12:48:07.47Z</time></trkpt><trkpt lat="40.4693326" lon="15.0235162"><ele>24.0</ele><time>2026-03-29T12:48:08.475Z</time></trkpt><trkpt lat="40.4695135" lon="15.0233934"><ele>24.0</ele><time>2026-03-29T12:48:09.506Z</time></trkpt><trkpt lat="40.4696916" lon="15.023272"><ele>24.0</ele><time>2026-03-29T12:48:10.475Z</time></trkpt><trkpt lat="40.4698897" lon="15.0231389"><ele>24.0</ele><time>2026-03-29T12:48:11.494Z</time></trkpt><trkpt lat="40.4700734" lon="15.0230162"><ele>24.0</ele><time>2026-03-29T12:48:12.465Z</time></trkpt><trkpt lat="40.4702729" lon="15.0228816"><ele>24.0</ele><time>2026-03-29T12:48:13.611Z</time></trkpt><trkpt lat="40.4705946" lon="15.0226677"><ele>24.5</ele><time>2026-03-29T12:48:15.596Z</time></trkpt><trkpt lat="40.4708892" lon="15.0224691"><ele>25.0</ele><time>2026-03-29T12:48:17.467Z</time></trkpt><trkpt lat="40.4710352" lon="15.0223664"><ele>25.0</ele><time>2026-03-29T12:48:18.445Z</time></trkpt><trkpt lat="40.4711886" lon="15.0222581"><ele>25.0</ele><time>2026-03-29T12:48:19.464Z</time></trkpt><trkpt lat="40.4713345" lon="15.0221562"><ele>25.0</ele><time>2026-03-29T12:48:20.498Z</time></trkpt><trkpt lat="40.4714593" lon="15.0220632"><ele>25.0</ele><time>2026-03-29T12:48:21.461Z</time></trkpt><trkpt lat="40.4715761" lon="15.021971"><ele>25.0</ele><time>2026-03-29T12:48:22.458Z</time></trkpt><trkpt lat="40.4716869" lon="15.0218832"><ele>25.0</ele><time>2026-03-29T12:48:23.468Z</time></trkpt><trkpt lat="40.471786" lon="15.0218021"><ele>25.0</ele><time>2026-03-29T12:48:24.466Z</time></trkpt><trkpt lat="40.4718729" lon="15.0217303"><ele>25.000000000000004</ele><time>2026-03-29T12:48:25.469Z</time></trkpt><trkpt lat="40.4719526" lon="15.0216661"><ele>25.0</ele><time>2026-03-29T12:48:26.495Z</time></trkpt><trkpt lat="40.4720218" lon="15.0216164"><ele>25.0</ele><time>2026-03-29T12:48:27.496Z</time></trkpt><trkpt lat="40.4720909" lon="15.0215601"><ele>25.0</ele><time>2026-03-29T12:48:29.481Z</time></trkpt><trkpt lat="40.4721035" lon="15.0214744"><ele>25.000000000000004</ele><time>2026-03-29T12:48:32.482Z</time></trkpt><trkpt lat="40.4720511" lon="15.0213272"><ele>25.0</ele><time>2026-03-29T12:48:34.535Z</time></trkpt><trkpt lat="40.4720068" lon="15.0212407"><ele>25.0</ele><time>2026-03-29T12:48:35.515Z</time></trkpt><trkpt lat="40.4719526" lon="15.0211171"><ele>25.0</ele><time>2026-03-29T12:48:36.545Z</time></trkpt><trkpt lat="40.4718971" lon="15.0209727"><ele>25.0</ele><time>2026-03-29T12:48:37.513Z</time></trkpt><trkpt lat="40.4718332" lon="15.0207932"><ele>25.0</ele><time>2026-03-29T12:48:38.543Z</time></trkpt><trkpt lat="40.4717647" lon="15.0206042"><ele>25.0</ele><time>2026-03-29T12:48:39.52Z</time></trkpt><trkpt lat="40.471679" lon="15.0203802"><ele>25.0</ele><time>2026-03-29T12:48:40.531Z</time></trkpt><trkpt lat="40.4715928" lon="15.0201628"><ele>25.0</ele><time>2026-03-29T12:48:41.536Z</time></trkpt><trkpt lat="40.4715138" lon="15.0199584"><ele>25.0</ele><time>2026-03-29T12:48:42.519Z</time></trkpt><trkpt lat="40.4714313" lon="15.0197397"><ele>25.0</ele><time>2026-03-29T12:48:43.527Z</time></trkpt><trkpt lat="40.471346" lon="15.0195181"><ele>25.0</ele><time>2026-03-29T12:48:44.534Z</time></trkpt><trkpt lat="40.4712563" lon="15.0192904"><ele>25.0</ele><time>2026-03-29T12:48:45.545Z</time></trkpt><trkpt lat="40.4711733" lon="15.0190824"><ele>25.0</ele><time>2026-03-29T12:48:46.523Z</time></trkpt><trkpt lat="40.4710981" lon="15.0188945"><ele>25.0</ele><time>2026-03-29T12:48:47.525Z</time></trkpt><trkpt lat="40.4710342" lon="15.0187368"><ele>25.000000000000004</ele><time>2026-03-29T12:48:48.533Z</time></trkpt><trkpt lat="40.4709839" lon="15.0186048"><ele>25.0</ele><time>2026-03-29T12:48:49.566Z</time></trkpt><trkpt lat="40.4709521" lon="15.0185037"><ele>25.0</ele><time>2026-03-29T12:48:50.533Z</time></trkpt><trkpt lat="40.4709436" lon="15.0184179"><ele>25.0</ele><time>2026-03-29T12:48:51.525Z</time></trkpt><trkpt lat="40.4709552" lon="15.0183324"><ele>25.000000000000004</ele><time>2026-03-29T12:48:52.527Z</time></trkpt><trkpt lat="40.4709843" lon="15.0182487"><ele>25.0</ele><time>2026-03-29T12:48:53.554Z</time></trkpt><trkpt lat="40.4710283" lon="15.01817"><ele>24.8</ele><time>2026-03-29T12:48:54.535Z</time></trkpt><trkpt lat="40.4710923" lon="15.0180869"><ele>24.6</ele><time>2026-03-29T12:48:55.623Z</time></trkpt><trkpt lat="40.4711573" lon="15.0180224"><ele>24.4</ele><time>2026-03-29T12:48:56.534Z</time></trkpt><trkpt lat="40.4712325" lon="15.0179688"><ele>24.2</ele><time>2026-03-29T12:48:57.443Z</time></trkpt><trkpt lat="40.4713292" lon="15.017921"><ele>24.0</ele><time>2026-03-29T12:48:58.442Z</time></trkpt><trkpt lat="40.471447" lon="15.0178781"><ele>23.5</ele><time>2026-03-29T12:48:59.453Z</time></trkpt><trkpt lat="40.4715662" lon="15.0178362"><ele>23.0</ele><time>2026-03-29T12:49:00.471Z</time></trkpt><trkpt lat="40.4716888" lon="15.0177891"><ele>22.5</ele><time>2026-03-29T12:49:01.463Z</time></trkpt><trkpt lat="40.4718223" lon="15.0177372"><ele>22.0</ele><time>2026-03-29T12:49:02.453Z</time></trkpt><trkpt lat="40.4719669" lon="15.0176831"><ele>22.333333333333332</ele><time>2026-03-29T12:49:03.449Z</time></trkpt><trkpt lat="40.472113" lon="15.0176283"><ele>22.666666666666668</ele><time>2026-03-29T12:49:04.444Z</time></trkpt><trkpt lat="40.4722641" lon="15.0175727"><ele>23.0</ele><time>2026-03-29T12:49:05.465Z</time></trkpt><trkpt lat="40.4724163" lon="15.0175132"><ele>23.0</ele><time>2026-03-29T12:49:06.465Z</time></trkpt><trkpt lat="40.4725716" lon="15.0174517"><ele>23.0</ele><time>2026-03-29T12:49:07.457Z</time></trkpt><trkpt lat="40.4727321" lon="15.0173916"><ele>23.0</ele><time>2026-03-29T12:49:08.458Z</time></trkpt><trkpt lat="40.4728893" lon="15.0173347"><ele>22.333333333333336</ele><time>2026-03-29T12:49:09.474Z</time></trkpt><trkpt lat="40.4730434" lon="15.0172767"><ele>21.666666666666668</ele><time>2026-03-29T12:49:10.469Z</time></trkpt><trkpt lat="40.4731898" lon="15.0172214"><ele>21.0</ele><time>2026-03-29T12:49:11.455Z</time></trkpt><trkpt lat="40.4733427" lon="15.0171698"><ele>21.0</ele><time>2026-03-29T12:49:12.453Z</time></trkpt><trkpt lat="40.4735039" lon="15.017128"><ele>21.0</ele><time>2026-03-29T12:49:13.522Z</time></trkpt><trkpt lat="40.4736403" lon="15.0171034"><ele>21.0</ele><time>2026-03-29T12:49:14.474Z</time></trkpt><trkpt lat="40.4737826" lon="15.0170819"><ele>21.0</ele><time>2026-03-29T12:49:15.494Z</time></trkpt><trkpt lat="40.4739195" lon="15.0170697"><ele>20.666666666666668</ele><time>2026-03-29T12:49:16.467Z</time></trkpt><trkpt lat="40.4740747" lon="15.0170718"><ele>20.333333333333336</ele><time>2026-03-29T12:49:17.468Z</time></trkpt><trkpt lat="40.4742463" lon="15.0170842"><ele>20.0</ele><time>2026-03-29T12:49:18.468Z</time></trkpt><trkpt lat="40.4744262" lon="15.0171035"><ele>21.0</ele><time>2026-03-29T12:49:19.457Z</time></trkpt><trkpt lat="40.4746524" lon="15.0171307"><ele>22.0</ele><time>2026-03-29T12:49:20.621Z</time></trkpt><trkpt lat="40.4750506" lon="15.0171777"><ele>22.0</ele><time>2026-03-29T12:49:22.49Z</time></trkpt><trkpt lat="40.4752846" lon="15.0172058"><ele>22.0</ele><time>2026-03-29T12:49:23.502Z</time></trkpt><trkpt lat="40.4755205" lon="15.0172351"><ele>21.5</ele><time>2026-03-29T12:49:24.475Z</time></trkpt><trkpt lat="40.4757569" lon="15.0172646"><ele>21.0</ele><time>2026-03-29T12:49:25.471Z</time></trkpt><trkpt lat="40.47598" lon="15.0172901"><ele>21.0</ele><time>2026-03-29T12:49:26.482Z</time></trkpt><trkpt lat="40.4761767" lon="15.0173123"><ele>21.0</ele><time>2026-03-29T12:49:27.57Z</time></trkpt><trkpt lat="40.4764446" lon="15.017345"><ele>21.0</ele><time>2026-03-29T12:49:29.503Z</time></trkpt><trkpt lat="40.4765696" lon="15.0173619"><ele>21.0</ele><time>2026-03-29T12:49:30.493Z</time></trkpt><trkpt lat="40.4767026" lon="15.0173821"><ele>21.0</ele><time>2026-03-29T12:49:31.472Z</time></trkpt><trkpt lat="40.4768611" lon="15.0173982"><ele>21.0</ele><time>2026-03-29T12:49:32.479Z</time></trkpt><trkpt lat="40.4770105" lon="15.0174147"><ele>20.666666666666668</ele><time>2026-03-29T12:49:33.451Z</time></trkpt><trkpt lat="40.4771675" lon="15.0174339"><ele>20.333333333333336</ele><time>2026-03-29T12:49:34.486Z</time></trkpt><trkpt lat="40.4773143" lon="15.0174527"><ele>20.0</ele><time>2026-03-29T12:49:35.469Z</time></trkpt><trkpt lat="40.4774626" lon="15.0174698"><ele>20.333333333333336</ele><time>2026-03-29T12:49:36.46Z</time></trkpt><trkpt lat="40.4776343" lon="15.0174898"><ele>20.666666666666668</ele><time>2026-03-29T12:49:37.583Z</time></trkpt><trkpt lat="40.4778798" lon="15.0175221"><ele>21.0</ele><time>2026-03-29T12:49:39.503Z</time></trkpt><trkpt lat="40.4779684" lon="15.0175363"><ele>20.2</ele><time>2026-03-29T12:49:40.443Z</time></trkpt><trkpt lat="40.4780434" lon="15.0175492"><ele>19.400000000000002</ele><time>2026-03-29T12:49:41.475Z</time></trkpt><trkpt lat="40.4781508" lon="15.0175733"><ele>18.6</ele><time>2026-03-29T12:49:43.635Z</time></trkpt><trkpt lat="40.4782785" lon="15.0175821"><ele>17.8</ele><time>2026-03-29T12:49:45.54Z</time></trkpt><trkpt lat="40.4783683" lon="15.017587"><ele>17.0</ele><time>2026-03-29T12:49:46.54Z</time></trkpt><trkpt lat="40.4784856" lon="15.0175954"><ele>17.0</ele><time>2026-03-29T12:49:47.52Z</time></trkpt><trkpt lat="40.4786089" lon="15.0176066"><ele>17.0</ele><time>2026-03-29T12:49:48.521Z</time></trkpt><trkpt lat="40.4787506" lon="15.0176189"><ele>17.0</ele><time>2026-03-29T12:49:49.514Z</time></trkpt><trkpt lat="40.4789158" lon="15.0176367"><ele>17.0</ele><time>2026-03-29T12:49:50.542Z</time></trkpt><trkpt lat="40.4790992" lon="15.0176595"><ele>17.0</ele><time>2026-03-29T12:49:51.547Z</time></trkpt><trkpt lat="40.479289" lon="15.0176824"><ele>17.0</ele><time>2026-03-29T12:49:52.555Z</time></trkpt><trkpt lat="40.4794726" lon="15.0177057"><ele>17.0</ele><time>2026-03-29T12:49:53.532Z</time></trkpt><trkpt lat="40.4796368" lon="15.0177242"><ele>16.333333333333336</ele><time>2026-03-29T12:49:54.522Z</time></trkpt><trkpt lat="40.4798087" lon="15.0177458"><ele>15.666666666666668</ele><time>2026-03-29T12:49:55.536Z</time></trkpt><trkpt lat="40.4799792" lon="15.0177685"><ele>15.0</ele><time>2026-03-29T12:49:56.53Z</time></trkpt><trkpt lat="40.4801692" lon="15.0177946"><ele>15.0</ele><time>2026-03-29T12:49:57.647Z</time></trkpt><trkpt lat="40.4804529" lon="15.0178283"><ele>15.0</ele><time>2026-03-29T12:49:59.5Z</time></trkpt><trkpt lat="40.480596" lon="15.0178449"><ele>15.0</ele><time>2026-03-29T12:50:00.525Z</time></trkpt><trkpt lat="40.4807168" lon="15.017862"><ele>15.0</ele><time>2026-03-29T12:50:01.502Z</time></trkpt><trkpt lat="40.4808239" lon="15.0178778"><ele>15.0</ele><time>2026-03-29T12:50:02.55Z</time></trkpt><trkpt lat="40.480906" lon="15.0178935"><ele>15.0</ele><time>2026-03-29T12:50:03.544Z</time></trkpt><trkpt lat="40.4809689" lon="15.0179094"><ele>15.0</ele><time>2026-03-29T12:50:04.541Z</time></trkpt><trkpt lat="40.4810552" lon="15.0179218"><ele>15.0</ele><time>2026-03-29T12:50:06.528Z</time></trkpt><trkpt lat="40.481131" lon="15.0178796"><ele>15.0</ele><time>2026-03-29T12:50:09.534Z</time></trkpt><trkpt lat="40.481188" lon="15.0177863"><ele>15.0</ele><time>2026-03-29T12:50:12.564Z</time></trkpt><trkpt lat="40.4812116" lon="15.0175598"><ele>15.0</ele><time>2026-03-29T12:50:15.535Z</time></trkpt><trkpt lat="40.4812217" lon="15.0174527"><ele>15.0</ele><time>2026-03-29T12:50:16.54Z</time></trkpt><trkpt lat="40.4812322" lon="15.0173367"><ele>15.0</ele><time>2026-03-29T12:50:17.551Z</time></trkpt><trkpt lat="40.4812452" lon="15.0172057"><ele>15.0</ele><time>2026-03-29T12:50:18.538Z</time></trkpt><trkpt lat="40.4812559" lon="15.0170637"><ele>15.0</ele><time>2026-03-29T12:50:19.531Z</time></trkpt><trkpt lat="40.4812641" lon="15.0169153"><ele>15.0</ele><time>2026-03-29T12:50:20.554Z</time></trkpt><trkpt lat="40.481269" lon="15.0167793"><ele>15.0</ele><time>2026-03-29T12:50:21.54Z</time></trkpt><trkpt lat="40.4812761" lon="15.0166445"><ele>15.0</ele><time>2026-03-29T12:50:22.549Z</time></trkpt><trkpt lat="40.4812879" lon="15.0165025"><ele>15.0</ele><time>2026-03-29T12:50:23.567Z</time></trkpt><trkpt lat="40.4813001" lon="15.0163723"><ele>14.833333333333334</ele><time>2026-03-29T12:50:24.56Z</time></trkpt><trkpt lat="40.4813101" lon="15.0162564"><ele>14.666666666666668</ele><time>2026-03-29T12:50:25.531Z</time></trkpt><trkpt lat="40.4813184" lon="15.0161408"><ele>14.5</ele><time>2026-03-29T12:50:26.546Z</time></trkpt><trkpt lat="40.4813226" lon="15.0160318"><ele>14.333333333333334</ele><time>2026-03-29T12:50:27.534Z</time></trkpt><trkpt lat="40.4813267" lon="15.0159282"><ele>14.166666666666668</ele><time>2026-03-29T12:50:28.471Z</time></trkpt><trkpt lat="40.481337" lon="15.015802"><ele>14.0</ele><time>2026-03-29T12:50:29.485Z</time></trkpt><trkpt lat="40.4813508" lon="15.0156616"><ele>13.833333333333334</ele><time>2026-03-29T12:50:30.52Z</time></trkpt><trkpt lat="40.4813595" lon="15.01553"><ele>13.666666666666668</ele><time>2026-03-29T12:50:31.466Z</time></trkpt><trkpt lat="40.4813643" lon="15.0154093"><ele>13.5</ele><time>2026-03-29T12:50:32.455Z</time></trkpt><trkpt lat="40.4813643" lon="15.0153161"><ele>13.333333333333332</ele><time>2026-03-29T12:50:33.471Z</time></trkpt><trkpt lat="40.4813718" lon="15.0151883"><ele>13.166666666666666</ele><time>2026-03-29T12:50:35.493Z</time></trkpt><trkpt lat="40.4813977" lon="15.0150892"><ele>13.0</ele><time>2026-03-29T12:50:38.47Z</time></trkpt><trkpt lat="40.4815069" lon="15.0150507"><ele>13.0</ele><time>2026-03-29T12:50:55.486Z</time></trkpt><trkpt lat="40.4815715" lon="15.0150453"><ele>13.0</ele><time>2026-03-29T12:50:56.445Z</time></trkpt><trkpt lat="40.4816566" lon="15.0150434"><ele>13.0</ele><time>2026-03-29T12:50:57.471Z</time></trkpt><trkpt lat="40.4817623" lon="15.0150512"><ele>13.0</ele><time>2026-03-29T12:50:58.457Z</time></trkpt><trkpt lat="40.4818903" lon="15.015065"><ele>13.0</ele><time>2026-03-29T12:50:59.495Z</time></trkpt><trkpt lat="40.4820153" lon="15.0150797"><ele>12.999999999999998</ele><time>2026-03-29T12:51:00.48Z</time></trkpt><trkpt lat="40.4821354" lon="15.0150959"><ele>13.0</ele><time>2026-03-29T12:51:01.474Z</time></trkpt><trkpt lat="40.4822273" lon="15.01511"><ele>13.0</ele><time>2026-03-29T12:51:02.472Z</time></trkpt><trkpt lat="40.4822922" lon="15.0151183"><ele>13.0</ele><time>2026-03-29T12:51:03.466Z</time></trkpt><trkpt lat="40.4823567" lon="15.0151248"><ele>12.999999999999998</ele><time>2026-03-29T12:51:05.461Z</time></trkpt><trkpt lat="40.4824251" lon="15.0150429"><ele>13.0</ele><time>2026-03-29T12:51:12.491Z</time></trkpt><trkpt lat="40.4824081" lon="15.0148993"><ele>13.0</ele><time>2026-03-29T12:51:14.469Z</time></trkpt><trkpt lat="40.4823771" lon="15.0148149"><ele>13.0</ele><time>2026-03-29T12:51:15.459Z</time></trkpt><trkpt lat="40.4823386" lon="15.0147175"><ele>13.0</ele><time>2026-03-29T12:51:16.459Z</time></trkpt><trkpt lat="40.4822887" lon="15.014597"><ele>13.0</ele><time>2026-03-29T12:51:17.461Z</time></trkpt><trkpt lat="40.4822299" lon="15.014461"><ele>13.0</ele><time>2026-03-29T12:51:18.461Z</time></trkpt><trkpt lat="40.4821496" lon="15.0143221"><ele>13.5</ele><time>2026-03-29T12:51:19.474Z</time></trkpt><trkpt lat="40.482053" lon="15.0141957"><ele>14.0</ele><time>2026-03-29T12:51:20.474Z</time></trkpt><trkpt lat="40.4819444" lon="15.0140839"><ele>14.5</ele><time>2026-03-29T12:51:21.476Z</time></trkpt><trkpt lat="40.4818214" lon="15.013982"><ele>15.0</ele><time>2026-03-29T12:51:22.467Z</time></trkpt><trkpt lat="40.4816736" lon="15.0138745"><ele>15.0</ele><time>2026-03-29T12:51:23.47Z</time></trkpt><trkpt lat="40.4815217" lon="15.0137607"><ele>15.0</ele><time>2026-03-29T12:51:24.47Z</time></trkpt><trkpt lat="40.4813829" lon="15.0136539"><ele>15.0</ele><time>2026-03-29T12:51:25.47Z</time></trkpt><trkpt lat="40.4812518" lon="15.0135513"><ele>15.75</ele><time>2026-03-29T12:51:26.466Z</time></trkpt><trkpt lat="40.4811341" lon="15.0134455"><ele>16.5</ele><time>2026-03-29T12:51:27.471Z</time></trkpt><trkpt lat="40.4810357" lon="15.0133266"><ele>17.25</ele><time>2026-03-29T12:51:28.476Z</time></trkpt><trkpt lat="40.4809529" lon="15.0131822"><ele>18.0</ele><time>2026-03-29T12:51:29.559Z</time></trkpt><trkpt lat="40.4809047" lon="15.0130433"><ele>18.0</ele><time>2026-03-29T12:51:30.472Z</time></trkpt><trkpt lat="40.4808688" lon="15.0128735"><ele>18.0</ele><time>2026-03-29T12:51:31.486Z</time></trkpt><trkpt lat="40.4808518" lon="15.0126968"><ele>18.0</ele><time>2026-03-29T12:51:32.463Z</time></trkpt><trkpt lat="40.4808462" lon="15.0125166"><ele>18.0</ele><time>2026-03-29T12:51:33.467Z</time></trkpt><trkpt lat="40.4808485" lon="15.012342"><ele>17.75</ele><time>2026-03-29T12:51:34.482Z</time></trkpt><trkpt lat="40.4808716" lon="15.0121825"><ele>17.5</ele><time>2026-03-29T12:51:35.462Z</time></trkpt><trkpt lat="40.4809197" lon="15.0120193"><ele>17.25</ele><time>2026-03-29T12:51:36.475Z</time></trkpt><trkpt lat="40.4809734" lon="15.0118688"><ele>17.0</ele><time>2026-03-29T12:51:37.474Z</time></trkpt><trkpt lat="40.4810182" lon="15.0117293"><ele>16.6</ele><time>2026-03-29T12:51:38.488Z</time></trkpt><trkpt lat="40.4810415" lon="15.0115986"><ele>16.2</ele><time>2026-03-29T12:51:39.485Z</time></trkpt><trkpt lat="40.4810407" lon="15.0114684"><ele>15.8</ele><time>2026-03-29T12:51:40.448Z</time></trkpt><trkpt lat="40.4810195" lon="15.0113294"><ele>15.4</ele><time>2026-03-29T12:51:41.457Z</time></trkpt><trkpt lat="40.4809785" lon="15.0111824"><ele>15.0</ele><time>2026-03-29T12:51:42.455Z</time></trkpt><trkpt lat="40.4809211" lon="15.0110168"><ele>15.0</ele><time>2026-03-29T12:51:43.48Z</time></trkpt><trkpt lat="40.4808496" lon="15.0108366"><ele>15.0</ele><time>2026-03-29T12:51:44.548Z</time></trkpt><trkpt lat="40.4807863" lon="15.0106715"><ele>15.0</ele><time>2026-03-29T12:51:45.466Z</time></trkpt><trkpt lat="40.4807094" lon="15.0104714"><ele>15.0</ele><time>2026-03-29T12:51:46.514Z</time></trkpt><trkpt lat="40.4806355" lon="15.0102857"><ele>15.0</ele><time>2026-03-29T12:51:47.472Z</time></trkpt><trkpt lat="40.4805545" lon="15.0100784"><ele>15.0</ele><time>2026-03-29T12:51:48.475Z</time></trkpt><trkpt lat="40.4804815" lon="15.0098807"><ele>15.333333333333332</ele><time>2026-03-29T12:51:49.48Z</time></trkpt><trkpt lat="40.4804129" lon="15.0096951"><ele>15.666666666666666</ele><time>2026-03-29T12:51:50.478Z</time></trkpt><trkpt lat="40.480339" lon="15.0095011"><ele>16.0</ele><time>2026-03-29T12:51:51.505Z</time></trkpt><trkpt lat="40.4802669" lon="15.0093092"><ele>16.0</ele><time>2026-03-29T12:51:52.483Z</time></trkpt><trkpt lat="40.4801912" lon="15.0091089"><ele>16.0</ele><time>2026-03-29T12:51:53.462Z</time></trkpt><trkpt lat="40.4801002" lon="15.0088681"><ele>16.0</ele><time>2026-03-29T12:51:54.586Z</time></trkpt><trkpt lat="40.4800242" lon="15.0086666"><ele>16.0</ele><time>2026-03-29T12:51:55.493Z</time></trkpt><trkpt lat="40.4799397" lon="15.0084496"><ele>16.0</ele><time>2026-03-29T12:51:56.469Z</time></trkpt><trkpt lat="40.4798546" lon="15.008234"><ele>16.0</ele><time>2026-03-29T12:51:57.493Z</time></trkpt><trkpt lat="40.4797814" lon="15.0080374"><ele>16.0</ele><time>2026-03-29T12:51:58.492Z</time></trkpt><trkpt lat="40.4797108" lon="15.0078515"><ele>16.0</ele><time>2026-03-29T12:51:59.496Z</time></trkpt><trkpt lat="40.4796501" lon="15.0076918"><ele>16.0</ele><time>2026-03-29T12:52:00.464Z</time></trkpt><trkpt lat="40.4796" lon="15.0075578"><ele>16.0</ele><time>2026-03-29T12:52:01.48Z</time></trkpt><trkpt lat="40.4795664" lon="15.0074626"><ele>16.2</ele><time>2026-03-29T12:52:02.47Z</time></trkpt><trkpt lat="40.4795252" lon="15.0073612"><ele>16.400000000000002</ele><time>2026-03-29T12:52:04.46Z</time></trkpt><trkpt lat="40.4794286" lon="15.0073568"><ele>16.6</ele><time>2026-03-29T12:52:07.452Z</time></trkpt><trkpt lat="40.4793156" lon="15.0074382"><ele>16.8</ele><time>2026-03-29T12:52:09.459Z</time></trkpt><trkpt lat="40.4792426" lon="15.0074878"><ele>17.0</ele><time>2026-03-29T12:52:10.445Z</time></trkpt><trkpt lat="40.4791487" lon="15.0075522"><ele>17.25</ele><time>2026-03-29T12:52:11.508Z</time></trkpt><trkpt lat="40.4790576" lon="15.0076172"><ele>17.5</ele><time>2026-03-29T12:52:12.451Z</time></trkpt><trkpt lat="40.4789543" lon="15.0076894"><ele>17.75</ele><time>2026-03-29T12:52:13.456Z</time></trkpt><trkpt lat="40.4788459" lon="15.0077655"><ele>18.0</ele><time>2026-03-29T12:52:14.462Z</time></trkpt><trkpt lat="40.4787365" lon="15.0078421"><ele>18.0</ele><time>2026-03-29T12:52:15.482Z</time></trkpt><trkpt lat="40.4786205" lon="15.0079258"><ele>18.0</ele><time>2026-03-29T12:52:16.569Z</time></trkpt><trkpt lat="40.4784097" lon="15.0080744"><ele>18.0</ele><time>2026-03-29T12:52:18.477Z</time></trkpt><trkpt lat="40.4783068" lon="15.0081464"><ele>18.0</ele><time>2026-03-29T12:52:19.474Z</time></trkpt><trkpt lat="40.4782038" lon="15.0082193"><ele>18.0</ele><time>2026-03-29T12:52:20.463Z</time></trkpt><trkpt lat="40.4780961" lon="15.0082956"><ele>18.0</ele><time>2026-03-29T12:52:21.485Z</time></trkpt><trkpt lat="40.4779878" lon="15.008371"><ele>18.0</ele><time>2026-03-29T12:52:22.499Z</time></trkpt><trkpt lat="40.4778776" lon="15.0084467"><ele>17.75</ele><time>2026-03-29T12:52:23.493Z</time></trkpt><trkpt lat="40.4777571" lon="15.0085306"><ele>17.5</ele><time>2026-03-29T12:52:24.558Z</time></trkpt><trkpt lat="40.4776607" lon="15.0085985"><ele>17.25</ele><time>2026-03-29T12:52:25.471Z</time></trkpt><trkpt lat="40.4775666" lon="15.0086653"><ele>17.0</ele><time>2026-03-29T12:52:26.46Z</time></trkpt><trkpt lat="40.477478" lon="15.0087299"><ele>17.0</ele><time>2026-03-29T12:52:27.493Z</time></trkpt><trkpt lat="40.4774024" lon="15.0087836"><ele>17.0</ele><time>2026-03-29T12:52:28.471Z</time></trkpt><trkpt lat="40.4773261" lon="15.0088351"><ele>17.0</ele><time>2026-03-29T12:52:29.524Z</time></trkpt><trkpt lat="40.4772538" lon="15.008885"><ele>17.0</ele><time>2026-03-29T12:52:30.47Z</time></trkpt><trkpt lat="40.477175" lon="15.0089429"><ele>17.0</ele><time>2026-03-29T12:52:31.461Z</time></trkpt><trkpt lat="40.4770951" lon="15.0090004"><ele>17.0</ele><time>2026-03-29T12:52:32.474Z</time></trkpt><trkpt lat="40.477029" lon="15.0090445"><ele>17.2</ele><time>2026-03-29T12:52:33.479Z</time></trkpt><trkpt lat="40.4769422" lon="15.0090827"><ele>17.4</ele><time>2026-03-29T12:52:35.46Z</time></trkpt><trkpt lat="40.4768763" lon="15.0090696"><ele>17.6</ele><time>2026-03-29T12:52:39.475Z</time></trkpt><trkpt lat="40.476797" lon="15.0091209"><ele>17.8</ele><time>2026-03-29T12:52:46.475Z</time></trkpt><trkpt lat="40.4767115" lon="15.0091751"><ele>18.0</ele><time>2026-03-29T12:52:48.458Z</time></trkpt><trkpt lat="40.4766131" lon="15.0092393"><ele>18.0</ele><time>2026-03-29T12:52:50.486Z</time></trkpt><trkpt lat="40.4765187" lon="15.009302"><ele>18.0</ele><time>2026-03-29T12:52:52.475Z</time></trkpt><trkpt lat="40.4764382" lon="15.009321"><ele>18.0</ele><time>2026-03-29T12:52:54.498Z</time></trkpt><trkpt lat="40.4763818" lon="15.0092745"><ele>18.0</ele><time>2026-03-29T12:52:56.507Z</time></trkpt><trkpt lat="40.4763431" lon="15.0091832"><ele>18.0</ele><time>2026-03-29T12:52:58.517Z</time></trkpt><trkpt lat="40.4763143" lon="15.0090931"><ele>18.0</ele><time>2026-03-29T12:53:00.458Z</time></trkpt><trkpt lat="40.4762467" lon="15.0090426"><ele>18.0</ele><time>2026-03-29T12:53:19.487Z</time></trkpt><trkpt lat="40.4761581" lon="15.0090886"><ele>18.0</ele><time>2026-03-29T12:53:22.477Z</time></trkpt><trkpt lat="40.4760811" lon="15.0091397"><ele>18.0</ele><time>2026-03-29T12:53:24.486Z</time></trkpt><trkpt lat="40.476005" lon="15.0091954"><ele>18.0</ele><time>2026-03-29T12:53:26.47Z</time></trkpt><trkpt lat="40.4759471" lon="15.0092633"><ele>18.0</ele><time>2026-03-29T12:53:29.506Z</time></trkpt><trkpt lat="40.4759942" lon="15.0094048"><ele>18.0</ele><time>2026-03-29T12:53:33.471Z</time></trkpt><trkpt lat="40.4760332" lon="15.0094987"><ele>18.0</ele><time>2026-03-29T12:53:35.475Z</time></trkpt><trkpt lat="40.4760404" lon="15.0096029"><ele>18.0</ele><time>2026-03-29T12:53:38.463Z</time></trkpt><trkpt lat="40.4759693" lon="15.0096889"><ele>18.0</ele><time>2026-03-29T12:53:41.482Z</time></trkpt><trkpt lat="40.4758857" lon="15.0097502"><ele>18.0</ele><time>2026-03-29T12:53:43.497Z</time></trkpt><trkpt lat="40.475792" lon="15.0098158"><ele>18.0</ele><time>2026-03-29T12:53:45.481Z</time></trkpt><trkpt lat="40.4756977" lon="15.0098738"><ele>18.0</ele><time>2026-03-29T12:53:47.51Z</time></trkpt><trkpt lat="40.4756231" lon="15.0099021"><ele>18.0</ele><time>2026-03-29T12:53:49.467Z</time></trkpt><trkpt lat="40.4755359" lon="15.009886"><ele>18.0</ele><time>2026-03-29T12:53:51.469Z</time></trkpt><trkpt lat="40.4754049" lon="15.0098407"><ele>18.0</ele><time>2026-03-29T12:53:53.466Z</time></trkpt><trkpt lat="40.4753348" lon="15.0098116"><ele>18.2</ele><time>2026-03-29T12:53:54.459Z</time></trkpt><trkpt lat="40.4752586" lon="15.0097769"><ele>18.4</ele><time>2026-03-29T12:53:55.475Z</time></trkpt><trkpt lat="40.4751703" lon="15.0097375"><ele>18.599999999999998</ele><time>2026-03-29T12:53:56.491Z</time></trkpt><trkpt lat="40.4750808" lon="15.0096979"><ele>18.8</ele><time>2026-03-29T12:53:57.464Z</time></trkpt><trkpt lat="40.4749924" lon="15.0096588"><ele>19.0</ele><time>2026-03-29T12:53:58.462Z</time></trkpt><trkpt lat="40.4749014" lon="15.0096218"><ele>19.0</ele><time>2026-03-29T12:53:59.453Z</time></trkpt><trkpt lat="40.4748083" lon="15.0095803"><ele>19.0</ele><time>2026-03-29T12:54:00.469Z</time></trkpt><trkpt lat="40.4747144" lon="15.0095392"><ele>19.0</ele><time>2026-03-29T12:54:01.475Z</time></trkpt><trkpt lat="40.4746294" lon="15.009502"><ele>19.0</ele><time>2026-03-29T12:54:02.445Z</time></trkpt><trkpt lat="40.4745574" lon="15.0094676"><ele>19.0</ele><time>2026-03-29T12:54:03.459Z</time></trkpt><trkpt lat="40.4744869" lon="15.0094343"><ele>19.0</ele><time>2026-03-29T12:54:04.465Z</time></trkpt><trkpt lat="40.4744123" lon="15.0094002"><ele>19.2</ele><time>2026-03-29T12:54:05.463Z</time></trkpt><trkpt lat="40.4743202" lon="15.009361"><ele>19.4</ele><time>2026-03-29T12:54:06.488Z</time></trkpt><trkpt lat="40.4742212" lon="15.00932"><ele>19.6</ele><time>2026-03-29T12:54:07.456Z</time></trkpt><trkpt lat="40.4741258" lon="15.0092766"><ele>19.8</ele><time>2026-03-29T12:54:08.458Z</time></trkpt><trkpt lat="40.4740392" lon="15.0092394"><ele>20.0</ele><time>2026-03-29T12:54:09.456Z</time></trkpt><trkpt lat="40.4739651" lon="15.0092038"><ele>20.0</ele><time>2026-03-29T12:54:10.468Z</time></trkpt><trkpt lat="40.4738953" lon="15.0091662"><ele>20.0</ele><time>2026-03-29T12:54:11.459Z</time></trkpt><trkpt lat="40.4738213" lon="15.009127"><ele>20.0</ele><time>2026-03-29T12:54:12.47Z</time></trkpt><trkpt lat="40.4737397" lon="15.0090934"><ele>20.0</ele><time>2026-03-29T12:54:13.478Z</time></trkpt><trkpt lat="40.4736566" lon="15.0090619"><ele>20.0</ele><time>2026-03-29T12:54:14.459Z</time></trkpt><trkpt lat="40.4735641" lon="15.0090342"><ele>20.0</ele><time>2026-03-29T12:54:15.487Z</time></trkpt><trkpt lat="40.473473" lon="15.0090028"><ele>20.25</ele><time>2026-03-29T12:54:16.465Z</time></trkpt><trkpt lat="40.4733759" lon="15.0089646"><ele>20.5</ele><time>2026-03-29T12:54:17.476Z</time></trkpt><trkpt lat="40.4732692" lon="15.0089238"><ele>20.75</ele><time>2026-03-29T12:54:18.582Z</time></trkpt><trkpt lat="40.4730742" lon="15.0088463"><ele>21.0</ele><time>2026-03-29T12:54:20.483Z</time></trkpt><trkpt lat="40.4729634" lon="15.008809"><ele>21.0</ele><time>2026-03-29T12:54:21.477Z</time></trkpt><trkpt lat="40.4728574" lon="15.0087673"><ele>21.0</ele><time>2026-03-29T12:54:22.474Z</time></trkpt><trkpt lat="40.4727592" lon="15.0087272"><ele>21.0</ele><time>2026-03-29T12:54:23.473Z</time></trkpt><trkpt lat="40.4726586" lon="15.0086937"><ele>21.0</ele><time>2026-03-29T12:54:24.476Z</time></trkpt><trkpt lat="40.4725571" lon="15.0086544"><ele>21.0</ele><time>2026-03-29T12:54:25.484Z</time></trkpt><trkpt lat="40.4724588" lon="15.0086161"><ele>21.0</ele><time>2026-03-29T12:54:26.468Z</time></trkpt><trkpt lat="40.4723605" lon="15.0085818"><ele>21.0</ele><time>2026-03-29T12:54:27.47Z</time></trkpt><trkpt lat="40.4722681" lon="15.008549"><ele>21.0</ele><time>2026-03-29T12:54:28.469Z</time></trkpt><trkpt lat="40.4721834" lon="15.0085177"><ele>21.0</ele><time>2026-03-29T12:54:29.494Z</time></trkpt><trkpt lat="40.4721065" lon="15.0085018"><ele>21.0</ele><time>2026-03-29T12:54:30.504Z</time></trkpt><trkpt lat="40.4720386" lon="15.0085018"><ele>21.0</ele><time>2026-03-29T12:54:31.489Z</time></trkpt><trkpt lat="40.4719207" lon="15.0085532"><ele>21.166666666666668</ele><time>2026-03-29T12:54:33.488Z</time></trkpt><trkpt lat="40.4718625" lon="15.0085863"><ele>21.333333333333332</ele><time>2026-03-29T12:54:34.471Z</time></trkpt><trkpt lat="40.4717588" lon="15.0086759"><ele>21.5</ele><time>2026-03-29T12:54:36.517Z</time></trkpt><trkpt lat="40.4716991" lon="15.0087359"><ele>21.666666666666664</ele><time>2026-03-29T12:54:37.516Z</time></trkpt><trkpt lat="40.4716396" lon="15.0087902"><ele>21.833333333333332</ele><time>2026-03-29T12:54:38.453Z</time></trkpt><trkpt lat="40.4715766" lon="15.0088446"><ele>22.0</ele><time>2026-03-29T12:54:39.465Z</time></trkpt><trkpt lat="40.4715132" lon="15.0089081"><ele>22.0</ele><time>2026-03-29T12:54:40.482Z</time></trkpt><trkpt lat="40.4714405" lon="15.008983"><ele>22.0</ele><time>2026-03-29T12:54:41.573Z</time></trkpt><trkpt lat="40.4713717" lon="15.0090465"><ele>22.0</ele><time>2026-03-29T12:54:42.478Z</time></trkpt><trkpt lat="40.4712963" lon="15.0091224"><ele>22.0</ele><time>2026-03-29T12:54:43.497Z</time></trkpt><trkpt lat="40.4712342" lon="15.0091885"><ele>22.0</ele><time>2026-03-29T12:54:44.471Z</time></trkpt><trkpt lat="40.4711703" lon="15.0092525"><ele>22.0</ele><time>2026-03-29T12:54:45.454Z</time></trkpt><trkpt lat="40.4711018" lon="15.0093215"><ele>22.333333333333332</ele><time>2026-03-29T12:54:46.477Z</time></trkpt><trkpt lat="40.4710322" lon="15.0093897"><ele>22.666666666666664</ele><time>2026-03-29T12:54:47.469Z</time></trkpt><trkpt lat="40.4709598" lon="15.0094616"><ele>23.0</ele><time>2026-03-29T12:54:48.502Z</time></trkpt><trkpt lat="40.4708873" lon="15.0095345"><ele>23.333333333333332</ele><time>2026-03-29T12:54:49.48Z</time></trkpt><trkpt lat="40.4708196" lon="15.0096027"><ele>23.666666666666668</ele><time>2026-03-29T12:54:50.476Z</time></trkpt><trkpt lat="40.4707619" lon="15.0096617"><ele>24.0</ele><time>2026-03-29T12:54:51.461Z</time></trkpt><trkpt lat="40.4707102" lon="15.0097158"><ele>24.0</ele><time>2026-03-29T12:54:52.478Z</time></trkpt><trkpt lat="40.4706583" lon="15.0097707"><ele>24.0</ele><time>2026-03-29T12:54:53.611Z</time></trkpt><trkpt lat="40.4705812" lon="15.0098443"><ele>24.0</ele><time>2026-03-29T12:54:55.471Z</time></trkpt><trkpt lat="40.4705126" lon="15.0098945"><ele>24.0</ele><time>2026-03-29T12:54:57.457Z</time></trkpt><trkpt lat="40.4704254" lon="15.0099339"><ele>24.0</ele><time>2026-03-29T12:54:59.493Z</time></trkpt><trkpt lat="40.4703299" lon="15.0099611"><ele>24.0</ele><time>2026-03-29T12:55:01.472Z</time></trkpt><trkpt lat="40.470265" lon="15.0099803"><ele>24.0</ele><time>2026-03-29T12:55:02.485Z</time></trkpt><trkpt lat="40.4701957" lon="15.0100004"><ele>24.0</ele><time>2026-03-29T12:55:03.487Z</time></trkpt><trkpt lat="40.4701278" lon="15.0100203"><ele>24.0</ele><time>2026-03-29T12:55:04.45Z</time></trkpt><trkpt lat="40.4700576" lon="15.0100282"><ele>24.0</ele><time>2026-03-29T12:55:06.48Z</time></trkpt><trkpt lat="40.470157" lon="15.010034"><ele>24.0</ele><time>2026-03-29T12:55:14.497Z</time></trkpt><trkpt lat="40.4702653" lon="15.0099969"><ele>24.0</ele><time>2026-03-29T12:55:16.499Z</time></trkpt><trkpt lat="40.4703658" lon="15.0099739"><ele>24.166666666666668</ele><time>2026-03-29T12:55:18.464Z</time></trkpt><trkpt lat="40.4704187" lon="15.0099188"><ele>24.333333333333336</ele><time>2026-03-29T12:55:21.481Z</time></trkpt><trkpt lat="40.4704181" lon="15.0098058"><ele>24.5</ele><time>2026-03-29T12:55:24.484Z</time></trkpt><trkpt lat="40.4703799" lon="15.0096873"><ele>24.666666666666668</ele><time>2026-03-29T12:55:26.476Z</time></trkpt><trkpt lat="40.4703548" lon="15.0096088"><ele>24.833333333333336</ele><time>2026-03-29T12:55:27.469Z</time></trkpt><trkpt lat="40.4703147" lon="15.0094571"><ele>25.0</ele><time>2026-03-29T12:55:29.464Z</time></trkpt><trkpt lat="40.4702795" lon="15.0093056"><ele>24.4</ele><time>2026-03-29T12:55:31.462Z</time></trkpt><trkpt lat="40.4702335" lon="15.0091519"><ele>23.8</ele><time>2026-03-29T12:55:33.48Z</time></trkpt><trkpt lat="40.4702086" lon="15.0090654"><ele>23.200000000000003</ele><time>2026-03-29T12:55:34.486Z</time></trkpt><trkpt lat="40.4701861" lon="15.0089879"><ele>22.6</ele><time>2026-03-29T12:55:35.491Z</time></trkpt><trkpt lat="40.4701414" lon="15.0088218"><ele>22.0</ele><time>2026-03-29T12:55:37.491Z</time></trkpt><trkpt lat="40.4701185" lon="15.0087391"><ele>22.0</ele><time>2026-03-29T12:55:38.462Z</time></trkpt><trkpt lat="40.4700837" lon="15.0086328"><ele>22.0</ele><time>2026-03-29T12:55:39.511Z</time></trkpt><trkpt lat="40.470045" lon="15.0085203"><ele>22.0</ele><time>2026-03-29T12:55:40.469Z</time></trkpt><trkpt lat="40.4700118" lon="15.0084059"><ele>22.0</ele><time>2026-03-29T12:55:41.48Z</time></trkpt><trkpt lat="40.4699802" lon="15.0082967"><ele>22.0</ele><time>2026-03-29T12:55:42.483Z</time></trkpt><trkpt lat="40.4699503" lon="15.0081868"><ele>22.0</ele><time>2026-03-29T12:55:43.467Z</time></trkpt><trkpt lat="40.4699225" lon="15.0080756"><ele>22.0</ele><time>2026-03-29T12:55:44.463Z</time></trkpt><trkpt lat="40.4698937" lon="15.0079533"><ele>22.0</ele><time>2026-03-29T12:55:45.588Z</time></trkpt><trkpt lat="40.4698469" lon="15.0077717"><ele>22.0</ele><time>2026-03-29T12:55:47.492Z</time></trkpt><trkpt lat="40.4697985" lon="15.0076339"><ele>22.0</ele><time>2026-03-29T12:55:49.46Z</time></trkpt><trkpt lat="40.4697461" lon="15.0075536"><ele>22.0</ele><time>2026-03-29T12:55:51.455Z</time></trkpt><trkpt lat="40.4696533" lon="15.0074932"><ele>22.0</ele><time>2026-03-29T12:55:53.467Z</time></trkpt><trkpt lat="40.469537" lon="15.007411"><ele>22.0</ele><time>2026-03-29T12:55:55.468Z</time></trkpt><trkpt lat="40.4694789" lon="15.007367"><ele>22.0</ele><time>2026-03-29T12:55:56.449Z</time></trkpt><trkpt lat="40.4694152" lon="15.0073226"><ele>22.0</ele><time>2026-03-29T12:55:57.517Z</time></trkpt><trkpt lat="40.469319" lon="15.0072862"><ele>22.0</ele><time>2026-03-29T12:55:59.453Z</time></trkpt><trkpt lat="40.4692032" lon="15.0073023"><ele>22.0</ele><time>2026-03-29T12:56:01.49Z</time></trkpt><trkpt lat="40.4690688" lon="15.007334"><ele>22.0</ele><time>2026-03-29T12:56:03.499Z</time></trkpt><trkpt lat="40.4689987" lon="15.0073528"><ele>22.0</ele><time>2026-03-29T12:56:04.463Z</time></trkpt><trkpt lat="40.4689257" lon="15.0073694"><ele>22.0</ele><time>2026-03-29T12:56:05.474Z</time></trkpt><trkpt lat="40.4688516" lon="15.007386"><ele>22.142857142857142</ele><time>2026-03-29T12:56:06.46Z</time></trkpt><trkpt lat="40.4687741" lon="15.0073995"><ele>22.285714285714285</ele><time>2026-03-29T12:56:07.449Z</time></trkpt><trkpt lat="40.4686964" lon="15.0074117"><ele>22.42857142857143</ele><time>2026-03-29T12:56:08.471Z</time></trkpt><trkpt lat="40.4686247" lon="15.0074247"><ele>22.57142857142857</ele><time>2026-03-29T12:56:09.45Z</time></trkpt><trkpt lat="40.4685505" lon="15.007437"><ele>22.71428571428571</ele><time>2026-03-29T12:56:10.463Z</time></trkpt><trkpt lat="40.4684745" lon="15.0074511"><ele>22.857142857142858</ele><time>2026-03-29T12:56:11.464Z</time></trkpt><trkpt lat="40.4684106" lon="15.007466"><ele>23.0</ele><time>2026-03-29T12:56:12.459Z</time></trkpt><trkpt lat="40.4683081" lon="15.0074976"><ele>23.0</ele><time>2026-03-29T12:56:14.461Z</time></trkpt><trkpt lat="40.468219" lon="15.0075322"><ele>23.0</ele><time>2026-03-29T12:56:16.442Z</time></trkpt><trkpt lat="40.4681464" lon="15.0075712"><ele>23.0</ele><time>2026-03-29T12:56:18.442Z</time></trkpt><trkpt lat="40.4680565" lon="15.0076403"><ele>23.0</ele><time>2026-03-29T12:56:28.464Z</time></trkpt><trkpt lat="40.4679414" lon="15.007735"><ele>23.0</ele><time>2026-03-29T12:56:30.522Z</time></trkpt><trkpt lat="40.4678753" lon="15.007788"><ele>23.0</ele><time>2026-03-29T12:56:31.536Z</time></trkpt><trkpt lat="40.4678032" lon="15.0078443"><ele>23.0</ele><time>2026-03-29T12:56:32.542Z</time></trkpt><trkpt lat="40.467724" lon="15.0079047"><ele>23.0</ele><time>2026-03-29T12:56:33.533Z</time></trkpt><trkpt lat="40.4676469" lon="15.0079611"><ele>23.0</ele><time>2026-03-29T12:56:34.544Z</time></trkpt><trkpt lat="40.467567" lon="15.0080237"><ele>23.0</ele><time>2026-03-29T12:56:35.662Z</time></trkpt><trkpt lat="40.4674314" lon="15.0081347"><ele>23.0</ele><time>2026-03-29T12:56:37.535Z</time></trkpt><trkpt lat="40.4673678" lon="15.0081856"><ele>23.0</ele><time>2026-03-29T12:56:38.546Z</time></trkpt><trkpt lat="40.4672532" lon="15.008301"><ele>23.0</ele><time>2026-03-29T12:56:41.497Z</time></trkpt><trkpt lat="40.4672306" lon="15.0084212"><ele>23.0</ele><time>2026-03-29T12:56:44.5Z</time></trkpt><trkpt lat="40.4672644" lon="15.0085561"><ele>23.0</ele><time>2026-03-29T12:56:46.59Z</time></trkpt><trkpt lat="40.4673176" lon="15.0087119"><ele>23.0</ele><time>2026-03-29T12:56:48.478Z</time></trkpt><trkpt lat="40.467347" lon="15.0088014"><ele>23.0</ele><time>2026-03-29T12:56:49.456Z</time></trkpt><trkpt lat="40.4673784" lon="15.0089127"><ele>23.0</ele><time>2026-03-29T12:56:50.477Z</time></trkpt><trkpt lat="40.4674087" lon="15.009032"><ele>23.0</ele><time>2026-03-29T12:56:51.47Z</time></trkpt><trkpt lat="40.4674383" lon="15.0091574"><ele>23.0</ele><time>2026-03-29T12:56:52.478Z</time></trkpt><trkpt lat="40.4674667" lon="15.0092784"><ele>23.0</ele><time>2026-03-29T12:56:53.456Z</time></trkpt><trkpt lat="40.4674954" lon="15.009403"><ele>23.0</ele><time>2026-03-29T12:56:54.473Z</time></trkpt><trkpt lat="40.4675246" lon="15.0095301"><ele>23.0</ele><time>2026-03-29T12:56:55.475Z</time></trkpt><trkpt lat="40.4675533" lon="15.0096594"><ele>23.0</ele><time>2026-03-29T12:56:56.479Z</time></trkpt><trkpt lat="40.4675802" lon="15.0097787"><ele>23.0</ele><time>2026-03-29T12:56:57.469Z</time></trkpt><trkpt lat="40.4676087" lon="15.0099006"><ele>22.799999999999997</ele><time>2026-03-29T12:56:58.471Z</time></trkpt><trkpt lat="40.4676364" lon="15.0100246"><ele>22.6</ele><time>2026-03-29T12:56:59.474Z</time></trkpt><trkpt lat="40.4676657" lon="15.0101543"><ele>22.4</ele><time>2026-03-29T12:57:00.499Z</time></trkpt><trkpt lat="40.4676943" lon="15.0102793"><ele>22.200000000000003</ele><time>2026-03-29T12:57:01.479Z</time></trkpt><trkpt lat="40.4677219" lon="15.0104041"><ele>22.0</ele><time>2026-03-29T12:57:02.471Z</time></trkpt><trkpt lat="40.4677495" lon="15.010523"><ele>22.0</ele><time>2026-03-29T12:57:03.487Z</time></trkpt><trkpt lat="40.4677799" lon="15.0106373"><ele>22.0</ele><time>2026-03-29T12:57:04.549Z</time></trkpt><trkpt lat="40.4678055" lon="15.0107384"><ele>22.0</ele><time>2026-03-29T12:57:05.503Z</time></trkpt><trkpt lat="40.4678266" lon="15.0108491"><ele>22.0</ele><time>2026-03-29T12:57:06.482Z</time></trkpt><trkpt lat="40.467853" lon="15.010977"><ele>22.0</ele><time>2026-03-29T12:57:07.616Z</time></trkpt><trkpt lat="40.4678937" lon="15.011149"><ele>22.200000000000003</ele><time>2026-03-29T12:57:09.468Z</time></trkpt><trkpt lat="40.4679257" lon="15.0112506"><ele>22.4</ele><time>2026-03-29T12:57:10.445Z</time></trkpt><trkpt lat="40.4679682" lon="15.0113682"><ele>22.6</ele><time>2026-03-29T12:57:11.482Z</time></trkpt><trkpt lat="40.4680144" lon="15.0114942"><ele>22.799999999999997</ele><time>2026-03-29T12:57:12.465Z</time></trkpt><trkpt lat="40.4680617" lon="15.0116319"><ele>23.0</ele><time>2026-03-29T12:57:13.468Z</time></trkpt><trkpt lat="40.4681073" lon="15.0117548"><ele>23.0</ele><time>2026-03-29T12:57:14.471Z</time></trkpt><trkpt lat="40.4681498" lon="15.0118617"><ele>23.0</ele><time>2026-03-29T12:57:15.456Z</time></trkpt><trkpt lat="40.4681996" lon="15.0119959"><ele>23.0</ele><time>2026-03-29T12:57:16.458Z</time></trkpt><trkpt lat="40.4682454" lon="15.0121323"><ele>23.0</ele><time>2026-03-29T12:57:17.465Z</time></trkpt><trkpt lat="40.4682905" lon="15.0122574"><ele>23.0</ele><time>2026-03-29T12:57:18.469Z</time></trkpt><trkpt lat="40.4683369" lon="15.012374"><ele>23.0</ele><time>2026-03-29T12:57:19.46Z</time></trkpt><trkpt lat="40.4683887" lon="15.0124971"><ele>23.0</ele><time>2026-03-29T12:57:20.568Z</time></trkpt><trkpt lat="40.4684447" lon="15.012569"><ele>23.0</ele><time>2026-03-29T12:57:22.466Z</time></trkpt><trkpt lat="40.4684836" lon="15.0126527"><ele>23.0</ele><time>2026-03-29T12:57:23.464Z</time></trkpt><trkpt lat="40.4685174" lon="15.0127278"><ele>23.0</ele><time>2026-03-29T12:57:24.449Z</time></trkpt><trkpt lat="40.4685408" lon="15.0128468"><ele>23.0</ele><time>2026-03-29T12:57:26.466Z</time></trkpt><trkpt lat="40.4684797" lon="15.0129254"><ele>23.0</ele><time>2026-03-29T12:57:29.475Z</time></trkpt><trkpt lat="40.4683762" lon="15.012932"><ele>23.0</ele><time>2026-03-29T12:57:31.458Z</time></trkpt><trkpt lat="40.468299" lon="15.0129272"><ele>23.0</ele><time>2026-03-29T12:57:32.454Z</time></trkpt><trkpt lat="40.4682063" lon="15.012923"><ele>23.0</ele><time>2026-03-29T12:57:33.463Z</time></trkpt><trkpt lat="40.4681018" lon="15.0129211"><ele>23.0</ele><time>2026-03-29T12:57:34.479Z</time></trkpt><trkpt lat="40.4679905" lon="15.0129204"><ele>23.0</ele><time>2026-03-29T12:57:35.484Z</time></trkpt><trkpt lat="40.4678759" lon="15.0129201"><ele>23.0</ele><time>2026-03-29T12:57:36.493Z</time></trkpt><trkpt lat="40.4677647" lon="15.0129202"><ele>23.0</ele><time>2026-03-29T12:57:37.458Z</time></trkpt><trkpt lat="40.4676463" lon="15.012921"><ele>23.0</ele><time>2026-03-29T12:57:38.472Z</time></trkpt><trkpt lat="40.4675319" lon="15.0129244"><ele>23.0</ele><time>2026-03-29T12:57:39.466Z</time></trkpt><trkpt lat="40.4674207" lon="15.0129265"><ele>23.0</ele><time>2026-03-29T12:57:40.475Z</time></trkpt><trkpt lat="40.4673026" lon="15.0129297"><ele>23.0</ele><time>2026-03-29T12:57:41.486Z</time></trkpt><trkpt lat="40.4671955" lon="15.0129377"><ele>23.0</ele><time>2026-03-29T12:57:42.498Z</time></trkpt><trkpt lat="40.4670707" lon="15.0129473"><ele>23.0</ele><time>2026-03-29T12:57:43.581Z</time></trkpt><trkpt lat="40.4668339" lon="15.0129661"><ele>23.0</ele><time>2026-03-29T12:57:45.48Z</time></trkpt><trkpt lat="40.4666996" lon="15.0129805"><ele>23.0</ele><time>2026-03-29T12:57:46.472Z</time></trkpt><trkpt lat="40.4665546" lon="15.012995"><ele>23.0</ele><time>2026-03-29T12:57:47.492Z</time></trkpt><trkpt lat="40.4664087" lon="15.0130044"><ele>23.0</ele><time>2026-03-29T12:57:48.499Z</time></trkpt><trkpt lat="40.4662725" lon="15.0130116"><ele>23.0</ele><time>2026-03-29T12:57:49.447Z</time></trkpt><trkpt lat="40.4661265" lon="15.0130194"><ele>23.0</ele><time>2026-03-29T12:57:50.452Z</time></trkpt><trkpt lat="40.4659834" lon="15.0130259"><ele>23.25</ele><time>2026-03-29T12:57:51.475Z</time></trkpt><trkpt lat="40.4658469" lon="15.0130299"><ele>23.5</ele><time>2026-03-29T12:57:52.494Z</time></trkpt><trkpt lat="40.465716" lon="15.0130346"><ele>23.75</ele><time>2026-03-29T12:57:53.47Z</time></trkpt><trkpt lat="40.4655782" lon="15.0130328"><ele>24.0</ele><time>2026-03-29T12:57:54.486Z</time></trkpt><trkpt lat="40.4654431" lon="15.013028"><ele>24.25</ele><time>2026-03-29T12:57:55.486Z</time></trkpt><trkpt lat="40.4653002" lon="15.013024"><ele>24.5</ele><time>2026-03-29T12:57:56.472Z</time></trkpt><trkpt lat="40.4651583" lon="15.0130115"><ele>24.75</ele><time>2026-03-29T12:57:57.475Z</time></trkpt><trkpt lat="40.4650132" lon="15.0129993"><ele>25.0</ele><time>2026-03-29T12:57:58.493Z</time></trkpt><trkpt lat="40.4648771" lon="15.0129853"><ele>25.0</ele><time>2026-03-29T12:57:59.468Z</time></trkpt><trkpt lat="40.4647382" lon="15.0129679"><ele>25.0</ele><time>2026-03-29T12:58:00.463Z</time></trkpt><trkpt lat="40.4645958" lon="15.0129494"><ele>25.0</ele><time>2026-03-29T12:58:01.464Z</time></trkpt><trkpt lat="40.464456" lon="15.0129327"><ele>25.0</ele><time>2026-03-29T12:58:02.466Z</time></trkpt><trkpt lat="40.4643113" lon="15.0129133"><ele>24.75</ele><time>2026-03-29T12:58:03.489Z</time></trkpt><trkpt lat="40.4641683" lon="15.0128947"><ele>24.5</ele><time>2026-03-29T12:58:04.5Z</time></trkpt><trkpt lat="40.4640292" lon="15.0128819"><ele>24.25</ele><time>2026-03-29T12:58:05.463Z</time></trkpt><trkpt lat="40.4638912" lon="15.0128648"><ele>24.0</ele><time>2026-03-29T12:58:06.464Z</time></trkpt><trkpt lat="40.4637533" lon="15.0128469"><ele>24.0</ele><time>2026-03-29T12:58:07.492Z</time></trkpt><trkpt lat="40.4636192" lon="15.0128322"><ele>24.0</ele><time>2026-03-29T12:58:08.504Z</time></trkpt><trkpt lat="40.4634974" lon="15.0128221"><ele>24.0</ele><time>2026-03-29T12:58:09.472Z</time></trkpt><trkpt lat="40.4633701" lon="15.0128092"><ele>24.0</ele><time>2026-03-29T12:58:10.487Z</time></trkpt><trkpt lat="40.4632567" lon="15.0127957"><ele>24.0</ele><time>2026-03-29T12:58:11.462Z</time></trkpt><trkpt lat="40.4631397" lon="15.012781"><ele>24.0</ele><time>2026-03-29T12:58:12.599Z</time></trkpt><trkpt lat="40.4630639" lon="15.0127664"><ele>24.0</ele><time>2026-03-29T12:58:13.5Z</time></trkpt><trkpt lat="40.4629626" lon="15.0127332"><ele>24.0</ele><time>2026-03-29T12:58:15.473Z</time></trkpt><trkpt lat="40.4628896" lon="15.0126976"><ele>24.0</ele><time>2026-03-29T12:58:19.481Z</time></trkpt><trkpt lat="40.4627628" lon="15.0126798"><ele>23.5</ele><time>2026-03-29T12:58:21.472Z</time></trkpt><trkpt lat="40.4626817" lon="15.0126854"><ele>23.0</ele><time>2026-03-29T12:58:22.47Z</time></trkpt><trkpt lat="40.4625706" lon="15.0126914"><ele>22.5</ele><time>2026-03-29T12:58:23.463Z</time></trkpt><trkpt lat="40.4624237" lon="15.012687"><ele>22.0</ele><time>2026-03-29T12:58:24.49Z</time></trkpt><trkpt lat="40.4622725" lon="15.012675"><ele>22.333333333333332</ele><time>2026-03-29T12:58:25.48Z</time></trkpt><trkpt lat="40.4620998" lon="15.0126558"><ele>22.666666666666668</ele><time>2026-03-29T12:58:26.457Z</time></trkpt><trkpt lat="40.4619087" lon="15.0126327"><ele>23.0</ele><time>2026-03-29T12:58:27.482Z</time></trkpt><trkpt lat="40.4617132" lon="15.0126096"><ele>23.0</ele><time>2026-03-29T12:58:28.615Z</time></trkpt><trkpt lat="40.4615647" lon="15.0125916"><ele>23.0</ele><time>2026-03-29T12:58:29.49Z</time></trkpt><trkpt lat="40.461378" lon="15.012568"><ele>23.0</ele><time>2026-03-29T12:58:30.493Z</time></trkpt><trkpt lat="40.4611562" lon="15.0125409"><ele>22.666666666666668</ele><time>2026-03-29T12:58:31.517Z</time></trkpt><trkpt lat="40.460946" lon="15.0125178"><ele>22.333333333333332</ele><time>2026-03-29T12:58:32.478Z</time></trkpt><trkpt lat="40.4607217" lon="15.0124926"><ele>22.0</ele><time>2026-03-29T12:58:33.473Z</time></trkpt><trkpt lat="40.4605031" lon="15.012467"><ele>21.333333333333332</ele><time>2026-03-29T12:58:34.462Z</time></trkpt><trkpt lat="40.4602884" lon="15.0124455"><ele>20.666666666666668</ele><time>2026-03-29T12:58:35.486Z</time></trkpt><trkpt lat="40.4601095" lon="15.012424"><ele>20.0</ele><time>2026-03-29T12:58:36.472Z</time></trkpt><trkpt lat="40.4599312" lon="15.0124024"><ele>20.0</ele><time>2026-03-29T12:58:37.503Z</time></trkpt><trkpt lat="40.4597652" lon="15.0123794"><ele>20.0</ele><time>2026-03-29T12:58:38.477Z</time></trkpt><trkpt lat="40.4595984" lon="15.0123597"><ele>20.0</ele><time>2026-03-29T12:58:39.476Z</time></trkpt><trkpt lat="40.4594355" lon="15.0123452"><ele>20.333333333333336</ele><time>2026-03-29T12:58:40.489Z</time></trkpt><trkpt lat="40.4592767" lon="15.0123327"><ele>20.666666666666668</ele><time>2026-03-29T12:58:41.495Z</time></trkpt><trkpt lat="40.4591066" lon="15.0123122"><ele>21.0</ele><time>2026-03-29T12:58:42.492Z</time></trkpt><trkpt lat="40.4589433" lon="15.0122915"><ele>21.0</ele><time>2026-03-29T12:58:43.508Z</time></trkpt><trkpt lat="40.45879" lon="15.0122717"><ele>21.0</ele><time>2026-03-29T12:58:44.484Z</time></trkpt><trkpt lat="40.4586308" lon="15.0122501"><ele>21.0</ele><time>2026-03-29T12:58:45.517Z</time></trkpt><trkpt lat="40.4584865" lon="15.0122252"><ele>21.666666666666668</ele><time>2026-03-29T12:58:46.487Z</time></trkpt><trkpt lat="40.4583407" lon="15.0122064"><ele>22.333333333333336</ele><time>2026-03-29T12:58:47.476Z</time></trkpt><trkpt lat="40.4581947" lon="15.0121901"><ele>23.0</ele><time>2026-03-29T12:58:48.439Z</time></trkpt><trkpt lat="40.4580303" lon="15.0121728"><ele>23.75</ele><time>2026-03-29T12:58:49.501Z</time></trkpt><trkpt lat="40.4578742" lon="15.012156"><ele>24.5</ele><time>2026-03-29T12:58:50.502Z</time></trkpt><trkpt lat="40.4577309" lon="15.0121414"><ele>25.25</ele><time>2026-03-29T12:58:51.458Z</time></trkpt><trkpt lat="40.4575862" lon="15.0121264"><ele>26.0</ele><time>2026-03-29T12:58:52.484Z</time></trkpt><trkpt lat="40.4574538" lon="15.0121101"><ele>26.0</ele><time>2026-03-29T12:58:53.464Z</time></trkpt><trkpt lat="40.4573165" lon="15.0120921"><ele>26.0</ele><time>2026-03-29T12:58:54.503Z</time></trkpt><trkpt lat="40.4571958" lon="15.012078"><ele>26.0</ele><time>2026-03-29T12:58:55.468Z</time></trkpt><trkpt lat="40.4570775" lon="15.0120646"><ele>26.0</ele><time>2026-03-29T12:58:56.46Z</time></trkpt><trkpt lat="40.4569707" lon="15.012053"><ele>26.166666666666664</ele><time>2026-03-29T12:58:57.45Z</time></trkpt><trkpt lat="40.4568666" lon="15.0120413"><ele>26.333333333333332</ele><time>2026-03-29T12:58:58.491Z</time></trkpt><trkpt lat="40.4567746" lon="15.0120333"><ele>26.5</ele><time>2026-03-29T12:58:59.463Z</time></trkpt><trkpt lat="40.456688" lon="15.0120248"><ele>26.666666666666664</ele><time>2026-03-29T12:59:00.483Z</time></trkpt><trkpt lat="40.4566148" lon="15.0120196"><ele>26.833333333333332</ele><time>2026-03-29T12:59:01.467Z</time></trkpt><trkpt lat="40.4565492" lon="15.0120131"><ele>27.0</ele><time>2026-03-29T12:59:02.468Z</time></trkpt><trkpt lat="40.4564331" lon="15.0119991"><ele>27.0</ele><time>2026-03-29T12:59:04.48Z</time></trkpt><trkpt lat="40.456324" lon="15.0119807"><ele>27.0</ele><time>2026-03-29T12:59:06.483Z</time></trkpt><trkpt lat="40.4562412" lon="15.0119577"><ele>27.0</ele><time>2026-03-29T12:59:08.477Z</time></trkpt><trkpt lat="40.4561798" lon="15.0119042"><ele>27.0</ele><time>2026-03-29T12:59:10.462Z</time></trkpt><trkpt lat="40.4561097" lon="15.0118737"><ele>27.0</ele><time>2026-03-29T12:59:12.474Z</time></trkpt><trkpt lat="40.4560261" lon="15.011905"><ele>27.0</ele><time>2026-03-29T12:59:15.477Z</time></trkpt><trkpt lat="40.4559577" lon="15.0119269"><ele>27.0</ele><time>2026-03-29T12:59:17.477Z</time></trkpt><trkpt lat="40.4558792" lon="15.0119262"><ele>27.000000000000004</ele><time>2026-03-29T12:59:19.464Z</time></trkpt><trkpt lat="40.455776" lon="15.0119228"><ele>27.000000000000004</ele><time>2026-03-29T12:59:21.499Z</time></trkpt><trkpt lat="40.4556427" lon="15.0119223"><ele>27.0</ele><time>2026-03-29T12:59:23.469Z</time></trkpt><trkpt lat="40.4555433" lon="15.0119206"><ele>27.0</ele><time>2026-03-29T12:59:24.487Z</time></trkpt><trkpt lat="40.4554217" lon="15.0119162"><ele>27.0</ele><time>2026-03-29T12:59:25.466Z</time></trkpt><trkpt lat="40.4552595" lon="15.0118995"><ele>27.0</ele><time>2026-03-29T12:59:26.565Z</time></trkpt><trkpt lat="40.4549171" lon="15.0118418"><ele>27.0</ele><time>2026-03-29T12:59:28.475Z</time></trkpt><trkpt lat="40.4547252" lon="15.0118093"><ele>27.0</ele><time>2026-03-29T12:59:29.454Z</time></trkpt><trkpt lat="40.4545304" lon="15.0117774"><ele>27.0</ele><time>2026-03-29T12:59:30.463Z</time></trkpt><trkpt lat="40.4543477" lon="15.0117484"><ele>26.0</ele><time>2026-03-29T12:59:31.479Z</time></trkpt><trkpt lat="40.4541656" lon="15.0117291"><ele>25.0</ele><time>2026-03-29T12:59:32.459Z</time></trkpt><trkpt lat="40.4539777" lon="15.0117106"><ele>24.0</ele><time>2026-03-29T12:59:33.486Z</time></trkpt><trkpt lat="40.4538109" lon="15.0116904"><ele>24.0</ele><time>2026-03-29T12:59:34.455Z</time></trkpt><trkpt lat="40.4536304" lon="15.0116679"><ele>24.0</ele><time>2026-03-29T12:59:35.528Z</time></trkpt><trkpt lat="40.4534692" lon="15.0116453"><ele>24.0</ele><time>2026-03-29T12:59:36.481Z</time></trkpt><trkpt lat="40.4532949" lon="15.0116245"><ele>23.666666666666668</ele><time>2026-03-29T12:59:37.486Z</time></trkpt><trkpt lat="40.453125" lon="15.0116078"><ele>23.333333333333336</ele><time>2026-03-29T12:59:38.46Z</time></trkpt><trkpt lat="40.4529599" lon="15.0115934"><ele>23.0</ele><time>2026-03-29T12:59:39.464Z</time></trkpt><trkpt lat="40.4528007" lon="15.0115792"><ele>22.666666666666668</ele><time>2026-03-29T12:59:40.459Z</time></trkpt><trkpt lat="40.4526344" lon="15.0115626"><ele>22.333333333333332</ele><time>2026-03-29T12:59:41.471Z</time></trkpt><trkpt lat="40.4524702" lon="15.0115455"><ele>22.0</ele><time>2026-03-29T12:59:42.475Z</time></trkpt><trkpt lat="40.4523134" lon="15.0115275"><ele>22.0</ele><time>2026-03-29T12:59:43.479Z</time></trkpt><trkpt lat="40.4521664" lon="15.0115054"><ele>22.0</ele><time>2026-03-29T12:59:44.482Z</time></trkpt><trkpt lat="40.4520295" lon="15.0114818"><ele>22.0</ele><time>2026-03-29T12:59:45.473Z</time></trkpt><trkpt lat="40.4518959" lon="15.0114546"><ele>22.0</ele><time>2026-03-29T12:59:46.472Z</time></trkpt><trkpt lat="40.4517646" lon="15.0114272"><ele>22.0</ele><time>2026-03-29T12:59:47.444Z</time></trkpt><trkpt lat="40.451621" lon="15.0113936"><ele>22.0</ele><time>2026-03-29T12:59:48.452Z</time></trkpt><trkpt lat="40.4514722" lon="15.0113557"><ele>22.0</ele><time>2026-03-29T12:59:49.454Z</time></trkpt><trkpt lat="40.4513307" lon="15.0113246"><ele>22.0</ele><time>2026-03-29T12:59:50.467Z</time></trkpt><trkpt lat="40.4512232" lon="15.0112998"><ele>21.75</ele><time>2026-03-29T12:59:51.488Z</time></trkpt><trkpt lat="40.4511422" lon="15.0112748"><ele>21.5</ele><time>2026-03-29T12:59:52.447Z</time></trkpt><trkpt lat="40.4510488" lon="15.0112394"><ele>21.25</ele><time>2026-03-29T12:59:53.487Z</time></trkpt><trkpt lat="40.4509278" lon="15.0112005"><ele>21.0</ele><time>2026-03-29T12:59:54.565Z</time></trkpt><trkpt lat="40.4506494" lon="15.0111348"><ele>21.0</ele><time>2026-03-29T12:59:56.463Z</time></trkpt><trkpt lat="40.4504629" lon="15.0110927"><ele>21.0</ele><time>2026-03-29T12:59:57.488Z</time></trkpt><trkpt lat="40.4502625" lon="15.0110461"><ele>21.0</ele><time>2026-03-29T12:59:58.463Z</time></trkpt><trkpt lat="40.4500426" lon="15.0109942"><ele>21.0</ele><time>2026-03-29T12:59:59.493Z</time></trkpt><trkpt lat="40.4498181" lon="15.0109381"><ele>21.0</ele><time>2026-03-29T13:00:00.517Z</time></trkpt><trkpt lat="40.4496115" lon="15.0108858"><ele>21.0</ele><time>2026-03-29T13:00:01.485Z</time></trkpt><trkpt lat="40.4493957" lon="15.0108301"><ele>20.666666666666668</ele><time>2026-03-29T13:00:02.475Z</time></trkpt><trkpt lat="40.4491739" lon="15.0107748"><ele>20.333333333333336</ele><time>2026-03-29T13:00:03.56Z</time></trkpt><trkpt lat="40.4489805" lon="15.0107289"><ele>20.0</ele><time>2026-03-29T13:00:04.485Z</time></trkpt><trkpt lat="40.4487628" lon="15.0106744"><ele>20.0</ele><time>2026-03-29T13:00:05.517Z</time></trkpt><trkpt lat="40.4485574" lon="15.0106204"><ele>20.0</ele><time>2026-03-29T13:00:06.497Z</time></trkpt><trkpt lat="40.4483709" lon="15.0105705"><ele>20.0</ele><time>2026-03-29T13:00:07.486Z</time></trkpt><trkpt lat="40.4481812" lon="15.0105209"><ele>20.0</ele><time>2026-03-29T13:00:08.478Z</time></trkpt><trkpt lat="40.4479897" lon="15.0104732"><ele>20.0</ele><time>2026-03-29T13:00:09.479Z</time></trkpt><trkpt lat="40.4478072" lon="15.0104271"><ele>20.0</ele><time>2026-03-29T13:00:10.482Z</time></trkpt><trkpt lat="40.4476215" lon="15.0103795"><ele>20.0</ele><time>2026-03-29T13:00:11.535Z</time></trkpt><trkpt lat="40.4474374" lon="15.0103347"><ele>20.0</ele><time>2026-03-29T13:00:12.561Z</time></trkpt><trkpt lat="40.4472788" lon="15.010296"><ele>20.0</ele><time>2026-03-29T13:00:13.473Z</time></trkpt><trkpt lat="40.4471098" lon="15.0102515"><ele>20.0</ele><time>2026-03-29T13:00:14.488Z</time></trkpt><trkpt lat="40.4469491" lon="15.0102081"><ele>20.0</ele><time>2026-03-29T13:00:15.489Z</time></trkpt><trkpt lat="40.446801" lon="15.0101689"><ele>20.0</ele><time>2026-03-29T13:00:16.477Z</time></trkpt><trkpt lat="40.4466619" lon="15.0101348"><ele>20.0</ele><time>2026-03-29T13:00:17.465Z</time></trkpt><trkpt lat="40.4465146" lon="15.010098"><ele>20.0</ele><time>2026-03-29T13:00:18.569Z</time></trkpt><trkpt lat="40.4463992" lon="15.0100668"><ele>20.0</ele><time>2026-03-29T13:00:19.477Z</time></trkpt><trkpt lat="40.4462733" lon="15.0100343"><ele>20.0</ele><time>2026-03-29T13:00:20.506Z</time></trkpt><trkpt lat="40.4461605" lon="15.0100066"><ele>20.25</ele><time>2026-03-29T13:00:21.465Z</time></trkpt><trkpt lat="40.4460461" lon="15.0099783"><ele>20.5</ele><time>2026-03-29T13:00:22.482Z</time></trkpt><trkpt lat="40.4459373" lon="15.0099491"><ele>20.75</ele><time>2026-03-29T13:00:23.466Z</time></trkpt><trkpt lat="40.4458184" lon="15.0099166"><ele>21.0</ele><time>2026-03-29T13:00:24.46Z</time></trkpt><trkpt lat="40.4456886" lon="15.0098831"><ele>21.0</ele><time>2026-03-29T13:00:25.469Z</time></trkpt><trkpt lat="40.4455561" lon="15.0098512"><ele>21.0</ele><time>2026-03-29T13:00:26.468Z</time></trkpt><trkpt lat="40.4454188" lon="15.0098151"><ele>21.0</ele><time>2026-03-29T13:00:27.483Z</time></trkpt><trkpt lat="40.4452815" lon="15.0097781"><ele>21.0</ele><time>2026-03-29T13:00:28.475Z</time></trkpt><trkpt lat="40.4451329" lon="15.0097418"><ele>21.0</ele><time>2026-03-29T13:00:29.498Z</time></trkpt><trkpt lat="40.4449854" lon="15.0097069"><ele>21.0</ele><time>2026-03-29T13:00:30.469Z</time></trkpt><trkpt lat="40.4448336" lon="15.0096692"><ele>21.0</ele><time>2026-03-29T13:00:31.486Z</time></trkpt><trkpt lat="40.4446945" lon="15.0096351"><ele>21.0</ele><time>2026-03-29T13:00:32.474Z</time></trkpt><trkpt lat="40.4445399" lon="15.009594"><ele>21.0</ele><time>2026-03-29T13:00:33.611Z</time></trkpt><trkpt lat="40.4442651" lon="15.0095302"><ele>21.0</ele><time>2026-03-29T13:00:35.497Z</time></trkpt><trkpt lat="40.4440942" lon="15.0094995"><ele>21.0</ele><time>2026-03-29T13:00:36.509Z</time></trkpt><trkpt lat="40.4439066" lon="15.0094601"><ele>21.0</ele><time>2026-03-29T13:00:37.534Z</time></trkpt><trkpt lat="40.4437143" lon="15.0094106"><ele>21.0</ele><time>2026-03-29T13:00:38.491Z</time></trkpt><trkpt lat="40.4434965" lon="15.0093448"><ele>20.5</ele><time>2026-03-29T13:00:39.494Z</time></trkpt><trkpt lat="40.4432627" lon="15.0092765"><ele>20.0</ele><time>2026-03-29T13:00:40.486Z</time></trkpt><trkpt lat="40.4430142" lon="15.00921"><ele>19.5</ele><time>2026-03-29T13:00:41.486Z</time></trkpt><trkpt lat="40.4427605" lon="15.0091477"><ele>19.0</ele><time>2026-03-29T13:00:42.483Z</time></trkpt><trkpt lat="40.4425014" lon="15.0090831"><ele>19.0</ele><time>2026-03-29T13:00:43.501Z</time></trkpt><trkpt lat="40.4422643" lon="15.0090233"><ele>19.0</ele><time>2026-03-29T13:00:44.479Z</time></trkpt><trkpt lat="40.4420307" lon="15.0089665"><ele>18.666666666666664</ele><time>2026-03-29T13:00:45.5Z</time></trkpt><trkpt lat="40.4418408" lon="15.008915"><ele>18.333333333333332</ele><time>2026-03-29T13:00:46.493Z</time></trkpt><trkpt lat="40.4416385" lon="15.0088653"><ele>18.0</ele><time>2026-03-29T13:00:47.482Z</time></trkpt><trkpt lat="40.441432" lon="15.0088153"><ele>18.666666666666668</ele><time>2026-03-29T13:00:48.492Z</time></trkpt><trkpt lat="40.4412229" lon="15.0087644"><ele>19.333333333333336</ele><time>2026-03-29T13:00:49.518Z</time></trkpt><trkpt lat="40.4410321" lon="15.0087158"><ele>20.0</ele><time>2026-03-29T13:00:50.494Z</time></trkpt><trkpt lat="40.4408476" lon="15.0086681"><ele>20.0</ele><time>2026-03-29T13:00:51.485Z</time></trkpt><trkpt lat="40.4406675" lon="15.0086228"><ele>20.0</ele><time>2026-03-29T13:00:52.478Z</time></trkpt><trkpt lat="40.4404836" lon="15.008578"><ele>20.0</ele><time>2026-03-29T13:00:53.48Z</time></trkpt><trkpt lat="40.4402934" lon="15.0085302"><ele>19.333333333333336</ele><time>2026-03-29T13:00:54.477Z</time></trkpt><trkpt lat="40.4400937" lon="15.0084775"><ele>18.666666666666668</ele><time>2026-03-29T13:00:55.492Z</time></trkpt><trkpt lat="40.4398919" lon="15.0084205"><ele>18.0</ele><time>2026-03-29T13:00:56.484Z</time></trkpt><trkpt lat="40.4396667" lon="15.0083596"><ele>16.5</ele><time>2026-03-29T13:00:57.592Z</time></trkpt><trkpt lat="40.4393012" lon="15.0082702"><ele>15.0</ele><time>2026-03-29T13:00:59.496Z</time></trkpt><trkpt lat="40.4391069" lon="15.00822"><ele>15.0</ele><time>2026-03-29T13:01:00.501Z</time></trkpt><trkpt lat="40.4389186" lon="15.0081726"><ele>15.0</ele><time>2026-03-29T13:01:01.461Z</time></trkpt><trkpt lat="40.4387303" lon="15.0081255"><ele>15.0</ele><time>2026-03-29T13:01:02.465Z</time></trkpt><trkpt lat="40.4385464" lon="15.0080776"><ele>15.0</ele><time>2026-03-29T13:01:03.494Z</time></trkpt><trkpt lat="40.438365" lon="15.0080298"><ele>15.0</ele><time>2026-03-29T13:01:04.493Z</time></trkpt><trkpt lat="40.4381909" lon="15.0079857"><ele>15.0</ele><time>2026-03-29T13:01:05.474Z</time></trkpt><trkpt lat="40.4380164" lon="15.0079414"><ele>15.0</ele><time>2026-03-29T13:01:06.462Z</time></trkpt><trkpt lat="40.4378235" lon="15.007893"><ele>15.0</ele><time>2026-03-29T13:01:07.518Z</time></trkpt><trkpt lat="40.4376542" lon="15.0078513"><ele>15.0</ele><time>2026-03-29T13:01:08.496Z</time></trkpt><trkpt lat="40.4374914" lon="15.0078092"><ele>15.0</ele><time>2026-03-29T13:01:09.538Z</time></trkpt><trkpt lat="40.4373551" lon="15.0077722"><ele>15.0</ele><time>2026-03-29T13:01:10.475Z</time></trkpt><trkpt lat="40.4372151" lon="15.0077347"><ele>15.0</ele><time>2026-03-29T13:01:11.487Z</time></trkpt><trkpt lat="40.4370834" lon="15.0076981"><ele>15.0</ele><time>2026-03-29T13:01:12.499Z</time></trkpt><trkpt lat="40.4369588" lon="15.0076628"><ele>15.5</ele><time>2026-03-29T13:01:13.478Z</time></trkpt><trkpt lat="40.4368369" lon="15.0076288"><ele>16.0</ele><time>2026-03-29T13:01:14.459Z</time></trkpt><trkpt lat="40.4367152" lon="15.0075948"><ele>16.5</ele><time>2026-03-29T13:01:15.497Z</time></trkpt><trkpt lat="40.436589" lon="15.0075623"><ele>17.0</ele><time>2026-03-29T13:01:16.47Z</time></trkpt><trkpt lat="40.4364366" lon="15.0075305"><ele>16.333333333333336</ele><time>2026-03-29T13:01:17.469Z</time></trkpt><trkpt lat="40.4362578" lon="15.0074892"><ele>15.666666666666668</ele><time>2026-03-29T13:01:18.502Z</time></trkpt><trkpt lat="40.4360731" lon="15.0074428"><ele>15.0</ele><time>2026-03-29T13:01:19.468Z</time></trkpt><trkpt lat="40.4358762" lon="15.007393"><ele>15.0</ele><time>2026-03-29T13:01:20.495Z</time></trkpt><trkpt lat="40.4356973" lon="15.0073494"><ele>15.0</ele><time>2026-03-29T13:01:21.465Z</time></trkpt><trkpt lat="40.4355135" lon="15.0073042"><ele>15.0</ele><time>2026-03-29T13:01:22.474Z</time></trkpt><trkpt lat="40.4353217" lon="15.0072558"><ele>15.333333333333332</ele><time>2026-03-29T13:01:23.482Z</time></trkpt><trkpt lat="40.4351193" lon="15.0072023"><ele>15.666666666666666</ele><time>2026-03-29T13:01:24.476Z</time></trkpt><trkpt lat="40.4349104" lon="15.0071468"><ele>16.0</ele><time>2026-03-29T13:01:25.496Z</time></trkpt><trkpt lat="40.4347121" lon="15.0070965"><ele>16.0</ele><time>2026-03-29T13:01:26.491Z</time></trkpt><trkpt lat="40.4345094" lon="15.0070435"><ele>16.0</ele><time>2026-03-29T13:01:27.49Z</time></trkpt><trkpt lat="40.4343095" lon="15.0069943"><ele>16.0</ele><time>2026-03-29T13:01:28.484Z</time></trkpt><trkpt lat="40.4340934" lon="15.0069427"><ele>16.0</ele><time>2026-03-29T13:01:29.581Z</time></trkpt><trkpt lat="40.4339167" lon="15.0068982"><ele>16.0</ele><time>2026-03-29T13:01:30.483Z</time></trkpt><trkpt lat="40.4337101" lon="15.006847"><ele>16.0</ele><time>2026-03-29T13:01:31.509Z</time></trkpt><trkpt lat="40.43352" lon="15.0067948"><ele>16.333333333333332</ele><time>2026-03-29T13:01:32.462Z</time></trkpt><trkpt lat="40.4333097" lon="15.0067411"><ele>16.666666666666668</ele><time>2026-03-29T13:01:33.487Z</time></trkpt><trkpt lat="40.4331069" lon="15.0066891"><ele>17.0</ele><time>2026-03-29T13:01:34.465Z</time></trkpt><trkpt lat="40.4328936" lon="15.006638"><ele>16.333333333333336</ele><time>2026-03-29T13:01:35.473Z</time></trkpt><trkpt lat="40.4326984" lon="15.0065898"><ele>15.666666666666668</ele><time>2026-03-29T13:01:36.488Z</time></trkpt><trkpt lat="40.4325043" lon="15.0065469"><ele>15.0</ele><time>2026-03-29T13:01:37.495Z</time></trkpt><trkpt lat="40.4323161" lon="15.0065051"><ele>15.333333333333332</ele><time>2026-03-29T13:01:38.476Z</time></trkpt><trkpt lat="40.4321065" lon="15.0064491"><ele>15.666666666666666</ele><time>2026-03-29T13:01:39.492Z</time></trkpt><trkpt lat="40.4319013" lon="15.0063982"><ele>16.0</ele><time>2026-03-29T13:01:40.485Z</time></trkpt><trkpt lat="40.4317079" lon="15.0063555"><ele>16.0</ele><time>2026-03-29T13:01:41.503Z</time></trkpt><trkpt lat="40.4314998" lon="15.0063016"><ele>16.0</ele><time>2026-03-29T13:01:42.592Z</time></trkpt><trkpt lat="40.4313202" lon="15.0062468"><ele>16.0</ele><time>2026-03-29T13:01:43.513Z</time></trkpt><trkpt lat="40.4311317" lon="15.0061986"><ele>15.333333333333332</ele><time>2026-03-29T13:01:44.495Z</time></trkpt><trkpt lat="40.4309295" lon="15.0061508"><ele>14.666666666666668</ele><time>2026-03-29T13:01:45.491Z</time></trkpt><trkpt lat="40.430723" lon="15.0061056"><ele>14.0</ele><time>2026-03-29T13:01:46.485Z</time></trkpt><trkpt lat="40.4305348" lon="15.0060672"><ele>14.0</ele><time>2026-03-29T13:01:47.464Z</time></trkpt><trkpt lat="40.4303538" lon="15.006033"><ele>14.0</ele><time>2026-03-29T13:01:48.489Z</time></trkpt><trkpt lat="40.4301844" lon="15.0059958"><ele>14.0</ele><time>2026-03-29T13:01:49.475Z</time></trkpt><trkpt lat="40.429997" lon="15.0059485"><ele>14.0</ele><time>2026-03-29T13:01:50.49Z</time></trkpt><trkpt lat="40.4297989" lon="15.0058835"><ele>14.0</ele><time>2026-03-29T13:01:51.478Z</time></trkpt><trkpt lat="40.4296225" lon="15.0058336"><ele>14.0</ele><time>2026-03-29T13:01:52.483Z</time></trkpt><trkpt lat="40.4294476" lon="15.0057848"><ele>13.333333333333334</ele><time>2026-03-29T13:01:53.458Z</time></trkpt><trkpt lat="40.4292624" lon="15.005734"><ele>12.666666666666668</ele><time>2026-03-29T13:01:54.481Z</time></trkpt><trkpt lat="40.4290858" lon="15.0056862"><ele>12.0</ele><time>2026-03-29T13:01:55.5Z</time></trkpt><trkpt lat="40.428918" lon="15.0056424"><ele>13.0</ele><time>2026-03-29T13:01:56.505Z</time></trkpt><trkpt lat="40.4287572" lon="15.0055983"><ele>14.0</ele><time>2026-03-29T13:01:57.478Z</time></trkpt><trkpt lat="40.42859" lon="15.005551"><ele>15.0</ele><time>2026-03-29T13:01:58.467Z</time></trkpt><trkpt lat="40.4284135" lon="15.0054989"><ele>15.0</ele><time>2026-03-29T13:01:59.47Z</time></trkpt><trkpt lat="40.4282542" lon="15.0054508"><ele>15.0</ele><time>2026-03-29T13:02:00.479Z</time></trkpt><trkpt lat="40.4281055" lon="15.0054156"><ele>15.0</ele><time>2026-03-29T13:02:01.479Z</time></trkpt><trkpt lat="40.4279625" lon="15.0053766"><ele>15.0</ele><time>2026-03-29T13:02:02.508Z</time></trkpt><trkpt lat="40.4278216" lon="15.0053397"><ele>15.0</ele><time>2026-03-29T13:02:03.494Z</time></trkpt><trkpt lat="40.4276804" lon="15.0053043"><ele>15.0</ele><time>2026-03-29T13:02:04.499Z</time></trkpt><trkpt lat="40.4275473" lon="15.0052694"><ele>15.0</ele><time>2026-03-29T13:02:05.479Z</time></trkpt><trkpt lat="40.4274178" lon="15.0052417"><ele>15.0</ele><time>2026-03-29T13:02:06.496Z</time></trkpt><trkpt lat="40.4273025" lon="15.0052171"><ele>15.0</ele><time>2026-03-29T13:02:07.476Z</time></trkpt><trkpt lat="40.4271938" lon="15.0051958"><ele>15.0</ele><time>2026-03-29T13:02:08.5Z</time></trkpt><trkpt lat="40.4270945" lon="15.0051768"><ele>15.0</ele><time>2026-03-29T13:02:09.486Z</time></trkpt><trkpt lat="40.4270022" lon="15.0051617"><ele>15.0</ele><time>2026-03-29T13:02:10.47Z</time></trkpt><trkpt lat="40.4269137" lon="15.0051542"><ele>15.333333333333334</ele><time>2026-03-29T13:02:11.482Z</time></trkpt><trkpt lat="40.4268326" lon="15.005154"><ele>15.666666666666668</ele><time>2026-03-29T13:02:12.471Z</time></trkpt><trkpt lat="40.4267538" lon="15.0051594"><ele>16.0</ele><time>2026-03-29T13:02:13.464Z</time></trkpt><trkpt lat="40.4266678" lon="15.0051768"><ele>16.333333333333336</ele><time>2026-03-29T13:02:14.544Z</time></trkpt><trkpt lat="40.4265915" lon="15.0052054"><ele>16.666666666666668</ele><time>2026-03-29T13:02:15.473Z</time></trkpt><trkpt lat="40.4265087" lon="15.005244"><ele>17.0</ele><time>2026-03-29T13:02:16.486Z</time></trkpt><trkpt lat="40.4264333" lon="15.0052816"><ele>17.0</ele><time>2026-03-29T13:02:17.487Z</time></trkpt><trkpt lat="40.4263533" lon="15.0053213"><ele>17.0</ele><time>2026-03-29T13:02:18.515Z</time></trkpt><trkpt lat="40.4262822" lon="15.0053559"><ele>17.0</ele><time>2026-03-29T13:02:19.468Z</time></trkpt><trkpt lat="40.4262127" lon="15.0053943"><ele>17.0</ele><time>2026-03-29T13:02:20.505Z</time></trkpt><trkpt lat="40.4261502" lon="15.005428"><ele>17.0</ele><time>2026-03-29T13:02:21.511Z</time></trkpt><trkpt lat="40.4260854" lon="15.0054618"><ele>17.0</ele><time>2026-03-29T13:02:22.482Z</time></trkpt><trkpt lat="40.4260142" lon="15.0055033"><ele>17.0</ele><time>2026-03-29T13:02:23.475Z</time></trkpt><trkpt lat="40.4259299" lon="15.0055634"><ele>17.0</ele><time>2026-03-29T13:02:24.52Z</time></trkpt><trkpt lat="40.4258363" lon="15.0056294"><ele>17.0</ele><time>2026-03-29T13:02:25.459Z</time></trkpt><trkpt lat="40.4257184" lon="15.0056934"><ele>17.0</ele><time>2026-03-29T13:02:26.497Z</time></trkpt><trkpt lat="40.4255903" lon="15.0057489"><ele>17.0</ele><time>2026-03-29T13:02:27.475Z</time></trkpt><trkpt lat="40.425473" lon="15.0058044"><ele>17.0</ele><time>2026-03-29T13:02:28.479Z</time></trkpt><trkpt lat="40.4253663" lon="15.0058598"><ele>17.0</ele><time>2026-03-29T13:02:29.492Z</time></trkpt><trkpt lat="40.42528" lon="15.0059047"><ele>17.0</ele><time>2026-03-29T13:02:30.474Z</time></trkpt><trkpt lat="40.4251984" lon="15.005946"><ele>17.0</ele><time>2026-03-29T13:02:31.511Z</time></trkpt><trkpt lat="40.4251314" lon="15.0059789"><ele>17.0</ele><time>2026-03-29T13:02:32.534Z</time></trkpt><trkpt lat="40.4250538" lon="15.0060285"><ele>17.0</ele><time>2026-03-29T13:02:34.505Z</time></trkpt><trkpt lat="40.4250562" lon="15.0061129"><ele>17.0</ele><time>2026-03-29T13:02:37.462Z</time></trkpt><trkpt lat="40.4250839" lon="15.0061888"><ele>17.0</ele><time>2026-03-29T13:02:42.468Z</time></trkpt></trkseg></trk></gpx>